<?xml version="1.0" encoding="UTF-8" standalone="no" ?>
<gpx xmlns="http://www.topografix.com/GPX/1/1" xmlns:xsi="http://www.w3.org/2001/XMLSchema-instance" xsi:schemaLocation="http://www.topografix.com/GPX/1/1 http://www.topografix.com/GPX/1/1/gpx.xsd" version="1.1" creator="VisuGPX - https://www.visugpx.com">
  <metadata>
    <name>Sainte Victoire </name>
    <desc><![CDATA[grp_trc:[nouvelles]]]></desc>
  </metadata>
  <trk>
    <name><![CDATA[10 sept. 2022 à 07:07:19]]></name>
    <cmt><![CDATA[10 sept. 2022 à 07:07:19]]></cmt>
    <trkseg>
      <trkpt lat="43.5234" lon="5.56779">
        <ele>306</ele>
        <time>2022-09-10T05:07:20Z</time>
      </trkpt>
      <trkpt lat="43.52352" lon="5.56768">
        <ele>306</ele>
        <time>2022-09-10T05:07:27Z</time>
      </trkpt>
      <trkpt lat="43.52355" lon="5.56768">
        <ele>306</ele>
        <time>2022-09-10T05:07:31Z</time>
      </trkpt>
      <trkpt lat="43.52364" lon="5.56775">
        <ele>307</ele>
        <time>2022-09-10T05:07:40Z</time>
      </trkpt>
      <trkpt lat="43.52368" lon="5.56781">
        <ele>309</ele>
        <time>2022-09-10T05:07:44Z</time>
      </trkpt>
      <trkpt lat="43.5237" lon="5.5679">
        <ele>309</ele>
        <time>2022-09-10T05:07:50Z</time>
      </trkpt>
      <trkpt lat="43.52375" lon="5.56789">
        <ele>310</ele>
        <time>2022-09-10T05:07:54Z</time>
      </trkpt>
      <trkpt lat="43.52379" lon="5.56788">
        <ele>311</ele>
        <time>2022-09-10T05:07:57Z</time>
      </trkpt>
      <trkpt lat="43.52384" lon="5.56785">
        <ele>313</ele>
        <time>2022-09-10T05:08:02Z</time>
      </trkpt>
      <trkpt lat="43.52389" lon="5.56782">
        <ele>315</ele>
        <time>2022-09-10T05:08:10Z</time>
      </trkpt>
      <trkpt lat="43.52394" lon="5.56786">
        <ele>317</ele>
        <time>2022-09-10T05:08:20Z</time>
      </trkpt>
      <trkpt lat="43.52398" lon="5.56785">
        <ele>319</ele>
        <time>2022-09-10T05:08:26Z</time>
      </trkpt>
      <trkpt lat="43.52401" lon="5.5679">
        <ele>321</ele>
        <time>2022-09-10T05:09:01Z</time>
      </trkpt>
      <trkpt lat="43.52397" lon="5.56795">
        <ele>321</ele>
        <time>2022-09-10T05:09:03Z</time>
      </trkpt>
      <trkpt lat="43.52406" lon="5.56795">
        <ele>323</ele>
        <time>2022-09-10T05:09:13Z</time>
      </trkpt>
      <trkpt lat="43.52408" lon="5.56789">
        <ele>323</ele>
        <time>2022-09-10T05:09:17Z</time>
      </trkpt>
      <trkpt lat="43.52413" lon="5.56784">
        <ele>325</ele>
        <time>2022-09-10T05:09:25Z</time>
      </trkpt>
      <trkpt lat="43.52419" lon="5.56783">
        <ele>325</ele>
        <time>2022-09-10T05:09:30Z</time>
      </trkpt>
      <trkpt lat="43.52425" lon="5.56781">
        <ele>327</ele>
        <time>2022-09-10T05:09:39Z</time>
      </trkpt>
      <trkpt lat="43.52431" lon="5.56779">
        <ele>329</ele>
        <time>2022-09-10T05:09:46Z</time>
      </trkpt>
      <trkpt lat="43.5246" lon="5.56781">
        <ele>332</ele>
        <time>2022-09-10T05:10:19Z</time>
      </trkpt>
      <trkpt lat="43.5248" lon="5.56776">
        <ele>334</ele>
        <time>2022-09-10T05:10:35Z</time>
      </trkpt>
      <trkpt lat="43.52488" lon="5.56769">
        <ele>336</ele>
        <time>2022-09-10T05:10:43Z</time>
      </trkpt>
      <trkpt lat="43.52491" lon="5.56765">
        <ele>336</ele>
        <time>2022-09-10T05:10:47Z</time>
      </trkpt>
      <trkpt lat="43.52498" lon="5.56747">
        <ele>339</ele>
        <time>2022-09-10T05:10:59Z</time>
      </trkpt>
      <trkpt lat="43.52506" lon="5.56724">
        <ele>341</ele>
        <time>2022-09-10T05:11:14Z</time>
      </trkpt>
      <trkpt lat="43.52509" lon="5.56718">
        <ele>342</ele>
        <time>2022-09-10T05:11:18Z</time>
      </trkpt>
      <trkpt lat="43.52517" lon="5.5671">
        <ele>343</ele>
        <time>2022-09-10T05:11:27Z</time>
      </trkpt>
      <trkpt lat="43.52521" lon="5.56709">
        <ele>343</ele>
        <time>2022-09-10T05:11:32Z</time>
      </trkpt>
      <trkpt lat="43.52551" lon="5.56688">
        <ele>348</ele>
        <time>2022-09-10T05:12:05Z</time>
      </trkpt>
      <trkpt lat="43.52561" lon="5.56686">
        <ele>350</ele>
        <time>2022-09-10T05:12:15Z</time>
      </trkpt>
      <trkpt lat="43.52565" lon="5.56685">
        <ele>351</ele>
        <time>2022-09-10T05:12:19Z</time>
      </trkpt>
      <trkpt lat="43.52589" lon="5.56692">
        <ele>356</ele>
        <time>2022-09-10T05:12:44Z</time>
      </trkpt>
      <trkpt lat="43.52593" lon="5.56697">
        <ele>357</ele>
        <time>2022-09-10T05:12:51Z</time>
      </trkpt>
      <trkpt lat="43.52594" lon="5.56712">
        <ele>361</ele>
        <time>2022-09-10T05:13:06Z</time>
      </trkpt>
      <trkpt lat="43.52598" lon="5.5673">
        <ele>364</ele>
        <time>2022-09-10T05:13:22Z</time>
      </trkpt>
      <trkpt lat="43.526" lon="5.56736">
        <ele>364</ele>
        <time>2022-09-10T05:13:26Z</time>
      </trkpt>
      <trkpt lat="43.526" lon="5.56749">
        <ele>365</ele>
        <time>2022-09-10T05:13:34Z</time>
      </trkpt>
      <trkpt lat="43.52594" lon="5.56776">
        <ele>367</ele>
        <time>2022-09-10T05:13:54Z</time>
      </trkpt>
      <trkpt lat="43.52599" lon="5.56788">
        <ele>369</ele>
        <time>2022-09-10T05:14:03Z</time>
      </trkpt>
      <trkpt lat="43.52603" lon="5.56792">
        <ele>370</ele>
        <time>2022-09-10T05:14:07Z</time>
      </trkpt>
      <trkpt lat="43.52609" lon="5.56788">
        <ele>372</ele>
        <time>2022-09-10T05:14:15Z</time>
      </trkpt>
      <trkpt lat="43.52635" lon="5.56761">
        <ele>378</ele>
        <time>2022-09-10T05:14:48Z</time>
      </trkpt>
      <trkpt lat="43.5264" lon="5.56759">
        <ele>379</ele>
        <time>2022-09-10T05:14:53Z</time>
      </trkpt>
      <trkpt lat="43.52647" lon="5.56765">
        <ele>381</ele>
        <time>2022-09-10T05:15:03Z</time>
      </trkpt>
      <trkpt lat="43.52651" lon="5.56772">
        <ele>382</ele>
        <time>2022-09-10T05:15:11Z</time>
      </trkpt>
      <trkpt lat="43.52657" lon="5.56775">
        <ele>383</ele>
        <time>2022-09-10T05:15:17Z</time>
      </trkpt>
      <trkpt lat="43.52659" lon="5.56788">
        <ele>386</ele>
        <time>2022-09-10T05:15:29Z</time>
      </trkpt>
      <trkpt lat="43.52661" lon="5.56795">
        <ele>388</ele>
        <time>2022-09-10T05:15:36Z</time>
      </trkpt>
      <trkpt lat="43.52658" lon="5.56803">
        <ele>390</ele>
        <time>2022-09-10T05:15:47Z</time>
      </trkpt>
      <trkpt lat="43.52653" lon="5.56813">
        <ele>392</ele>
        <time>2022-09-10T05:15:56Z</time>
      </trkpt>
      <trkpt lat="43.52654" lon="5.5682">
        <ele>393</ele>
        <time>2022-09-10T05:16:00Z</time>
      </trkpt>
      <trkpt lat="43.52655" lon="5.56828">
        <ele>393</ele>
        <time>2022-09-10T05:16:06Z</time>
      </trkpt>
      <trkpt lat="43.52664" lon="5.56841">
        <ele>395</ele>
        <time>2022-09-10T05:16:18Z</time>
      </trkpt>
      <trkpt lat="43.52669" lon="5.56846">
        <ele>396</ele>
        <time>2022-09-10T05:16:24Z</time>
      </trkpt>
      <trkpt lat="43.52683" lon="5.56851">
        <ele>398</ele>
        <time>2022-09-10T05:16:36Z</time>
      </trkpt>
      <trkpt lat="43.52693" lon="5.56859">
        <ele>400</ele>
        <time>2022-09-10T05:16:49Z</time>
      </trkpt>
      <trkpt lat="43.52696" lon="5.56864">
        <ele>401</ele>
        <time>2022-09-10T05:16:53Z</time>
      </trkpt>
      <trkpt lat="43.527" lon="5.56867">
        <ele>402</ele>
        <time>2022-09-10T05:16:57Z</time>
      </trkpt>
      <trkpt lat="43.52708" lon="5.56875">
        <ele>402</ele>
        <time>2022-09-10T05:17:05Z</time>
      </trkpt>
      <trkpt lat="43.52713" lon="5.56875">
        <ele>402</ele>
        <time>2022-09-10T05:17:08Z</time>
      </trkpt>
      <trkpt lat="43.52717" lon="5.56873">
        <ele>402</ele>
        <time>2022-09-10T05:17:12Z</time>
      </trkpt>
      <trkpt lat="43.52722" lon="5.56872">
        <ele>402</ele>
        <time>2022-09-10T05:17:16Z</time>
      </trkpt>
      <trkpt lat="43.52731" lon="5.56873">
        <ele>403</ele>
        <time>2022-09-10T05:17:25Z</time>
      </trkpt>
      <trkpt lat="43.5274" lon="5.56872">
        <ele>404</ele>
        <time>2022-09-10T05:17:33Z</time>
      </trkpt>
      <trkpt lat="43.52746" lon="5.56874">
        <ele>405</ele>
        <time>2022-09-10T05:17:39Z</time>
      </trkpt>
      <trkpt lat="43.52754" lon="5.56867">
        <ele>407</ele>
        <time>2022-09-10T05:17:48Z</time>
      </trkpt>
      <trkpt lat="43.52757" lon="5.56862">
        <ele>408</ele>
        <time>2022-09-10T05:17:52Z</time>
      </trkpt>
      <trkpt lat="43.52759" lon="5.56856">
        <ele>408</ele>
        <time>2022-09-10T05:17:56Z</time>
      </trkpt>
      <trkpt lat="43.52759" lon="5.56849">
        <ele>408</ele>
        <time>2022-09-10T05:18:01Z</time>
      </trkpt>
      <trkpt lat="43.52766" lon="5.56849">
        <ele>409</ele>
        <time>2022-09-10T05:18:09Z</time>
      </trkpt>
      <trkpt lat="43.52774" lon="5.56852">
        <ele>411</ele>
        <time>2022-09-10T05:18:19Z</time>
      </trkpt>
      <trkpt lat="43.52778" lon="5.56858">
        <ele>412</ele>
        <time>2022-09-10T05:18:26Z</time>
      </trkpt>
      <trkpt lat="43.52789" lon="5.56857">
        <ele>414</ele>
        <time>2022-09-10T05:18:37Z</time>
      </trkpt>
      <trkpt lat="43.52794" lon="5.56857">
        <ele>415</ele>
        <time>2022-09-10T05:18:42Z</time>
      </trkpt>
      <trkpt lat="43.52795" lon="5.56865">
        <ele>416</ele>
        <time>2022-09-10T05:18:48Z</time>
      </trkpt>
      <trkpt lat="43.52796" lon="5.56873">
        <ele>417</ele>
        <time>2022-09-10T05:18:56Z</time>
      </trkpt>
      <trkpt lat="43.528" lon="5.56874">
        <ele>418</ele>
        <time>2022-09-10T05:19:00Z</time>
      </trkpt>
      <trkpt lat="43.52805" lon="5.56877">
        <ele>420</ele>
        <time>2022-09-10T05:19:07Z</time>
      </trkpt>
      <trkpt lat="43.52805" lon="5.56885">
        <ele>422</ele>
        <time>2022-09-10T05:19:18Z</time>
      </trkpt>
      <trkpt lat="43.5281" lon="5.56886">
        <ele>422</ele>
        <time>2022-09-10T05:19:21Z</time>
      </trkpt>
      <trkpt lat="43.52819" lon="5.56892">
        <ele>423</ele>
        <time>2022-09-10T05:19:29Z</time>
      </trkpt>
      <trkpt lat="43.52834" lon="5.56894">
        <ele>424</ele>
        <time>2022-09-10T05:19:41Z</time>
      </trkpt>
      <trkpt lat="43.52841" lon="5.56897">
        <ele>425</ele>
        <time>2022-09-10T05:19:49Z</time>
      </trkpt>
      <trkpt lat="43.52846" lon="5.56898">
        <ele>426</ele>
        <time>2022-09-10T05:19:52Z</time>
      </trkpt>
      <trkpt lat="43.52851" lon="5.56895">
        <ele>427</ele>
        <time>2022-09-10T05:19:57Z</time>
      </trkpt>
      <trkpt lat="43.52865" lon="5.56895">
        <ele>428</ele>
        <time>2022-09-10T05:20:11Z</time>
      </trkpt>
      <trkpt lat="43.52872" lon="5.56898">
        <ele>430</ele>
        <time>2022-09-10T05:20:18Z</time>
      </trkpt>
      <trkpt lat="43.52876" lon="5.56897">
        <ele>431</ele>
        <time>2022-09-10T05:20:23Z</time>
      </trkpt>
      <trkpt lat="43.5288" lon="5.56904">
        <ele>432</ele>
        <time>2022-09-10T05:20:31Z</time>
      </trkpt>
      <trkpt lat="43.52887" lon="5.5691">
        <ele>434</ele>
        <time>2022-09-10T05:20:40Z</time>
      </trkpt>
      <trkpt lat="43.5289" lon="5.56913">
        <ele>434</ele>
        <time>2022-09-10T05:20:44Z</time>
      </trkpt>
      <trkpt lat="43.52905" lon="5.56918">
        <ele>436</ele>
        <time>2022-09-10T05:20:56Z</time>
      </trkpt>
      <trkpt lat="43.52914" lon="5.56917">
        <ele>437</ele>
        <time>2022-09-10T05:21:04Z</time>
      </trkpt>
      <trkpt lat="43.52918" lon="5.56915">
        <ele>438</ele>
        <time>2022-09-10T05:21:08Z</time>
      </trkpt>
      <trkpt lat="43.52927" lon="5.56919">
        <ele>439</ele>
        <time>2022-09-10T05:21:16Z</time>
      </trkpt>
      <trkpt lat="43.52932" lon="5.56923">
        <ele>440</ele>
        <time>2022-09-10T05:21:25Z</time>
      </trkpt>
      <trkpt lat="43.5294" lon="5.56924">
        <ele>441</ele>
        <time>2022-09-10T05:21:42Z</time>
      </trkpt>
      <trkpt lat="43.52945" lon="5.56927">
        <ele>442</ele>
        <time>2022-09-10T05:21:47Z</time>
      </trkpt>
      <trkpt lat="43.52949" lon="5.56926">
        <ele>443</ele>
        <time>2022-09-10T05:21:52Z</time>
      </trkpt>
      <trkpt lat="43.52957" lon="5.56926">
        <ele>443</ele>
        <time>2022-09-10T05:22:03Z</time>
      </trkpt>
      <trkpt lat="43.52964" lon="5.56929">
        <ele>445</ele>
        <time>2022-09-10T05:22:14Z</time>
      </trkpt>
      <trkpt lat="43.52969" lon="5.56927">
        <ele>446</ele>
        <time>2022-09-10T05:22:19Z</time>
      </trkpt>
      <trkpt lat="43.52972" lon="5.56923">
        <ele>447</ele>
        <time>2022-09-10T05:22:23Z</time>
      </trkpt>
      <trkpt lat="43.52975" lon="5.56917">
        <ele>447</ele>
        <time>2022-09-10T05:22:26Z</time>
      </trkpt>
      <trkpt lat="43.52978" lon="5.56912">
        <ele>448</ele>
        <time>2022-09-10T05:22:30Z</time>
      </trkpt>
      <trkpt lat="43.52978" lon="5.56899">
        <ele>447</ele>
        <time>2022-09-10T05:22:36Z</time>
      </trkpt>
      <trkpt lat="43.52981" lon="5.56894">
        <ele>447</ele>
        <time>2022-09-10T05:22:40Z</time>
      </trkpt>
      <trkpt lat="43.52982" lon="5.56888">
        <ele>448</ele>
        <time>2022-09-10T05:22:44Z</time>
      </trkpt>
      <trkpt lat="43.52989" lon="5.56887">
        <ele>449</ele>
        <time>2022-09-10T05:22:53Z</time>
      </trkpt>
      <trkpt lat="43.52991" lon="5.5688">
        <ele>450</ele>
        <time>2022-09-10T05:22:58Z</time>
      </trkpt>
      <trkpt lat="43.52996" lon="5.56879">
        <ele>450</ele>
        <time>2022-09-10T05:23:02Z</time>
      </trkpt>
      <trkpt lat="43.53002" lon="5.56873">
        <ele>453</ele>
        <time>2022-09-10T05:23:13Z</time>
      </trkpt>
      <trkpt lat="43.53006" lon="5.5687">
        <ele>453</ele>
        <time>2022-09-10T05:23:17Z</time>
      </trkpt>
      <trkpt lat="43.53011" lon="5.56871">
        <ele>454</ele>
        <time>2022-09-10T05:23:24Z</time>
      </trkpt>
      <trkpt lat="43.53019" lon="5.56866">
        <ele>456</ele>
        <time>2022-09-10T05:23:34Z</time>
      </trkpt>
      <trkpt lat="43.53026" lon="5.56864">
        <ele>458</ele>
        <time>2022-09-10T05:23:42Z</time>
      </trkpt>
      <trkpt lat="43.53029" lon="5.5686">
        <ele>458</ele>
        <time>2022-09-10T05:23:46Z</time>
      </trkpt>
      <trkpt lat="43.5304" lon="5.56828">
        <ele>461</ele>
        <time>2022-09-10T05:24:11Z</time>
      </trkpt>
      <trkpt lat="43.5304" lon="5.5682">
        <ele>462</ele>
        <time>2022-09-10T05:24:16Z</time>
      </trkpt>
      <trkpt lat="43.53043" lon="5.56814">
        <ele>463</ele>
        <time>2022-09-10T05:24:21Z</time>
      </trkpt>
      <trkpt lat="43.53043" lon="5.56806">
        <ele>464</ele>
        <time>2022-09-10T05:24:28Z</time>
      </trkpt>
      <trkpt lat="43.53049" lon="5.56802">
        <ele>466</ele>
        <time>2022-09-10T05:24:41Z</time>
      </trkpt>
      <trkpt lat="43.53063" lon="5.56799">
        <ele>470</ele>
        <time>2022-09-10T05:24:59Z</time>
      </trkpt>
      <trkpt lat="43.53061" lon="5.56788">
        <ele>472</ele>
        <time>2022-09-10T05:25:10Z</time>
      </trkpt>
      <trkpt lat="43.53058" lon="5.56784">
        <ele>473</ele>
        <time>2022-09-10T05:25:15Z</time>
      </trkpt>
      <trkpt lat="43.53058" lon="5.56775">
        <ele>475</ele>
        <time>2022-09-10T05:25:26Z</time>
      </trkpt>
      <trkpt lat="43.53054" lon="5.56773">
        <ele>476</ele>
        <time>2022-09-10T05:25:31Z</time>
      </trkpt>
      <trkpt lat="43.53051" lon="5.56768">
        <ele>477</ele>
        <time>2022-09-10T05:25:36Z</time>
      </trkpt>
      <trkpt lat="43.53049" lon="5.5676">
        <ele>478</ele>
        <time>2022-09-10T05:25:43Z</time>
      </trkpt>
      <trkpt lat="43.53043" lon="5.56752">
        <ele>479</ele>
        <time>2022-09-10T05:25:52Z</time>
      </trkpt>
      <trkpt lat="43.53044" lon="5.56744">
        <ele>480</ele>
        <time>2022-09-10T05:26:00Z</time>
      </trkpt>
      <trkpt lat="43.53046" lon="5.56732">
        <ele>482</ele>
        <time>2022-09-10T05:26:12Z</time>
      </trkpt>
      <trkpt lat="43.53049" lon="5.56725">
        <ele>483</ele>
        <time>2022-09-10T05:26:19Z</time>
      </trkpt>
      <trkpt lat="43.53055" lon="5.56722">
        <ele>484</ele>
        <time>2022-09-10T05:26:26Z</time>
      </trkpt>
      <trkpt lat="43.53061" lon="5.56718">
        <ele>484</ele>
        <time>2022-09-10T05:26:33Z</time>
      </trkpt>
      <trkpt lat="43.53066" lon="5.56716">
        <ele>485</ele>
        <time>2022-09-10T05:26:38Z</time>
      </trkpt>
      <trkpt lat="43.53073" lon="5.56718">
        <ele>487</ele>
        <time>2022-09-10T05:26:46Z</time>
      </trkpt>
      <trkpt lat="43.53075" lon="5.56712">
        <ele>487</ele>
        <time>2022-09-10T05:26:50Z</time>
      </trkpt>
      <trkpt lat="43.53076" lon="5.56706">
        <ele>488</ele>
        <time>2022-09-10T05:26:54Z</time>
      </trkpt>
      <trkpt lat="43.53075" lon="5.56699">
        <ele>489</ele>
        <time>2022-09-10T05:26:59Z</time>
      </trkpt>
      <trkpt lat="43.53077" lon="5.56691">
        <ele>490</ele>
        <time>2022-09-10T05:27:06Z</time>
      </trkpt>
      <trkpt lat="43.53082" lon="5.56688">
        <ele>491</ele>
        <time>2022-09-10T05:27:13Z</time>
      </trkpt>
      <trkpt lat="43.53089" lon="5.5669">
        <ele>492</ele>
        <time>2022-09-10T05:27:23Z</time>
      </trkpt>
      <trkpt lat="43.53101" lon="5.56697">
        <ele>495</ele>
        <time>2022-09-10T05:27:50Z</time>
      </trkpt>
      <trkpt lat="43.53107" lon="5.56694">
        <ele>497</ele>
        <time>2022-09-10T05:27:59Z</time>
      </trkpt>
      <trkpt lat="43.53111" lon="5.56695">
        <ele>499</ele>
        <time>2022-09-10T05:28:05Z</time>
      </trkpt>
      <trkpt lat="43.53118" lon="5.567">
        <ele>500</ele>
        <time>2022-09-10T05:29:07Z</time>
      </trkpt>
      <trkpt lat="43.53121" lon="5.56704">
        <ele>501</ele>
        <time>2022-09-10T05:29:12Z</time>
      </trkpt>
      <trkpt lat="43.53123" lon="5.56712">
        <ele>503</ele>
        <time>2022-09-10T05:29:20Z</time>
      </trkpt>
      <trkpt lat="43.53124" lon="5.5672">
        <ele>504</ele>
        <time>2022-09-10T05:29:30Z</time>
      </trkpt>
      <trkpt lat="43.53128" lon="5.56723">
        <ele>505</ele>
        <time>2022-09-10T05:29:40Z</time>
      </trkpt>
      <trkpt lat="43.53133" lon="5.5672">
        <ele>507</ele>
        <time>2022-09-10T05:29:50Z</time>
      </trkpt>
      <trkpt lat="43.53134" lon="5.56714">
        <ele>508</ele>
        <time>2022-09-10T05:29:55Z</time>
      </trkpt>
      <trkpt lat="43.53143" lon="5.56705">
        <ele>510</ele>
        <time>2022-09-10T05:30:17Z</time>
      </trkpt>
      <trkpt lat="43.53148" lon="5.56707">
        <ele>511</ele>
        <time>2022-09-10T05:30:38Z</time>
      </trkpt>
      <trkpt lat="43.53152" lon="5.56716">
        <ele>511</ele>
        <time>2022-09-10T05:30:48Z</time>
      </trkpt>
      <trkpt lat="43.53153" lon="5.56722">
        <ele>513</ele>
        <time>2022-09-10T05:30:56Z</time>
      </trkpt>
      <trkpt lat="43.5315" lon="5.56731">
        <ele>515</ele>
        <time>2022-09-10T05:31:06Z</time>
      </trkpt>
      <trkpt lat="43.53154" lon="5.56735">
        <ele>518</ele>
        <time>2022-09-10T05:31:17Z</time>
      </trkpt>
      <trkpt lat="43.53152" lon="5.56742">
        <ele>518</ele>
        <time>2022-09-10T05:31:22Z</time>
      </trkpt>
      <trkpt lat="43.53151" lon="5.56747">
        <ele>519</ele>
        <time>2022-09-10T05:31:27Z</time>
      </trkpt>
      <trkpt lat="43.53151" lon="5.56753">
        <ele>520</ele>
        <time>2022-09-10T05:31:32Z</time>
      </trkpt>
      <trkpt lat="43.53159" lon="5.56769">
        <ele>523</ele>
        <time>2022-09-10T05:32:05Z</time>
      </trkpt>
      <trkpt lat="43.53165" lon="5.56776">
        <ele>525</ele>
        <time>2022-09-10T05:32:15Z</time>
      </trkpt>
      <trkpt lat="43.53174" lon="5.56778">
        <ele>528</ele>
        <time>2022-09-10T05:32:27Z</time>
      </trkpt>
      <trkpt lat="43.53182" lon="5.56784">
        <ele>530</ele>
        <time>2022-09-10T05:32:38Z</time>
      </trkpt>
      <trkpt lat="43.5319" lon="5.56783">
        <ele>531</ele>
        <time>2022-09-10T05:32:46Z</time>
      </trkpt>
      <trkpt lat="43.53194" lon="5.56785">
        <ele>532</ele>
        <time>2022-09-10T05:32:51Z</time>
      </trkpt>
      <trkpt lat="43.53197" lon="5.5679">
        <ele>532</ele>
        <time>2022-09-10T05:32:56Z</time>
      </trkpt>
      <trkpt lat="43.532" lon="5.56798">
        <ele>533</ele>
        <time>2022-09-10T05:33:02Z</time>
      </trkpt>
      <trkpt lat="43.53207" lon="5.56806">
        <ele>535</ele>
        <time>2022-09-10T05:33:14Z</time>
      </trkpt>
      <trkpt lat="43.5321" lon="5.56813">
        <ele>537</ele>
        <time>2022-09-10T05:33:22Z</time>
      </trkpt>
      <trkpt lat="43.53217" lon="5.56825">
        <ele>539</ele>
        <time>2022-09-10T05:33:34Z</time>
      </trkpt>
      <trkpt lat="43.53218" lon="5.56834">
        <ele>539</ele>
        <time>2022-09-10T05:33:41Z</time>
      </trkpt>
      <trkpt lat="43.53219" lon="5.56843">
        <ele>541</ele>
        <time>2022-09-10T05:33:50Z</time>
      </trkpt>
      <trkpt lat="43.53224" lon="5.56856">
        <ele>542</ele>
        <time>2022-09-10T05:34:02Z</time>
      </trkpt>
      <trkpt lat="43.53224" lon="5.56864">
        <ele>543</ele>
        <time>2022-09-10T05:34:07Z</time>
      </trkpt>
      <trkpt lat="43.53227" lon="5.56869">
        <ele>543</ele>
        <time>2022-09-10T05:34:12Z</time>
      </trkpt>
      <trkpt lat="43.53237" lon="5.56879">
        <ele>544</ele>
        <time>2022-09-10T05:34:23Z</time>
      </trkpt>
      <trkpt lat="43.53241" lon="5.56883">
        <ele>543</ele>
        <time>2022-09-10T05:34:28Z</time>
      </trkpt>
      <trkpt lat="43.53242" lon="5.56888">
        <ele>542</ele>
        <time>2022-09-10T05:34:32Z</time>
      </trkpt>
      <trkpt lat="43.53248" lon="5.56906">
        <ele>542</ele>
        <time>2022-09-10T05:34:45Z</time>
      </trkpt>
      <trkpt lat="43.5325" lon="5.56912">
        <ele>543</ele>
        <time>2022-09-10T05:34:49Z</time>
      </trkpt>
      <trkpt lat="43.53256" lon="5.56921">
        <ele>544</ele>
        <time>2022-09-10T05:34:57Z</time>
      </trkpt>
      <trkpt lat="43.53259" lon="5.56925">
        <ele>544</ele>
        <time>2022-09-10T05:35:01Z</time>
      </trkpt>
      <trkpt lat="43.53262" lon="5.5693">
        <ele>544</ele>
        <time>2022-09-10T05:35:05Z</time>
      </trkpt>
      <trkpt lat="43.53275" lon="5.5694">
        <ele>546</ele>
        <time>2022-09-10T05:35:25Z</time>
      </trkpt>
      <trkpt lat="43.53284" lon="5.56943">
        <ele>548</ele>
        <time>2022-09-10T05:35:35Z</time>
      </trkpt>
      <trkpt lat="43.53293" lon="5.56951">
        <ele>551</ele>
        <time>2022-09-10T05:35:49Z</time>
      </trkpt>
      <trkpt lat="43.53298" lon="5.56957">
        <ele>554</ele>
        <time>2022-09-10T05:36:01Z</time>
      </trkpt>
      <trkpt lat="43.53308" lon="5.56967">
        <ele>557</ele>
        <time>2022-09-10T05:36:17Z</time>
      </trkpt>
      <trkpt lat="43.53312" lon="5.56969">
        <ele>558</ele>
        <time>2022-09-10T05:36:22Z</time>
      </trkpt>
      <trkpt lat="43.53317" lon="5.56965">
        <ele>559</ele>
        <time>2022-09-10T05:36:30Z</time>
      </trkpt>
      <trkpt lat="43.53321" lon="5.56964">
        <ele>560</ele>
        <time>2022-09-10T05:36:56Z</time>
      </trkpt>
      <trkpt lat="43.53325" lon="5.56972">
        <ele>560</ele>
        <time>2022-09-10T05:37:42Z</time>
      </trkpt>
      <trkpt lat="43.53327" lon="5.5698">
        <ele>561</ele>
        <time>2022-09-10T05:37:50Z</time>
      </trkpt>
      <trkpt lat="43.5333" lon="5.56984">
        <ele>561</ele>
        <time>2022-09-10T05:37:55Z</time>
      </trkpt>
      <trkpt lat="43.53335" lon="5.5699">
        <ele>561</ele>
        <time>2022-09-10T05:38:01Z</time>
      </trkpt>
      <trkpt lat="43.53343" lon="5.56995">
        <ele>562</ele>
        <time>2022-09-10T05:38:10Z</time>
      </trkpt>
      <trkpt lat="43.53349" lon="5.56994">
        <ele>563</ele>
        <time>2022-09-10T05:38:15Z</time>
      </trkpt>
      <trkpt lat="43.53353" lon="5.56993">
        <ele>564</ele>
        <time>2022-09-10T05:38:19Z</time>
      </trkpt>
      <trkpt lat="43.53356" lon="5.56997">
        <ele>564</ele>
        <time>2022-09-10T05:38:23Z</time>
      </trkpt>
      <trkpt lat="43.53364" lon="5.57013">
        <ele>566</ele>
        <time>2022-09-10T05:38:35Z</time>
      </trkpt>
      <trkpt lat="43.53367" lon="5.57018">
        <ele>566</ele>
        <time>2022-09-10T05:38:39Z</time>
      </trkpt>
      <trkpt lat="43.53372" lon="5.57019">
        <ele>566</ele>
        <time>2022-09-10T05:38:43Z</time>
      </trkpt>
      <trkpt lat="43.53377" lon="5.57018">
        <ele>567</ele>
        <time>2022-09-10T05:38:47Z</time>
      </trkpt>
      <trkpt lat="43.53387" lon="5.57022">
        <ele>568</ele>
        <time>2022-09-10T05:38:57Z</time>
      </trkpt>
      <trkpt lat="43.53392" lon="5.57022">
        <ele>569</ele>
        <time>2022-09-10T05:39:04Z</time>
      </trkpt>
      <trkpt lat="43.53396" lon="5.57019">
        <ele>571</ele>
        <time>2022-09-10T05:39:09Z</time>
      </trkpt>
      <trkpt lat="43.53404" lon="5.57017">
        <ele>573</ele>
        <time>2022-09-10T05:39:19Z</time>
      </trkpt>
      <trkpt lat="43.53411" lon="5.57022">
        <ele>576</ele>
        <time>2022-09-10T05:39:30Z</time>
      </trkpt>
      <trkpt lat="43.53416" lon="5.57019">
        <ele>578</ele>
        <time>2022-09-10T05:39:37Z</time>
      </trkpt>
      <trkpt lat="43.53422" lon="5.57023">
        <ele>579</ele>
        <time>2022-09-10T05:39:47Z</time>
      </trkpt>
      <trkpt lat="43.53427" lon="5.57025">
        <ele>581</ele>
        <time>2022-09-10T05:39:57Z</time>
      </trkpt>
      <trkpt lat="43.53431" lon="5.5703">
        <ele>582</ele>
        <time>2022-09-10T05:40:07Z</time>
      </trkpt>
      <trkpt lat="43.53433" lon="5.57037">
        <ele>584</ele>
        <time>2022-09-10T05:40:17Z</time>
      </trkpt>
      <trkpt lat="43.53441" lon="5.57039">
        <ele>586</ele>
        <time>2022-09-10T05:40:27Z</time>
      </trkpt>
      <trkpt lat="43.53458" lon="5.57048">
        <ele>590</ele>
        <time>2022-09-10T05:40:54Z</time>
      </trkpt>
      <trkpt lat="43.53463" lon="5.57048">
        <ele>592</ele>
        <time>2022-09-10T05:41:01Z</time>
      </trkpt>
      <trkpt lat="43.53479" lon="5.5705">
        <ele>597</ele>
        <time>2022-09-10T05:41:41Z</time>
      </trkpt>
      <trkpt lat="43.53483" lon="5.57048">
        <ele>598</ele>
        <time>2022-09-10T05:41:46Z</time>
      </trkpt>
      <trkpt lat="43.53492" lon="5.57041">
        <ele>599</ele>
        <time>2022-09-10T05:41:56Z</time>
      </trkpt>
      <trkpt lat="43.53494" lon="5.57046">
        <ele>600</ele>
        <time>2022-09-10T05:42:05Z</time>
      </trkpt>
      <trkpt lat="43.53502" lon="5.57057">
        <ele>606</ele>
        <time>2022-09-10T05:42:30Z</time>
      </trkpt>
      <trkpt lat="43.53522" lon="5.57053">
        <ele>612</ele>
        <time>2022-09-10T05:43:03Z</time>
      </trkpt>
      <trkpt lat="43.53526" lon="5.57056">
        <ele>614</ele>
        <time>2022-09-10T05:43:13Z</time>
      </trkpt>
      <trkpt lat="43.53537" lon="5.57055">
        <ele>619</ele>
        <time>2022-09-10T05:43:33Z</time>
      </trkpt>
      <trkpt lat="43.53542" lon="5.57054">
        <ele>621</ele>
        <time>2022-09-10T05:43:43Z</time>
      </trkpt>
      <trkpt lat="43.53544" lon="5.5706">
        <ele>625</ele>
        <time>2022-09-10T05:44:03Z</time>
      </trkpt>
      <trkpt lat="43.53544" lon="5.57067">
        <ele>627</ele>
        <time>2022-09-10T05:44:08Z</time>
      </trkpt>
      <trkpt lat="43.53549" lon="5.57069">
        <ele>627</ele>
        <time>2022-09-10T05:46:12Z</time>
      </trkpt>
      <trkpt lat="43.53553" lon="5.57071">
        <ele>631</ele>
        <time>2022-09-10T05:46:27Z</time>
      </trkpt>
      <trkpt lat="43.53559" lon="5.57071">
        <ele>634</ele>
        <time>2022-09-10T05:46:37Z</time>
      </trkpt>
      <trkpt lat="43.53565" lon="5.57072">
        <ele>636</ele>
        <time>2022-09-10T05:46:47Z</time>
      </trkpt>
      <trkpt lat="43.53574" lon="5.57069">
        <ele>638</ele>
        <time>2022-09-10T05:46:59Z</time>
      </trkpt>
      <trkpt lat="43.53585" lon="5.5707">
        <ele>642</ele>
        <time>2022-09-10T05:47:20Z</time>
      </trkpt>
      <trkpt lat="43.53595" lon="5.57078">
        <ele>648</ele>
        <time>2022-09-10T05:47:50Z</time>
      </trkpt>
      <trkpt lat="43.536" lon="5.57076">
        <ele>650</ele>
        <time>2022-09-10T05:48:00Z</time>
      </trkpt>
      <trkpt lat="43.53607" lon="5.57076">
        <ele>652</ele>
        <time>2022-09-10T05:48:15Z</time>
      </trkpt>
      <trkpt lat="43.53617" lon="5.57077">
        <ele>657</ele>
        <time>2022-09-10T05:48:35Z</time>
      </trkpt>
      <trkpt lat="43.53622" lon="5.5708">
        <ele>659</ele>
        <time>2022-09-10T05:48:45Z</time>
      </trkpt>
      <trkpt lat="43.53627" lon="5.57083">
        <ele>663</ele>
        <time>2022-09-10T05:49:02Z</time>
      </trkpt>
      <trkpt lat="43.53631" lon="5.57088">
        <ele>665</ele>
        <time>2022-09-10T05:49:13Z</time>
      </trkpt>
      <trkpt lat="43.53637" lon="5.57089">
        <ele>667</ele>
        <time>2022-09-10T05:49:23Z</time>
      </trkpt>
      <trkpt lat="43.53642" lon="5.5709">
        <ele>670</ele>
        <time>2022-09-10T05:49:38Z</time>
      </trkpt>
      <trkpt lat="43.53648" lon="5.57086">
        <ele>671</ele>
        <time>2022-09-10T05:50:08Z</time>
      </trkpt>
      <trkpt lat="43.53652" lon="5.57084">
        <ele>671</ele>
        <time>2022-09-10T05:50:12Z</time>
      </trkpt>
      <trkpt lat="43.53655" lon="5.57078">
        <ele>672</ele>
        <time>2022-09-10T05:50:16Z</time>
      </trkpt>
      <trkpt lat="43.53659" lon="5.57076">
        <ele>672</ele>
        <time>2022-09-10T05:50:21Z</time>
      </trkpt>
      <trkpt lat="43.53665" lon="5.57073">
        <ele>674</ele>
        <time>2022-09-10T05:50:29Z</time>
      </trkpt>
      <trkpt lat="43.53668" lon="5.57069">
        <ele>676</ele>
        <time>2022-09-10T05:50:50Z</time>
      </trkpt>
      <trkpt lat="43.5367" lon="5.57062">
        <ele>674</ele>
        <time>2022-09-10T05:55:12Z</time>
      </trkpt>
      <trkpt lat="43.53674" lon="5.57063">
        <ele>674</ele>
        <time>2022-09-10T05:55:16Z</time>
      </trkpt>
      <trkpt lat="43.53671" lon="5.57069">
        <ele>672</ele>
        <time>2022-09-10T05:55:55Z</time>
      </trkpt>
      <trkpt lat="43.53667" lon="5.57072">
        <ele>674</ele>
        <time>2022-09-10T05:56:10Z</time>
      </trkpt>
      <trkpt lat="43.53664" lon="5.57076">
        <ele>675</ele>
        <time>2022-09-10T05:58:03Z</time>
      </trkpt>
      <trkpt lat="43.53665" lon="5.57084">
        <ele>675</ele>
        <time>2022-09-10T05:58:19Z</time>
      </trkpt>
      <trkpt lat="43.53665" lon="5.57091">
        <ele>676</ele>
        <time>2022-09-10T05:58:25Z</time>
      </trkpt>
      <trkpt lat="43.5366" lon="5.571">
        <ele>679</ele>
        <time>2022-09-10T05:58:38Z</time>
      </trkpt>
      <trkpt lat="43.53657" lon="5.5712">
        <ele>682</ele>
        <time>2022-09-10T05:58:57Z</time>
      </trkpt>
      <trkpt lat="43.53655" lon="5.57126">
        <ele>683</ele>
        <time>2022-09-10T05:59:02Z</time>
      </trkpt>
      <trkpt lat="43.53651" lon="5.5714">
        <ele>685</ele>
        <time>2022-09-10T05:59:18Z</time>
      </trkpt>
      <trkpt lat="43.53652" lon="5.57148">
        <ele>686</ele>
        <time>2022-09-10T05:59:25Z</time>
      </trkpt>
      <trkpt lat="43.53648" lon="5.57156">
        <ele>689</ele>
        <time>2022-09-10T05:59:37Z</time>
      </trkpt>
      <trkpt lat="43.53642" lon="5.5716">
        <ele>692</ele>
        <time>2022-09-10T05:59:49Z</time>
      </trkpt>
      <trkpt lat="43.53637" lon="5.57159">
        <ele>693</ele>
        <time>2022-09-10T05:59:59Z</time>
      </trkpt>
      <trkpt lat="43.53631" lon="5.57159">
        <ele>697</ele>
        <time>2022-09-10T06:00:14Z</time>
      </trkpt>
      <trkpt lat="43.53629" lon="5.57164">
        <ele>697</ele>
        <time>2022-09-10T06:00:19Z</time>
      </trkpt>
      <trkpt lat="43.53627" lon="5.57171">
        <ele>699</ele>
        <time>2022-09-10T06:00:31Z</time>
      </trkpt>
      <trkpt lat="43.53617" lon="5.57182">
        <ele>704</ele>
        <time>2022-09-10T06:00:56Z</time>
      </trkpt>
      <trkpt lat="43.53613" lon="5.57189">
        <ele>706</ele>
        <time>2022-09-10T06:01:06Z</time>
      </trkpt>
      <trkpt lat="43.53605" lon="5.57203">
        <ele>708</ele>
        <time>2022-09-10T06:01:31Z</time>
      </trkpt>
      <trkpt lat="43.53601" lon="5.57206">
        <ele>710</ele>
        <time>2022-09-10T06:01:39Z</time>
      </trkpt>
      <trkpt lat="43.53597" lon="5.57204">
        <ele>711</ele>
        <time>2022-09-10T06:01:45Z</time>
      </trkpt>
      <trkpt lat="43.53594" lon="5.57199">
        <ele>712</ele>
        <time>2022-09-10T06:01:50Z</time>
      </trkpt>
      <trkpt lat="43.53581" lon="5.57201">
        <ele>716</ele>
        <time>2022-09-10T06:02:07Z</time>
      </trkpt>
      <trkpt lat="43.53561" lon="5.57229">
        <ele>720</ele>
        <time>2022-09-10T06:02:43Z</time>
      </trkpt>
      <trkpt lat="43.5356" lon="5.57236">
        <ele>721</ele>
        <time>2022-09-10T06:02:47Z</time>
      </trkpt>
      <trkpt lat="43.53556" lon="5.57242">
        <ele>721</ele>
        <time>2022-09-10T06:02:54Z</time>
      </trkpt>
      <trkpt lat="43.53551" lon="5.57245">
        <ele>722</ele>
        <time>2022-09-10T06:03:01Z</time>
      </trkpt>
      <trkpt lat="43.53547" lon="5.5725">
        <ele>723</ele>
        <time>2022-09-10T06:03:06Z</time>
      </trkpt>
      <trkpt lat="43.53539" lon="5.57257">
        <ele>723</ele>
        <time>2022-09-10T06:03:16Z</time>
      </trkpt>
      <trkpt lat="43.5353" lon="5.57266">
        <ele>726</ele>
        <time>2022-09-10T06:03:31Z</time>
      </trkpt>
      <trkpt lat="43.53528" lon="5.57272">
        <ele>726</ele>
        <time>2022-09-10T06:03:35Z</time>
      </trkpt>
      <trkpt lat="43.53527" lon="5.57279">
        <ele>727</ele>
        <time>2022-09-10T06:03:42Z</time>
      </trkpt>
      <trkpt lat="43.5352" lon="5.5728">
        <ele>729</ele>
        <time>2022-09-10T06:03:53Z</time>
      </trkpt>
      <trkpt lat="43.53516" lon="5.57283">
        <ele>730</ele>
        <time>2022-09-10T06:03:58Z</time>
      </trkpt>
      <trkpt lat="43.5351" lon="5.57305">
        <ele>733</ele>
        <time>2022-09-10T06:04:17Z</time>
      </trkpt>
      <trkpt lat="43.53503" lon="5.57312">
        <ele>735</ele>
        <time>2022-09-10T06:04:28Z</time>
      </trkpt>
      <trkpt lat="43.53501" lon="5.57318">
        <ele>736</ele>
        <time>2022-09-10T06:04:33Z</time>
      </trkpt>
      <trkpt lat="43.53496" lon="5.57318">
        <ele>736</ele>
        <time>2022-09-10T06:04:40Z</time>
      </trkpt>
      <trkpt lat="43.53492" lon="5.57313">
        <ele>737</ele>
        <time>2022-09-10T06:04:45Z</time>
      </trkpt>
      <trkpt lat="43.53488" lon="5.57312">
        <ele>737</ele>
        <time>2022-09-10T06:04:49Z</time>
      </trkpt>
      <trkpt lat="43.53484" lon="5.57317">
        <ele>739</ele>
        <time>2022-09-10T06:04:57Z</time>
      </trkpt>
      <trkpt lat="43.53483" lon="5.57324">
        <ele>740</ele>
        <time>2022-09-10T06:05:02Z</time>
      </trkpt>
      <trkpt lat="43.53479" lon="5.57329">
        <ele>741</ele>
        <time>2022-09-10T06:05:10Z</time>
      </trkpt>
      <trkpt lat="43.53474" lon="5.57329">
        <ele>742</ele>
        <time>2022-09-10T06:05:15Z</time>
      </trkpt>
      <trkpt lat="43.53469" lon="5.57334">
        <ele>743</ele>
        <time>2022-09-10T06:05:22Z</time>
      </trkpt>
      <trkpt lat="43.53458" lon="5.57346">
        <ele>748</ele>
        <time>2022-09-10T06:05:43Z</time>
      </trkpt>
      <trkpt lat="43.53451" lon="5.57349">
        <ele>750</ele>
        <time>2022-09-10T06:05:54Z</time>
      </trkpt>
      <trkpt lat="43.53447" lon="5.57354">
        <ele>751</ele>
        <time>2022-09-10T06:06:01Z</time>
      </trkpt>
      <trkpt lat="43.53443" lon="5.57355">
        <ele>751</ele>
        <time>2022-09-10T06:06:08Z</time>
      </trkpt>
      <trkpt lat="43.53439" lon="5.57359">
        <ele>752</ele>
        <time>2022-09-10T06:06:13Z</time>
      </trkpt>
      <trkpt lat="43.53427" lon="5.57362">
        <ele>754</ele>
        <time>2022-09-10T06:06:27Z</time>
      </trkpt>
      <trkpt lat="43.53423" lon="5.57366">
        <ele>756</ele>
        <time>2022-09-10T06:06:36Z</time>
      </trkpt>
      <trkpt lat="43.53419" lon="5.5737">
        <ele>758</ele>
        <time>2022-09-10T06:06:46Z</time>
      </trkpt>
      <trkpt lat="43.53415" lon="5.57375">
        <ele>760</ele>
        <time>2022-09-10T06:06:56Z</time>
      </trkpt>
      <trkpt lat="43.53408" lon="5.5738">
        <ele>762</ele>
        <time>2022-09-10T06:07:06Z</time>
      </trkpt>
      <trkpt lat="43.53399" lon="5.5739">
        <ele>766</ele>
        <time>2022-09-10T06:07:23Z</time>
      </trkpt>
      <trkpt lat="43.53388" lon="5.57394">
        <ele>769</ele>
        <time>2022-09-10T06:07:41Z</time>
      </trkpt>
      <trkpt lat="43.53384" lon="5.57398">
        <ele>770</ele>
        <time>2022-09-10T06:07:47Z</time>
      </trkpt>
      <trkpt lat="43.53378" lon="5.57397">
        <ele>771</ele>
        <time>2022-09-10T06:08:13Z</time>
      </trkpt>
      <trkpt lat="43.53378" lon="5.57403">
        <ele>774</ele>
        <time>2022-09-10T06:08:31Z</time>
      </trkpt>
      <trkpt lat="43.53375" lon="5.57408">
        <ele>775</ele>
        <time>2022-09-10T06:08:41Z</time>
      </trkpt>
      <trkpt lat="43.53372" lon="5.57412">
        <ele>777</ele>
        <time>2022-09-10T06:08:51Z</time>
      </trkpt>
      <trkpt lat="43.5337" lon="5.57422">
        <ele>780</ele>
        <time>2022-09-10T06:09:41Z</time>
      </trkpt>
      <trkpt lat="43.53363" lon="5.57437">
        <ele>784</ele>
        <time>2022-09-10T06:10:02Z</time>
      </trkpt>
      <trkpt lat="43.53362" lon="5.57443">
        <ele>787</ele>
        <time>2022-09-10T06:10:25Z</time>
      </trkpt>
      <trkpt lat="43.5336" lon="5.57448">
        <ele>788</ele>
        <time>2022-09-10T06:10:30Z</time>
      </trkpt>
      <trkpt lat="43.53362" lon="5.57464">
        <ele>790</ele>
        <time>2022-09-10T06:10:45Z</time>
      </trkpt>
      <trkpt lat="43.53355" lon="5.57459">
        <ele>793</ele>
        <time>2022-09-10T06:11:00Z</time>
      </trkpt>
      <trkpt lat="43.53351" lon="5.57453">
        <ele>794</ele>
        <time>2022-09-10T06:11:38Z</time>
      </trkpt>
      <trkpt lat="43.53344" lon="5.57443">
        <ele>795</ele>
        <time>2022-09-10T06:11:46Z</time>
      </trkpt>
      <trkpt lat="43.5334" lon="5.57438">
        <ele>795</ele>
        <time>2022-09-10T06:11:51Z</time>
      </trkpt>
      <trkpt lat="43.53337" lon="5.57432">
        <ele>795</ele>
        <time>2022-09-10T06:11:55Z</time>
      </trkpt>
      <trkpt lat="43.53332" lon="5.57433">
        <ele>796</ele>
        <time>2022-09-10T06:12:03Z</time>
      </trkpt>
      <trkpt lat="43.53328" lon="5.57435">
        <ele>798</ele>
        <time>2022-09-10T06:12:09Z</time>
      </trkpt>
      <trkpt lat="43.53326" lon="5.57441">
        <ele>799</ele>
        <time>2022-09-10T06:12:14Z</time>
      </trkpt>
      <trkpt lat="43.53329" lon="5.57449">
        <ele>802</ele>
        <time>2022-09-10T06:12:26Z</time>
      </trkpt>
      <trkpt lat="43.53334" lon="5.57451">
        <ele>802</ele>
        <time>2022-09-10T06:12:29Z</time>
      </trkpt>
      <trkpt lat="43.53333" lon="5.57462">
        <ele>803</ele>
        <time>2022-09-10T06:12:39Z</time>
      </trkpt>
      <trkpt lat="43.53326" lon="5.57467">
        <ele>805</ele>
        <time>2022-09-10T06:12:49Z</time>
      </trkpt>
      <trkpt lat="43.53321" lon="5.57469">
        <ele>807</ele>
        <time>2022-09-10T06:12:59Z</time>
      </trkpt>
      <trkpt lat="43.53315" lon="5.57475">
        <ele>810</ele>
        <time>2022-09-10T06:13:09Z</time>
      </trkpt>
      <trkpt lat="43.5331" lon="5.57473">
        <ele>813</ele>
        <time>2022-09-10T06:13:21Z</time>
      </trkpt>
      <trkpt lat="43.53306" lon="5.57472">
        <ele>814</ele>
        <time>2022-09-10T06:13:28Z</time>
      </trkpt>
      <trkpt lat="43.53302" lon="5.57489">
        <ele>819</ele>
        <time>2022-09-10T06:13:53Z</time>
      </trkpt>
      <trkpt lat="43.53297" lon="5.57494">
        <ele>821</ele>
        <time>2022-09-10T06:14:04Z</time>
      </trkpt>
      <trkpt lat="43.53294" lon="5.57504">
        <ele>824</ele>
        <time>2022-09-10T06:14:15Z</time>
      </trkpt>
      <trkpt lat="43.53288" lon="5.57508">
        <ele>826</ele>
        <time>2022-09-10T06:14:27Z</time>
      </trkpt>
      <trkpt lat="43.53284" lon="5.57515">
        <ele>827</ele>
        <time>2022-09-10T06:14:37Z</time>
      </trkpt>
      <trkpt lat="43.53278" lon="5.57518">
        <ele>829</ele>
        <time>2022-09-10T06:14:48Z</time>
      </trkpt>
      <trkpt lat="43.53275" lon="5.57523">
        <ele>831</ele>
        <time>2022-09-10T06:14:58Z</time>
      </trkpt>
      <trkpt lat="43.5327" lon="5.57523">
        <ele>833</ele>
        <time>2022-09-10T06:15:08Z</time>
      </trkpt>
      <trkpt lat="43.53266" lon="5.57536">
        <ele>837</ele>
        <time>2022-09-10T06:15:38Z</time>
      </trkpt>
      <trkpt lat="43.5326" lon="5.57541">
        <ele>839</ele>
        <time>2022-09-10T06:16:46Z</time>
      </trkpt>
      <trkpt lat="43.53255" lon="5.57542">
        <ele>841</ele>
        <time>2022-09-10T06:16:56Z</time>
      </trkpt>
      <trkpt lat="43.53252" lon="5.57546">
        <ele>843</ele>
        <time>2022-09-10T06:17:06Z</time>
      </trkpt>
      <trkpt lat="43.53246" lon="5.57554">
        <ele>845</ele>
        <time>2022-09-10T06:17:16Z</time>
      </trkpt>
      <trkpt lat="43.53244" lon="5.57559">
        <ele>847</ele>
        <time>2022-09-10T06:17:24Z</time>
      </trkpt>
      <trkpt lat="43.53243" lon="5.5757">
        <ele>849</ele>
        <time>2022-09-10T06:17:34Z</time>
      </trkpt>
      <trkpt lat="43.53239" lon="5.57573">
        <ele>853</ele>
        <time>2022-09-10T06:17:46Z</time>
      </trkpt>
      <trkpt lat="43.53235" lon="5.57578">
        <ele>854</ele>
        <time>2022-09-10T06:17:53Z</time>
      </trkpt>
      <trkpt lat="43.53229" lon="5.57579">
        <ele>857</ele>
        <time>2022-09-10T06:18:05Z</time>
      </trkpt>
      <trkpt lat="43.53225" lon="5.57584">
        <ele>860</ele>
        <time>2022-09-10T06:18:15Z</time>
      </trkpt>
      <trkpt lat="43.53225" lon="5.57591">
        <ele>860</ele>
        <time>2022-09-10T06:18:19Z</time>
      </trkpt>
      <trkpt lat="43.53218" lon="5.57593">
        <ele>863</ele>
        <time>2022-09-10T06:18:33Z</time>
      </trkpt>
      <trkpt lat="43.53216" lon="5.57612">
        <ele>867</ele>
        <time>2022-09-10T06:18:51Z</time>
      </trkpt>
      <trkpt lat="43.53213" lon="5.57635">
        <ele>870</ele>
        <time>2022-09-10T06:19:15Z</time>
      </trkpt>
      <trkpt lat="43.53209" lon="5.5764">
        <ele>870</ele>
        <time>2022-09-10T06:19:19Z</time>
      </trkpt>
      <trkpt lat="43.53208" lon="5.57648">
        <ele>871</ele>
        <time>2022-09-10T06:19:26Z</time>
      </trkpt>
      <trkpt lat="43.53201" lon="5.57664">
        <ele>874</ele>
        <time>2022-09-10T06:19:43Z</time>
      </trkpt>
      <trkpt lat="43.53201" lon="5.57671">
        <ele>874</ele>
        <time>2022-09-10T06:19:48Z</time>
      </trkpt>
      <trkpt lat="43.53198" lon="5.57678">
        <ele>875</ele>
        <time>2022-09-10T06:19:53Z</time>
      </trkpt>
      <trkpt lat="43.53196" lon="5.57685">
        <ele>876</ele>
        <time>2022-09-10T06:20:02Z</time>
      </trkpt>
      <trkpt lat="43.53195" lon="5.57691">
        <ele>877</ele>
        <time>2022-09-10T06:20:07Z</time>
      </trkpt>
      <trkpt lat="43.53195" lon="5.57698">
        <ele>877</ele>
        <time>2022-09-10T06:20:11Z</time>
      </trkpt>
      <trkpt lat="43.53193" lon="5.57706">
        <ele>877</ele>
        <time>2022-09-10T06:20:15Z</time>
      </trkpt>
      <trkpt lat="43.53191" lon="5.57716">
        <ele>878</ele>
        <time>2022-09-10T06:20:23Z</time>
      </trkpt>
      <trkpt lat="43.53188" lon="5.5772">
        <ele>879</ele>
        <time>2022-09-10T06:20:28Z</time>
      </trkpt>
      <trkpt lat="43.53185" lon="5.5773">
        <ele>882</ele>
        <time>2022-09-10T06:20:37Z</time>
      </trkpt>
      <trkpt lat="43.53186" lon="5.57741">
        <ele>882</ele>
        <time>2022-09-10T06:20:45Z</time>
      </trkpt>
      <trkpt lat="43.53186" lon="5.57752">
        <ele>883</ele>
        <time>2022-09-10T06:20:55Z</time>
      </trkpt>
      <trkpt lat="43.53185" lon="5.57764">
        <ele>884</ele>
        <time>2022-09-10T06:21:05Z</time>
      </trkpt>
      <trkpt lat="43.53187" lon="5.5777">
        <ele>884</ele>
        <time>2022-09-10T06:21:08Z</time>
      </trkpt>
      <trkpt lat="43.53184" lon="5.57791">
        <ele>885</ele>
        <time>2022-09-10T06:21:23Z</time>
      </trkpt>
      <trkpt lat="43.53183" lon="5.57797">
        <ele>886</ele>
        <time>2022-09-10T06:21:31Z</time>
      </trkpt>
      <trkpt lat="43.53179" lon="5.57801">
        <ele>886</ele>
        <time>2022-09-10T06:22:02Z</time>
      </trkpt>
      <trkpt lat="43.53174" lon="5.57816">
        <ele>890</ele>
        <time>2022-09-10T06:22:21Z</time>
      </trkpt>
      <trkpt lat="43.53167" lon="5.57818">
        <ele>890</ele>
        <time>2022-09-10T06:23:04Z</time>
      </trkpt>
      <trkpt lat="43.53166" lon="5.57824">
        <ele>890</ele>
        <time>2022-09-10T06:23:08Z</time>
      </trkpt>
      <trkpt lat="43.53161" lon="5.5783">
        <ele>889</ele>
        <time>2022-09-10T06:23:13Z</time>
      </trkpt>
      <trkpt lat="43.53157" lon="5.57831">
        <ele>890</ele>
        <time>2022-09-10T06:23:17Z</time>
      </trkpt>
      <trkpt lat="43.53152" lon="5.57832">
        <ele>889</ele>
        <time>2022-09-10T06:23:20Z</time>
      </trkpt>
      <trkpt lat="43.53147" lon="5.57833">
        <ele>889</ele>
        <time>2022-09-10T06:23:26Z</time>
      </trkpt>
      <trkpt lat="43.53139" lon="5.57839">
        <ele>889</ele>
        <time>2022-09-10T06:23:34Z</time>
      </trkpt>
      <trkpt lat="43.53139" lon="5.57846">
        <ele>891</ele>
        <time>2022-09-10T06:23:38Z</time>
      </trkpt>
      <trkpt lat="43.53147" lon="5.57842">
        <ele>892</ele>
        <time>2022-09-10T06:25:02Z</time>
      </trkpt>
      <trkpt lat="43.53152" lon="5.57839">
        <ele>890</ele>
        <time>2022-09-10T06:25:07Z</time>
      </trkpt>
      <trkpt lat="43.53156" lon="5.57838">
        <ele>889</ele>
        <time>2022-09-10T06:25:11Z</time>
      </trkpt>
      <trkpt lat="43.53162" lon="5.57842">
        <ele>888</ele>
        <time>2022-09-10T06:25:18Z</time>
      </trkpt>
      <trkpt lat="43.53165" lon="5.57848">
        <ele>889</ele>
        <time>2022-09-10T06:25:22Z</time>
      </trkpt>
      <trkpt lat="43.53172" lon="5.5785">
        <ele>890</ele>
        <time>2022-09-10T06:25:30Z</time>
      </trkpt>
      <trkpt lat="43.5317" lon="5.57856">
        <ele>890</ele>
        <time>2022-09-10T06:25:36Z</time>
      </trkpt>
      <trkpt lat="43.53169" lon="5.57862">
        <ele>891</ele>
        <time>2022-09-10T06:25:40Z</time>
      </trkpt>
      <trkpt lat="43.53169" lon="5.5787">
        <ele>890</ele>
        <time>2022-09-10T06:25:49Z</time>
      </trkpt>
      <trkpt lat="43.53167" lon="5.57879">
        <ele>892</ele>
        <time>2022-09-10T06:26:00Z</time>
      </trkpt>
      <trkpt lat="43.53163" lon="5.57876">
        <ele>894</ele>
        <time>2022-09-10T06:26:10Z</time>
      </trkpt>
      <trkpt lat="43.53158" lon="5.57881">
        <ele>898</ele>
        <time>2022-09-10T06:26:30Z</time>
      </trkpt>
      <trkpt lat="43.53155" lon="5.57884">
        <ele>900</ele>
        <time>2022-09-10T06:26:45Z</time>
      </trkpt>
      <trkpt lat="43.5315" lon="5.57882">
        <ele>902</ele>
        <time>2022-09-10T06:26:56Z</time>
      </trkpt>
      <trkpt lat="43.53147" lon="5.57876">
        <ele>905</ele>
        <time>2022-09-10T06:27:07Z</time>
      </trkpt>
      <trkpt lat="43.53143" lon="5.57883">
        <ele>908</ele>
        <time>2022-09-10T06:27:28Z</time>
      </trkpt>
      <trkpt lat="43.53144" lon="5.579">
        <ele>912</ele>
        <time>2022-09-10T06:27:45Z</time>
      </trkpt>
      <trkpt lat="43.53142" lon="5.57908">
        <ele>913</ele>
        <time>2022-09-10T06:27:56Z</time>
      </trkpt>
      <trkpt lat="43.53139" lon="5.57916">
        <ele>915</ele>
        <time>2022-09-10T06:28:07Z</time>
      </trkpt>
      <trkpt lat="43.53135" lon="5.57923">
        <ele>919</ele>
        <time>2022-09-10T06:28:38Z</time>
      </trkpt>
      <trkpt lat="43.53126" lon="5.57944">
        <ele>926</ele>
        <time>2022-09-10T06:29:11Z</time>
      </trkpt>
      <trkpt lat="43.53126" lon="5.5795">
        <ele>927</ele>
        <time>2022-09-10T06:29:16Z</time>
      </trkpt>
      <trkpt lat="43.53122" lon="5.57959">
        <ele>927</ele>
        <time>2022-09-10T06:29:26Z</time>
      </trkpt>
      <trkpt lat="43.53117" lon="5.57966">
        <ele>925</ele>
        <time>2022-09-10T06:29:36Z</time>
      </trkpt>
      <trkpt lat="43.53112" lon="5.57971">
        <ele>927</ele>
        <time>2022-09-10T06:29:47Z</time>
      </trkpt>
      <trkpt lat="43.53103" lon="5.57993">
        <ele>932</ele>
        <time>2022-09-10T06:30:17Z</time>
      </trkpt>
      <trkpt lat="43.53103" lon="5.58001">
        <ele>934</ele>
        <time>2022-09-10T06:30:27Z</time>
      </trkpt>
      <trkpt lat="43.53102" lon="5.58007">
        <ele>936</ele>
        <time>2022-09-10T06:30:33Z</time>
      </trkpt>
      <trkpt lat="43.531" lon="5.58004">
        <ele>941</ele>
        <time>2022-09-10T06:30:53Z</time>
      </trkpt>
      <trkpt lat="43.53097" lon="5.58">
        <ele>942</ele>
        <time>2022-09-10T06:31:04Z</time>
      </trkpt>
      <trkpt lat="43.53092" lon="5.58005">
        <ele>945</ele>
        <time>2022-09-10T06:31:20Z</time>
      </trkpt>
      <trkpt lat="43.53088" lon="5.58009">
        <ele>947</ele>
        <time>2022-09-10T06:31:30Z</time>
      </trkpt>
      <trkpt lat="43.53091" lon="5.58013">
        <ele>948</ele>
        <time>2022-09-10T06:33:17Z</time>
      </trkpt>
      <trkpt lat="43.5309" lon="5.58015">
        <ele>948</ele>
        <time>2022-09-10T06:35:42Z</time>
      </trkpt>
      <trkpt lat="43.53088" lon="5.58018">
        <ele>949</ele>
        <time>2022-09-10T06:44:57Z</time>
      </trkpt>
      <trkpt lat="43.5309" lon="5.58016">
        <ele>952</ele>
        <time>2022-09-10T06:50:06Z</time>
      </trkpt>
      <trkpt lat="43.53091" lon="5.58022">
        <ele>947</ele>
        <time>2022-09-10T06:56:16Z</time>
      </trkpt>
      <trkpt lat="43.53097" lon="5.58032">
        <ele>943</ele>
        <time>2022-09-10T06:56:36Z</time>
      </trkpt>
      <trkpt lat="43.53101" lon="5.58025">
        <ele>940</ele>
        <time>2022-09-10T06:56:41Z</time>
      </trkpt>
      <trkpt lat="43.53103" lon="5.5802">
        <ele>940</ele>
        <time>2022-09-10T06:56:45Z</time>
      </trkpt>
      <trkpt lat="43.53102" lon="5.58013">
        <ele>941</ele>
        <time>2022-09-10T06:56:49Z</time>
      </trkpt>
      <trkpt lat="43.53104" lon="5.58007">
        <ele>942</ele>
        <time>2022-09-10T06:56:56Z</time>
      </trkpt>
      <trkpt lat="43.53105" lon="5.57999">
        <ele>938</ele>
        <time>2022-09-10T06:57:06Z</time>
      </trkpt>
      <trkpt lat="43.53106" lon="5.57992">
        <ele>936</ele>
        <time>2022-09-10T06:57:11Z</time>
      </trkpt>
      <trkpt lat="43.53107" lon="5.57986">
        <ele>934</ele>
        <time>2022-09-10T06:57:18Z</time>
      </trkpt>
      <trkpt lat="43.53109" lon="5.57979">
        <ele>931</ele>
        <time>2022-09-10T06:57:28Z</time>
      </trkpt>
      <trkpt lat="43.5311" lon="5.57974">
        <ele>930</ele>
        <time>2022-09-10T06:57:33Z</time>
      </trkpt>
      <trkpt lat="43.53116" lon="5.57969">
        <ele>927</ele>
        <time>2022-09-10T06:57:43Z</time>
      </trkpt>
      <trkpt lat="43.53119" lon="5.57962">
        <ele>926</ele>
        <time>2022-09-10T06:57:49Z</time>
      </trkpt>
      <trkpt lat="43.53121" lon="5.57954">
        <ele>927</ele>
        <time>2022-09-10T06:57:56Z</time>
      </trkpt>
      <trkpt lat="43.53123" lon="5.57948">
        <ele>927</ele>
        <time>2022-09-10T06:58:00Z</time>
      </trkpt>
      <trkpt lat="43.53126" lon="5.57943">
        <ele>928</ele>
        <time>2022-09-10T06:58:07Z</time>
      </trkpt>
      <trkpt lat="43.53129" lon="5.57935">
        <ele>925</ele>
        <time>2022-09-10T06:58:17Z</time>
      </trkpt>
      <trkpt lat="43.53133" lon="5.57919">
        <ele>918</ele>
        <time>2022-09-10T06:58:41Z</time>
      </trkpt>
      <trkpt lat="43.53136" lon="5.57916">
        <ele>915</ele>
        <time>2022-09-10T06:58:56Z</time>
      </trkpt>
      <trkpt lat="43.53138" lon="5.57904">
        <ele>913</ele>
        <time>2022-09-10T06:59:06Z</time>
      </trkpt>
      <trkpt lat="43.53142" lon="5.57895">
        <ele>911</ele>
        <time>2022-09-10T06:59:16Z</time>
      </trkpt>
      <trkpt lat="43.53144" lon="5.57887">
        <ele>910</ele>
        <time>2022-09-10T06:59:26Z</time>
      </trkpt>
      <trkpt lat="43.53144" lon="5.57877">
        <ele>907</ele>
        <time>2022-09-10T06:59:40Z</time>
      </trkpt>
      <trkpt lat="43.53151" lon="5.57879">
        <ele>906</ele>
        <time>2022-09-10T06:59:56Z</time>
      </trkpt>
      <trkpt lat="43.53153" lon="5.57885">
        <ele>906</ele>
        <time>2022-09-10T07:00:00Z</time>
      </trkpt>
      <trkpt lat="43.53161" lon="5.57883">
        <ele>895</ele>
        <time>2022-09-10T07:00:47Z</time>
      </trkpt>
      <trkpt lat="43.53166" lon="5.5788">
        <ele>894</ele>
        <time>2022-09-10T07:00:53Z</time>
      </trkpt>
      <trkpt lat="43.53167" lon="5.57873">
        <ele>893</ele>
        <time>2022-09-10T07:00:58Z</time>
      </trkpt>
      <trkpt lat="43.53171" lon="5.57869">
        <ele>891</ele>
        <time>2022-09-10T07:01:07Z</time>
      </trkpt>
      <trkpt lat="43.53174" lon="5.5786">
        <ele>890</ele>
        <time>2022-09-10T07:01:14Z</time>
      </trkpt>
      <trkpt lat="43.53179" lon="5.57866">
        <ele>888</ele>
        <time>2022-09-10T07:01:22Z</time>
      </trkpt>
      <trkpt lat="43.53177" lon="5.57863">
        <ele>886</ele>
        <time>2022-09-10T07:02:06Z</time>
      </trkpt>
      <trkpt lat="43.53175" lon="5.57845">
        <ele>889</ele>
        <time>2022-09-10T07:02:16Z</time>
      </trkpt>
      <trkpt lat="43.53175" lon="5.57838">
        <ele>889</ele>
        <time>2022-09-10T07:02:20Z</time>
      </trkpt>
      <trkpt lat="43.53178" lon="5.57814">
        <ele>887</ele>
        <time>2022-09-10T07:02:29Z</time>
      </trkpt>
      <trkpt lat="43.53174" lon="5.57812">
        <ele>890</ele>
        <time>2022-09-10T07:02:43Z</time>
      </trkpt>
      <trkpt lat="43.53179" lon="5.57808">
        <ele>891</ele>
        <time>2022-09-10T07:02:56Z</time>
      </trkpt>
      <trkpt lat="43.53184" lon="5.57785">
        <ele>886</ele>
        <time>2022-09-10T07:03:06Z</time>
      </trkpt>
      <trkpt lat="43.53185" lon="5.57778">
        <ele>886</ele>
        <time>2022-09-10T07:03:08Z</time>
      </trkpt>
      <trkpt lat="43.53187" lon="5.57772">
        <ele>885</ele>
        <time>2022-09-10T07:03:10Z</time>
      </trkpt>
      <trkpt lat="43.53186" lon="5.57766">
        <ele>885</ele>
        <time>2022-09-10T07:03:12Z</time>
      </trkpt>
      <trkpt lat="43.53185" lon="5.57757">
        <ele>884</ele>
        <time>2022-09-10T07:03:21Z</time>
      </trkpt>
      <trkpt lat="43.53186" lon="5.57738">
        <ele>882</ele>
        <time>2022-09-10T07:03:36Z</time>
      </trkpt>
      <trkpt lat="43.53186" lon="5.57747">
        <ele>881</ele>
        <time>2022-09-10T07:03:55Z</time>
      </trkpt>
      <trkpt lat="43.53186" lon="5.57766">
        <ele>883</ele>
        <time>2022-09-10T07:04:09Z</time>
      </trkpt>
      <trkpt lat="43.53184" lon="5.57762">
        <ele>883</ele>
        <time>2022-09-10T07:04:26Z</time>
      </trkpt>
      <trkpt lat="43.53183" lon="5.57737">
        <ele>882</ele>
        <time>2022-09-10T07:04:42Z</time>
      </trkpt>
      <trkpt lat="43.53185" lon="5.57729">
        <ele>881</ele>
        <time>2022-09-10T07:04:50Z</time>
      </trkpt>
      <trkpt lat="43.53192" lon="5.57712">
        <ele>878</ele>
        <time>2022-09-10T07:05:05Z</time>
      </trkpt>
      <trkpt lat="43.53195" lon="5.57697">
        <ele>877</ele>
        <time>2022-09-10T07:05:12Z</time>
      </trkpt>
      <trkpt lat="43.53194" lon="5.5769">
        <ele>876</ele>
        <time>2022-09-10T07:05:16Z</time>
      </trkpt>
      <trkpt lat="43.53202" lon="5.5768">
        <ele>875</ele>
        <time>2022-09-10T07:05:23Z</time>
      </trkpt>
      <trkpt lat="43.53203" lon="5.57667">
        <ele>874</ele>
        <time>2022-09-10T07:05:33Z</time>
      </trkpt>
      <trkpt lat="43.53211" lon="5.57653">
        <ele>873</ele>
        <time>2022-09-10T07:05:50Z</time>
      </trkpt>
      <trkpt lat="43.53212" lon="5.57639">
        <ele>871</ele>
        <time>2022-09-10T07:05:59Z</time>
      </trkpt>
      <trkpt lat="43.53218" lon="5.57622">
        <ele>869</ele>
        <time>2022-09-10T07:06:16Z</time>
      </trkpt>
      <trkpt lat="43.53218" lon="5.57606">
        <ele>867</ele>
        <time>2022-09-10T07:06:32Z</time>
      </trkpt>
      <trkpt lat="43.53219" lon="5.576">
        <ele>866</ele>
        <time>2022-09-10T07:06:43Z</time>
      </trkpt>
      <trkpt lat="43.53224" lon="5.57597">
        <ele>864</ele>
        <time>2022-09-10T07:06:55Z</time>
      </trkpt>
      <trkpt lat="43.53227" lon="5.57589">
        <ele>863</ele>
        <time>2022-09-10T07:06:59Z</time>
      </trkpt>
      <trkpt lat="43.53227" lon="5.57584">
        <ele>861</ele>
        <time>2022-09-10T07:07:04Z</time>
      </trkpt>
      <trkpt lat="43.53233" lon="5.57577">
        <ele>858</ele>
        <time>2022-09-10T07:07:21Z</time>
      </trkpt>
      <trkpt lat="43.53237" lon="5.57582">
        <ele>856</ele>
        <time>2022-09-10T07:07:31Z</time>
      </trkpt>
      <trkpt lat="43.53245" lon="5.57563">
        <ele>851</ele>
        <time>2022-09-10T07:07:55Z</time>
      </trkpt>
      <trkpt lat="43.5325" lon="5.57556">
        <ele>848</ele>
        <time>2022-09-10T07:08:10Z</time>
      </trkpt>
      <trkpt lat="43.53254" lon="5.5755">
        <ele>847</ele>
        <time>2022-09-10T07:08:20Z</time>
      </trkpt>
      <trkpt lat="43.53258" lon="5.57547">
        <ele>845</ele>
        <time>2022-09-10T07:08:31Z</time>
      </trkpt>
      <trkpt lat="43.5327" lon="5.57525">
        <ele>839</ele>
        <time>2022-09-10T07:09:06Z</time>
      </trkpt>
      <trkpt lat="43.53276" lon="5.57529">
        <ele>838</ele>
        <time>2022-09-10T07:09:16Z</time>
      </trkpt>
      <trkpt lat="43.53282" lon="5.57521">
        <ele>835</ele>
        <time>2022-09-10T07:09:26Z</time>
      </trkpt>
      <trkpt lat="43.53287" lon="5.57519">
        <ele>833</ele>
        <time>2022-09-10T07:09:38Z</time>
      </trkpt>
      <trkpt lat="43.53289" lon="5.57506">
        <ele>831</ele>
        <time>2022-09-10T07:09:48Z</time>
      </trkpt>
      <trkpt lat="43.53293" lon="5.5751">
        <ele>830</ele>
        <time>2022-09-10T07:09:56Z</time>
      </trkpt>
      <trkpt lat="43.53298" lon="5.57498">
        <ele>827</ele>
        <time>2022-09-10T07:10:07Z</time>
      </trkpt>
      <trkpt lat="43.53302" lon="5.57488">
        <ele>824</ele>
        <time>2022-09-10T07:10:17Z</time>
      </trkpt>
      <trkpt lat="43.53306" lon="5.57484">
        <ele>823</ele>
        <time>2022-09-10T07:10:24Z</time>
      </trkpt>
      <trkpt lat="43.53307" lon="5.57479">
        <ele>822</ele>
        <time>2022-09-10T07:10:29Z</time>
      </trkpt>
      <trkpt lat="43.53315" lon="5.57481">
        <ele>819</ele>
        <time>2022-09-10T07:10:44Z</time>
      </trkpt>
      <trkpt lat="43.53318" lon="5.57475">
        <ele>816</ele>
        <time>2022-09-10T07:10:51Z</time>
      </trkpt>
      <trkpt lat="43.53328" lon="5.57469">
        <ele>812</ele>
        <time>2022-09-10T07:11:09Z</time>
      </trkpt>
      <trkpt lat="43.53332" lon="5.57466">
        <ele>810</ele>
        <time>2022-09-10T07:11:15Z</time>
      </trkpt>
      <trkpt lat="43.53333" lon="5.57457">
        <ele>807</ele>
        <time>2022-09-10T07:11:26Z</time>
      </trkpt>
      <trkpt lat="43.5333" lon="5.57451">
        <ele>807</ele>
        <time>2022-09-10T07:11:31Z</time>
      </trkpt>
      <trkpt lat="43.53327" lon="5.5744">
        <ele>805</ele>
        <time>2022-09-10T07:11:41Z</time>
      </trkpt>
      <trkpt lat="43.53323" lon="5.57436">
        <ele>804</ele>
        <time>2022-09-10T07:11:45Z</time>
      </trkpt>
      <trkpt lat="43.53328" lon="5.57435">
        <ele>803</ele>
        <time>2022-09-10T07:12:17Z</time>
      </trkpt>
      <trkpt lat="43.53344" lon="5.57438">
        <ele>800</ele>
        <time>2022-09-10T07:12:31Z</time>
      </trkpt>
      <trkpt lat="43.5335" lon="5.57447">
        <ele>800</ele>
        <time>2022-09-10T07:12:38Z</time>
      </trkpt>
      <trkpt lat="43.53352" lon="5.57453">
        <ele>799</ele>
        <time>2022-09-10T07:12:43Z</time>
      </trkpt>
      <trkpt lat="43.53356" lon="5.57457">
        <ele>799</ele>
        <time>2022-09-10T07:12:47Z</time>
      </trkpt>
      <trkpt lat="43.53362" lon="5.57462">
        <ele>795</ele>
        <time>2022-09-10T07:12:59Z</time>
      </trkpt>
      <trkpt lat="43.53359" lon="5.57448">
        <ele>793</ele>
        <time>2022-09-10T07:13:11Z</time>
      </trkpt>
      <trkpt lat="43.53361" lon="5.57433">
        <ele>789</ele>
        <time>2022-09-10T07:13:28Z</time>
      </trkpt>
      <trkpt lat="43.53366" lon="5.57432">
        <ele>788</ele>
        <time>2022-09-10T07:13:36Z</time>
      </trkpt>
      <trkpt lat="43.53369" lon="5.57427">
        <ele>786</ele>
        <time>2022-09-10T07:13:41Z</time>
      </trkpt>
      <trkpt lat="43.53373" lon="5.57414">
        <ele>783</ele>
        <time>2022-09-10T07:13:56Z</time>
      </trkpt>
      <trkpt lat="43.5338" lon="5.5741">
        <ele>780</ele>
        <time>2022-09-10T07:14:06Z</time>
      </trkpt>
      <trkpt lat="43.53382" lon="5.57393">
        <ele>776</ele>
        <time>2022-09-10T07:14:22Z</time>
      </trkpt>
      <trkpt lat="43.53392" lon="5.57387">
        <ele>774</ele>
        <time>2022-09-10T07:14:34Z</time>
      </trkpt>
      <trkpt lat="43.53391" lon="5.57379">
        <ele>772</ele>
        <time>2022-09-10T07:14:40Z</time>
      </trkpt>
      <trkpt lat="43.53395" lon="5.5738">
        <ele>771</ele>
        <time>2022-09-10T07:14:50Z</time>
      </trkpt>
      <trkpt lat="43.53408" lon="5.57364">
        <ele>764</ele>
        <time>2022-09-10T07:15:11Z</time>
      </trkpt>
      <trkpt lat="43.53412" lon="5.57363">
        <ele>764</ele>
        <time>2022-09-10T07:15:15Z</time>
      </trkpt>
      <trkpt lat="43.53421" lon="5.57362">
        <ele>760</ele>
        <time>2022-09-10T07:15:28Z</time>
      </trkpt>
      <trkpt lat="43.53433" lon="5.57365">
        <ele>759</ele>
        <time>2022-09-10T07:15:37Z</time>
      </trkpt>
      <trkpt lat="43.53438" lon="5.57364">
        <ele>757</ele>
        <time>2022-09-10T07:15:42Z</time>
      </trkpt>
      <trkpt lat="43.53446" lon="5.57358">
        <ele>756</ele>
        <time>2022-09-10T07:15:50Z</time>
      </trkpt>
      <trkpt lat="43.53451" lon="5.57355">
        <ele>755</ele>
        <time>2022-09-10T07:15:54Z</time>
      </trkpt>
      <trkpt lat="43.53456" lon="5.57353">
        <ele>754</ele>
        <time>2022-09-10T07:16:00Z</time>
      </trkpt>
      <trkpt lat="43.53467" lon="5.57338">
        <ele>750</ele>
        <time>2022-09-10T07:16:18Z</time>
      </trkpt>
      <trkpt lat="43.53476" lon="5.5733">
        <ele>747</ele>
        <time>2022-09-10T07:16:28Z</time>
      </trkpt>
      <trkpt lat="43.53476" lon="5.57325">
        <ele>746</ele>
        <time>2022-09-10T07:16:32Z</time>
      </trkpt>
      <trkpt lat="43.53481" lon="5.57323">
        <ele>745</ele>
        <time>2022-09-10T07:16:40Z</time>
      </trkpt>
      <trkpt lat="43.53485" lon="5.5732">
        <ele>744</ele>
        <time>2022-09-10T07:16:43Z</time>
      </trkpt>
      <trkpt lat="43.53489" lon="5.57316">
        <ele>743</ele>
        <time>2022-09-10T07:16:47Z</time>
      </trkpt>
      <trkpt lat="43.53493" lon="5.57318">
        <ele>743</ele>
        <time>2022-09-10T07:16:51Z</time>
      </trkpt>
      <trkpt lat="43.53497" lon="5.57322">
        <ele>742</ele>
        <time>2022-09-10T07:16:55Z</time>
      </trkpt>
      <trkpt lat="43.53502" lon="5.57321">
        <ele>742</ele>
        <time>2022-09-10T07:16:58Z</time>
      </trkpt>
      <trkpt lat="43.53504" lon="5.57314">
        <ele>740</ele>
        <time>2022-09-10T07:17:01Z</time>
      </trkpt>
      <trkpt lat="43.53509" lon="5.57309">
        <ele>739</ele>
        <time>2022-09-10T07:17:08Z</time>
      </trkpt>
      <trkpt lat="43.53511" lon="5.573">
        <ele>737</ele>
        <time>2022-09-10T07:17:17Z</time>
      </trkpt>
      <trkpt lat="43.53521" lon="5.57279">
        <ele>733</ele>
        <time>2022-09-10T07:17:39Z</time>
      </trkpt>
      <trkpt lat="43.53531" lon="5.57269">
        <ele>730</ele>
        <time>2022-09-10T07:17:58Z</time>
      </trkpt>
      <trkpt lat="43.53534" lon="5.5726">
        <ele>728</ele>
        <time>2022-09-10T07:18:05Z</time>
      </trkpt>
      <trkpt lat="43.53538" lon="5.57255">
        <ele>728</ele>
        <time>2022-09-10T07:18:10Z</time>
      </trkpt>
      <trkpt lat="43.53543" lon="5.57243">
        <ele>727</ele>
        <time>2022-09-10T07:18:18Z</time>
      </trkpt>
      <trkpt lat="43.53546" lon="5.57238">
        <ele>727</ele>
        <time>2022-09-10T07:18:22Z</time>
      </trkpt>
      <trkpt lat="43.53551" lon="5.57237">
        <ele>726</ele>
        <time>2022-09-10T07:18:29Z</time>
      </trkpt>
      <trkpt lat="43.53561" lon="5.57231">
        <ele>724</ele>
        <time>2022-09-10T07:18:37Z</time>
      </trkpt>
      <trkpt lat="43.53566" lon="5.57225">
        <ele>723</ele>
        <time>2022-09-10T07:18:45Z</time>
      </trkpt>
      <trkpt lat="43.53566" lon="5.57217">
        <ele>722</ele>
        <time>2022-09-10T07:18:55Z</time>
      </trkpt>
      <trkpt lat="43.53571" lon="5.57215">
        <ele>722</ele>
        <time>2022-09-10T07:19:20Z</time>
      </trkpt>
      <trkpt lat="43.53574" lon="5.57211">
        <ele>721</ele>
        <time>2022-09-10T07:19:23Z</time>
      </trkpt>
      <trkpt lat="43.53576" lon="5.57204">
        <ele>721</ele>
        <time>2022-09-10T07:19:27Z</time>
      </trkpt>
      <trkpt lat="43.53586" lon="5.572">
        <ele>719</ele>
        <time>2022-09-10T07:19:34Z</time>
      </trkpt>
      <trkpt lat="43.536" lon="5.57208">
        <ele>714</ele>
        <time>2022-09-10T07:19:52Z</time>
      </trkpt>
      <trkpt lat="43.53605" lon="5.57204">
        <ele>712</ele>
        <time>2022-09-10T07:19:59Z</time>
      </trkpt>
      <trkpt lat="43.53609" lon="5.57201">
        <ele>712</ele>
        <time>2022-09-10T07:20:03Z</time>
      </trkpt>
      <trkpt lat="43.53616" lon="5.57184">
        <ele>708</ele>
        <time>2022-09-10T07:20:17Z</time>
      </trkpt>
      <trkpt lat="43.53621" lon="5.57181">
        <ele>706</ele>
        <time>2022-09-10T07:20:27Z</time>
      </trkpt>
      <trkpt lat="43.53629" lon="5.57175">
        <ele>704</ele>
        <time>2022-09-10T07:20:36Z</time>
      </trkpt>
      <trkpt lat="43.53629" lon="5.57169">
        <ele>702</ele>
        <time>2022-09-10T07:20:46Z</time>
      </trkpt>
      <trkpt lat="43.53632" lon="5.57161">
        <ele>699</ele>
        <time>2022-09-10T07:20:56Z</time>
      </trkpt>
      <trkpt lat="43.5364" lon="5.57161">
        <ele>697</ele>
        <time>2022-09-10T07:21:07Z</time>
      </trkpt>
      <trkpt lat="43.53647" lon="5.57169">
        <ele>693</ele>
        <time>2022-09-10T07:21:22Z</time>
      </trkpt>
      <trkpt lat="43.53655" lon="5.57175">
        <ele>691</ele>
        <time>2022-09-10T07:21:31Z</time>
      </trkpt>
      <trkpt lat="43.53658" lon="5.57168">
        <ele>689</ele>
        <time>2022-09-10T07:21:38Z</time>
      </trkpt>
      <trkpt lat="43.53658" lon="5.5716">
        <ele>687</ele>
        <time>2022-09-10T07:21:44Z</time>
      </trkpt>
      <trkpt lat="43.53656" lon="5.57139">
        <ele>687</ele>
        <time>2022-09-10T07:21:53Z</time>
      </trkpt>
      <trkpt lat="43.53659" lon="5.57133">
        <ele>686</ele>
        <time>2022-09-10T07:21:57Z</time>
      </trkpt>
      <trkpt lat="43.5366" lon="5.57127">
        <ele>685</ele>
        <time>2022-09-10T07:22:01Z</time>
      </trkpt>
      <trkpt lat="43.53658" lon="5.57121">
        <ele>685</ele>
        <time>2022-09-10T07:22:06Z</time>
      </trkpt>
      <trkpt lat="43.53658" lon="5.57114">
        <ele>685</ele>
        <time>2022-09-10T07:22:10Z</time>
      </trkpt>
      <trkpt lat="43.53658" lon="5.57107">
        <ele>684</ele>
        <time>2022-09-10T07:22:15Z</time>
      </trkpt>
      <trkpt lat="43.53667" lon="5.57081">
        <ele>679</ele>
        <time>2022-09-10T07:22:39Z</time>
      </trkpt>
      <trkpt lat="43.53665" lon="5.57075">
        <ele>678</ele>
        <time>2022-09-10T07:22:43Z</time>
      </trkpt>
      <trkpt lat="43.53659" lon="5.57071">
        <ele>677</ele>
        <time>2022-09-10T07:22:53Z</time>
      </trkpt>
      <trkpt lat="43.53654" lon="5.57074">
        <ele>675</ele>
        <time>2022-09-10T07:23:00Z</time>
      </trkpt>
      <trkpt lat="43.53648" lon="5.57084">
        <ele>673</ele>
        <time>2022-09-10T07:23:08Z</time>
      </trkpt>
      <trkpt lat="43.53639" lon="5.57091">
        <ele>673</ele>
        <time>2022-09-10T07:23:20Z</time>
      </trkpt>
      <trkpt lat="43.53633" lon="5.57089">
        <ele>672</ele>
        <time>2022-09-10T07:23:26Z</time>
      </trkpt>
      <trkpt lat="43.53629" lon="5.57095">
        <ele>669</ele>
        <time>2022-09-10T07:23:35Z</time>
      </trkpt>
      <trkpt lat="43.53628" lon="5.5709">
        <ele>668</ele>
        <time>2022-09-10T07:23:38Z</time>
      </trkpt>
      <trkpt lat="43.53621" lon="5.57088">
        <ele>665</ele>
        <time>2022-09-10T07:23:51Z</time>
      </trkpt>
      <trkpt lat="43.53614" lon="5.57079">
        <ele>661</ele>
        <time>2022-09-10T07:24:06Z</time>
      </trkpt>
      <trkpt lat="43.53608" lon="5.57078">
        <ele>658</ele>
        <time>2022-09-10T07:24:16Z</time>
      </trkpt>
      <trkpt lat="43.536" lon="5.57078">
        <ele>656</ele>
        <time>2022-09-10T07:24:27Z</time>
      </trkpt>
      <trkpt lat="43.53588" lon="5.57082">
        <ele>651</ele>
        <time>2022-09-10T07:24:42Z</time>
      </trkpt>
      <trkpt lat="43.53579" lon="5.57073">
        <ele>646</ele>
        <time>2022-09-10T07:24:56Z</time>
      </trkpt>
      <trkpt lat="43.53574" lon="5.57073">
        <ele>644</ele>
        <time>2022-09-10T07:25:04Z</time>
      </trkpt>
      <trkpt lat="43.53566" lon="5.5707">
        <ele>641</ele>
        <time>2022-09-10T07:25:14Z</time>
      </trkpt>
      <trkpt lat="43.53562" lon="5.57074">
        <ele>640</ele>
        <time>2022-09-10T07:25:18Z</time>
      </trkpt>
      <trkpt lat="43.53555" lon="5.57073">
        <ele>637</ele>
        <time>2022-09-10T07:25:28Z</time>
      </trkpt>
      <trkpt lat="43.53548" lon="5.57072">
        <ele>634</ele>
        <time>2022-09-10T07:25:38Z</time>
      </trkpt>
      <trkpt lat="43.53544" lon="5.57072">
        <ele>632</ele>
        <time>2022-09-10T07:25:43Z</time>
      </trkpt>
      <trkpt lat="43.53541" lon="5.57066">
        <ele>628</ele>
        <time>2022-09-10T07:25:55Z</time>
      </trkpt>
      <trkpt lat="43.53539" lon="5.57057">
        <ele>625</ele>
        <time>2022-09-10T07:26:05Z</time>
      </trkpt>
      <trkpt lat="43.53533" lon="5.57054">
        <ele>621</ele>
        <time>2022-09-10T07:26:15Z</time>
      </trkpt>
      <trkpt lat="43.53528" lon="5.57057">
        <ele>619</ele>
        <time>2022-09-10T07:26:21Z</time>
      </trkpt>
      <trkpt lat="43.53515" lon="5.57056">
        <ele>614</ele>
        <time>2022-09-10T07:26:37Z</time>
      </trkpt>
      <trkpt lat="43.53508" lon="5.5706">
        <ele>611</ele>
        <time>2022-09-10T07:26:47Z</time>
      </trkpt>
      <trkpt lat="43.53497" lon="5.57056">
        <ele>606</ele>
        <time>2022-09-10T07:27:02Z</time>
      </trkpt>
      <trkpt lat="43.53494" lon="5.5705">
        <ele>603</ele>
        <time>2022-09-10T07:27:09Z</time>
      </trkpt>
      <trkpt lat="43.5349" lon="5.57041">
        <ele>600</ele>
        <time>2022-09-10T07:27:20Z</time>
      </trkpt>
      <trkpt lat="43.53484" lon="5.57044">
        <ele>598</ele>
        <time>2022-09-10T07:27:26Z</time>
      </trkpt>
      <trkpt lat="43.5348" lon="5.5705">
        <ele>597</ele>
        <time>2022-09-10T07:27:31Z</time>
      </trkpt>
      <trkpt lat="43.53472" lon="5.57051">
        <ele>596</ele>
        <time>2022-09-10T07:27:39Z</time>
      </trkpt>
      <trkpt lat="43.53467" lon="5.5705">
        <ele>595</ele>
        <time>2022-09-10T07:27:44Z</time>
      </trkpt>
      <trkpt lat="43.53463" lon="5.57048">
        <ele>594</ele>
        <time>2022-09-10T07:27:48Z</time>
      </trkpt>
      <trkpt lat="43.53445" lon="5.57043">
        <ele>588</ele>
        <time>2022-09-10T07:28:10Z</time>
      </trkpt>
      <trkpt lat="43.53441" lon="5.57039">
        <ele>587</ele>
        <time>2022-09-10T07:28:15Z</time>
      </trkpt>
      <trkpt lat="43.53437" lon="5.5704">
        <ele>586</ele>
        <time>2022-09-10T07:28:20Z</time>
      </trkpt>
      <trkpt lat="43.53431" lon="5.57041">
        <ele>585</ele>
        <time>2022-09-10T07:28:30Z</time>
      </trkpt>
      <trkpt lat="43.53428" lon="5.57035">
        <ele>583</ele>
        <time>2022-09-10T07:28:35Z</time>
      </trkpt>
      <trkpt lat="43.53426" lon="5.57029">
        <ele>582</ele>
        <time>2022-09-10T07:28:40Z</time>
      </trkpt>
      <trkpt lat="43.53417" lon="5.57025">
        <ele>579</ele>
        <time>2022-09-10T07:28:50Z</time>
      </trkpt>
      <trkpt lat="43.53414" lon="5.57021">
        <ele>579</ele>
        <time>2022-09-10T07:28:54Z</time>
      </trkpt>
      <trkpt lat="43.53407" lon="5.57023">
        <ele>577</ele>
        <time>2022-09-10T07:29:02Z</time>
      </trkpt>
      <trkpt lat="43.53403" lon="5.57018">
        <ele>576</ele>
        <time>2022-09-10T07:29:07Z</time>
      </trkpt>
      <trkpt lat="43.53398" lon="5.57019">
        <ele>573</ele>
        <time>2022-09-10T07:29:13Z</time>
      </trkpt>
      <trkpt lat="43.53394" lon="5.57023">
        <ele>572</ele>
        <time>2022-09-10T07:29:19Z</time>
      </trkpt>
      <trkpt lat="43.53388" lon="5.57024">
        <ele>570</ele>
        <time>2022-09-10T07:29:24Z</time>
      </trkpt>
      <trkpt lat="43.53372" lon="5.57017">
        <ele>567</ele>
        <time>2022-09-10T07:29:36Z</time>
      </trkpt>
      <trkpt lat="43.53367" lon="5.57019">
        <ele>566</ele>
        <time>2022-09-10T07:29:40Z</time>
      </trkpt>
      <trkpt lat="43.53362" lon="5.57015">
        <ele>566</ele>
        <time>2022-09-10T07:29:45Z</time>
      </trkpt>
      <trkpt lat="43.53354" lon="5.56998">
        <ele>565</ele>
        <time>2022-09-10T07:29:57Z</time>
      </trkpt>
      <trkpt lat="43.5335" lon="5.56993">
        <ele>565</ele>
        <time>2022-09-10T07:30:01Z</time>
      </trkpt>
      <trkpt lat="43.53345" lon="5.56996">
        <ele>564</ele>
        <time>2022-09-10T07:30:05Z</time>
      </trkpt>
      <trkpt lat="43.53333" lon="5.56989">
        <ele>562</ele>
        <time>2022-09-10T07:30:16Z</time>
      </trkpt>
      <trkpt lat="43.53325" lon="5.56979">
        <ele>561</ele>
        <time>2022-09-10T07:30:24Z</time>
      </trkpt>
      <trkpt lat="43.53323" lon="5.56973">
        <ele>561</ele>
        <time>2022-09-10T07:30:28Z</time>
      </trkpt>
      <trkpt lat="43.5332" lon="5.56967">
        <ele>561</ele>
        <time>2022-09-10T07:30:32Z</time>
      </trkpt>
      <trkpt lat="43.53315" lon="5.56965">
        <ele>561</ele>
        <time>2022-09-10T07:30:36Z</time>
      </trkpt>
      <trkpt lat="43.53307" lon="5.56969">
        <ele>558</ele>
        <time>2022-09-10T07:30:47Z</time>
      </trkpt>
      <trkpt lat="43.53305" lon="5.56964">
        <ele>557</ele>
        <time>2022-09-10T07:30:51Z</time>
      </trkpt>
      <trkpt lat="43.53296" lon="5.56958">
        <ele>556</ele>
        <time>2022-09-10T07:31:00Z</time>
      </trkpt>
      <trkpt lat="43.53284" lon="5.56944">
        <ele>551</ele>
        <time>2022-09-10T07:31:17Z</time>
      </trkpt>
      <trkpt lat="43.5328" lon="5.56942">
        <ele>550</ele>
        <time>2022-09-10T07:31:21Z</time>
      </trkpt>
      <trkpt lat="43.53276" lon="5.56941">
        <ele>549</ele>
        <time>2022-09-10T07:31:25Z</time>
      </trkpt>
      <trkpt lat="43.5327" lon="5.56934">
        <ele>547</ele>
        <time>2022-09-10T07:31:33Z</time>
      </trkpt>
      <trkpt lat="43.53264" lon="5.56934">
        <ele>546</ele>
        <time>2022-09-10T07:31:44Z</time>
      </trkpt>
      <trkpt lat="43.53257" lon="5.56926">
        <ele>545</ele>
        <time>2022-09-10T07:31:50Z</time>
      </trkpt>
      <trkpt lat="43.53242" lon="5.56908">
        <ele>544</ele>
        <time>2022-09-10T07:32:04Z</time>
      </trkpt>
      <trkpt lat="43.53242" lon="5.569">
        <ele>544</ele>
        <time>2022-09-10T07:32:07Z</time>
      </trkpt>
      <trkpt lat="43.5324" lon="5.56895">
        <ele>544</ele>
        <time>2022-09-10T07:32:11Z</time>
      </trkpt>
      <trkpt lat="43.53231" lon="5.56878">
        <ele>543</ele>
        <time>2022-09-10T07:32:23Z</time>
      </trkpt>
      <trkpt lat="43.53226" lon="5.56876">
        <ele>543</ele>
        <time>2022-09-10T07:32:27Z</time>
      </trkpt>
      <trkpt lat="43.53221" lon="5.56869">
        <ele>544</ele>
        <time>2022-09-10T07:32:35Z</time>
      </trkpt>
      <trkpt lat="43.5322" lon="5.56863">
        <ele>543</ele>
        <time>2022-09-10T07:32:39Z</time>
      </trkpt>
      <trkpt lat="43.5322" lon="5.56856">
        <ele>543</ele>
        <time>2022-09-10T07:32:44Z</time>
      </trkpt>
      <trkpt lat="43.53219" lon="5.5685">
        <ele>542</ele>
        <time>2022-09-10T07:32:48Z</time>
      </trkpt>
      <trkpt lat="43.53215" lon="5.56844">
        <ele>541</ele>
        <time>2022-09-10T07:32:53Z</time>
      </trkpt>
      <trkpt lat="43.53215" lon="5.56838">
        <ele>540</ele>
        <time>2022-09-10T07:32:58Z</time>
      </trkpt>
      <trkpt lat="43.53216" lon="5.56832">
        <ele>540</ele>
        <time>2022-09-10T07:33:02Z</time>
      </trkpt>
      <trkpt lat="43.53213" lon="5.56825">
        <ele>539</ele>
        <time>2022-09-10T07:33:07Z</time>
      </trkpt>
      <trkpt lat="43.53209" lon="5.56822">
        <ele>538</ele>
        <time>2022-09-10T07:33:11Z</time>
      </trkpt>
      <trkpt lat="43.53204" lon="5.56807">
        <ele>536</ele>
        <time>2022-09-10T07:33:23Z</time>
      </trkpt>
      <trkpt lat="43.53194" lon="5.56797">
        <ele>534</ele>
        <time>2022-09-10T07:33:34Z</time>
      </trkpt>
      <trkpt lat="43.53192" lon="5.56791">
        <ele>533</ele>
        <time>2022-09-10T07:33:38Z</time>
      </trkpt>
      <trkpt lat="43.53186" lon="5.56785">
        <ele>531</ele>
        <time>2022-09-10T07:33:48Z</time>
      </trkpt>
      <trkpt lat="43.53181" lon="5.56784">
        <ele>530</ele>
        <time>2022-09-10T07:33:52Z</time>
      </trkpt>
      <trkpt lat="43.53154" lon="5.56771">
        <ele>524</ele>
        <time>2022-09-10T07:34:20Z</time>
      </trkpt>
      <trkpt lat="43.53152" lon="5.56765">
        <ele>524</ele>
        <time>2022-09-10T07:34:25Z</time>
      </trkpt>
      <trkpt lat="43.53148" lon="5.56757">
        <ele>521</ele>
        <time>2022-09-10T07:34:34Z</time>
      </trkpt>
      <trkpt lat="43.53148" lon="5.56749">
        <ele>521</ele>
        <time>2022-09-10T07:34:39Z</time>
      </trkpt>
      <trkpt lat="43.53153" lon="5.56729">
        <ele>517</ele>
        <time>2022-09-10T07:34:54Z</time>
      </trkpt>
      <trkpt lat="43.53153" lon="5.56722">
        <ele>516</ele>
        <time>2022-09-10T07:35:03Z</time>
      </trkpt>
      <trkpt lat="43.5315" lon="5.56715">
        <ele>512</ele>
        <time>2022-09-10T07:35:17Z</time>
      </trkpt>
      <trkpt lat="43.53149" lon="5.56709">
        <ele>511</ele>
        <time>2022-09-10T07:35:24Z</time>
      </trkpt>
      <trkpt lat="43.5314" lon="5.56706">
        <ele>509</ele>
        <time>2022-09-10T07:35:34Z</time>
      </trkpt>
      <trkpt lat="43.53131" lon="5.56719">
        <ele>507</ele>
        <time>2022-09-10T07:35:48Z</time>
      </trkpt>
      <trkpt lat="43.53125" lon="5.56717">
        <ele>504</ele>
        <time>2022-09-10T07:36:01Z</time>
      </trkpt>
      <trkpt lat="43.53119" lon="5.56718">
        <ele>502</ele>
        <time>2022-09-10T07:36:09Z</time>
      </trkpt>
      <trkpt lat="43.5312" lon="5.56711">
        <ele>501</ele>
        <time>2022-09-10T07:36:15Z</time>
      </trkpt>
      <trkpt lat="43.53114" lon="5.56702">
        <ele>499</ele>
        <time>2022-09-10T07:36:26Z</time>
      </trkpt>
      <trkpt lat="43.5311" lon="5.56699">
        <ele>497</ele>
        <time>2022-09-10T07:36:33Z</time>
      </trkpt>
      <trkpt lat="43.53095" lon="5.56695">
        <ele>493</ele>
        <time>2022-09-10T07:36:52Z</time>
      </trkpt>
      <trkpt lat="43.5309" lon="5.56694">
        <ele>491</ele>
        <time>2022-09-10T07:36:59Z</time>
      </trkpt>
      <trkpt lat="43.53082" lon="5.56687">
        <ele>490</ele>
        <time>2022-09-10T07:37:07Z</time>
      </trkpt>
      <trkpt lat="43.53077" lon="5.56688">
        <ele>489</ele>
        <time>2022-09-10T07:37:11Z</time>
      </trkpt>
      <trkpt lat="43.53071" lon="5.56692">
        <ele>487</ele>
        <time>2022-09-10T07:37:17Z</time>
      </trkpt>
      <trkpt lat="43.53071" lon="5.56698">
        <ele>487</ele>
        <time>2022-09-10T07:37:21Z</time>
      </trkpt>
      <trkpt lat="43.53073" lon="5.56704">
        <ele>486</ele>
        <time>2022-09-10T07:37:24Z</time>
      </trkpt>
      <trkpt lat="43.53071" lon="5.56716">
        <ele>484</ele>
        <time>2022-09-10T07:37:33Z</time>
      </trkpt>
      <trkpt lat="43.53061" lon="5.56715">
        <ele>483</ele>
        <time>2022-09-10T07:37:41Z</time>
      </trkpt>
      <trkpt lat="43.53057" lon="5.56717">
        <ele>483</ele>
        <time>2022-09-10T07:37:45Z</time>
      </trkpt>
      <trkpt lat="43.53049" lon="5.56724">
        <ele>482</ele>
        <time>2022-09-10T07:37:53Z</time>
      </trkpt>
      <trkpt lat="43.53045" lon="5.56729">
        <ele>481</ele>
        <time>2022-09-10T07:37:57Z</time>
      </trkpt>
      <trkpt lat="43.53043" lon="5.56735">
        <ele>481</ele>
        <time>2022-09-10T07:38:02Z</time>
      </trkpt>
      <trkpt lat="43.53042" lon="5.56746">
        <ele>479</ele>
        <time>2022-09-10T07:38:11Z</time>
      </trkpt>
      <trkpt lat="43.53047" lon="5.56766">
        <ele>475</ele>
        <time>2022-09-10T07:38:27Z</time>
      </trkpt>
      <trkpt lat="43.53052" lon="5.56776">
        <ele>474</ele>
        <time>2022-09-10T07:38:35Z</time>
      </trkpt>
      <trkpt lat="43.53053" lon="5.56784">
        <ele>472</ele>
        <time>2022-09-10T07:38:47Z</time>
      </trkpt>
      <trkpt lat="43.53057" lon="5.56788">
        <ele>471</ele>
        <time>2022-09-10T07:38:51Z</time>
      </trkpt>
      <trkpt lat="43.53061" lon="5.56796">
        <ele>469</ele>
        <time>2022-09-10T07:38:57Z</time>
      </trkpt>
      <trkpt lat="43.53056" lon="5.56799">
        <ele>468</ele>
        <time>2022-09-10T07:39:04Z</time>
      </trkpt>
      <trkpt lat="43.53051" lon="5.568">
        <ele>467</ele>
        <time>2022-09-10T07:39:08Z</time>
      </trkpt>
      <trkpt lat="43.53043" lon="5.56799">
        <ele>465</ele>
        <time>2022-09-10T07:39:16Z</time>
      </trkpt>
      <trkpt lat="43.53039" lon="5.56803">
        <ele>464</ele>
        <time>2022-09-10T07:39:20Z</time>
      </trkpt>
      <trkpt lat="43.53038" lon="5.56813">
        <ele>462</ele>
        <time>2022-09-10T07:39:30Z</time>
      </trkpt>
      <trkpt lat="43.53034" lon="5.56817">
        <ele>461</ele>
        <time>2022-09-10T07:39:34Z</time>
      </trkpt>
      <trkpt lat="43.53033" lon="5.56829">
        <ele>460</ele>
        <time>2022-09-10T07:39:41Z</time>
      </trkpt>
      <trkpt lat="43.53032" lon="5.56835">
        <ele>460</ele>
        <time>2022-09-10T07:39:44Z</time>
      </trkpt>
      <trkpt lat="43.53029" lon="5.56842">
        <ele>459</ele>
        <time>2022-09-10T07:39:48Z</time>
      </trkpt>
      <trkpt lat="43.53027" lon="5.56849">
        <ele>458</ele>
        <time>2022-09-10T07:39:52Z</time>
      </trkpt>
      <trkpt lat="43.53023" lon="5.56861">
        <ele>457</ele>
        <time>2022-09-10T07:40:01Z</time>
      </trkpt>
      <trkpt lat="43.52999" lon="5.56869">
        <ele>452</ele>
        <time>2022-09-10T07:40:24Z</time>
      </trkpt>
      <trkpt lat="43.52995" lon="5.56873">
        <ele>451</ele>
        <time>2022-09-10T07:40:28Z</time>
      </trkpt>
      <trkpt lat="43.5299" lon="5.56875">
        <ele>450</ele>
        <time>2022-09-10T07:40:34Z</time>
      </trkpt>
      <trkpt lat="43.52985" lon="5.56879">
        <ele>448</ele>
        <time>2022-09-10T07:40:39Z</time>
      </trkpt>
      <trkpt lat="43.52983" lon="5.56885">
        <ele>448</ele>
        <time>2022-09-10T07:40:42Z</time>
      </trkpt>
      <trkpt lat="43.52979" lon="5.56889">
        <ele>446</ele>
        <time>2022-09-10T07:40:47Z</time>
      </trkpt>
      <trkpt lat="43.52975" lon="5.56901">
        <ele>445</ele>
        <time>2022-09-10T07:40:54Z</time>
      </trkpt>
      <trkpt lat="43.52975" lon="5.56908">
        <ele>445</ele>
        <time>2022-09-10T07:40:58Z</time>
      </trkpt>
      <trkpt lat="43.5297" lon="5.56921">
        <ele>445</ele>
        <time>2022-09-10T07:41:07Z</time>
      </trkpt>
      <trkpt lat="43.52965" lon="5.56924">
        <ele>445</ele>
        <time>2022-09-10T07:41:11Z</time>
      </trkpt>
      <trkpt lat="43.52961" lon="5.56924">
        <ele>444</ele>
        <time>2022-09-10T07:41:14Z</time>
      </trkpt>
      <trkpt lat="43.52957" lon="5.56921">
        <ele>444</ele>
        <time>2022-09-10T07:41:17Z</time>
      </trkpt>
      <trkpt lat="43.52953" lon="5.56925">
        <ele>443</ele>
        <time>2022-09-10T07:41:22Z</time>
      </trkpt>
      <trkpt lat="43.52942" lon="5.56924">
        <ele>441</ele>
        <time>2022-09-10T07:41:31Z</time>
      </trkpt>
      <trkpt lat="43.52928" lon="5.56917">
        <ele>439</ele>
        <time>2022-09-10T07:41:43Z</time>
      </trkpt>
      <trkpt lat="43.52925" lon="5.56924">
        <ele>438</ele>
        <time>2022-09-10T07:41:49Z</time>
      </trkpt>
      <trkpt lat="43.52922" lon="5.56929">
        <ele>438</ele>
        <time>2022-09-10T07:41:52Z</time>
      </trkpt>
      <trkpt lat="43.52917" lon="5.56932">
        <ele>439</ele>
        <time>2022-09-10T07:41:56Z</time>
      </trkpt>
      <trkpt lat="43.52912" lon="5.56934">
        <ele>439</ele>
        <time>2022-09-10T07:42:01Z</time>
      </trkpt>
      <trkpt lat="43.52893" lon="5.56944">
        <ele>439</ele>
        <time>2022-09-10T07:42:17Z</time>
      </trkpt>
      <trkpt lat="43.52897" lon="5.56943">
        <ele>439</ele>
        <time>2022-09-10T07:45:36Z</time>
      </trkpt>
      <trkpt lat="43.52906" lon="5.56938">
        <ele>439</ele>
        <time>2022-09-10T07:45:44Z</time>
      </trkpt>
      <trkpt lat="43.52911" lon="5.56937">
        <ele>439</ele>
        <time>2022-09-10T07:45:48Z</time>
      </trkpt>
      <trkpt lat="43.52915" lon="5.56932">
        <ele>439</ele>
        <time>2022-09-10T07:45:52Z</time>
      </trkpt>
      <trkpt lat="43.52925" lon="5.56924">
        <ele>439</ele>
        <time>2022-09-10T07:46:05Z</time>
      </trkpt>
      <trkpt lat="43.52926" lon="5.56918">
        <ele>438</ele>
        <time>2022-09-10T07:46:09Z</time>
      </trkpt>
      <trkpt lat="43.5292" lon="5.56913">
        <ele>437</ele>
        <time>2022-09-10T07:46:23Z</time>
      </trkpt>
      <trkpt lat="43.52915" lon="5.56914">
        <ele>437</ele>
        <time>2022-09-10T07:46:27Z</time>
      </trkpt>
      <trkpt lat="43.52911" lon="5.56914">
        <ele>437</ele>
        <time>2022-09-10T07:46:30Z</time>
      </trkpt>
      <trkpt lat="43.52897" lon="5.56913">
        <ele>435</ele>
        <time>2022-09-10T07:46:41Z</time>
      </trkpt>
      <trkpt lat="43.52888" lon="5.56908">
        <ele>434</ele>
        <time>2022-09-10T07:46:49Z</time>
      </trkpt>
      <trkpt lat="43.52875" lon="5.56894">
        <ele>431</ele>
        <time>2022-09-10T07:47:02Z</time>
      </trkpt>
      <trkpt lat="43.5285" lon="5.56889">
        <ele>427</ele>
        <time>2022-09-10T07:47:17Z</time>
      </trkpt>
      <trkpt lat="43.52845" lon="5.56891">
        <ele>427</ele>
        <time>2022-09-10T07:47:20Z</time>
      </trkpt>
      <trkpt lat="43.52836" lon="5.56893">
        <ele>426</ele>
        <time>2022-09-10T07:47:27Z</time>
      </trkpt>
      <trkpt lat="43.52813" lon="5.56886">
        <ele>423</ele>
        <time>2022-09-10T07:47:42Z</time>
      </trkpt>
      <trkpt lat="43.52806" lon="5.56884">
        <ele>422</ele>
        <time>2022-09-10T07:47:51Z</time>
      </trkpt>
      <trkpt lat="43.52805" lon="5.56875">
        <ele>420</ele>
        <time>2022-09-10T07:48:02Z</time>
      </trkpt>
      <trkpt lat="43.52797" lon="5.56868">
        <ele>418</ele>
        <time>2022-09-10T07:48:10Z</time>
      </trkpt>
      <trkpt lat="43.52795" lon="5.56862">
        <ele>416</ele>
        <time>2022-09-10T07:48:18Z</time>
      </trkpt>
      <trkpt lat="43.52794" lon="5.56855">
        <ele>416</ele>
        <time>2022-09-10T07:48:21Z</time>
      </trkpt>
      <trkpt lat="43.52789" lon="5.56852">
        <ele>415</ele>
        <time>2022-09-10T07:48:24Z</time>
      </trkpt>
      <trkpt lat="43.52777" lon="5.56854">
        <ele>413</ele>
        <time>2022-09-10T07:48:36Z</time>
      </trkpt>
      <trkpt lat="43.52769" lon="5.56848">
        <ele>412</ele>
        <time>2022-09-10T07:48:43Z</time>
      </trkpt>
      <trkpt lat="43.52765" lon="5.56845">
        <ele>411</ele>
        <time>2022-09-10T07:48:47Z</time>
      </trkpt>
      <trkpt lat="43.52759" lon="5.56842">
        <ele>410</ele>
        <time>2022-09-10T07:48:52Z</time>
      </trkpt>
      <trkpt lat="43.52755" lon="5.56844">
        <ele>409</ele>
        <time>2022-09-10T07:48:56Z</time>
      </trkpt>
      <trkpt lat="43.52752" lon="5.56857">
        <ele>408</ele>
        <time>2022-09-10T07:49:03Z</time>
      </trkpt>
      <trkpt lat="43.52748" lon="5.56868">
        <ele>408</ele>
        <time>2022-09-10T07:49:10Z</time>
      </trkpt>
      <trkpt lat="43.52739" lon="5.56874">
        <ele>407</ele>
        <time>2022-09-10T07:49:16Z</time>
      </trkpt>
      <trkpt lat="43.52715" lon="5.56873">
        <ele>403</ele>
        <time>2022-09-10T07:49:33Z</time>
      </trkpt>
      <trkpt lat="43.52709" lon="5.56871">
        <ele>403</ele>
        <time>2022-09-10T07:49:37Z</time>
      </trkpt>
      <trkpt lat="43.5269" lon="5.56858">
        <ele>403</ele>
        <time>2022-09-10T07:49:49Z</time>
      </trkpt>
      <trkpt lat="43.5268" lon="5.56846">
        <ele>400</ele>
        <time>2022-09-10T07:50:06Z</time>
      </trkpt>
      <trkpt lat="43.52674" lon="5.56845">
        <ele>399</ele>
        <time>2022-09-10T07:50:10Z</time>
      </trkpt>
      <trkpt lat="43.52659" lon="5.56837">
        <ele>398</ele>
        <time>2022-09-10T07:50:19Z</time>
      </trkpt>
      <trkpt lat="43.52654" lon="5.5683">
        <ele>396</ele>
        <time>2022-09-10T07:50:26Z</time>
      </trkpt>
      <trkpt lat="43.52653" lon="5.56824">
        <ele>395</ele>
        <time>2022-09-10T07:50:30Z</time>
      </trkpt>
      <trkpt lat="43.52656" lon="5.56811">
        <ele>393</ele>
        <time>2022-09-10T07:50:39Z</time>
      </trkpt>
      <trkpt lat="43.52663" lon="5.56796">
        <ele>391</ele>
        <time>2022-09-10T07:50:51Z</time>
      </trkpt>
      <trkpt lat="43.52658" lon="5.56776">
        <ele>387</ele>
        <time>2022-09-10T07:51:03Z</time>
      </trkpt>
      <trkpt lat="43.52648" lon="5.56769">
        <ele>385</ele>
        <time>2022-09-10T07:51:09Z</time>
      </trkpt>
      <trkpt lat="43.52647" lon="5.56763">
        <ele>383</ele>
        <time>2022-09-10T07:51:14Z</time>
      </trkpt>
      <trkpt lat="43.52643" lon="5.56758">
        <ele>382</ele>
        <time>2022-09-10T07:51:18Z</time>
      </trkpt>
      <trkpt lat="43.52639" lon="5.56755">
        <ele>381</ele>
        <time>2022-09-10T07:51:22Z</time>
      </trkpt>
      <trkpt lat="43.52633" lon="5.56758">
        <ele>380</ele>
        <time>2022-09-10T07:51:27Z</time>
      </trkpt>
      <trkpt lat="43.52628" lon="5.56761">
        <ele>379</ele>
        <time>2022-09-10T07:51:30Z</time>
      </trkpt>
      <trkpt lat="43.52624" lon="5.56766">
        <ele>378</ele>
        <time>2022-09-10T07:51:34Z</time>
      </trkpt>
      <trkpt lat="43.52619" lon="5.56769">
        <ele>377</ele>
        <time>2022-09-10T07:51:38Z</time>
      </trkpt>
      <trkpt lat="43.52615" lon="5.56778">
        <ele>376</ele>
        <time>2022-09-10T07:51:46Z</time>
      </trkpt>
      <trkpt lat="43.52609" lon="5.56785">
        <ele>373</ele>
        <time>2022-09-10T07:51:55Z</time>
      </trkpt>
      <trkpt lat="43.52604" lon="5.56792">
        <ele>372</ele>
        <time>2022-09-10T07:52:00Z</time>
      </trkpt>
      <trkpt lat="43.52598" lon="5.56787">
        <ele>370</ele>
        <time>2022-09-10T07:52:07Z</time>
      </trkpt>
      <trkpt lat="43.52595" lon="5.56777">
        <ele>368</ele>
        <time>2022-09-10T07:52:14Z</time>
      </trkpt>
      <trkpt lat="43.52598" lon="5.56763">
        <ele>366</ele>
        <time>2022-09-10T07:52:24Z</time>
      </trkpt>
      <trkpt lat="43.526" lon="5.56756">
        <ele>365</ele>
        <time>2022-09-10T07:52:28Z</time>
      </trkpt>
      <trkpt lat="43.526" lon="5.56748">
        <ele>365</ele>
        <time>2022-09-10T07:52:32Z</time>
      </trkpt>
      <trkpt lat="43.52602" lon="5.56742">
        <ele>364</ele>
        <time>2022-09-10T07:52:36Z</time>
      </trkpt>
      <trkpt lat="43.52594" lon="5.56711">
        <ele>361</ele>
        <time>2022-09-10T07:52:53Z</time>
      </trkpt>
      <trkpt lat="43.52594" lon="5.56705">
        <ele>360</ele>
        <time>2022-09-10T07:52:56Z</time>
      </trkpt>
      <trkpt lat="43.52592" lon="5.56699">
        <ele>360</ele>
        <time>2022-09-10T07:53:00Z</time>
      </trkpt>
      <trkpt lat="43.52588" lon="5.56694">
        <ele>358</ele>
        <time>2022-09-10T07:53:04Z</time>
      </trkpt>
      <trkpt lat="43.52585" lon="5.56689">
        <ele>356</ele>
        <time>2022-09-10T07:53:08Z</time>
      </trkpt>
      <trkpt lat="43.52582" lon="5.56685">
        <ele>355</ele>
        <time>2022-09-10T07:53:11Z</time>
      </trkpt>
      <trkpt lat="43.52572" lon="5.56683">
        <ele>354</ele>
        <time>2022-09-10T07:53:19Z</time>
      </trkpt>
      <trkpt lat="43.52557" lon="5.56685">
        <ele>351</ele>
        <time>2022-09-10T07:53:31Z</time>
      </trkpt>
      <trkpt lat="43.52552" lon="5.56687">
        <ele>350</ele>
        <time>2022-09-10T07:53:35Z</time>
      </trkpt>
      <trkpt lat="43.52539" lon="5.56692">
        <ele>348</ele>
        <time>2022-09-10T07:53:55Z</time>
      </trkpt>
      <trkpt lat="43.52533" lon="5.567">
        <ele>346</ele>
        <time>2022-09-10T07:54:04Z</time>
      </trkpt>
      <trkpt lat="43.52534" lon="5.56709">
        <ele>345</ele>
        <time>2022-09-10T07:54:13Z</time>
      </trkpt>
      <trkpt lat="43.52526" lon="5.56706">
        <ele>345</ele>
        <time>2022-09-10T07:54:44Z</time>
      </trkpt>
      <trkpt lat="43.52521" lon="5.5671">
        <ele>343</ele>
        <time>2022-09-10T07:54:49Z</time>
      </trkpt>
      <trkpt lat="43.52502" lon="5.56713">
        <ele>340</ele>
        <time>2022-09-10T07:55:04Z</time>
      </trkpt>
      <trkpt lat="43.52502" lon="5.56721">
        <ele>339</ele>
        <time>2022-09-10T07:55:12Z</time>
      </trkpt>
      <trkpt lat="43.52501" lon="5.56727">
        <ele>340</ele>
        <time>2022-09-10T07:55:15Z</time>
      </trkpt>
      <trkpt lat="43.52498" lon="5.56733">
        <ele>339</ele>
        <time>2022-09-10T07:55:19Z</time>
      </trkpt>
      <trkpt lat="43.52497" lon="5.56741">
        <ele>339</ele>
        <time>2022-09-10T07:55:23Z</time>
      </trkpt>
      <trkpt lat="43.52494" lon="5.56746">
        <ele>338</ele>
        <time>2022-09-10T07:55:26Z</time>
      </trkpt>
      <trkpt lat="43.52492" lon="5.56757">
        <ele>337</ele>
        <time>2022-09-10T07:55:32Z</time>
      </trkpt>
      <trkpt lat="43.52487" lon="5.56768">
        <ele>336</ele>
        <time>2022-09-10T07:55:39Z</time>
      </trkpt>
      <trkpt lat="43.52479" lon="5.56774">
        <ele>334</ele>
        <time>2022-09-10T07:55:46Z</time>
      </trkpt>
      <trkpt lat="43.52459" lon="5.5678">
        <ele>331</ele>
        <time>2022-09-10T07:56:01Z</time>
      </trkpt>
      <trkpt lat="43.5245" lon="5.56778">
        <ele>330</ele>
        <time>2022-09-10T07:56:08Z</time>
      </trkpt>
      <trkpt lat="43.52446" lon="5.56779">
        <ele>330</ele>
        <time>2022-09-10T07:56:12Z</time>
      </trkpt>
      <trkpt lat="43.52442" lon="5.56777">
        <ele>329</ele>
        <time>2022-09-10T07:56:15Z</time>
      </trkpt>
      <trkpt lat="43.5243" lon="5.56773">
        <ele>328</ele>
        <time>2022-09-10T07:56:23Z</time>
      </trkpt>
      <trkpt lat="43.5242" lon="5.56764">
        <ele>326</ele>
        <time>2022-09-10T07:56:31Z</time>
      </trkpt>
      <trkpt lat="43.52418" lon="5.56759">
        <ele>326</ele>
        <time>2022-09-10T07:56:34Z</time>
      </trkpt>
      <trkpt lat="43.52417" lon="5.56753">
        <ele>326</ele>
        <time>2022-09-10T07:56:37Z</time>
      </trkpt>
      <trkpt lat="43.52414" lon="5.56747">
        <ele>325</ele>
        <time>2022-09-10T07:56:40Z</time>
      </trkpt>
      <trkpt lat="43.52402" lon="5.56734">
        <ele>324</ele>
        <time>2022-09-10T07:56:49Z</time>
      </trkpt>
      <trkpt lat="43.52398" lon="5.56722">
        <ele>324</ele>
        <time>2022-09-10T07:56:57Z</time>
      </trkpt>
      <trkpt lat="43.52394" lon="5.56709">
        <ele>323</ele>
        <time>2022-09-10T07:57:05Z</time>
      </trkpt>
      <trkpt lat="43.5239" lon="5.5669">
        <ele>321</ele>
        <time>2022-09-10T07:57:13Z</time>
      </trkpt>
      <trkpt lat="43.5239" lon="5.56682">
        <ele>321</ele>
        <time>2022-09-10T07:57:18Z</time>
      </trkpt>
      <trkpt lat="43.52383" lon="5.56651">
        <ele>318</ele>
        <time>2022-09-10T07:57:34Z</time>
      </trkpt>
      <trkpt lat="43.52369" lon="5.56622">
        <ele>313</ele>
        <time>2022-09-10T07:57:52Z</time>
      </trkpt>
      <trkpt lat="43.52361" lon="5.56589">
        <ele>306</ele>
        <time>2022-09-10T07:58:13Z</time>
      </trkpt>
      <trkpt lat="43.52354" lon="5.56594">
        <ele>305</ele>
        <time>2022-09-10T07:58:28Z</time>
      </trkpt>
      <trkpt lat="43.52343" lon="5.56617">
        <ele>302</ele>
        <time>2022-09-10T07:58:47Z</time>
      </trkpt>
      <trkpt lat="43.52341" lon="5.56631">
        <ele>302</ele>
        <time>2022-09-10T07:58:55Z</time>
      </trkpt>
      <trkpt lat="43.52344" lon="5.56635">
        <ele>302</ele>
        <time>2022-09-10T07:58:59Z</time>
      </trkpt>
      <trkpt lat="43.52342" lon="5.5665">
        <ele>303</ele>
        <time>2022-09-10T07:59:08Z</time>
      </trkpt>
      <trkpt lat="43.52343" lon="5.56657">
        <ele>303</ele>
        <time>2022-09-10T07:59:12Z</time>
      </trkpt>
      <trkpt lat="43.52343" lon="5.56663">
        <ele>304</ele>
        <time>2022-09-10T07:59:17Z</time>
      </trkpt>
      <trkpt lat="43.52344" lon="5.56669">
        <ele>304</ele>
        <time>2022-09-10T07:59:20Z</time>
      </trkpt>
      <trkpt lat="43.5234" lon="5.56675">
        <ele>304</ele>
        <time>2022-09-10T07:59:24Z</time>
      </trkpt>
      <trkpt lat="43.52335" lon="5.56679">
        <ele>304</ele>
        <time>2022-09-10T07:59:29Z</time>
      </trkpt>
      <trkpt lat="43.5233" lon="5.5668">
        <ele>303</ele>
        <time>2022-09-10T07:59:33Z</time>
      </trkpt>
      <trkpt lat="43.52326" lon="5.56683">
        <ele>302</ele>
        <time>2022-09-10T07:59:36Z</time>
      </trkpt>
      <trkpt lat="43.5232" lon="5.56686">
        <ele>300</ele>
        <time>2022-09-10T07:59:48Z</time>
      </trkpt>
      <trkpt lat="43.52311" lon="5.56691">
        <ele>300</ele>
        <time>2022-09-10T07:59:57Z</time>
      </trkpt>
      <trkpt lat="43.52307" lon="5.56697">
        <ele>301</ele>
        <time>2022-09-10T08:00:04Z</time>
      </trkpt>
      <trkpt lat="43.52305" lon="5.56703">
        <ele>301</ele>
        <time>2022-09-10T08:00:07Z</time>
      </trkpt>
      <trkpt lat="43.52315" lon="5.56723">
        <ele>301</ele>
        <time>2022-09-10T08:00:11Z</time>
      </trkpt>
      <trkpt lat="43.52323" lon="5.56732">
        <ele>302</ele>
        <time>2022-09-10T08:00:16Z</time>
      </trkpt>
      <trkpt lat="43.52327" lon="5.56735">
        <ele>303</ele>
        <time>2022-09-10T08:00:24Z</time>
      </trkpt>
      <trkpt lat="43.52326" lon="5.56742">
        <ele>303</ele>
        <time>2022-09-10T08:00:53Z</time>
      </trkpt>
      <trkpt lat="43.52326" lon="5.5675">
        <ele>304</ele>
        <time>2022-09-10T08:00:56Z</time>
      </trkpt>
      <trkpt lat="43.52326" lon="5.56757">
        <ele>304</ele>
        <time>2022-09-10T08:01:00Z</time>
      </trkpt>
      <trkpt lat="43.52329" lon="5.5677">
        <ele>305</ele>
        <time>2022-09-10T08:01:09Z</time>
      </trkpt>
      <trkpt lat="43.52333" lon="5.56783">
        <ele>306</ele>
        <time>2022-09-10T08:01:16Z</time>
      </trkpt>
      <trkpt lat="43.5233" lon="5.56797">
        <ele>307</ele>
        <time>2022-09-10T08:01:26Z</time>
      </trkpt>
      <trkpt lat="43.52335" lon="5.56803">
        <ele>309</ele>
        <time>2022-09-10T08:03:34Z</time>
      </trkpt>
    </trkseg>
  </trk>
  <trk>
    <name><![CDATA[27 août 2022 à 08:28:44]]></name>
    <cmt><![CDATA[27 août 2022 à 08:28:44]]></cmt>
    <trkseg>
      <trkpt lat="44.85815" lon="5.55638">
        <ele>1136</ele>
        <time>2022-08-27T06:28:45Z</time>
      </trkpt>
      <trkpt lat="44.85814" lon="5.55637">
        <ele>1135</ele>
        <time>2022-08-27T06:28:46Z</time>
      </trkpt>
      <trkpt lat="44.85815" lon="5.55637">
        <ele>1141</ele>
        <time>2022-08-27T06:29:20Z</time>
      </trkpt>
      <trkpt lat="44.85814" lon="5.55642">
        <ele>1144</ele>
        <time>2022-08-27T06:29:30Z</time>
      </trkpt>
      <trkpt lat="44.85816" lon="5.55645">
        <ele>1140</ele>
        <time>2022-08-27T06:31:16Z</time>
      </trkpt>
      <trkpt lat="44.85811" lon="5.55652">
        <ele>1140</ele>
        <time>2022-08-27T06:33:10Z</time>
      </trkpt>
      <trkpt lat="44.85812" lon="5.55638">
        <ele>1140</ele>
        <time>2022-08-27T06:33:18Z</time>
      </trkpt>
      <trkpt lat="44.85808" lon="5.55645">
        <ele>1140</ele>
        <time>2022-08-27T06:33:24Z</time>
      </trkpt>
      <trkpt lat="44.85805" lon="5.55659">
        <ele>1140</ele>
        <time>2022-08-27T06:33:31Z</time>
      </trkpt>
      <trkpt lat="44.85804" lon="5.55665">
        <ele>1139</ele>
        <time>2022-08-27T06:33:35Z</time>
      </trkpt>
      <trkpt lat="44.858" lon="5.5567">
        <ele>1139</ele>
        <time>2022-08-27T06:33:39Z</time>
      </trkpt>
      <trkpt lat="44.85793" lon="5.55691">
        <ele>1139</ele>
        <time>2022-08-27T06:33:50Z</time>
      </trkpt>
      <trkpt lat="44.85793" lon="5.55718">
        <ele>1137</ele>
        <time>2022-08-27T06:34:02Z</time>
      </trkpt>
      <trkpt lat="44.85794" lon="5.55737">
        <ele>1136</ele>
        <time>2022-08-27T06:34:15Z</time>
      </trkpt>
      <trkpt lat="44.85797" lon="5.55743">
        <ele>1135</ele>
        <time>2022-08-27T06:34:19Z</time>
      </trkpt>
      <trkpt lat="44.85794" lon="5.55744">
        <ele>1135</ele>
        <time>2022-08-27T06:38:50Z</time>
      </trkpt>
      <trkpt lat="44.85797" lon="5.55739">
        <ele>1136</ele>
        <time>2022-08-27T06:40:02Z</time>
      </trkpt>
      <trkpt lat="44.85795" lon="5.55741">
        <ele>1136</ele>
        <time>2022-08-27T06:40:42Z</time>
      </trkpt>
      <trkpt lat="44.85797" lon="5.55747">
        <ele>1136</ele>
        <time>2022-08-27T06:40:52Z</time>
      </trkpt>
      <trkpt lat="44.85802" lon="5.5574">
        <ele>1136</ele>
        <time>2022-08-27T06:41:06Z</time>
      </trkpt>
      <trkpt lat="44.85795" lon="5.55734">
        <ele>1136</ele>
        <time>2022-08-27T06:41:21Z</time>
      </trkpt>
      <trkpt lat="44.85794" lon="5.55737">
        <ele>1138</ele>
        <time>2022-08-27T06:42:02Z</time>
      </trkpt>
      <trkpt lat="44.85796" lon="5.55732">
        <ele>1136</ele>
        <time>2022-08-27T06:42:09Z</time>
      </trkpt>
      <trkpt lat="44.85798" lon="5.55724">
        <ele>1137</ele>
        <time>2022-08-27T06:42:14Z</time>
      </trkpt>
      <trkpt lat="44.858" lon="5.55713">
        <ele>1138</ele>
        <time>2022-08-27T06:42:20Z</time>
      </trkpt>
      <trkpt lat="44.85798" lon="5.55706">
        <ele>1138</ele>
        <time>2022-08-27T06:42:25Z</time>
      </trkpt>
      <trkpt lat="44.85797" lon="5.55697">
        <ele>1139</ele>
        <time>2022-08-27T06:42:32Z</time>
      </trkpt>
      <trkpt lat="44.858" lon="5.55682">
        <ele>1140</ele>
        <time>2022-08-27T06:42:41Z</time>
      </trkpt>
      <trkpt lat="44.85796" lon="5.55676">
        <ele>1141</ele>
        <time>2022-08-27T06:42:45Z</time>
      </trkpt>
      <trkpt lat="44.85783" lon="5.5566">
        <ele>1143</ele>
        <time>2022-08-27T06:42:59Z</time>
      </trkpt>
      <trkpt lat="44.85779" lon="5.55658">
        <ele>1143</ele>
        <time>2022-08-27T06:43:02Z</time>
      </trkpt>
      <trkpt lat="44.85776" lon="5.55652">
        <ele>1143</ele>
        <time>2022-08-27T06:43:05Z</time>
      </trkpt>
      <trkpt lat="44.85776" lon="5.55642">
        <ele>1144</ele>
        <time>2022-08-27T06:43:13Z</time>
      </trkpt>
      <trkpt lat="44.85763" lon="5.55615">
        <ele>1146</ele>
        <time>2022-08-27T06:43:30Z</time>
      </trkpt>
      <trkpt lat="44.85758" lon="5.55611">
        <ele>1147</ele>
        <time>2022-08-27T06:43:34Z</time>
      </trkpt>
      <trkpt lat="44.85762" lon="5.55591">
        <ele>1149</ele>
        <time>2022-08-27T06:43:46Z</time>
      </trkpt>
      <trkpt lat="44.85761" lon="5.55585">
        <ele>1149</ele>
        <time>2022-08-27T06:43:50Z</time>
      </trkpt>
      <trkpt lat="44.85757" lon="5.5558">
        <ele>1150</ele>
        <time>2022-08-27T06:43:54Z</time>
      </trkpt>
      <trkpt lat="44.85751" lon="5.5556">
        <ele>1152</ele>
        <time>2022-08-27T06:44:08Z</time>
      </trkpt>
      <trkpt lat="44.85749" lon="5.55545">
        <ele>1153</ele>
        <time>2022-08-27T06:44:19Z</time>
      </trkpt>
      <trkpt lat="44.8575" lon="5.55538">
        <ele>1154</ele>
        <time>2022-08-27T06:44:23Z</time>
      </trkpt>
      <trkpt lat="44.85748" lon="5.55527">
        <ele>1154</ele>
        <time>2022-08-27T06:44:31Z</time>
      </trkpt>
      <trkpt lat="44.85745" lon="5.55522">
        <ele>1155</ele>
        <time>2022-08-27T06:44:36Z</time>
      </trkpt>
      <trkpt lat="44.85745" lon="5.55514">
        <ele>1156</ele>
        <time>2022-08-27T06:44:41Z</time>
      </trkpt>
      <trkpt lat="44.85741" lon="5.55499">
        <ele>1157</ele>
        <time>2022-08-27T06:44:51Z</time>
      </trkpt>
      <trkpt lat="44.8574" lon="5.55491">
        <ele>1158</ele>
        <time>2022-08-27T06:44:59Z</time>
      </trkpt>
      <trkpt lat="44.85737" lon="5.55483">
        <ele>1159</ele>
        <time>2022-08-27T06:45:04Z</time>
      </trkpt>
      <trkpt lat="44.85736" lon="5.55468">
        <ele>1160</ele>
        <time>2022-08-27T06:45:13Z</time>
      </trkpt>
      <trkpt lat="44.8573" lon="5.55444">
        <ele>1162</ele>
        <time>2022-08-27T06:45:28Z</time>
      </trkpt>
      <trkpt lat="44.85718" lon="5.55433">
        <ele>1164</ele>
        <time>2022-08-27T06:45:43Z</time>
      </trkpt>
      <trkpt lat="44.85709" lon="5.55422">
        <ele>1165</ele>
        <time>2022-08-27T06:45:54Z</time>
      </trkpt>
      <trkpt lat="44.85705" lon="5.55418">
        <ele>1166</ele>
        <time>2022-08-27T06:45:58Z</time>
      </trkpt>
      <trkpt lat="44.85688" lon="5.55399">
        <ele>1169</ele>
        <time>2022-08-27T06:46:20Z</time>
      </trkpt>
      <trkpt lat="44.85685" lon="5.55391">
        <ele>1170</ele>
        <time>2022-08-27T06:46:28Z</time>
      </trkpt>
      <trkpt lat="44.85679" lon="5.55381">
        <ele>1172</ele>
        <time>2022-08-27T06:46:38Z</time>
      </trkpt>
      <trkpt lat="44.85674" lon="5.55379">
        <ele>1172</ele>
        <time>2022-08-27T06:46:41Z</time>
      </trkpt>
      <trkpt lat="44.85671" lon="5.55368">
        <ele>1174</ele>
        <time>2022-08-27T06:46:53Z</time>
      </trkpt>
      <trkpt lat="44.85668" lon="5.55358">
        <ele>1176</ele>
        <time>2022-08-27T06:47:04Z</time>
      </trkpt>
      <trkpt lat="44.85666" lon="5.55348">
        <ele>1178</ele>
        <time>2022-08-27T06:47:15Z</time>
      </trkpt>
      <trkpt lat="44.85657" lon="5.55342">
        <ele>1179</ele>
        <time>2022-08-27T06:47:20Z</time>
      </trkpt>
      <trkpt lat="44.85658" lon="5.55332">
        <ele>1180</ele>
        <time>2022-08-27T06:47:27Z</time>
      </trkpt>
      <trkpt lat="44.85655" lon="5.55324">
        <ele>1181</ele>
        <time>2022-08-27T06:47:34Z</time>
      </trkpt>
      <trkpt lat="44.85651" lon="5.55321">
        <ele>1181</ele>
        <time>2022-08-27T06:47:37Z</time>
      </trkpt>
      <trkpt lat="44.85643" lon="5.55309">
        <ele>1183</ele>
        <time>2022-08-27T06:47:49Z</time>
      </trkpt>
      <trkpt lat="44.85646" lon="5.55299">
        <ele>1184</ele>
        <time>2022-08-27T06:47:58Z</time>
      </trkpt>
      <trkpt lat="44.85642" lon="5.55294">
        <ele>1184</ele>
        <time>2022-08-27T06:48:01Z</time>
      </trkpt>
      <trkpt lat="44.85635" lon="5.55279">
        <ele>1186</ele>
        <time>2022-08-27T06:48:14Z</time>
      </trkpt>
      <trkpt lat="44.85631" lon="5.55256">
        <ele>1188</ele>
        <time>2022-08-27T06:48:32Z</time>
      </trkpt>
      <trkpt lat="44.85627" lon="5.55251">
        <ele>1189</ele>
        <time>2022-08-27T06:48:35Z</time>
      </trkpt>
      <trkpt lat="44.85623" lon="5.55249">
        <ele>1189</ele>
        <time>2022-08-27T06:48:37Z</time>
      </trkpt>
      <trkpt lat="44.8562" lon="5.55245">
        <ele>1189</ele>
        <time>2022-08-27T06:48:40Z</time>
      </trkpt>
      <trkpt lat="44.85617" lon="5.5524">
        <ele>1190</ele>
        <time>2022-08-27T06:48:44Z</time>
      </trkpt>
      <trkpt lat="44.85611" lon="5.55227">
        <ele>1191</ele>
        <time>2022-08-27T06:48:55Z</time>
      </trkpt>
      <trkpt lat="44.8561" lon="5.55221">
        <ele>1191</ele>
        <time>2022-08-27T06:49:00Z</time>
      </trkpt>
      <trkpt lat="44.85607" lon="5.5521">
        <ele>1192</ele>
        <time>2022-08-27T06:49:10Z</time>
      </trkpt>
      <trkpt lat="44.85606" lon="5.55204">
        <ele>1193</ele>
        <time>2022-08-27T06:49:15Z</time>
      </trkpt>
      <trkpt lat="44.85606" lon="5.55197">
        <ele>1193</ele>
        <time>2022-08-27T06:49:20Z</time>
      </trkpt>
      <trkpt lat="44.85612" lon="5.55177">
        <ele>1196</ele>
        <time>2022-08-27T06:49:39Z</time>
      </trkpt>
      <trkpt lat="44.85616" lon="5.55171">
        <ele>1196</ele>
        <time>2022-08-27T06:49:45Z</time>
      </trkpt>
      <trkpt lat="44.85618" lon="5.55157">
        <ele>1198</ele>
        <time>2022-08-27T06:49:56Z</time>
      </trkpt>
      <trkpt lat="44.85617" lon="5.55151">
        <ele>1198</ele>
        <time>2022-08-27T06:50:00Z</time>
      </trkpt>
      <trkpt lat="44.85618" lon="5.55132">
        <ele>1200</ele>
        <time>2022-08-27T06:50:11Z</time>
      </trkpt>
      <trkpt lat="44.85615" lon="5.55127">
        <ele>1200</ele>
        <time>2022-08-27T06:50:14Z</time>
      </trkpt>
      <trkpt lat="44.85615" lon="5.55121">
        <ele>1201</ele>
        <time>2022-08-27T06:50:18Z</time>
      </trkpt>
      <trkpt lat="44.85615" lon="5.55093">
        <ele>1202</ele>
        <time>2022-08-27T06:50:32Z</time>
      </trkpt>
      <trkpt lat="44.85619" lon="5.55082">
        <ele>1203</ele>
        <time>2022-08-27T06:50:38Z</time>
      </trkpt>
      <trkpt lat="44.8562" lon="5.5506">
        <ele>1205</ele>
        <time>2022-08-27T06:50:52Z</time>
      </trkpt>
      <trkpt lat="44.85615" lon="5.55032">
        <ele>1207</ele>
        <time>2022-08-27T06:51:09Z</time>
      </trkpt>
      <trkpt lat="44.85617" lon="5.55024">
        <ele>1208</ele>
        <time>2022-08-27T06:51:15Z</time>
      </trkpt>
      <trkpt lat="44.85614" lon="5.55009">
        <ele>1209</ele>
        <time>2022-08-27T06:51:25Z</time>
      </trkpt>
      <trkpt lat="44.85616" lon="5.54991">
        <ele>1210</ele>
        <time>2022-08-27T06:51:38Z</time>
      </trkpt>
      <trkpt lat="44.85616" lon="5.5498">
        <ele>1210</ele>
        <time>2022-08-27T06:51:44Z</time>
      </trkpt>
      <trkpt lat="44.85614" lon="5.54974">
        <ele>1210</ele>
        <time>2022-08-27T06:51:47Z</time>
      </trkpt>
      <trkpt lat="44.85612" lon="5.54959">
        <ele>1211</ele>
        <time>2022-08-27T06:51:56Z</time>
      </trkpt>
      <trkpt lat="44.85609" lon="5.54943">
        <ele>1211</ele>
        <time>2022-08-27T06:52:04Z</time>
      </trkpt>
      <trkpt lat="44.85612" lon="5.54927">
        <ele>1211</ele>
        <time>2022-08-27T06:52:13Z</time>
      </trkpt>
      <trkpt lat="44.85616" lon="5.5492">
        <ele>1211</ele>
        <time>2022-08-27T06:52:19Z</time>
      </trkpt>
      <trkpt lat="44.85615" lon="5.54899">
        <ele>1211</ele>
        <time>2022-08-27T06:52:30Z</time>
      </trkpt>
      <trkpt lat="44.85613" lon="5.5489">
        <ele>1212</ele>
        <time>2022-08-27T06:52:36Z</time>
      </trkpt>
      <trkpt lat="44.85608" lon="5.54882">
        <ele>1212</ele>
        <time>2022-08-27T06:52:40Z</time>
      </trkpt>
      <trkpt lat="44.85608" lon="5.54875">
        <ele>1212</ele>
        <time>2022-08-27T06:52:45Z</time>
      </trkpt>
      <trkpt lat="44.85606" lon="5.54866">
        <ele>1212</ele>
        <time>2022-08-27T06:52:51Z</time>
      </trkpt>
      <trkpt lat="44.85602" lon="5.54862">
        <ele>1212</ele>
        <time>2022-08-27T06:53:02Z</time>
      </trkpt>
      <trkpt lat="44.85597" lon="5.54849">
        <ele>1213</ele>
        <time>2022-08-27T06:53:09Z</time>
      </trkpt>
      <trkpt lat="44.85586" lon="5.54841">
        <ele>1213</ele>
        <time>2022-08-27T06:53:19Z</time>
      </trkpt>
      <trkpt lat="44.85582" lon="5.54847">
        <ele>1214</ele>
        <time>2022-08-27T06:53:21Z</time>
      </trkpt>
      <trkpt lat="44.85572" lon="5.54846">
        <ele>1215</ele>
        <time>2022-08-27T06:53:28Z</time>
      </trkpt>
      <trkpt lat="44.85568" lon="5.54842">
        <ele>1215</ele>
        <time>2022-08-27T06:53:35Z</time>
      </trkpt>
      <trkpt lat="44.85567" lon="5.54836">
        <ele>1216</ele>
        <time>2022-08-27T06:53:38Z</time>
      </trkpt>
      <trkpt lat="44.85563" lon="5.54832">
        <ele>1216</ele>
        <time>2022-08-27T06:53:41Z</time>
      </trkpt>
      <trkpt lat="44.85563" lon="5.54824">
        <ele>1217</ele>
        <time>2022-08-27T06:53:45Z</time>
      </trkpt>
      <trkpt lat="44.8556" lon="5.54817">
        <ele>1218</ele>
        <time>2022-08-27T06:53:49Z</time>
      </trkpt>
      <trkpt lat="44.85556" lon="5.54813">
        <ele>1218</ele>
        <time>2022-08-27T06:53:53Z</time>
      </trkpt>
      <trkpt lat="44.85552" lon="5.54811">
        <ele>1219</ele>
        <time>2022-08-27T06:53:57Z</time>
      </trkpt>
      <trkpt lat="44.85547" lon="5.5481">
        <ele>1219</ele>
        <time>2022-08-27T06:54:01Z</time>
      </trkpt>
      <trkpt lat="44.85543" lon="5.54808">
        <ele>1220</ele>
        <time>2022-08-27T06:54:06Z</time>
      </trkpt>
      <trkpt lat="44.85526" lon="5.5479">
        <ele>1222</ele>
        <time>2022-08-27T06:54:25Z</time>
      </trkpt>
      <trkpt lat="44.85521" lon="5.54786">
        <ele>1223</ele>
        <time>2022-08-27T06:54:30Z</time>
      </trkpt>
      <trkpt lat="44.85517" lon="5.54779">
        <ele>1224</ele>
        <time>2022-08-27T06:54:36Z</time>
      </trkpt>
      <trkpt lat="44.85512" lon="5.54777">
        <ele>1225</ele>
        <time>2022-08-27T06:54:40Z</time>
      </trkpt>
      <trkpt lat="44.85509" lon="5.54774">
        <ele>1225</ele>
        <time>2022-08-27T06:54:43Z</time>
      </trkpt>
      <trkpt lat="44.85506" lon="5.54767">
        <ele>1226</ele>
        <time>2022-08-27T06:54:49Z</time>
      </trkpt>
      <trkpt lat="44.855" lon="5.54762">
        <ele>1227</ele>
        <time>2022-08-27T06:54:55Z</time>
      </trkpt>
      <trkpt lat="44.85497" lon="5.54757">
        <ele>1227</ele>
        <time>2022-08-27T06:54:59Z</time>
      </trkpt>
      <trkpt lat="44.85487" lon="5.54749">
        <ele>1228</ele>
        <time>2022-08-27T06:55:09Z</time>
      </trkpt>
      <trkpt lat="44.85476" lon="5.54744">
        <ele>1230</ele>
        <time>2022-08-27T06:55:20Z</time>
      </trkpt>
      <trkpt lat="44.85473" lon="5.54738">
        <ele>1231</ele>
        <time>2022-08-27T06:55:27Z</time>
      </trkpt>
      <trkpt lat="44.85469" lon="5.54736">
        <ele>1231</ele>
        <time>2022-08-27T06:55:31Z</time>
      </trkpt>
      <trkpt lat="44.85464" lon="5.54732">
        <ele>1232</ele>
        <time>2022-08-27T06:55:35Z</time>
      </trkpt>
      <trkpt lat="44.85437" lon="5.54715">
        <ele>1235</ele>
        <time>2022-08-27T06:56:02Z</time>
      </trkpt>
      <trkpt lat="44.85434" lon="5.5471">
        <ele>1235</ele>
        <time>2022-08-27T06:56:05Z</time>
      </trkpt>
      <trkpt lat="44.85433" lon="5.54703">
        <ele>1236</ele>
        <time>2022-08-27T06:56:10Z</time>
      </trkpt>
      <trkpt lat="44.85429" lon="5.54696">
        <ele>1237</ele>
        <time>2022-08-27T06:56:16Z</time>
      </trkpt>
      <trkpt lat="44.85414" lon="5.54683">
        <ele>1239</ele>
        <time>2022-08-27T06:56:35Z</time>
      </trkpt>
      <trkpt lat="44.85414" lon="5.54674">
        <ele>1240</ele>
        <time>2022-08-27T06:56:39Z</time>
      </trkpt>
      <trkpt lat="44.85405" lon="5.54664">
        <ele>1241</ele>
        <time>2022-08-27T06:56:49Z</time>
      </trkpt>
      <trkpt lat="44.85399" lon="5.54662">
        <ele>1241</ele>
        <time>2022-08-27T06:56:53Z</time>
      </trkpt>
      <trkpt lat="44.85386" lon="5.54646">
        <ele>1243</ele>
        <time>2022-08-27T06:57:08Z</time>
      </trkpt>
      <trkpt lat="44.8537" lon="5.54639">
        <ele>1244</ele>
        <time>2022-08-27T06:57:22Z</time>
      </trkpt>
      <trkpt lat="44.85357" lon="5.54637">
        <ele>1245</ele>
        <time>2022-08-27T06:57:30Z</time>
      </trkpt>
      <trkpt lat="44.85347" lon="5.54633">
        <ele>1246</ele>
        <time>2022-08-27T06:57:40Z</time>
      </trkpt>
      <trkpt lat="44.85328" lon="5.54632">
        <ele>1248</ele>
        <time>2022-08-27T06:57:55Z</time>
      </trkpt>
      <trkpt lat="44.85325" lon="5.54626">
        <ele>1249</ele>
        <time>2022-08-27T06:58:04Z</time>
      </trkpt>
      <trkpt lat="44.85313" lon="5.5462">
        <ele>1250</ele>
        <time>2022-08-27T06:58:15Z</time>
      </trkpt>
      <trkpt lat="44.85306" lon="5.54615">
        <ele>1251</ele>
        <time>2022-08-27T06:58:22Z</time>
      </trkpt>
      <trkpt lat="44.85297" lon="5.54611">
        <ele>1252</ele>
        <time>2022-08-27T06:58:28Z</time>
      </trkpt>
      <trkpt lat="44.85293" lon="5.54607">
        <ele>1252</ele>
        <time>2022-08-27T06:58:31Z</time>
      </trkpt>
      <trkpt lat="44.8528" lon="5.54605">
        <ele>1253</ele>
        <time>2022-08-27T06:58:42Z</time>
      </trkpt>
      <trkpt lat="44.85276" lon="5.54606">
        <ele>1254</ele>
        <time>2022-08-27T06:58:45Z</time>
      </trkpt>
      <trkpt lat="44.85272" lon="5.54603">
        <ele>1254</ele>
        <time>2022-08-27T06:58:50Z</time>
      </trkpt>
      <trkpt lat="44.85267" lon="5.546">
        <ele>1255</ele>
        <time>2022-08-27T06:58:54Z</time>
      </trkpt>
      <trkpt lat="44.85262" lon="5.546">
        <ele>1255</ele>
        <time>2022-08-27T06:58:58Z</time>
      </trkpt>
      <trkpt lat="44.85253" lon="5.54597">
        <ele>1256</ele>
        <time>2022-08-27T06:59:05Z</time>
      </trkpt>
      <trkpt lat="44.85248" lon="5.54599">
        <ele>1257</ele>
        <time>2022-08-27T06:59:09Z</time>
      </trkpt>
      <trkpt lat="44.85243" lon="5.54598">
        <ele>1257</ele>
        <time>2022-08-27T06:59:14Z</time>
      </trkpt>
      <trkpt lat="44.85226" lon="5.54592">
        <ele>1259</ele>
        <time>2022-08-27T06:59:28Z</time>
      </trkpt>
      <trkpt lat="44.85217" lon="5.54594">
        <ele>1261</ele>
        <time>2022-08-27T06:59:38Z</time>
      </trkpt>
      <trkpt lat="44.85213" lon="5.54592">
        <ele>1262</ele>
        <time>2022-08-27T06:59:41Z</time>
      </trkpt>
      <trkpt lat="44.85198" lon="5.54597">
        <ele>1263</ele>
        <time>2022-08-27T06:59:54Z</time>
      </trkpt>
      <trkpt lat="44.85184" lon="5.54596">
        <ele>1265</ele>
        <time>2022-08-27T07:00:06Z</time>
      </trkpt>
      <trkpt lat="44.85178" lon="5.54597">
        <ele>1266</ele>
        <time>2022-08-27T07:00:13Z</time>
      </trkpt>
      <trkpt lat="44.85164" lon="5.54598">
        <ele>1268</ele>
        <time>2022-08-27T07:00:28Z</time>
      </trkpt>
      <trkpt lat="44.85142" lon="5.54586">
        <ele>1270</ele>
        <time>2022-08-27T07:00:48Z</time>
      </trkpt>
      <trkpt lat="44.85138" lon="5.5458">
        <ele>1270</ele>
        <time>2022-08-27T07:00:52Z</time>
      </trkpt>
      <trkpt lat="44.85114" lon="5.54573">
        <ele>1272</ele>
        <time>2022-08-27T07:01:13Z</time>
      </trkpt>
      <trkpt lat="44.85108" lon="5.54566">
        <ele>1273</ele>
        <time>2022-08-27T07:01:21Z</time>
      </trkpt>
      <trkpt lat="44.85089" lon="5.54565">
        <ele>1273</ele>
        <time>2022-08-27T07:01:32Z</time>
      </trkpt>
      <trkpt lat="44.85083" lon="5.54563">
        <ele>1274</ele>
        <time>2022-08-27T07:01:36Z</time>
      </trkpt>
      <trkpt lat="44.85073" lon="5.54563">
        <ele>1274</ele>
        <time>2022-08-27T07:01:43Z</time>
      </trkpt>
      <trkpt lat="44.85058" lon="5.54563">
        <ele>1275</ele>
        <time>2022-08-27T07:01:56Z</time>
      </trkpt>
      <trkpt lat="44.85054" lon="5.54561">
        <ele>1276</ele>
        <time>2022-08-27T07:01:59Z</time>
      </trkpt>
      <trkpt lat="44.85048" lon="5.54566">
        <ele>1276</ele>
        <time>2022-08-27T07:02:05Z</time>
      </trkpt>
      <trkpt lat="44.8503" lon="5.54566">
        <ele>1278</ele>
        <time>2022-08-27T07:02:21Z</time>
      </trkpt>
      <trkpt lat="44.85026" lon="5.54563">
        <ele>1279</ele>
        <time>2022-08-27T07:02:25Z</time>
      </trkpt>
      <trkpt lat="44.85016" lon="5.54558">
        <ele>1281</ele>
        <time>2022-08-27T07:02:41Z</time>
      </trkpt>
      <trkpt lat="44.85012" lon="5.54556">
        <ele>1281</ele>
        <time>2022-08-27T07:02:46Z</time>
      </trkpt>
      <trkpt lat="44.85008" lon="5.5455">
        <ele>1281</ele>
        <time>2022-08-27T07:02:49Z</time>
      </trkpt>
      <trkpt lat="44.85003" lon="5.54543">
        <ele>1282</ele>
        <time>2022-08-27T07:02:57Z</time>
      </trkpt>
      <trkpt lat="44.84989" lon="5.54509">
        <ele>1286</ele>
        <time>2022-08-27T07:03:25Z</time>
      </trkpt>
      <trkpt lat="44.84983" lon="5.54504">
        <ele>1286</ele>
        <time>2022-08-27T07:03:31Z</time>
      </trkpt>
      <trkpt lat="44.84983" lon="5.54492">
        <ele>1288</ele>
        <time>2022-08-27T07:03:44Z</time>
      </trkpt>
      <trkpt lat="44.84977" lon="5.5448">
        <ele>1290</ele>
        <time>2022-08-27T07:03:55Z</time>
      </trkpt>
      <trkpt lat="44.84974" lon="5.54471">
        <ele>1291</ele>
        <time>2022-08-27T07:04:04Z</time>
      </trkpt>
      <trkpt lat="44.84964" lon="5.54456">
        <ele>1293</ele>
        <time>2022-08-27T07:04:16Z</time>
      </trkpt>
      <trkpt lat="44.8496" lon="5.54453">
        <ele>1293</ele>
        <time>2022-08-27T07:04:19Z</time>
      </trkpt>
      <trkpt lat="44.84952" lon="5.54435">
        <ele>1296</ele>
        <time>2022-08-27T07:04:41Z</time>
      </trkpt>
      <trkpt lat="44.84946" lon="5.54432">
        <ele>1297</ele>
        <time>2022-08-27T07:04:44Z</time>
      </trkpt>
      <trkpt lat="44.84941" lon="5.54429">
        <ele>1298</ele>
        <time>2022-08-27T07:04:53Z</time>
      </trkpt>
      <trkpt lat="44.8493" lon="5.54425">
        <ele>1300</ele>
        <time>2022-08-27T07:05:08Z</time>
      </trkpt>
      <trkpt lat="44.84927" lon="5.54417">
        <ele>1301</ele>
        <time>2022-08-27T07:05:15Z</time>
      </trkpt>
      <trkpt lat="44.84921" lon="5.54413">
        <ele>1302</ele>
        <time>2022-08-27T07:05:22Z</time>
      </trkpt>
      <trkpt lat="44.84918" lon="5.54407">
        <ele>1305</ele>
        <time>2022-08-27T07:05:36Z</time>
      </trkpt>
      <trkpt lat="44.84904" lon="5.54392">
        <ele>1307</ele>
        <time>2022-08-27T07:05:57Z</time>
      </trkpt>
      <trkpt lat="44.849" lon="5.54388">
        <ele>1308</ele>
        <time>2022-08-27T07:06:01Z</time>
      </trkpt>
      <trkpt lat="44.84898" lon="5.54382">
        <ele>1309</ele>
        <time>2022-08-27T07:06:08Z</time>
      </trkpt>
      <trkpt lat="44.84891" lon="5.54373">
        <ele>1312</ele>
        <time>2022-08-27T07:06:24Z</time>
      </trkpt>
      <trkpt lat="44.84888" lon="5.54367">
        <ele>1312</ele>
        <time>2022-08-27T07:06:28Z</time>
      </trkpt>
      <trkpt lat="44.84884" lon="5.54364">
        <ele>1313</ele>
        <time>2022-08-27T07:06:33Z</time>
      </trkpt>
      <trkpt lat="44.84873" lon="5.54358">
        <ele>1316</ele>
        <time>2022-08-27T07:06:51Z</time>
      </trkpt>
      <trkpt lat="44.84864" lon="5.5435">
        <ele>1318</ele>
        <time>2022-08-27T07:07:05Z</time>
      </trkpt>
      <trkpt lat="44.84859" lon="5.54342">
        <ele>1320</ele>
        <time>2022-08-27T07:07:14Z</time>
      </trkpt>
      <trkpt lat="44.84855" lon="5.54339">
        <ele>1320</ele>
        <time>2022-08-27T07:07:18Z</time>
      </trkpt>
      <trkpt lat="44.84851" lon="5.54333">
        <ele>1321</ele>
        <time>2022-08-27T07:07:26Z</time>
      </trkpt>
      <trkpt lat="44.84849" lon="5.54326">
        <ele>1322</ele>
        <time>2022-08-27T07:07:31Z</time>
      </trkpt>
      <trkpt lat="44.84844" lon="5.54321">
        <ele>1324</ele>
        <time>2022-08-27T07:07:39Z</time>
      </trkpt>
      <trkpt lat="44.84837" lon="5.54323">
        <ele>1325</ele>
        <time>2022-08-27T07:07:48Z</time>
      </trkpt>
      <trkpt lat="44.84835" lon="5.54318">
        <ele>1326</ele>
        <time>2022-08-27T07:07:51Z</time>
      </trkpt>
      <trkpt lat="44.84832" lon="5.54312">
        <ele>1327</ele>
        <time>2022-08-27T07:07:59Z</time>
      </trkpt>
      <trkpt lat="44.84823" lon="5.54303">
        <ele>1328</ele>
        <time>2022-08-27T07:08:10Z</time>
      </trkpt>
      <trkpt lat="44.84821" lon="5.54295">
        <ele>1329</ele>
        <time>2022-08-27T07:08:16Z</time>
      </trkpt>
      <trkpt lat="44.84817" lon="5.54291">
        <ele>1329</ele>
        <time>2022-08-27T07:08:19Z</time>
      </trkpt>
      <trkpt lat="44.84815" lon="5.54285">
        <ele>1329</ele>
        <time>2022-08-27T07:08:23Z</time>
      </trkpt>
      <trkpt lat="44.84811" lon="5.54281">
        <ele>1330</ele>
        <time>2022-08-27T07:08:27Z</time>
      </trkpt>
      <trkpt lat="44.84808" lon="5.54275">
        <ele>1330</ele>
        <time>2022-08-27T07:08:31Z</time>
      </trkpt>
      <trkpt lat="44.84803" lon="5.54273">
        <ele>1330</ele>
        <time>2022-08-27T07:08:34Z</time>
      </trkpt>
      <trkpt lat="44.84801" lon="5.54267">
        <ele>1330</ele>
        <time>2022-08-27T07:08:37Z</time>
      </trkpt>
      <trkpt lat="44.84781" lon="5.54244">
        <ele>1332</ele>
        <time>2022-08-27T07:08:58Z</time>
      </trkpt>
      <trkpt lat="44.84778" lon="5.54238">
        <ele>1333</ele>
        <time>2022-08-27T07:09:02Z</time>
      </trkpt>
      <trkpt lat="44.84762" lon="5.54225">
        <ele>1334</ele>
        <time>2022-08-27T07:09:14Z</time>
      </trkpt>
      <trkpt lat="44.84759" lon="5.54231">
        <ele>1335</ele>
        <time>2022-08-27T07:09:16Z</time>
      </trkpt>
      <trkpt lat="44.84746" lon="5.54238">
        <ele>1336</ele>
        <time>2022-08-27T07:09:26Z</time>
      </trkpt>
      <trkpt lat="44.84741" lon="5.54235">
        <ele>1337</ele>
        <time>2022-08-27T07:09:38Z</time>
      </trkpt>
      <trkpt lat="44.84731" lon="5.54232">
        <ele>1338</ele>
        <time>2022-08-27T07:09:56Z</time>
      </trkpt>
      <trkpt lat="44.84727" lon="5.54229">
        <ele>1339</ele>
        <time>2022-08-27T07:10:01Z</time>
      </trkpt>
      <trkpt lat="44.84718" lon="5.54205">
        <ele>1339</ele>
        <time>2022-08-27T07:10:19Z</time>
      </trkpt>
      <trkpt lat="44.84706" lon="5.54191">
        <ele>1339</ele>
        <time>2022-08-27T07:10:34Z</time>
      </trkpt>
      <trkpt lat="44.84697" lon="5.54183">
        <ele>1338</ele>
        <time>2022-08-27T07:10:41Z</time>
      </trkpt>
      <trkpt lat="44.84693" lon="5.54177">
        <ele>1338</ele>
        <time>2022-08-27T07:10:44Z</time>
      </trkpt>
      <trkpt lat="44.84692" lon="5.54167">
        <ele>1338</ele>
        <time>2022-08-27T07:10:47Z</time>
      </trkpt>
      <trkpt lat="44.84693" lon="5.54153">
        <ele>1338</ele>
        <time>2022-08-27T07:10:52Z</time>
      </trkpt>
      <trkpt lat="44.84698" lon="5.54142">
        <ele>1338</ele>
        <time>2022-08-27T07:10:57Z</time>
      </trkpt>
      <trkpt lat="44.84702" lon="5.54137">
        <ele>1339</ele>
        <time>2022-08-27T07:11:01Z</time>
      </trkpt>
      <trkpt lat="44.84707" lon="5.54137">
        <ele>1339</ele>
        <time>2022-08-27T07:11:06Z</time>
      </trkpt>
      <trkpt lat="44.84717" lon="5.54131">
        <ele>1340</ele>
        <time>2022-08-27T07:11:13Z</time>
      </trkpt>
      <trkpt lat="44.8472" lon="5.54127">
        <ele>1341</ele>
        <time>2022-08-27T07:11:18Z</time>
      </trkpt>
      <trkpt lat="44.84726" lon="5.54124">
        <ele>1343</ele>
        <time>2022-08-27T07:11:29Z</time>
      </trkpt>
      <trkpt lat="44.84732" lon="5.5412">
        <ele>1345</ele>
        <time>2022-08-27T07:11:39Z</time>
      </trkpt>
      <trkpt lat="44.84736" lon="5.54118">
        <ele>1345</ele>
        <time>2022-08-27T07:11:42Z</time>
      </trkpt>
      <trkpt lat="44.84742" lon="5.54113">
        <ele>1346</ele>
        <time>2022-08-27T07:11:49Z</time>
      </trkpt>
      <trkpt lat="44.84759" lon="5.54102">
        <ele>1349</ele>
        <time>2022-08-27T07:12:11Z</time>
      </trkpt>
      <trkpt lat="44.84765" lon="5.54103">
        <ele>1350</ele>
        <time>2022-08-27T07:12:17Z</time>
      </trkpt>
      <trkpt lat="44.8477" lon="5.54104">
        <ele>1350</ele>
        <time>2022-08-27T07:12:21Z</time>
      </trkpt>
      <trkpt lat="44.84774" lon="5.54102">
        <ele>1350</ele>
        <time>2022-08-27T07:12:24Z</time>
      </trkpt>
      <trkpt lat="44.84778" lon="5.54098">
        <ele>1350</ele>
        <time>2022-08-27T07:12:27Z</time>
      </trkpt>
      <trkpt lat="44.84782" lon="5.54096">
        <ele>1350</ele>
        <time>2022-08-27T07:12:29Z</time>
      </trkpt>
      <trkpt lat="44.84788" lon="5.54098">
        <ele>1351</ele>
        <time>2022-08-27T07:12:37Z</time>
      </trkpt>
      <trkpt lat="44.84797" lon="5.54095">
        <ele>1352</ele>
        <time>2022-08-27T07:12:44Z</time>
      </trkpt>
      <trkpt lat="44.84808" lon="5.54087">
        <ele>1353</ele>
        <time>2022-08-27T07:12:54Z</time>
      </trkpt>
      <trkpt lat="44.84813" lon="5.54085">
        <ele>1353</ele>
        <time>2022-08-27T07:12:58Z</time>
      </trkpt>
      <trkpt lat="44.84826" lon="5.54087">
        <ele>1352</ele>
        <time>2022-08-27T07:13:10Z</time>
      </trkpt>
      <trkpt lat="44.84829" lon="5.54096">
        <ele>1351</ele>
        <time>2022-08-27T07:13:16Z</time>
      </trkpt>
      <trkpt lat="44.84838" lon="5.54098">
        <ele>1352</ele>
        <time>2022-08-27T07:13:23Z</time>
      </trkpt>
      <trkpt lat="44.84848" lon="5.54094">
        <ele>1352</ele>
        <time>2022-08-27T07:13:29Z</time>
      </trkpt>
      <trkpt lat="44.84852" lon="5.54092">
        <ele>1351</ele>
        <time>2022-08-27T07:13:32Z</time>
      </trkpt>
      <trkpt lat="44.84866" lon="5.54089">
        <ele>1349</ele>
        <time>2022-08-27T07:13:43Z</time>
      </trkpt>
      <trkpt lat="44.84877" lon="5.54087">
        <ele>1349</ele>
        <time>2022-08-27T07:13:50Z</time>
      </trkpt>
      <trkpt lat="44.8489" lon="5.54074">
        <ele>1350</ele>
        <time>2022-08-27T07:14:02Z</time>
      </trkpt>
      <trkpt lat="44.849" lon="5.54071">
        <ele>1350</ele>
        <time>2022-08-27T07:14:09Z</time>
      </trkpt>
      <trkpt lat="44.84915" lon="5.5407">
        <ele>1351</ele>
        <time>2022-08-27T07:14:21Z</time>
      </trkpt>
      <trkpt lat="44.84927" lon="5.54055">
        <ele>1352</ele>
        <time>2022-08-27T07:14:34Z</time>
      </trkpt>
      <trkpt lat="44.84936" lon="5.54049">
        <ele>1352</ele>
        <time>2022-08-27T07:14:43Z</time>
      </trkpt>
      <trkpt lat="44.84941" lon="5.54054">
        <ele>1353</ele>
        <time>2022-08-27T07:14:56Z</time>
      </trkpt>
      <trkpt lat="44.84943" lon="5.5406">
        <ele>1354</ele>
        <time>2022-08-27T07:15:00Z</time>
      </trkpt>
      <trkpt lat="44.84949" lon="5.54059">
        <ele>1355</ele>
        <time>2022-08-27T07:15:07Z</time>
      </trkpt>
      <trkpt lat="44.84954" lon="5.54062">
        <ele>1355</ele>
        <time>2022-08-27T07:15:11Z</time>
      </trkpt>
      <trkpt lat="44.84958" lon="5.54068">
        <ele>1355</ele>
        <time>2022-08-27T07:15:15Z</time>
      </trkpt>
      <trkpt lat="44.84964" lon="5.54066">
        <ele>1356</ele>
        <time>2022-08-27T07:15:19Z</time>
      </trkpt>
      <trkpt lat="44.84974" lon="5.54061">
        <ele>1356</ele>
        <time>2022-08-27T07:15:26Z</time>
      </trkpt>
      <trkpt lat="44.84979" lon="5.54067">
        <ele>1356</ele>
        <time>2022-08-27T07:15:32Z</time>
      </trkpt>
      <trkpt lat="44.8499" lon="5.54071">
        <ele>1357</ele>
        <time>2022-08-27T07:15:40Z</time>
      </trkpt>
      <trkpt lat="44.84994" lon="5.54078">
        <ele>1357</ele>
        <time>2022-08-27T07:15:47Z</time>
      </trkpt>
      <trkpt lat="44.84999" lon="5.54079">
        <ele>1358</ele>
        <time>2022-08-27T07:15:51Z</time>
      </trkpt>
      <trkpt lat="44.85006" lon="5.54085">
        <ele>1358</ele>
        <time>2022-08-27T07:15:59Z</time>
      </trkpt>
      <trkpt lat="44.85008" lon="5.5409">
        <ele>1358</ele>
        <time>2022-08-27T07:16:02Z</time>
      </trkpt>
      <trkpt lat="44.85021" lon="5.54099">
        <ele>1359</ele>
        <time>2022-08-27T07:16:13Z</time>
      </trkpt>
      <trkpt lat="44.85031" lon="5.541">
        <ele>1360</ele>
        <time>2022-08-27T07:16:20Z</time>
      </trkpt>
      <trkpt lat="44.85051" lon="5.54091">
        <ele>1361</ele>
        <time>2022-08-27T07:16:37Z</time>
      </trkpt>
      <trkpt lat="44.85057" lon="5.54088">
        <ele>1361</ele>
        <time>2022-08-27T07:16:42Z</time>
      </trkpt>
      <trkpt lat="44.85068" lon="5.54084">
        <ele>1362</ele>
        <time>2022-08-27T07:16:50Z</time>
      </trkpt>
      <trkpt lat="44.85073" lon="5.54082">
        <ele>1362</ele>
        <time>2022-08-27T07:16:54Z</time>
      </trkpt>
      <trkpt lat="44.8508" lon="5.54081">
        <ele>1363</ele>
        <time>2022-08-27T07:17:00Z</time>
      </trkpt>
      <trkpt lat="44.85084" lon="5.5408">
        <ele>1363</ele>
        <time>2022-08-27T07:17:05Z</time>
      </trkpt>
      <trkpt lat="44.8509" lon="5.54078">
        <ele>1363</ele>
        <time>2022-08-27T07:17:09Z</time>
      </trkpt>
      <trkpt lat="44.85092" lon="5.54071">
        <ele>1364</ele>
        <time>2022-08-27T07:17:13Z</time>
      </trkpt>
      <trkpt lat="44.85097" lon="5.54069">
        <ele>1364</ele>
        <time>2022-08-27T07:17:17Z</time>
      </trkpt>
      <trkpt lat="44.85108" lon="5.54069">
        <ele>1364</ele>
        <time>2022-08-27T07:17:26Z</time>
      </trkpt>
      <trkpt lat="44.85124" lon="5.54071">
        <ele>1365</ele>
        <time>2022-08-27T07:17:49Z</time>
      </trkpt>
      <trkpt lat="44.85129" lon="5.54073">
        <ele>1365</ele>
        <time>2022-08-27T07:17:53Z</time>
      </trkpt>
      <trkpt lat="44.85145" lon="5.54096">
        <ele>1367</ele>
        <time>2022-08-27T07:18:15Z</time>
      </trkpt>
      <trkpt lat="44.85161" lon="5.54086">
        <ele>1368</ele>
        <time>2022-08-27T07:18:29Z</time>
      </trkpt>
      <trkpt lat="44.85165" lon="5.54078">
        <ele>1368</ele>
        <time>2022-08-27T07:18:36Z</time>
      </trkpt>
      <trkpt lat="44.85177" lon="5.54074">
        <ele>1369</ele>
        <time>2022-08-27T07:18:45Z</time>
      </trkpt>
      <trkpt lat="44.85184" lon="5.54068">
        <ele>1370</ele>
        <time>2022-08-27T07:18:52Z</time>
      </trkpt>
      <trkpt lat="44.85192" lon="5.54059">
        <ele>1369</ele>
        <time>2022-08-27T07:18:59Z</time>
      </trkpt>
      <trkpt lat="44.85199" lon="5.54062">
        <ele>1370</ele>
        <time>2022-08-27T07:19:06Z</time>
      </trkpt>
      <trkpt lat="44.85204" lon="5.54066">
        <ele>1369</ele>
        <time>2022-08-27T07:19:11Z</time>
      </trkpt>
      <trkpt lat="44.85208" lon="5.54074">
        <ele>1369</ele>
        <time>2022-08-27T07:19:16Z</time>
      </trkpt>
      <trkpt lat="44.85214" lon="5.54084">
        <ele>1370</ele>
        <time>2022-08-27T07:19:27Z</time>
      </trkpt>
      <trkpt lat="44.85215" lon="5.54092">
        <ele>1371</ele>
        <time>2022-08-27T07:19:31Z</time>
      </trkpt>
      <trkpt lat="44.8522" lon="5.54095">
        <ele>1371</ele>
        <time>2022-08-27T07:19:36Z</time>
      </trkpt>
      <trkpt lat="44.8523" lon="5.54086">
        <ele>1372</ele>
        <time>2022-08-27T07:19:43Z</time>
      </trkpt>
      <trkpt lat="44.85235" lon="5.5408">
        <ele>1372</ele>
        <time>2022-08-27T07:19:48Z</time>
      </trkpt>
      <trkpt lat="44.85249" lon="5.54061">
        <ele>1373</ele>
        <time>2022-08-27T07:19:59Z</time>
      </trkpt>
      <trkpt lat="44.85246" lon="5.54052">
        <ele>1374</ele>
        <time>2022-08-27T07:20:03Z</time>
      </trkpt>
      <trkpt lat="44.85248" lon="5.54045">
        <ele>1374</ele>
        <time>2022-08-27T07:20:09Z</time>
      </trkpt>
      <trkpt lat="44.85252" lon="5.54037">
        <ele>1375</ele>
        <time>2022-08-27T07:20:17Z</time>
      </trkpt>
      <trkpt lat="44.85258" lon="5.54029">
        <ele>1376</ele>
        <time>2022-08-27T07:20:26Z</time>
      </trkpt>
      <trkpt lat="44.85266" lon="5.54026">
        <ele>1377</ele>
        <time>2022-08-27T07:20:34Z</time>
      </trkpt>
      <trkpt lat="44.85278" lon="5.54025">
        <ele>1377</ele>
        <time>2022-08-27T07:20:44Z</time>
      </trkpt>
      <trkpt lat="44.85283" lon="5.54027">
        <ele>1377</ele>
        <time>2022-08-27T07:20:48Z</time>
      </trkpt>
      <trkpt lat="44.85288" lon="5.54024">
        <ele>1377</ele>
        <time>2022-08-27T07:20:52Z</time>
      </trkpt>
      <trkpt lat="44.85289" lon="5.54015">
        <ele>1378</ele>
        <time>2022-08-27T07:20:55Z</time>
      </trkpt>
      <trkpt lat="44.85291" lon="5.54007">
        <ele>1378</ele>
        <time>2022-08-27T07:20:59Z</time>
      </trkpt>
      <trkpt lat="44.85294" lon="5.54002">
        <ele>1379</ele>
        <time>2022-08-27T07:21:03Z</time>
      </trkpt>
      <trkpt lat="44.85298" lon="5.54003">
        <ele>1379</ele>
        <time>2022-08-27T07:21:06Z</time>
      </trkpt>
      <trkpt lat="44.85303" lon="5.54003">
        <ele>1379</ele>
        <time>2022-08-27T07:21:09Z</time>
      </trkpt>
      <trkpt lat="44.85306" lon="5.53998">
        <ele>1379</ele>
        <time>2022-08-27T07:21:13Z</time>
      </trkpt>
      <trkpt lat="44.85308" lon="5.53984">
        <ele>1379</ele>
        <time>2022-08-27T07:21:21Z</time>
      </trkpt>
      <trkpt lat="44.85308" lon="5.53976">
        <ele>1379</ele>
        <time>2022-08-27T07:21:25Z</time>
      </trkpt>
      <trkpt lat="44.8531" lon="5.53967">
        <ele>1380</ele>
        <time>2022-08-27T07:21:29Z</time>
      </trkpt>
      <trkpt lat="44.85317" lon="5.53954">
        <ele>1380</ele>
        <time>2022-08-27T07:21:37Z</time>
      </trkpt>
      <trkpt lat="44.85322" lon="5.53951">
        <ele>1381</ele>
        <time>2022-08-27T07:21:44Z</time>
      </trkpt>
      <trkpt lat="44.85326" lon="5.53954">
        <ele>1381</ele>
        <time>2022-08-27T07:21:48Z</time>
      </trkpt>
      <trkpt lat="44.85333" lon="5.53954">
        <ele>1381</ele>
        <time>2022-08-27T07:21:54Z</time>
      </trkpt>
      <trkpt lat="44.85338" lon="5.53954">
        <ele>1382</ele>
        <time>2022-08-27T07:22:01Z</time>
      </trkpt>
      <trkpt lat="44.85341" lon="5.5396">
        <ele>1382</ele>
        <time>2022-08-27T07:22:09Z</time>
      </trkpt>
      <trkpt lat="44.85344" lon="5.53964">
        <ele>1381</ele>
        <time>2022-08-27T07:22:14Z</time>
      </trkpt>
      <trkpt lat="44.85349" lon="5.53966">
        <ele>1381</ele>
        <time>2022-08-27T07:22:19Z</time>
      </trkpt>
      <trkpt lat="44.85355" lon="5.53964">
        <ele>1381</ele>
        <time>2022-08-27T07:22:25Z</time>
      </trkpt>
      <trkpt lat="44.85359" lon="5.53959">
        <ele>1381</ele>
        <time>2022-08-27T07:22:29Z</time>
      </trkpt>
      <trkpt lat="44.85365" lon="5.53957">
        <ele>1381</ele>
        <time>2022-08-27T07:22:33Z</time>
      </trkpt>
      <trkpt lat="44.85378" lon="5.53955">
        <ele>1381</ele>
        <time>2022-08-27T07:22:42Z</time>
      </trkpt>
      <trkpt lat="44.85392" lon="5.53949">
        <ele>1381</ele>
        <time>2022-08-27T07:22:51Z</time>
      </trkpt>
      <trkpt lat="44.85395" lon="5.53942">
        <ele>1381</ele>
        <time>2022-08-27T07:22:55Z</time>
      </trkpt>
      <trkpt lat="44.85404" lon="5.53934">
        <ele>1381</ele>
        <time>2022-08-27T07:23:03Z</time>
      </trkpt>
      <trkpt lat="44.8541" lon="5.5393">
        <ele>1381</ele>
        <time>2022-08-27T07:23:08Z</time>
      </trkpt>
      <trkpt lat="44.85416" lon="5.53914">
        <ele>1382</ele>
        <time>2022-08-27T07:23:18Z</time>
      </trkpt>
      <trkpt lat="44.85417" lon="5.53906">
        <ele>1381</ele>
        <time>2022-08-27T07:23:21Z</time>
      </trkpt>
      <trkpt lat="44.85422" lon="5.53899">
        <ele>1381</ele>
        <time>2022-08-27T07:23:26Z</time>
      </trkpt>
      <trkpt lat="44.85427" lon="5.53895">
        <ele>1381</ele>
        <time>2022-08-27T07:23:30Z</time>
      </trkpt>
      <trkpt lat="44.85427" lon="5.53885">
        <ele>1382</ele>
        <time>2022-08-27T07:23:35Z</time>
      </trkpt>
      <trkpt lat="44.85427" lon="5.53876">
        <ele>1382</ele>
        <time>2022-08-27T07:23:40Z</time>
      </trkpt>
      <trkpt lat="44.85429" lon="5.53867">
        <ele>1382</ele>
        <time>2022-08-27T07:23:44Z</time>
      </trkpt>
      <trkpt lat="44.85432" lon="5.5386">
        <ele>1382</ele>
        <time>2022-08-27T07:23:49Z</time>
      </trkpt>
      <trkpt lat="44.85441" lon="5.53856">
        <ele>1381</ele>
        <time>2022-08-27T07:23:53Z</time>
      </trkpt>
      <trkpt lat="44.85446" lon="5.53859">
        <ele>1381</ele>
        <time>2022-08-27T07:23:57Z</time>
      </trkpt>
      <trkpt lat="44.85451" lon="5.5386">
        <ele>1382</ele>
        <time>2022-08-27T07:24:00Z</time>
      </trkpt>
      <trkpt lat="44.85455" lon="5.53859">
        <ele>1382</ele>
        <time>2022-08-27T07:24:05Z</time>
      </trkpt>
      <trkpt lat="44.8546" lon="5.53845">
        <ele>1382</ele>
        <time>2022-08-27T07:24:11Z</time>
      </trkpt>
      <trkpt lat="44.85461" lon="5.53837">
        <ele>1382</ele>
        <time>2022-08-27T07:24:15Z</time>
      </trkpt>
      <trkpt lat="44.8546" lon="5.53829">
        <ele>1382</ele>
        <time>2022-08-27T07:24:19Z</time>
      </trkpt>
      <trkpt lat="44.8546" lon="5.53821">
        <ele>1382</ele>
        <time>2022-08-27T07:24:25Z</time>
      </trkpt>
      <trkpt lat="44.85466" lon="5.53823">
        <ele>1383</ele>
        <time>2022-08-27T07:24:31Z</time>
      </trkpt>
      <trkpt lat="44.85471" lon="5.53824">
        <ele>1383</ele>
        <time>2022-08-27T07:24:36Z</time>
      </trkpt>
      <trkpt lat="44.85477" lon="5.53827">
        <ele>1382</ele>
        <time>2022-08-27T07:24:41Z</time>
      </trkpt>
      <trkpt lat="44.85483" lon="5.53824">
        <ele>1382</ele>
        <time>2022-08-27T07:24:45Z</time>
      </trkpt>
      <trkpt lat="44.85491" lon="5.53798">
        <ele>1382</ele>
        <time>2022-08-27T07:24:57Z</time>
      </trkpt>
      <trkpt lat="44.85497" lon="5.53795">
        <ele>1383</ele>
        <time>2022-08-27T07:25:05Z</time>
      </trkpt>
      <trkpt lat="44.85499" lon="5.53784">
        <ele>1382</ele>
        <time>2022-08-27T07:25:10Z</time>
      </trkpt>
      <trkpt lat="44.85513" lon="5.53766">
        <ele>1382</ele>
        <time>2022-08-27T07:25:22Z</time>
      </trkpt>
      <trkpt lat="44.85515" lon="5.53758">
        <ele>1382</ele>
        <time>2022-08-27T07:25:29Z</time>
      </trkpt>
      <trkpt lat="44.85518" lon="5.53747">
        <ele>1382</ele>
        <time>2022-08-27T07:25:38Z</time>
      </trkpt>
      <trkpt lat="44.85522" lon="5.53739">
        <ele>1382</ele>
        <time>2022-08-27T07:25:42Z</time>
      </trkpt>
      <trkpt lat="44.85528" lon="5.53735">
        <ele>1382</ele>
        <time>2022-08-27T07:25:46Z</time>
      </trkpt>
      <trkpt lat="44.85532" lon="5.53735">
        <ele>1382</ele>
        <time>2022-08-27T07:25:49Z</time>
      </trkpt>
      <trkpt lat="44.85535" lon="5.53723">
        <ele>1382</ele>
        <time>2022-08-27T07:25:57Z</time>
      </trkpt>
      <trkpt lat="44.85538" lon="5.53705">
        <ele>1383</ele>
        <time>2022-08-27T07:26:07Z</time>
      </trkpt>
      <trkpt lat="44.85542" lon="5.53699">
        <ele>1383</ele>
        <time>2022-08-27T07:26:13Z</time>
      </trkpt>
      <trkpt lat="44.85548" lon="5.53696">
        <ele>1383</ele>
        <time>2022-08-27T07:26:17Z</time>
      </trkpt>
      <trkpt lat="44.85551" lon="5.53686">
        <ele>1384</ele>
        <time>2022-08-27T07:26:29Z</time>
      </trkpt>
      <trkpt lat="44.85559" lon="5.53672">
        <ele>1386</ele>
        <time>2022-08-27T07:26:40Z</time>
      </trkpt>
      <trkpt lat="44.85559" lon="5.53664">
        <ele>1386</ele>
        <time>2022-08-27T07:26:45Z</time>
      </trkpt>
      <trkpt lat="44.85565" lon="5.53661">
        <ele>1387</ele>
        <time>2022-08-27T07:26:49Z</time>
      </trkpt>
      <trkpt lat="44.85565" lon="5.5365">
        <ele>1387</ele>
        <time>2022-08-27T07:26:55Z</time>
      </trkpt>
      <trkpt lat="44.85571" lon="5.53641">
        <ele>1388</ele>
        <time>2022-08-27T07:27:05Z</time>
      </trkpt>
      <trkpt lat="44.85575" lon="5.53638">
        <ele>1388</ele>
        <time>2022-08-27T07:27:10Z</time>
      </trkpt>
      <trkpt lat="44.85578" lon="5.53625">
        <ele>1389</ele>
        <time>2022-08-27T07:27:17Z</time>
      </trkpt>
      <trkpt lat="44.85577" lon="5.53617">
        <ele>1389</ele>
        <time>2022-08-27T07:27:23Z</time>
      </trkpt>
      <trkpt lat="44.85583" lon="5.53614">
        <ele>1390</ele>
        <time>2022-08-27T07:27:27Z</time>
      </trkpt>
      <trkpt lat="44.8559" lon="5.53607">
        <ele>1392</ele>
        <time>2022-08-27T07:27:40Z</time>
      </trkpt>
      <trkpt lat="44.85594" lon="5.53601">
        <ele>1392</ele>
        <time>2022-08-27T07:27:44Z</time>
      </trkpt>
      <trkpt lat="44.85592" lon="5.53593">
        <ele>1392</ele>
        <time>2022-08-27T07:27:49Z</time>
      </trkpt>
      <trkpt lat="44.85597" lon="5.53588">
        <ele>1392</ele>
        <time>2022-08-27T07:27:53Z</time>
      </trkpt>
      <trkpt lat="44.85605" lon="5.53579">
        <ele>1394</ele>
        <time>2022-08-27T07:28:05Z</time>
      </trkpt>
      <trkpt lat="44.8561" lon="5.53576">
        <ele>1394</ele>
        <time>2022-08-27T07:28:10Z</time>
      </trkpt>
      <trkpt lat="44.85612" lon="5.53564">
        <ele>1394</ele>
        <time>2022-08-27T07:28:14Z</time>
      </trkpt>
      <trkpt lat="44.85617" lon="5.53557">
        <ele>1395</ele>
        <time>2022-08-27T07:28:18Z</time>
      </trkpt>
      <trkpt lat="44.85618" lon="5.53548">
        <ele>1395</ele>
        <time>2022-08-27T07:28:22Z</time>
      </trkpt>
      <trkpt lat="44.85622" lon="5.53537">
        <ele>1395</ele>
        <time>2022-08-27T07:28:27Z</time>
      </trkpt>
      <trkpt lat="44.85621" lon="5.5353">
        <ele>1396</ele>
        <time>2022-08-27T07:28:32Z</time>
      </trkpt>
      <trkpt lat="44.85629" lon="5.5352">
        <ele>1397</ele>
        <time>2022-08-27T07:28:45Z</time>
      </trkpt>
      <trkpt lat="44.85627" lon="5.53512">
        <ele>1397</ele>
        <time>2022-08-27T07:28:51Z</time>
      </trkpt>
      <trkpt lat="44.85637" lon="5.53493">
        <ele>1399</ele>
        <time>2022-08-27T07:29:04Z</time>
      </trkpt>
      <trkpt lat="44.85636" lon="5.53484">
        <ele>1399</ele>
        <time>2022-08-27T07:29:09Z</time>
      </trkpt>
      <trkpt lat="44.85639" lon="5.53477">
        <ele>1400</ele>
        <time>2022-08-27T07:29:15Z</time>
      </trkpt>
      <trkpt lat="44.85638" lon="5.53466">
        <ele>1400</ele>
        <time>2022-08-27T07:29:21Z</time>
      </trkpt>
      <trkpt lat="44.85639" lon="5.53457">
        <ele>1401</ele>
        <time>2022-08-27T07:29:27Z</time>
      </trkpt>
      <trkpt lat="44.85642" lon="5.5345">
        <ele>1401</ele>
        <time>2022-08-27T07:29:31Z</time>
      </trkpt>
      <trkpt lat="44.85642" lon="5.53433">
        <ele>1401</ele>
        <time>2022-08-27T07:29:43Z</time>
      </trkpt>
      <trkpt lat="44.85648" lon="5.53431">
        <ele>1401</ele>
        <time>2022-08-27T07:29:47Z</time>
      </trkpt>
      <trkpt lat="44.8565" lon="5.53415">
        <ele>1399</ele>
        <time>2022-08-27T07:30:00Z</time>
      </trkpt>
      <trkpt lat="44.85656" lon="5.5342">
        <ele>1401</ele>
        <time>2022-08-27T07:30:26Z</time>
      </trkpt>
      <trkpt lat="44.85659" lon="5.53425">
        <ele>1400</ele>
        <time>2022-08-27T07:30:31Z</time>
      </trkpt>
      <trkpt lat="44.8566" lon="5.53432">
        <ele>1400</ele>
        <time>2022-08-27T07:30:37Z</time>
      </trkpt>
      <trkpt lat="44.85662" lon="5.5344">
        <ele>1401</ele>
        <time>2022-08-27T07:30:43Z</time>
      </trkpt>
      <trkpt lat="44.85667" lon="5.53442">
        <ele>1401</ele>
        <time>2022-08-27T07:30:48Z</time>
      </trkpt>
      <trkpt lat="44.85673" lon="5.53441">
        <ele>1401</ele>
        <time>2022-08-27T07:30:51Z</time>
      </trkpt>
      <trkpt lat="44.85679" lon="5.53453">
        <ele>1401</ele>
        <time>2022-08-27T07:30:59Z</time>
      </trkpt>
      <trkpt lat="44.85684" lon="5.53456">
        <ele>1401</ele>
        <time>2022-08-27T07:31:03Z</time>
      </trkpt>
      <trkpt lat="44.85691" lon="5.5347">
        <ele>1402</ele>
        <time>2022-08-27T07:31:16Z</time>
      </trkpt>
      <trkpt lat="44.85694" lon="5.53475">
        <ele>1403</ele>
        <time>2022-08-27T07:31:21Z</time>
      </trkpt>
      <trkpt lat="44.85699" lon="5.53486">
        <ele>1403</ele>
        <time>2022-08-27T07:31:29Z</time>
      </trkpt>
      <trkpt lat="44.85701" lon="5.53494">
        <ele>1403</ele>
        <time>2022-08-27T07:31:33Z</time>
      </trkpt>
      <trkpt lat="44.85701" lon="5.53501">
        <ele>1403</ele>
        <time>2022-08-27T07:31:37Z</time>
      </trkpt>
      <trkpt lat="44.85704" lon="5.53506">
        <ele>1403</ele>
        <time>2022-08-27T07:31:40Z</time>
      </trkpt>
      <trkpt lat="44.85709" lon="5.53508">
        <ele>1404</ele>
        <time>2022-08-27T07:31:44Z</time>
      </trkpt>
      <trkpt lat="44.85708" lon="5.53517">
        <ele>1404</ele>
        <time>2022-08-27T07:31:48Z</time>
      </trkpt>
      <trkpt lat="44.8571" lon="5.53522">
        <ele>1404</ele>
        <time>2022-08-27T07:31:52Z</time>
      </trkpt>
      <trkpt lat="44.85712" lon="5.53528">
        <ele>1404</ele>
        <time>2022-08-27T07:31:57Z</time>
      </trkpt>
      <trkpt lat="44.85712" lon="5.53538">
        <ele>1404</ele>
        <time>2022-08-27T07:32:04Z</time>
      </trkpt>
      <trkpt lat="44.85713" lon="5.53543">
        <ele>1404</ele>
        <time>2022-08-27T07:32:08Z</time>
      </trkpt>
      <trkpt lat="44.85712" lon="5.53556">
        <ele>1404</ele>
        <time>2022-08-27T07:32:15Z</time>
      </trkpt>
      <trkpt lat="44.85716" lon="5.53582">
        <ele>1404</ele>
        <time>2022-08-27T07:32:33Z</time>
      </trkpt>
      <trkpt lat="44.85724" lon="5.53597">
        <ele>1403</ele>
        <time>2022-08-27T07:32:43Z</time>
      </trkpt>
      <trkpt lat="44.85726" lon="5.53605">
        <ele>1403</ele>
        <time>2022-08-27T07:32:48Z</time>
      </trkpt>
      <trkpt lat="44.85747" lon="5.53628">
        <ele>1402</ele>
        <time>2022-08-27T07:33:07Z</time>
      </trkpt>
      <trkpt lat="44.85749" lon="5.53634">
        <ele>1402</ele>
        <time>2022-08-27T07:33:10Z</time>
      </trkpt>
      <trkpt lat="44.85756" lon="5.5364">
        <ele>1402</ele>
        <time>2022-08-27T07:33:17Z</time>
      </trkpt>
      <trkpt lat="44.8576" lon="5.53646">
        <ele>1402</ele>
        <time>2022-08-27T07:33:22Z</time>
      </trkpt>
      <trkpt lat="44.85761" lon="5.53654">
        <ele>1402</ele>
        <time>2022-08-27T07:33:26Z</time>
      </trkpt>
      <trkpt lat="44.85767" lon="5.53656">
        <ele>1402</ele>
        <time>2022-08-27T07:33:35Z</time>
      </trkpt>
      <trkpt lat="44.8577" lon="5.53653">
        <ele>1402</ele>
        <time>2022-08-27T07:33:38Z</time>
      </trkpt>
      <trkpt lat="44.85774" lon="5.53655">
        <ele>1402</ele>
        <time>2022-08-27T07:33:51Z</time>
      </trkpt>
      <trkpt lat="44.85771" lon="5.53652">
        <ele>1402</ele>
        <time>2022-08-27T07:34:42Z</time>
      </trkpt>
      <trkpt lat="44.85772" lon="5.53642">
        <ele>1404</ele>
        <time>2022-08-27T07:34:53Z</time>
      </trkpt>
      <trkpt lat="44.85773" lon="5.53635">
        <ele>1404</ele>
        <time>2022-08-27T07:34:58Z</time>
      </trkpt>
      <trkpt lat="44.85774" lon="5.53626">
        <ele>1406</ele>
        <time>2022-08-27T07:35:06Z</time>
      </trkpt>
      <trkpt lat="44.85775" lon="5.5362">
        <ele>1406</ele>
        <time>2022-08-27T07:35:11Z</time>
      </trkpt>
      <trkpt lat="44.85779" lon="5.53616">
        <ele>1407</ele>
        <time>2022-08-27T07:35:15Z</time>
      </trkpt>
      <trkpt lat="44.85779" lon="5.53608">
        <ele>1408</ele>
        <time>2022-08-27T07:35:23Z</time>
      </trkpt>
      <trkpt lat="44.85777" lon="5.53594">
        <ele>1410</ele>
        <time>2022-08-27T07:35:35Z</time>
      </trkpt>
      <trkpt lat="44.85782" lon="5.53569">
        <ele>1415</ele>
        <time>2022-08-27T07:36:00Z</time>
      </trkpt>
      <trkpt lat="44.85781" lon="5.53559">
        <ele>1416</ele>
        <time>2022-08-27T07:36:10Z</time>
      </trkpt>
      <trkpt lat="44.85776" lon="5.53538">
        <ele>1420</ele>
        <time>2022-08-27T07:36:32Z</time>
      </trkpt>
      <trkpt lat="44.85774" lon="5.5353">
        <ele>1423</ele>
        <time>2022-08-27T07:36:44Z</time>
      </trkpt>
      <trkpt lat="44.8577" lon="5.53523">
        <ele>1424</ele>
        <time>2022-08-27T07:36:52Z</time>
      </trkpt>
      <trkpt lat="44.85771" lon="5.53516">
        <ele>1426</ele>
        <time>2022-08-27T07:37:04Z</time>
      </trkpt>
      <trkpt lat="44.85768" lon="5.5351">
        <ele>1427</ele>
        <time>2022-08-27T07:37:09Z</time>
      </trkpt>
      <trkpt lat="44.85767" lon="5.53499">
        <ele>1429</ele>
        <time>2022-08-27T07:37:18Z</time>
      </trkpt>
      <trkpt lat="44.85765" lon="5.53494">
        <ele>1430</ele>
        <time>2022-08-27T07:37:23Z</time>
      </trkpt>
      <trkpt lat="44.85768" lon="5.53489">
        <ele>1431</ele>
        <time>2022-08-27T07:37:29Z</time>
      </trkpt>
      <trkpt lat="44.85765" lon="5.5348">
        <ele>1432</ele>
        <time>2022-08-27T07:37:39Z</time>
      </trkpt>
      <trkpt lat="44.85764" lon="5.53474">
        <ele>1433</ele>
        <time>2022-08-27T07:37:45Z</time>
      </trkpt>
      <trkpt lat="44.85759" lon="5.53469">
        <ele>1433</ele>
        <time>2022-08-27T07:37:49Z</time>
      </trkpt>
      <trkpt lat="44.8576" lon="5.53462">
        <ele>1434</ele>
        <time>2022-08-27T07:37:54Z</time>
      </trkpt>
      <trkpt lat="44.85758" lon="5.53456">
        <ele>1435</ele>
        <time>2022-08-27T07:37:58Z</time>
      </trkpt>
      <trkpt lat="44.85758" lon="5.53449">
        <ele>1435</ele>
        <time>2022-08-27T07:38:05Z</time>
      </trkpt>
      <trkpt lat="44.85753" lon="5.53443">
        <ele>1436</ele>
        <time>2022-08-27T07:38:09Z</time>
      </trkpt>
      <trkpt lat="44.85756" lon="5.53423">
        <ele>1438</ele>
        <time>2022-08-27T07:38:27Z</time>
      </trkpt>
      <trkpt lat="44.85749" lon="5.53415">
        <ele>1439</ele>
        <time>2022-08-27T07:38:34Z</time>
      </trkpt>
      <trkpt lat="44.8575" lon="5.53407">
        <ele>1441</ele>
        <time>2022-08-27T07:38:42Z</time>
      </trkpt>
      <trkpt lat="44.85747" lon="5.53401">
        <ele>1441</ele>
        <time>2022-08-27T07:38:47Z</time>
      </trkpt>
      <trkpt lat="44.85733" lon="5.5339">
        <ele>1443</ele>
        <time>2022-08-27T07:38:57Z</time>
      </trkpt>
      <trkpt lat="44.85728" lon="5.53384">
        <ele>1444</ele>
        <time>2022-08-27T07:39:01Z</time>
      </trkpt>
      <trkpt lat="44.85724" lon="5.53384">
        <ele>1444</ele>
        <time>2022-08-27T07:39:05Z</time>
      </trkpt>
      <trkpt lat="44.85721" lon="5.5338">
        <ele>1445</ele>
        <time>2022-08-27T07:39:10Z</time>
      </trkpt>
      <trkpt lat="44.85718" lon="5.53374">
        <ele>1445</ele>
        <time>2022-08-27T07:39:15Z</time>
      </trkpt>
      <trkpt lat="44.85714" lon="5.53372">
        <ele>1445</ele>
        <time>2022-08-27T07:39:19Z</time>
      </trkpt>
      <trkpt lat="44.85711" lon="5.53364">
        <ele>1446</ele>
        <time>2022-08-27T07:39:26Z</time>
      </trkpt>
      <trkpt lat="44.85709" lon="5.53354">
        <ele>1448</ele>
        <time>2022-08-27T07:39:38Z</time>
      </trkpt>
      <trkpt lat="44.85697" lon="5.53332">
        <ele>1452</ele>
        <time>2022-08-27T07:39:59Z</time>
      </trkpt>
      <trkpt lat="44.85693" lon="5.53327">
        <ele>1452</ele>
        <time>2022-08-27T07:40:04Z</time>
      </trkpt>
      <trkpt lat="44.85691" lon="5.53322">
        <ele>1452</ele>
        <time>2022-08-27T07:40:07Z</time>
      </trkpt>
      <trkpt lat="44.85691" lon="5.53315">
        <ele>1453</ele>
        <time>2022-08-27T07:40:10Z</time>
      </trkpt>
      <trkpt lat="44.85689" lon="5.53309">
        <ele>1453</ele>
        <time>2022-08-27T07:40:14Z</time>
      </trkpt>
      <trkpt lat="44.85684" lon="5.53307">
        <ele>1453</ele>
        <time>2022-08-27T07:40:17Z</time>
      </trkpt>
      <trkpt lat="44.85673" lon="5.53298">
        <ele>1457</ele>
        <time>2022-08-27T07:40:37Z</time>
      </trkpt>
      <trkpt lat="44.85669" lon="5.53298">
        <ele>1457</ele>
        <time>2022-08-27T07:40:42Z</time>
      </trkpt>
      <trkpt lat="44.85664" lon="5.53286">
        <ele>1460</ele>
        <time>2022-08-27T07:40:55Z</time>
      </trkpt>
      <trkpt lat="44.85653" lon="5.53283">
        <ele>1461</ele>
        <time>2022-08-27T07:41:03Z</time>
      </trkpt>
      <trkpt lat="44.85651" lon="5.53279">
        <ele>1462</ele>
        <time>2022-08-27T07:41:07Z</time>
      </trkpt>
      <trkpt lat="44.85647" lon="5.53276">
        <ele>1464</ele>
        <time>2022-08-27T07:41:19Z</time>
      </trkpt>
      <trkpt lat="44.85644" lon="5.53268">
        <ele>1466</ele>
        <time>2022-08-27T07:41:29Z</time>
      </trkpt>
      <trkpt lat="44.85629" lon="5.53233">
        <ele>1469</ele>
        <time>2022-08-27T07:41:54Z</time>
      </trkpt>
      <trkpt lat="44.8563" lon="5.53216">
        <ele>1471</ele>
        <time>2022-08-27T07:42:11Z</time>
      </trkpt>
      <trkpt lat="44.85634" lon="5.53202">
        <ele>1473</ele>
        <time>2022-08-27T07:42:26Z</time>
      </trkpt>
      <trkpt lat="44.85618" lon="5.53185">
        <ele>1477</ele>
        <time>2022-08-27T07:42:52Z</time>
      </trkpt>
      <trkpt lat="44.85613" lon="5.53163">
        <ele>1480</ele>
        <time>2022-08-27T07:43:13Z</time>
      </trkpt>
      <trkpt lat="44.85608" lon="5.5315">
        <ele>1481</ele>
        <time>2022-08-27T07:43:21Z</time>
      </trkpt>
      <trkpt lat="44.85595" lon="5.53148">
        <ele>1482</ele>
        <time>2022-08-27T07:43:30Z</time>
      </trkpt>
      <trkpt lat="44.85585" lon="5.53148">
        <ele>1483</ele>
        <time>2022-08-27T07:43:38Z</time>
      </trkpt>
      <trkpt lat="44.85592" lon="5.53134">
        <ele>1486</ele>
        <time>2022-08-27T07:43:54Z</time>
      </trkpt>
      <trkpt lat="44.8558" lon="5.5312">
        <ele>1489</ele>
        <time>2022-08-27T07:44:15Z</time>
      </trkpt>
      <trkpt lat="44.85573" lon="5.53112">
        <ele>1491</ele>
        <time>2022-08-27T07:44:34Z</time>
      </trkpt>
      <trkpt lat="44.85562" lon="5.53097">
        <ele>1493</ele>
        <time>2022-08-27T07:44:48Z</time>
      </trkpt>
      <trkpt lat="44.85531" lon="5.53068">
        <ele>1501</ele>
        <time>2022-08-27T07:45:42Z</time>
      </trkpt>
      <trkpt lat="44.85527" lon="5.53052">
        <ele>1505</ele>
        <time>2022-08-27T07:46:09Z</time>
      </trkpt>
      <trkpt lat="44.85517" lon="5.5305">
        <ele>1507</ele>
        <time>2022-08-27T07:46:17Z</time>
      </trkpt>
      <trkpt lat="44.85528" lon="5.5303">
        <ele>1511</ele>
        <time>2022-08-27T07:46:44Z</time>
      </trkpt>
      <trkpt lat="44.85522" lon="5.53013">
        <ele>1513</ele>
        <time>2022-08-27T07:46:56Z</time>
      </trkpt>
      <trkpt lat="44.85528" lon="5.53016">
        <ele>1517</ele>
        <time>2022-08-27T07:47:25Z</time>
      </trkpt>
      <trkpt lat="44.85527" lon="5.53001">
        <ele>1521</ele>
        <time>2022-08-27T07:47:48Z</time>
      </trkpt>
      <trkpt lat="44.8553" lon="5.52991">
        <ele>1522</ele>
        <time>2022-08-27T07:47:56Z</time>
      </trkpt>
      <trkpt lat="44.85533" lon="5.5298">
        <ele>1524</ele>
        <time>2022-08-27T07:48:08Z</time>
      </trkpt>
      <trkpt lat="44.85523" lon="5.52978">
        <ele>1525</ele>
        <time>2022-08-27T07:48:16Z</time>
      </trkpt>
      <trkpt lat="44.85519" lon="5.52967">
        <ele>1526</ele>
        <time>2022-08-27T07:48:29Z</time>
      </trkpt>
      <trkpt lat="44.85511" lon="5.5296">
        <ele>1528</ele>
        <time>2022-08-27T07:48:39Z</time>
      </trkpt>
      <trkpt lat="44.85498" lon="5.52941">
        <ele>1532</ele>
        <time>2022-08-27T07:49:09Z</time>
      </trkpt>
      <trkpt lat="44.8549" lon="5.52937">
        <ele>1534</ele>
        <time>2022-08-27T07:49:20Z</time>
      </trkpt>
      <trkpt lat="44.85494" lon="5.5292">
        <ele>1535</ele>
        <time>2022-08-27T07:49:34Z</time>
      </trkpt>
      <trkpt lat="44.85493" lon="5.52911">
        <ele>1537</ele>
        <time>2022-08-27T07:49:49Z</time>
      </trkpt>
      <trkpt lat="44.85489" lon="5.529">
        <ele>1539</ele>
        <time>2022-08-27T07:50:02Z</time>
      </trkpt>
      <trkpt lat="44.85485" lon="5.52891">
        <ele>1541</ele>
        <time>2022-08-27T07:50:14Z</time>
      </trkpt>
      <trkpt lat="44.85484" lon="5.52879">
        <ele>1543</ele>
        <time>2022-08-27T07:50:30Z</time>
      </trkpt>
      <trkpt lat="44.85481" lon="5.52873">
        <ele>1546</ele>
        <time>2022-08-27T07:50:45Z</time>
      </trkpt>
      <trkpt lat="44.8548" lon="5.52862">
        <ele>1548</ele>
        <time>2022-08-27T07:51:03Z</time>
      </trkpt>
      <trkpt lat="44.85473" lon="5.52857">
        <ele>1550</ele>
        <time>2022-08-27T07:51:14Z</time>
      </trkpt>
      <trkpt lat="44.85469" lon="5.52849">
        <ele>1553</ele>
        <time>2022-08-27T07:51:31Z</time>
      </trkpt>
      <trkpt lat="44.85461" lon="5.52851">
        <ele>1554</ele>
        <time>2022-08-27T07:51:41Z</time>
      </trkpt>
      <trkpt lat="44.85461" lon="5.52844">
        <ele>1555</ele>
        <time>2022-08-27T07:52:04Z</time>
      </trkpt>
      <trkpt lat="44.85467" lon="5.5283">
        <ele>1558</ele>
        <time>2022-08-27T07:52:25Z</time>
      </trkpt>
      <trkpt lat="44.85453" lon="5.52824">
        <ele>1561</ele>
        <time>2022-08-27T07:52:57Z</time>
      </trkpt>
      <trkpt lat="44.85453" lon="5.52815">
        <ele>1563</ele>
        <time>2022-08-27T07:53:09Z</time>
      </trkpt>
      <trkpt lat="44.85444" lon="5.52812">
        <ele>1565</ele>
        <time>2022-08-27T07:53:21Z</time>
      </trkpt>
      <trkpt lat="44.8544" lon="5.52806">
        <ele>1567</ele>
        <time>2022-08-27T07:53:35Z</time>
      </trkpt>
      <trkpt lat="44.85436" lon="5.5279">
        <ele>1573</ele>
        <time>2022-08-27T07:54:07Z</time>
      </trkpt>
      <trkpt lat="44.85432" lon="5.52779">
        <ele>1575</ele>
        <time>2022-08-27T07:54:22Z</time>
      </trkpt>
      <trkpt lat="44.85425" lon="5.52773">
        <ele>1577</ele>
        <time>2022-08-27T07:54:38Z</time>
      </trkpt>
      <trkpt lat="44.85426" lon="5.52762">
        <ele>1580</ele>
        <time>2022-08-27T07:54:57Z</time>
      </trkpt>
      <trkpt lat="44.85411" lon="5.52759">
        <ele>1584</ele>
        <time>2022-08-27T07:55:19Z</time>
      </trkpt>
      <trkpt lat="44.8542" lon="5.52748">
        <ele>1586</ele>
        <time>2022-08-27T07:55:33Z</time>
      </trkpt>
      <trkpt lat="44.85411" lon="5.52747">
        <ele>1586</ele>
        <time>2022-08-27T07:55:39Z</time>
      </trkpt>
      <trkpt lat="44.85404" lon="5.52742">
        <ele>1588</ele>
        <time>2022-08-27T07:55:47Z</time>
      </trkpt>
      <trkpt lat="44.85398" lon="5.52742">
        <ele>1589</ele>
        <time>2022-08-27T07:55:57Z</time>
      </trkpt>
      <trkpt lat="44.85399" lon="5.52731">
        <ele>1593</ele>
        <time>2022-08-27T07:56:22Z</time>
      </trkpt>
      <trkpt lat="44.85392" lon="5.52724">
        <ele>1596</ele>
        <time>2022-08-27T07:56:45Z</time>
      </trkpt>
      <trkpt lat="44.85388" lon="5.52703">
        <ele>1602</ele>
        <time>2022-08-27T07:57:18Z</time>
      </trkpt>
      <trkpt lat="44.8538" lon="5.52705">
        <ele>1603</ele>
        <time>2022-08-27T07:57:23Z</time>
      </trkpt>
      <trkpt lat="44.85386" lon="5.52691">
        <ele>1606</ele>
        <time>2022-08-27T07:57:40Z</time>
      </trkpt>
      <trkpt lat="44.85377" lon="5.52684">
        <ele>1608</ele>
        <time>2022-08-27T07:57:57Z</time>
      </trkpt>
      <trkpt lat="44.85372" lon="5.52678">
        <ele>1611</ele>
        <time>2022-08-27T07:58:14Z</time>
      </trkpt>
      <trkpt lat="44.85367" lon="5.52681">
        <ele>1612</ele>
        <time>2022-08-27T07:58:19Z</time>
      </trkpt>
      <trkpt lat="44.85371" lon="5.52687">
        <ele>1614</ele>
        <time>2022-08-27T07:58:37Z</time>
      </trkpt>
      <trkpt lat="44.85377" lon="5.52678">
        <ele>1615</ele>
        <time>2022-08-27T07:58:49Z</time>
      </trkpt>
      <trkpt lat="44.85375" lon="5.52667">
        <ele>1618</ele>
        <time>2022-08-27T07:59:09Z</time>
      </trkpt>
      <trkpt lat="44.8537" lon="5.52658">
        <ele>1620</ele>
        <time>2022-08-27T07:59:24Z</time>
      </trkpt>
      <trkpt lat="44.85373" lon="5.52648">
        <ele>1623</ele>
        <time>2022-08-27T07:59:40Z</time>
      </trkpt>
      <trkpt lat="44.85364" lon="5.52642">
        <ele>1625</ele>
        <time>2022-08-27T07:59:52Z</time>
      </trkpt>
      <trkpt lat="44.85361" lon="5.5263">
        <ele>1629</ele>
        <time>2022-08-27T08:00:19Z</time>
      </trkpt>
      <trkpt lat="44.85353" lon="5.52619">
        <ele>1631</ele>
        <time>2022-08-27T08:00:34Z</time>
      </trkpt>
      <trkpt lat="44.85344" lon="5.52607">
        <ele>1634</ele>
        <time>2022-08-27T08:00:52Z</time>
      </trkpt>
      <trkpt lat="44.85339" lon="5.52604">
        <ele>1637</ele>
        <time>2022-08-27T08:01:09Z</time>
      </trkpt>
      <trkpt lat="44.8533" lon="5.52606">
        <ele>1637</ele>
        <time>2022-08-27T08:01:15Z</time>
      </trkpt>
      <trkpt lat="44.85321" lon="5.52607">
        <ele>1640</ele>
        <time>2022-08-27T08:01:35Z</time>
      </trkpt>
      <trkpt lat="44.85315" lon="5.52598">
        <ele>1644</ele>
        <time>2022-08-27T08:01:57Z</time>
      </trkpt>
      <trkpt lat="44.85306" lon="5.52601">
        <ele>1644</ele>
        <time>2022-08-27T08:01:59Z</time>
      </trkpt>
      <trkpt lat="44.85303" lon="5.52596">
        <ele>1651</ele>
        <time>2022-08-27T08:02:45Z</time>
      </trkpt>
      <trkpt lat="44.85295" lon="5.52585">
        <ele>1654</ele>
        <time>2022-08-27T08:03:04Z</time>
      </trkpt>
      <trkpt lat="44.85303" lon="5.52579">
        <ele>1655</ele>
        <time>2022-08-27T08:03:16Z</time>
      </trkpt>
      <trkpt lat="44.85293" lon="5.52571">
        <ele>1659</ele>
        <time>2022-08-27T08:03:41Z</time>
      </trkpt>
      <trkpt lat="44.85268" lon="5.52576">
        <ele>1665</ele>
        <time>2022-08-27T08:04:22Z</time>
      </trkpt>
      <trkpt lat="44.85278" lon="5.5257">
        <ele>1666</ele>
        <time>2022-08-27T08:04:29Z</time>
      </trkpt>
      <trkpt lat="44.85273" lon="5.5256">
        <ele>1669</ele>
        <time>2022-08-27T08:04:51Z</time>
      </trkpt>
      <trkpt lat="44.85277" lon="5.52555">
        <ele>1672</ele>
        <time>2022-08-27T08:05:12Z</time>
      </trkpt>
      <trkpt lat="44.85281" lon="5.5255">
        <ele>1673</ele>
        <time>2022-08-27T08:05:23Z</time>
      </trkpt>
      <trkpt lat="44.85284" lon="5.5254">
        <ele>1675</ele>
        <time>2022-08-27T08:05:35Z</time>
      </trkpt>
      <trkpt lat="44.8526" lon="5.5253">
        <ele>1683</ele>
        <time>2022-08-27T08:06:23Z</time>
      </trkpt>
      <trkpt lat="44.85261" lon="5.52529">
        <ele>1685</ele>
        <time>2022-08-27T08:06:43Z</time>
      </trkpt>
      <trkpt lat="44.85258" lon="5.5252">
        <ele>1687</ele>
        <time>2022-08-27T08:07:16Z</time>
      </trkpt>
      <trkpt lat="44.85246" lon="5.52516">
        <ele>1692</ele>
        <time>2022-08-27T08:07:54Z</time>
      </trkpt>
      <trkpt lat="44.85231" lon="5.52509">
        <ele>1696</ele>
        <time>2022-08-27T08:08:21Z</time>
      </trkpt>
      <trkpt lat="44.85233" lon="5.52502">
        <ele>1700</ele>
        <time>2022-08-27T08:08:47Z</time>
      </trkpt>
      <trkpt lat="44.85219" lon="5.52494">
        <ele>1706</ele>
        <time>2022-08-27T08:09:25Z</time>
      </trkpt>
      <trkpt lat="44.85214" lon="5.52485">
        <ele>1709</ele>
        <time>2022-08-27T08:09:46Z</time>
      </trkpt>
      <trkpt lat="44.85212" lon="5.52478">
        <ele>1714</ele>
        <time>2022-08-27T08:10:25Z</time>
      </trkpt>
      <trkpt lat="44.85192" lon="5.52474">
        <ele>1719</ele>
        <time>2022-08-27T08:10:57Z</time>
      </trkpt>
      <trkpt lat="44.85201" lon="5.52472">
        <ele>1723</ele>
        <time>2022-08-27T08:11:21Z</time>
      </trkpt>
      <trkpt lat="44.85201" lon="5.5246">
        <ele>1724</ele>
        <time>2022-08-27T08:11:33Z</time>
      </trkpt>
      <trkpt lat="44.85203" lon="5.52446">
        <ele>1728</ele>
        <time>2022-08-27T08:11:57Z</time>
      </trkpt>
      <trkpt lat="44.85186" lon="5.52451">
        <ele>1730</ele>
        <time>2022-08-27T08:12:08Z</time>
      </trkpt>
      <trkpt lat="44.85178" lon="5.52447">
        <ele>1735</ele>
        <time>2022-08-27T08:12:43Z</time>
      </trkpt>
      <trkpt lat="44.85169" lon="5.52435">
        <ele>1738</ele>
        <time>2022-08-27T08:13:06Z</time>
      </trkpt>
      <trkpt lat="44.85166" lon="5.5242">
        <ele>1744</ele>
        <time>2022-08-27T08:13:43Z</time>
      </trkpt>
      <trkpt lat="44.85145" lon="5.52412">
        <ele>1747</ele>
        <time>2022-08-27T08:14:08Z</time>
      </trkpt>
      <trkpt lat="44.8514" lon="5.52402">
        <ele>1751</ele>
        <time>2022-08-27T08:14:37Z</time>
      </trkpt>
      <trkpt lat="44.85129" lon="5.52404">
        <ele>1753</ele>
        <time>2022-08-27T08:14:55Z</time>
      </trkpt>
      <trkpt lat="44.85124" lon="5.52398">
        <ele>1756</ele>
        <time>2022-08-27T08:15:15Z</time>
      </trkpt>
      <trkpt lat="44.85115" lon="5.524">
        <ele>1756</ele>
        <time>2022-08-27T08:15:22Z</time>
      </trkpt>
      <trkpt lat="44.85106" lon="5.52392">
        <ele>1759</ele>
        <time>2022-08-27T08:15:39Z</time>
      </trkpt>
      <trkpt lat="44.851" lon="5.52386">
        <ele>1761</ele>
        <time>2022-08-27T08:15:55Z</time>
      </trkpt>
      <trkpt lat="44.85086" lon="5.52375">
        <ele>1764</ele>
        <time>2022-08-27T08:16:27Z</time>
      </trkpt>
      <trkpt lat="44.85079" lon="5.52372">
        <ele>1767</ele>
        <time>2022-08-27T08:16:44Z</time>
      </trkpt>
      <trkpt lat="44.85082" lon="5.52362">
        <ele>1769</ele>
        <time>2022-08-27T08:17:04Z</time>
      </trkpt>
      <trkpt lat="44.8508" lon="5.52338">
        <ele>1775</ele>
        <time>2022-08-27T08:17:46Z</time>
      </trkpt>
      <trkpt lat="44.85069" lon="5.52341">
        <ele>1778</ele>
        <time>2022-08-27T08:18:08Z</time>
      </trkpt>
      <trkpt lat="44.85061" lon="5.52333">
        <ele>1782</ele>
        <time>2022-08-27T08:18:40Z</time>
      </trkpt>
      <trkpt lat="44.85059" lon="5.52327">
        <ele>1787</ele>
        <time>2022-08-27T08:19:12Z</time>
      </trkpt>
      <trkpt lat="44.85052" lon="5.52317">
        <ele>1789</ele>
        <time>2022-08-27T08:19:30Z</time>
      </trkpt>
      <trkpt lat="44.85043" lon="5.52321">
        <ele>1790</ele>
        <time>2022-08-27T08:19:34Z</time>
      </trkpt>
      <trkpt lat="44.8504" lon="5.52328">
        <ele>1790</ele>
        <time>2022-08-27T08:19:39Z</time>
      </trkpt>
      <trkpt lat="44.85038" lon="5.52324">
        <ele>1794</ele>
        <time>2022-08-27T08:20:07Z</time>
      </trkpt>
      <trkpt lat="44.85039" lon="5.52316">
        <ele>1796</ele>
        <time>2022-08-27T08:20:22Z</time>
      </trkpt>
      <trkpt lat="44.85031" lon="5.52307">
        <ele>1798</ele>
        <time>2022-08-27T08:20:38Z</time>
      </trkpt>
      <trkpt lat="44.8503" lon="5.52299">
        <ele>1802</ele>
        <time>2022-08-27T08:21:06Z</time>
      </trkpt>
      <trkpt lat="44.85019" lon="5.52301">
        <ele>1804</ele>
        <time>2022-08-27T08:21:25Z</time>
      </trkpt>
      <trkpt lat="44.85009" lon="5.52309">
        <ele>1806</ele>
        <time>2022-08-27T08:21:32Z</time>
      </trkpt>
      <trkpt lat="44.85009" lon="5.52305">
        <ele>1811</ele>
        <time>2022-08-27T08:22:13Z</time>
      </trkpt>
      <trkpt lat="44.85006" lon="5.52298">
        <ele>1812</ele>
        <time>2022-08-27T08:22:22Z</time>
      </trkpt>
      <trkpt lat="44.84999" lon="5.52294">
        <ele>1814</ele>
        <time>2022-08-27T08:22:42Z</time>
      </trkpt>
      <trkpt lat="44.84996" lon="5.52288">
        <ele>1815</ele>
        <time>2022-08-27T08:22:52Z</time>
      </trkpt>
      <trkpt lat="44.84984" lon="5.52282">
        <ele>1817</ele>
        <time>2022-08-27T08:23:08Z</time>
      </trkpt>
      <trkpt lat="44.84978" lon="5.52294">
        <ele>1819</ele>
        <time>2022-08-27T08:23:20Z</time>
      </trkpt>
      <trkpt lat="44.84979" lon="5.52285">
        <ele>1820</ele>
        <time>2022-08-27T08:23:31Z</time>
      </trkpt>
      <trkpt lat="44.84973" lon="5.52283">
        <ele>1824</ele>
        <time>2022-08-27T08:24:04Z</time>
      </trkpt>
      <trkpt lat="44.84969" lon="5.5229">
        <ele>1826</ele>
        <time>2022-08-27T08:24:13Z</time>
      </trkpt>
      <trkpt lat="44.84966" lon="5.523">
        <ele>1828</ele>
        <time>2022-08-27T08:24:26Z</time>
      </trkpt>
      <trkpt lat="44.84964" lon="5.52291">
        <ele>1829</ele>
        <time>2022-08-27T08:24:38Z</time>
      </trkpt>
      <trkpt lat="44.84963" lon="5.52285">
        <ele>1831</ele>
        <time>2022-08-27T08:24:52Z</time>
      </trkpt>
      <trkpt lat="44.84959" lon="5.52279">
        <ele>1833</ele>
        <time>2022-08-27T08:25:07Z</time>
      </trkpt>
      <trkpt lat="44.84953" lon="5.52273">
        <ele>1835</ele>
        <time>2022-08-27T08:25:22Z</time>
      </trkpt>
      <trkpt lat="44.8495" lon="5.52265">
        <ele>1836</ele>
        <time>2022-08-27T08:25:32Z</time>
      </trkpt>
      <trkpt lat="44.84945" lon="5.5226">
        <ele>1838</ele>
        <time>2022-08-27T08:25:42Z</time>
      </trkpt>
      <trkpt lat="44.84941" lon="5.52263">
        <ele>1840</ele>
        <time>2022-08-27T08:25:57Z</time>
      </trkpt>
      <trkpt lat="44.84936" lon="5.52265">
        <ele>1839</ele>
        <time>2022-08-27T08:26:12Z</time>
      </trkpt>
      <trkpt lat="44.84932" lon="5.52261">
        <ele>1838</ele>
        <time>2022-08-27T08:26:17Z</time>
      </trkpt>
      <trkpt lat="44.84928" lon="5.52253">
        <ele>1838</ele>
        <time>2022-08-27T08:26:25Z</time>
      </trkpt>
      <trkpt lat="44.84925" lon="5.52236">
        <ele>1843</ele>
        <time>2022-08-27T08:26:50Z</time>
      </trkpt>
      <trkpt lat="44.84921" lon="5.52225">
        <ele>1845</ele>
        <time>2022-08-27T08:27:02Z</time>
      </trkpt>
      <trkpt lat="44.84916" lon="5.5222">
        <ele>1846</ele>
        <time>2022-08-27T08:27:09Z</time>
      </trkpt>
      <trkpt lat="44.84912" lon="5.52211">
        <ele>1846</ele>
        <time>2022-08-27T08:27:18Z</time>
      </trkpt>
      <trkpt lat="44.84902" lon="5.5221">
        <ele>1848</ele>
        <time>2022-08-27T08:27:30Z</time>
      </trkpt>
      <trkpt lat="44.84897" lon="5.52208">
        <ele>1848</ele>
        <time>2022-08-27T08:27:35Z</time>
      </trkpt>
      <trkpt lat="44.84894" lon="5.52202">
        <ele>1848</ele>
        <time>2022-08-27T08:27:40Z</time>
      </trkpt>
      <trkpt lat="44.84886" lon="5.52189">
        <ele>1850</ele>
        <time>2022-08-27T08:27:54Z</time>
      </trkpt>
      <trkpt lat="44.84882" lon="5.52179">
        <ele>1851</ele>
        <time>2022-08-27T08:28:03Z</time>
      </trkpt>
      <trkpt lat="44.84876" lon="5.52173">
        <ele>1852</ele>
        <time>2022-08-27T08:28:13Z</time>
      </trkpt>
      <trkpt lat="44.8487" lon="5.52172">
        <ele>1853</ele>
        <time>2022-08-27T08:28:18Z</time>
      </trkpt>
      <trkpt lat="44.84859" lon="5.52156">
        <ele>1855</ele>
        <time>2022-08-27T08:28:36Z</time>
      </trkpt>
      <trkpt lat="44.84844" lon="5.52147">
        <ele>1857</ele>
        <time>2022-08-27T08:28:53Z</time>
      </trkpt>
      <trkpt lat="44.84837" lon="5.52135">
        <ele>1858</ele>
        <time>2022-08-27T08:29:03Z</time>
      </trkpt>
      <trkpt lat="44.84833" lon="5.52121">
        <ele>1859</ele>
        <time>2022-08-27T08:29:13Z</time>
      </trkpt>
      <trkpt lat="44.84826" lon="5.52112">
        <ele>1860</ele>
        <time>2022-08-27T08:29:23Z</time>
      </trkpt>
      <trkpt lat="44.84824" lon="5.52104">
        <ele>1861</ele>
        <time>2022-08-27T08:29:28Z</time>
      </trkpt>
      <trkpt lat="44.84818" lon="5.52093">
        <ele>1862</ele>
        <time>2022-08-27T08:29:42Z</time>
      </trkpt>
      <trkpt lat="44.84814" lon="5.52087">
        <ele>1864</ele>
        <time>2022-08-27T08:29:50Z</time>
      </trkpt>
      <trkpt lat="44.84805" lon="5.5208">
        <ele>1865</ele>
        <time>2022-08-27T08:30:01Z</time>
      </trkpt>
      <trkpt lat="44.84805" lon="5.5207">
        <ele>1865</ele>
        <time>2022-08-27T08:30:08Z</time>
      </trkpt>
      <trkpt lat="44.84799" lon="5.52067">
        <ele>1866</ele>
        <time>2022-08-27T08:30:14Z</time>
      </trkpt>
      <trkpt lat="44.84794" lon="5.52066">
        <ele>1867</ele>
        <time>2022-08-27T08:30:19Z</time>
      </trkpt>
      <trkpt lat="44.84777" lon="5.52054">
        <ele>1869</ele>
        <time>2022-08-27T08:30:39Z</time>
      </trkpt>
      <trkpt lat="44.84777" lon="5.52043">
        <ele>1869</ele>
        <time>2022-08-27T08:30:45Z</time>
      </trkpt>
      <trkpt lat="44.84769" lon="5.52039">
        <ele>1870</ele>
        <time>2022-08-27T08:30:55Z</time>
      </trkpt>
      <trkpt lat="44.84764" lon="5.52032">
        <ele>1871</ele>
        <time>2022-08-27T08:31:00Z</time>
      </trkpt>
      <trkpt lat="44.84759" lon="5.52022">
        <ele>1872</ele>
        <time>2022-08-27T08:31:12Z</time>
      </trkpt>
      <trkpt lat="44.84754" lon="5.52019">
        <ele>1873</ele>
        <time>2022-08-27T08:31:18Z</time>
      </trkpt>
      <trkpt lat="44.84747" lon="5.52004">
        <ele>1874</ele>
        <time>2022-08-27T08:31:30Z</time>
      </trkpt>
      <trkpt lat="44.84736" lon="5.51986">
        <ele>1877</ele>
        <time>2022-08-27T08:31:51Z</time>
      </trkpt>
      <trkpt lat="44.84731" lon="5.51984">
        <ele>1878</ele>
        <time>2022-08-27T08:31:56Z</time>
      </trkpt>
      <trkpt lat="44.84729" lon="5.51975">
        <ele>1879</ele>
        <time>2022-08-27T08:32:04Z</time>
      </trkpt>
      <trkpt lat="44.84725" lon="5.51971">
        <ele>1880</ele>
        <time>2022-08-27T08:32:11Z</time>
      </trkpt>
      <trkpt lat="44.84723" lon="5.51962">
        <ele>1882</ele>
        <time>2022-08-27T08:32:21Z</time>
      </trkpt>
      <trkpt lat="44.84708" lon="5.51944">
        <ele>1885</ele>
        <time>2022-08-27T08:32:43Z</time>
      </trkpt>
      <trkpt lat="44.84704" lon="5.51939">
        <ele>1885</ele>
        <time>2022-08-27T08:32:47Z</time>
      </trkpt>
      <trkpt lat="44.84702" lon="5.51933">
        <ele>1885</ele>
        <time>2022-08-27T08:32:51Z</time>
      </trkpt>
      <trkpt lat="44.84687" lon="5.51924">
        <ele>1886</ele>
        <time>2022-08-27T08:33:07Z</time>
      </trkpt>
      <trkpt lat="44.84684" lon="5.51918">
        <ele>1886</ele>
        <time>2022-08-27T08:33:11Z</time>
      </trkpt>
      <trkpt lat="44.84676" lon="5.51913">
        <ele>1887</ele>
        <time>2022-08-27T08:33:19Z</time>
      </trkpt>
      <trkpt lat="44.84671" lon="5.51911">
        <ele>1888</ele>
        <time>2022-08-27T08:33:25Z</time>
      </trkpt>
      <trkpt lat="44.8466" lon="5.51895">
        <ele>1890</ele>
        <time>2022-08-27T08:33:43Z</time>
      </trkpt>
      <trkpt lat="44.84656" lon="5.51887">
        <ele>1891</ele>
        <time>2022-08-27T08:33:50Z</time>
      </trkpt>
      <trkpt lat="44.84649" lon="5.51882">
        <ele>1892</ele>
        <time>2022-08-27T08:33:58Z</time>
      </trkpt>
      <trkpt lat="44.84644" lon="5.5188">
        <ele>1892</ele>
        <time>2022-08-27T08:34:02Z</time>
      </trkpt>
      <trkpt lat="44.8464" lon="5.51875">
        <ele>1892</ele>
        <time>2022-08-27T08:34:09Z</time>
      </trkpt>
      <trkpt lat="44.84639" lon="5.51867">
        <ele>1893</ele>
        <time>2022-08-27T08:34:16Z</time>
      </trkpt>
      <trkpt lat="44.8464" lon="5.51856">
        <ele>1894</ele>
        <time>2022-08-27T08:34:26Z</time>
      </trkpt>
      <trkpt lat="44.84639" lon="5.5185">
        <ele>1895</ele>
        <time>2022-08-27T08:34:31Z</time>
      </trkpt>
      <trkpt lat="44.84637" lon="5.51843">
        <ele>1896</ele>
        <time>2022-08-27T08:34:39Z</time>
      </trkpt>
      <trkpt lat="44.84634" lon="5.51838">
        <ele>1897</ele>
        <time>2022-08-27T08:34:45Z</time>
      </trkpt>
      <trkpt lat="44.84622" lon="5.51827">
        <ele>1901</ele>
        <time>2022-08-27T08:38:43Z</time>
      </trkpt>
      <trkpt lat="44.84606" lon="5.5181">
        <ele>1904</ele>
        <time>2022-08-27T08:39:06Z</time>
      </trkpt>
      <trkpt lat="44.84606" lon="5.51803">
        <ele>1903</ele>
        <time>2022-08-27T08:39:10Z</time>
      </trkpt>
      <trkpt lat="44.84607" lon="5.51794">
        <ele>1905</ele>
        <time>2022-08-27T08:39:19Z</time>
      </trkpt>
      <trkpt lat="44.84612" lon="5.51798">
        <ele>1905</ele>
        <time>2022-08-27T08:39:23Z</time>
      </trkpt>
      <trkpt lat="44.84616" lon="5.51799">
        <ele>1905</ele>
        <time>2022-08-27T08:39:28Z</time>
      </trkpt>
      <trkpt lat="44.84629" lon="5.51805">
        <ele>1908</ele>
        <time>2022-08-27T08:39:42Z</time>
      </trkpt>
      <trkpt lat="44.84633" lon="5.51811">
        <ele>1909</ele>
        <time>2022-08-27T08:39:48Z</time>
      </trkpt>
      <trkpt lat="44.84637" lon="5.51812">
        <ele>1909</ele>
        <time>2022-08-27T08:39:52Z</time>
      </trkpt>
      <trkpt lat="44.84643" lon="5.51817">
        <ele>1910</ele>
        <time>2022-08-27T08:40:00Z</time>
      </trkpt>
      <trkpt lat="44.84651" lon="5.51819">
        <ele>1912</ele>
        <time>2022-08-27T08:40:10Z</time>
      </trkpt>
      <trkpt lat="44.84654" lon="5.51823">
        <ele>1912</ele>
        <time>2022-08-27T08:40:14Z</time>
      </trkpt>
      <trkpt lat="44.84662" lon="5.51826">
        <ele>1913</ele>
        <time>2022-08-27T08:40:25Z</time>
      </trkpt>
      <trkpt lat="44.84673" lon="5.51825">
        <ele>1914</ele>
        <time>2022-08-27T08:40:36Z</time>
      </trkpt>
      <trkpt lat="44.84677" lon="5.51825">
        <ele>1914</ele>
        <time>2022-08-27T08:40:41Z</time>
      </trkpt>
      <trkpt lat="44.84681" lon="5.51828">
        <ele>1915</ele>
        <time>2022-08-27T08:40:45Z</time>
      </trkpt>
      <trkpt lat="44.84685" lon="5.5183">
        <ele>1915</ele>
        <time>2022-08-27T08:40:49Z</time>
      </trkpt>
      <trkpt lat="44.84689" lon="5.51831">
        <ele>1916</ele>
        <time>2022-08-27T08:40:53Z</time>
      </trkpt>
      <trkpt lat="44.84694" lon="5.51833">
        <ele>1916</ele>
        <time>2022-08-27T08:40:57Z</time>
      </trkpt>
      <trkpt lat="44.84698" lon="5.51837">
        <ele>1916</ele>
        <time>2022-08-27T08:41:01Z</time>
      </trkpt>
      <trkpt lat="44.84703" lon="5.51835">
        <ele>1917</ele>
        <time>2022-08-27T08:41:05Z</time>
      </trkpt>
      <trkpt lat="44.84707" lon="5.51832">
        <ele>1917</ele>
        <time>2022-08-27T08:41:10Z</time>
      </trkpt>
      <trkpt lat="44.84712" lon="5.51832">
        <ele>1917</ele>
        <time>2022-08-27T08:41:15Z</time>
      </trkpt>
      <trkpt lat="44.84715" lon="5.51835">
        <ele>1918</ele>
        <time>2022-08-27T08:41:19Z</time>
      </trkpt>
      <trkpt lat="44.8472" lon="5.51839">
        <ele>1919</ele>
        <time>2022-08-27T08:41:23Z</time>
      </trkpt>
      <trkpt lat="44.84724" lon="5.5184">
        <ele>1919</ele>
        <time>2022-08-27T08:41:28Z</time>
      </trkpt>
      <trkpt lat="44.84742" lon="5.51852">
        <ele>1920</ele>
        <time>2022-08-27T08:41:48Z</time>
      </trkpt>
      <trkpt lat="44.84767" lon="5.51874">
        <ele>1925</ele>
        <time>2022-08-27T08:42:19Z</time>
      </trkpt>
      <trkpt lat="44.84773" lon="5.51881">
        <ele>1925</ele>
        <time>2022-08-27T08:42:26Z</time>
      </trkpt>
      <trkpt lat="44.84776" lon="5.51885">
        <ele>1925</ele>
        <time>2022-08-27T08:42:30Z</time>
      </trkpt>
      <trkpt lat="44.84787" lon="5.51898">
        <ele>1925</ele>
        <time>2022-08-27T08:42:42Z</time>
      </trkpt>
      <trkpt lat="44.84792" lon="5.51902">
        <ele>1925</ele>
        <time>2022-08-27T08:42:46Z</time>
      </trkpt>
      <trkpt lat="44.848" lon="5.51913">
        <ele>1926</ele>
        <time>2022-08-27T08:42:57Z</time>
      </trkpt>
      <trkpt lat="44.84804" lon="5.51916">
        <ele>1926</ele>
        <time>2022-08-27T08:43:02Z</time>
      </trkpt>
      <trkpt lat="44.84809" lon="5.51916">
        <ele>1927</ele>
        <time>2022-08-27T08:43:07Z</time>
      </trkpt>
      <trkpt lat="44.84812" lon="5.51921">
        <ele>1927</ele>
        <time>2022-08-27T08:43:11Z</time>
      </trkpt>
      <trkpt lat="44.84815" lon="5.51924">
        <ele>1928</ele>
        <time>2022-08-27T08:43:15Z</time>
      </trkpt>
      <trkpt lat="44.8482" lon="5.51928">
        <ele>1928</ele>
        <time>2022-08-27T08:43:20Z</time>
      </trkpt>
      <trkpt lat="44.84828" lon="5.51931">
        <ele>1929</ele>
        <time>2022-08-27T08:44:16Z</time>
      </trkpt>
      <trkpt lat="44.84858" lon="5.51964">
        <ele>1931</ele>
        <time>2022-08-27T08:44:49Z</time>
      </trkpt>
      <trkpt lat="44.84861" lon="5.51968">
        <ele>1932</ele>
        <time>2022-08-27T08:44:53Z</time>
      </trkpt>
      <trkpt lat="44.84875" lon="5.51981">
        <ele>1932</ele>
        <time>2022-08-27T08:45:07Z</time>
      </trkpt>
      <trkpt lat="44.84879" lon="5.51985">
        <ele>1933</ele>
        <time>2022-08-27T08:45:11Z</time>
      </trkpt>
      <trkpt lat="44.84892" lon="5.51997">
        <ele>1931</ele>
        <time>2022-08-27T08:45:23Z</time>
      </trkpt>
      <trkpt lat="44.84903" lon="5.52009">
        <ele>1932</ele>
        <time>2022-08-27T08:45:35Z</time>
      </trkpt>
      <trkpt lat="44.84908" lon="5.52012">
        <ele>1932</ele>
        <time>2022-08-27T08:45:39Z</time>
      </trkpt>
      <trkpt lat="44.84914" lon="5.52013">
        <ele>1932</ele>
        <time>2022-08-27T08:45:43Z</time>
      </trkpt>
      <trkpt lat="44.84917" lon="5.52016">
        <ele>1932</ele>
        <time>2022-08-27T08:45:47Z</time>
      </trkpt>
      <trkpt lat="44.84921" lon="5.52021">
        <ele>1932</ele>
        <time>2022-08-27T08:45:51Z</time>
      </trkpt>
      <trkpt lat="44.8493" lon="5.52027">
        <ele>1933</ele>
        <time>2022-08-27T08:45:59Z</time>
      </trkpt>
      <trkpt lat="44.84944" lon="5.52034">
        <ele>1934</ele>
        <time>2022-08-27T08:46:11Z</time>
      </trkpt>
      <trkpt lat="44.84949" lon="5.52037">
        <ele>1934</ele>
        <time>2022-08-27T08:46:15Z</time>
      </trkpt>
      <trkpt lat="44.84953" lon="5.52038">
        <ele>1934</ele>
        <time>2022-08-27T08:46:19Z</time>
      </trkpt>
      <trkpt lat="44.84958" lon="5.52043">
        <ele>1934</ele>
        <time>2022-08-27T08:46:24Z</time>
      </trkpt>
      <trkpt lat="44.84965" lon="5.52051">
        <ele>1933</ele>
        <time>2022-08-27T08:46:31Z</time>
      </trkpt>
      <trkpt lat="44.84969" lon="5.52055">
        <ele>1933</ele>
        <time>2022-08-27T08:46:35Z</time>
      </trkpt>
      <trkpt lat="44.84983" lon="5.52066">
        <ele>1933</ele>
        <time>2022-08-27T08:46:47Z</time>
      </trkpt>
      <trkpt lat="44.84992" lon="5.52071">
        <ele>1931</ele>
        <time>2022-08-27T08:46:55Z</time>
      </trkpt>
      <trkpt lat="44.84997" lon="5.52077">
        <ele>1931</ele>
        <time>2022-08-27T08:47:00Z</time>
      </trkpt>
      <trkpt lat="44.85001" lon="5.52079">
        <ele>1931</ele>
        <time>2022-08-27T08:47:04Z</time>
      </trkpt>
      <trkpt lat="44.8501" lon="5.52087">
        <ele>1931</ele>
        <time>2022-08-27T08:47:13Z</time>
      </trkpt>
      <trkpt lat="44.85014" lon="5.52089">
        <ele>1931</ele>
        <time>2022-08-27T08:47:17Z</time>
      </trkpt>
      <trkpt lat="44.85018" lon="5.52092">
        <ele>1930</ele>
        <time>2022-08-27T08:47:21Z</time>
      </trkpt>
      <trkpt lat="44.85029" lon="5.52092">
        <ele>1928</ele>
        <time>2022-08-27T08:47:30Z</time>
      </trkpt>
      <trkpt lat="44.85033" lon="5.52091">
        <ele>1927</ele>
        <time>2022-08-27T08:47:33Z</time>
      </trkpt>
      <trkpt lat="44.85037" lon="5.52089">
        <ele>1927</ele>
        <time>2022-08-27T08:47:36Z</time>
      </trkpt>
      <trkpt lat="44.85043" lon="5.52088">
        <ele>1927</ele>
        <time>2022-08-27T08:47:40Z</time>
      </trkpt>
      <trkpt lat="44.85053" lon="5.52088">
        <ele>1927</ele>
        <time>2022-08-27T08:47:48Z</time>
      </trkpt>
      <trkpt lat="44.85058" lon="5.52089">
        <ele>1927</ele>
        <time>2022-08-27T08:47:52Z</time>
      </trkpt>
      <trkpt lat="44.85063" lon="5.52088">
        <ele>1927</ele>
        <time>2022-08-27T08:47:59Z</time>
      </trkpt>
      <trkpt lat="44.85075" lon="5.52097">
        <ele>1925</ele>
        <time>2022-08-27T08:48:12Z</time>
      </trkpt>
      <trkpt lat="44.85081" lon="5.52097">
        <ele>1924</ele>
        <time>2022-08-27T08:48:18Z</time>
      </trkpt>
      <trkpt lat="44.85085" lon="5.521">
        <ele>1924</ele>
        <time>2022-08-27T08:48:21Z</time>
      </trkpt>
      <trkpt lat="44.85095" lon="5.52099">
        <ele>1923</ele>
        <time>2022-08-27T08:48:28Z</time>
      </trkpt>
      <trkpt lat="44.85104" lon="5.52096">
        <ele>1922</ele>
        <time>2022-08-27T08:48:36Z</time>
      </trkpt>
      <trkpt lat="44.85114" lon="5.52094">
        <ele>1921</ele>
        <time>2022-08-27T08:48:44Z</time>
      </trkpt>
      <trkpt lat="44.85121" lon="5.52096">
        <ele>1921</ele>
        <time>2022-08-27T08:48:56Z</time>
      </trkpt>
      <trkpt lat="44.85125" lon="5.52099">
        <ele>1921</ele>
        <time>2022-08-27T08:49:00Z</time>
      </trkpt>
      <trkpt lat="44.85128" lon="5.52104">
        <ele>1921</ele>
        <time>2022-08-27T08:49:04Z</time>
      </trkpt>
      <trkpt lat="44.85135" lon="5.52108">
        <ele>1921</ele>
        <time>2022-08-27T08:49:11Z</time>
      </trkpt>
      <trkpt lat="44.85141" lon="5.52108">
        <ele>1921</ele>
        <time>2022-08-27T08:49:16Z</time>
      </trkpt>
      <trkpt lat="44.85159" lon="5.52115">
        <ele>1919</ele>
        <time>2022-08-27T08:49:31Z</time>
      </trkpt>
      <trkpt lat="44.85174" lon="5.52111">
        <ele>1914</ele>
        <time>2022-08-27T08:49:48Z</time>
      </trkpt>
      <trkpt lat="44.85213" lon="5.52119">
        <ele>1904</ele>
        <time>2022-08-27T08:50:20Z</time>
      </trkpt>
      <trkpt lat="44.85219" lon="5.52118">
        <ele>1902</ele>
        <time>2022-08-27T08:50:26Z</time>
      </trkpt>
      <trkpt lat="44.85224" lon="5.5212">
        <ele>1901</ele>
        <time>2022-08-27T08:50:30Z</time>
      </trkpt>
      <trkpt lat="44.85228" lon="5.52118">
        <ele>1900</ele>
        <time>2022-08-27T08:50:34Z</time>
      </trkpt>
      <trkpt lat="44.85232" lon="5.52116">
        <ele>1899</ele>
        <time>2022-08-27T08:50:41Z</time>
      </trkpt>
      <trkpt lat="44.85237" lon="5.52114">
        <ele>1896</ele>
        <time>2022-08-27T08:52:44Z</time>
      </trkpt>
      <trkpt lat="44.85243" lon="5.52113">
        <ele>1893</ele>
        <time>2022-08-27T08:52:55Z</time>
      </trkpt>
      <trkpt lat="44.85248" lon="5.52113">
        <ele>1892</ele>
        <time>2022-08-27T08:53:00Z</time>
      </trkpt>
      <trkpt lat="44.85281" lon="5.52109">
        <ele>1883</ele>
        <time>2022-08-27T08:53:33Z</time>
      </trkpt>
      <trkpt lat="44.85286" lon="5.52108">
        <ele>1882</ele>
        <time>2022-08-27T08:53:38Z</time>
      </trkpt>
      <trkpt lat="44.85291" lon="5.52104">
        <ele>1881</ele>
        <time>2022-08-27T08:53:42Z</time>
      </trkpt>
      <trkpt lat="44.85295" lon="5.52103">
        <ele>1879</ele>
        <time>2022-08-27T08:53:46Z</time>
      </trkpt>
      <trkpt lat="44.85299" lon="5.52101">
        <ele>1878</ele>
        <time>2022-08-27T08:53:50Z</time>
      </trkpt>
      <trkpt lat="44.85304" lon="5.52101">
        <ele>1877</ele>
        <time>2022-08-27T08:53:53Z</time>
      </trkpt>
      <trkpt lat="44.85312" lon="5.52097">
        <ele>1876</ele>
        <time>2022-08-27T08:54:01Z</time>
      </trkpt>
      <trkpt lat="44.85317" lon="5.52098">
        <ele>1875</ele>
        <time>2022-08-27T08:54:05Z</time>
      </trkpt>
      <trkpt lat="44.85331" lon="5.52101">
        <ele>1874</ele>
        <time>2022-08-27T08:54:18Z</time>
      </trkpt>
      <trkpt lat="44.85336" lon="5.52101">
        <ele>1873</ele>
        <time>2022-08-27T08:54:22Z</time>
      </trkpt>
      <trkpt lat="44.85341" lon="5.52102">
        <ele>1873</ele>
        <time>2022-08-27T08:54:26Z</time>
      </trkpt>
      <trkpt lat="44.85346" lon="5.52101">
        <ele>1872</ele>
        <time>2022-08-27T08:54:31Z</time>
      </trkpt>
      <trkpt lat="44.85351" lon="5.52102">
        <ele>1872</ele>
        <time>2022-08-27T08:54:36Z</time>
      </trkpt>
      <trkpt lat="44.85356" lon="5.521">
        <ele>1871</ele>
        <time>2022-08-27T08:54:40Z</time>
      </trkpt>
      <trkpt lat="44.85369" lon="5.52102">
        <ele>1870</ele>
        <time>2022-08-27T08:54:54Z</time>
      </trkpt>
      <trkpt lat="44.85381" lon="5.52105">
        <ele>1869</ele>
        <time>2022-08-27T08:55:05Z</time>
      </trkpt>
      <trkpt lat="44.85383" lon="5.52095">
        <ele>1870</ele>
        <time>2022-08-27T08:55:43Z</time>
      </trkpt>
      <trkpt lat="44.85386" lon="5.52091">
        <ele>1871</ele>
        <time>2022-08-27T08:55:54Z</time>
      </trkpt>
      <trkpt lat="44.85385" lon="5.52085">
        <ele>1874</ele>
        <time>2022-08-27T08:56:04Z</time>
      </trkpt>
      <trkpt lat="44.85386" lon="5.52075">
        <ele>1876</ele>
        <time>2022-08-27T08:56:14Z</time>
      </trkpt>
      <trkpt lat="44.85389" lon="5.52071">
        <ele>1877</ele>
        <time>2022-08-27T08:56:24Z</time>
      </trkpt>
      <trkpt lat="44.85391" lon="5.52064">
        <ele>1879</ele>
        <time>2022-08-27T08:56:34Z</time>
      </trkpt>
      <trkpt lat="44.85387" lon="5.52057">
        <ele>1881</ele>
        <time>2022-08-27T08:56:44Z</time>
      </trkpt>
      <trkpt lat="44.85387" lon="5.5205">
        <ele>1882</ele>
        <time>2022-08-27T08:56:54Z</time>
      </trkpt>
      <trkpt lat="44.85381" lon="5.52044">
        <ele>1882</ele>
        <time>2022-08-27T08:57:04Z</time>
      </trkpt>
      <trkpt lat="44.85378" lon="5.52038">
        <ele>1882</ele>
        <time>2022-08-27T08:57:10Z</time>
      </trkpt>
      <trkpt lat="44.85368" lon="5.52036">
        <ele>1880</ele>
        <time>2022-08-27T08:57:19Z</time>
      </trkpt>
      <trkpt lat="44.85362" lon="5.52017">
        <ele>1876</ele>
        <time>2022-08-27T08:58:11Z</time>
      </trkpt>
      <trkpt lat="44.85359" lon="5.52014">
        <ele>1876</ele>
        <time>2022-08-27T08:58:20Z</time>
      </trkpt>
      <trkpt lat="44.85364" lon="5.52024">
        <ele>1877</ele>
        <time>2022-08-27T08:58:55Z</time>
      </trkpt>
      <trkpt lat="44.85363" lon="5.52025">
        <ele>1876</ele>
        <time>2022-08-27T09:04:01Z</time>
      </trkpt>
      <trkpt lat="44.85365" lon="5.52023">
        <ele>1882</ele>
        <time>2022-08-27T09:32:12Z</time>
      </trkpt>
      <trkpt lat="44.85364" lon="5.52023">
        <ele>1879</ele>
        <time>2022-08-27T09:56:38Z</time>
      </trkpt>
      <trkpt lat="44.85365" lon="5.52026">
        <ele>1879</ele>
        <time>2022-08-27T10:00:12Z</time>
      </trkpt>
      <trkpt lat="44.85372" lon="5.52021">
        <ele>1879</ele>
        <time>2022-08-27T10:02:51Z</time>
      </trkpt>
      <trkpt lat="44.85377" lon="5.52022">
        <ele>1878</ele>
        <time>2022-08-27T10:02:55Z</time>
      </trkpt>
      <trkpt lat="44.85386" lon="5.5202">
        <ele>1877</ele>
        <time>2022-08-27T10:03:04Z</time>
      </trkpt>
      <trkpt lat="44.8539" lon="5.52022">
        <ele>1877</ele>
        <time>2022-08-27T10:03:08Z</time>
      </trkpt>
      <trkpt lat="44.85395" lon="5.52022">
        <ele>1877</ele>
        <time>2022-08-27T10:03:12Z</time>
      </trkpt>
      <trkpt lat="44.854" lon="5.52021">
        <ele>1877</ele>
        <time>2022-08-27T10:03:16Z</time>
      </trkpt>
      <trkpt lat="44.85404" lon="5.52023">
        <ele>1876</ele>
        <time>2022-08-27T10:03:19Z</time>
      </trkpt>
      <trkpt lat="44.85409" lon="5.52022">
        <ele>1876</ele>
        <time>2022-08-27T10:03:24Z</time>
      </trkpt>
      <trkpt lat="44.85414" lon="5.52023">
        <ele>1875</ele>
        <time>2022-08-27T10:03:28Z</time>
      </trkpt>
      <trkpt lat="44.85419" lon="5.52026">
        <ele>1875</ele>
        <time>2022-08-27T10:03:40Z</time>
      </trkpt>
      <trkpt lat="44.85423" lon="5.52025">
        <ele>1874</ele>
        <time>2022-08-27T10:03:43Z</time>
      </trkpt>
      <trkpt lat="44.85428" lon="5.52027">
        <ele>1874</ele>
        <time>2022-08-27T10:03:47Z</time>
      </trkpt>
      <trkpt lat="44.85438" lon="5.52025">
        <ele>1874</ele>
        <time>2022-08-27T10:03:55Z</time>
      </trkpt>
      <trkpt lat="44.85442" lon="5.52023">
        <ele>1874</ele>
        <time>2022-08-27T10:03:59Z</time>
      </trkpt>
      <trkpt lat="44.85447" lon="5.52022">
        <ele>1874</ele>
        <time>2022-08-27T10:04:02Z</time>
      </trkpt>
      <trkpt lat="44.85456" lon="5.52024">
        <ele>1875</ele>
        <time>2022-08-27T10:04:09Z</time>
      </trkpt>
      <trkpt lat="44.8546" lon="5.52028">
        <ele>1876</ele>
        <time>2022-08-27T10:04:13Z</time>
      </trkpt>
      <trkpt lat="44.85464" lon="5.52032">
        <ele>1876</ele>
        <time>2022-08-27T10:04:17Z</time>
      </trkpt>
      <trkpt lat="44.85475" lon="5.52042">
        <ele>1875</ele>
        <time>2022-08-27T10:04:28Z</time>
      </trkpt>
      <trkpt lat="44.85479" lon="5.52048">
        <ele>1875</ele>
        <time>2022-08-27T10:04:32Z</time>
      </trkpt>
      <trkpt lat="44.85487" lon="5.52055">
        <ele>1875</ele>
        <time>2022-08-27T10:04:38Z</time>
      </trkpt>
      <trkpt lat="44.85491" lon="5.52065">
        <ele>1875</ele>
        <time>2022-08-27T10:04:44Z</time>
      </trkpt>
      <trkpt lat="44.855" lon="5.52071">
        <ele>1875</ele>
        <time>2022-08-27T10:04:51Z</time>
      </trkpt>
      <trkpt lat="44.85508" lon="5.52075">
        <ele>1875</ele>
        <time>2022-08-27T10:04:58Z</time>
      </trkpt>
      <trkpt lat="44.85511" lon="5.52081">
        <ele>1875</ele>
        <time>2022-08-27T10:05:03Z</time>
      </trkpt>
      <trkpt lat="44.85518" lon="5.52089">
        <ele>1874</ele>
        <time>2022-08-27T10:05:11Z</time>
      </trkpt>
      <trkpt lat="44.8552" lon="5.52107">
        <ele>1870</ele>
        <time>2022-08-27T10:05:28Z</time>
      </trkpt>
      <trkpt lat="44.85523" lon="5.52112">
        <ele>1870</ele>
        <time>2022-08-27T10:05:32Z</time>
      </trkpt>
      <trkpt lat="44.85525" lon="5.52121">
        <ele>1869</ele>
        <time>2022-08-27T10:05:38Z</time>
      </trkpt>
      <trkpt lat="44.85522" lon="5.52129">
        <ele>1868</ele>
        <time>2022-08-27T10:05:41Z</time>
      </trkpt>
      <trkpt lat="44.85523" lon="5.52142">
        <ele>1867</ele>
        <time>2022-08-27T10:05:46Z</time>
      </trkpt>
      <trkpt lat="44.85526" lon="5.52148">
        <ele>1867</ele>
        <time>2022-08-27T10:05:48Z</time>
      </trkpt>
      <trkpt lat="44.85529" lon="5.52151">
        <ele>1866</ele>
        <time>2022-08-27T10:05:50Z</time>
      </trkpt>
      <trkpt lat="44.85533" lon="5.52155">
        <ele>1866</ele>
        <time>2022-08-27T10:05:53Z</time>
      </trkpt>
      <trkpt lat="44.85539" lon="5.52158">
        <ele>1866</ele>
        <time>2022-08-27T10:06:01Z</time>
      </trkpt>
      <trkpt lat="44.85544" lon="5.5216">
        <ele>1866</ele>
        <time>2022-08-27T10:06:07Z</time>
      </trkpt>
      <trkpt lat="44.85553" lon="5.52167">
        <ele>1866</ele>
        <time>2022-08-27T10:06:15Z</time>
      </trkpt>
      <trkpt lat="44.85562" lon="5.5217">
        <ele>1865</ele>
        <time>2022-08-27T10:06:23Z</time>
      </trkpt>
      <trkpt lat="44.85567" lon="5.52174">
        <ele>1865</ele>
        <time>2022-08-27T10:06:27Z</time>
      </trkpt>
      <trkpt lat="44.8557" lon="5.52176">
        <ele>1865</ele>
        <time>2022-08-27T10:06:31Z</time>
      </trkpt>
      <trkpt lat="44.85577" lon="5.52187">
        <ele>1866</ele>
        <time>2022-08-27T10:06:39Z</time>
      </trkpt>
      <trkpt lat="44.8558" lon="5.52191">
        <ele>1866</ele>
        <time>2022-08-27T10:06:43Z</time>
      </trkpt>
      <trkpt lat="44.85585" lon="5.52194">
        <ele>1866</ele>
        <time>2022-08-27T10:06:47Z</time>
      </trkpt>
      <trkpt lat="44.8559" lon="5.52205">
        <ele>1867</ele>
        <time>2022-08-27T10:06:55Z</time>
      </trkpt>
      <trkpt lat="44.856" lon="5.5221">
        <ele>1869</ele>
        <time>2022-08-27T10:07:04Z</time>
      </trkpt>
      <trkpt lat="44.85609" lon="5.52211">
        <ele>1871</ele>
        <time>2022-08-27T10:07:12Z</time>
      </trkpt>
      <trkpt lat="44.85624" lon="5.52218">
        <ele>1872</ele>
        <time>2022-08-27T10:07:32Z</time>
      </trkpt>
      <trkpt lat="44.85628" lon="5.52221">
        <ele>1872</ele>
        <time>2022-08-27T10:07:37Z</time>
      </trkpt>
      <trkpt lat="44.85641" lon="5.52226">
        <ele>1872</ele>
        <time>2022-08-27T10:07:51Z</time>
      </trkpt>
      <trkpt lat="44.85645" lon="5.52227">
        <ele>1874</ele>
        <time>2022-08-27T10:08:03Z</time>
      </trkpt>
      <trkpt lat="44.8565" lon="5.52229">
        <ele>1873</ele>
        <time>2022-08-27T10:08:13Z</time>
      </trkpt>
      <trkpt lat="44.85654" lon="5.52233">
        <ele>1874</ele>
        <time>2022-08-27T10:08:18Z</time>
      </trkpt>
      <trkpt lat="44.85676" lon="5.52243">
        <ele>1877</ele>
        <time>2022-08-27T10:08:39Z</time>
      </trkpt>
      <trkpt lat="44.85689" lon="5.52253">
        <ele>1878</ele>
        <time>2022-08-27T10:08:52Z</time>
      </trkpt>
      <trkpt lat="44.85693" lon="5.52254">
        <ele>1878</ele>
        <time>2022-08-27T10:08:56Z</time>
      </trkpt>
      <trkpt lat="44.85724" lon="5.52267">
        <ele>1883</ele>
        <time>2022-08-27T10:09:29Z</time>
      </trkpt>
      <trkpt lat="44.85733" lon="5.52271">
        <ele>1883</ele>
        <time>2022-08-27T10:09:38Z</time>
      </trkpt>
      <trkpt lat="44.8574" lon="5.52273">
        <ele>1884</ele>
        <time>2022-08-27T10:09:46Z</time>
      </trkpt>
      <trkpt lat="44.85757" lon="5.52288">
        <ele>1889</ele>
        <time>2022-08-27T10:10:09Z</time>
      </trkpt>
      <trkpt lat="44.85776" lon="5.52299">
        <ele>1891</ele>
        <time>2022-08-27T10:10:29Z</time>
      </trkpt>
      <trkpt lat="44.85789" lon="5.52299">
        <ele>1892</ele>
        <time>2022-08-27T10:10:41Z</time>
      </trkpt>
      <trkpt lat="44.85799" lon="5.52299">
        <ele>1892</ele>
        <time>2022-08-27T10:10:49Z</time>
      </trkpt>
      <trkpt lat="44.85809" lon="5.52294">
        <ele>1893</ele>
        <time>2022-08-27T10:10:59Z</time>
      </trkpt>
      <trkpt lat="44.85813" lon="5.52292">
        <ele>1893</ele>
        <time>2022-08-27T10:11:03Z</time>
      </trkpt>
      <trkpt lat="44.85818" lon="5.52289">
        <ele>1893</ele>
        <time>2022-08-27T10:11:08Z</time>
      </trkpt>
      <trkpt lat="44.85825" lon="5.52281">
        <ele>1893</ele>
        <time>2022-08-27T10:11:17Z</time>
      </trkpt>
      <trkpt lat="44.85835" lon="5.52269">
        <ele>1895</ele>
        <time>2022-08-27T10:11:34Z</time>
      </trkpt>
      <trkpt lat="44.85842" lon="5.52265">
        <ele>1897</ele>
        <time>2022-08-27T10:11:43Z</time>
      </trkpt>
      <trkpt lat="44.85846" lon="5.52263">
        <ele>1898</ele>
        <time>2022-08-27T10:11:48Z</time>
      </trkpt>
      <trkpt lat="44.85851" lon="5.52261">
        <ele>1898</ele>
        <time>2022-08-27T10:11:52Z</time>
      </trkpt>
      <trkpt lat="44.85856" lon="5.52257">
        <ele>1899</ele>
        <time>2022-08-27T10:11:59Z</time>
      </trkpt>
      <trkpt lat="44.8586" lon="5.52254">
        <ele>1899</ele>
        <time>2022-08-27T10:12:03Z</time>
      </trkpt>
      <trkpt lat="44.85867" lon="5.52246">
        <ele>1898</ele>
        <time>2022-08-27T10:12:12Z</time>
      </trkpt>
      <trkpt lat="44.85873" lon="5.52246">
        <ele>1896</ele>
        <time>2022-08-27T10:12:19Z</time>
      </trkpt>
      <trkpt lat="44.85877" lon="5.52244">
        <ele>1896</ele>
        <time>2022-08-27T10:12:23Z</time>
      </trkpt>
      <trkpt lat="44.85883" lon="5.52244">
        <ele>1897</ele>
        <time>2022-08-27T10:12:30Z</time>
      </trkpt>
      <trkpt lat="44.85887" lon="5.5224">
        <ele>1898</ele>
        <time>2022-08-27T10:12:35Z</time>
      </trkpt>
      <trkpt lat="44.85892" lon="5.52239">
        <ele>1898</ele>
        <time>2022-08-27T10:12:40Z</time>
      </trkpt>
      <trkpt lat="44.85896" lon="5.52233">
        <ele>1902</ele>
        <time>2022-08-27T10:12:52Z</time>
      </trkpt>
      <trkpt lat="44.85912" lon="5.52215">
        <ele>1907</ele>
        <time>2022-08-27T10:13:21Z</time>
      </trkpt>
      <trkpt lat="44.85916" lon="5.522">
        <ele>1909</ele>
        <time>2022-08-27T10:13:36Z</time>
      </trkpt>
      <trkpt lat="44.85912" lon="5.52195">
        <ele>1910</ele>
        <time>2022-08-27T10:14:01Z</time>
      </trkpt>
      <trkpt lat="44.85918" lon="5.52191">
        <ele>1911</ele>
        <time>2022-08-27T10:15:06Z</time>
      </trkpt>
      <trkpt lat="44.85927" lon="5.52177">
        <ele>1917</ele>
        <time>2022-08-27T10:15:33Z</time>
      </trkpt>
      <trkpt lat="44.85931" lon="5.52182">
        <ele>1919</ele>
        <time>2022-08-27T10:15:49Z</time>
      </trkpt>
      <trkpt lat="44.85933" lon="5.52188">
        <ele>1920</ele>
        <time>2022-08-27T10:15:59Z</time>
      </trkpt>
      <trkpt lat="44.85939" lon="5.52172">
        <ele>1925</ele>
        <time>2022-08-27T10:16:24Z</time>
      </trkpt>
      <trkpt lat="44.8594" lon="5.52166">
        <ele>1926</ele>
        <time>2022-08-27T10:16:30Z</time>
      </trkpt>
      <trkpt lat="44.85947" lon="5.52134">
        <ele>1934</ele>
        <time>2022-08-27T10:17:08Z</time>
      </trkpt>
      <trkpt lat="44.85952" lon="5.52136">
        <ele>1937</ele>
        <time>2022-08-27T10:17:24Z</time>
      </trkpt>
      <trkpt lat="44.85956" lon="5.52144">
        <ele>1938</ele>
        <time>2022-08-27T10:17:35Z</time>
      </trkpt>
      <trkpt lat="44.85962" lon="5.5215">
        <ele>1940</ele>
        <time>2022-08-27T10:17:46Z</time>
      </trkpt>
      <trkpt lat="44.85963" lon="5.52158">
        <ele>1942</ele>
        <time>2022-08-27T10:17:56Z</time>
      </trkpt>
      <trkpt lat="44.85966" lon="5.52166">
        <ele>1944</ele>
        <time>2022-08-27T10:18:06Z</time>
      </trkpt>
      <trkpt lat="44.8597" lon="5.52161">
        <ele>1946</ele>
        <time>2022-08-27T10:18:16Z</time>
      </trkpt>
      <trkpt lat="44.85974" lon="5.52162">
        <ele>1948</ele>
        <time>2022-08-27T10:18:26Z</time>
      </trkpt>
      <trkpt lat="44.85977" lon="5.52157">
        <ele>1951</ele>
        <time>2022-08-27T10:18:41Z</time>
      </trkpt>
      <trkpt lat="44.85982" lon="5.52159">
        <ele>1952</ele>
        <time>2022-08-27T10:18:51Z</time>
      </trkpt>
      <trkpt lat="44.85984" lon="5.52153">
        <ele>1954</ele>
        <time>2022-08-27T10:19:01Z</time>
      </trkpt>
      <trkpt lat="44.85987" lon="5.52149">
        <ele>1956</ele>
        <time>2022-08-27T10:19:11Z</time>
      </trkpt>
      <trkpt lat="44.85993" lon="5.52148">
        <ele>1960</ele>
        <time>2022-08-27T10:19:31Z</time>
      </trkpt>
      <trkpt lat="44.85998" lon="5.52142">
        <ele>1962</ele>
        <time>2022-08-27T10:19:43Z</time>
      </trkpt>
      <trkpt lat="44.86" lon="5.52133">
        <ele>1964</ele>
        <time>2022-08-27T10:19:54Z</time>
      </trkpt>
      <trkpt lat="44.86009" lon="5.52122">
        <ele>1968</ele>
        <time>2022-08-27T10:20:14Z</time>
      </trkpt>
      <trkpt lat="44.86013" lon="5.52117">
        <ele>1970</ele>
        <time>2022-08-27T10:20:24Z</time>
      </trkpt>
      <trkpt lat="44.86024" lon="5.52114">
        <ele>1976</ele>
        <time>2022-08-27T10:20:54Z</time>
      </trkpt>
      <trkpt lat="44.86038" lon="5.52096">
        <ele>1981</ele>
        <time>2022-08-27T10:21:24Z</time>
      </trkpt>
      <trkpt lat="44.86039" lon="5.52103">
        <ele>1983</ele>
        <time>2022-08-27T10:21:34Z</time>
      </trkpt>
      <trkpt lat="44.86039" lon="5.52113">
        <ele>1985</ele>
        <time>2022-08-27T10:21:45Z</time>
      </trkpt>
      <trkpt lat="44.8604" lon="5.52123">
        <ele>1987</ele>
        <time>2022-08-27T10:21:57Z</time>
      </trkpt>
      <trkpt lat="44.86039" lon="5.52143">
        <ele>1991</ele>
        <time>2022-08-27T10:22:17Z</time>
      </trkpt>
      <trkpt lat="44.8604" lon="5.52153">
        <ele>1993</ele>
        <time>2022-08-27T10:22:27Z</time>
      </trkpt>
      <trkpt lat="44.86045" lon="5.52152">
        <ele>1995</ele>
        <time>2022-08-27T10:22:37Z</time>
      </trkpt>
      <trkpt lat="44.86049" lon="5.52147">
        <ele>1997</ele>
        <time>2022-08-27T10:22:47Z</time>
      </trkpt>
      <trkpt lat="44.86053" lon="5.52151">
        <ele>2000</ele>
        <time>2022-08-27T10:23:02Z</time>
      </trkpt>
      <trkpt lat="44.86054" lon="5.52158">
        <ele>2002</ele>
        <time>2022-08-27T10:23:12Z</time>
      </trkpt>
      <trkpt lat="44.86052" lon="5.52167">
        <ele>2005</ele>
        <time>2022-08-27T10:23:27Z</time>
      </trkpt>
      <trkpt lat="44.86056" lon="5.5217">
        <ele>2007</ele>
        <time>2022-08-27T10:23:37Z</time>
      </trkpt>
      <trkpt lat="44.86068" lon="5.52159">
        <ele>2011</ele>
        <time>2022-08-27T10:24:38Z</time>
      </trkpt>
      <trkpt lat="44.8607" lon="5.52153">
        <ele>2012</ele>
        <time>2022-08-27T10:24:48Z</time>
      </trkpt>
      <trkpt lat="44.86073" lon="5.52161">
        <ele>2016</ele>
        <time>2022-08-27T10:25:08Z</time>
      </trkpt>
      <trkpt lat="44.86073" lon="5.52167">
        <ele>2017</ele>
        <time>2022-08-27T10:25:18Z</time>
      </trkpt>
      <trkpt lat="44.86073" lon="5.52176">
        <ele>2020</ele>
        <time>2022-08-27T10:25:33Z</time>
      </trkpt>
      <trkpt lat="44.86078" lon="5.52175">
        <ele>2023</ele>
        <time>2022-08-27T10:25:48Z</time>
      </trkpt>
      <trkpt lat="44.86081" lon="5.52182">
        <ele>2026</ele>
        <time>2022-08-27T10:26:05Z</time>
      </trkpt>
      <trkpt lat="44.86085" lon="5.52178">
        <ele>2028</ele>
        <time>2022-08-27T10:26:15Z</time>
      </trkpt>
      <trkpt lat="44.86087" lon="5.52184">
        <ele>2031</ele>
        <time>2022-08-27T10:26:35Z</time>
      </trkpt>
      <trkpt lat="44.86085" lon="5.5219">
        <ele>2032</ele>
        <time>2022-08-27T10:26:45Z</time>
      </trkpt>
      <trkpt lat="44.86092" lon="5.52187">
        <ele>2035</ele>
        <time>2022-08-27T10:27:00Z</time>
      </trkpt>
      <trkpt lat="44.86096" lon="5.52191">
        <ele>2038</ele>
        <time>2022-08-27T10:27:20Z</time>
      </trkpt>
      <trkpt lat="44.86099" lon="5.52184">
        <ele>2039</ele>
        <time>2022-08-27T10:27:30Z</time>
      </trkpt>
      <trkpt lat="44.86102" lon="5.52191">
        <ele>2042</ele>
        <time>2022-08-27T10:27:50Z</time>
      </trkpt>
      <trkpt lat="44.86101" lon="5.52198">
        <ele>2044</ele>
        <time>2022-08-27T10:28:01Z</time>
      </trkpt>
      <trkpt lat="44.86107" lon="5.52195">
        <ele>2046</ele>
        <time>2022-08-27T10:28:13Z</time>
      </trkpt>
      <trkpt lat="44.86109" lon="5.52204">
        <ele>2050</ele>
        <time>2022-08-27T10:28:38Z</time>
      </trkpt>
      <trkpt lat="44.86113" lon="5.52208">
        <ele>2052</ele>
        <time>2022-08-27T10:28:48Z</time>
      </trkpt>
      <trkpt lat="44.86117" lon="5.52203">
        <ele>2053</ele>
        <time>2022-08-27T10:28:58Z</time>
      </trkpt>
      <trkpt lat="44.86117" lon="5.52211">
        <ele>2055</ele>
        <time>2022-08-27T10:29:13Z</time>
      </trkpt>
      <trkpt lat="44.86122" lon="5.52212">
        <ele>2057</ele>
        <time>2022-08-27T10:29:28Z</time>
      </trkpt>
      <trkpt lat="44.86127" lon="5.52207">
        <ele>2059</ele>
        <time>2022-08-27T10:29:38Z</time>
      </trkpt>
      <trkpt lat="44.86127" lon="5.52217">
        <ele>2060</ele>
        <time>2022-08-27T10:29:48Z</time>
      </trkpt>
      <trkpt lat="44.86133" lon="5.52211">
        <ele>2062</ele>
        <time>2022-08-27T10:30:05Z</time>
      </trkpt>
      <trkpt lat="44.86133" lon="5.52221">
        <ele>2064</ele>
        <time>2022-08-27T10:30:20Z</time>
      </trkpt>
      <trkpt lat="44.86137" lon="5.52215">
        <ele>2066</ele>
        <time>2022-08-27T10:30:30Z</time>
      </trkpt>
      <trkpt lat="44.86139" lon="5.52208">
        <ele>2067</ele>
        <time>2022-08-27T10:30:45Z</time>
      </trkpt>
      <trkpt lat="44.86143" lon="5.52204">
        <ele>2070</ele>
        <time>2022-08-27T10:31:01Z</time>
      </trkpt>
      <trkpt lat="44.86144" lon="5.52196">
        <ele>2071</ele>
        <time>2022-08-27T10:31:11Z</time>
      </trkpt>
      <trkpt lat="44.8615" lon="5.52191">
        <ele>2073</ele>
        <time>2022-08-27T10:31:26Z</time>
      </trkpt>
      <trkpt lat="44.86153" lon="5.52183">
        <ele>2075</ele>
        <time>2022-08-27T10:31:38Z</time>
      </trkpt>
      <trkpt lat="44.86155" lon="5.52194">
        <ele>2077</ele>
        <time>2022-08-27T10:31:49Z</time>
      </trkpt>
      <trkpt lat="44.86159" lon="5.52195">
        <ele>2079</ele>
        <time>2022-08-27T10:32:04Z</time>
      </trkpt>
      <trkpt lat="44.86162" lon="5.52188">
        <ele>2081</ele>
        <time>2022-08-27T10:32:15Z</time>
      </trkpt>
      <trkpt lat="44.86165" lon="5.52201">
        <ele>2084</ele>
        <time>2022-08-27T10:32:33Z</time>
      </trkpt>
      <trkpt lat="44.86165" lon="5.52212">
        <ele>2085</ele>
        <time>2022-08-27T10:32:43Z</time>
      </trkpt>
      <trkpt lat="44.8617" lon="5.52207">
        <ele>2087</ele>
        <time>2022-08-27T10:32:58Z</time>
      </trkpt>
      <trkpt lat="44.86173" lon="5.522">
        <ele>2089</ele>
        <time>2022-08-27T10:33:08Z</time>
      </trkpt>
      <trkpt lat="44.86176" lon="5.52193">
        <ele>2090</ele>
        <time>2022-08-27T10:33:18Z</time>
      </trkpt>
      <trkpt lat="44.86178" lon="5.52184">
        <ele>2092</ele>
        <time>2022-08-27T10:33:28Z</time>
      </trkpt>
      <trkpt lat="44.86186" lon="5.52204">
        <ele>2096</ele>
        <time>2022-08-27T10:33:58Z</time>
      </trkpt>
      <trkpt lat="44.86189" lon="5.52215">
        <ele>2096</ele>
        <time>2022-08-27T10:34:08Z</time>
      </trkpt>
      <trkpt lat="44.86189" lon="5.52222">
        <ele>2097</ele>
        <time>2022-08-27T10:34:14Z</time>
      </trkpt>
      <trkpt lat="44.86194" lon="5.5222">
        <ele>2098</ele>
        <time>2022-08-27T10:34:26Z</time>
      </trkpt>
      <trkpt lat="44.86198" lon="5.52204">
        <ele>2102</ele>
        <time>2022-08-27T10:34:46Z</time>
      </trkpt>
      <trkpt lat="44.86207" lon="5.52218">
        <ele>2106</ele>
        <time>2022-08-27T10:35:16Z</time>
      </trkpt>
      <trkpt lat="44.86213" lon="5.52232">
        <ele>2109</ele>
        <time>2022-08-27T10:35:36Z</time>
      </trkpt>
      <trkpt lat="44.86218" lon="5.52227">
        <ele>2111</ele>
        <time>2022-08-27T10:35:51Z</time>
      </trkpt>
      <trkpt lat="44.86219" lon="5.52219">
        <ele>2113</ele>
        <time>2022-08-27T10:36:01Z</time>
      </trkpt>
      <trkpt lat="44.86219" lon="5.52211">
        <ele>2114</ele>
        <time>2022-08-27T10:36:11Z</time>
      </trkpt>
      <trkpt lat="44.86223" lon="5.52217">
        <ele>2116</ele>
        <time>2022-08-27T10:36:22Z</time>
      </trkpt>
      <trkpt lat="44.86226" lon="5.52224">
        <ele>2117</ele>
        <time>2022-08-27T10:36:32Z</time>
      </trkpt>
      <trkpt lat="44.86234" lon="5.52242">
        <ele>2120</ele>
        <time>2022-08-27T10:36:55Z</time>
      </trkpt>
      <trkpt lat="44.86238" lon="5.52235">
        <ele>2123</ele>
        <time>2022-08-27T10:37:10Z</time>
      </trkpt>
      <trkpt lat="44.86239" lon="5.52228">
        <ele>2125</ele>
        <time>2022-08-27T10:37:21Z</time>
      </trkpt>
      <trkpt lat="44.86243" lon="5.52231">
        <ele>2127</ele>
        <time>2022-08-27T10:37:36Z</time>
      </trkpt>
      <trkpt lat="44.86246" lon="5.52236">
        <ele>2128</ele>
        <time>2022-08-27T10:37:46Z</time>
      </trkpt>
      <trkpt lat="44.86252" lon="5.52253">
        <ele>2131</ele>
        <time>2022-08-27T10:38:06Z</time>
      </trkpt>
      <trkpt lat="44.86257" lon="5.52249">
        <ele>2133</ele>
        <time>2022-08-27T10:38:16Z</time>
      </trkpt>
      <trkpt lat="44.86262" lon="5.52254">
        <ele>2135</ele>
        <time>2022-08-27T10:38:32Z</time>
      </trkpt>
      <trkpt lat="44.86267" lon="5.52257">
        <ele>2136</ele>
        <time>2022-08-27T10:38:42Z</time>
      </trkpt>
      <trkpt lat="44.86271" lon="5.52251">
        <ele>2137</ele>
        <time>2022-08-27T10:38:52Z</time>
      </trkpt>
      <trkpt lat="44.8629" lon="5.52251">
        <ele>2143</ele>
        <time>2022-08-27T10:39:28Z</time>
      </trkpt>
      <trkpt lat="44.86295" lon="5.52255">
        <ele>2145</ele>
        <time>2022-08-27T10:39:43Z</time>
      </trkpt>
      <trkpt lat="44.86299" lon="5.5225">
        <ele>2146</ele>
        <time>2022-08-27T10:39:53Z</time>
      </trkpt>
      <trkpt lat="44.86307" lon="5.52256">
        <ele>2149</ele>
        <time>2022-08-27T10:40:56Z</time>
      </trkpt>
      <trkpt lat="44.8631" lon="5.52261">
        <ele>2150</ele>
        <time>2022-08-27T10:41:06Z</time>
      </trkpt>
      <trkpt lat="44.86314" lon="5.52266">
        <ele>2153</ele>
        <time>2022-08-27T10:41:21Z</time>
      </trkpt>
      <trkpt lat="44.86317" lon="5.5227">
        <ele>2154</ele>
        <time>2022-08-27T10:41:31Z</time>
      </trkpt>
      <trkpt lat="44.8632" lon="5.52273">
        <ele>2156</ele>
        <time>2022-08-27T10:41:41Z</time>
      </trkpt>
      <trkpt lat="44.86325" lon="5.52275">
        <ele>2157</ele>
        <time>2022-08-27T10:41:51Z</time>
      </trkpt>
      <trkpt lat="44.86328" lon="5.52281">
        <ele>2159</ele>
        <time>2022-08-27T10:42:01Z</time>
      </trkpt>
      <trkpt lat="44.86334" lon="5.52281">
        <ele>2160</ele>
        <time>2022-08-27T10:42:11Z</time>
      </trkpt>
      <trkpt lat="44.86338" lon="5.52285">
        <ele>2161</ele>
        <time>2022-08-27T10:42:21Z</time>
      </trkpt>
      <trkpt lat="44.86344" lon="5.52288">
        <ele>2163</ele>
        <time>2022-08-27T10:42:31Z</time>
      </trkpt>
      <trkpt lat="44.86355" lon="5.52296">
        <ele>2166</ele>
        <time>2022-08-27T10:42:53Z</time>
      </trkpt>
      <trkpt lat="44.8636" lon="5.52298">
        <ele>2168</ele>
        <time>2022-08-27T10:43:03Z</time>
      </trkpt>
      <trkpt lat="44.86364" lon="5.52303">
        <ele>2169</ele>
        <time>2022-08-27T10:43:13Z</time>
      </trkpt>
      <trkpt lat="44.86369" lon="5.52308">
        <ele>2171</ele>
        <time>2022-08-27T10:43:23Z</time>
      </trkpt>
      <trkpt lat="44.86373" lon="5.52313">
        <ele>2173</ele>
        <time>2022-08-27T10:43:53Z</time>
      </trkpt>
      <trkpt lat="44.86378" lon="5.52315">
        <ele>2175</ele>
        <time>2022-08-27T10:44:03Z</time>
      </trkpt>
      <trkpt lat="44.86384" lon="5.52318">
        <ele>2176</ele>
        <time>2022-08-27T10:44:13Z</time>
      </trkpt>
      <trkpt lat="44.86389" lon="5.52321">
        <ele>2178</ele>
        <time>2022-08-27T10:44:23Z</time>
      </trkpt>
      <trkpt lat="44.86393" lon="5.52326">
        <ele>2180</ele>
        <time>2022-08-27T10:44:33Z</time>
      </trkpt>
      <trkpt lat="44.86412" lon="5.52329">
        <ele>2184</ele>
        <time>2022-08-27T10:45:05Z</time>
      </trkpt>
      <trkpt lat="44.86416" lon="5.52329">
        <ele>2184</ele>
        <time>2022-08-27T10:45:20Z</time>
      </trkpt>
      <trkpt lat="44.86424" lon="5.52326">
        <ele>2185</ele>
        <time>2022-08-27T10:45:30Z</time>
      </trkpt>
      <trkpt lat="44.86431" lon="5.52326">
        <ele>2187</ele>
        <time>2022-08-27T10:45:40Z</time>
      </trkpt>
      <trkpt lat="44.86442" lon="5.52321">
        <ele>2189</ele>
        <time>2022-08-27T10:46:00Z</time>
      </trkpt>
      <trkpt lat="44.86442" lon="5.52328">
        <ele>2191</ele>
        <time>2022-08-27T10:46:16Z</time>
      </trkpt>
      <trkpt lat="44.86448" lon="5.52331">
        <ele>2193</ele>
        <time>2022-08-27T10:46:27Z</time>
      </trkpt>
      <trkpt lat="44.86453" lon="5.5233">
        <ele>2195</ele>
        <time>2022-08-27T10:46:37Z</time>
      </trkpt>
      <trkpt lat="44.86459" lon="5.52333">
        <ele>2198</ele>
        <time>2022-08-27T10:46:53Z</time>
      </trkpt>
      <trkpt lat="44.86465" lon="5.52332">
        <ele>2201</ele>
        <time>2022-08-27T10:47:10Z</time>
      </trkpt>
      <trkpt lat="44.86469" lon="5.52333">
        <ele>2203</ele>
        <time>2022-08-27T10:47:20Z</time>
      </trkpt>
      <trkpt lat="44.86474" lon="5.52333">
        <ele>2205</ele>
        <time>2022-08-27T10:47:35Z</time>
      </trkpt>
      <trkpt lat="44.86466" lon="5.52345">
        <ele>2208</ele>
        <time>2022-08-27T10:47:55Z</time>
      </trkpt>
      <trkpt lat="44.86471" lon="5.52346">
        <ele>2210</ele>
        <time>2022-08-27T10:48:05Z</time>
      </trkpt>
      <trkpt lat="44.86476" lon="5.52349">
        <ele>2213</ele>
        <time>2022-08-27T10:48:20Z</time>
      </trkpt>
      <trkpt lat="44.8648" lon="5.52349">
        <ele>2214</ele>
        <time>2022-08-27T10:48:30Z</time>
      </trkpt>
      <trkpt lat="44.86486" lon="5.52351">
        <ele>2217</ele>
        <time>2022-08-27T10:48:45Z</time>
      </trkpt>
      <trkpt lat="44.86489" lon="5.52357">
        <ele>2220</ele>
        <time>2022-08-27T10:49:07Z</time>
      </trkpt>
      <trkpt lat="44.86498" lon="5.52361">
        <ele>2224</ele>
        <time>2022-08-27T10:49:28Z</time>
      </trkpt>
      <trkpt lat="44.86502" lon="5.52362">
        <ele>2225</ele>
        <time>2022-08-27T10:49:38Z</time>
      </trkpt>
      <trkpt lat="44.86506" lon="5.52363">
        <ele>2227</ele>
        <time>2022-08-27T10:49:48Z</time>
      </trkpt>
      <trkpt lat="44.86513" lon="5.5236">
        <ele>2228</ele>
        <time>2022-08-27T10:49:58Z</time>
      </trkpt>
      <trkpt lat="44.86517" lon="5.52365">
        <ele>2230</ele>
        <time>2022-08-27T10:50:08Z</time>
      </trkpt>
      <trkpt lat="44.86528" lon="5.52367">
        <ele>2233</ele>
        <time>2022-08-27T10:50:28Z</time>
      </trkpt>
      <trkpt lat="44.86525" lon="5.52373">
        <ele>2235</ele>
        <time>2022-08-27T10:50:48Z</time>
      </trkpt>
      <trkpt lat="44.86536" lon="5.52381">
        <ele>2239</ele>
        <time>2022-08-27T10:51:09Z</time>
      </trkpt>
      <trkpt lat="44.86539" lon="5.52384">
        <ele>2240</ele>
        <time>2022-08-27T10:51:20Z</time>
      </trkpt>
      <trkpt lat="44.86543" lon="5.52388">
        <ele>2242</ele>
        <time>2022-08-27T10:51:30Z</time>
      </trkpt>
      <trkpt lat="44.86555" lon="5.52392">
        <ele>2245</ele>
        <time>2022-08-27T10:51:50Z</time>
      </trkpt>
      <trkpt lat="44.8656" lon="5.52395">
        <ele>2247</ele>
        <time>2022-08-27T10:52:00Z</time>
      </trkpt>
      <trkpt lat="44.86565" lon="5.52396">
        <ele>2248</ele>
        <time>2022-08-27T10:52:10Z</time>
      </trkpt>
      <trkpt lat="44.8657" lon="5.52399">
        <ele>2249</ele>
        <time>2022-08-27T10:52:20Z</time>
      </trkpt>
      <trkpt lat="44.86583" lon="5.52408">
        <ele>2252</ele>
        <time>2022-08-27T10:52:40Z</time>
      </trkpt>
      <trkpt lat="44.86597" lon="5.52412">
        <ele>2253</ele>
        <time>2022-08-27T10:52:54Z</time>
      </trkpt>
      <trkpt lat="44.86603" lon="5.52415">
        <ele>2254</ele>
        <time>2022-08-27T10:53:02Z</time>
      </trkpt>
      <trkpt lat="44.86626" lon="5.52426">
        <ele>2259</ele>
        <time>2022-08-27T10:53:36Z</time>
      </trkpt>
      <trkpt lat="44.86632" lon="5.5243">
        <ele>2260</ele>
        <time>2022-08-27T10:53:44Z</time>
      </trkpt>
      <trkpt lat="44.86639" lon="5.5243">
        <ele>2262</ele>
        <time>2022-08-27T10:53:54Z</time>
      </trkpt>
      <trkpt lat="44.86644" lon="5.52433">
        <ele>2263</ele>
        <time>2022-08-27T10:54:04Z</time>
      </trkpt>
      <trkpt lat="44.86649" lon="5.52434">
        <ele>2263</ele>
        <time>2022-08-27T10:54:09Z</time>
      </trkpt>
      <trkpt lat="44.86659" lon="5.52439">
        <ele>2266</ele>
        <time>2022-08-27T10:54:24Z</time>
      </trkpt>
      <trkpt lat="44.86663" lon="5.52439">
        <ele>2266</ele>
        <time>2022-08-27T10:54:28Z</time>
      </trkpt>
      <trkpt lat="44.86687" lon="5.52447">
        <ele>2270</ele>
        <time>2022-08-27T10:54:57Z</time>
      </trkpt>
      <trkpt lat="44.86692" lon="5.5245">
        <ele>2271</ele>
        <time>2022-08-27T10:55:21Z</time>
      </trkpt>
      <trkpt lat="44.86698" lon="5.52455">
        <ele>2272</ele>
        <time>2022-08-27T10:55:33Z</time>
      </trkpt>
      <trkpt lat="44.86705" lon="5.52457">
        <ele>2273</ele>
        <time>2022-08-27T10:55:42Z</time>
      </trkpt>
      <trkpt lat="44.8671" lon="5.52458">
        <ele>2274</ele>
        <time>2022-08-27T10:55:49Z</time>
      </trkpt>
      <trkpt lat="44.86715" lon="5.52462">
        <ele>2275</ele>
        <time>2022-08-27T10:55:59Z</time>
      </trkpt>
      <trkpt lat="44.86722" lon="5.52463">
        <ele>2277</ele>
        <time>2022-08-27T10:56:09Z</time>
      </trkpt>
      <trkpt lat="44.86739" lon="5.5247">
        <ele>2281</ele>
        <time>2022-08-27T10:56:39Z</time>
      </trkpt>
      <trkpt lat="44.86745" lon="5.52474">
        <ele>2283</ele>
        <time>2022-08-27T10:56:50Z</time>
      </trkpt>
      <trkpt lat="44.8675" lon="5.52479">
        <ele>2284</ele>
        <time>2022-08-27T10:57:00Z</time>
      </trkpt>
      <trkpt lat="44.86755" lon="5.52481">
        <ele>2286</ele>
        <time>2022-08-27T10:57:10Z</time>
      </trkpt>
      <trkpt lat="44.8676" lon="5.52487">
        <ele>2289</ele>
        <time>2022-08-27T10:57:27Z</time>
      </trkpt>
      <trkpt lat="44.86765" lon="5.52491">
        <ele>2291</ele>
        <time>2022-08-27T10:57:39Z</time>
      </trkpt>
      <trkpt lat="44.86767" lon="5.52496">
        <ele>2292</ele>
        <time>2022-08-27T10:57:45Z</time>
      </trkpt>
      <trkpt lat="44.86772" lon="5.52498">
        <ele>2292</ele>
        <time>2022-08-27T10:57:49Z</time>
      </trkpt>
      <trkpt lat="44.86777" lon="5.525">
        <ele>2293</ele>
        <time>2022-08-27T10:57:55Z</time>
      </trkpt>
      <trkpt lat="44.86784" lon="5.525">
        <ele>2293</ele>
        <time>2022-08-27T10:58:01Z</time>
      </trkpt>
      <trkpt lat="44.86788" lon="5.52502">
        <ele>2292</ele>
        <time>2022-08-27T10:58:05Z</time>
      </trkpt>
      <trkpt lat="44.86797" lon="5.52502">
        <ele>2292</ele>
        <time>2022-08-27T10:58:12Z</time>
      </trkpt>
      <trkpt lat="44.86801" lon="5.52501">
        <ele>2291</ele>
        <time>2022-08-27T10:58:15Z</time>
      </trkpt>
      <trkpt lat="44.86805" lon="5.52501">
        <ele>2291</ele>
        <time>2022-08-27T10:58:19Z</time>
      </trkpt>
      <trkpt lat="44.8681" lon="5.525">
        <ele>2291</ele>
        <time>2022-08-27T10:58:23Z</time>
      </trkpt>
      <trkpt lat="44.86815" lon="5.52502">
        <ele>2290</ele>
        <time>2022-08-27T10:58:27Z</time>
      </trkpt>
      <trkpt lat="44.86819" lon="5.525">
        <ele>2290</ele>
        <time>2022-08-27T10:58:31Z</time>
      </trkpt>
      <trkpt lat="44.86824" lon="5.525">
        <ele>2290</ele>
        <time>2022-08-27T10:58:38Z</time>
      </trkpt>
      <trkpt lat="44.86834" lon="5.52501">
        <ele>2289</ele>
        <time>2022-08-27T10:58:50Z</time>
      </trkpt>
      <trkpt lat="44.86839" lon="5.525">
        <ele>2289</ele>
        <time>2022-08-27T10:58:54Z</time>
      </trkpt>
      <trkpt lat="44.86874" lon="5.52505">
        <ele>2288</ele>
        <time>2022-08-27T10:59:23Z</time>
      </trkpt>
      <trkpt lat="44.86878" lon="5.52508">
        <ele>2289</ele>
        <time>2022-08-27T10:59:31Z</time>
      </trkpt>
      <trkpt lat="44.86884" lon="5.5251">
        <ele>2291</ele>
        <time>2022-08-27T10:59:43Z</time>
      </trkpt>
      <trkpt lat="44.86889" lon="5.52515">
        <ele>2292</ele>
        <time>2022-08-27T10:59:53Z</time>
      </trkpt>
      <trkpt lat="44.86895" lon="5.52518">
        <ele>2293</ele>
        <time>2022-08-27T11:00:03Z</time>
      </trkpt>
      <trkpt lat="44.86901" lon="5.52523">
        <ele>2295</ele>
        <time>2022-08-27T11:00:13Z</time>
      </trkpt>
      <trkpt lat="44.86917" lon="5.52534">
        <ele>2299</ele>
        <time>2022-08-27T11:00:43Z</time>
      </trkpt>
      <trkpt lat="44.86922" lon="5.52537">
        <ele>2300</ele>
        <time>2022-08-27T11:00:53Z</time>
      </trkpt>
      <trkpt lat="44.86925" lon="5.52542">
        <ele>2302</ele>
        <time>2022-08-27T11:01:03Z</time>
      </trkpt>
      <trkpt lat="44.86922" lon="5.52549">
        <ele>2304</ele>
        <time>2022-08-27T11:01:18Z</time>
      </trkpt>
      <trkpt lat="44.86917" lon="5.52552">
        <ele>2305</ele>
        <time>2022-08-27T11:01:28Z</time>
      </trkpt>
      <trkpt lat="44.86911" lon="5.52558">
        <ele>2307</ele>
        <time>2022-08-27T11:01:40Z</time>
      </trkpt>
      <trkpt lat="44.86907" lon="5.52566">
        <ele>2309</ele>
        <time>2022-08-27T11:01:52Z</time>
      </trkpt>
      <trkpt lat="44.86918" lon="5.52571">
        <ele>2312</ele>
        <time>2022-08-27T11:02:13Z</time>
      </trkpt>
      <trkpt lat="44.86922" lon="5.52575">
        <ele>2314</ele>
        <time>2022-08-27T11:02:23Z</time>
      </trkpt>
      <trkpt lat="44.86935" lon="5.52588">
        <ele>2318</ele>
        <time>2022-08-27T11:02:53Z</time>
      </trkpt>
      <trkpt lat="44.8694" lon="5.52591">
        <ele>2320</ele>
        <time>2022-08-27T11:03:03Z</time>
      </trkpt>
      <trkpt lat="44.86944" lon="5.52597">
        <ele>2322</ele>
        <time>2022-08-27T11:03:13Z</time>
      </trkpt>
      <trkpt lat="44.86953" lon="5.52606">
        <ele>2325</ele>
        <time>2022-08-27T11:03:33Z</time>
      </trkpt>
      <trkpt lat="44.86963" lon="5.52618">
        <ele>2328</ele>
        <time>2022-08-27T11:03:57Z</time>
      </trkpt>
      <trkpt lat="44.8697" lon="5.5263">
        <ele>2332</ele>
        <time>2022-08-27T11:04:23Z</time>
      </trkpt>
      <trkpt lat="44.86974" lon="5.52638">
        <ele>2334</ele>
        <time>2022-08-27T11:04:33Z</time>
      </trkpt>
      <trkpt lat="44.86976" lon="5.52644">
        <ele>2335</ele>
        <time>2022-08-27T11:04:43Z</time>
      </trkpt>
      <trkpt lat="44.86974" lon="5.52653">
        <ele>2338</ele>
        <time>2022-08-27T11:04:58Z</time>
      </trkpt>
      <trkpt lat="44.86975" lon="5.5266">
        <ele>2340</ele>
        <time>2022-08-27T11:05:13Z</time>
      </trkpt>
      <trkpt lat="44.86977" lon="5.52665">
        <ele>2340</ele>
        <time>2022-08-27T11:05:33Z</time>
      </trkpt>
      <trkpt lat="44.86975" lon="5.52669">
        <ele>2343</ele>
        <time>2022-08-27T11:10:30Z</time>
      </trkpt>
      <trkpt lat="44.86973" lon="5.52662">
        <ele>2343</ele>
        <time>2022-08-27T11:13:51Z</time>
      </trkpt>
      <trkpt lat="44.86977" lon="5.52659">
        <ele>2343</ele>
        <time>2022-08-27T11:15:23Z</time>
      </trkpt>
      <trkpt lat="44.86979" lon="5.52665">
        <ele>2343</ele>
        <time>2022-08-27T11:21:46Z</time>
      </trkpt>
      <trkpt lat="44.86986" lon="5.52661">
        <ele>2343</ele>
        <time>2022-08-27T11:23:04Z</time>
      </trkpt>
      <trkpt lat="44.86994" lon="5.52657">
        <ele>2342</ele>
        <time>2022-08-27T11:23:14Z</time>
      </trkpt>
      <trkpt lat="44.86999" lon="5.52656">
        <ele>2341</ele>
        <time>2022-08-27T11:23:19Z</time>
      </trkpt>
      <trkpt lat="44.87014" lon="5.52652">
        <ele>2338</ele>
        <time>2022-08-27T11:23:39Z</time>
      </trkpt>
      <trkpt lat="44.87022" lon="5.52648">
        <ele>2336</ele>
        <time>2022-08-27T11:24:51Z</time>
      </trkpt>
      <trkpt lat="44.87034" lon="5.52643">
        <ele>2333</ele>
        <time>2022-08-27T11:25:07Z</time>
      </trkpt>
      <trkpt lat="44.87037" lon="5.5264">
        <ele>2331</ele>
        <time>2022-08-27T11:25:14Z</time>
      </trkpt>
      <trkpt lat="44.87042" lon="5.52638">
        <ele>2330</ele>
        <time>2022-08-27T11:25:39Z</time>
      </trkpt>
      <trkpt lat="44.87046" lon="5.52639">
        <ele>2330</ele>
        <time>2022-08-27T11:25:43Z</time>
      </trkpt>
      <trkpt lat="44.87051" lon="5.52634">
        <ele>2328</ele>
        <time>2022-08-27T11:25:50Z</time>
      </trkpt>
      <trkpt lat="44.8707" lon="5.52634">
        <ele>2324</ele>
        <time>2022-08-27T11:26:10Z</time>
      </trkpt>
      <trkpt lat="44.87077" lon="5.5263">
        <ele>2322</ele>
        <time>2022-08-27T11:26:18Z</time>
      </trkpt>
      <trkpt lat="44.87106" lon="5.5263">
        <ele>2317</ele>
        <time>2022-08-27T11:26:45Z</time>
      </trkpt>
      <trkpt lat="44.87119" lon="5.52623">
        <ele>2313</ele>
        <time>2022-08-27T11:27:01Z</time>
      </trkpt>
      <trkpt lat="44.87123" lon="5.52619">
        <ele>2310</ele>
        <time>2022-08-27T11:27:12Z</time>
      </trkpt>
      <trkpt lat="44.87127" lon="5.52622">
        <ele>2310</ele>
        <time>2022-08-27T11:27:17Z</time>
      </trkpt>
      <trkpt lat="44.87132" lon="5.52622">
        <ele>2310</ele>
        <time>2022-08-27T11:27:21Z</time>
      </trkpt>
      <trkpt lat="44.87136" lon="5.52621">
        <ele>2309</ele>
        <time>2022-08-27T11:27:26Z</time>
      </trkpt>
      <trkpt lat="44.87141" lon="5.52618">
        <ele>2308</ele>
        <time>2022-08-27T11:27:31Z</time>
      </trkpt>
      <trkpt lat="44.87158" lon="5.52614">
        <ele>2304</ele>
        <time>2022-08-27T11:27:50Z</time>
      </trkpt>
      <trkpt lat="44.87187" lon="5.526">
        <ele>2297</ele>
        <time>2022-08-27T11:28:20Z</time>
      </trkpt>
      <trkpt lat="44.87191" lon="5.52598">
        <ele>2296</ele>
        <time>2022-08-27T11:28:23Z</time>
      </trkpt>
      <trkpt lat="44.87205" lon="5.52595">
        <ele>2293</ele>
        <time>2022-08-27T11:28:35Z</time>
      </trkpt>
      <trkpt lat="44.87211" lon="5.52593">
        <ele>2290</ele>
        <time>2022-08-27T11:28:46Z</time>
      </trkpt>
      <trkpt lat="44.87234" lon="5.52587">
        <ele>2284</ele>
        <time>2022-08-27T11:29:12Z</time>
      </trkpt>
      <trkpt lat="44.87239" lon="5.52583">
        <ele>2282</ele>
        <time>2022-08-27T11:29:20Z</time>
      </trkpt>
      <trkpt lat="44.87244" lon="5.52583">
        <ele>2281</ele>
        <time>2022-08-27T11:29:25Z</time>
      </trkpt>
      <trkpt lat="44.87253" lon="5.52593">
        <ele>2278</ele>
        <time>2022-08-27T11:29:57Z</time>
      </trkpt>
      <trkpt lat="44.87262" lon="5.52585">
        <ele>2275</ele>
        <time>2022-08-27T11:30:06Z</time>
      </trkpt>
      <trkpt lat="44.87266" lon="5.52586">
        <ele>2274</ele>
        <time>2022-08-27T11:30:10Z</time>
      </trkpt>
      <trkpt lat="44.87283" lon="5.52574">
        <ele>2269</ele>
        <time>2022-08-27T11:30:25Z</time>
      </trkpt>
      <trkpt lat="44.87288" lon="5.52568">
        <ele>2267</ele>
        <time>2022-08-27T11:30:32Z</time>
      </trkpt>
      <trkpt lat="44.87293" lon="5.52566">
        <ele>2265</ele>
        <time>2022-08-27T11:30:38Z</time>
      </trkpt>
      <trkpt lat="44.873" lon="5.52561">
        <ele>2262</ele>
        <time>2022-08-27T11:30:47Z</time>
      </trkpt>
      <trkpt lat="44.87316" lon="5.52554">
        <ele>2258</ele>
        <time>2022-08-27T11:31:12Z</time>
      </trkpt>
      <trkpt lat="44.87319" lon="5.5255">
        <ele>2257</ele>
        <time>2022-08-27T11:31:19Z</time>
      </trkpt>
      <trkpt lat="44.87324" lon="5.52549">
        <ele>2256</ele>
        <time>2022-08-27T11:31:25Z</time>
      </trkpt>
      <trkpt lat="44.87337" lon="5.52542">
        <ele>2254</ele>
        <time>2022-08-27T11:31:37Z</time>
      </trkpt>
      <trkpt lat="44.87354" lon="5.52535">
        <ele>2251</ele>
        <time>2022-08-27T11:31:52Z</time>
      </trkpt>
      <trkpt lat="44.87358" lon="5.52536">
        <ele>2250</ele>
        <time>2022-08-27T11:31:55Z</time>
      </trkpt>
      <trkpt lat="44.87363" lon="5.52534">
        <ele>2250</ele>
        <time>2022-08-27T11:31:59Z</time>
      </trkpt>
      <trkpt lat="44.87378" lon="5.52524">
        <ele>2246</ele>
        <time>2022-08-27T11:32:15Z</time>
      </trkpt>
      <trkpt lat="44.87383" lon="5.52525">
        <ele>2246</ele>
        <time>2022-08-27T11:32:19Z</time>
      </trkpt>
      <trkpt lat="44.87386" lon="5.52522">
        <ele>2245</ele>
        <time>2022-08-27T11:32:23Z</time>
      </trkpt>
      <trkpt lat="44.87397" lon="5.52518">
        <ele>2243</ele>
        <time>2022-08-27T11:32:31Z</time>
      </trkpt>
      <trkpt lat="44.87401" lon="5.52515">
        <ele>2242</ele>
        <time>2022-08-27T11:32:34Z</time>
      </trkpt>
      <trkpt lat="44.87405" lon="5.5251">
        <ele>2241</ele>
        <time>2022-08-27T11:32:38Z</time>
      </trkpt>
      <trkpt lat="44.87409" lon="5.52509">
        <ele>2240</ele>
        <time>2022-08-27T11:32:41Z</time>
      </trkpt>
      <trkpt lat="44.87431" lon="5.52491">
        <ele>2236</ele>
        <time>2022-08-27T11:33:00Z</time>
      </trkpt>
      <trkpt lat="44.87434" lon="5.52486">
        <ele>2235</ele>
        <time>2022-08-27T11:33:03Z</time>
      </trkpt>
      <trkpt lat="44.87435" lon="5.5248">
        <ele>2234</ele>
        <time>2022-08-27T11:33:07Z</time>
      </trkpt>
      <trkpt lat="44.87441" lon="5.52475">
        <ele>2231</ele>
        <time>2022-08-27T11:33:15Z</time>
      </trkpt>
      <trkpt lat="44.87444" lon="5.5247">
        <ele>2231</ele>
        <time>2022-08-27T11:33:19Z</time>
      </trkpt>
      <trkpt lat="44.87448" lon="5.52461">
        <ele>2229</ele>
        <time>2022-08-27T11:33:30Z</time>
      </trkpt>
      <trkpt lat="44.8747" lon="5.52438">
        <ele>2225</ele>
        <time>2022-08-27T11:33:55Z</time>
      </trkpt>
      <trkpt lat="44.87474" lon="5.52435">
        <ele>2225</ele>
        <time>2022-08-27T11:34:00Z</time>
      </trkpt>
      <trkpt lat="44.8749" lon="5.52424">
        <ele>2222</ele>
        <time>2022-08-27T11:34:20Z</time>
      </trkpt>
      <trkpt lat="44.87507" lon="5.52409">
        <ele>2217</ele>
        <time>2022-08-27T11:34:42Z</time>
      </trkpt>
      <trkpt lat="44.87516" lon="5.52403">
        <ele>2215</ele>
        <time>2022-08-27T11:34:54Z</time>
      </trkpt>
      <trkpt lat="44.87525" lon="5.52395">
        <ele>2213</ele>
        <time>2022-08-27T11:35:09Z</time>
      </trkpt>
      <trkpt lat="44.87534" lon="5.52391">
        <ele>2211</ele>
        <time>2022-08-27T11:35:18Z</time>
      </trkpt>
      <trkpt lat="44.87538" lon="5.5239">
        <ele>2211</ele>
        <time>2022-08-27T11:35:22Z</time>
      </trkpt>
      <trkpt lat="44.87546" lon="5.52384">
        <ele>2209</ele>
        <time>2022-08-27T11:35:30Z</time>
      </trkpt>
      <trkpt lat="44.87559" lon="5.52382">
        <ele>2207</ele>
        <time>2022-08-27T11:35:40Z</time>
      </trkpt>
      <trkpt lat="44.87563" lon="5.52379">
        <ele>2205</ele>
        <time>2022-08-27T11:35:47Z</time>
      </trkpt>
      <trkpt lat="44.87566" lon="5.52373">
        <ele>2203</ele>
        <time>2022-08-27T11:35:57Z</time>
      </trkpt>
      <trkpt lat="44.8757" lon="5.5237">
        <ele>2202</ele>
        <time>2022-08-27T11:36:02Z</time>
      </trkpt>
      <trkpt lat="44.87575" lon="5.5237">
        <ele>2201</ele>
        <time>2022-08-27T11:36:07Z</time>
      </trkpt>
      <trkpt lat="44.8758" lon="5.52367">
        <ele>2199</ele>
        <time>2022-08-27T11:36:14Z</time>
      </trkpt>
      <trkpt lat="44.87594" lon="5.52353">
        <ele>2192</ele>
        <time>2022-08-27T11:36:43Z</time>
      </trkpt>
      <trkpt lat="44.87598" lon="5.52349">
        <ele>2189</ele>
        <time>2022-08-27T11:36:58Z</time>
      </trkpt>
      <trkpt lat="44.87603" lon="5.52344">
        <ele>2186</ele>
        <time>2022-08-27T11:37:08Z</time>
      </trkpt>
      <trkpt lat="44.87607" lon="5.52344">
        <ele>2185</ele>
        <time>2022-08-27T11:37:14Z</time>
      </trkpt>
      <trkpt lat="44.87605" lon="5.52335">
        <ele>2183</ele>
        <time>2022-08-27T11:37:26Z</time>
      </trkpt>
      <trkpt lat="44.87608" lon="5.52329">
        <ele>2180</ele>
        <time>2022-08-27T11:37:37Z</time>
      </trkpt>
      <trkpt lat="44.87615" lon="5.52328">
        <ele>2178</ele>
        <time>2022-08-27T11:37:47Z</time>
      </trkpt>
      <trkpt lat="44.87621" lon="5.52322">
        <ele>2174</ele>
        <time>2022-08-27T11:38:08Z</time>
      </trkpt>
      <trkpt lat="44.87618" lon="5.52317">
        <ele>2173</ele>
        <time>2022-08-27T11:38:12Z</time>
      </trkpt>
      <trkpt lat="44.87614" lon="5.52313">
        <ele>2172</ele>
        <time>2022-08-27T11:38:19Z</time>
      </trkpt>
      <trkpt lat="44.87611" lon="5.52305">
        <ele>2169</ele>
        <time>2022-08-27T11:38:30Z</time>
      </trkpt>
      <trkpt lat="44.87616" lon="5.52305">
        <ele>2168</ele>
        <time>2022-08-27T11:38:40Z</time>
      </trkpt>
      <trkpt lat="44.87617" lon="5.52297">
        <ele>2167</ele>
        <time>2022-08-27T11:38:44Z</time>
      </trkpt>
      <trkpt lat="44.87622" lon="5.52296">
        <ele>2165</ele>
        <time>2022-08-27T11:38:53Z</time>
      </trkpt>
      <trkpt lat="44.87629" lon="5.52297">
        <ele>2163</ele>
        <time>2022-08-27T11:39:03Z</time>
      </trkpt>
      <trkpt lat="44.87633" lon="5.52296">
        <ele>2161</ele>
        <time>2022-08-27T11:39:07Z</time>
      </trkpt>
      <trkpt lat="44.87638" lon="5.52293">
        <ele>2159</ele>
        <time>2022-08-27T11:39:15Z</time>
      </trkpt>
      <trkpt lat="44.87642" lon="5.52292">
        <ele>2158</ele>
        <time>2022-08-27T11:39:22Z</time>
      </trkpt>
      <trkpt lat="44.8764" lon="5.52286">
        <ele>2156</ele>
        <time>2022-08-27T11:39:28Z</time>
      </trkpt>
      <trkpt lat="44.87642" lon="5.52279">
        <ele>2154</ele>
        <time>2022-08-27T11:39:39Z</time>
      </trkpt>
      <trkpt lat="44.87649" lon="5.52282">
        <ele>2152</ele>
        <time>2022-08-27T11:39:49Z</time>
      </trkpt>
      <trkpt lat="44.87648" lon="5.52272">
        <ele>2150</ele>
        <time>2022-08-27T11:39:58Z</time>
      </trkpt>
      <trkpt lat="44.87653" lon="5.52274">
        <ele>2149</ele>
        <time>2022-08-27T11:40:03Z</time>
      </trkpt>
      <trkpt lat="44.87658" lon="5.5227">
        <ele>2147</ele>
        <time>2022-08-27T11:40:11Z</time>
      </trkpt>
      <trkpt lat="44.87662" lon="5.52268">
        <ele>2145</ele>
        <time>2022-08-27T11:40:21Z</time>
      </trkpt>
      <trkpt lat="44.87661" lon="5.52259">
        <ele>2142</ele>
        <time>2022-08-27T11:40:31Z</time>
      </trkpt>
      <trkpt lat="44.87666" lon="5.52256">
        <ele>2139</ele>
        <time>2022-08-27T11:40:41Z</time>
      </trkpt>
      <trkpt lat="44.87672" lon="5.52251">
        <ele>2138</ele>
        <time>2022-08-27T11:40:48Z</time>
      </trkpt>
      <trkpt lat="44.87675" lon="5.52257">
        <ele>2137</ele>
        <time>2022-08-27T11:40:52Z</time>
      </trkpt>
      <trkpt lat="44.8768" lon="5.52262">
        <ele>2135</ele>
        <time>2022-08-27T11:41:00Z</time>
      </trkpt>
      <trkpt lat="44.87686" lon="5.52262">
        <ele>2133</ele>
        <time>2022-08-27T11:41:07Z</time>
      </trkpt>
      <trkpt lat="44.87694" lon="5.52256">
        <ele>2131</ele>
        <time>2022-08-27T11:41:16Z</time>
      </trkpt>
      <trkpt lat="44.87699" lon="5.52249">
        <ele>2129</ele>
        <time>2022-08-27T11:41:23Z</time>
      </trkpt>
      <trkpt lat="44.87706" lon="5.52245">
        <ele>2127</ele>
        <time>2022-08-27T11:41:31Z</time>
      </trkpt>
      <trkpt lat="44.8771" lon="5.52238">
        <ele>2126</ele>
        <time>2022-08-27T11:41:38Z</time>
      </trkpt>
      <trkpt lat="44.87718" lon="5.52229">
        <ele>2124</ele>
        <time>2022-08-27T11:41:49Z</time>
      </trkpt>
      <trkpt lat="44.87723" lon="5.52229">
        <ele>2123</ele>
        <time>2022-08-27T11:41:53Z</time>
      </trkpt>
      <trkpt lat="44.87726" lon="5.52224">
        <ele>2122</ele>
        <time>2022-08-27T11:41:57Z</time>
      </trkpt>
      <trkpt lat="44.87732" lon="5.52221">
        <ele>2120</ele>
        <time>2022-08-27T11:42:04Z</time>
      </trkpt>
      <trkpt lat="44.87733" lon="5.52213">
        <ele>2118</ele>
        <time>2022-08-27T11:42:11Z</time>
      </trkpt>
      <trkpt lat="44.87737" lon="5.5221">
        <ele>2117</ele>
        <time>2022-08-27T11:42:21Z</time>
      </trkpt>
      <trkpt lat="44.87743" lon="5.52212">
        <ele>2115</ele>
        <time>2022-08-27T11:42:56Z</time>
      </trkpt>
      <trkpt lat="44.87748" lon="5.52211">
        <ele>2115</ele>
        <time>2022-08-27T11:43:00Z</time>
      </trkpt>
      <trkpt lat="44.87753" lon="5.52216">
        <ele>2113</ele>
        <time>2022-08-27T11:43:09Z</time>
      </trkpt>
      <trkpt lat="44.87761" lon="5.52219">
        <ele>2111</ele>
        <time>2022-08-27T11:43:18Z</time>
      </trkpt>
      <trkpt lat="44.87763" lon="5.52225">
        <ele>2110</ele>
        <time>2022-08-27T11:43:23Z</time>
      </trkpt>
      <trkpt lat="44.87772" lon="5.52229">
        <ele>2109</ele>
        <time>2022-08-27T11:43:31Z</time>
      </trkpt>
      <trkpt lat="44.87775" lon="5.52234">
        <ele>2108</ele>
        <time>2022-08-27T11:43:35Z</time>
      </trkpt>
      <trkpt lat="44.87779" lon="5.52237">
        <ele>2107</ele>
        <time>2022-08-27T11:43:39Z</time>
      </trkpt>
      <trkpt lat="44.87789" lon="5.5224">
        <ele>2105</ele>
        <time>2022-08-27T11:43:48Z</time>
      </trkpt>
      <trkpt lat="44.87807" lon="5.52247">
        <ele>2103</ele>
        <time>2022-08-27T11:44:04Z</time>
      </trkpt>
      <trkpt lat="44.87821" lon="5.52247">
        <ele>2103</ele>
        <time>2022-08-27T11:44:17Z</time>
      </trkpt>
      <trkpt lat="44.87825" lon="5.52245">
        <ele>2103</ele>
        <time>2022-08-27T11:44:21Z</time>
      </trkpt>
      <trkpt lat="44.87851" lon="5.52244">
        <ele>2101</ele>
        <time>2022-08-27T11:44:44Z</time>
      </trkpt>
      <trkpt lat="44.87856" lon="5.52243">
        <ele>2100</ele>
        <time>2022-08-27T11:44:49Z</time>
      </trkpt>
      <trkpt lat="44.87862" lon="5.52245">
        <ele>2099</ele>
        <time>2022-08-27T11:45:08Z</time>
      </trkpt>
      <trkpt lat="44.87866" lon="5.52244">
        <ele>2099</ele>
        <time>2022-08-27T11:45:12Z</time>
      </trkpt>
      <trkpt lat="44.8787" lon="5.52245">
        <ele>2099</ele>
        <time>2022-08-27T11:45:16Z</time>
      </trkpt>
      <trkpt lat="44.87874" lon="5.52248">
        <ele>2098</ele>
        <time>2022-08-27T11:45:20Z</time>
      </trkpt>
      <trkpt lat="44.87876" lon="5.5224">
        <ele>2096</ele>
        <time>2022-08-27T11:45:26Z</time>
      </trkpt>
      <trkpt lat="44.8788" lon="5.52237">
        <ele>2094</ele>
        <time>2022-08-27T11:45:39Z</time>
      </trkpt>
      <trkpt lat="44.87878" lon="5.52229">
        <ele>2094</ele>
        <time>2022-08-27T11:45:47Z</time>
      </trkpt>
      <trkpt lat="44.87878" lon="5.52235">
        <ele>2093</ele>
        <time>2022-08-27T11:46:38Z</time>
      </trkpt>
      <trkpt lat="44.87884" lon="5.52235">
        <ele>2093</ele>
        <time>2022-08-27T11:47:18Z</time>
      </trkpt>
      <trkpt lat="44.87887" lon="5.52242">
        <ele>2090</ele>
        <time>2022-08-27T11:48:45Z</time>
      </trkpt>
      <trkpt lat="44.8789" lon="5.52248">
        <ele>2090</ele>
        <time>2022-08-27T11:48:51Z</time>
      </trkpt>
      <trkpt lat="44.87896" lon="5.52251">
        <ele>2087</ele>
        <time>2022-08-27T11:49:03Z</time>
      </trkpt>
      <trkpt lat="44.87901" lon="5.52253">
        <ele>2085</ele>
        <time>2022-08-27T11:49:13Z</time>
      </trkpt>
      <trkpt lat="44.87901" lon="5.52245">
        <ele>2082</ele>
        <time>2022-08-27T11:49:28Z</time>
      </trkpt>
      <trkpt lat="44.87901" lon="5.52237">
        <ele>2079</ele>
        <time>2022-08-27T11:49:43Z</time>
      </trkpt>
      <trkpt lat="44.87907" lon="5.52234">
        <ele>2076</ele>
        <time>2022-08-27T11:49:54Z</time>
      </trkpt>
      <trkpt lat="44.8791" lon="5.52244">
        <ele>2074</ele>
        <time>2022-08-27T11:50:05Z</time>
      </trkpt>
      <trkpt lat="44.87925" lon="5.52253">
        <ele>2067</ele>
        <time>2022-08-27T11:50:42Z</time>
      </trkpt>
      <trkpt lat="44.8793" lon="5.52254">
        <ele>2067</ele>
        <time>2022-08-27T11:50:46Z</time>
      </trkpt>
      <trkpt lat="44.87934" lon="5.52259">
        <ele>2066</ele>
        <time>2022-08-27T11:50:54Z</time>
      </trkpt>
      <trkpt lat="44.87942" lon="5.52281">
        <ele>2063</ele>
        <time>2022-08-27T11:51:13Z</time>
      </trkpt>
      <trkpt lat="44.87946" lon="5.52286">
        <ele>2062</ele>
        <time>2022-08-27T11:51:20Z</time>
      </trkpt>
      <trkpt lat="44.87951" lon="5.52289">
        <ele>2060</ele>
        <time>2022-08-27T11:51:30Z</time>
      </trkpt>
      <trkpt lat="44.8796" lon="5.52298">
        <ele>2057</ele>
        <time>2022-08-27T11:51:46Z</time>
      </trkpt>
      <trkpt lat="44.87963" lon="5.52302">
        <ele>2055</ele>
        <time>2022-08-27T11:51:59Z</time>
      </trkpt>
      <trkpt lat="44.87968" lon="5.52306">
        <ele>2052</ele>
        <time>2022-08-27T11:52:17Z</time>
      </trkpt>
      <trkpt lat="44.87967" lon="5.52296">
        <ele>2050</ele>
        <time>2022-08-27T11:52:33Z</time>
      </trkpt>
      <trkpt lat="44.87973" lon="5.52286">
        <ele>2047</ele>
        <time>2022-08-27T11:52:46Z</time>
      </trkpt>
      <trkpt lat="44.87968" lon="5.52281">
        <ele>2045</ele>
        <time>2022-08-27T11:53:01Z</time>
      </trkpt>
      <trkpt lat="44.87968" lon="5.52267">
        <ele>2042</ele>
        <time>2022-08-27T11:53:21Z</time>
      </trkpt>
      <trkpt lat="44.87972" lon="5.52265">
        <ele>2038</ele>
        <time>2022-08-27T11:53:46Z</time>
      </trkpt>
      <trkpt lat="44.87975" lon="5.5227">
        <ele>2036</ele>
        <time>2022-08-27T11:53:56Z</time>
      </trkpt>
      <trkpt lat="44.8798" lon="5.52274">
        <ele>2034</ele>
        <time>2022-08-27T11:56:10Z</time>
      </trkpt>
      <trkpt lat="44.87986" lon="5.52276">
        <ele>2032</ele>
        <time>2022-08-27T11:57:33Z</time>
      </trkpt>
      <trkpt lat="44.8799" lon="5.52281">
        <ele>2031</ele>
        <time>2022-08-27T11:57:43Z</time>
      </trkpt>
      <trkpt lat="44.87994" lon="5.52285">
        <ele>2029</ele>
        <time>2022-08-27T11:57:48Z</time>
      </trkpt>
      <trkpt lat="44.87998" lon="5.52291">
        <ele>2028</ele>
        <time>2022-08-27T11:57:55Z</time>
      </trkpt>
      <trkpt lat="44.88003" lon="5.52296">
        <ele>2026</ele>
        <time>2022-08-27T11:58:06Z</time>
      </trkpt>
      <trkpt lat="44.88011" lon="5.52307">
        <ele>2023</ele>
        <time>2022-08-27T11:58:22Z</time>
      </trkpt>
      <trkpt lat="44.88016" lon="5.52306">
        <ele>2020</ele>
        <time>2022-08-27T11:58:32Z</time>
      </trkpt>
      <trkpt lat="44.88013" lon="5.52297">
        <ele>2018</ele>
        <time>2022-08-27T11:58:42Z</time>
      </trkpt>
      <trkpt lat="44.88014" lon="5.52291">
        <ele>2016</ele>
        <time>2022-08-27T11:58:52Z</time>
      </trkpt>
      <trkpt lat="44.88018" lon="5.52285">
        <ele>2014</ele>
        <time>2022-08-27T11:59:02Z</time>
      </trkpt>
      <trkpt lat="44.88026" lon="5.52297">
        <ele>2010</ele>
        <time>2022-08-27T11:59:19Z</time>
      </trkpt>
      <trkpt lat="44.88033" lon="5.52302">
        <ele>2008</ele>
        <time>2022-08-27T11:59:29Z</time>
      </trkpt>
      <trkpt lat="44.8804" lon="5.52302">
        <ele>2005</ele>
        <time>2022-08-27T11:59:40Z</time>
      </trkpt>
      <trkpt lat="44.88043" lon="5.52306">
        <ele>2004</ele>
        <time>2022-08-27T11:59:45Z</time>
      </trkpt>
      <trkpt lat="44.88041" lon="5.52324">
        <ele>1999</ele>
        <time>2022-08-27T12:00:11Z</time>
      </trkpt>
      <trkpt lat="44.88046" lon="5.52326">
        <ele>1997</ele>
        <time>2022-08-27T12:00:15Z</time>
      </trkpt>
      <trkpt lat="44.8805" lon="5.52326">
        <ele>1994</ele>
        <time>2022-08-27T12:00:24Z</time>
      </trkpt>
      <trkpt lat="44.88055" lon="5.52327">
        <ele>1991</ele>
        <time>2022-08-27T12:00:40Z</time>
      </trkpt>
      <trkpt lat="44.88053" lon="5.52335">
        <ele>1987</ele>
        <time>2022-08-27T12:00:55Z</time>
      </trkpt>
      <trkpt lat="44.88059" lon="5.52334">
        <ele>1985</ele>
        <time>2022-08-27T12:01:05Z</time>
      </trkpt>
      <trkpt lat="44.88066" lon="5.52336">
        <ele>1982</ele>
        <time>2022-08-27T12:01:20Z</time>
      </trkpt>
      <trkpt lat="44.88084" lon="5.52322">
        <ele>1976</ele>
        <time>2022-08-27T12:01:49Z</time>
      </trkpt>
      <trkpt lat="44.88088" lon="5.5232">
        <ele>1973</ele>
        <time>2022-08-27T12:02:01Z</time>
      </trkpt>
      <trkpt lat="44.88095" lon="5.5231">
        <ele>1971</ele>
        <time>2022-08-27T12:02:11Z</time>
      </trkpt>
      <trkpt lat="44.88097" lon="5.52305">
        <ele>1969</ele>
        <time>2022-08-27T12:02:21Z</time>
      </trkpt>
      <trkpt lat="44.88099" lon="5.52297">
        <ele>1968</ele>
        <time>2022-08-27T12:02:33Z</time>
      </trkpt>
      <trkpt lat="44.88096" lon="5.52289">
        <ele>1966</ele>
        <time>2022-08-27T12:02:45Z</time>
      </trkpt>
      <trkpt lat="44.88093" lon="5.52279">
        <ele>1963</ele>
        <time>2022-08-27T12:02:56Z</time>
      </trkpt>
      <trkpt lat="44.88092" lon="5.52271">
        <ele>1962</ele>
        <time>2022-08-27T12:03:06Z</time>
      </trkpt>
      <trkpt lat="44.88088" lon="5.5226">
        <ele>1960</ele>
        <time>2022-08-27T12:03:16Z</time>
      </trkpt>
      <trkpt lat="44.88086" lon="5.52255">
        <ele>1959</ele>
        <time>2022-08-27T12:03:20Z</time>
      </trkpt>
      <trkpt lat="44.88082" lon="5.52252">
        <ele>1958</ele>
        <time>2022-08-27T12:03:25Z</time>
      </trkpt>
      <trkpt lat="44.88076" lon="5.52232">
        <ele>1955</ele>
        <time>2022-08-27T12:03:48Z</time>
      </trkpt>
      <trkpt lat="44.88075" lon="5.52222">
        <ele>1952</ele>
        <time>2022-08-27T12:03:59Z</time>
      </trkpt>
      <trkpt lat="44.88074" lon="5.52214">
        <ele>1952</ele>
        <time>2022-08-27T12:04:03Z</time>
      </trkpt>
      <trkpt lat="44.88071" lon="5.52209">
        <ele>1950</ele>
        <time>2022-08-27T12:04:12Z</time>
      </trkpt>
      <trkpt lat="44.88075" lon="5.52208">
        <ele>1947</ele>
        <time>2022-08-27T12:04:27Z</time>
      </trkpt>
      <trkpt lat="44.88081" lon="5.52209">
        <ele>1946</ele>
        <time>2022-08-27T12:04:39Z</time>
      </trkpt>
      <trkpt lat="44.88096" lon="5.52218">
        <ele>1941</ele>
        <time>2022-08-27T12:05:01Z</time>
      </trkpt>
      <trkpt lat="44.88103" lon="5.52231">
        <ele>1937</ele>
        <time>2022-08-27T12:05:16Z</time>
      </trkpt>
      <trkpt lat="44.88108" lon="5.52233">
        <ele>1937</ele>
        <time>2022-08-27T12:05:23Z</time>
      </trkpt>
      <trkpt lat="44.88126" lon="5.52251">
        <ele>1934</ele>
        <time>2022-08-27T12:06:04Z</time>
      </trkpt>
      <trkpt lat="44.88129" lon="5.52254">
        <ele>1931</ele>
        <time>2022-08-27T12:06:29Z</time>
      </trkpt>
      <trkpt lat="44.88129" lon="5.5226">
        <ele>1927</ele>
        <time>2022-08-27T12:13:14Z</time>
      </trkpt>
      <trkpt lat="44.88131" lon="5.52256">
        <ele>1927</ele>
        <time>2022-08-27T12:15:21Z</time>
      </trkpt>
      <trkpt lat="44.88128" lon="5.52251">
        <ele>1927</ele>
        <time>2022-08-27T12:15:51Z</time>
      </trkpt>
      <trkpt lat="44.88127" lon="5.52251">
        <ele>1925</ele>
        <time>2022-08-27T12:19:53Z</time>
      </trkpt>
      <trkpt lat="44.88127" lon="5.52243">
        <ele>1925</ele>
        <time>2022-08-27T12:28:10Z</time>
      </trkpt>
      <trkpt lat="44.88119" lon="5.5223">
        <ele>1921</ele>
        <time>2022-08-27T12:28:30Z</time>
      </trkpt>
      <trkpt lat="44.88118" lon="5.52221">
        <ele>1919</ele>
        <time>2022-08-27T12:28:40Z</time>
      </trkpt>
      <trkpt lat="44.88145" lon="5.52213">
        <ele>1912</ele>
        <time>2022-08-27T12:29:15Z</time>
      </trkpt>
      <trkpt lat="44.88154" lon="5.52202">
        <ele>1909</ele>
        <time>2022-08-27T12:29:29Z</time>
      </trkpt>
      <trkpt lat="44.88157" lon="5.52197">
        <ele>1908</ele>
        <time>2022-08-27T12:29:34Z</time>
      </trkpt>
      <trkpt lat="44.88164" lon="5.52189">
        <ele>1906</ele>
        <time>2022-08-27T12:29:43Z</time>
      </trkpt>
      <trkpt lat="44.88168" lon="5.52186">
        <ele>1904</ele>
        <time>2022-08-27T12:29:50Z</time>
      </trkpt>
      <trkpt lat="44.88171" lon="5.52177">
        <ele>1902</ele>
        <time>2022-08-27T12:29:58Z</time>
      </trkpt>
      <trkpt lat="44.88176" lon="5.52171">
        <ele>1900</ele>
        <time>2022-08-27T12:30:06Z</time>
      </trkpt>
      <trkpt lat="44.88179" lon="5.52166">
        <ele>1899</ele>
        <time>2022-08-27T12:30:10Z</time>
      </trkpt>
      <trkpt lat="44.88182" lon="5.52163">
        <ele>1897</ele>
        <time>2022-08-27T12:30:17Z</time>
      </trkpt>
      <trkpt lat="44.88185" lon="5.52158">
        <ele>1896</ele>
        <time>2022-08-27T12:30:22Z</time>
      </trkpt>
      <trkpt lat="44.88182" lon="5.52152">
        <ele>1894</ele>
        <time>2022-08-27T12:30:31Z</time>
      </trkpt>
      <trkpt lat="44.88183" lon="5.52146">
        <ele>1892</ele>
        <time>2022-08-27T12:30:42Z</time>
      </trkpt>
      <trkpt lat="44.88187" lon="5.5214">
        <ele>1890</ele>
        <time>2022-08-27T12:30:50Z</time>
      </trkpt>
      <trkpt lat="44.88189" lon="5.52134">
        <ele>1888</ele>
        <time>2022-08-27T12:30:54Z</time>
      </trkpt>
      <trkpt lat="44.88203" lon="5.52114">
        <ele>1884</ele>
        <time>2022-08-27T12:31:15Z</time>
      </trkpt>
      <trkpt lat="44.88206" lon="5.52109">
        <ele>1882</ele>
        <time>2022-08-27T12:31:23Z</time>
      </trkpt>
      <trkpt lat="44.88203" lon="5.52103">
        <ele>1880</ele>
        <time>2022-08-27T12:31:29Z</time>
      </trkpt>
      <trkpt lat="44.88195" lon="5.521">
        <ele>1879</ele>
        <time>2022-08-27T12:31:36Z</time>
      </trkpt>
      <trkpt lat="44.88191" lon="5.52101">
        <ele>1878</ele>
        <time>2022-08-27T12:31:39Z</time>
      </trkpt>
      <trkpt lat="44.88186" lon="5.52104">
        <ele>1877</ele>
        <time>2022-08-27T12:31:43Z</time>
      </trkpt>
      <trkpt lat="44.88175" lon="5.52098">
        <ele>1873</ele>
        <time>2022-08-27T12:31:59Z</time>
      </trkpt>
      <trkpt lat="44.88166" lon="5.52102">
        <ele>1871</ele>
        <time>2022-08-27T12:32:08Z</time>
      </trkpt>
      <trkpt lat="44.88156" lon="5.52098">
        <ele>1868</ele>
        <time>2022-08-27T12:32:21Z</time>
      </trkpt>
      <trkpt lat="44.8816" lon="5.52093">
        <ele>1866</ele>
        <time>2022-08-27T12:32:28Z</time>
      </trkpt>
      <trkpt lat="44.88173" lon="5.52072">
        <ele>1861</ele>
        <time>2022-08-27T12:32:57Z</time>
      </trkpt>
      <trkpt lat="44.88177" lon="5.52058">
        <ele>1858</ele>
        <time>2022-08-27T12:33:09Z</time>
      </trkpt>
      <trkpt lat="44.88173" lon="5.52047">
        <ele>1856</ele>
        <time>2022-08-27T12:33:17Z</time>
      </trkpt>
      <trkpt lat="44.88174" lon="5.5204">
        <ele>1854</ele>
        <time>2022-08-27T12:33:25Z</time>
      </trkpt>
      <trkpt lat="44.88174" lon="5.52034">
        <ele>1853</ele>
        <time>2022-08-27T12:33:29Z</time>
      </trkpt>
      <trkpt lat="44.88176" lon="5.52023">
        <ele>1851</ele>
        <time>2022-08-27T12:33:37Z</time>
      </trkpt>
      <trkpt lat="44.88171" lon="5.52017">
        <ele>1849</ele>
        <time>2022-08-27T12:33:44Z</time>
      </trkpt>
      <trkpt lat="44.88163" lon="5.52021">
        <ele>1848</ele>
        <time>2022-08-27T12:33:51Z</time>
      </trkpt>
      <trkpt lat="44.8816" lon="5.52014">
        <ele>1845</ele>
        <time>2022-08-27T12:33:58Z</time>
      </trkpt>
      <trkpt lat="44.88162" lon="5.52009">
        <ele>1844</ele>
        <time>2022-08-27T12:34:03Z</time>
      </trkpt>
      <trkpt lat="44.88159" lon="5.52004">
        <ele>1843</ele>
        <time>2022-08-27T12:34:07Z</time>
      </trkpt>
      <trkpt lat="44.88163" lon="5.52002">
        <ele>1842</ele>
        <time>2022-08-27T12:34:13Z</time>
      </trkpt>
      <trkpt lat="44.88162" lon="5.5199">
        <ele>1839</ele>
        <time>2022-08-27T12:34:23Z</time>
      </trkpt>
      <trkpt lat="44.88165" lon="5.51973">
        <ele>1836</ele>
        <time>2022-08-27T12:34:35Z</time>
      </trkpt>
      <trkpt lat="44.88161" lon="5.51958">
        <ele>1834</ele>
        <time>2022-08-27T12:34:47Z</time>
      </trkpt>
      <trkpt lat="44.88162" lon="5.51952">
        <ele>1832</ele>
        <time>2022-08-27T12:34:52Z</time>
      </trkpt>
      <trkpt lat="44.88166" lon="5.51953">
        <ele>1832</ele>
        <time>2022-08-27T12:34:57Z</time>
      </trkpt>
      <trkpt lat="44.88171" lon="5.5195">
        <ele>1830</ele>
        <time>2022-08-27T12:35:02Z</time>
      </trkpt>
      <trkpt lat="44.88174" lon="5.51946">
        <ele>1830</ele>
        <time>2022-08-27T12:35:06Z</time>
      </trkpt>
      <trkpt lat="44.88176" lon="5.51941">
        <ele>1829</ele>
        <time>2022-08-27T12:35:10Z</time>
      </trkpt>
      <trkpt lat="44.88176" lon="5.51935">
        <ele>1828</ele>
        <time>2022-08-27T12:35:14Z</time>
      </trkpt>
      <trkpt lat="44.8818" lon="5.51924">
        <ele>1826</ele>
        <time>2022-08-27T12:35:22Z</time>
      </trkpt>
      <trkpt lat="44.88179" lon="5.51915">
        <ele>1826</ele>
        <time>2022-08-27T12:35:29Z</time>
      </trkpt>
      <trkpt lat="44.88187" lon="5.51896">
        <ele>1823</ele>
        <time>2022-08-27T12:35:47Z</time>
      </trkpt>
      <trkpt lat="44.88194" lon="5.51881">
        <ele>1819</ele>
        <time>2022-08-27T12:36:05Z</time>
      </trkpt>
      <trkpt lat="44.88196" lon="5.51873">
        <ele>1818</ele>
        <time>2022-08-27T12:36:11Z</time>
      </trkpt>
      <trkpt lat="44.88197" lon="5.51866">
        <ele>1817</ele>
        <time>2022-08-27T12:36:16Z</time>
      </trkpt>
      <trkpt lat="44.88196" lon="5.51861">
        <ele>1816</ele>
        <time>2022-08-27T12:36:23Z</time>
      </trkpt>
      <trkpt lat="44.88195" lon="5.51855">
        <ele>1814</ele>
        <time>2022-08-27T12:36:38Z</time>
      </trkpt>
      <trkpt lat="44.88192" lon="5.51848">
        <ele>1813</ele>
        <time>2022-08-27T12:36:48Z</time>
      </trkpt>
      <trkpt lat="44.88186" lon="5.51852">
        <ele>1812</ele>
        <time>2022-08-27T12:36:58Z</time>
      </trkpt>
      <trkpt lat="44.88187" lon="5.51845">
        <ele>1810</ele>
        <time>2022-08-27T12:37:15Z</time>
      </trkpt>
      <trkpt lat="44.88191" lon="5.51836">
        <ele>1808</ele>
        <time>2022-08-27T12:37:27Z</time>
      </trkpt>
      <trkpt lat="44.88195" lon="5.51831">
        <ele>1807</ele>
        <time>2022-08-27T12:37:47Z</time>
      </trkpt>
      <trkpt lat="44.88196" lon="5.51824">
        <ele>1805</ele>
        <time>2022-08-27T12:37:57Z</time>
      </trkpt>
      <trkpt lat="44.882" lon="5.51819">
        <ele>1804</ele>
        <time>2022-08-27T12:38:07Z</time>
      </trkpt>
      <trkpt lat="44.88203" lon="5.51814">
        <ele>1803</ele>
        <time>2022-08-27T12:38:13Z</time>
      </trkpt>
      <trkpt lat="44.8821" lon="5.51801">
        <ele>1800</ele>
        <time>2022-08-27T12:38:32Z</time>
      </trkpt>
      <trkpt lat="44.88215" lon="5.51792">
        <ele>1801</ele>
        <time>2022-08-27T12:38:58Z</time>
      </trkpt>
      <trkpt lat="44.88218" lon="5.51785">
        <ele>1800</ele>
        <time>2022-08-27T12:39:05Z</time>
      </trkpt>
      <trkpt lat="44.88221" lon="5.51779">
        <ele>1800</ele>
        <time>2022-08-27T12:39:09Z</time>
      </trkpt>
      <trkpt lat="44.88222" lon="5.51772">
        <ele>1800</ele>
        <time>2022-08-27T12:39:17Z</time>
      </trkpt>
      <trkpt lat="44.88227" lon="5.51758">
        <ele>1794</ele>
        <time>2022-08-27T12:39:52Z</time>
      </trkpt>
      <trkpt lat="44.88225" lon="5.51748">
        <ele>1791</ele>
        <time>2022-08-27T12:40:02Z</time>
      </trkpt>
      <trkpt lat="44.88226" lon="5.51736">
        <ele>1788</ele>
        <time>2022-08-27T12:40:12Z</time>
      </trkpt>
      <trkpt lat="44.88225" lon="5.5173">
        <ele>1787</ele>
        <time>2022-08-27T12:40:15Z</time>
      </trkpt>
      <trkpt lat="44.8823" lon="5.51719">
        <ele>1785</ele>
        <time>2022-08-27T12:40:23Z</time>
      </trkpt>
      <trkpt lat="44.88234" lon="5.51715">
        <ele>1785</ele>
        <time>2022-08-27T12:40:27Z</time>
      </trkpt>
      <trkpt lat="44.88238" lon="5.51702">
        <ele>1784</ele>
        <time>2022-08-27T12:40:36Z</time>
      </trkpt>
      <trkpt lat="44.88236" lon="5.51693">
        <ele>1784</ele>
        <time>2022-08-27T12:40:45Z</time>
      </trkpt>
      <trkpt lat="44.88238" lon="5.51688">
        <ele>1782</ele>
        <time>2022-08-27T12:40:49Z</time>
      </trkpt>
      <trkpt lat="44.88239" lon="5.51682">
        <ele>1782</ele>
        <time>2022-08-27T12:40:53Z</time>
      </trkpt>
      <trkpt lat="44.88245" lon="5.51669">
        <ele>1780</ele>
        <time>2022-08-27T12:41:05Z</time>
      </trkpt>
      <trkpt lat="44.88255" lon="5.51665">
        <ele>1779</ele>
        <time>2022-08-27T12:41:22Z</time>
      </trkpt>
      <trkpt lat="44.88263" lon="5.5166">
        <ele>1778</ele>
        <time>2022-08-27T12:41:32Z</time>
      </trkpt>
      <trkpt lat="44.88272" lon="5.51648">
        <ele>1777</ele>
        <time>2022-08-27T12:42:03Z</time>
      </trkpt>
      <trkpt lat="44.88272" lon="5.5164">
        <ele>1775</ele>
        <time>2022-08-27T12:42:11Z</time>
      </trkpt>
      <trkpt lat="44.88261" lon="5.51623">
        <ele>1773</ele>
        <time>2022-08-27T12:42:30Z</time>
      </trkpt>
      <trkpt lat="44.88259" lon="5.51617">
        <ele>1771</ele>
        <time>2022-08-27T12:42:35Z</time>
      </trkpt>
      <trkpt lat="44.8826" lon="5.51609">
        <ele>1770</ele>
        <time>2022-08-27T12:42:43Z</time>
      </trkpt>
      <trkpt lat="44.88256" lon="5.51602">
        <ele>1768</ele>
        <time>2022-08-27T12:42:53Z</time>
      </trkpt>
      <trkpt lat="44.88252" lon="5.51596">
        <ele>1765</ele>
        <time>2022-08-27T12:43:03Z</time>
      </trkpt>
      <trkpt lat="44.88248" lon="5.51593">
        <ele>1764</ele>
        <time>2022-08-27T12:43:08Z</time>
      </trkpt>
      <trkpt lat="44.88245" lon="5.51589">
        <ele>1763</ele>
        <time>2022-08-27T12:43:13Z</time>
      </trkpt>
      <trkpt lat="44.88239" lon="5.51589">
        <ele>1762</ele>
        <time>2022-08-27T12:43:22Z</time>
      </trkpt>
      <trkpt lat="44.88229" lon="5.51584">
        <ele>1760</ele>
        <time>2022-08-27T12:43:38Z</time>
      </trkpt>
      <trkpt lat="44.88226" lon="5.5158">
        <ele>1758</ele>
        <time>2022-08-27T12:43:44Z</time>
      </trkpt>
      <trkpt lat="44.88229" lon="5.51575">
        <ele>1758</ele>
        <time>2022-08-27T12:43:49Z</time>
      </trkpt>
      <trkpt lat="44.88234" lon="5.5157">
        <ele>1756</ele>
        <time>2022-08-27T12:43:57Z</time>
      </trkpt>
      <trkpt lat="44.88244" lon="5.51561">
        <ele>1752</ele>
        <time>2022-08-27T12:44:13Z</time>
      </trkpt>
      <trkpt lat="44.8825" lon="5.51551">
        <ele>1750</ele>
        <time>2022-08-27T12:44:22Z</time>
      </trkpt>
      <trkpt lat="44.88269" lon="5.51528">
        <ele>1745</ele>
        <time>2022-08-27T12:44:49Z</time>
      </trkpt>
      <trkpt lat="44.88272" lon="5.51522">
        <ele>1744</ele>
        <time>2022-08-27T12:44:53Z</time>
      </trkpt>
      <trkpt lat="44.88276" lon="5.51519">
        <ele>1743</ele>
        <time>2022-08-27T12:44:57Z</time>
      </trkpt>
      <trkpt lat="44.88278" lon="5.51513">
        <ele>1743</ele>
        <time>2022-08-27T12:45:01Z</time>
      </trkpt>
      <trkpt lat="44.88273" lon="5.51509">
        <ele>1741</ele>
        <time>2022-08-27T12:45:15Z</time>
      </trkpt>
      <trkpt lat="44.88243" lon="5.51497">
        <ele>1736</ele>
        <time>2022-08-27T12:45:45Z</time>
      </trkpt>
      <trkpt lat="44.88248" lon="5.51488">
        <ele>1733</ele>
        <time>2022-08-27T12:45:58Z</time>
      </trkpt>
      <trkpt lat="44.88247" lon="5.51482">
        <ele>1732</ele>
        <time>2022-08-27T12:46:02Z</time>
      </trkpt>
      <trkpt lat="44.8825" lon="5.51474">
        <ele>1730</ele>
        <time>2022-08-27T12:46:10Z</time>
      </trkpt>
      <trkpt lat="44.8826" lon="5.51461">
        <ele>1728</ele>
        <time>2022-08-27T12:46:22Z</time>
      </trkpt>
      <trkpt lat="44.88262" lon="5.51454">
        <ele>1728</ele>
        <time>2022-08-27T12:46:25Z</time>
      </trkpt>
      <trkpt lat="44.88261" lon="5.51439">
        <ele>1725</ele>
        <time>2022-08-27T12:46:35Z</time>
      </trkpt>
      <trkpt lat="44.88262" lon="5.51426">
        <ele>1723</ele>
        <time>2022-08-27T12:46:43Z</time>
      </trkpt>
      <trkpt lat="44.88268" lon="5.5141">
        <ele>1721</ele>
        <time>2022-08-27T12:46:55Z</time>
      </trkpt>
      <trkpt lat="44.88277" lon="5.51395">
        <ele>1719</ele>
        <time>2022-08-27T12:47:06Z</time>
      </trkpt>
      <trkpt lat="44.88278" lon="5.51389">
        <ele>1718</ele>
        <time>2022-08-27T12:47:09Z</time>
      </trkpt>
      <trkpt lat="44.88279" lon="5.51376">
        <ele>1717</ele>
        <time>2022-08-27T12:47:17Z</time>
      </trkpt>
      <trkpt lat="44.8828" lon="5.5137">
        <ele>1716</ele>
        <time>2022-08-27T12:47:21Z</time>
      </trkpt>
      <trkpt lat="44.88286" lon="5.5136">
        <ele>1715</ele>
        <time>2022-08-27T12:47:29Z</time>
      </trkpt>
      <trkpt lat="44.88291" lon="5.51358">
        <ele>1714</ele>
        <time>2022-08-27T12:47:33Z</time>
      </trkpt>
      <trkpt lat="44.88307" lon="5.51338">
        <ele>1711</ele>
        <time>2022-08-27T12:47:51Z</time>
      </trkpt>
      <trkpt lat="44.88315" lon="5.51329">
        <ele>1710</ele>
        <time>2022-08-27T12:47:59Z</time>
      </trkpt>
      <trkpt lat="44.88316" lon="5.51322">
        <ele>1709</ele>
        <time>2022-08-27T12:48:03Z</time>
      </trkpt>
      <trkpt lat="44.88314" lon="5.51317">
        <ele>1708</ele>
        <time>2022-08-27T12:48:06Z</time>
      </trkpt>
      <trkpt lat="44.88313" lon="5.51289">
        <ele>1706</ele>
        <time>2022-08-27T12:48:23Z</time>
      </trkpt>
      <trkpt lat="44.88314" lon="5.51283">
        <ele>1705</ele>
        <time>2022-08-27T12:48:27Z</time>
      </trkpt>
      <trkpt lat="44.88317" lon="5.51279">
        <ele>1704</ele>
        <time>2022-08-27T12:48:31Z</time>
      </trkpt>
      <trkpt lat="44.88324" lon="5.51274">
        <ele>1703</ele>
        <time>2022-08-27T12:48:38Z</time>
      </trkpt>
      <trkpt lat="44.88327" lon="5.51269">
        <ele>1703</ele>
        <time>2022-08-27T12:48:42Z</time>
      </trkpt>
      <trkpt lat="44.88331" lon="5.51253">
        <ele>1701</ele>
        <time>2022-08-27T12:48:53Z</time>
      </trkpt>
      <trkpt lat="44.88335" lon="5.51249">
        <ele>1700</ele>
        <time>2022-08-27T12:48:57Z</time>
      </trkpt>
      <trkpt lat="44.88341" lon="5.51228">
        <ele>1697</ele>
        <time>2022-08-27T12:49:12Z</time>
      </trkpt>
      <trkpt lat="44.88348" lon="5.51216">
        <ele>1695</ele>
        <time>2022-08-27T12:49:22Z</time>
      </trkpt>
      <trkpt lat="44.88353" lon="5.512">
        <ele>1692</ele>
        <time>2022-08-27T12:49:35Z</time>
      </trkpt>
      <trkpt lat="44.88356" lon="5.51181">
        <ele>1689</ele>
        <time>2022-08-27T12:49:47Z</time>
      </trkpt>
      <trkpt lat="44.88355" lon="5.51175">
        <ele>1688</ele>
        <time>2022-08-27T12:49:51Z</time>
      </trkpt>
      <trkpt lat="44.88359" lon="5.51165">
        <ele>1686</ele>
        <time>2022-08-27T12:49:58Z</time>
      </trkpt>
      <trkpt lat="44.88365" lon="5.51156">
        <ele>1685</ele>
        <time>2022-08-27T12:50:05Z</time>
      </trkpt>
      <trkpt lat="44.88362" lon="5.51152">
        <ele>1684</ele>
        <time>2022-08-27T12:50:08Z</time>
      </trkpt>
      <trkpt lat="44.88362" lon="5.51145">
        <ele>1683</ele>
        <time>2022-08-27T12:50:12Z</time>
      </trkpt>
      <trkpt lat="44.8837" lon="5.51115">
        <ele>1679</ele>
        <time>2022-08-27T12:50:31Z</time>
      </trkpt>
      <trkpt lat="44.88371" lon="5.51103">
        <ele>1677</ele>
        <time>2022-08-27T12:50:39Z</time>
      </trkpt>
      <trkpt lat="44.88374" lon="5.51097">
        <ele>1677</ele>
        <time>2022-08-27T12:50:43Z</time>
      </trkpt>
      <trkpt lat="44.88378" lon="5.51093">
        <ele>1676</ele>
        <time>2022-08-27T12:50:47Z</time>
      </trkpt>
      <trkpt lat="44.88378" lon="5.51087">
        <ele>1675</ele>
        <time>2022-08-27T12:50:51Z</time>
      </trkpt>
      <trkpt lat="44.8838" lon="5.51074">
        <ele>1673</ele>
        <time>2022-08-27T12:51:00Z</time>
      </trkpt>
      <trkpt lat="44.88376" lon="5.51069">
        <ele>1672</ele>
        <time>2022-08-27T12:51:04Z</time>
      </trkpt>
      <trkpt lat="44.88377" lon="5.51063">
        <ele>1671</ele>
        <time>2022-08-27T12:51:08Z</time>
      </trkpt>
      <trkpt lat="44.8838" lon="5.51059">
        <ele>1670</ele>
        <time>2022-08-27T12:51:12Z</time>
      </trkpt>
      <trkpt lat="44.88382" lon="5.51045">
        <ele>1669</ele>
        <time>2022-08-27T12:51:21Z</time>
      </trkpt>
      <trkpt lat="44.88385" lon="5.51037">
        <ele>1668</ele>
        <time>2022-08-27T12:51:27Z</time>
      </trkpt>
      <trkpt lat="44.88383" lon="5.51024">
        <ele>1666</ele>
        <time>2022-08-27T12:51:36Z</time>
      </trkpt>
      <trkpt lat="44.88387" lon="5.51011">
        <ele>1664</ele>
        <time>2022-08-27T12:51:48Z</time>
      </trkpt>
      <trkpt lat="44.88391" lon="5.51007">
        <ele>1663</ele>
        <time>2022-08-27T12:51:52Z</time>
      </trkpt>
      <trkpt lat="44.88393" lon="5.51002">
        <ele>1662</ele>
        <time>2022-08-27T12:51:56Z</time>
      </trkpt>
      <trkpt lat="44.88396" lon="5.50995">
        <ele>1662</ele>
        <time>2022-08-27T12:52:02Z</time>
      </trkpt>
      <trkpt lat="44.884" lon="5.50988">
        <ele>1660</ele>
        <time>2022-08-27T12:52:09Z</time>
      </trkpt>
      <trkpt lat="44.88419" lon="5.50968">
        <ele>1655</ele>
        <time>2022-08-27T12:52:32Z</time>
      </trkpt>
      <trkpt lat="44.88423" lon="5.50966">
        <ele>1654</ele>
        <time>2022-08-27T12:52:37Z</time>
      </trkpt>
      <trkpt lat="44.88426" lon="5.5096">
        <ele>1653</ele>
        <time>2022-08-27T12:52:41Z</time>
      </trkpt>
      <trkpt lat="44.88427" lon="5.50951">
        <ele>1653</ele>
        <time>2022-08-27T12:52:42Z</time>
      </trkpt>
      <trkpt lat="44.88424" lon="5.50946">
        <ele>1652</ele>
        <time>2022-08-27T12:52:46Z</time>
      </trkpt>
      <trkpt lat="44.88428" lon="5.50939">
        <ele>1651</ele>
        <time>2022-08-27T12:52:52Z</time>
      </trkpt>
      <trkpt lat="44.88433" lon="5.50939">
        <ele>1650</ele>
        <time>2022-08-27T12:52:55Z</time>
      </trkpt>
      <trkpt lat="44.88447" lon="5.50901">
        <ele>1643</ele>
        <time>2022-08-27T12:53:27Z</time>
      </trkpt>
      <trkpt lat="44.88453" lon="5.50876">
        <ele>1639</ele>
        <time>2022-08-27T12:53:45Z</time>
      </trkpt>
      <trkpt lat="44.88453" lon="5.50863">
        <ele>1638</ele>
        <time>2022-08-27T12:53:51Z</time>
      </trkpt>
      <trkpt lat="44.88451" lon="5.50857">
        <ele>1637</ele>
        <time>2022-08-27T12:53:56Z</time>
      </trkpt>
      <trkpt lat="44.88455" lon="5.50852">
        <ele>1637</ele>
        <time>2022-08-27T12:53:59Z</time>
      </trkpt>
      <trkpt lat="44.88457" lon="5.50845">
        <ele>1636</ele>
        <time>2022-08-27T12:54:03Z</time>
      </trkpt>
      <trkpt lat="44.88457" lon="5.5084">
        <ele>1635</ele>
        <time>2022-08-27T12:54:06Z</time>
      </trkpt>
      <trkpt lat="44.88459" lon="5.50834">
        <ele>1635</ele>
        <time>2022-08-27T12:54:10Z</time>
      </trkpt>
      <trkpt lat="44.88456" lon="5.50829">
        <ele>1634</ele>
        <time>2022-08-27T12:54:14Z</time>
      </trkpt>
      <trkpt lat="44.88462" lon="5.50818">
        <ele>1633</ele>
        <time>2022-08-27T12:54:22Z</time>
      </trkpt>
      <trkpt lat="44.88464" lon="5.50812">
        <ele>1632</ele>
        <time>2022-08-27T12:54:27Z</time>
      </trkpt>
      <trkpt lat="44.88465" lon="5.50806">
        <ele>1632</ele>
        <time>2022-08-27T12:54:30Z</time>
      </trkpt>
      <trkpt lat="44.88464" lon="5.50799">
        <ele>1632</ele>
        <time>2022-08-27T12:54:34Z</time>
      </trkpt>
      <trkpt lat="44.88464" lon="5.50792">
        <ele>1631</ele>
        <time>2022-08-27T12:54:38Z</time>
      </trkpt>
      <trkpt lat="44.8847" lon="5.50771">
        <ele>1630</ele>
        <time>2022-08-27T12:54:50Z</time>
      </trkpt>
      <trkpt lat="44.8847" lon="5.50764">
        <ele>1629</ele>
        <time>2022-08-27T12:54:54Z</time>
      </trkpt>
      <trkpt lat="44.88472" lon="5.50758">
        <ele>1628</ele>
        <time>2022-08-27T12:54:58Z</time>
      </trkpt>
      <trkpt lat="44.88472" lon="5.50751">
        <ele>1628</ele>
        <time>2022-08-27T12:55:03Z</time>
      </trkpt>
      <trkpt lat="44.88478" lon="5.50723">
        <ele>1627</ele>
        <time>2022-08-27T12:55:30Z</time>
      </trkpt>
      <trkpt lat="44.88479" lon="5.50712">
        <ele>1626</ele>
        <time>2022-08-27T12:55:40Z</time>
      </trkpt>
      <trkpt lat="44.88482" lon="5.50707">
        <ele>1626</ele>
        <time>2022-08-27T12:55:45Z</time>
      </trkpt>
      <trkpt lat="44.88484" lon="5.50694">
        <ele>1626</ele>
        <time>2022-08-27T12:55:53Z</time>
      </trkpt>
      <trkpt lat="44.88482" lon="5.50688">
        <ele>1626</ele>
        <time>2022-08-27T12:55:58Z</time>
      </trkpt>
      <trkpt lat="44.88482" lon="5.5068">
        <ele>1626</ele>
        <time>2022-08-27T12:56:02Z</time>
      </trkpt>
      <trkpt lat="44.88486" lon="5.50667">
        <ele>1625</ele>
        <time>2022-08-27T12:56:15Z</time>
      </trkpt>
      <trkpt lat="44.88487" lon="5.50661">
        <ele>1625</ele>
        <time>2022-08-27T12:56:20Z</time>
      </trkpt>
      <trkpt lat="44.88488" lon="5.50654">
        <ele>1625</ele>
        <time>2022-08-27T12:56:25Z</time>
      </trkpt>
      <trkpt lat="44.88493" lon="5.50635">
        <ele>1624</ele>
        <time>2022-08-27T12:56:37Z</time>
      </trkpt>
      <trkpt lat="44.88495" lon="5.5063">
        <ele>1624</ele>
        <time>2022-08-27T12:56:42Z</time>
      </trkpt>
      <trkpt lat="44.88499" lon="5.50625">
        <ele>1625</ele>
        <time>2022-08-27T12:56:46Z</time>
      </trkpt>
      <trkpt lat="44.885" lon="5.50619">
        <ele>1625</ele>
        <time>2022-08-27T12:56:51Z</time>
      </trkpt>
      <trkpt lat="44.88499" lon="5.50611">
        <ele>1625</ele>
        <time>2022-08-27T12:56:56Z</time>
      </trkpt>
      <trkpt lat="44.88499" lon="5.50585">
        <ele>1621</ele>
        <time>2022-08-27T12:57:12Z</time>
      </trkpt>
      <trkpt lat="44.885" lon="5.50579">
        <ele>1621</ele>
        <time>2022-08-27T12:57:15Z</time>
      </trkpt>
      <trkpt lat="44.88503" lon="5.50576">
        <ele>1621</ele>
        <time>2022-08-27T12:57:18Z</time>
      </trkpt>
      <trkpt lat="44.88505" lon="5.50569">
        <ele>1621</ele>
        <time>2022-08-27T12:57:22Z</time>
      </trkpt>
      <trkpt lat="44.88505" lon="5.50564">
        <ele>1620</ele>
        <time>2022-08-27T12:57:25Z</time>
      </trkpt>
      <trkpt lat="44.88506" lon="5.50557">
        <ele>1619</ele>
        <time>2022-08-27T12:57:29Z</time>
      </trkpt>
      <trkpt lat="44.88508" lon="5.50537">
        <ele>1619</ele>
        <time>2022-08-27T12:57:41Z</time>
      </trkpt>
      <trkpt lat="44.88513" lon="5.50509">
        <ele>1617</ele>
        <time>2022-08-27T12:57:57Z</time>
      </trkpt>
      <trkpt lat="44.88512" lon="5.50493">
        <ele>1616</ele>
        <time>2022-08-27T12:58:08Z</time>
      </trkpt>
      <trkpt lat="44.88513" lon="5.50487">
        <ele>1617</ele>
        <time>2022-08-27T12:58:12Z</time>
      </trkpt>
      <trkpt lat="44.88514" lon="5.50481">
        <ele>1617</ele>
        <time>2022-08-27T12:58:16Z</time>
      </trkpt>
      <trkpt lat="44.88511" lon="5.50456">
        <ele>1617</ele>
        <time>2022-08-27T12:58:33Z</time>
      </trkpt>
      <trkpt lat="44.88509" lon="5.5045">
        <ele>1617</ele>
        <time>2022-08-27T12:58:38Z</time>
      </trkpt>
      <trkpt lat="44.88506" lon="5.50445">
        <ele>1617</ele>
        <time>2022-08-27T12:58:42Z</time>
      </trkpt>
      <trkpt lat="44.88507" lon="5.50435">
        <ele>1617</ele>
        <time>2022-08-27T12:58:50Z</time>
      </trkpt>
      <trkpt lat="44.88509" lon="5.5043">
        <ele>1617</ele>
        <time>2022-08-27T12:58:55Z</time>
      </trkpt>
      <trkpt lat="44.8851" lon="5.50424">
        <ele>1617</ele>
        <time>2022-08-27T12:59:00Z</time>
      </trkpt>
      <trkpt lat="44.88511" lon="5.50407">
        <ele>1618</ele>
        <time>2022-08-27T12:59:13Z</time>
      </trkpt>
      <trkpt lat="44.88507" lon="5.50362">
        <ele>1621</ele>
        <time>2022-08-27T12:59:46Z</time>
      </trkpt>
      <trkpt lat="44.88506" lon="5.50324">
        <ele>1624</ele>
        <time>2022-08-27T13:00:18Z</time>
      </trkpt>
      <trkpt lat="44.88509" lon="5.50329">
        <ele>1624</ele>
        <time>2022-08-27T13:00:24Z</time>
      </trkpt>
      <trkpt lat="44.88513" lon="5.50323">
        <ele>1624</ele>
        <time>2022-08-27T13:00:31Z</time>
      </trkpt>
      <trkpt lat="44.88518" lon="5.50318">
        <ele>1625</ele>
        <time>2022-08-27T13:00:38Z</time>
      </trkpt>
      <trkpt lat="44.88523" lon="5.50308">
        <ele>1626</ele>
        <time>2022-08-27T13:00:48Z</time>
      </trkpt>
      <trkpt lat="44.88524" lon="5.50302">
        <ele>1626</ele>
        <time>2022-08-27T13:00:53Z</time>
      </trkpt>
      <trkpt lat="44.88522" lon="5.50296">
        <ele>1626</ele>
        <time>2022-08-27T13:00:57Z</time>
      </trkpt>
      <trkpt lat="44.88523" lon="5.50289">
        <ele>1625</ele>
        <time>2022-08-27T13:01:01Z</time>
      </trkpt>
      <trkpt lat="44.88526" lon="5.50277">
        <ele>1625</ele>
        <time>2022-08-27T13:01:10Z</time>
      </trkpt>
      <trkpt lat="44.88527" lon="5.50268">
        <ele>1625</ele>
        <time>2022-08-27T13:01:23Z</time>
      </trkpt>
      <trkpt lat="44.88529" lon="5.50262">
        <ele>1625</ele>
        <time>2022-08-27T13:01:27Z</time>
      </trkpt>
      <trkpt lat="44.88531" lon="5.5025">
        <ele>1624</ele>
        <time>2022-08-27T13:01:35Z</time>
      </trkpt>
      <trkpt lat="44.88532" lon="5.50243">
        <ele>1624</ele>
        <time>2022-08-27T13:01:39Z</time>
      </trkpt>
      <trkpt lat="44.8853" lon="5.50238">
        <ele>1623</ele>
        <time>2022-08-27T13:01:44Z</time>
      </trkpt>
      <trkpt lat="44.88528" lon="5.50226">
        <ele>1623</ele>
        <time>2022-08-27T13:01:58Z</time>
      </trkpt>
      <trkpt lat="44.88528" lon="5.50215">
        <ele>1623</ele>
        <time>2022-08-27T13:02:05Z</time>
      </trkpt>
      <trkpt lat="44.88528" lon="5.50209">
        <ele>1623</ele>
        <time>2022-08-27T13:02:09Z</time>
      </trkpt>
      <trkpt lat="44.88523" lon="5.50192">
        <ele>1623</ele>
        <time>2022-08-27T13:02:21Z</time>
      </trkpt>
      <trkpt lat="44.88517" lon="5.50153">
        <ele>1626</ele>
        <time>2022-08-27T13:02:52Z</time>
      </trkpt>
      <trkpt lat="44.88516" lon="5.50146">
        <ele>1627</ele>
        <time>2022-08-27T13:02:57Z</time>
      </trkpt>
      <trkpt lat="44.88515" lon="5.50141">
        <ele>1627</ele>
        <time>2022-08-27T13:03:01Z</time>
      </trkpt>
      <trkpt lat="44.88514" lon="5.50116">
        <ele>1626</ele>
        <time>2022-08-27T13:03:17Z</time>
      </trkpt>
      <trkpt lat="44.88511" lon="5.50096">
        <ele>1625</ele>
        <time>2022-08-27T13:03:29Z</time>
      </trkpt>
      <trkpt lat="44.88511" lon="5.50088">
        <ele>1625</ele>
        <time>2022-08-27T13:03:36Z</time>
      </trkpt>
      <trkpt lat="44.88508" lon="5.5008">
        <ele>1624</ele>
        <time>2022-08-27T13:03:52Z</time>
      </trkpt>
      <trkpt lat="44.88508" lon="5.50074">
        <ele>1624</ele>
        <time>2022-08-27T13:03:56Z</time>
      </trkpt>
      <trkpt lat="44.88511" lon="5.50024">
        <ele>1619</ele>
        <time>2022-08-27T13:04:27Z</time>
      </trkpt>
      <trkpt lat="44.88512" lon="5.50018">
        <ele>1619</ele>
        <time>2022-08-27T13:04:31Z</time>
      </trkpt>
      <trkpt lat="44.88512" lon="5.50005">
        <ele>1617</ele>
        <time>2022-08-27T13:04:39Z</time>
      </trkpt>
      <trkpt lat="44.88515" lon="5.49987">
        <ele>1615</ele>
        <time>2022-08-27T13:04:51Z</time>
      </trkpt>
      <trkpt lat="44.88514" lon="5.4998">
        <ele>1614</ele>
        <time>2022-08-27T13:04:55Z</time>
      </trkpt>
      <trkpt lat="44.88516" lon="5.49948">
        <ele>1611</ele>
        <time>2022-08-27T13:05:15Z</time>
      </trkpt>
      <trkpt lat="44.88515" lon="5.49933">
        <ele>1610</ele>
        <time>2022-08-27T13:05:25Z</time>
      </trkpt>
      <trkpt lat="44.8852" lon="5.49908">
        <ele>1607</ele>
        <time>2022-08-27T13:05:41Z</time>
      </trkpt>
      <trkpt lat="44.88513" lon="5.49858">
        <ele>1600</ele>
        <time>2022-08-27T13:06:17Z</time>
      </trkpt>
      <trkpt lat="44.88511" lon="5.49834">
        <ele>1596</ele>
        <time>2022-08-27T13:06:35Z</time>
      </trkpt>
      <trkpt lat="44.8851" lon="5.49827">
        <ele>1595</ele>
        <time>2022-08-27T13:06:39Z</time>
      </trkpt>
      <trkpt lat="44.88505" lon="5.49817">
        <ele>1594</ele>
        <time>2022-08-27T13:06:47Z</time>
      </trkpt>
      <trkpt lat="44.88503" lon="5.49805">
        <ele>1592</ele>
        <time>2022-08-27T13:06:55Z</time>
      </trkpt>
      <trkpt lat="44.88502" lon="5.49768">
        <ele>1587</ele>
        <time>2022-08-27T13:07:19Z</time>
      </trkpt>
      <trkpt lat="44.88501" lon="5.49762">
        <ele>1586</ele>
        <time>2022-08-27T13:07:23Z</time>
      </trkpt>
      <trkpt lat="44.88501" lon="5.49713">
        <ele>1578</ele>
        <time>2022-08-27T13:07:54Z</time>
      </trkpt>
      <trkpt lat="44.88499" lon="5.49668">
        <ele>1574</ele>
        <time>2022-08-27T13:08:20Z</time>
      </trkpt>
      <trkpt lat="44.88498" lon="5.49662">
        <ele>1574</ele>
        <time>2022-08-27T13:08:23Z</time>
      </trkpt>
      <trkpt lat="44.88494" lon="5.49656">
        <ele>1573</ele>
        <time>2022-08-27T13:08:27Z</time>
      </trkpt>
      <trkpt lat="44.88493" lon="5.4965">
        <ele>1573</ele>
        <time>2022-08-27T13:08:31Z</time>
      </trkpt>
      <trkpt lat="44.88489" lon="5.49646">
        <ele>1573</ele>
        <time>2022-08-27T13:08:35Z</time>
      </trkpt>
      <trkpt lat="44.88481" lon="5.49642">
        <ele>1573</ele>
        <time>2022-08-27T13:08:42Z</time>
      </trkpt>
      <trkpt lat="44.88476" lon="5.49642">
        <ele>1573</ele>
        <time>2022-08-27T13:08:46Z</time>
      </trkpt>
      <trkpt lat="44.88473" lon="5.49638">
        <ele>1573</ele>
        <time>2022-08-27T13:08:49Z</time>
      </trkpt>
      <trkpt lat="44.88471" lon="5.49634">
        <ele>1573</ele>
        <time>2022-08-27T13:08:52Z</time>
      </trkpt>
      <trkpt lat="44.88471" lon="5.49628">
        <ele>1573</ele>
        <time>2022-08-27T13:08:56Z</time>
      </trkpt>
      <trkpt lat="44.88477" lon="5.4959">
        <ele>1569</ele>
        <time>2022-08-27T13:09:24Z</time>
      </trkpt>
      <trkpt lat="44.88479" lon="5.49584">
        <ele>1568</ele>
        <time>2022-08-27T13:09:29Z</time>
      </trkpt>
      <trkpt lat="44.8848" lon="5.49571">
        <ele>1567</ele>
        <time>2022-08-27T13:09:38Z</time>
      </trkpt>
      <trkpt lat="44.88478" lon="5.49558">
        <ele>1565</ele>
        <time>2022-08-27T13:09:46Z</time>
      </trkpt>
      <trkpt lat="44.88482" lon="5.49511">
        <ele>1560</ele>
        <time>2022-08-27T13:10:18Z</time>
      </trkpt>
      <trkpt lat="44.88484" lon="5.49504">
        <ele>1559</ele>
        <time>2022-08-27T13:10:22Z</time>
      </trkpt>
      <trkpt lat="44.88487" lon="5.4949">
        <ele>1558</ele>
        <time>2022-08-27T13:10:30Z</time>
      </trkpt>
      <trkpt lat="44.88485" lon="5.49478">
        <ele>1557</ele>
        <time>2022-08-27T13:10:37Z</time>
      </trkpt>
      <trkpt lat="44.88484" lon="5.49471">
        <ele>1557</ele>
        <time>2022-08-27T13:10:41Z</time>
      </trkpt>
      <trkpt lat="44.88483" lon="5.49451">
        <ele>1557</ele>
        <time>2022-08-27T13:10:53Z</time>
      </trkpt>
      <trkpt lat="44.88481" lon="5.49421">
        <ele>1559</ele>
        <time>2022-08-27T13:11:11Z</time>
      </trkpt>
      <trkpt lat="44.88478" lon="5.49408">
        <ele>1559</ele>
        <time>2022-08-27T13:11:20Z</time>
      </trkpt>
      <trkpt lat="44.88477" lon="5.49389">
        <ele>1557</ele>
        <time>2022-08-27T13:11:32Z</time>
      </trkpt>
      <trkpt lat="44.88478" lon="5.49383">
        <ele>1556</ele>
        <time>2022-08-27T13:11:36Z</time>
      </trkpt>
      <trkpt lat="44.8848" lon="5.49374">
        <ele>1556</ele>
        <time>2022-08-27T13:11:43Z</time>
      </trkpt>
      <trkpt lat="44.8848" lon="5.49368">
        <ele>1556</ele>
        <time>2022-08-27T13:11:48Z</time>
      </trkpt>
      <trkpt lat="44.8848" lon="5.4936">
        <ele>1556</ele>
        <time>2022-08-27T13:11:53Z</time>
      </trkpt>
      <trkpt lat="44.88484" lon="5.49343">
        <ele>1557</ele>
        <time>2022-08-27T13:12:07Z</time>
      </trkpt>
      <trkpt lat="44.88485" lon="5.49324">
        <ele>1557</ele>
        <time>2022-08-27T13:12:18Z</time>
      </trkpt>
      <trkpt lat="44.88483" lon="5.493">
        <ele>1557</ele>
        <time>2022-08-27T13:12:57Z</time>
      </trkpt>
      <trkpt lat="44.88483" lon="5.49291">
        <ele>1557</ele>
        <time>2022-08-27T13:13:03Z</time>
      </trkpt>
      <trkpt lat="44.88487" lon="5.49271">
        <ele>1557</ele>
        <time>2022-08-27T13:13:16Z</time>
      </trkpt>
      <trkpt lat="44.88489" lon="5.49243">
        <ele>1559</ele>
        <time>2022-08-27T13:13:36Z</time>
      </trkpt>
      <trkpt lat="44.8849" lon="5.49237">
        <ele>1559</ele>
        <time>2022-08-27T13:13:40Z</time>
      </trkpt>
      <trkpt lat="44.8849" lon="5.49225">
        <ele>1560</ele>
        <time>2022-08-27T13:13:48Z</time>
      </trkpt>
      <trkpt lat="44.88494" lon="5.49213">
        <ele>1561</ele>
        <time>2022-08-27T13:13:56Z</time>
      </trkpt>
      <trkpt lat="44.88496" lon="5.49206">
        <ele>1561</ele>
        <time>2022-08-27T13:14:00Z</time>
      </trkpt>
      <trkpt lat="44.88498" lon="5.49201">
        <ele>1561</ele>
        <time>2022-08-27T13:14:03Z</time>
      </trkpt>
      <trkpt lat="44.88499" lon="5.49194">
        <ele>1561</ele>
        <time>2022-08-27T13:14:07Z</time>
      </trkpt>
      <trkpt lat="44.88496" lon="5.49181">
        <ele>1561</ele>
        <time>2022-08-27T13:14:15Z</time>
      </trkpt>
      <trkpt lat="44.88491" lon="5.49168">
        <ele>1562</ele>
        <time>2022-08-27T13:14:23Z</time>
      </trkpt>
      <trkpt lat="44.8849" lon="5.49156">
        <ele>1561</ele>
        <time>2022-08-27T13:14:30Z</time>
      </trkpt>
      <trkpt lat="44.8849" lon="5.4915">
        <ele>1561</ele>
        <time>2022-08-27T13:14:34Z</time>
      </trkpt>
      <trkpt lat="44.88491" lon="5.49122">
        <ele>1561</ele>
        <time>2022-08-27T13:14:50Z</time>
      </trkpt>
      <trkpt lat="44.88496" lon="5.49096">
        <ele>1561</ele>
        <time>2022-08-27T13:15:06Z</time>
      </trkpt>
      <trkpt lat="44.88496" lon="5.49089">
        <ele>1561</ele>
        <time>2022-08-27T13:15:10Z</time>
      </trkpt>
      <trkpt lat="44.88498" lon="5.49081">
        <ele>1561</ele>
        <time>2022-08-27T13:15:14Z</time>
      </trkpt>
      <trkpt lat="44.88498" lon="5.49055">
        <ele>1560</ele>
        <time>2022-08-27T13:15:28Z</time>
      </trkpt>
      <trkpt lat="44.88501" lon="5.49042">
        <ele>1560</ele>
        <time>2022-08-27T13:15:36Z</time>
      </trkpt>
      <trkpt lat="44.88504" lon="5.49028">
        <ele>1560</ele>
        <time>2022-08-27T13:15:44Z</time>
      </trkpt>
      <trkpt lat="44.88504" lon="5.49016">
        <ele>1560</ele>
        <time>2022-08-27T13:15:52Z</time>
      </trkpt>
      <trkpt lat="44.88505" lon="5.49008">
        <ele>1560</ele>
        <time>2022-08-27T13:15:56Z</time>
      </trkpt>
      <trkpt lat="44.88504" lon="5.49002">
        <ele>1560</ele>
        <time>2022-08-27T13:16:00Z</time>
      </trkpt>
      <trkpt lat="44.88505" lon="5.48989">
        <ele>1560</ele>
        <time>2022-08-27T13:16:07Z</time>
      </trkpt>
      <trkpt lat="44.88505" lon="5.48982">
        <ele>1560</ele>
        <time>2022-08-27T13:16:11Z</time>
      </trkpt>
      <trkpt lat="44.88507" lon="5.48963">
        <ele>1560</ele>
        <time>2022-08-27T13:16:21Z</time>
      </trkpt>
      <trkpt lat="44.88502" lon="5.48951">
        <ele>1560</ele>
        <time>2022-08-27T13:16:28Z</time>
      </trkpt>
      <trkpt lat="44.8848" lon="5.48913">
        <ele>1558</ele>
        <time>2022-08-27T13:16:54Z</time>
      </trkpt>
      <trkpt lat="44.88474" lon="5.48904">
        <ele>1559</ele>
        <time>2022-08-27T13:17:02Z</time>
      </trkpt>
      <trkpt lat="44.88467" lon="5.48885">
        <ele>1559</ele>
        <time>2022-08-27T13:17:14Z</time>
      </trkpt>
      <trkpt lat="44.88449" lon="5.4884">
        <ele>1557</ele>
        <time>2022-08-27T13:17:41Z</time>
      </trkpt>
      <trkpt lat="44.88429" lon="5.48813">
        <ele>1556</ele>
        <time>2022-08-27T13:18:01Z</time>
      </trkpt>
      <trkpt lat="44.88424" lon="5.4881">
        <ele>1555</ele>
        <time>2022-08-27T13:18:06Z</time>
      </trkpt>
      <trkpt lat="44.8842" lon="5.48808">
        <ele>1555</ele>
        <time>2022-08-27T13:18:09Z</time>
      </trkpt>
      <trkpt lat="44.88415" lon="5.48809">
        <ele>1554</ele>
        <time>2022-08-27T13:18:13Z</time>
      </trkpt>
      <trkpt lat="44.88406" lon="5.48801">
        <ele>1554</ele>
        <time>2022-08-27T13:18:20Z</time>
      </trkpt>
      <trkpt lat="44.88401" lon="5.48799">
        <ele>1553</ele>
        <time>2022-08-27T13:18:25Z</time>
      </trkpt>
      <trkpt lat="44.88385" lon="5.48785">
        <ele>1551</ele>
        <time>2022-08-27T13:18:39Z</time>
      </trkpt>
      <trkpt lat="44.88378" lon="5.48777">
        <ele>1551</ele>
        <time>2022-08-27T13:18:46Z</time>
      </trkpt>
      <trkpt lat="44.88366" lon="5.48769">
        <ele>1550</ele>
        <time>2022-08-27T13:18:56Z</time>
      </trkpt>
      <trkpt lat="44.88359" lon="5.48759">
        <ele>1550</ele>
        <time>2022-08-27T13:19:04Z</time>
      </trkpt>
      <trkpt lat="44.88357" lon="5.48752">
        <ele>1550</ele>
        <time>2022-08-27T13:19:08Z</time>
      </trkpt>
      <trkpt lat="44.88354" lon="5.48746">
        <ele>1549</ele>
        <time>2022-08-27T13:19:13Z</time>
      </trkpt>
      <trkpt lat="44.88351" lon="5.4872">
        <ele>1547</ele>
        <time>2022-08-27T13:19:27Z</time>
      </trkpt>
      <trkpt lat="44.88349" lon="5.48714">
        <ele>1546</ele>
        <time>2022-08-27T13:19:31Z</time>
      </trkpt>
      <trkpt lat="44.88346" lon="5.48708">
        <ele>1545</ele>
        <time>2022-08-27T13:19:35Z</time>
      </trkpt>
      <trkpt lat="44.88336" lon="5.48698">
        <ele>1544</ele>
        <time>2022-08-27T13:19:44Z</time>
      </trkpt>
      <trkpt lat="44.88316" lon="5.4865">
        <ele>1539</ele>
        <time>2022-08-27T13:20:15Z</time>
      </trkpt>
      <trkpt lat="44.88305" lon="5.48602">
        <ele>1535</ele>
        <time>2022-08-27T13:20:43Z</time>
      </trkpt>
      <trkpt lat="44.88298" lon="5.48543">
        <ele>1530</ele>
        <time>2022-08-27T13:21:16Z</time>
      </trkpt>
      <trkpt lat="44.88289" lon="5.48495">
        <ele>1527</ele>
        <time>2022-08-27T13:21:43Z</time>
      </trkpt>
      <trkpt lat="44.88282" lon="5.48477">
        <ele>1526</ele>
        <time>2022-08-27T13:21:54Z</time>
      </trkpt>
      <trkpt lat="44.88275" lon="5.48447">
        <ele>1525</ele>
        <time>2022-08-27T13:22:10Z</time>
      </trkpt>
      <trkpt lat="44.88274" lon="5.48441">
        <ele>1525</ele>
        <time>2022-08-27T13:22:14Z</time>
      </trkpt>
      <trkpt lat="44.88271" lon="5.48422">
        <ele>1525</ele>
        <time>2022-08-27T13:22:25Z</time>
      </trkpt>
      <trkpt lat="44.88269" lon="5.48416">
        <ele>1525</ele>
        <time>2022-08-27T13:22:28Z</time>
      </trkpt>
      <trkpt lat="44.88251" lon="5.48386">
        <ele>1524</ele>
        <time>2022-08-27T13:22:48Z</time>
      </trkpt>
      <trkpt lat="44.88247" lon="5.48382">
        <ele>1524</ele>
        <time>2022-08-27T13:22:52Z</time>
      </trkpt>
      <trkpt lat="44.88243" lon="5.48377">
        <ele>1523</ele>
        <time>2022-08-27T13:22:56Z</time>
      </trkpt>
      <trkpt lat="44.88238" lon="5.48374">
        <ele>1523</ele>
        <time>2022-08-27T13:23:00Z</time>
      </trkpt>
      <trkpt lat="44.88235" lon="5.48369">
        <ele>1523</ele>
        <time>2022-08-27T13:23:03Z</time>
      </trkpt>
      <trkpt lat="44.88225" lon="5.48358">
        <ele>1523</ele>
        <time>2022-08-27T13:23:13Z</time>
      </trkpt>
      <trkpt lat="44.88211" lon="5.4835">
        <ele>1523</ele>
        <time>2022-08-27T13:23:25Z</time>
      </trkpt>
      <trkpt lat="44.88207" lon="5.48346">
        <ele>1523</ele>
        <time>2022-08-27T13:23:29Z</time>
      </trkpt>
      <trkpt lat="44.88203" lon="5.48344">
        <ele>1523</ele>
        <time>2022-08-27T13:23:33Z</time>
      </trkpt>
      <trkpt lat="44.88193" lon="5.48338">
        <ele>1523</ele>
        <time>2022-08-27T13:23:41Z</time>
      </trkpt>
      <trkpt lat="44.88188" lon="5.48336">
        <ele>1523</ele>
        <time>2022-08-27T13:23:45Z</time>
      </trkpt>
      <trkpt lat="44.88175" lon="5.48333">
        <ele>1524</ele>
        <time>2022-08-27T13:23:56Z</time>
      </trkpt>
      <trkpt lat="44.8817" lon="5.48329">
        <ele>1524</ele>
        <time>2022-08-27T13:24:00Z</time>
      </trkpt>
      <trkpt lat="44.88155" lon="5.48324">
        <ele>1525</ele>
        <time>2022-08-27T13:24:13Z</time>
      </trkpt>
      <trkpt lat="44.88151" lon="5.48325">
        <ele>1525</ele>
        <time>2022-08-27T13:24:17Z</time>
      </trkpt>
      <trkpt lat="44.88146" lon="5.48324">
        <ele>1525</ele>
        <time>2022-08-27T13:24:21Z</time>
      </trkpt>
      <trkpt lat="44.88141" lon="5.48321">
        <ele>1525</ele>
        <time>2022-08-27T13:24:25Z</time>
      </trkpt>
      <trkpt lat="44.88133" lon="5.48315">
        <ele>1524</ele>
        <time>2022-08-27T13:24:32Z</time>
      </trkpt>
      <trkpt lat="44.88123" lon="5.48309">
        <ele>1524</ele>
        <time>2022-08-27T13:24:40Z</time>
      </trkpt>
      <trkpt lat="44.88113" lon="5.48307">
        <ele>1524</ele>
        <time>2022-08-27T13:24:48Z</time>
      </trkpt>
      <trkpt lat="44.88099" lon="5.483">
        <ele>1525</ele>
        <time>2022-08-27T13:24:59Z</time>
      </trkpt>
      <trkpt lat="44.88095" lon="5.48299">
        <ele>1525</ele>
        <time>2022-08-27T13:25:03Z</time>
      </trkpt>
      <trkpt lat="44.88091" lon="5.48296">
        <ele>1525</ele>
        <time>2022-08-27T13:25:07Z</time>
      </trkpt>
      <trkpt lat="44.88075" lon="5.48281">
        <ele>1526</ele>
        <time>2022-08-27T13:25:23Z</time>
      </trkpt>
      <trkpt lat="44.88057" lon="5.48275">
        <ele>1527</ele>
        <time>2022-08-27T13:25:39Z</time>
      </trkpt>
      <trkpt lat="44.88025" lon="5.48249">
        <ele>1529</ele>
        <time>2022-08-27T13:26:12Z</time>
      </trkpt>
      <trkpt lat="44.88021" lon="5.48247">
        <ele>1529</ele>
        <time>2022-08-27T13:26:16Z</time>
      </trkpt>
      <trkpt lat="44.88012" lon="5.48242">
        <ele>1528</ele>
        <time>2022-08-27T13:26:23Z</time>
      </trkpt>
      <trkpt lat="44.87993" lon="5.48224">
        <ele>1525</ele>
        <time>2022-08-27T13:26:42Z</time>
      </trkpt>
      <trkpt lat="44.87983" lon="5.4821">
        <ele>1524</ele>
        <time>2022-08-27T13:26:53Z</time>
      </trkpt>
      <trkpt lat="44.87978" lon="5.48206">
        <ele>1524</ele>
        <time>2022-08-27T13:26:58Z</time>
      </trkpt>
      <trkpt lat="44.87966" lon="5.48183">
        <ele>1522</ele>
        <time>2022-08-27T13:27:13Z</time>
      </trkpt>
      <trkpt lat="44.87961" lon="5.48164">
        <ele>1522</ele>
        <time>2022-08-27T13:27:24Z</time>
      </trkpt>
      <trkpt lat="44.87955" lon="5.48147">
        <ele>1521</ele>
        <time>2022-08-27T13:27:35Z</time>
      </trkpt>
      <trkpt lat="44.87951" lon="5.48143">
        <ele>1520</ele>
        <time>2022-08-27T13:27:39Z</time>
      </trkpt>
      <trkpt lat="44.87946" lon="5.48145">
        <ele>1519</ele>
        <time>2022-08-27T13:27:43Z</time>
      </trkpt>
      <trkpt lat="44.87944" lon="5.48152">
        <ele>1519</ele>
        <time>2022-08-27T13:27:46Z</time>
      </trkpt>
      <trkpt lat="44.87945" lon="5.48158">
        <ele>1519</ele>
        <time>2022-08-27T13:27:49Z</time>
      </trkpt>
      <trkpt lat="44.87944" lon="5.48177">
        <ele>1517</ele>
        <time>2022-08-27T13:27:59Z</time>
      </trkpt>
      <trkpt lat="44.87946" lon="5.48183">
        <ele>1517</ele>
        <time>2022-08-27T13:28:03Z</time>
      </trkpt>
      <trkpt lat="44.87945" lon="5.4819">
        <ele>1516</ele>
        <time>2022-08-27T13:28:08Z</time>
      </trkpt>
      <trkpt lat="44.87941" lon="5.48194">
        <ele>1516</ele>
        <time>2022-08-27T13:28:12Z</time>
      </trkpt>
      <trkpt lat="44.87938" lon="5.48197">
        <ele>1515</ele>
        <time>2022-08-27T13:28:16Z</time>
      </trkpt>
      <trkpt lat="44.87933" lon="5.48194">
        <ele>1515</ele>
        <time>2022-08-27T13:28:20Z</time>
      </trkpt>
      <trkpt lat="44.87928" lon="5.4819">
        <ele>1514</ele>
        <time>2022-08-27T13:28:24Z</time>
      </trkpt>
      <trkpt lat="44.87922" lon="5.48188">
        <ele>1513</ele>
        <time>2022-08-27T13:28:31Z</time>
      </trkpt>
      <trkpt lat="44.87912" lon="5.48197">
        <ele>1511</ele>
        <time>2022-08-27T13:28:41Z</time>
      </trkpt>
      <trkpt lat="44.87911" lon="5.48204">
        <ele>1510</ele>
        <time>2022-08-27T13:28:46Z</time>
      </trkpt>
      <trkpt lat="44.87909" lon="5.48209">
        <ele>1509</ele>
        <time>2022-08-27T13:28:50Z</time>
      </trkpt>
      <trkpt lat="44.87906" lon="5.48214">
        <ele>1507</ele>
        <time>2022-08-27T13:28:54Z</time>
      </trkpt>
      <trkpt lat="44.87901" lon="5.48217">
        <ele>1507</ele>
        <time>2022-08-27T13:28:58Z</time>
      </trkpt>
      <trkpt lat="44.87897" lon="5.48221">
        <ele>1506</ele>
        <time>2022-08-27T13:29:02Z</time>
      </trkpt>
      <trkpt lat="44.87893" lon="5.48223">
        <ele>1505</ele>
        <time>2022-08-27T13:29:07Z</time>
      </trkpt>
      <trkpt lat="44.87889" lon="5.48219">
        <ele>1504</ele>
        <time>2022-08-27T13:29:11Z</time>
      </trkpt>
      <trkpt lat="44.87877" lon="5.48192">
        <ele>1501</ele>
        <time>2022-08-27T13:29:28Z</time>
      </trkpt>
      <trkpt lat="44.87875" lon="5.48185">
        <ele>1500</ele>
        <time>2022-08-27T13:29:32Z</time>
      </trkpt>
      <trkpt lat="44.87872" lon="5.48166">
        <ele>1500</ele>
        <time>2022-08-27T13:29:44Z</time>
      </trkpt>
      <trkpt lat="44.87867" lon="5.48154">
        <ele>1500</ele>
        <time>2022-08-27T13:29:51Z</time>
      </trkpt>
      <trkpt lat="44.87864" lon="5.48149">
        <ele>1500</ele>
        <time>2022-08-27T13:29:55Z</time>
      </trkpt>
      <trkpt lat="44.87861" lon="5.48144">
        <ele>1500</ele>
        <time>2022-08-27T13:29:59Z</time>
      </trkpt>
      <trkpt lat="44.87857" lon="5.48129">
        <ele>1498</ele>
        <time>2022-08-27T13:30:09Z</time>
      </trkpt>
      <trkpt lat="44.87851" lon="5.48119">
        <ele>1497</ele>
        <time>2022-08-27T13:30:16Z</time>
      </trkpt>
      <trkpt lat="44.87848" lon="5.48116">
        <ele>1497</ele>
        <time>2022-08-27T13:30:19Z</time>
      </trkpt>
      <trkpt lat="44.87842" lon="5.4811">
        <ele>1497</ele>
        <time>2022-08-27T13:30:25Z</time>
      </trkpt>
      <trkpt lat="44.8784" lon="5.48103">
        <ele>1495</ele>
        <time>2022-08-27T13:30:29Z</time>
      </trkpt>
      <trkpt lat="44.87837" lon="5.48095">
        <ele>1495</ele>
        <time>2022-08-27T13:30:36Z</time>
      </trkpt>
      <trkpt lat="44.87836" lon="5.48087">
        <ele>1495</ele>
        <time>2022-08-27T13:30:48Z</time>
      </trkpt>
      <trkpt lat="44.87838" lon="5.48073">
        <ele>1495</ele>
        <time>2022-08-27T13:30:56Z</time>
      </trkpt>
      <trkpt lat="44.87851" lon="5.48021">
        <ele>1493</ele>
        <time>2022-08-27T13:31:28Z</time>
      </trkpt>
      <trkpt lat="44.87866" lon="5.47977">
        <ele>1491</ele>
        <time>2022-08-27T13:31:55Z</time>
      </trkpt>
      <trkpt lat="44.87875" lon="5.47923">
        <ele>1489</ele>
        <time>2022-08-27T13:32:28Z</time>
      </trkpt>
      <trkpt lat="44.87875" lon="5.47916">
        <ele>1489</ele>
        <time>2022-08-27T13:32:33Z</time>
      </trkpt>
      <trkpt lat="44.87875" lon="5.47868">
        <ele>1488</ele>
        <time>2022-08-27T13:33:01Z</time>
      </trkpt>
      <trkpt lat="44.87878" lon="5.47848">
        <ele>1487</ele>
        <time>2022-08-27T13:33:13Z</time>
      </trkpt>
      <trkpt lat="44.87879" lon="5.4782">
        <ele>1486</ele>
        <time>2022-08-27T13:33:29Z</time>
      </trkpt>
      <trkpt lat="44.87881" lon="5.47813">
        <ele>1486</ele>
        <time>2022-08-27T13:33:34Z</time>
      </trkpt>
      <trkpt lat="44.87881" lon="5.47757">
        <ele>1484</ele>
        <time>2022-08-27T13:34:05Z</time>
      </trkpt>
      <trkpt lat="44.87883" lon="5.47744">
        <ele>1484</ele>
        <time>2022-08-27T13:34:14Z</time>
      </trkpt>
      <trkpt lat="44.87891" lon="5.47721">
        <ele>1483</ele>
        <time>2022-08-27T13:34:29Z</time>
      </trkpt>
      <trkpt lat="44.87894" lon="5.47716">
        <ele>1483</ele>
        <time>2022-08-27T13:34:32Z</time>
      </trkpt>
      <trkpt lat="44.87908" lon="5.47664">
        <ele>1481</ele>
        <time>2022-08-27T13:35:04Z</time>
      </trkpt>
      <trkpt lat="44.87924" lon="5.47612">
        <ele>1479</ele>
        <time>2022-08-27T13:35:37Z</time>
      </trkpt>
      <trkpt lat="44.87925" lon="5.47606">
        <ele>1479</ele>
        <time>2022-08-27T13:35:41Z</time>
      </trkpt>
      <trkpt lat="44.87929" lon="5.47595">
        <ele>1479</ele>
        <time>2022-08-27T13:35:48Z</time>
      </trkpt>
      <trkpt lat="44.8793" lon="5.47588">
        <ele>1478</ele>
        <time>2022-08-27T13:35:52Z</time>
      </trkpt>
      <trkpt lat="44.87932" lon="5.47582">
        <ele>1478</ele>
        <time>2022-08-27T13:35:56Z</time>
      </trkpt>
      <trkpt lat="44.87938" lon="5.47549">
        <ele>1477</ele>
        <time>2022-08-27T13:36:16Z</time>
      </trkpt>
      <trkpt lat="44.8794" lon="5.47542">
        <ele>1477</ele>
        <time>2022-08-27T13:36:20Z</time>
      </trkpt>
      <trkpt lat="44.87947" lon="5.47502">
        <ele>1476</ele>
        <time>2022-08-27T13:36:45Z</time>
      </trkpt>
      <trkpt lat="44.87955" lon="5.47477">
        <ele>1475</ele>
        <time>2022-08-27T13:37:01Z</time>
      </trkpt>
      <trkpt lat="44.87961" lon="5.47437">
        <ele>1474</ele>
        <time>2022-08-27T13:37:23Z</time>
      </trkpt>
      <trkpt lat="44.87961" lon="5.4743">
        <ele>1474</ele>
        <time>2022-08-27T13:37:28Z</time>
      </trkpt>
      <trkpt lat="44.87964" lon="5.47412">
        <ele>1474</ele>
        <time>2022-08-27T13:37:40Z</time>
      </trkpt>
      <trkpt lat="44.87972" lon="5.47394">
        <ele>1473</ele>
        <time>2022-08-27T13:37:52Z</time>
      </trkpt>
      <trkpt lat="44.87996" lon="5.47354">
        <ele>1472</ele>
        <time>2022-08-27T13:38:22Z</time>
      </trkpt>
      <trkpt lat="44.87999" lon="5.47336">
        <ele>1472</ele>
        <time>2022-08-27T13:38:34Z</time>
      </trkpt>
      <trkpt lat="44.88001" lon="5.47329">
        <ele>1472</ele>
        <time>2022-08-27T13:38:38Z</time>
      </trkpt>
      <trkpt lat="44.88006" lon="5.47317">
        <ele>1471</ele>
        <time>2022-08-27T13:38:46Z</time>
      </trkpt>
      <trkpt lat="44.88009" lon="5.47311">
        <ele>1470</ele>
        <time>2022-08-27T13:38:50Z</time>
      </trkpt>
      <trkpt lat="44.88012" lon="5.47305">
        <ele>1470</ele>
        <time>2022-08-27T13:38:54Z</time>
      </trkpt>
      <trkpt lat="44.88014" lon="5.47299">
        <ele>1470</ele>
        <time>2022-08-27T13:38:58Z</time>
      </trkpt>
      <trkpt lat="44.88022" lon="5.47274">
        <ele>1470</ele>
        <time>2022-08-27T13:39:14Z</time>
      </trkpt>
      <trkpt lat="44.88023" lon="5.47254">
        <ele>1469</ele>
        <time>2022-08-27T13:39:25Z</time>
      </trkpt>
      <trkpt lat="44.88025" lon="5.47241">
        <ele>1468</ele>
        <time>2022-08-27T13:39:33Z</time>
      </trkpt>
      <trkpt lat="44.88027" lon="5.47235">
        <ele>1467</ele>
        <time>2022-08-27T13:39:37Z</time>
      </trkpt>
      <trkpt lat="44.88029" lon="5.47228">
        <ele>1467</ele>
        <time>2022-08-27T13:39:42Z</time>
      </trkpt>
      <trkpt lat="44.88043" lon="5.472">
        <ele>1465</ele>
        <time>2022-08-27T13:40:02Z</time>
      </trkpt>
      <trkpt lat="44.88046" lon="5.47195">
        <ele>1464</ele>
        <time>2022-08-27T13:40:05Z</time>
      </trkpt>
      <trkpt lat="44.88049" lon="5.47188">
        <ele>1464</ele>
        <time>2022-08-27T13:40:10Z</time>
      </trkpt>
      <trkpt lat="44.88074" lon="5.47142">
        <ele>1462</ele>
        <time>2022-08-27T13:40:43Z</time>
      </trkpt>
      <trkpt lat="44.88077" lon="5.47136">
        <ele>1462</ele>
        <time>2022-08-27T13:40:47Z</time>
      </trkpt>
      <trkpt lat="44.8808" lon="5.4713">
        <ele>1462</ele>
        <time>2022-08-27T13:40:51Z</time>
      </trkpt>
      <trkpt lat="44.88083" lon="5.47117">
        <ele>1461</ele>
        <time>2022-08-27T13:40:58Z</time>
      </trkpt>
      <trkpt lat="44.88086" lon="5.47113">
        <ele>1461</ele>
        <time>2022-08-27T13:41:02Z</time>
      </trkpt>
      <trkpt lat="44.88087" lon="5.47106">
        <ele>1461</ele>
        <time>2022-08-27T13:41:06Z</time>
      </trkpt>
      <trkpt lat="44.88095" lon="5.47082">
        <ele>1461</ele>
        <time>2022-08-27T13:41:22Z</time>
      </trkpt>
      <trkpt lat="44.88096" lon="5.47075">
        <ele>1461</ele>
        <time>2022-08-27T13:41:26Z</time>
      </trkpt>
      <trkpt lat="44.88104" lon="5.47044">
        <ele>1460</ele>
        <time>2022-08-27T13:41:45Z</time>
      </trkpt>
      <trkpt lat="44.88107" lon="5.47039">
        <ele>1460</ele>
        <time>2022-08-27T13:41:49Z</time>
      </trkpt>
      <trkpt lat="44.8811" lon="5.47031">
        <ele>1459</ele>
        <time>2022-08-27T13:41:54Z</time>
      </trkpt>
      <trkpt lat="44.88116" lon="5.4702">
        <ele>1459</ele>
        <time>2022-08-27T13:42:02Z</time>
      </trkpt>
      <trkpt lat="44.88117" lon="5.47013">
        <ele>1459</ele>
        <time>2022-08-27T13:42:06Z</time>
      </trkpt>
      <trkpt lat="44.88125" lon="5.46996">
        <ele>1458</ele>
        <time>2022-08-27T13:42:18Z</time>
      </trkpt>
      <trkpt lat="44.88138" lon="5.46947">
        <ele>1457</ele>
        <time>2022-08-27T13:42:49Z</time>
      </trkpt>
      <trkpt lat="44.8814" lon="5.4694">
        <ele>1457</ele>
        <time>2022-08-27T13:42:53Z</time>
      </trkpt>
      <trkpt lat="44.88147" lon="5.46907">
        <ele>1457</ele>
        <time>2022-08-27T13:43:13Z</time>
      </trkpt>
      <trkpt lat="44.88161" lon="5.4687">
        <ele>1456</ele>
        <time>2022-08-27T13:43:38Z</time>
      </trkpt>
      <trkpt lat="44.88175" lon="5.46842">
        <ele>1455</ele>
        <time>2022-08-27T13:43:59Z</time>
      </trkpt>
      <trkpt lat="44.88191" lon="5.46807">
        <ele>1456</ele>
        <time>2022-08-27T13:44:28Z</time>
      </trkpt>
      <trkpt lat="44.88191" lon="5.46808">
        <ele>1458</ele>
        <time>2022-08-27T13:48:46Z</time>
      </trkpt>
      <trkpt lat="44.8819" lon="5.46806">
        <ele>1456</ele>
        <time>2022-08-27T13:51:24Z</time>
      </trkpt>
      <trkpt lat="44.88193" lon="5.46794">
        <ele>1456</ele>
        <time>2022-08-27T13:53:25Z</time>
      </trkpt>
      <trkpt lat="44.88194" lon="5.46786">
        <ele>1456</ele>
        <time>2022-08-27T13:53:30Z</time>
      </trkpt>
      <trkpt lat="44.88194" lon="5.46758">
        <ele>1455</ele>
        <time>2022-08-27T13:53:49Z</time>
      </trkpt>
      <trkpt lat="44.88198" lon="5.46747">
        <ele>1455</ele>
        <time>2022-08-27T13:53:57Z</time>
      </trkpt>
      <trkpt lat="44.88197" lon="5.4674">
        <ele>1455</ele>
        <time>2022-08-27T13:54:01Z</time>
      </trkpt>
      <trkpt lat="44.88204" lon="5.46714">
        <ele>1454</ele>
        <time>2022-08-27T13:54:18Z</time>
      </trkpt>
      <trkpt lat="44.88206" lon="5.46701">
        <ele>1454</ele>
        <time>2022-08-27T13:54:26Z</time>
      </trkpt>
      <trkpt lat="44.88206" lon="5.46694">
        <ele>1454</ele>
        <time>2022-08-27T13:54:30Z</time>
      </trkpt>
      <trkpt lat="44.88208" lon="5.46666">
        <ele>1453</ele>
        <time>2022-08-27T13:54:47Z</time>
      </trkpt>
      <trkpt lat="44.8821" lon="5.4666">
        <ele>1453</ele>
        <time>2022-08-27T13:54:50Z</time>
      </trkpt>
      <trkpt lat="44.8821" lon="5.46646">
        <ele>1453</ele>
        <time>2022-08-27T13:54:58Z</time>
      </trkpt>
      <trkpt lat="44.88212" lon="5.4664">
        <ele>1453</ele>
        <time>2022-08-27T13:55:02Z</time>
      </trkpt>
      <trkpt lat="44.8821" lon="5.46627">
        <ele>1452</ele>
        <time>2022-08-27T13:55:11Z</time>
      </trkpt>
      <trkpt lat="44.88214" lon="5.46614">
        <ele>1452</ele>
        <time>2022-08-27T13:55:19Z</time>
      </trkpt>
      <trkpt lat="44.88211" lon="5.46603">
        <ele>1451</ele>
        <time>2022-08-27T13:55:27Z</time>
      </trkpt>
      <trkpt lat="44.88211" lon="5.46588">
        <ele>1451</ele>
        <time>2022-08-27T13:55:35Z</time>
      </trkpt>
      <trkpt lat="44.88209" lon="5.46581">
        <ele>1451</ele>
        <time>2022-08-27T13:55:41Z</time>
      </trkpt>
      <trkpt lat="44.88213" lon="5.46561">
        <ele>1450</ele>
        <time>2022-08-27T13:55:53Z</time>
      </trkpt>
      <trkpt lat="44.88217" lon="5.46549">
        <ele>1450</ele>
        <time>2022-08-27T13:56:00Z</time>
      </trkpt>
      <trkpt lat="44.88217" lon="5.46543">
        <ele>1450</ele>
        <time>2022-08-27T13:56:04Z</time>
      </trkpt>
      <trkpt lat="44.88223" lon="5.46523">
        <ele>1449</ele>
        <time>2022-08-27T13:56:19Z</time>
      </trkpt>
      <trkpt lat="44.88222" lon="5.46516">
        <ele>1449</ele>
        <time>2022-08-27T13:56:23Z</time>
      </trkpt>
      <trkpt lat="44.88225" lon="5.46509">
        <ele>1448</ele>
        <time>2022-08-27T13:56:28Z</time>
      </trkpt>
      <trkpt lat="44.88237" lon="5.46493">
        <ele>1446</ele>
        <time>2022-08-27T13:56:40Z</time>
      </trkpt>
      <trkpt lat="44.88241" lon="5.46491">
        <ele>1446</ele>
        <time>2022-08-27T13:56:43Z</time>
      </trkpt>
      <trkpt lat="44.88246" lon="5.46484">
        <ele>1445</ele>
        <time>2022-08-27T13:56:49Z</time>
      </trkpt>
      <trkpt lat="44.88247" lon="5.46475">
        <ele>1445</ele>
        <time>2022-08-27T13:56:52Z</time>
      </trkpt>
      <trkpt lat="44.88247" lon="5.46458">
        <ele>1444</ele>
        <time>2022-08-27T13:57:01Z</time>
      </trkpt>
      <trkpt lat="44.88249" lon="5.46452">
        <ele>1444</ele>
        <time>2022-08-27T13:57:04Z</time>
      </trkpt>
      <trkpt lat="44.88252" lon="5.46445">
        <ele>1444</ele>
        <time>2022-08-27T13:57:08Z</time>
      </trkpt>
      <trkpt lat="44.88255" lon="5.46433">
        <ele>1443</ele>
        <time>2022-08-27T13:57:17Z</time>
      </trkpt>
      <trkpt lat="44.88254" lon="5.46418">
        <ele>1442</ele>
        <time>2022-08-27T13:57:27Z</time>
      </trkpt>
      <trkpt lat="44.88258" lon="5.46412">
        <ele>1441</ele>
        <time>2022-08-27T13:57:31Z</time>
      </trkpt>
      <trkpt lat="44.88261" lon="5.46398">
        <ele>1441</ele>
        <time>2022-08-27T13:57:39Z</time>
      </trkpt>
      <trkpt lat="44.88261" lon="5.46383">
        <ele>1440</ele>
        <time>2022-08-27T13:57:49Z</time>
      </trkpt>
      <trkpt lat="44.88264" lon="5.4637">
        <ele>1439</ele>
        <time>2022-08-27T13:57:57Z</time>
      </trkpt>
      <trkpt lat="44.88268" lon="5.46363">
        <ele>1438</ele>
        <time>2022-08-27T13:58:02Z</time>
      </trkpt>
      <trkpt lat="44.8827" lon="5.46349">
        <ele>1437</ele>
        <time>2022-08-27T13:58:10Z</time>
      </trkpt>
      <trkpt lat="44.88269" lon="5.46343">
        <ele>1437</ele>
        <time>2022-08-27T13:58:14Z</time>
      </trkpt>
      <trkpt lat="44.88276" lon="5.4633">
        <ele>1436</ele>
        <time>2022-08-27T13:58:22Z</time>
      </trkpt>
      <trkpt lat="44.88283" lon="5.46297">
        <ele>1434</ele>
        <time>2022-08-27T13:58:44Z</time>
      </trkpt>
      <trkpt lat="44.8829" lon="5.46244">
        <ele>1431</ele>
        <time>2022-08-27T13:59:14Z</time>
      </trkpt>
      <trkpt lat="44.8829" lon="5.46234">
        <ele>1430</ele>
        <time>2022-08-27T13:59:20Z</time>
      </trkpt>
      <trkpt lat="44.88287" lon="5.46227">
        <ele>1430</ele>
        <time>2022-08-27T13:59:24Z</time>
      </trkpt>
      <trkpt lat="44.88282" lon="5.46223">
        <ele>1429</ele>
        <time>2022-08-27T13:59:27Z</time>
      </trkpt>
      <trkpt lat="44.88281" lon="5.46208">
        <ele>1428</ele>
        <time>2022-08-27T13:59:35Z</time>
      </trkpt>
      <trkpt lat="44.88283" lon="5.462">
        <ele>1428</ele>
        <time>2022-08-27T13:59:40Z</time>
      </trkpt>
      <trkpt lat="44.8828" lon="5.46193">
        <ele>1428</ele>
        <time>2022-08-27T13:59:44Z</time>
      </trkpt>
      <trkpt lat="44.88278" lon="5.46181">
        <ele>1427</ele>
        <time>2022-08-27T13:59:51Z</time>
      </trkpt>
      <trkpt lat="44.8828" lon="5.46174">
        <ele>1427</ele>
        <time>2022-08-27T13:59:55Z</time>
      </trkpt>
      <trkpt lat="44.88278" lon="5.4616">
        <ele>1427</ele>
        <time>2022-08-27T14:00:02Z</time>
      </trkpt>
      <trkpt lat="44.88276" lon="5.46153">
        <ele>1426</ele>
        <time>2022-08-27T14:00:07Z</time>
      </trkpt>
      <trkpt lat="44.88277" lon="5.46146">
        <ele>1426</ele>
        <time>2022-08-27T14:00:11Z</time>
      </trkpt>
      <trkpt lat="44.88275" lon="5.46131">
        <ele>1426</ele>
        <time>2022-08-27T14:00:20Z</time>
      </trkpt>
      <trkpt lat="44.88273" lon="5.46125">
        <ele>1425</ele>
        <time>2022-08-27T14:00:23Z</time>
      </trkpt>
      <trkpt lat="44.88273" lon="5.46119">
        <ele>1425</ele>
        <time>2022-08-27T14:00:27Z</time>
      </trkpt>
      <trkpt lat="44.8827" lon="5.46114">
        <ele>1425</ele>
        <time>2022-08-27T14:00:30Z</time>
      </trkpt>
      <trkpt lat="44.88268" lon="5.46108">
        <ele>1425</ele>
        <time>2022-08-27T14:00:34Z</time>
      </trkpt>
      <trkpt lat="44.88264" lon="5.46104">
        <ele>1425</ele>
        <time>2022-08-27T14:00:37Z</time>
      </trkpt>
      <trkpt lat="44.88261" lon="5.46092">
        <ele>1424</ele>
        <time>2022-08-27T14:00:44Z</time>
      </trkpt>
      <trkpt lat="44.88256" lon="5.4608">
        <ele>1424</ele>
        <time>2022-08-27T14:00:52Z</time>
      </trkpt>
      <trkpt lat="44.88252" lon="5.46058">
        <ele>1423</ele>
        <time>2022-08-27T14:01:05Z</time>
      </trkpt>
      <trkpt lat="44.88249" lon="5.46053">
        <ele>1423</ele>
        <time>2022-08-27T14:01:09Z</time>
      </trkpt>
      <trkpt lat="44.88247" lon="5.46047">
        <ele>1423</ele>
        <time>2022-08-27T14:01:13Z</time>
      </trkpt>
      <trkpt lat="44.88241" lon="5.46036">
        <ele>1423</ele>
        <time>2022-08-27T14:01:20Z</time>
      </trkpt>
      <trkpt lat="44.8824" lon="5.46029">
        <ele>1423</ele>
        <time>2022-08-27T14:01:24Z</time>
      </trkpt>
      <trkpt lat="44.88237" lon="5.46024">
        <ele>1422</ele>
        <time>2022-08-27T14:01:28Z</time>
      </trkpt>
      <trkpt lat="44.88234" lon="5.46012">
        <ele>1422</ele>
        <time>2022-08-27T14:01:36Z</time>
      </trkpt>
      <trkpt lat="44.88228" lon="5.46002">
        <ele>1422</ele>
        <time>2022-08-27T14:01:42Z</time>
      </trkpt>
      <trkpt lat="44.88226" lon="5.45994">
        <ele>1422</ele>
        <time>2022-08-27T14:01:47Z</time>
      </trkpt>
      <trkpt lat="44.88229" lon="5.45988">
        <ele>1422</ele>
        <time>2022-08-27T14:01:49Z</time>
      </trkpt>
      <trkpt lat="44.88226" lon="5.45982">
        <ele>1421</ele>
        <time>2022-08-27T14:01:53Z</time>
      </trkpt>
      <trkpt lat="44.88222" lon="5.45976">
        <ele>1421</ele>
        <time>2022-08-27T14:01:57Z</time>
      </trkpt>
      <trkpt lat="44.88221" lon="5.45969">
        <ele>1421</ele>
        <time>2022-08-27T14:02:01Z</time>
      </trkpt>
      <trkpt lat="44.88217" lon="5.45965">
        <ele>1421</ele>
        <time>2022-08-27T14:02:05Z</time>
      </trkpt>
      <trkpt lat="44.88213" lon="5.45945">
        <ele>1421</ele>
        <time>2022-08-27T14:02:17Z</time>
      </trkpt>
      <trkpt lat="44.88208" lon="5.45943">
        <ele>1421</ele>
        <time>2022-08-27T14:02:19Z</time>
      </trkpt>
      <trkpt lat="44.88205" lon="5.45925">
        <ele>1421</ele>
        <time>2022-08-27T14:02:30Z</time>
      </trkpt>
      <trkpt lat="44.88201" lon="5.45921">
        <ele>1421</ele>
        <time>2022-08-27T14:02:34Z</time>
      </trkpt>
      <trkpt lat="44.88197" lon="5.45908">
        <ele>1420</ele>
        <time>2022-08-27T14:02:42Z</time>
      </trkpt>
      <trkpt lat="44.88186" lon="5.45884">
        <ele>1420</ele>
        <time>2022-08-27T14:02:59Z</time>
      </trkpt>
      <trkpt lat="44.88185" lon="5.45878">
        <ele>1420</ele>
        <time>2022-08-27T14:03:02Z</time>
      </trkpt>
      <trkpt lat="44.88182" lon="5.45873">
        <ele>1419</ele>
        <time>2022-08-27T14:03:05Z</time>
      </trkpt>
      <trkpt lat="44.88181" lon="5.45866">
        <ele>1419</ele>
        <time>2022-08-27T14:03:09Z</time>
      </trkpt>
      <trkpt lat="44.88177" lon="5.45847">
        <ele>1419</ele>
        <time>2022-08-27T14:03:22Z</time>
      </trkpt>
      <trkpt lat="44.88174" lon="5.45843">
        <ele>1419</ele>
        <time>2022-08-27T14:03:25Z</time>
      </trkpt>
      <trkpt lat="44.88169" lon="5.45832">
        <ele>1418</ele>
        <time>2022-08-27T14:03:32Z</time>
      </trkpt>
      <trkpt lat="44.88161" lon="5.45821">
        <ele>1418</ele>
        <time>2022-08-27T14:03:41Z</time>
      </trkpt>
      <trkpt lat="44.88156" lon="5.45799">
        <ele>1418</ele>
        <time>2022-08-27T14:03:52Z</time>
      </trkpt>
      <trkpt lat="44.88147" lon="5.45791">
        <ele>1418</ele>
        <time>2022-08-27T14:04:00Z</time>
      </trkpt>
      <trkpt lat="44.88138" lon="5.45778">
        <ele>1418</ele>
        <time>2022-08-27T14:04:10Z</time>
      </trkpt>
      <trkpt lat="44.8813" lon="5.45773">
        <ele>1418</ele>
        <time>2022-08-27T14:04:16Z</time>
      </trkpt>
      <trkpt lat="44.88127" lon="5.45768">
        <ele>1417</ele>
        <time>2022-08-27T14:04:20Z</time>
      </trkpt>
      <trkpt lat="44.88126" lon="5.45763">
        <ele>1417</ele>
        <time>2022-08-27T14:04:24Z</time>
      </trkpt>
      <trkpt lat="44.88125" lon="5.45757">
        <ele>1416</ele>
        <time>2022-08-27T14:04:31Z</time>
      </trkpt>
      <trkpt lat="44.88127" lon="5.4575">
        <ele>1416</ele>
        <time>2022-08-27T14:04:36Z</time>
      </trkpt>
      <trkpt lat="44.88126" lon="5.45742">
        <ele>1415</ele>
        <time>2022-08-27T14:04:40Z</time>
      </trkpt>
      <trkpt lat="44.88128" lon="5.45734">
        <ele>1414</ele>
        <time>2022-08-27T14:04:46Z</time>
      </trkpt>
      <trkpt lat="44.88125" lon="5.45716">
        <ele>1413</ele>
        <time>2022-08-27T14:04:55Z</time>
      </trkpt>
      <trkpt lat="44.8812" lon="5.45709">
        <ele>1413</ele>
        <time>2022-08-27T14:04:58Z</time>
      </trkpt>
      <trkpt lat="44.88119" lon="5.457">
        <ele>1412</ele>
        <time>2022-08-27T14:05:02Z</time>
      </trkpt>
      <trkpt lat="44.8811" lon="5.45674">
        <ele>1411</ele>
        <time>2022-08-27T14:05:19Z</time>
      </trkpt>
      <trkpt lat="44.88109" lon="5.45659">
        <ele>1411</ele>
        <time>2022-08-27T14:05:27Z</time>
      </trkpt>
      <trkpt lat="44.88105" lon="5.45655">
        <ele>1410</ele>
        <time>2022-08-27T14:05:31Z</time>
      </trkpt>
      <trkpt lat="44.88105" lon="5.45647">
        <ele>1410</ele>
        <time>2022-08-27T14:05:35Z</time>
      </trkpt>
      <trkpt lat="44.88111" lon="5.4563">
        <ele>1410</ele>
        <time>2022-08-27T14:05:44Z</time>
      </trkpt>
      <trkpt lat="44.88111" lon="5.4562">
        <ele>1410</ele>
        <time>2022-08-27T14:05:50Z</time>
      </trkpt>
      <trkpt lat="44.88105" lon="5.45615">
        <ele>1410</ele>
        <time>2022-08-27T14:05:53Z</time>
      </trkpt>
      <trkpt lat="44.88105" lon="5.45607">
        <ele>1409</ele>
        <time>2022-08-27T14:05:57Z</time>
      </trkpt>
      <trkpt lat="44.88097" lon="5.45596">
        <ele>1409</ele>
        <time>2022-08-27T14:06:05Z</time>
      </trkpt>
      <trkpt lat="44.88091" lon="5.45583">
        <ele>1409</ele>
        <time>2022-08-27T14:06:13Z</time>
      </trkpt>
      <trkpt lat="44.88085" lon="5.45573">
        <ele>1409</ele>
        <time>2022-08-27T14:06:20Z</time>
      </trkpt>
      <trkpt lat="44.88081" lon="5.45569">
        <ele>1408</ele>
        <time>2022-08-27T14:06:23Z</time>
      </trkpt>
      <trkpt lat="44.88079" lon="5.45565">
        <ele>1408</ele>
        <time>2022-08-27T14:06:26Z</time>
      </trkpt>
      <trkpt lat="44.88074" lon="5.45555">
        <ele>1408</ele>
        <time>2022-08-27T14:06:34Z</time>
      </trkpt>
      <trkpt lat="44.88068" lon="5.45547">
        <ele>1407</ele>
        <time>2022-08-27T14:06:40Z</time>
      </trkpt>
      <trkpt lat="44.88068" lon="5.45538">
        <ele>1406</ele>
        <time>2022-08-27T14:06:45Z</time>
      </trkpt>
      <trkpt lat="44.88067" lon="5.45531">
        <ele>1405</ele>
        <time>2022-08-27T14:06:49Z</time>
      </trkpt>
      <trkpt lat="44.88069" lon="5.45525">
        <ele>1405</ele>
        <time>2022-08-27T14:06:52Z</time>
      </trkpt>
      <trkpt lat="44.88066" lon="5.45519">
        <ele>1404</ele>
        <time>2022-08-27T14:06:55Z</time>
      </trkpt>
      <trkpt lat="44.88067" lon="5.45512">
        <ele>1403</ele>
        <time>2022-08-27T14:07:00Z</time>
      </trkpt>
      <trkpt lat="44.88065" lon="5.45506">
        <ele>1403</ele>
        <time>2022-08-27T14:07:03Z</time>
      </trkpt>
      <trkpt lat="44.88064" lon="5.45498">
        <ele>1402</ele>
        <time>2022-08-27T14:07:07Z</time>
      </trkpt>
      <trkpt lat="44.88056" lon="5.45487">
        <ele>1401</ele>
        <time>2022-08-27T14:07:15Z</time>
      </trkpt>
      <trkpt lat="44.88057" lon="5.4548">
        <ele>1400</ele>
        <time>2022-08-27T14:07:19Z</time>
      </trkpt>
      <trkpt lat="44.88055" lon="5.45474">
        <ele>1400</ele>
        <time>2022-08-27T14:07:23Z</time>
      </trkpt>
      <trkpt lat="44.88053" lon="5.45469">
        <ele>1399</ele>
        <time>2022-08-27T14:07:26Z</time>
      </trkpt>
      <trkpt lat="44.88049" lon="5.45465">
        <ele>1399</ele>
        <time>2022-08-27T14:07:29Z</time>
      </trkpt>
      <trkpt lat="44.88043" lon="5.45464">
        <ele>1398</ele>
        <time>2022-08-27T14:07:32Z</time>
      </trkpt>
      <trkpt lat="44.88038" lon="5.45468">
        <ele>1398</ele>
        <time>2022-08-27T14:07:35Z</time>
      </trkpt>
      <trkpt lat="44.8803" lon="5.45475">
        <ele>1398</ele>
        <time>2022-08-27T14:07:43Z</time>
      </trkpt>
      <trkpt lat="44.88026" lon="5.45477">
        <ele>1398</ele>
        <time>2022-08-27T14:07:47Z</time>
      </trkpt>
      <trkpt lat="44.88018" lon="5.45479">
        <ele>1398</ele>
        <time>2022-08-27T14:07:55Z</time>
      </trkpt>
      <trkpt lat="44.88011" lon="5.45483">
        <ele>1397</ele>
        <time>2022-08-27T14:08:04Z</time>
      </trkpt>
      <trkpt lat="44.88004" lon="5.45482">
        <ele>1395</ele>
        <time>2022-08-27T14:08:13Z</time>
      </trkpt>
      <trkpt lat="44.88" lon="5.45478">
        <ele>1394</ele>
        <time>2022-08-27T14:08:17Z</time>
      </trkpt>
      <trkpt lat="44.87993" lon="5.45476">
        <ele>1393</ele>
        <time>2022-08-27T14:08:25Z</time>
      </trkpt>
      <trkpt lat="44.87987" lon="5.45478">
        <ele>1391</ele>
        <time>2022-08-27T14:08:37Z</time>
      </trkpt>
      <trkpt lat="44.87983" lon="5.45475">
        <ele>1389</ele>
        <time>2022-08-27T14:08:43Z</time>
      </trkpt>
      <trkpt lat="44.8798" lon="5.45471">
        <ele>1389</ele>
        <time>2022-08-27T14:08:47Z</time>
      </trkpt>
      <trkpt lat="44.8797" lon="5.45467">
        <ele>1388</ele>
        <time>2022-08-27T14:08:53Z</time>
      </trkpt>
      <trkpt lat="44.87967" lon="5.45463">
        <ele>1388</ele>
        <time>2022-08-27T14:08:57Z</time>
      </trkpt>
      <trkpt lat="44.87964" lon="5.45458">
        <ele>1388</ele>
        <time>2022-08-27T14:09:02Z</time>
      </trkpt>
      <trkpt lat="44.87961" lon="5.45443">
        <ele>1388</ele>
        <time>2022-08-27T14:09:11Z</time>
      </trkpt>
      <trkpt lat="44.87962" lon="5.45436">
        <ele>1388</ele>
        <time>2022-08-27T14:09:17Z</time>
      </trkpt>
      <trkpt lat="44.8796" lon="5.45432">
        <ele>1388</ele>
        <time>2022-08-27T14:09:20Z</time>
      </trkpt>
      <trkpt lat="44.87954" lon="5.45423">
        <ele>1387</ele>
        <time>2022-08-27T14:09:26Z</time>
      </trkpt>
      <trkpt lat="44.87953" lon="5.45418">
        <ele>1387</ele>
        <time>2022-08-27T14:09:30Z</time>
      </trkpt>
      <trkpt lat="44.87947" lon="5.45407">
        <ele>1387</ele>
        <time>2022-08-27T14:09:37Z</time>
      </trkpt>
      <trkpt lat="44.87946" lon="5.45402">
        <ele>1387</ele>
        <time>2022-08-27T14:09:40Z</time>
      </trkpt>
      <trkpt lat="44.87946" lon="5.45395">
        <ele>1387</ele>
        <time>2022-08-27T14:09:44Z</time>
      </trkpt>
      <trkpt lat="44.87943" lon="5.45382">
        <ele>1387</ele>
        <time>2022-08-27T14:09:51Z</time>
      </trkpt>
      <trkpt lat="44.87943" lon="5.45376">
        <ele>1387</ele>
        <time>2022-08-27T14:09:54Z</time>
      </trkpt>
      <trkpt lat="44.8794" lon="5.4537">
        <ele>1387</ele>
        <time>2022-08-27T14:09:59Z</time>
      </trkpt>
      <trkpt lat="44.87942" lon="5.45363">
        <ele>1386</ele>
        <time>2022-08-27T14:10:03Z</time>
      </trkpt>
      <trkpt lat="44.87941" lon="5.45357">
        <ele>1386</ele>
        <time>2022-08-27T14:10:07Z</time>
      </trkpt>
      <trkpt lat="44.87941" lon="5.4535">
        <ele>1386</ele>
        <time>2022-08-27T14:10:11Z</time>
      </trkpt>
      <trkpt lat="44.87943" lon="5.45342">
        <ele>1386</ele>
        <time>2022-08-27T14:10:17Z</time>
      </trkpt>
      <trkpt lat="44.87945" lon="5.45335">
        <ele>1386</ele>
        <time>2022-08-27T14:10:21Z</time>
      </trkpt>
      <trkpt lat="44.87945" lon="5.45328">
        <ele>1386</ele>
        <time>2022-08-27T14:10:26Z</time>
      </trkpt>
      <trkpt lat="44.87947" lon="5.45322">
        <ele>1385</ele>
        <time>2022-08-27T14:10:31Z</time>
      </trkpt>
      <trkpt lat="44.87946" lon="5.45306">
        <ele>1385</ele>
        <time>2022-08-27T14:10:40Z</time>
      </trkpt>
      <trkpt lat="44.8795" lon="5.453">
        <ele>1384</ele>
        <time>2022-08-27T14:10:44Z</time>
      </trkpt>
      <trkpt lat="44.87972" lon="5.4528">
        <ele>1383</ele>
        <time>2022-08-27T14:11:00Z</time>
      </trkpt>
      <trkpt lat="44.87974" lon="5.45273">
        <ele>1382</ele>
        <time>2022-08-27T14:11:04Z</time>
      </trkpt>
      <trkpt lat="44.87972" lon="5.45256">
        <ele>1382</ele>
        <time>2022-08-27T14:11:13Z</time>
      </trkpt>
      <trkpt lat="44.87974" lon="5.45251">
        <ele>1382</ele>
        <time>2022-08-27T14:11:17Z</time>
      </trkpt>
      <trkpt lat="44.87974" lon="5.45243">
        <ele>1382</ele>
        <time>2022-08-27T14:11:21Z</time>
      </trkpt>
      <trkpt lat="44.87977" lon="5.45238">
        <ele>1382</ele>
        <time>2022-08-27T14:11:25Z</time>
      </trkpt>
      <trkpt lat="44.87979" lon="5.45224">
        <ele>1381</ele>
        <time>2022-08-27T14:11:33Z</time>
      </trkpt>
      <trkpt lat="44.87983" lon="5.45219">
        <ele>1381</ele>
        <time>2022-08-27T14:11:36Z</time>
      </trkpt>
      <trkpt lat="44.87984" lon="5.45213">
        <ele>1381</ele>
        <time>2022-08-27T14:11:39Z</time>
      </trkpt>
      <trkpt lat="44.87984" lon="5.45207">
        <ele>1381</ele>
        <time>2022-08-27T14:11:42Z</time>
      </trkpt>
      <trkpt lat="44.87989" lon="5.45169">
        <ele>1380</ele>
        <time>2022-08-27T14:12:05Z</time>
      </trkpt>
      <trkpt lat="44.87989" lon="5.45163">
        <ele>1380</ele>
        <time>2022-08-27T14:12:09Z</time>
      </trkpt>
      <trkpt lat="44.87991" lon="5.45157">
        <ele>1380</ele>
        <time>2022-08-27T14:12:12Z</time>
      </trkpt>
      <trkpt lat="44.87991" lon="5.45136">
        <ele>1380</ele>
        <time>2022-08-27T14:12:24Z</time>
      </trkpt>
      <trkpt lat="44.8799" lon="5.4513">
        <ele>1380</ele>
        <time>2022-08-27T14:12:28Z</time>
      </trkpt>
      <trkpt lat="44.87991" lon="5.45121">
        <ele>1379</ele>
        <time>2022-08-27T14:12:33Z</time>
      </trkpt>
      <trkpt lat="44.87994" lon="5.4511">
        <ele>1379</ele>
        <time>2022-08-27T14:12:39Z</time>
      </trkpt>
      <trkpt lat="44.87993" lon="5.45092">
        <ele>1379</ele>
        <time>2022-08-27T14:12:51Z</time>
      </trkpt>
      <trkpt lat="44.87996" lon="5.45086">
        <ele>1379</ele>
        <time>2022-08-27T14:12:56Z</time>
      </trkpt>
      <trkpt lat="44.87995" lon="5.4508">
        <ele>1378</ele>
        <time>2022-08-27T14:13:00Z</time>
      </trkpt>
      <trkpt lat="44.88001" lon="5.4507">
        <ele>1378</ele>
        <time>2022-08-27T14:13:07Z</time>
      </trkpt>
      <trkpt lat="44.88003" lon="5.45063">
        <ele>1378</ele>
        <time>2022-08-27T14:13:11Z</time>
      </trkpt>
      <trkpt lat="44.88017" lon="5.45042">
        <ele>1377</ele>
        <time>2022-08-27T14:13:27Z</time>
      </trkpt>
      <trkpt lat="44.88027" lon="5.45031">
        <ele>1376</ele>
        <time>2022-08-27T14:13:37Z</time>
      </trkpt>
      <trkpt lat="44.88029" lon="5.45026">
        <ele>1376</ele>
        <time>2022-08-27T14:13:40Z</time>
      </trkpt>
      <trkpt lat="44.88033" lon="5.45022">
        <ele>1376</ele>
        <time>2022-08-27T14:13:44Z</time>
      </trkpt>
      <trkpt lat="44.88034" lon="5.45017">
        <ele>1376</ele>
        <time>2022-08-27T14:13:48Z</time>
      </trkpt>
      <trkpt lat="44.88042" lon="5.45004">
        <ele>1376</ele>
        <time>2022-08-27T14:13:59Z</time>
      </trkpt>
      <trkpt lat="44.88044" lon="5.44997">
        <ele>1376</ele>
        <time>2022-08-27T14:14:03Z</time>
      </trkpt>
      <trkpt lat="44.88053" lon="5.4498">
        <ele>1375</ele>
        <time>2022-08-27T14:14:15Z</time>
      </trkpt>
      <trkpt lat="44.88058" lon="5.44976">
        <ele>1375</ele>
        <time>2022-08-27T14:14:19Z</time>
      </trkpt>
      <trkpt lat="44.88072" lon="5.44948">
        <ele>1374</ele>
        <time>2022-08-27T14:14:40Z</time>
      </trkpt>
      <trkpt lat="44.88079" lon="5.44932">
        <ele>1374</ele>
        <time>2022-08-27T14:14:51Z</time>
      </trkpt>
      <trkpt lat="44.88081" lon="5.44927">
        <ele>1374</ele>
        <time>2022-08-27T14:14:55Z</time>
      </trkpt>
      <trkpt lat="44.88082" lon="5.44919">
        <ele>1374</ele>
        <time>2022-08-27T14:15:00Z</time>
      </trkpt>
      <trkpt lat="44.88085" lon="5.44913">
        <ele>1374</ele>
        <time>2022-08-27T14:15:04Z</time>
      </trkpt>
      <trkpt lat="44.88086" lon="5.44907">
        <ele>1373</ele>
        <time>2022-08-27T14:15:07Z</time>
      </trkpt>
      <trkpt lat="44.88093" lon="5.4488">
        <ele>1373</ele>
        <time>2022-08-27T14:15:22Z</time>
      </trkpt>
      <trkpt lat="44.88094" lon="5.44867">
        <ele>1373</ele>
        <time>2022-08-27T14:15:30Z</time>
      </trkpt>
      <trkpt lat="44.88101" lon="5.44834">
        <ele>1372</ele>
        <time>2022-08-27T14:15:51Z</time>
      </trkpt>
      <trkpt lat="44.88105" lon="5.4483">
        <ele>1372</ele>
        <time>2022-08-27T14:15:54Z</time>
      </trkpt>
      <trkpt lat="44.88105" lon="5.44824">
        <ele>1372</ele>
        <time>2022-08-27T14:15:58Z</time>
      </trkpt>
      <trkpt lat="44.88106" lon="5.44818">
        <ele>1372</ele>
        <time>2022-08-27T14:16:02Z</time>
      </trkpt>
      <trkpt lat="44.88105" lon="5.44812">
        <ele>1372</ele>
        <time>2022-08-27T14:16:05Z</time>
      </trkpt>
      <trkpt lat="44.88105" lon="5.44802">
        <ele>1372</ele>
        <time>2022-08-27T14:16:12Z</time>
      </trkpt>
      <trkpt lat="44.88109" lon="5.44785">
        <ele>1372</ele>
        <time>2022-08-27T14:16:21Z</time>
      </trkpt>
      <trkpt lat="44.88108" lon="5.44776">
        <ele>1372</ele>
        <time>2022-08-27T14:16:25Z</time>
      </trkpt>
      <trkpt lat="44.88105" lon="5.44771">
        <ele>1372</ele>
        <time>2022-08-27T14:16:27Z</time>
      </trkpt>
      <trkpt lat="44.88104" lon="5.44763">
        <ele>1372</ele>
        <time>2022-08-27T14:16:30Z</time>
      </trkpt>
      <trkpt lat="44.88104" lon="5.44757">
        <ele>1372</ele>
        <time>2022-08-27T14:16:33Z</time>
      </trkpt>
      <trkpt lat="44.88108" lon="5.44745">
        <ele>1372</ele>
        <time>2022-08-27T14:16:41Z</time>
      </trkpt>
      <trkpt lat="44.88111" lon="5.4473">
        <ele>1372</ele>
        <time>2022-08-27T14:16:52Z</time>
      </trkpt>
      <trkpt lat="44.88115" lon="5.44725">
        <ele>1372</ele>
        <time>2022-08-27T14:16:56Z</time>
      </trkpt>
      <trkpt lat="44.88117" lon="5.44717">
        <ele>1372</ele>
        <time>2022-08-27T14:17:01Z</time>
      </trkpt>
      <trkpt lat="44.88123" lon="5.44706">
        <ele>1372</ele>
        <time>2022-08-27T14:17:09Z</time>
      </trkpt>
      <trkpt lat="44.88128" lon="5.44663">
        <ele>1372</ele>
        <time>2022-08-27T14:17:34Z</time>
      </trkpt>
      <trkpt lat="44.88131" lon="5.44656">
        <ele>1372</ele>
        <time>2022-08-27T14:17:38Z</time>
      </trkpt>
      <trkpt lat="44.88133" lon="5.44644">
        <ele>1372</ele>
        <time>2022-08-27T14:17:45Z</time>
      </trkpt>
      <trkpt lat="44.88138" lon="5.4463">
        <ele>1372</ele>
        <time>2022-08-27T14:17:53Z</time>
      </trkpt>
      <trkpt lat="44.88139" lon="5.44622">
        <ele>1372</ele>
        <time>2022-08-27T14:17:57Z</time>
      </trkpt>
      <trkpt lat="44.88141" lon="5.44617">
        <ele>1372</ele>
        <time>2022-08-27T14:18:01Z</time>
      </trkpt>
      <trkpt lat="44.88142" lon="5.44611">
        <ele>1372</ele>
        <time>2022-08-27T14:18:05Z</time>
      </trkpt>
      <trkpt lat="44.88144" lon="5.44605">
        <ele>1372</ele>
        <time>2022-08-27T14:18:09Z</time>
      </trkpt>
      <trkpt lat="44.88146" lon="5.44592">
        <ele>1372</ele>
        <time>2022-08-27T14:18:16Z</time>
      </trkpt>
      <trkpt lat="44.88146" lon="5.44586">
        <ele>1372</ele>
        <time>2022-08-27T14:18:20Z</time>
      </trkpt>
      <trkpt lat="44.88151" lon="5.44554">
        <ele>1372</ele>
        <time>2022-08-27T14:18:38Z</time>
      </trkpt>
      <trkpt lat="44.8815" lon="5.44549">
        <ele>1372</ele>
        <time>2022-08-27T14:18:41Z</time>
      </trkpt>
      <trkpt lat="44.88154" lon="5.44543">
        <ele>1372</ele>
        <time>2022-08-27T14:18:45Z</time>
      </trkpt>
      <trkpt lat="44.88155" lon="5.44531">
        <ele>1372</ele>
        <time>2022-08-27T14:18:52Z</time>
      </trkpt>
      <trkpt lat="44.88157" lon="5.44503">
        <ele>1372</ele>
        <time>2022-08-27T14:19:10Z</time>
      </trkpt>
      <trkpt lat="44.88161" lon="5.44476">
        <ele>1372</ele>
        <time>2022-08-27T14:19:26Z</time>
      </trkpt>
      <trkpt lat="44.8816" lon="5.44467">
        <ele>1372</ele>
        <time>2022-08-27T14:19:31Z</time>
      </trkpt>
      <trkpt lat="44.88158" lon="5.44461">
        <ele>1372</ele>
        <time>2022-08-27T14:19:34Z</time>
      </trkpt>
      <trkpt lat="44.88157" lon="5.44455">
        <ele>1372</ele>
        <time>2022-08-27T14:19:38Z</time>
      </trkpt>
      <trkpt lat="44.88158" lon="5.44448">
        <ele>1372</ele>
        <time>2022-08-27T14:19:43Z</time>
      </trkpt>
      <trkpt lat="44.88158" lon="5.44441">
        <ele>1372</ele>
        <time>2022-08-27T14:19:50Z</time>
      </trkpt>
      <trkpt lat="44.88154" lon="5.44439">
        <ele>1372</ele>
        <time>2022-08-27T14:20:00Z</time>
      </trkpt>
      <trkpt lat="44.88154" lon="5.44432">
        <ele>1372</ele>
        <time>2022-08-27T14:21:28Z</time>
      </trkpt>
      <trkpt lat="44.88158" lon="5.4442">
        <ele>1372</ele>
        <time>2022-08-27T14:21:39Z</time>
      </trkpt>
      <trkpt lat="44.88156" lon="5.44406">
        <ele>1372</ele>
        <time>2022-08-27T14:21:49Z</time>
      </trkpt>
      <trkpt lat="44.88156" lon="5.444">
        <ele>1372</ele>
        <time>2022-08-27T14:21:54Z</time>
      </trkpt>
      <trkpt lat="44.88154" lon="5.44391">
        <ele>1372</ele>
        <time>2022-08-27T14:22:04Z</time>
      </trkpt>
      <trkpt lat="44.88154" lon="5.44385">
        <ele>1372</ele>
        <time>2022-08-27T14:22:09Z</time>
      </trkpt>
      <trkpt lat="44.8815" lon="5.44373">
        <ele>1372</ele>
        <time>2022-08-27T14:22:17Z</time>
      </trkpt>
      <trkpt lat="44.88151" lon="5.4436">
        <ele>1372</ele>
        <time>2022-08-27T14:22:25Z</time>
      </trkpt>
      <trkpt lat="44.88146" lon="5.44343">
        <ele>1372</ele>
        <time>2022-08-27T14:22:37Z</time>
      </trkpt>
      <trkpt lat="44.88147" lon="5.44337">
        <ele>1371</ele>
        <time>2022-08-27T14:22:41Z</time>
      </trkpt>
      <trkpt lat="44.88149" lon="5.44324">
        <ele>1371</ele>
        <time>2022-08-27T14:22:49Z</time>
      </trkpt>
      <trkpt lat="44.88156" lon="5.44317">
        <ele>1371</ele>
        <time>2022-08-27T14:22:59Z</time>
      </trkpt>
      <trkpt lat="44.88156" lon="5.4431">
        <ele>1372</ele>
        <time>2022-08-27T14:23:10Z</time>
      </trkpt>
      <trkpt lat="44.88161" lon="5.44301">
        <ele>1372</ele>
        <time>2022-08-27T14:23:19Z</time>
      </trkpt>
      <trkpt lat="44.88161" lon="5.44291">
        <ele>1372</ele>
        <time>2022-08-27T14:23:28Z</time>
      </trkpt>
      <trkpt lat="44.88162" lon="5.44278">
        <ele>1374</ele>
        <time>2022-08-27T14:23:38Z</time>
      </trkpt>
      <trkpt lat="44.88162" lon="5.44272">
        <ele>1374</ele>
        <time>2022-08-27T14:23:45Z</time>
      </trkpt>
      <trkpt lat="44.88163" lon="5.44265">
        <ele>1375</ele>
        <time>2022-08-27T14:23:50Z</time>
      </trkpt>
      <trkpt lat="44.88163" lon="5.44254">
        <ele>1376</ele>
        <time>2022-08-27T14:23:59Z</time>
      </trkpt>
      <trkpt lat="44.88168" lon="5.44217">
        <ele>1378</ele>
        <time>2022-08-27T14:24:27Z</time>
      </trkpt>
      <trkpt lat="44.88166" lon="5.44208">
        <ele>1379</ele>
        <time>2022-08-27T14:24:35Z</time>
      </trkpt>
      <trkpt lat="44.88152" lon="5.44185">
        <ele>1381</ele>
        <time>2022-08-27T14:24:55Z</time>
      </trkpt>
      <trkpt lat="44.88134" lon="5.44157">
        <ele>1384</ele>
        <time>2022-08-27T14:25:26Z</time>
      </trkpt>
      <trkpt lat="44.88133" lon="5.44151">
        <ele>1384</ele>
        <time>2022-08-27T14:25:30Z</time>
      </trkpt>
      <trkpt lat="44.88132" lon="5.4414">
        <ele>1384</ele>
        <time>2022-08-27T14:25:39Z</time>
      </trkpt>
      <trkpt lat="44.88131" lon="5.44129">
        <ele>1385</ele>
        <time>2022-08-27T14:25:48Z</time>
      </trkpt>
      <trkpt lat="44.88135" lon="5.44126">
        <ele>1386</ele>
        <time>2022-08-27T14:25:52Z</time>
      </trkpt>
      <trkpt lat="44.88131" lon="5.44117">
        <ele>1387</ele>
        <time>2022-08-27T14:25:59Z</time>
      </trkpt>
      <trkpt lat="44.88132" lon="5.4411">
        <ele>1387</ele>
        <time>2022-08-27T14:26:04Z</time>
      </trkpt>
      <trkpt lat="44.88138" lon="5.44098">
        <ele>1387</ele>
        <time>2022-08-27T14:26:12Z</time>
      </trkpt>
      <trkpt lat="44.88141" lon="5.44093">
        <ele>1387</ele>
        <time>2022-08-27T14:26:17Z</time>
      </trkpt>
      <trkpt lat="44.88145" lon="5.44089">
        <ele>1386</ele>
        <time>2022-08-27T14:26:20Z</time>
      </trkpt>
      <trkpt lat="44.88149" lon="5.44077">
        <ele>1385</ele>
        <time>2022-08-27T14:26:29Z</time>
      </trkpt>
      <trkpt lat="44.8815" lon="5.44071">
        <ele>1385</ele>
        <time>2022-08-27T14:26:34Z</time>
      </trkpt>
      <trkpt lat="44.88153" lon="5.44037">
        <ele>1381</ele>
        <time>2022-08-27T14:26:57Z</time>
      </trkpt>
      <trkpt lat="44.88156" lon="5.44031">
        <ele>1381</ele>
        <time>2022-08-27T14:27:00Z</time>
      </trkpt>
      <trkpt lat="44.88159" lon="5.44018">
        <ele>1380</ele>
        <time>2022-08-27T14:27:07Z</time>
      </trkpt>
      <trkpt lat="44.88158" lon="5.44011">
        <ele>1380</ele>
        <time>2022-08-27T14:27:11Z</time>
      </trkpt>
      <trkpt lat="44.8816" lon="5.44005">
        <ele>1379</ele>
        <time>2022-08-27T14:27:15Z</time>
      </trkpt>
      <trkpt lat="44.88158" lon="5.4399">
        <ele>1378</ele>
        <time>2022-08-27T14:27:24Z</time>
      </trkpt>
      <trkpt lat="44.88154" lon="5.43986">
        <ele>1377</ele>
        <time>2022-08-27T14:27:27Z</time>
      </trkpt>
      <trkpt lat="44.8815" lon="5.43983">
        <ele>1377</ele>
        <time>2022-08-27T14:27:32Z</time>
      </trkpt>
      <trkpt lat="44.88144" lon="5.43973">
        <ele>1377</ele>
        <time>2022-08-27T14:27:39Z</time>
      </trkpt>
      <trkpt lat="44.88142" lon="5.43966">
        <ele>1377</ele>
        <time>2022-08-27T14:27:51Z</time>
      </trkpt>
      <trkpt lat="44.8814" lon="5.4396">
        <ele>1377</ele>
        <time>2022-08-27T14:27:56Z</time>
      </trkpt>
      <trkpt lat="44.88138" lon="5.43952">
        <ele>1376</ele>
        <time>2022-08-27T14:28:06Z</time>
      </trkpt>
      <trkpt lat="44.88133" lon="5.43944">
        <ele>1376</ele>
        <time>2022-08-27T14:28:15Z</time>
      </trkpt>
      <trkpt lat="44.88121" lon="5.43939">
        <ele>1376</ele>
        <time>2022-08-27T14:28:29Z</time>
      </trkpt>
      <trkpt lat="44.88114" lon="5.43934">
        <ele>1376</ele>
        <time>2022-08-27T14:28:48Z</time>
      </trkpt>
      <trkpt lat="44.88108" lon="5.43934">
        <ele>1376</ele>
        <time>2022-08-27T14:28:56Z</time>
      </trkpt>
      <trkpt lat="44.88094" lon="5.43924">
        <ele>1376</ele>
        <time>2022-08-27T14:29:09Z</time>
      </trkpt>
      <trkpt lat="44.88091" lon="5.43919">
        <ele>1377</ele>
        <time>2022-08-27T14:29:16Z</time>
      </trkpt>
      <trkpt lat="44.88089" lon="5.43913">
        <ele>1377</ele>
        <time>2022-08-27T14:29:20Z</time>
      </trkpt>
      <trkpt lat="44.88086" lon="5.43907">
        <ele>1377</ele>
        <time>2022-08-27T14:29:22Z</time>
      </trkpt>
      <trkpt lat="44.88084" lon="5.43901">
        <ele>1376</ele>
        <time>2022-08-27T14:29:26Z</time>
      </trkpt>
      <trkpt lat="44.8808" lon="5.43892">
        <ele>1376</ele>
        <time>2022-08-27T14:29:33Z</time>
      </trkpt>
      <trkpt lat="44.88077" lon="5.43887">
        <ele>1376</ele>
        <time>2022-08-27T14:29:37Z</time>
      </trkpt>
      <trkpt lat="44.88071" lon="5.43888">
        <ele>1376</ele>
        <time>2022-08-27T14:29:39Z</time>
      </trkpt>
      <trkpt lat="44.88069" lon="5.43882">
        <ele>1377</ele>
        <time>2022-08-27T14:29:43Z</time>
      </trkpt>
      <trkpt lat="44.88063" lon="5.43843">
        <ele>1377</ele>
        <time>2022-08-27T14:30:15Z</time>
      </trkpt>
      <trkpt lat="44.88063" lon="5.43836">
        <ele>1377</ele>
        <time>2022-08-27T14:30:19Z</time>
      </trkpt>
      <trkpt lat="44.88069" lon="5.43805">
        <ele>1378</ele>
        <time>2022-08-27T14:30:39Z</time>
      </trkpt>
      <trkpt lat="44.88072" lon="5.43797">
        <ele>1378</ele>
        <time>2022-08-27T14:30:43Z</time>
      </trkpt>
      <trkpt lat="44.88076" lon="5.43791">
        <ele>1378</ele>
        <time>2022-08-27T14:30:47Z</time>
      </trkpt>
      <trkpt lat="44.88086" lon="5.43778">
        <ele>1376</ele>
        <time>2022-08-27T14:30:59Z</time>
      </trkpt>
      <trkpt lat="44.88091" lon="5.43774">
        <ele>1375</ele>
        <time>2022-08-27T14:31:03Z</time>
      </trkpt>
      <trkpt lat="44.88092" lon="5.4377">
        <ele>1375</ele>
        <time>2022-08-27T14:31:08Z</time>
      </trkpt>
      <trkpt lat="44.88106" lon="5.43753">
        <ele>1373</ele>
        <time>2022-08-27T14:31:23Z</time>
      </trkpt>
      <trkpt lat="44.88115" lon="5.43747">
        <ele>1371</ele>
        <time>2022-08-27T14:31:34Z</time>
      </trkpt>
      <trkpt lat="44.88123" lon="5.43737">
        <ele>1369</ele>
        <time>2022-08-27T14:31:46Z</time>
      </trkpt>
      <trkpt lat="44.88127" lon="5.43734">
        <ele>1369</ele>
        <time>2022-08-27T14:31:49Z</time>
      </trkpt>
      <trkpt lat="44.88125" lon="5.43725">
        <ele>1368</ele>
        <time>2022-08-27T14:32:13Z</time>
      </trkpt>
      <trkpt lat="44.88136" lon="5.43722">
        <ele>1368</ele>
        <time>2022-08-27T14:32:33Z</time>
      </trkpt>
      <trkpt lat="44.88145" lon="5.43722">
        <ele>1367</ele>
        <time>2022-08-27T14:32:39Z</time>
      </trkpt>
      <trkpt lat="44.88151" lon="5.43716">
        <ele>1366</ele>
        <time>2022-08-27T14:32:45Z</time>
      </trkpt>
      <trkpt lat="44.88157" lon="5.43705">
        <ele>1365</ele>
        <time>2022-08-27T14:32:54Z</time>
      </trkpt>
      <trkpt lat="44.88161" lon="5.437">
        <ele>1365</ele>
        <time>2022-08-27T14:32:58Z</time>
      </trkpt>
      <trkpt lat="44.88166" lon="5.43698">
        <ele>1365</ele>
        <time>2022-08-27T14:33:02Z</time>
      </trkpt>
      <trkpt lat="44.88176" lon="5.43697">
        <ele>1364</ele>
        <time>2022-08-27T14:33:10Z</time>
      </trkpt>
      <trkpt lat="44.88184" lon="5.43702">
        <ele>1363</ele>
        <time>2022-08-27T14:33:16Z</time>
      </trkpt>
      <trkpt lat="44.88192" lon="5.43711">
        <ele>1362</ele>
        <time>2022-08-27T14:33:23Z</time>
      </trkpt>
      <trkpt lat="44.88197" lon="5.43709">
        <ele>1362</ele>
        <time>2022-08-27T14:33:26Z</time>
      </trkpt>
      <trkpt lat="44.88201" lon="5.43704">
        <ele>1362</ele>
        <time>2022-08-27T14:33:29Z</time>
      </trkpt>
      <trkpt lat="44.88203" lon="5.43699">
        <ele>1361</ele>
        <time>2022-08-27T14:33:32Z</time>
      </trkpt>
      <trkpt lat="44.88205" lon="5.43693">
        <ele>1361</ele>
        <time>2022-08-27T14:33:35Z</time>
      </trkpt>
      <trkpt lat="44.8821" lon="5.43682">
        <ele>1360</ele>
        <time>2022-08-27T14:33:43Z</time>
      </trkpt>
      <trkpt lat="44.88211" lon="5.43676">
        <ele>1360</ele>
        <time>2022-08-27T14:33:48Z</time>
      </trkpt>
      <trkpt lat="44.88214" lon="5.43671">
        <ele>1359</ele>
        <time>2022-08-27T14:33:52Z</time>
      </trkpt>
      <trkpt lat="44.88214" lon="5.43662">
        <ele>1358</ele>
        <time>2022-08-27T14:33:58Z</time>
      </trkpt>
      <trkpt lat="44.88224" lon="5.43636">
        <ele>1354</ele>
        <time>2022-08-27T14:34:19Z</time>
      </trkpt>
      <trkpt lat="44.88225" lon="5.43629">
        <ele>1353</ele>
        <time>2022-08-27T14:34:23Z</time>
      </trkpt>
      <trkpt lat="44.88227" lon="5.43624">
        <ele>1353</ele>
        <time>2022-08-27T14:34:27Z</time>
      </trkpt>
      <trkpt lat="44.88228" lon="5.43618">
        <ele>1352</ele>
        <time>2022-08-27T14:34:31Z</time>
      </trkpt>
      <trkpt lat="44.88233" lon="5.43606">
        <ele>1351</ele>
        <time>2022-08-27T14:34:39Z</time>
      </trkpt>
      <trkpt lat="44.88236" lon="5.43602">
        <ele>1350</ele>
        <time>2022-08-27T14:34:42Z</time>
      </trkpt>
      <trkpt lat="44.88243" lon="5.43579">
        <ele>1347</ele>
        <time>2022-08-27T14:35:00Z</time>
      </trkpt>
      <trkpt lat="44.88247" lon="5.43574">
        <ele>1347</ele>
        <time>2022-08-27T14:35:05Z</time>
      </trkpt>
      <trkpt lat="44.88249" lon="5.43561">
        <ele>1345</ele>
        <time>2022-08-27T14:35:14Z</time>
      </trkpt>
      <trkpt lat="44.88249" lon="5.43555">
        <ele>1344</ele>
        <time>2022-08-27T14:35:18Z</time>
      </trkpt>
      <trkpt lat="44.88252" lon="5.43542">
        <ele>1343</ele>
        <time>2022-08-27T14:35:25Z</time>
      </trkpt>
      <trkpt lat="44.88251" lon="5.43535">
        <ele>1342</ele>
        <time>2022-08-27T14:35:30Z</time>
      </trkpt>
      <trkpt lat="44.88248" lon="5.43531">
        <ele>1341</ele>
        <time>2022-08-27T14:35:33Z</time>
      </trkpt>
      <trkpt lat="44.88243" lon="5.43542">
        <ele>1340</ele>
        <time>2022-08-27T14:35:40Z</time>
      </trkpt>
      <trkpt lat="44.88239" lon="5.43543">
        <ele>1340</ele>
        <time>2022-08-27T14:36:00Z</time>
      </trkpt>
      <trkpt lat="44.88237" lon="5.43552">
        <ele>1339</ele>
        <time>2022-08-27T14:36:16Z</time>
      </trkpt>
      <trkpt lat="44.88232" lon="5.43563">
        <ele>1338</ele>
        <time>2022-08-27T14:36:29Z</time>
      </trkpt>
      <trkpt lat="44.88227" lon="5.43565">
        <ele>1337</ele>
        <time>2022-08-27T14:36:32Z</time>
      </trkpt>
      <trkpt lat="44.88215" lon="5.43576">
        <ele>1335</ele>
        <time>2022-08-27T14:36:46Z</time>
      </trkpt>
      <trkpt lat="44.8821" lon="5.43578">
        <ele>1335</ele>
        <time>2022-08-27T14:36:50Z</time>
      </trkpt>
      <trkpt lat="44.88203" lon="5.43587">
        <ele>1333</ele>
        <time>2022-08-27T14:37:00Z</time>
      </trkpt>
      <trkpt lat="44.88198" lon="5.43588">
        <ele>1333</ele>
        <time>2022-08-27T14:37:03Z</time>
      </trkpt>
      <trkpt lat="44.88195" lon="5.43583">
        <ele>1332</ele>
        <time>2022-08-27T14:37:07Z</time>
      </trkpt>
      <trkpt lat="44.88184" lon="5.43582">
        <ele>1331</ele>
        <time>2022-08-27T14:37:18Z</time>
      </trkpt>
      <trkpt lat="44.88175" lon="5.43586">
        <ele>1330</ele>
        <time>2022-08-27T14:37:26Z</time>
      </trkpt>
      <trkpt lat="44.8817" lon="5.43583">
        <ele>1328</ele>
        <time>2022-08-27T14:37:33Z</time>
      </trkpt>
      <trkpt lat="44.88173" lon="5.43575">
        <ele>1328</ele>
        <time>2022-08-27T14:37:39Z</time>
      </trkpt>
      <trkpt lat="44.88175" lon="5.43554">
        <ele>1326</ele>
        <time>2022-08-27T14:37:53Z</time>
      </trkpt>
      <trkpt lat="44.88174" lon="5.43548">
        <ele>1325</ele>
        <time>2022-08-27T14:37:58Z</time>
      </trkpt>
      <trkpt lat="44.88172" lon="5.43543">
        <ele>1324</ele>
        <time>2022-08-27T14:38:02Z</time>
      </trkpt>
      <trkpt lat="44.88167" lon="5.43539">
        <ele>1324</ele>
        <time>2022-08-27T14:38:06Z</time>
      </trkpt>
      <trkpt lat="44.88155" lon="5.43518">
        <ele>1322</ele>
        <time>2022-08-27T14:38:22Z</time>
      </trkpt>
      <trkpt lat="44.88152" lon="5.43493">
        <ele>1319</ele>
        <time>2022-08-27T14:38:38Z</time>
      </trkpt>
      <trkpt lat="44.88152" lon="5.43485">
        <ele>1319</ele>
        <time>2022-08-27T14:38:43Z</time>
      </trkpt>
      <trkpt lat="44.8815" lon="5.4348">
        <ele>1318</ele>
        <time>2022-08-27T14:38:46Z</time>
      </trkpt>
      <trkpt lat="44.88147" lon="5.4346">
        <ele>1316</ele>
        <time>2022-08-27T14:38:59Z</time>
      </trkpt>
      <trkpt lat="44.8815" lon="5.4346">
        <ele>1313</ele>
        <time>2022-08-27T14:39:11Z</time>
      </trkpt>
      <trkpt lat="44.8816" lon="5.43456">
        <ele>1311</ele>
        <time>2022-08-27T14:39:18Z</time>
      </trkpt>
      <trkpt lat="44.88165" lon="5.43456">
        <ele>1310</ele>
        <time>2022-08-27T14:39:21Z</time>
      </trkpt>
      <trkpt lat="44.88161" lon="5.43449">
        <ele>1309</ele>
        <time>2022-08-27T14:39:24Z</time>
      </trkpt>
      <trkpt lat="44.88164" lon="5.43412">
        <ele>1305</ele>
        <time>2022-08-27T14:39:48Z</time>
      </trkpt>
      <trkpt lat="44.88169" lon="5.43402">
        <ele>1304</ele>
        <time>2022-08-27T14:39:56Z</time>
      </trkpt>
      <trkpt lat="44.88173" lon="5.43399">
        <ele>1303</ele>
        <time>2022-08-27T14:40:00Z</time>
      </trkpt>
      <trkpt lat="44.88181" lon="5.43396">
        <ele>1303</ele>
        <time>2022-08-27T14:40:07Z</time>
      </trkpt>
      <trkpt lat="44.88182" lon="5.43402">
        <ele>1302</ele>
        <time>2022-08-27T14:40:12Z</time>
      </trkpt>
      <trkpt lat="44.8818" lon="5.43408">
        <ele>1302</ele>
        <time>2022-08-27T14:40:16Z</time>
      </trkpt>
      <trkpt lat="44.88183" lon="5.43413">
        <ele>1302</ele>
        <time>2022-08-27T14:40:19Z</time>
      </trkpt>
      <trkpt lat="44.88189" lon="5.43416">
        <ele>1301</ele>
        <time>2022-08-27T14:40:27Z</time>
      </trkpt>
      <trkpt lat="44.88195" lon="5.43399">
        <ele>1299</ele>
        <time>2022-08-27T14:40:37Z</time>
      </trkpt>
      <trkpt lat="44.88199" lon="5.43393">
        <ele>1298</ele>
        <time>2022-08-27T14:40:41Z</time>
      </trkpt>
      <trkpt lat="44.88201" lon="5.43381">
        <ele>1298</ele>
        <time>2022-08-27T14:40:48Z</time>
      </trkpt>
      <trkpt lat="44.88201" lon="5.43361">
        <ele>1296</ele>
        <time>2022-08-27T14:41:00Z</time>
      </trkpt>
      <trkpt lat="44.88204" lon="5.43353">
        <ele>1295</ele>
        <time>2022-08-27T14:41:06Z</time>
      </trkpt>
      <trkpt lat="44.88208" lon="5.4335">
        <ele>1294</ele>
        <time>2022-08-27T14:41:10Z</time>
      </trkpt>
      <trkpt lat="44.88209" lon="5.43343">
        <ele>1294</ele>
        <time>2022-08-27T14:41:13Z</time>
      </trkpt>
      <trkpt lat="44.88216" lon="5.43334">
        <ele>1294</ele>
        <time>2022-08-27T14:41:19Z</time>
      </trkpt>
      <trkpt lat="44.88219" lon="5.43321">
        <ele>1293</ele>
        <time>2022-08-27T14:41:27Z</time>
      </trkpt>
      <trkpt lat="44.88225" lon="5.43311">
        <ele>1292</ele>
        <time>2022-08-27T14:41:36Z</time>
      </trkpt>
      <trkpt lat="44.8823" lon="5.43308">
        <ele>1291</ele>
        <time>2022-08-27T14:41:40Z</time>
      </trkpt>
      <trkpt lat="44.88234" lon="5.43309">
        <ele>1290</ele>
        <time>2022-08-27T14:41:43Z</time>
      </trkpt>
      <trkpt lat="44.88237" lon="5.43303">
        <ele>1290</ele>
        <time>2022-08-27T14:41:48Z</time>
      </trkpt>
      <trkpt lat="44.88251" lon="5.433">
        <ele>1287</ele>
        <time>2022-08-27T14:42:07Z</time>
      </trkpt>
      <trkpt lat="44.88257" lon="5.43295">
        <ele>1286</ele>
        <time>2022-08-27T14:42:11Z</time>
      </trkpt>
      <trkpt lat="44.88261" lon="5.43284">
        <ele>1286</ele>
        <time>2022-08-27T14:42:17Z</time>
      </trkpt>
      <trkpt lat="44.88271" lon="5.4327">
        <ele>1284</ele>
        <time>2022-08-27T14:42:29Z</time>
      </trkpt>
      <trkpt lat="44.88279" lon="5.43262">
        <ele>1283</ele>
        <time>2022-08-27T14:42:37Z</time>
      </trkpt>
      <trkpt lat="44.88281" lon="5.43256">
        <ele>1282</ele>
        <time>2022-08-27T14:42:41Z</time>
      </trkpt>
      <trkpt lat="44.88281" lon="5.43251">
        <ele>1282</ele>
        <time>2022-08-27T14:42:44Z</time>
      </trkpt>
      <trkpt lat="44.88285" lon="5.43245">
        <ele>1281</ele>
        <time>2022-08-27T14:42:48Z</time>
      </trkpt>
      <trkpt lat="44.88289" lon="5.43241">
        <ele>1281</ele>
        <time>2022-08-27T14:42:51Z</time>
      </trkpt>
      <trkpt lat="44.88285" lon="5.43228">
        <ele>1278</ele>
        <time>2022-08-27T14:43:02Z</time>
      </trkpt>
      <trkpt lat="44.8828" lon="5.43225">
        <ele>1274</ele>
        <time>2022-08-27T14:43:09Z</time>
      </trkpt>
      <trkpt lat="44.88275" lon="5.43228">
        <ele>1274</ele>
        <time>2022-08-27T14:43:11Z</time>
      </trkpt>
      <trkpt lat="44.8827" lon="5.4323">
        <ele>1273</ele>
        <time>2022-08-27T14:43:13Z</time>
      </trkpt>
      <trkpt lat="44.88262" lon="5.43235">
        <ele>1272</ele>
        <time>2022-08-27T14:43:18Z</time>
      </trkpt>
      <trkpt lat="44.88258" lon="5.43236">
        <ele>1271</ele>
        <time>2022-08-27T14:43:22Z</time>
      </trkpt>
      <trkpt lat="44.88253" lon="5.43235">
        <ele>1271</ele>
        <time>2022-08-27T14:43:24Z</time>
      </trkpt>
      <trkpt lat="44.88249" lon="5.43231">
        <ele>1271</ele>
        <time>2022-08-27T14:43:26Z</time>
      </trkpt>
      <trkpt lat="44.8825" lon="5.43222">
        <ele>1270</ele>
        <time>2022-08-27T14:43:29Z</time>
      </trkpt>
      <trkpt lat="44.88251" lon="5.43208">
        <ele>1268</ele>
        <time>2022-08-27T14:43:40Z</time>
      </trkpt>
      <trkpt lat="44.88249" lon="5.43202">
        <ele>1268</ele>
        <time>2022-08-27T14:43:44Z</time>
      </trkpt>
      <trkpt lat="44.88251" lon="5.43195">
        <ele>1267</ele>
        <time>2022-08-27T14:43:48Z</time>
      </trkpt>
      <trkpt lat="44.88255" lon="5.4319">
        <ele>1266</ele>
        <time>2022-08-27T14:43:53Z</time>
      </trkpt>
      <trkpt lat="44.88254" lon="5.43182">
        <ele>1264</ele>
        <time>2022-08-27T14:44:00Z</time>
      </trkpt>
      <trkpt lat="44.8826" lon="5.43189">
        <ele>1262</ele>
        <time>2022-08-27T14:44:08Z</time>
      </trkpt>
      <trkpt lat="44.88264" lon="5.43185">
        <ele>1261</ele>
        <time>2022-08-27T14:44:12Z</time>
      </trkpt>
      <trkpt lat="44.88266" lon="5.43179">
        <ele>1260</ele>
        <time>2022-08-27T14:44:16Z</time>
      </trkpt>
      <trkpt lat="44.88273" lon="5.43169">
        <ele>1259</ele>
        <time>2022-08-27T14:44:22Z</time>
      </trkpt>
      <trkpt lat="44.88276" lon="5.43167">
        <ele>1257</ele>
        <time>2022-08-27T14:44:35Z</time>
      </trkpt>
      <trkpt lat="44.8828" lon="5.4316">
        <ele>1256</ele>
        <time>2022-08-27T14:44:38Z</time>
      </trkpt>
      <trkpt lat="44.88284" lon="5.43158">
        <ele>1255</ele>
        <time>2022-08-27T14:44:42Z</time>
      </trkpt>
      <trkpt lat="44.88304" lon="5.43159">
        <ele>1253</ele>
        <time>2022-08-27T14:44:57Z</time>
      </trkpt>
      <trkpt lat="44.88309" lon="5.43162">
        <ele>1252</ele>
        <time>2022-08-27T14:45:01Z</time>
      </trkpt>
      <trkpt lat="44.8831" lon="5.43168">
        <ele>1251</ele>
        <time>2022-08-27T14:45:06Z</time>
      </trkpt>
      <trkpt lat="44.88317" lon="5.43168">
        <ele>1250</ele>
        <time>2022-08-27T14:45:12Z</time>
      </trkpt>
      <trkpt lat="44.88334" lon="5.43161">
        <ele>1247</ele>
        <time>2022-08-27T14:45:28Z</time>
      </trkpt>
      <trkpt lat="44.88335" lon="5.43156">
        <ele>1245</ele>
        <time>2022-08-27T14:45:34Z</time>
      </trkpt>
      <trkpt lat="44.88331" lon="5.43154">
        <ele>1244</ele>
        <time>2022-08-27T14:45:37Z</time>
      </trkpt>
      <trkpt lat="44.88327" lon="5.43154">
        <ele>1244</ele>
        <time>2022-08-27T14:45:41Z</time>
      </trkpt>
      <trkpt lat="44.88318" lon="5.4315">
        <ele>1242</ele>
        <time>2022-08-27T14:45:48Z</time>
      </trkpt>
      <trkpt lat="44.88313" lon="5.43144">
        <ele>1241</ele>
        <time>2022-08-27T14:45:54Z</time>
      </trkpt>
      <trkpt lat="44.88311" lon="5.43138">
        <ele>1241</ele>
        <time>2022-08-27T14:45:57Z</time>
      </trkpt>
      <trkpt lat="44.88312" lon="5.43138">
        <ele>1237</ele>
        <time>2022-08-27T14:46:15Z</time>
      </trkpt>
      <trkpt lat="44.88317" lon="5.43141">
        <ele>1236</ele>
        <time>2022-08-27T14:46:20Z</time>
      </trkpt>
      <trkpt lat="44.88319" lon="5.43135">
        <ele>1235</ele>
        <time>2022-08-27T14:46:26Z</time>
      </trkpt>
      <trkpt lat="44.8831" lon="5.4311">
        <ele>1230</ele>
        <time>2022-08-27T14:46:43Z</time>
      </trkpt>
      <trkpt lat="44.88315" lon="5.43109">
        <ele>1227</ele>
        <time>2022-08-27T14:46:57Z</time>
      </trkpt>
      <trkpt lat="44.88326" lon="5.43122">
        <ele>1224</ele>
        <time>2022-08-27T14:47:11Z</time>
      </trkpt>
      <trkpt lat="44.88341" lon="5.43124">
        <ele>1222</ele>
        <time>2022-08-27T14:47:22Z</time>
      </trkpt>
      <trkpt lat="44.8835" lon="5.43123">
        <ele>1220</ele>
        <time>2022-08-27T14:47:30Z</time>
      </trkpt>
      <trkpt lat="44.88355" lon="5.43118">
        <ele>1219</ele>
        <time>2022-08-27T14:47:36Z</time>
      </trkpt>
      <trkpt lat="44.88364" lon="5.43116">
        <ele>1220</ele>
        <time>2022-08-27T14:47:55Z</time>
      </trkpt>
      <trkpt lat="44.8837" lon="5.43121">
        <ele>1220</ele>
        <time>2022-08-27T14:48:03Z</time>
      </trkpt>
      <trkpt lat="44.88385" lon="5.4313">
        <ele>1221</ele>
        <time>2022-08-27T14:48:18Z</time>
      </trkpt>
      <trkpt lat="44.88389" lon="5.43138">
        <ele>1222</ele>
        <time>2022-08-27T14:48:24Z</time>
      </trkpt>
      <trkpt lat="44.884" lon="5.43132">
        <ele>1222</ele>
        <time>2022-08-27T14:48:31Z</time>
      </trkpt>
      <trkpt lat="44.88405" lon="5.43131">
        <ele>1223</ele>
        <time>2022-08-27T14:48:35Z</time>
      </trkpt>
      <trkpt lat="44.88423" lon="5.4313">
        <ele>1224</ele>
        <time>2022-08-27T14:48:53Z</time>
      </trkpt>
    </trkseg>
  </trk>
  <trk>
    <name><![CDATA[9 août 2022 à 09:34:40]]></name>
    <cmt><![CDATA[9 août 2022 à 09:34:40]]></cmt>
    <trkseg>
      <trkpt lat="45.45825" lon="6.39637">
        <ele>1611</ele>
        <time>2022-08-09T07:34:41Z</time>
      </trkpt>
      <trkpt lat="45.45828" lon="6.39635">
        <ele>1611</ele>
        <time>2022-08-09T07:34:42Z</time>
      </trkpt>
      <trkpt lat="45.45831" lon="6.39637">
        <ele>1611</ele>
        <time>2022-08-09T07:34:46Z</time>
      </trkpt>
      <trkpt lat="45.45831" lon="6.39637">
        <ele>1611</ele>
        <time>2022-08-09T07:34:47Z</time>
      </trkpt>
      <trkpt lat="45.45833" lon="6.3963">
        <ele>1611</ele>
        <time>2022-08-09T07:35:10Z</time>
      </trkpt>
      <trkpt lat="45.45835" lon="6.39621">
        <ele>1614</ele>
        <time>2022-08-09T07:35:26Z</time>
      </trkpt>
      <trkpt lat="45.45835" lon="6.39615">
        <ele>1615</ele>
        <time>2022-08-09T07:35:36Z</time>
      </trkpt>
      <trkpt lat="45.45839" lon="6.39599">
        <ele>1618</ele>
        <time>2022-08-09T07:36:01Z</time>
      </trkpt>
      <trkpt lat="45.4584" lon="6.39593">
        <ele>1620</ele>
        <time>2022-08-09T07:36:16Z</time>
      </trkpt>
      <trkpt lat="45.45844" lon="6.39577">
        <ele>1624</ele>
        <time>2022-08-09T07:36:46Z</time>
      </trkpt>
      <trkpt lat="45.45845" lon="6.3957">
        <ele>1626</ele>
        <time>2022-08-09T07:36:58Z</time>
      </trkpt>
      <trkpt lat="45.45845" lon="6.39563">
        <ele>1627</ele>
        <time>2022-08-09T07:37:08Z</time>
      </trkpt>
      <trkpt lat="45.45847" lon="6.39555">
        <ele>1629</ele>
        <time>2022-08-09T07:37:23Z</time>
      </trkpt>
      <trkpt lat="45.45848" lon="6.39549">
        <ele>1631</ele>
        <time>2022-08-09T07:37:38Z</time>
      </trkpt>
      <trkpt lat="45.45852" lon="6.39535">
        <ele>1635</ele>
        <time>2022-08-09T07:38:08Z</time>
      </trkpt>
      <trkpt lat="45.45853" lon="6.39528">
        <ele>1637</ele>
        <time>2022-08-09T07:38:23Z</time>
      </trkpt>
      <trkpt lat="45.45856" lon="6.39524">
        <ele>1638</ele>
        <time>2022-08-09T07:38:33Z</time>
      </trkpt>
      <trkpt lat="45.45859" lon="6.3951">
        <ele>1642</ele>
        <time>2022-08-09T07:39:04Z</time>
      </trkpt>
      <trkpt lat="45.4586" lon="6.39503">
        <ele>1644</ele>
        <time>2022-08-09T07:39:19Z</time>
      </trkpt>
      <trkpt lat="45.45862" lon="6.39497">
        <ele>1646</ele>
        <time>2022-08-09T07:39:39Z</time>
      </trkpt>
      <trkpt lat="45.45863" lon="6.3949">
        <ele>1647</ele>
        <time>2022-08-09T07:40:19Z</time>
      </trkpt>
      <trkpt lat="45.45864" lon="6.39484">
        <ele>1649</ele>
        <time>2022-08-09T07:40:29Z</time>
      </trkpt>
      <trkpt lat="45.45866" lon="6.39476">
        <ele>1651</ele>
        <time>2022-08-09T07:40:44Z</time>
      </trkpt>
      <trkpt lat="45.45866" lon="6.3947">
        <ele>1652</ele>
        <time>2022-08-09T07:40:59Z</time>
      </trkpt>
      <trkpt lat="45.45866" lon="6.39464">
        <ele>1654</ele>
        <time>2022-08-09T07:41:09Z</time>
      </trkpt>
      <trkpt lat="45.4587" lon="6.39451">
        <ele>1657</ele>
        <time>2022-08-09T07:41:35Z</time>
      </trkpt>
      <trkpt lat="45.45872" lon="6.39439">
        <ele>1660</ele>
        <time>2022-08-09T07:42:05Z</time>
      </trkpt>
      <trkpt lat="45.45873" lon="6.39432">
        <ele>1662</ele>
        <time>2022-08-09T07:42:20Z</time>
      </trkpt>
      <trkpt lat="45.45873" lon="6.39416">
        <ele>1666</ele>
        <time>2022-08-09T07:42:50Z</time>
      </trkpt>
      <trkpt lat="45.45874" lon="6.39409">
        <ele>1668</ele>
        <time>2022-08-09T07:43:05Z</time>
      </trkpt>
      <trkpt lat="45.45877" lon="6.39402">
        <ele>1670</ele>
        <time>2022-08-09T07:43:20Z</time>
      </trkpt>
      <trkpt lat="45.45879" lon="6.39396">
        <ele>1671</ele>
        <time>2022-08-09T07:43:36Z</time>
      </trkpt>
      <trkpt lat="45.4588" lon="6.39381">
        <ele>1675</ele>
        <time>2022-08-09T07:44:21Z</time>
      </trkpt>
      <trkpt lat="45.4588" lon="6.39374">
        <ele>1677</ele>
        <time>2022-08-09T07:44:36Z</time>
      </trkpt>
      <trkpt lat="45.45883" lon="6.39367">
        <ele>1679</ele>
        <time>2022-08-09T07:44:51Z</time>
      </trkpt>
      <trkpt lat="45.45886" lon="6.39361">
        <ele>1681</ele>
        <time>2022-08-09T07:45:06Z</time>
      </trkpt>
      <trkpt lat="45.45888" lon="6.39354">
        <ele>1683</ele>
        <time>2022-08-09T07:45:22Z</time>
      </trkpt>
      <trkpt lat="45.4589" lon="6.39344">
        <ele>1684</ele>
        <time>2022-08-09T07:45:38Z</time>
      </trkpt>
      <trkpt lat="45.4589" lon="6.39337">
        <ele>1685</ele>
        <time>2022-08-09T07:45:48Z</time>
      </trkpt>
      <trkpt lat="45.45886" lon="6.39314">
        <ele>1689</ele>
        <time>2022-08-09T07:46:23Z</time>
      </trkpt>
      <trkpt lat="45.45884" lon="6.39307">
        <ele>1690</ele>
        <time>2022-08-09T07:46:38Z</time>
      </trkpt>
      <trkpt lat="45.45882" lon="6.39301">
        <ele>1691</ele>
        <time>2022-08-09T07:46:48Z</time>
      </trkpt>
      <trkpt lat="45.45878" lon="6.39294">
        <ele>1692</ele>
        <time>2022-08-09T07:47:03Z</time>
      </trkpt>
      <trkpt lat="45.4587" lon="6.39284">
        <ele>1694</ele>
        <time>2022-08-09T07:47:24Z</time>
      </trkpt>
      <trkpt lat="45.45864" lon="6.39269">
        <ele>1697</ele>
        <time>2022-08-09T07:47:54Z</time>
      </trkpt>
      <trkpt lat="45.45859" lon="6.39259">
        <ele>1698</ele>
        <time>2022-08-09T07:48:06Z</time>
      </trkpt>
      <trkpt lat="45.45858" lon="6.3925">
        <ele>1699</ele>
        <time>2022-08-09T07:48:22Z</time>
      </trkpt>
      <trkpt lat="45.45857" lon="6.39243">
        <ele>1699</ele>
        <time>2022-08-09T07:48:32Z</time>
      </trkpt>
      <trkpt lat="45.45855" lon="6.3922">
        <ele>1702</ele>
        <time>2022-08-09T07:49:02Z</time>
      </trkpt>
      <trkpt lat="45.45855" lon="6.39214">
        <ele>1703</ele>
        <time>2022-08-09T07:49:12Z</time>
      </trkpt>
      <trkpt lat="45.45855" lon="6.39204">
        <ele>1704</ele>
        <time>2022-08-09T07:49:28Z</time>
      </trkpt>
      <trkpt lat="45.45854" lon="6.3919">
        <ele>1706</ele>
        <time>2022-08-09T07:49:48Z</time>
      </trkpt>
      <trkpt lat="45.45854" lon="6.39183">
        <ele>1707</ele>
        <time>2022-08-09T07:49:58Z</time>
      </trkpt>
      <trkpt lat="45.45853" lon="6.39175">
        <ele>1708</ele>
        <time>2022-08-09T07:50:08Z</time>
      </trkpt>
      <trkpt lat="45.45854" lon="6.39168">
        <ele>1708</ele>
        <time>2022-08-09T07:50:18Z</time>
      </trkpt>
      <trkpt lat="45.45853" lon="6.39162">
        <ele>1710</ele>
        <time>2022-08-09T07:50:28Z</time>
      </trkpt>
      <trkpt lat="45.45854" lon="6.39154">
        <ele>1711</ele>
        <time>2022-08-09T07:50:43Z</time>
      </trkpt>
      <trkpt lat="45.45852" lon="6.39147">
        <ele>1711</ele>
        <time>2022-08-09T07:51:23Z</time>
      </trkpt>
      <trkpt lat="45.45851" lon="6.39137">
        <ele>1711</ele>
        <time>2022-08-09T07:51:33Z</time>
      </trkpt>
      <trkpt lat="45.45852" lon="6.39126">
        <ele>1713</ele>
        <time>2022-08-09T07:51:47Z</time>
      </trkpt>
      <trkpt lat="45.45853" lon="6.3912">
        <ele>1713</ele>
        <time>2022-08-09T07:52:18Z</time>
      </trkpt>
      <trkpt lat="45.45853" lon="6.39124">
        <ele>1713</ele>
        <time>2022-08-09T07:52:45Z</time>
      </trkpt>
      <trkpt lat="45.45852" lon="6.3913">
        <ele>1713</ele>
        <time>2022-08-09T07:52:55Z</time>
      </trkpt>
      <trkpt lat="45.4585" lon="6.39136">
        <ele>1713</ele>
        <time>2022-08-09T07:53:05Z</time>
      </trkpt>
      <trkpt lat="45.45852" lon="6.39142">
        <ele>1711</ele>
        <time>2022-08-09T07:53:25Z</time>
      </trkpt>
      <trkpt lat="45.45855" lon="6.39147">
        <ele>1711</ele>
        <time>2022-08-09T07:54:10Z</time>
      </trkpt>
      <trkpt lat="45.4586" lon="6.39147">
        <ele>1713</ele>
        <time>2022-08-09T07:55:05Z</time>
      </trkpt>
      <trkpt lat="45.45865" lon="6.39145">
        <ele>1714</ele>
        <time>2022-08-09T07:55:21Z</time>
      </trkpt>
      <trkpt lat="45.4587" lon="6.39141">
        <ele>1716</ele>
        <time>2022-08-09T07:55:36Z</time>
      </trkpt>
      <trkpt lat="45.45877" lon="6.39131">
        <ele>1720</ele>
        <time>2022-08-09T07:56:17Z</time>
      </trkpt>
      <trkpt lat="45.45886" lon="6.39126">
        <ele>1725</ele>
        <time>2022-08-09T07:56:57Z</time>
      </trkpt>
      <trkpt lat="45.4589" lon="6.39122">
        <ele>1727</ele>
        <time>2022-08-09T07:57:17Z</time>
      </trkpt>
      <trkpt lat="45.45897" lon="6.39113">
        <ele>1731</ele>
        <time>2022-08-09T07:57:52Z</time>
      </trkpt>
      <trkpt lat="45.45904" lon="6.39103">
        <ele>1735</ele>
        <time>2022-08-09T07:58:28Z</time>
      </trkpt>
      <trkpt lat="45.45911" lon="6.39092">
        <ele>1739</ele>
        <time>2022-08-09T07:58:58Z</time>
      </trkpt>
      <trkpt lat="45.45918" lon="6.3907">
        <ele>1743</ele>
        <time>2022-08-09T07:59:38Z</time>
      </trkpt>
      <trkpt lat="45.4592" lon="6.39064">
        <ele>1745</ele>
        <time>2022-08-09T07:59:48Z</time>
      </trkpt>
      <trkpt lat="45.45921" lon="6.39057">
        <ele>1745</ele>
        <time>2022-08-09T07:59:59Z</time>
      </trkpt>
      <trkpt lat="45.45923" lon="6.39051">
        <ele>1746</ele>
        <time>2022-08-09T08:00:10Z</time>
      </trkpt>
      <trkpt lat="45.45924" lon="6.39043">
        <ele>1748</ele>
        <time>2022-08-09T08:00:26Z</time>
      </trkpt>
      <trkpt lat="45.45926" lon="6.39036">
        <ele>1750</ele>
        <time>2022-08-09T08:00:41Z</time>
      </trkpt>
      <trkpt lat="45.45928" lon="6.39021">
        <ele>1752</ele>
        <time>2022-08-09T08:01:11Z</time>
      </trkpt>
      <trkpt lat="45.4593" lon="6.39015">
        <ele>1753</ele>
        <time>2022-08-09T08:01:21Z</time>
      </trkpt>
      <trkpt lat="45.4593" lon="6.39">
        <ele>1756</ele>
        <time>2022-08-09T08:01:46Z</time>
      </trkpt>
      <trkpt lat="45.45938" lon="6.38989">
        <ele>1761</ele>
        <time>2022-08-09T08:02:29Z</time>
      </trkpt>
      <trkpt lat="45.45948" lon="6.38982">
        <ele>1765</ele>
        <time>2022-08-09T08:03:04Z</time>
      </trkpt>
      <trkpt lat="45.45954" lon="6.3898">
        <ele>1767</ele>
        <time>2022-08-09T08:03:19Z</time>
      </trkpt>
      <trkpt lat="45.45967" lon="6.38965">
        <ele>1771</ele>
        <time>2022-08-09T08:03:59Z</time>
      </trkpt>
      <trkpt lat="45.45977" lon="6.38964">
        <ele>1775</ele>
        <time>2022-08-09T08:04:38Z</time>
      </trkpt>
      <trkpt lat="45.45984" lon="6.38964">
        <ele>1778</ele>
        <time>2022-08-09T08:04:58Z</time>
      </trkpt>
      <trkpt lat="45.45988" lon="6.38963">
        <ele>1780</ele>
        <time>2022-08-09T08:05:13Z</time>
      </trkpt>
      <trkpt lat="45.45992" lon="6.38961">
        <ele>1781</ele>
        <time>2022-08-09T08:05:28Z</time>
      </trkpt>
      <trkpt lat="45.45997" lon="6.38958">
        <ele>1783</ele>
        <time>2022-08-09T08:05:43Z</time>
      </trkpt>
      <trkpt lat="45.46001" lon="6.38956">
        <ele>1785</ele>
        <time>2022-08-09T08:05:58Z</time>
      </trkpt>
      <trkpt lat="45.4601" lon="6.38945">
        <ele>1789</ele>
        <time>2022-08-09T08:06:36Z</time>
      </trkpt>
      <trkpt lat="45.46015" lon="6.38942">
        <ele>1790</ele>
        <time>2022-08-09T08:06:51Z</time>
      </trkpt>
      <trkpt lat="45.46022" lon="6.38934">
        <ele>1793</ele>
        <time>2022-08-09T08:07:26Z</time>
      </trkpt>
      <trkpt lat="45.46027" lon="6.38929">
        <ele>1795</ele>
        <time>2022-08-09T08:07:41Z</time>
      </trkpt>
      <trkpt lat="45.46032" lon="6.38925">
        <ele>1797</ele>
        <time>2022-08-09T08:07:56Z</time>
      </trkpt>
      <trkpt lat="45.46046" lon="6.38913">
        <ele>1802</ele>
        <time>2022-08-09T08:08:40Z</time>
      </trkpt>
      <trkpt lat="45.46052" lon="6.38913">
        <ele>1804</ele>
        <time>2022-08-09T08:08:55Z</time>
      </trkpt>
      <trkpt lat="45.46063" lon="6.3891">
        <ele>1808</ele>
        <time>2022-08-09T08:09:25Z</time>
      </trkpt>
      <trkpt lat="45.46067" lon="6.38912">
        <ele>1809</ele>
        <time>2022-08-09T08:09:35Z</time>
      </trkpt>
      <trkpt lat="45.46072" lon="6.38912">
        <ele>1810</ele>
        <time>2022-08-09T08:09:50Z</time>
      </trkpt>
      <trkpt lat="45.46078" lon="6.38909">
        <ele>1812</ele>
        <time>2022-08-09T08:10:05Z</time>
      </trkpt>
      <trkpt lat="45.46082" lon="6.38912">
        <ele>1813</ele>
        <time>2022-08-09T08:10:20Z</time>
      </trkpt>
      <trkpt lat="45.46092" lon="6.38909">
        <ele>1817</ele>
        <time>2022-08-09T08:10:47Z</time>
      </trkpt>
      <trkpt lat="45.46097" lon="6.38905">
        <ele>1819</ele>
        <time>2022-08-09T08:11:02Z</time>
      </trkpt>
      <trkpt lat="45.46101" lon="6.38903">
        <ele>1820</ele>
        <time>2022-08-09T08:11:17Z</time>
      </trkpt>
      <trkpt lat="45.46111" lon="6.389">
        <ele>1824</ele>
        <time>2022-08-09T08:11:47Z</time>
      </trkpt>
      <trkpt lat="45.46116" lon="6.38896">
        <ele>1826</ele>
        <time>2022-08-09T08:12:02Z</time>
      </trkpt>
      <trkpt lat="45.46121" lon="6.38892">
        <ele>1827</ele>
        <time>2022-08-09T08:12:17Z</time>
      </trkpt>
      <trkpt lat="45.4613" lon="6.38883">
        <ele>1831</ele>
        <time>2022-08-09T08:12:44Z</time>
      </trkpt>
      <trkpt lat="45.46139" lon="6.38881">
        <ele>1835</ele>
        <time>2022-08-09T08:13:05Z</time>
      </trkpt>
      <trkpt lat="45.46143" lon="6.38881">
        <ele>1837</ele>
        <time>2022-08-09T08:13:20Z</time>
      </trkpt>
      <trkpt lat="45.46154" lon="6.38877">
        <ele>1840</ele>
        <time>2022-08-09T08:14:11Z</time>
      </trkpt>
      <trkpt lat="45.46164" lon="6.38873">
        <ele>1844</ele>
        <time>2022-08-09T08:14:42Z</time>
      </trkpt>
      <trkpt lat="45.46174" lon="6.3887">
        <ele>1849</ele>
        <time>2022-08-09T08:15:14Z</time>
      </trkpt>
      <trkpt lat="45.46184" lon="6.38863">
        <ele>1852</ele>
        <time>2022-08-09T08:15:44Z</time>
      </trkpt>
      <trkpt lat="45.46194" lon="6.38859">
        <ele>1857</ele>
        <time>2022-08-09T08:16:14Z</time>
      </trkpt>
      <trkpt lat="45.46197" lon="6.38855">
        <ele>1859</ele>
        <time>2022-08-09T08:16:29Z</time>
      </trkpt>
      <trkpt lat="45.46201" lon="6.38852">
        <ele>1861</ele>
        <time>2022-08-09T08:16:44Z</time>
      </trkpt>
      <trkpt lat="45.46211" lon="6.38846">
        <ele>1864</ele>
        <time>2022-08-09T08:17:17Z</time>
      </trkpt>
      <trkpt lat="45.4622" lon="6.38843">
        <ele>1868</ele>
        <time>2022-08-09T08:17:52Z</time>
      </trkpt>
      <trkpt lat="45.46224" lon="6.38841">
        <ele>1870</ele>
        <time>2022-08-09T08:18:12Z</time>
      </trkpt>
      <trkpt lat="45.46233" lon="6.38833">
        <ele>1874</ele>
        <time>2022-08-09T08:18:53Z</time>
      </trkpt>
      <trkpt lat="45.46237" lon="6.38829">
        <ele>1876</ele>
        <time>2022-08-09T08:19:35Z</time>
      </trkpt>
      <trkpt lat="45.4624" lon="6.38826">
        <ele>1878</ele>
        <time>2022-08-09T08:20:00Z</time>
      </trkpt>
      <trkpt lat="45.46249" lon="6.38817">
        <ele>1881</ele>
        <time>2022-08-09T08:20:40Z</time>
      </trkpt>
      <trkpt lat="45.46251" lon="6.38813">
        <ele>1883</ele>
        <time>2022-08-09T08:20:55Z</time>
      </trkpt>
      <trkpt lat="45.46256" lon="6.38813">
        <ele>1885</ele>
        <time>2022-08-09T08:21:32Z</time>
      </trkpt>
      <trkpt lat="45.46261" lon="6.38814">
        <ele>1887</ele>
        <time>2022-08-09T08:22:12Z</time>
      </trkpt>
      <trkpt lat="45.46264" lon="6.38808">
        <ele>1889</ele>
        <time>2022-08-09T08:22:37Z</time>
      </trkpt>
      <trkpt lat="45.46267" lon="6.38804">
        <ele>1890</ele>
        <time>2022-08-09T08:23:45Z</time>
      </trkpt>
      <trkpt lat="45.46268" lon="6.38794">
        <ele>1891</ele>
        <time>2022-08-09T08:24:10Z</time>
      </trkpt>
      <trkpt lat="45.46267" lon="6.38787">
        <ele>1892</ele>
        <time>2022-08-09T08:24:20Z</time>
      </trkpt>
      <trkpt lat="45.46267" lon="6.38781">
        <ele>1893</ele>
        <time>2022-08-09T08:24:30Z</time>
      </trkpt>
      <trkpt lat="45.46264" lon="6.38774">
        <ele>1894</ele>
        <time>2022-08-09T08:24:45Z</time>
      </trkpt>
      <trkpt lat="45.46263" lon="6.38766">
        <ele>1896</ele>
        <time>2022-08-09T08:25:22Z</time>
      </trkpt>
      <trkpt lat="45.4626" lon="6.38759">
        <ele>1898</ele>
        <time>2022-08-09T08:25:38Z</time>
      </trkpt>
      <trkpt lat="45.46261" lon="6.38745">
        <ele>1900</ele>
        <time>2022-08-09T08:25:58Z</time>
      </trkpt>
      <trkpt lat="45.46263" lon="6.38738">
        <ele>1902</ele>
        <time>2022-08-09T08:26:08Z</time>
      </trkpt>
      <trkpt lat="45.46259" lon="6.38716">
        <ele>1907</ele>
        <time>2022-08-09T08:26:48Z</time>
      </trkpt>
      <trkpt lat="45.4626" lon="6.38706">
        <ele>1908</ele>
        <time>2022-08-09T08:27:03Z</time>
      </trkpt>
      <trkpt lat="45.46258" lon="6.38698">
        <ele>1909</ele>
        <time>2022-08-09T08:27:13Z</time>
      </trkpt>
      <trkpt lat="45.46261" lon="6.38692">
        <ele>1910</ele>
        <time>2022-08-09T08:27:24Z</time>
      </trkpt>
      <trkpt lat="45.46264" lon="6.38684">
        <ele>1913</ele>
        <time>2022-08-09T08:27:45Z</time>
      </trkpt>
      <trkpt lat="45.46267" lon="6.38676">
        <ele>1915</ele>
        <time>2022-08-09T08:28:00Z</time>
      </trkpt>
      <trkpt lat="45.46268" lon="6.3867">
        <ele>1917</ele>
        <time>2022-08-09T08:28:10Z</time>
      </trkpt>
      <trkpt lat="45.46272" lon="6.38657">
        <ele>1920</ele>
        <time>2022-08-09T08:28:40Z</time>
      </trkpt>
      <trkpt lat="45.46273" lon="6.3865">
        <ele>1920</ele>
        <time>2022-08-09T08:28:50Z</time>
      </trkpt>
      <trkpt lat="45.46276" lon="6.38642">
        <ele>1922</ele>
        <time>2022-08-09T08:29:10Z</time>
      </trkpt>
      <trkpt lat="45.46276" lon="6.38634">
        <ele>1924</ele>
        <time>2022-08-09T08:29:20Z</time>
      </trkpt>
      <trkpt lat="45.46283" lon="6.38614">
        <ele>1929</ele>
        <time>2022-08-09T08:29:58Z</time>
      </trkpt>
      <trkpt lat="45.46286" lon="6.38605">
        <ele>1930</ele>
        <time>2022-08-09T08:30:53Z</time>
      </trkpt>
      <trkpt lat="45.46289" lon="6.38599">
        <ele>1931</ele>
        <time>2022-08-09T08:31:03Z</time>
      </trkpt>
      <trkpt lat="45.46296" lon="6.38578">
        <ele>1935</ele>
        <time>2022-08-09T08:31:40Z</time>
      </trkpt>
      <trkpt lat="45.46299" lon="6.38571">
        <ele>1936</ele>
        <time>2022-08-09T08:31:51Z</time>
      </trkpt>
      <trkpt lat="45.46299" lon="6.38562">
        <ele>1938</ele>
        <time>2022-08-09T08:32:06Z</time>
      </trkpt>
      <trkpt lat="45.46304" lon="6.38548">
        <ele>1940</ele>
        <time>2022-08-09T08:32:41Z</time>
      </trkpt>
      <trkpt lat="45.46309" lon="6.38528">
        <ele>1944</ele>
        <time>2022-08-09T08:33:16Z</time>
      </trkpt>
      <trkpt lat="45.46312" lon="6.38523">
        <ele>1946</ele>
        <time>2022-08-09T08:33:31Z</time>
      </trkpt>
      <trkpt lat="45.46316" lon="6.38517">
        <ele>1948</ele>
        <time>2022-08-09T08:33:49Z</time>
      </trkpt>
      <trkpt lat="45.46317" lon="6.38509">
        <ele>1950</ele>
        <time>2022-08-09T08:34:04Z</time>
      </trkpt>
      <trkpt lat="45.46324" lon="6.3849">
        <ele>1954</ele>
        <time>2022-08-09T08:34:39Z</time>
      </trkpt>
      <trkpt lat="45.46331" lon="6.38479">
        <ele>1957</ele>
        <time>2022-08-09T08:35:09Z</time>
      </trkpt>
      <trkpt lat="45.46333" lon="6.38473">
        <ele>1959</ele>
        <time>2022-08-09T08:36:03Z</time>
      </trkpt>
      <trkpt lat="45.46335" lon="6.38468">
        <ele>1960</ele>
        <time>2022-08-09T08:36:13Z</time>
      </trkpt>
      <trkpt lat="45.46338" lon="6.38454">
        <ele>1962</ele>
        <time>2022-08-09T08:36:38Z</time>
      </trkpt>
      <trkpt lat="45.46342" lon="6.38441">
        <ele>1966</ele>
        <time>2022-08-09T08:37:08Z</time>
      </trkpt>
      <trkpt lat="45.46344" lon="6.38433">
        <ele>1968</ele>
        <time>2022-08-09T08:37:43Z</time>
      </trkpt>
      <trkpt lat="45.4635" lon="6.38422">
        <ele>1972</ele>
        <time>2022-08-09T08:38:41Z</time>
      </trkpt>
      <trkpt lat="45.46354" lon="6.38419">
        <ele>1975</ele>
        <time>2022-08-09T08:39:36Z</time>
      </trkpt>
      <trkpt lat="45.46362" lon="6.38411">
        <ele>1979</ele>
        <time>2022-08-09T08:40:10Z</time>
      </trkpt>
      <trkpt lat="45.46365" lon="6.38406">
        <ele>1981</ele>
        <time>2022-08-09T08:40:25Z</time>
      </trkpt>
      <trkpt lat="45.46368" lon="6.38402">
        <ele>1983</ele>
        <time>2022-08-09T08:40:45Z</time>
      </trkpt>
      <trkpt lat="45.46371" lon="6.38398">
        <ele>1986</ele>
        <time>2022-08-09T08:41:10Z</time>
      </trkpt>
      <trkpt lat="45.46376" lon="6.38396">
        <ele>1988</ele>
        <time>2022-08-09T08:41:40Z</time>
      </trkpt>
      <trkpt lat="45.46377" lon="6.3839">
        <ele>1990</ele>
        <time>2022-08-09T08:41:55Z</time>
      </trkpt>
      <trkpt lat="45.46382" lon="6.38386">
        <ele>1993</ele>
        <time>2022-08-09T08:42:18Z</time>
      </trkpt>
      <trkpt lat="45.46382" lon="6.38378">
        <ele>1995</ele>
        <time>2022-08-09T08:42:33Z</time>
      </trkpt>
      <trkpt lat="45.46379" lon="6.38373">
        <ele>1996</ele>
        <time>2022-08-09T08:42:43Z</time>
      </trkpt>
      <trkpt lat="45.46376" lon="6.38368">
        <ele>1996</ele>
        <time>2022-08-09T08:42:53Z</time>
      </trkpt>
      <trkpt lat="45.46373" lon="6.38364">
        <ele>1997</ele>
        <time>2022-08-09T08:43:18Z</time>
      </trkpt>
      <trkpt lat="45.46375" lon="6.38358">
        <ele>1999</ele>
        <time>2022-08-09T08:44:22Z</time>
      </trkpt>
      <trkpt lat="45.46376" lon="6.38352">
        <ele>2001</ele>
        <time>2022-08-09T08:44:52Z</time>
      </trkpt>
      <trkpt lat="45.46376" lon="6.38346">
        <ele>2002</ele>
        <time>2022-08-09T08:45:17Z</time>
      </trkpt>
      <trkpt lat="45.46378" lon="6.38339">
        <ele>2005</ele>
        <time>2022-08-09T08:46:07Z</time>
      </trkpt>
      <trkpt lat="45.4638" lon="6.38326">
        <ele>2009</ele>
        <time>2022-08-09T08:47:04Z</time>
      </trkpt>
      <trkpt lat="45.46383" lon="6.3832">
        <ele>2011</ele>
        <time>2022-08-09T08:47:29Z</time>
      </trkpt>
      <trkpt lat="45.46383" lon="6.38303">
        <ele>2014</ele>
        <time>2022-08-09T08:47:59Z</time>
      </trkpt>
      <trkpt lat="45.46382" lon="6.38296">
        <ele>2016</ele>
        <time>2022-08-09T08:48:09Z</time>
      </trkpt>
      <trkpt lat="45.46384" lon="6.38289">
        <ele>2017</ele>
        <time>2022-08-09T08:48:20Z</time>
      </trkpt>
      <trkpt lat="45.46381" lon="6.38275">
        <ele>2020</ele>
        <time>2022-08-09T08:48:47Z</time>
      </trkpt>
      <trkpt lat="45.46379" lon="6.38267">
        <ele>2022</ele>
        <time>2022-08-09T08:49:17Z</time>
      </trkpt>
      <trkpt lat="45.46381" lon="6.38252">
        <ele>2025</ele>
        <time>2022-08-09T08:49:42Z</time>
      </trkpt>
      <trkpt lat="45.46382" lon="6.38245">
        <ele>2027</ele>
        <time>2022-08-09T08:49:57Z</time>
      </trkpt>
      <trkpt lat="45.46382" lon="6.38237">
        <ele>2028</ele>
        <time>2022-08-09T08:50:07Z</time>
      </trkpt>
      <trkpt lat="45.46383" lon="6.3822">
        <ele>2031</ele>
        <time>2022-08-09T08:51:10Z</time>
      </trkpt>
      <trkpt lat="45.46385" lon="6.38212">
        <ele>2033</ele>
        <time>2022-08-09T08:51:25Z</time>
      </trkpt>
      <trkpt lat="45.46387" lon="6.38206">
        <ele>2034</ele>
        <time>2022-08-09T08:51:40Z</time>
      </trkpt>
      <trkpt lat="45.46389" lon="6.38199">
        <ele>2037</ele>
        <time>2022-08-09T08:52:20Z</time>
      </trkpt>
      <trkpt lat="45.4639" lon="6.38192">
        <ele>2039</ele>
        <time>2022-08-09T08:52:42Z</time>
      </trkpt>
      <trkpt lat="45.46391" lon="6.38186">
        <ele>2040</ele>
        <time>2022-08-09T08:52:58Z</time>
      </trkpt>
      <trkpt lat="45.46393" lon="6.3818">
        <ele>2042</ele>
        <time>2022-08-09T08:53:13Z</time>
      </trkpt>
      <trkpt lat="45.46392" lon="6.38174">
        <ele>2043</ele>
        <time>2022-08-09T08:53:28Z</time>
      </trkpt>
      <trkpt lat="45.46391" lon="6.38167">
        <ele>2045</ele>
        <time>2022-08-09T08:53:43Z</time>
      </trkpt>
      <trkpt lat="45.46396" lon="6.38162">
        <ele>2048</ele>
        <time>2022-08-09T08:54:13Z</time>
      </trkpt>
      <trkpt lat="45.464" lon="6.38161">
        <ele>2050</ele>
        <time>2022-08-09T08:55:02Z</time>
      </trkpt>
      <trkpt lat="45.46403" lon="6.38155">
        <ele>2052</ele>
        <time>2022-08-09T08:55:22Z</time>
      </trkpt>
      <trkpt lat="45.46403" lon="6.38149">
        <ele>2053</ele>
        <time>2022-08-09T08:55:32Z</time>
      </trkpt>
      <trkpt lat="45.46403" lon="6.38142">
        <ele>2055</ele>
        <time>2022-08-09T08:55:47Z</time>
      </trkpt>
      <trkpt lat="45.46402" lon="6.38136">
        <ele>2057</ele>
        <time>2022-08-09T08:56:22Z</time>
      </trkpt>
      <trkpt lat="45.46405" lon="6.38122">
        <ele>2060</ele>
        <time>2022-08-09T08:57:05Z</time>
      </trkpt>
      <trkpt lat="45.46407" lon="6.38114">
        <ele>2061</ele>
        <time>2022-08-09T08:57:20Z</time>
      </trkpt>
      <trkpt lat="45.4641" lon="6.38109">
        <ele>2062</ele>
        <time>2022-08-09T08:57:30Z</time>
      </trkpt>
      <trkpt lat="45.46411" lon="6.38104">
        <ele>2064</ele>
        <time>2022-08-09T08:57:45Z</time>
      </trkpt>
      <trkpt lat="45.46414" lon="6.38098">
        <ele>2066</ele>
        <time>2022-08-09T08:58:10Z</time>
      </trkpt>
      <trkpt lat="45.46418" lon="6.38094">
        <ele>2068</ele>
        <time>2022-08-09T08:58:25Z</time>
      </trkpt>
      <trkpt lat="45.46421" lon="6.38087">
        <ele>2068</ele>
        <time>2022-08-09T08:58:35Z</time>
      </trkpt>
      <trkpt lat="45.46424" lon="6.38081">
        <ele>2069</ele>
        <time>2022-08-09T08:58:52Z</time>
      </trkpt>
      <trkpt lat="45.46425" lon="6.38075">
        <ele>2071</ele>
        <time>2022-08-09T09:16:17Z</time>
      </trkpt>
      <trkpt lat="45.46425" lon="6.38068">
        <ele>2073</ele>
        <time>2022-08-09T09:16:37Z</time>
      </trkpt>
      <trkpt lat="45.46426" lon="6.38061">
        <ele>2074</ele>
        <time>2022-08-09T09:16:52Z</time>
      </trkpt>
      <trkpt lat="45.46421" lon="6.38058">
        <ele>2074</ele>
        <time>2022-08-09T09:17:02Z</time>
      </trkpt>
      <trkpt lat="45.4642" lon="6.38045">
        <ele>2081</ele>
        <time>2022-08-09T09:17:59Z</time>
      </trkpt>
      <trkpt lat="45.46419" lon="6.38038">
        <ele>2082</ele>
        <time>2022-08-09T09:18:19Z</time>
      </trkpt>
      <trkpt lat="45.46417" lon="6.38031">
        <ele>2084</ele>
        <time>2022-08-09T09:18:49Z</time>
      </trkpt>
      <trkpt lat="45.46419" lon="6.38023">
        <ele>2086</ele>
        <time>2022-08-09T09:19:19Z</time>
      </trkpt>
      <trkpt lat="45.46422" lon="6.38017">
        <ele>2089</ele>
        <time>2022-08-09T09:19:39Z</time>
      </trkpt>
      <trkpt lat="45.46422" lon="6.38011">
        <ele>2090</ele>
        <time>2022-08-09T09:19:50Z</time>
      </trkpt>
      <trkpt lat="45.46419" lon="6.38004">
        <ele>2092</ele>
        <time>2022-08-09T09:20:07Z</time>
      </trkpt>
      <trkpt lat="45.4642" lon="6.37997">
        <ele>2095</ele>
        <time>2022-08-09T09:20:27Z</time>
      </trkpt>
      <trkpt lat="45.46421" lon="6.37991">
        <ele>2096</ele>
        <time>2022-08-09T09:20:42Z</time>
      </trkpt>
      <trkpt lat="45.46418" lon="6.37984">
        <ele>2097</ele>
        <time>2022-08-09T09:20:52Z</time>
      </trkpt>
      <trkpt lat="45.46417" lon="6.37979">
        <ele>2099</ele>
        <time>2022-08-09T09:21:07Z</time>
      </trkpt>
      <trkpt lat="45.4642" lon="6.37975">
        <ele>2101</ele>
        <time>2022-08-09T09:21:27Z</time>
      </trkpt>
      <trkpt lat="45.46421" lon="6.37967">
        <ele>2104</ele>
        <time>2022-08-09T09:21:58Z</time>
      </trkpt>
      <trkpt lat="45.46417" lon="6.37958">
        <ele>2106</ele>
        <time>2022-08-09T09:22:20Z</time>
      </trkpt>
      <trkpt lat="45.46413" lon="6.37952">
        <ele>2108</ele>
        <time>2022-08-09T09:22:35Z</time>
      </trkpt>
      <trkpt lat="45.46408" lon="6.37948">
        <ele>2110</ele>
        <time>2022-08-09T09:22:50Z</time>
      </trkpt>
      <trkpt lat="45.46405" lon="6.37944">
        <ele>2112</ele>
        <time>2022-08-09T09:23:25Z</time>
      </trkpt>
      <trkpt lat="45.46409" lon="6.3794">
        <ele>2114</ele>
        <time>2022-08-09T09:27:50Z</time>
      </trkpt>
      <trkpt lat="45.46413" lon="6.37937">
        <ele>2117</ele>
        <time>2022-08-09T09:28:05Z</time>
      </trkpt>
      <trkpt lat="45.46414" lon="6.3793">
        <ele>2119</ele>
        <time>2022-08-09T09:28:26Z</time>
      </trkpt>
      <trkpt lat="45.4642" lon="6.37927">
        <ele>2120</ele>
        <time>2022-08-09T09:28:41Z</time>
      </trkpt>
      <trkpt lat="45.46418" lon="6.37919">
        <ele>2123</ele>
        <time>2022-08-09T09:29:01Z</time>
      </trkpt>
      <trkpt lat="45.46415" lon="6.37907">
        <ele>2125</ele>
        <time>2022-08-09T09:29:41Z</time>
      </trkpt>
      <trkpt lat="45.46406" lon="6.37891">
        <ele>2130</ele>
        <time>2022-08-09T09:30:22Z</time>
      </trkpt>
      <trkpt lat="45.46403" lon="6.37885">
        <ele>2132</ele>
        <time>2022-08-09T09:30:37Z</time>
      </trkpt>
      <trkpt lat="45.464" lon="6.37878">
        <ele>2134</ele>
        <time>2022-08-09T09:30:52Z</time>
      </trkpt>
      <trkpt lat="45.46395" lon="6.37876">
        <ele>2136</ele>
        <time>2022-08-09T09:31:02Z</time>
      </trkpt>
      <trkpt lat="45.46393" lon="6.3787">
        <ele>2137</ele>
        <time>2022-08-09T09:31:17Z</time>
      </trkpt>
      <trkpt lat="45.46394" lon="6.37861">
        <ele>2139</ele>
        <time>2022-08-09T09:31:32Z</time>
      </trkpt>
      <trkpt lat="45.4639" lon="6.37857">
        <ele>2141</ele>
        <time>2022-08-09T09:32:12Z</time>
      </trkpt>
      <trkpt lat="45.46394" lon="6.37851">
        <ele>2142</ele>
        <time>2022-08-09T09:34:47Z</time>
      </trkpt>
      <trkpt lat="45.46399" lon="6.37853">
        <ele>2144</ele>
        <time>2022-08-09T09:35:02Z</time>
      </trkpt>
      <trkpt lat="45.46403" lon="6.37855">
        <ele>2144</ele>
        <time>2022-08-09T09:35:08Z</time>
      </trkpt>
      <trkpt lat="45.46409" lon="6.37854">
        <ele>2146</ele>
        <time>2022-08-09T09:35:43Z</time>
      </trkpt>
      <trkpt lat="45.46409" lon="6.37847">
        <ele>2147</ele>
        <time>2022-08-09T09:35:58Z</time>
      </trkpt>
      <trkpt lat="45.46411" lon="6.3784">
        <ele>2148</ele>
        <time>2022-08-09T09:36:13Z</time>
      </trkpt>
      <trkpt lat="45.46415" lon="6.3784">
        <ele>2149</ele>
        <time>2022-08-09T09:36:23Z</time>
      </trkpt>
      <trkpt lat="45.46421" lon="6.37838">
        <ele>2149</ele>
        <time>2022-08-09T09:36:46Z</time>
      </trkpt>
      <trkpt lat="45.46426" lon="6.37837">
        <ele>2151</ele>
        <time>2022-08-09T09:37:02Z</time>
      </trkpt>
      <trkpt lat="45.4643" lon="6.37833">
        <ele>2153</ele>
        <time>2022-08-09T09:37:22Z</time>
      </trkpt>
      <trkpt lat="45.46428" lon="6.37827">
        <ele>2154</ele>
        <time>2022-08-09T09:38:12Z</time>
      </trkpt>
      <trkpt lat="45.46424" lon="6.37822">
        <ele>2155</ele>
        <time>2022-08-09T09:41:57Z</time>
      </trkpt>
      <trkpt lat="45.46421" lon="6.37817">
        <ele>2158</ele>
        <time>2022-08-09T09:42:17Z</time>
      </trkpt>
      <trkpt lat="45.46416" lon="6.37813">
        <ele>2160</ele>
        <time>2022-08-09T09:42:37Z</time>
      </trkpt>
      <trkpt lat="45.46412" lon="6.37804">
        <ele>2162</ele>
        <time>2022-08-09T09:42:53Z</time>
      </trkpt>
      <trkpt lat="45.4641" lon="6.37798">
        <ele>2164</ele>
        <time>2022-08-09T09:43:10Z</time>
      </trkpt>
      <trkpt lat="45.46408" lon="6.3779">
        <ele>2167</ele>
        <time>2022-08-09T09:43:30Z</time>
      </trkpt>
      <trkpt lat="45.46402" lon="6.37778">
        <ele>2174</ele>
        <time>2022-08-09T09:44:16Z</time>
      </trkpt>
      <trkpt lat="45.46407" lon="6.37783">
        <ele>2176</ele>
        <time>2022-08-09T09:44:31Z</time>
      </trkpt>
      <trkpt lat="45.46414" lon="6.37784">
        <ele>2177</ele>
        <time>2022-08-09T09:44:46Z</time>
      </trkpt>
      <trkpt lat="45.46417" lon="6.37778">
        <ele>2179</ele>
        <time>2022-08-09T09:44:56Z</time>
      </trkpt>
      <trkpt lat="45.46415" lon="6.37771">
        <ele>2181</ele>
        <time>2022-08-09T09:45:14Z</time>
      </trkpt>
      <trkpt lat="45.46415" lon="6.37764">
        <ele>2184</ele>
        <time>2022-08-09T09:45:39Z</time>
      </trkpt>
      <trkpt lat="45.46419" lon="6.3776">
        <ele>2188</ele>
        <time>2022-08-09T09:46:09Z</time>
      </trkpt>
      <trkpt lat="45.4642" lon="6.37753">
        <ele>2189</ele>
        <time>2022-08-09T09:46:19Z</time>
      </trkpt>
      <trkpt lat="45.46422" lon="6.37746">
        <ele>2192</ele>
        <time>2022-08-09T09:46:44Z</time>
      </trkpt>
      <trkpt lat="45.46428" lon="6.37732">
        <ele>2198</ele>
        <time>2022-08-09T09:47:38Z</time>
      </trkpt>
      <trkpt lat="45.46433" lon="6.37729">
        <ele>2200</ele>
        <time>2022-08-09T09:47:53Z</time>
      </trkpt>
      <trkpt lat="45.46437" lon="6.37726">
        <ele>2202</ele>
        <time>2022-08-09T09:48:08Z</time>
      </trkpt>
      <trkpt lat="45.46439" lon="6.37718">
        <ele>2204</ele>
        <time>2022-08-09T09:48:23Z</time>
      </trkpt>
      <trkpt lat="45.46444" lon="6.37717">
        <ele>2207</ele>
        <time>2022-08-09T09:48:48Z</time>
      </trkpt>
      <trkpt lat="45.46448" lon="6.37711">
        <ele>2209</ele>
        <time>2022-08-09T09:49:03Z</time>
      </trkpt>
      <trkpt lat="45.46453" lon="6.377">
        <ele>2213</ele>
        <time>2022-08-09T09:49:41Z</time>
      </trkpt>
      <trkpt lat="45.46458" lon="6.37696">
        <ele>2215</ele>
        <time>2022-08-09T09:50:01Z</time>
      </trkpt>
      <trkpt lat="45.46462" lon="6.37693">
        <ele>2216</ele>
        <time>2022-08-09T09:50:16Z</time>
      </trkpt>
      <trkpt lat="45.46474" lon="6.37687">
        <ele>2219</ele>
        <time>2022-08-09T09:50:42Z</time>
      </trkpt>
      <trkpt lat="45.4648" lon="6.37686">
        <ele>2220</ele>
        <time>2022-08-09T09:50:49Z</time>
      </trkpt>
      <trkpt lat="45.46485" lon="6.37684">
        <ele>2220</ele>
        <time>2022-08-09T09:50:54Z</time>
      </trkpt>
      <trkpt lat="45.4649" lon="6.3768">
        <ele>2220</ele>
        <time>2022-08-09T09:51:01Z</time>
      </trkpt>
      <trkpt lat="45.465" lon="6.37674">
        <ele>2220</ele>
        <time>2022-08-09T09:51:13Z</time>
      </trkpt>
      <trkpt lat="45.46508" lon="6.37674">
        <ele>2220</ele>
        <time>2022-08-09T09:51:22Z</time>
      </trkpt>
      <trkpt lat="45.46513" lon="6.37673">
        <ele>2220</ele>
        <time>2022-08-09T09:51:27Z</time>
      </trkpt>
      <trkpt lat="45.46517" lon="6.37677">
        <ele>2221</ele>
        <time>2022-08-09T09:51:34Z</time>
      </trkpt>
      <trkpt lat="45.46525" lon="6.37681">
        <ele>2221</ele>
        <time>2022-08-09T09:51:45Z</time>
      </trkpt>
      <trkpt lat="45.46529" lon="6.37684">
        <ele>2220</ele>
        <time>2022-08-09T09:51:50Z</time>
      </trkpt>
      <trkpt lat="45.4654" lon="6.37693">
        <ele>2221</ele>
        <time>2022-08-09T09:52:07Z</time>
      </trkpt>
      <trkpt lat="45.46548" lon="6.37695">
        <ele>2222</ele>
        <time>2022-08-09T09:52:17Z</time>
      </trkpt>
      <trkpt lat="45.46557" lon="6.37696">
        <ele>2225</ele>
        <time>2022-08-09T09:52:37Z</time>
      </trkpt>
      <trkpt lat="45.46559" lon="6.37691">
        <ele>2226</ele>
        <time>2022-08-09T09:53:02Z</time>
      </trkpt>
      <trkpt lat="45.46558" lon="6.37685">
        <ele>2228</ele>
        <time>2022-08-09T09:53:17Z</time>
      </trkpt>
      <trkpt lat="45.46548" lon="6.37672">
        <ele>2230</ele>
        <time>2022-08-09T09:53:40Z</time>
      </trkpt>
      <trkpt lat="45.46544" lon="6.3767">
        <ele>2231</ele>
        <time>2022-08-09T09:53:50Z</time>
      </trkpt>
      <trkpt lat="45.46544" lon="6.37662">
        <ele>2232</ele>
        <time>2022-08-09T09:54:05Z</time>
      </trkpt>
      <trkpt lat="45.46544" lon="6.37648">
        <ele>2235</ele>
        <time>2022-08-09T09:54:30Z</time>
      </trkpt>
      <trkpt lat="45.46541" lon="6.37643">
        <ele>2236</ele>
        <time>2022-08-09T09:54:40Z</time>
      </trkpt>
      <trkpt lat="45.46543" lon="6.37637">
        <ele>2240</ele>
        <time>2022-08-09T09:55:05Z</time>
      </trkpt>
      <trkpt lat="45.46542" lon="6.3763">
        <ele>2242</ele>
        <time>2022-08-09T09:55:20Z</time>
      </trkpt>
      <trkpt lat="45.46544" lon="6.37623">
        <ele>2246</ele>
        <time>2022-08-09T09:55:47Z</time>
      </trkpt>
      <trkpt lat="45.46554" lon="6.37627">
        <ele>2249</ele>
        <time>2022-08-09T09:56:22Z</time>
      </trkpt>
      <trkpt lat="45.46559" lon="6.3763">
        <ele>2251</ele>
        <time>2022-08-09T09:56:37Z</time>
      </trkpt>
      <trkpt lat="45.46565" lon="6.37631">
        <ele>2253</ele>
        <time>2022-08-09T09:56:52Z</time>
      </trkpt>
      <trkpt lat="45.4657" lon="6.37634">
        <ele>2255</ele>
        <time>2022-08-09T09:57:12Z</time>
      </trkpt>
      <trkpt lat="45.46572" lon="6.37631">
        <ele>2256</ele>
        <time>2022-08-09T10:06:01Z</time>
      </trkpt>
      <trkpt lat="45.46573" lon="6.37632">
        <ele>2257</ele>
        <time>2022-08-09T10:18:52Z</time>
      </trkpt>
      <trkpt lat="45.46572" lon="6.37632">
        <ele>2259</ele>
        <time>2022-08-09T10:37:05Z</time>
      </trkpt>
      <trkpt lat="45.46571" lon="6.37622">
        <ele>2260</ele>
        <time>2022-08-09T10:44:47Z</time>
      </trkpt>
      <trkpt lat="45.46569" lon="6.37617">
        <ele>2260</ele>
        <time>2022-08-09T10:46:55Z</time>
      </trkpt>
      <trkpt lat="45.46566" lon="6.37612">
        <ele>2261</ele>
        <time>2022-08-09T10:47:25Z</time>
      </trkpt>
      <trkpt lat="45.46561" lon="6.37605">
        <ele>2262</ele>
        <time>2022-08-09T10:47:35Z</time>
      </trkpt>
      <trkpt lat="45.46553" lon="6.37595">
        <ele>2262</ele>
        <time>2022-08-09T10:47:52Z</time>
      </trkpt>
      <trkpt lat="45.46545" lon="6.37592">
        <ele>2263</ele>
        <time>2022-08-09T10:48:03Z</time>
      </trkpt>
      <trkpt lat="45.46539" lon="6.37588">
        <ele>2264</ele>
        <time>2022-08-09T10:48:12Z</time>
      </trkpt>
      <trkpt lat="45.46535" lon="6.37583">
        <ele>2265</ele>
        <time>2022-08-09T10:48:23Z</time>
      </trkpt>
      <trkpt lat="45.46531" lon="6.37581">
        <ele>2265</ele>
        <time>2022-08-09T10:48:28Z</time>
      </trkpt>
      <trkpt lat="45.46527" lon="6.37578">
        <ele>2266</ele>
        <time>2022-08-09T10:48:32Z</time>
      </trkpt>
      <trkpt lat="45.46523" lon="6.37576">
        <ele>2267</ele>
        <time>2022-08-09T10:48:44Z</time>
      </trkpt>
      <trkpt lat="45.46519" lon="6.37572">
        <ele>2269</ele>
        <time>2022-08-09T10:48:59Z</time>
      </trkpt>
      <trkpt lat="45.46525" lon="6.37561">
        <ele>2275</ele>
        <time>2022-08-09T10:49:44Z</time>
      </trkpt>
      <trkpt lat="45.46523" lon="6.37554">
        <ele>2278</ele>
        <time>2022-08-09T10:50:05Z</time>
      </trkpt>
      <trkpt lat="45.46524" lon="6.37548">
        <ele>2282</ele>
        <time>2022-08-09T10:50:37Z</time>
      </trkpt>
      <trkpt lat="45.46528" lon="6.37546">
        <ele>2284</ele>
        <time>2022-08-09T10:50:47Z</time>
      </trkpt>
      <trkpt lat="45.4653" lon="6.37541">
        <ele>2285</ele>
        <time>2022-08-09T10:51:02Z</time>
      </trkpt>
      <trkpt lat="45.46527" lon="6.37535">
        <ele>2287</ele>
        <time>2022-08-09T10:51:17Z</time>
      </trkpt>
      <trkpt lat="45.46524" lon="6.37533">
        <ele>2289</ele>
        <time>2022-08-09T10:51:32Z</time>
      </trkpt>
      <trkpt lat="45.46527" lon="6.37529">
        <ele>2292</ele>
        <time>2022-08-09T10:52:19Z</time>
      </trkpt>
      <trkpt lat="45.4653" lon="6.37524">
        <ele>2294</ele>
        <time>2022-08-09T10:52:35Z</time>
      </trkpt>
      <trkpt lat="45.46533" lon="6.37518">
        <ele>2296</ele>
        <time>2022-08-09T10:52:50Z</time>
      </trkpt>
      <trkpt lat="45.46536" lon="6.37514">
        <ele>2298</ele>
        <time>2022-08-09T10:53:05Z</time>
      </trkpt>
      <trkpt lat="45.46543" lon="6.37502">
        <ele>2303</ele>
        <time>2022-08-09T10:53:45Z</time>
      </trkpt>
      <trkpt lat="45.46548" lon="6.37497">
        <ele>2305</ele>
        <time>2022-08-09T10:54:00Z</time>
      </trkpt>
      <trkpt lat="45.46557" lon="6.37491">
        <ele>2308</ele>
        <time>2022-08-09T10:54:28Z</time>
      </trkpt>
      <trkpt lat="45.4656" lon="6.37486">
        <ele>2312</ele>
        <time>2022-08-09T10:54:59Z</time>
      </trkpt>
      <trkpt lat="45.4656" lon="6.37478">
        <ele>2314</ele>
        <time>2022-08-09T10:55:24Z</time>
      </trkpt>
      <trkpt lat="45.46562" lon="6.37472">
        <ele>2317</ele>
        <time>2022-08-09T10:55:49Z</time>
      </trkpt>
      <trkpt lat="45.4656" lon="6.37465">
        <ele>2319</ele>
        <time>2022-08-09T10:56:04Z</time>
      </trkpt>
      <trkpt lat="45.46557" lon="6.37459">
        <ele>2321</ele>
        <time>2022-08-09T10:56:25Z</time>
      </trkpt>
      <trkpt lat="45.46554" lon="6.37452">
        <ele>2323</ele>
        <time>2022-08-09T10:56:41Z</time>
      </trkpt>
      <trkpt lat="45.46551" lon="6.37438">
        <ele>2327</ele>
        <time>2022-08-09T10:57:12Z</time>
      </trkpt>
      <trkpt lat="45.46552" lon="6.3743">
        <ele>2329</ele>
        <time>2022-08-09T10:57:27Z</time>
      </trkpt>
      <trkpt lat="45.46554" lon="6.37424">
        <ele>2330</ele>
        <time>2022-08-09T10:57:37Z</time>
      </trkpt>
      <trkpt lat="45.46554" lon="6.37418">
        <ele>2332</ele>
        <time>2022-08-09T10:57:52Z</time>
      </trkpt>
      <trkpt lat="45.46552" lon="6.3741">
        <ele>2333</ele>
        <time>2022-08-09T10:58:08Z</time>
      </trkpt>
      <trkpt lat="45.46554" lon="6.37402">
        <ele>2336</ele>
        <time>2022-08-09T10:58:29Z</time>
      </trkpt>
      <trkpt lat="45.46556" lon="6.37394">
        <ele>2339</ele>
        <time>2022-08-09T10:58:51Z</time>
      </trkpt>
      <trkpt lat="45.46556" lon="6.37388">
        <ele>2341</ele>
        <time>2022-08-09T10:59:11Z</time>
      </trkpt>
      <trkpt lat="45.46561" lon="6.37385">
        <ele>2344</ele>
        <time>2022-08-09T10:59:31Z</time>
      </trkpt>
      <trkpt lat="45.46565" lon="6.37383">
        <ele>2346</ele>
        <time>2022-08-09T10:59:46Z</time>
      </trkpt>
      <trkpt lat="45.46571" lon="6.37382">
        <ele>2349</ele>
        <time>2022-08-09T11:00:06Z</time>
      </trkpt>
      <trkpt lat="45.46573" lon="6.37377">
        <ele>2351</ele>
        <time>2022-08-09T11:00:31Z</time>
      </trkpt>
      <trkpt lat="45.46571" lon="6.37371">
        <ele>2354</ele>
        <time>2022-08-09T11:00:58Z</time>
      </trkpt>
      <trkpt lat="45.46576" lon="6.37365">
        <ele>2356</ele>
        <time>2022-08-09T11:01:18Z</time>
      </trkpt>
      <trkpt lat="45.4658" lon="6.37362">
        <ele>2357</ele>
        <time>2022-08-09T11:01:28Z</time>
      </trkpt>
      <trkpt lat="45.46581" lon="6.37354">
        <ele>2357</ele>
        <time>2022-08-09T11:01:38Z</time>
      </trkpt>
      <trkpt lat="45.4658" lon="6.37346">
        <ele>2357</ele>
        <time>2022-08-09T11:01:53Z</time>
      </trkpt>
      <trkpt lat="45.46578" lon="6.3734">
        <ele>2359</ele>
        <time>2022-08-09T11:02:08Z</time>
      </trkpt>
      <trkpt lat="45.46578" lon="6.37334">
        <ele>2360</ele>
        <time>2022-08-09T11:02:18Z</time>
      </trkpt>
      <trkpt lat="45.46578" lon="6.37328">
        <ele>2362</ele>
        <time>2022-08-09T11:02:33Z</time>
      </trkpt>
      <trkpt lat="45.46581" lon="6.37319">
        <ele>2364</ele>
        <time>2022-08-09T11:02:50Z</time>
      </trkpt>
      <trkpt lat="45.46579" lon="6.37313">
        <ele>2366</ele>
        <time>2022-08-09T11:03:02Z</time>
      </trkpt>
      <trkpt lat="45.46579" lon="6.37304">
        <ele>2368</ele>
        <time>2022-08-09T11:03:22Z</time>
      </trkpt>
      <trkpt lat="45.46584" lon="6.37301">
        <ele>2368</ele>
        <time>2022-08-09T11:03:32Z</time>
      </trkpt>
      <trkpt lat="45.46584" lon="6.37293">
        <ele>2368</ele>
        <time>2022-08-09T11:03:42Z</time>
      </trkpt>
      <trkpt lat="45.46586" lon="6.37287">
        <ele>2369</ele>
        <time>2022-08-09T11:03:52Z</time>
      </trkpt>
      <trkpt lat="45.46587" lon="6.3728">
        <ele>2371</ele>
        <time>2022-08-09T11:04:07Z</time>
      </trkpt>
      <trkpt lat="45.4659" lon="6.37276">
        <ele>2371</ele>
        <time>2022-08-09T11:04:27Z</time>
      </trkpt>
      <trkpt lat="45.46594" lon="6.37271">
        <ele>2373</ele>
        <time>2022-08-09T11:04:48Z</time>
      </trkpt>
      <trkpt lat="45.46598" lon="6.37272">
        <ele>2372</ele>
        <time>2022-08-09T11:05:00Z</time>
      </trkpt>
      <trkpt lat="45.46603" lon="6.37272">
        <ele>2373</ele>
        <time>2022-08-09T11:05:16Z</time>
      </trkpt>
      <trkpt lat="45.46606" lon="6.37266">
        <ele>2375</ele>
        <time>2022-08-09T11:05:36Z</time>
      </trkpt>
      <trkpt lat="45.46613" lon="6.37256">
        <ele>2378</ele>
        <time>2022-08-09T11:06:11Z</time>
      </trkpt>
      <trkpt lat="45.46614" lon="6.37248">
        <ele>2381</ele>
        <time>2022-08-09T11:06:31Z</time>
      </trkpt>
      <trkpt lat="45.46612" lon="6.37243">
        <ele>2382</ele>
        <time>2022-08-09T11:06:46Z</time>
      </trkpt>
      <trkpt lat="45.46614" lon="6.37235">
        <ele>2384</ele>
        <time>2022-08-09T11:07:20Z</time>
      </trkpt>
      <trkpt lat="45.46618" lon="6.3723">
        <ele>2385</ele>
        <time>2022-08-09T11:07:40Z</time>
      </trkpt>
      <trkpt lat="45.46624" lon="6.37217">
        <ele>2388</ele>
        <time>2022-08-09T11:08:20Z</time>
      </trkpt>
      <trkpt lat="45.46626" lon="6.37208">
        <ele>2390</ele>
        <time>2022-08-09T11:08:35Z</time>
      </trkpt>
      <trkpt lat="45.46629" lon="6.37204">
        <ele>2391</ele>
        <time>2022-08-09T11:08:55Z</time>
      </trkpt>
      <trkpt lat="45.46633" lon="6.372">
        <ele>2393</ele>
        <time>2022-08-09T11:09:07Z</time>
      </trkpt>
      <trkpt lat="45.46636" lon="6.37194">
        <ele>2393</ele>
        <time>2022-08-09T11:09:18Z</time>
      </trkpt>
      <trkpt lat="45.46641" lon="6.37187">
        <ele>2395</ele>
        <time>2022-08-09T11:09:33Z</time>
      </trkpt>
      <trkpt lat="45.46642" lon="6.3718">
        <ele>2396</ele>
        <time>2022-08-09T11:09:48Z</time>
      </trkpt>
      <trkpt lat="45.46645" lon="6.37172">
        <ele>2397</ele>
        <time>2022-08-09T11:09:58Z</time>
      </trkpt>
      <trkpt lat="45.46648" lon="6.37165">
        <ele>2398</ele>
        <time>2022-08-09T11:10:13Z</time>
      </trkpt>
      <trkpt lat="45.46646" lon="6.37159">
        <ele>2398</ele>
        <time>2022-08-09T11:10:28Z</time>
      </trkpt>
      <trkpt lat="45.46648" lon="6.37152">
        <ele>2399</ele>
        <time>2022-08-09T11:10:43Z</time>
      </trkpt>
      <trkpt lat="45.46647" lon="6.37145">
        <ele>2400</ele>
        <time>2022-08-09T11:10:53Z</time>
      </trkpt>
      <trkpt lat="45.46644" lon="6.37139">
        <ele>2401</ele>
        <time>2022-08-09T11:11:10Z</time>
      </trkpt>
      <trkpt lat="45.46643" lon="6.37133">
        <ele>2401</ele>
        <time>2022-08-09T11:11:32Z</time>
      </trkpt>
      <trkpt lat="45.46644" lon="6.37125">
        <ele>2404</ele>
        <time>2022-08-09T11:11:57Z</time>
      </trkpt>
      <trkpt lat="45.46647" lon="6.37119">
        <ele>2406</ele>
        <time>2022-08-09T11:12:17Z</time>
      </trkpt>
      <trkpt lat="45.46645" lon="6.37111">
        <ele>2407</ele>
        <time>2022-08-09T11:12:32Z</time>
      </trkpt>
      <trkpt lat="45.46643" lon="6.37104">
        <ele>2408</ele>
        <time>2022-08-09T11:12:47Z</time>
      </trkpt>
      <trkpt lat="45.46644" lon="6.37098">
        <ele>2411</ele>
        <time>2022-08-09T11:13:13Z</time>
      </trkpt>
      <trkpt lat="45.46648" lon="6.3709">
        <ele>2412</ele>
        <time>2022-08-09T11:13:30Z</time>
      </trkpt>
      <trkpt lat="45.46646" lon="6.37085">
        <ele>2414</ele>
        <time>2022-08-09T11:13:45Z</time>
      </trkpt>
      <trkpt lat="45.46646" lon="6.37079">
        <ele>2414</ele>
        <time>2022-08-09T11:14:10Z</time>
      </trkpt>
      <trkpt lat="45.46646" lon="6.37072">
        <ele>2416</ele>
        <time>2022-08-09T11:14:30Z</time>
      </trkpt>
      <trkpt lat="45.46647" lon="6.37066">
        <ele>2419</ele>
        <time>2022-08-09T11:15:28Z</time>
      </trkpt>
      <trkpt lat="45.46646" lon="6.37058">
        <ele>2421</ele>
        <time>2022-08-09T11:15:49Z</time>
      </trkpt>
      <trkpt lat="45.46645" lon="6.37052">
        <ele>2423</ele>
        <time>2022-08-09T11:16:09Z</time>
      </trkpt>
      <trkpt lat="45.46647" lon="6.37045">
        <ele>2425</ele>
        <time>2022-08-09T11:16:34Z</time>
      </trkpt>
      <trkpt lat="45.46645" lon="6.37037">
        <ele>2427</ele>
        <time>2022-08-09T11:16:54Z</time>
      </trkpt>
      <trkpt lat="45.46643" lon="6.3703">
        <ele>2429</ele>
        <time>2022-08-09T11:17:14Z</time>
      </trkpt>
      <trkpt lat="45.46645" lon="6.37023">
        <ele>2433</ele>
        <time>2022-08-09T11:17:56Z</time>
      </trkpt>
      <trkpt lat="45.46645" lon="6.37017">
        <ele>2435</ele>
        <time>2022-08-09T11:18:11Z</time>
      </trkpt>
      <trkpt lat="45.46639" lon="6.37003">
        <ele>2438</ele>
        <time>2022-08-09T11:18:41Z</time>
      </trkpt>
      <trkpt lat="45.46637" lon="6.36996">
        <ele>2440</ele>
        <time>2022-08-09T11:18:56Z</time>
      </trkpt>
      <trkpt lat="45.46637" lon="6.36991">
        <ele>2444</ele>
        <time>2022-08-09T11:19:26Z</time>
      </trkpt>
      <trkpt lat="45.46636" lon="6.36984">
        <ele>2446</ele>
        <time>2022-08-09T11:19:44Z</time>
      </trkpt>
      <trkpt lat="45.46639" lon="6.36978">
        <ele>2450</ele>
        <time>2022-08-09T11:20:24Z</time>
      </trkpt>
      <trkpt lat="45.4664" lon="6.36974">
        <ele>2453</ele>
        <time>2022-08-09T11:21:35Z</time>
      </trkpt>
      <trkpt lat="45.46644" lon="6.36972">
        <ele>2456</ele>
        <time>2022-08-09T11:22:02Z</time>
      </trkpt>
      <trkpt lat="45.46644" lon="6.36965">
        <ele>2458</ele>
        <time>2022-08-09T11:22:17Z</time>
      </trkpt>
      <trkpt lat="45.46643" lon="6.36951">
        <ele>2464</ele>
        <time>2022-08-09T11:23:07Z</time>
      </trkpt>
      <trkpt lat="45.46641" lon="6.36945">
        <ele>2465</ele>
        <time>2022-08-09T11:23:27Z</time>
      </trkpt>
      <trkpt lat="45.46638" lon="6.36932">
        <ele>2469</ele>
        <time>2022-08-09T11:24:04Z</time>
      </trkpt>
      <trkpt lat="45.46636" lon="6.36926">
        <ele>2470</ele>
        <time>2022-08-09T11:24:19Z</time>
      </trkpt>
      <trkpt lat="45.46633" lon="6.36921">
        <ele>2472</ele>
        <time>2022-08-09T11:24:34Z</time>
      </trkpt>
      <trkpt lat="45.46632" lon="6.36914">
        <ele>2474</ele>
        <time>2022-08-09T11:25:04Z</time>
      </trkpt>
      <trkpt lat="45.46634" lon="6.36908">
        <ele>2482</ele>
        <time>2022-08-09T11:25:55Z</time>
      </trkpt>
      <trkpt lat="45.46638" lon="6.36904">
        <ele>2486</ele>
        <time>2022-08-09T11:26:30Z</time>
      </trkpt>
      <trkpt lat="45.4664" lon="6.36896">
        <ele>2488</ele>
        <time>2022-08-09T11:27:00Z</time>
      </trkpt>
      <trkpt lat="45.46643" lon="6.36892">
        <ele>2493</ele>
        <time>2022-08-09T11:27:35Z</time>
      </trkpt>
      <trkpt lat="45.46647" lon="6.36888">
        <ele>2495</ele>
        <time>2022-08-09T11:27:50Z</time>
      </trkpt>
      <trkpt lat="45.46655" lon="6.36877">
        <ele>2501</ele>
        <time>2022-08-09T11:28:33Z</time>
      </trkpt>
      <trkpt lat="45.46653" lon="6.3687">
        <ele>2501</ele>
        <time>2022-08-09T11:28:58Z</time>
      </trkpt>
      <trkpt lat="45.46651" lon="6.36862">
        <ele>2501</ele>
        <time>2022-08-09T11:29:08Z</time>
      </trkpt>
      <trkpt lat="45.4665" lon="6.36856">
        <ele>2501</ele>
        <time>2022-08-09T11:29:18Z</time>
      </trkpt>
      <trkpt lat="45.46646" lon="6.36851">
        <ele>2502</ele>
        <time>2022-08-09T11:29:28Z</time>
      </trkpt>
      <trkpt lat="45.46647" lon="6.36846">
        <ele>2503</ele>
        <time>2022-08-09T11:29:48Z</time>
      </trkpt>
      <trkpt lat="45.46647" lon="6.3684">
        <ele>2505</ele>
        <time>2022-08-09T11:29:59Z</time>
      </trkpt>
      <trkpt lat="45.46645" lon="6.36832">
        <ele>2507</ele>
        <time>2022-08-09T11:30:16Z</time>
      </trkpt>
      <trkpt lat="45.46642" lon="6.36826">
        <ele>2507</ele>
        <time>2022-08-09T11:30:31Z</time>
      </trkpt>
      <trkpt lat="45.46639" lon="6.3682">
        <ele>2509</ele>
        <time>2022-08-09T11:30:46Z</time>
      </trkpt>
      <trkpt lat="45.46636" lon="6.36814">
        <ele>2509</ele>
        <time>2022-08-09T11:30:56Z</time>
      </trkpt>
      <trkpt lat="45.46632" lon="6.36811">
        <ele>2510</ele>
        <time>2022-08-09T11:31:11Z</time>
      </trkpt>
      <trkpt lat="45.46628" lon="6.36807">
        <ele>2510</ele>
        <time>2022-08-09T11:31:21Z</time>
      </trkpt>
      <trkpt lat="45.46618" lon="6.36799">
        <ele>2513</ele>
        <time>2022-08-09T11:32:07Z</time>
      </trkpt>
      <trkpt lat="45.46613" lon="6.36798">
        <ele>2513</ele>
        <time>2022-08-09T11:32:23Z</time>
      </trkpt>
      <trkpt lat="45.46604" lon="6.36794">
        <ele>2516</ele>
        <time>2022-08-09T11:32:54Z</time>
      </trkpt>
      <trkpt lat="45.466" lon="6.36791">
        <ele>2518</ele>
        <time>2022-08-09T11:33:14Z</time>
      </trkpt>
      <trkpt lat="45.46595" lon="6.36786">
        <ele>2520</ele>
        <time>2022-08-09T11:33:29Z</time>
      </trkpt>
      <trkpt lat="45.4659" lon="6.36785">
        <ele>2521</ele>
        <time>2022-08-09T11:33:39Z</time>
      </trkpt>
      <trkpt lat="45.46586" lon="6.36783">
        <ele>2521</ele>
        <time>2022-08-09T11:33:54Z</time>
      </trkpt>
      <trkpt lat="45.4658" lon="6.36783">
        <ele>2522</ele>
        <time>2022-08-09T11:34:05Z</time>
      </trkpt>
      <trkpt lat="45.46576" lon="6.36783">
        <ele>2523</ele>
        <time>2022-08-09T11:34:16Z</time>
      </trkpt>
      <trkpt lat="45.46572" lon="6.36781">
        <ele>2523</ele>
        <time>2022-08-09T11:34:33Z</time>
      </trkpt>
      <trkpt lat="45.46566" lon="6.36781">
        <ele>2523</ele>
        <time>2022-08-09T11:34:48Z</time>
      </trkpt>
      <trkpt lat="45.46563" lon="6.36785">
        <ele>2526</ele>
        <time>2022-08-09T11:35:03Z</time>
      </trkpt>
      <trkpt lat="45.46559" lon="6.36782">
        <ele>2528</ele>
        <time>2022-08-09T11:35:33Z</time>
      </trkpt>
      <trkpt lat="45.46553" lon="6.36783">
        <ele>2531</ele>
        <time>2022-08-09T11:36:03Z</time>
      </trkpt>
      <trkpt lat="45.46549" lon="6.36785">
        <ele>2531</ele>
        <time>2022-08-09T11:36:24Z</time>
      </trkpt>
      <trkpt lat="45.46545" lon="6.3679">
        <ele>2531</ele>
        <time>2022-08-09T11:36:35Z</time>
      </trkpt>
      <trkpt lat="45.46542" lon="6.36792">
        <ele>2533</ele>
        <time>2022-08-09T11:36:50Z</time>
      </trkpt>
      <trkpt lat="45.46531" lon="6.36795">
        <ele>2535</ele>
        <time>2022-08-09T11:37:30Z</time>
      </trkpt>
      <trkpt lat="45.46525" lon="6.36793">
        <ele>2535</ele>
        <time>2022-08-09T11:37:40Z</time>
      </trkpt>
      <trkpt lat="45.46516" lon="6.36793">
        <ele>2535</ele>
        <time>2022-08-09T11:38:05Z</time>
      </trkpt>
      <trkpt lat="45.46512" lon="6.36794">
        <ele>2533</ele>
        <time>2022-08-09T11:38:20Z</time>
      </trkpt>
      <trkpt lat="45.46509" lon="6.36801">
        <ele>2534</ele>
        <time>2022-08-09T11:38:32Z</time>
      </trkpt>
      <trkpt lat="45.46505" lon="6.368">
        <ele>2534</ele>
        <time>2022-08-09T11:43:58Z</time>
      </trkpt>
      <trkpt lat="45.465" lon="6.36801">
        <ele>2531</ele>
        <time>2022-08-09T11:44:56Z</time>
      </trkpt>
      <trkpt lat="45.46495" lon="6.368">
        <ele>2531</ele>
        <time>2022-08-09T11:45:06Z</time>
      </trkpt>
      <trkpt lat="45.46489" lon="6.36801">
        <ele>2531</ele>
        <time>2022-08-09T11:45:16Z</time>
      </trkpt>
      <trkpt lat="45.46485" lon="6.36798">
        <ele>2531</ele>
        <time>2022-08-09T11:45:31Z</time>
      </trkpt>
      <trkpt lat="45.4648" lon="6.36796">
        <ele>2531</ele>
        <time>2022-08-09T11:45:51Z</time>
      </trkpt>
      <trkpt lat="45.46473" lon="6.36796">
        <ele>2531</ele>
        <time>2022-08-09T11:46:06Z</time>
      </trkpt>
      <trkpt lat="45.46468" lon="6.36798">
        <ele>2532</ele>
        <time>2022-08-09T11:46:21Z</time>
      </trkpt>
      <trkpt lat="45.46463" lon="6.368">
        <ele>2532</ele>
        <time>2022-08-09T11:46:41Z</time>
      </trkpt>
      <trkpt lat="45.46465" lon="6.36806">
        <ele>2530</ele>
        <time>2022-08-09T11:47:02Z</time>
      </trkpt>
      <trkpt lat="45.46465" lon="6.36812">
        <ele>2527</ele>
        <time>2022-08-09T11:47:22Z</time>
      </trkpt>
      <trkpt lat="45.46467" lon="6.3682">
        <ele>2524</ele>
        <time>2022-08-09T11:48:17Z</time>
      </trkpt>
      <trkpt lat="45.46462" lon="6.36819">
        <ele>2522</ele>
        <time>2022-08-09T11:48:27Z</time>
      </trkpt>
      <trkpt lat="45.46456" lon="6.36823">
        <ele>2520</ele>
        <time>2022-08-09T11:49:10Z</time>
      </trkpt>
      <trkpt lat="45.46452" lon="6.36821">
        <ele>2520</ele>
        <time>2022-08-09T11:49:20Z</time>
      </trkpt>
      <trkpt lat="45.46441" lon="6.36813">
        <ele>2519</ele>
        <time>2022-08-09T11:49:53Z</time>
      </trkpt>
      <trkpt lat="45.46437" lon="6.36813">
        <ele>2520</ele>
        <time>2022-08-09T11:50:03Z</time>
      </trkpt>
      <trkpt lat="45.46431" lon="6.36811">
        <ele>2520</ele>
        <time>2022-08-09T11:50:10Z</time>
      </trkpt>
      <trkpt lat="45.46426" lon="6.36814">
        <ele>2520</ele>
        <time>2022-08-09T11:50:18Z</time>
      </trkpt>
      <trkpt lat="45.46422" lon="6.36813">
        <ele>2520</ele>
        <time>2022-08-09T11:50:23Z</time>
      </trkpt>
      <trkpt lat="45.46415" lon="6.36814">
        <ele>2520</ele>
        <time>2022-08-09T11:50:33Z</time>
      </trkpt>
      <trkpt lat="45.46412" lon="6.36818">
        <ele>2520</ele>
        <time>2022-08-09T11:50:43Z</time>
      </trkpt>
      <trkpt lat="45.46408" lon="6.36812">
        <ele>2520</ele>
        <time>2022-08-09T11:50:53Z</time>
      </trkpt>
      <trkpt lat="45.46404" lon="6.3681">
        <ele>2520</ele>
        <time>2022-08-09T11:50:57Z</time>
      </trkpt>
      <trkpt lat="45.46402" lon="6.36813">
        <ele>2521</ele>
        <time>2022-08-09T11:51:14Z</time>
      </trkpt>
      <trkpt lat="45.46395" lon="6.36811">
        <ele>2522</ele>
        <time>2022-08-09T11:51:26Z</time>
      </trkpt>
      <trkpt lat="45.4639" lon="6.3681">
        <ele>2523</ele>
        <time>2022-08-09T11:51:36Z</time>
      </trkpt>
      <trkpt lat="45.46385" lon="6.36805">
        <ele>2525</ele>
        <time>2022-08-09T11:51:56Z</time>
      </trkpt>
      <trkpt lat="45.4638" lon="6.36803">
        <ele>2526</ele>
        <time>2022-08-09T11:52:06Z</time>
      </trkpt>
      <trkpt lat="45.46375" lon="6.36801">
        <ele>2527</ele>
        <time>2022-08-09T11:52:18Z</time>
      </trkpt>
      <trkpt lat="45.46365" lon="6.36791">
        <ele>2532</ele>
        <time>2022-08-09T11:52:58Z</time>
      </trkpt>
      <trkpt lat="45.46357" lon="6.36785">
        <ele>2536</ele>
        <time>2022-08-09T11:53:35Z</time>
      </trkpt>
      <trkpt lat="45.46352" lon="6.36781">
        <ele>2538</ele>
        <time>2022-08-09T11:53:56Z</time>
      </trkpt>
      <trkpt lat="45.4635" lon="6.36775">
        <ele>2540</ele>
        <time>2022-08-09T11:54:11Z</time>
      </trkpt>
      <trkpt lat="45.46345" lon="6.36773">
        <ele>2541</ele>
        <time>2022-08-09T11:54:16Z</time>
      </trkpt>
      <trkpt lat="45.46347" lon="6.36763">
        <ele>2545</ele>
        <time>2022-08-09T11:54:51Z</time>
      </trkpt>
      <trkpt lat="45.46344" lon="6.36757">
        <ele>2548</ele>
        <time>2022-08-09T11:55:08Z</time>
      </trkpt>
      <trkpt lat="45.46337" lon="6.3675">
        <ele>2550</ele>
        <time>2022-08-09T11:55:26Z</time>
      </trkpt>
      <trkpt lat="45.46332" lon="6.3675">
        <ele>2552</ele>
        <time>2022-08-09T11:55:38Z</time>
      </trkpt>
      <trkpt lat="45.46326" lon="6.36746">
        <ele>2554</ele>
        <time>2022-08-09T11:55:58Z</time>
      </trkpt>
      <trkpt lat="45.46321" lon="6.36747">
        <ele>2555</ele>
        <time>2022-08-09T11:56:13Z</time>
      </trkpt>
      <trkpt lat="45.46316" lon="6.36744">
        <ele>2559</ele>
        <time>2022-08-09T11:56:58Z</time>
      </trkpt>
      <trkpt lat="45.46309" lon="6.36742">
        <ele>2562</ele>
        <time>2022-08-09T11:57:25Z</time>
      </trkpt>
      <trkpt lat="45.46305" lon="6.36751">
        <ele>2564</ele>
        <time>2022-08-09T11:57:47Z</time>
      </trkpt>
      <trkpt lat="45.46301" lon="6.36751">
        <ele>2567</ele>
        <time>2022-08-09T11:58:22Z</time>
      </trkpt>
      <trkpt lat="45.46292" lon="6.36747">
        <ele>2574</ele>
        <time>2022-08-09T11:59:19Z</time>
      </trkpt>
      <trkpt lat="45.46288" lon="6.3675">
        <ele>2576</ele>
        <time>2022-08-09T11:59:36Z</time>
      </trkpt>
      <trkpt lat="45.46284" lon="6.36753">
        <ele>2577</ele>
        <time>2022-08-09T11:59:52Z</time>
      </trkpt>
      <trkpt lat="45.46279" lon="6.36751">
        <ele>2581</ele>
        <time>2022-08-09T12:00:27Z</time>
      </trkpt>
      <trkpt lat="45.46276" lon="6.36756">
        <ele>2581</ele>
        <time>2022-08-09T12:00:52Z</time>
      </trkpt>
      <trkpt lat="45.46272" lon="6.36754">
        <ele>2584</ele>
        <time>2022-08-09T12:01:51Z</time>
      </trkpt>
      <trkpt lat="45.46266" lon="6.36753">
        <ele>2585</ele>
        <time>2022-08-09T12:02:11Z</time>
      </trkpt>
      <trkpt lat="45.46263" lon="6.3676">
        <ele>2587</ele>
        <time>2022-08-09T12:02:31Z</time>
      </trkpt>
      <trkpt lat="45.46262" lon="6.36761">
        <ele>2589</ele>
        <time>2022-08-09T12:03:48Z</time>
      </trkpt>
      <trkpt lat="45.46258" lon="6.36754">
        <ele>2590</ele>
        <time>2022-08-09T12:04:18Z</time>
      </trkpt>
      <trkpt lat="45.46255" lon="6.36749">
        <ele>2591</ele>
        <time>2022-08-09T12:04:53Z</time>
      </trkpt>
      <trkpt lat="45.46251" lon="6.36748">
        <ele>2593</ele>
        <time>2022-08-09T12:05:50Z</time>
      </trkpt>
      <trkpt lat="45.46247" lon="6.36745">
        <ele>2594</ele>
        <time>2022-08-09T12:06:11Z</time>
      </trkpt>
      <trkpt lat="45.46244" lon="6.3674">
        <ele>2596</ele>
        <time>2022-08-09T12:06:36Z</time>
      </trkpt>
      <trkpt lat="45.46234" lon="6.36733">
        <ele>2599</ele>
        <time>2022-08-09T12:07:48Z</time>
      </trkpt>
      <trkpt lat="45.4623" lon="6.3673">
        <ele>2600</ele>
        <time>2022-08-09T12:08:00Z</time>
      </trkpt>
      <trkpt lat="45.46226" lon="6.36725">
        <ele>2602</ele>
        <time>2022-08-09T12:08:16Z</time>
      </trkpt>
      <trkpt lat="45.46221" lon="6.36721">
        <ele>2604</ele>
        <time>2022-08-09T12:08:31Z</time>
      </trkpt>
      <trkpt lat="45.46217" lon="6.36719">
        <ele>2605</ele>
        <time>2022-08-09T12:08:46Z</time>
      </trkpt>
      <trkpt lat="45.46212" lon="6.36716">
        <ele>2607</ele>
        <time>2022-08-09T12:09:06Z</time>
      </trkpt>
      <trkpt lat="45.4621" lon="6.3671">
        <ele>2609</ele>
        <time>2022-08-09T12:09:26Z</time>
      </trkpt>
      <trkpt lat="45.46204" lon="6.3671">
        <ele>2611</ele>
        <time>2022-08-09T12:09:41Z</time>
      </trkpt>
      <trkpt lat="45.46201" lon="6.36706">
        <ele>2613</ele>
        <time>2022-08-09T12:09:58Z</time>
      </trkpt>
      <trkpt lat="45.46196" lon="6.36704">
        <ele>2614</ele>
        <time>2022-08-09T12:10:10Z</time>
      </trkpt>
      <trkpt lat="45.46198" lon="6.36698">
        <ele>2616</ele>
        <time>2022-08-09T12:11:25Z</time>
      </trkpt>
      <trkpt lat="45.46204" lon="6.36699">
        <ele>2617</ele>
        <time>2022-08-09T12:12:47Z</time>
      </trkpt>
      <trkpt lat="45.46204" lon="6.36707">
        <ele>2616</ele>
        <time>2022-08-09T12:15:05Z</time>
      </trkpt>
      <trkpt lat="45.46207" lon="6.36713">
        <ele>2614</ele>
        <time>2022-08-09T12:15:35Z</time>
      </trkpt>
      <trkpt lat="45.46211" lon="6.36717">
        <ele>2612</ele>
        <time>2022-08-09T12:15:50Z</time>
      </trkpt>
      <trkpt lat="45.46209" lon="6.36723">
        <ele>2612</ele>
        <time>2022-08-09T12:16:00Z</time>
      </trkpt>
      <trkpt lat="45.46214" lon="6.36729">
        <ele>2610</ele>
        <time>2022-08-09T12:16:11Z</time>
      </trkpt>
      <trkpt lat="45.46219" lon="6.36732">
        <ele>2607</ele>
        <time>2022-08-09T12:16:22Z</time>
      </trkpt>
      <trkpt lat="45.46222" lon="6.36735">
        <ele>2605</ele>
        <time>2022-08-09T12:16:38Z</time>
      </trkpt>
      <trkpt lat="45.46223" lon="6.36742">
        <ele>2604</ele>
        <time>2022-08-09T12:16:48Z</time>
      </trkpt>
      <trkpt lat="45.46221" lon="6.3675">
        <ele>2603</ele>
        <time>2022-08-09T12:16:58Z</time>
      </trkpt>
      <trkpt lat="45.46226" lon="6.36765">
        <ele>2600</ele>
        <time>2022-08-09T12:17:18Z</time>
      </trkpt>
      <trkpt lat="45.46231" lon="6.3677">
        <ele>2599</ele>
        <time>2022-08-09T12:17:28Z</time>
      </trkpt>
      <trkpt lat="45.46235" lon="6.3677">
        <ele>2597</ele>
        <time>2022-08-09T12:17:43Z</time>
      </trkpt>
      <trkpt lat="45.46239" lon="6.36769">
        <ele>2595</ele>
        <time>2022-08-09T12:18:19Z</time>
      </trkpt>
      <trkpt lat="45.46245" lon="6.36767">
        <ele>2594</ele>
        <time>2022-08-09T12:18:41Z</time>
      </trkpt>
      <trkpt lat="45.46249" lon="6.36764">
        <ele>2594</ele>
        <time>2022-08-09T12:19:01Z</time>
      </trkpt>
      <trkpt lat="45.46254" lon="6.36764">
        <ele>2592</ele>
        <time>2022-08-09T12:19:16Z</time>
      </trkpt>
      <trkpt lat="45.46259" lon="6.36768">
        <ele>2591</ele>
        <time>2022-08-09T12:19:36Z</time>
      </trkpt>
      <trkpt lat="45.46264" lon="6.36763">
        <ele>2589</ele>
        <time>2022-08-09T12:20:01Z</time>
      </trkpt>
      <trkpt lat="45.46269" lon="6.36762">
        <ele>2586</ele>
        <time>2022-08-09T12:20:45Z</time>
      </trkpt>
      <trkpt lat="45.46273" lon="6.36759">
        <ele>2585</ele>
        <time>2022-08-09T12:21:35Z</time>
      </trkpt>
      <trkpt lat="45.46275" lon="6.36751">
        <ele>2586</ele>
        <time>2022-08-09T12:22:05Z</time>
      </trkpt>
      <trkpt lat="45.46279" lon="6.36747">
        <ele>2586</ele>
        <time>2022-08-09T12:22:43Z</time>
      </trkpt>
      <trkpt lat="45.46283" lon="6.3675">
        <ele>2584</ele>
        <time>2022-08-09T12:23:28Z</time>
      </trkpt>
      <trkpt lat="45.46285" lon="6.36756">
        <ele>2581</ele>
        <time>2022-08-09T12:25:32Z</time>
      </trkpt>
      <trkpt lat="45.46288" lon="6.36751">
        <ele>2579</ele>
        <time>2022-08-09T12:26:17Z</time>
      </trkpt>
      <trkpt lat="45.46292" lon="6.36755">
        <ele>2576</ele>
        <time>2022-08-09T12:27:05Z</time>
      </trkpt>
      <trkpt lat="45.46291" lon="6.36761">
        <ele>2574</ele>
        <time>2022-08-09T12:27:40Z</time>
      </trkpt>
      <trkpt lat="45.46295" lon="6.36759">
        <ele>2573</ele>
        <time>2022-08-09T12:28:10Z</time>
      </trkpt>
      <trkpt lat="45.46294" lon="6.36766">
        <ele>2570</ele>
        <time>2022-08-09T12:28:52Z</time>
      </trkpt>
      <trkpt lat="45.46293" lon="6.36773">
        <ele>2569</ele>
        <time>2022-08-09T12:29:14Z</time>
      </trkpt>
      <trkpt lat="45.46298" lon="6.36774">
        <ele>2566</ele>
        <time>2022-08-09T12:29:59Z</time>
      </trkpt>
      <trkpt lat="45.46303" lon="6.36773">
        <ele>2565</ele>
        <time>2022-08-09T12:30:19Z</time>
      </trkpt>
      <trkpt lat="45.46306" lon="6.36768">
        <ele>2563</ele>
        <time>2022-08-09T12:30:34Z</time>
      </trkpt>
      <trkpt lat="45.46311" lon="6.36769">
        <ele>2562</ele>
        <time>2022-08-09T12:31:41Z</time>
      </trkpt>
      <trkpt lat="45.46313" lon="6.36763">
        <ele>2561</ele>
        <time>2022-08-09T12:33:02Z</time>
      </trkpt>
      <trkpt lat="45.46317" lon="6.36765">
        <ele>2560</ele>
        <time>2022-08-09T12:33:57Z</time>
      </trkpt>
      <trkpt lat="45.46324" lon="6.36756">
        <ele>2558</ele>
        <time>2022-08-09T12:34:37Z</time>
      </trkpt>
      <trkpt lat="45.46328" lon="6.36754">
        <ele>2557</ele>
        <time>2022-08-09T12:35:02Z</time>
      </trkpt>
      <trkpt lat="45.46332" lon="6.36754">
        <ele>2556</ele>
        <time>2022-08-09T12:35:13Z</time>
      </trkpt>
      <trkpt lat="45.46334" lon="6.3676">
        <ele>2556</ele>
        <time>2022-08-09T12:35:17Z</time>
      </trkpt>
      <trkpt lat="45.46339" lon="6.36764">
        <ele>2553</ele>
        <time>2022-08-09T12:35:24Z</time>
      </trkpt>
      <trkpt lat="45.46344" lon="6.3677">
        <ele>2549</ele>
        <time>2022-08-09T12:35:36Z</time>
      </trkpt>
      <trkpt lat="45.46347" lon="6.36776">
        <ele>2546</ele>
        <time>2022-08-09T12:36:06Z</time>
      </trkpt>
      <trkpt lat="45.4635" lon="6.36783">
        <ele>2544</ele>
        <time>2022-08-09T12:36:16Z</time>
      </trkpt>
      <trkpt lat="45.46355" lon="6.36789">
        <ele>2541</ele>
        <time>2022-08-09T12:36:26Z</time>
      </trkpt>
      <trkpt lat="45.46359" lon="6.36791">
        <ele>2538</ele>
        <time>2022-08-09T12:36:46Z</time>
      </trkpt>
      <trkpt lat="45.46375" lon="6.36804">
        <ele>2532</ele>
        <time>2022-08-09T12:37:18Z</time>
      </trkpt>
      <trkpt lat="45.46386" lon="6.36814">
        <ele>2528</ele>
        <time>2022-08-09T12:37:36Z</time>
      </trkpt>
      <trkpt lat="45.46392" lon="6.36819">
        <ele>2526</ele>
        <time>2022-08-09T12:37:46Z</time>
      </trkpt>
      <trkpt lat="45.46397" lon="6.36821">
        <ele>2526</ele>
        <time>2022-08-09T12:37:51Z</time>
      </trkpt>
      <trkpt lat="45.46411" lon="6.36832">
        <ele>2522</ele>
        <time>2022-08-09T12:38:10Z</time>
      </trkpt>
      <trkpt lat="45.46418" lon="6.36833">
        <ele>2521</ele>
        <time>2022-08-09T12:38:18Z</time>
      </trkpt>
      <trkpt lat="45.46424" lon="6.3684">
        <ele>2520</ele>
        <time>2022-08-09T12:38:28Z</time>
      </trkpt>
      <trkpt lat="45.46434" lon="6.36851">
        <ele>2518</ele>
        <time>2022-08-09T12:38:48Z</time>
      </trkpt>
      <trkpt lat="45.46437" lon="6.36857">
        <ele>2516</ele>
        <time>2022-08-09T12:38:58Z</time>
      </trkpt>
      <trkpt lat="45.46444" lon="6.3687">
        <ele>2514</ele>
        <time>2022-08-09T12:39:24Z</time>
      </trkpt>
      <trkpt lat="45.46445" lon="6.36877">
        <ele>2515</ele>
        <time>2022-08-09T12:39:55Z</time>
      </trkpt>
      <trkpt lat="45.4645" lon="6.3688">
        <ele>2515</ele>
        <time>2022-08-09T12:40:05Z</time>
      </trkpt>
      <trkpt lat="45.46451" lon="6.36895">
        <ele>2507</ele>
        <time>2022-08-09T12:41:00Z</time>
      </trkpt>
      <trkpt lat="45.46451" lon="6.36902">
        <ele>2506</ele>
        <time>2022-08-09T12:41:20Z</time>
      </trkpt>
      <trkpt lat="45.46451" lon="6.3691">
        <ele>2503</ele>
        <time>2022-08-09T12:41:38Z</time>
      </trkpt>
      <trkpt lat="45.46455" lon="6.36916">
        <ele>2500</ele>
        <time>2022-08-09T12:42:18Z</time>
      </trkpt>
      <trkpt lat="45.46454" lon="6.36923">
        <ele>2494</ele>
        <time>2022-08-09T12:43:03Z</time>
      </trkpt>
      <trkpt lat="45.46456" lon="6.36932">
        <ele>2490</ele>
        <time>2022-08-09T12:43:23Z</time>
      </trkpt>
      <trkpt lat="45.46461" lon="6.36936">
        <ele>2487</ele>
        <time>2022-08-09T12:43:44Z</time>
      </trkpt>
      <trkpt lat="45.46461" lon="6.36942">
        <ele>2483</ele>
        <time>2022-08-09T12:44:09Z</time>
      </trkpt>
      <trkpt lat="45.46464" lon="6.36948">
        <ele>2480</ele>
        <time>2022-08-09T12:44:34Z</time>
      </trkpt>
      <trkpt lat="45.46466" lon="6.36954">
        <ele>2477</ele>
        <time>2022-08-09T12:45:14Z</time>
      </trkpt>
      <trkpt lat="45.46472" lon="6.36955">
        <ele>2474</ele>
        <time>2022-08-09T12:45:46Z</time>
      </trkpt>
      <trkpt lat="45.46476" lon="6.36961">
        <ele>2470</ele>
        <time>2022-08-09T12:46:07Z</time>
      </trkpt>
      <trkpt lat="45.46478" lon="6.36969">
        <ele>2466</ele>
        <time>2022-08-09T12:46:27Z</time>
      </trkpt>
      <trkpt lat="45.4648" lon="6.36975">
        <ele>2462</ele>
        <time>2022-08-09T12:46:52Z</time>
      </trkpt>
      <trkpt lat="45.46477" lon="6.36981">
        <ele>2460</ele>
        <time>2022-08-09T12:47:07Z</time>
      </trkpt>
      <trkpt lat="45.46481" lon="6.36985">
        <ele>2458</ele>
        <time>2022-08-09T12:47:32Z</time>
      </trkpt>
      <trkpt lat="45.46481" lon="6.36993">
        <ele>2454</ele>
        <time>2022-08-09T12:47:48Z</time>
      </trkpt>
      <trkpt lat="45.46485" lon="6.36997">
        <ele>2452</ele>
        <time>2022-08-09T12:48:04Z</time>
      </trkpt>
      <trkpt lat="45.46483" lon="6.37005">
        <ele>2448</ele>
        <time>2022-08-09T12:48:24Z</time>
      </trkpt>
      <trkpt lat="45.46486" lon="6.37011">
        <ele>2446</ele>
        <time>2022-08-09T12:48:34Z</time>
      </trkpt>
      <trkpt lat="45.46487" lon="6.37018">
        <ele>2443</ele>
        <time>2022-08-09T12:48:54Z</time>
      </trkpt>
      <trkpt lat="45.46488" lon="6.37025">
        <ele>2440</ele>
        <time>2022-08-09T12:49:14Z</time>
      </trkpt>
      <trkpt lat="45.46485" lon="6.3704">
        <ele>2435</ele>
        <time>2022-08-09T12:49:39Z</time>
      </trkpt>
      <trkpt lat="45.46487" lon="6.37048">
        <ele>2432</ele>
        <time>2022-08-09T12:49:50Z</time>
      </trkpt>
      <trkpt lat="45.46486" lon="6.37057">
        <ele>2427</ele>
        <time>2022-08-09T12:50:17Z</time>
      </trkpt>
      <trkpt lat="45.4649" lon="6.37063">
        <ele>2424</ele>
        <time>2022-08-09T12:50:32Z</time>
      </trkpt>
      <trkpt lat="45.46488" lon="6.37069">
        <ele>2422</ele>
        <time>2022-08-09T12:50:42Z</time>
      </trkpt>
      <trkpt lat="45.4649" lon="6.37084">
        <ele>2416</ele>
        <time>2022-08-09T12:51:07Z</time>
      </trkpt>
      <trkpt lat="45.46491" lon="6.3709">
        <ele>2414</ele>
        <time>2022-08-09T12:51:22Z</time>
      </trkpt>
      <trkpt lat="45.46491" lon="6.37097">
        <ele>2411</ele>
        <time>2022-08-09T12:51:37Z</time>
      </trkpt>
      <trkpt lat="45.46494" lon="6.37102">
        <ele>2409</ele>
        <time>2022-08-09T12:52:15Z</time>
      </trkpt>
      <trkpt lat="45.46495" lon="6.37116">
        <ele>2403</ele>
        <time>2022-08-09T12:52:45Z</time>
      </trkpt>
      <trkpt lat="45.46497" lon="6.37133">
        <ele>2397</ele>
        <time>2022-08-09T12:53:15Z</time>
      </trkpt>
      <trkpt lat="45.46499" lon="6.37142">
        <ele>2394</ele>
        <time>2022-08-09T12:53:30Z</time>
      </trkpt>
      <trkpt lat="45.465" lon="6.37149">
        <ele>2391</ele>
        <time>2022-08-09T12:53:45Z</time>
      </trkpt>
      <trkpt lat="45.46499" lon="6.37167">
        <ele>2385</ele>
        <time>2022-08-09T12:54:16Z</time>
      </trkpt>
      <trkpt lat="45.465" lon="6.37174">
        <ele>2382</ele>
        <time>2022-08-09T12:54:31Z</time>
      </trkpt>
      <trkpt lat="45.46501" lon="6.37189">
        <ele>2376</ele>
        <time>2022-08-09T12:55:11Z</time>
      </trkpt>
      <trkpt lat="45.46502" lon="6.37195">
        <ele>2373</ele>
        <time>2022-08-09T12:55:36Z</time>
      </trkpt>
      <trkpt lat="45.46497" lon="6.37193">
        <ele>2372</ele>
        <time>2022-08-09T12:58:33Z</time>
      </trkpt>
      <trkpt lat="45.46492" lon="6.37195">
        <ele>2371</ele>
        <time>2022-08-09T12:58:53Z</time>
      </trkpt>
      <trkpt lat="45.46489" lon="6.37199">
        <ele>2369</ele>
        <time>2022-08-09T12:59:08Z</time>
      </trkpt>
      <trkpt lat="45.46486" lon="6.37203">
        <ele>2368</ele>
        <time>2022-08-09T12:59:18Z</time>
      </trkpt>
      <trkpt lat="45.46487" lon="6.3721">
        <ele>2367</ele>
        <time>2022-08-09T12:59:43Z</time>
      </trkpt>
      <trkpt lat="45.46488" lon="6.37224">
        <ele>2362</ele>
        <time>2022-08-09T13:00:19Z</time>
      </trkpt>
      <trkpt lat="45.46487" lon="6.37231">
        <ele>2360</ele>
        <time>2022-08-09T13:00:40Z</time>
      </trkpt>
      <trkpt lat="45.46496" lon="6.37239">
        <ele>2358</ele>
        <time>2022-08-09T13:01:00Z</time>
      </trkpt>
      <trkpt lat="45.46495" lon="6.37247">
        <ele>2356</ele>
        <time>2022-08-09T13:01:20Z</time>
      </trkpt>
      <trkpt lat="45.46497" lon="6.37252">
        <ele>2355</ele>
        <time>2022-08-09T13:01:55Z</time>
      </trkpt>
      <trkpt lat="45.46504" lon="6.37263">
        <ele>2354</ele>
        <time>2022-08-09T13:02:26Z</time>
      </trkpt>
      <trkpt lat="45.46508" lon="6.37271">
        <ele>2352</ele>
        <time>2022-08-09T13:02:38Z</time>
      </trkpt>
      <trkpt lat="45.46518" lon="6.3728">
        <ele>2348</ele>
        <time>2022-08-09T13:03:08Z</time>
      </trkpt>
      <trkpt lat="45.46522" lon="6.37283">
        <ele>2345</ele>
        <time>2022-08-09T13:03:28Z</time>
      </trkpt>
      <trkpt lat="45.46526" lon="6.37287">
        <ele>2343</ele>
        <time>2022-08-09T13:03:53Z</time>
      </trkpt>
      <trkpt lat="45.46529" lon="6.37292">
        <ele>2340</ele>
        <time>2022-08-09T13:04:18Z</time>
      </trkpt>
      <trkpt lat="45.46531" lon="6.37299">
        <ele>2338</ele>
        <time>2022-08-09T13:04:34Z</time>
      </trkpt>
      <trkpt lat="45.46534" lon="6.37305">
        <ele>2338</ele>
        <time>2022-08-09T13:04:46Z</time>
      </trkpt>
      <trkpt lat="45.46534" lon="6.37322">
        <ele>2337</ele>
        <time>2022-08-09T13:05:11Z</time>
      </trkpt>
      <trkpt lat="45.46534" lon="6.37336">
        <ele>2337</ele>
        <time>2022-08-09T13:05:41Z</time>
      </trkpt>
      <trkpt lat="45.46534" lon="6.37342">
        <ele>2336</ele>
        <time>2022-08-09T13:05:51Z</time>
      </trkpt>
      <trkpt lat="45.46531" lon="6.37355">
        <ele>2334</ele>
        <time>2022-08-09T13:06:11Z</time>
      </trkpt>
      <trkpt lat="45.46528" lon="6.37368">
        <ele>2329</ele>
        <time>2022-08-09T13:06:31Z</time>
      </trkpt>
      <trkpt lat="45.4652" lon="6.37381">
        <ele>2322</ele>
        <time>2022-08-09T13:07:03Z</time>
      </trkpt>
      <trkpt lat="45.46511" lon="6.37396">
        <ele>2318</ele>
        <time>2022-08-09T13:07:23Z</time>
      </trkpt>
      <trkpt lat="45.46508" lon="6.37407">
        <ele>2318</ele>
        <time>2022-08-09T13:07:33Z</time>
      </trkpt>
      <trkpt lat="45.46508" lon="6.37413">
        <ele>2317</ele>
        <time>2022-08-09T13:07:48Z</time>
      </trkpt>
      <trkpt lat="45.4651" lon="6.3742">
        <ele>2316</ele>
        <time>2022-08-09T13:08:08Z</time>
      </trkpt>
      <trkpt lat="45.4651" lon="6.37427">
        <ele>2315</ele>
        <time>2022-08-09T13:08:18Z</time>
      </trkpt>
      <trkpt lat="45.46511" lon="6.37433">
        <ele>2315</ele>
        <time>2022-08-09T13:08:28Z</time>
      </trkpt>
      <trkpt lat="45.46512" lon="6.37441">
        <ele>2315</ele>
        <time>2022-08-09T13:08:38Z</time>
      </trkpt>
      <trkpt lat="45.46512" lon="6.37451">
        <ele>2315</ele>
        <time>2022-08-09T13:08:56Z</time>
      </trkpt>
      <trkpt lat="45.46513" lon="6.37457">
        <ele>2314</ele>
        <time>2022-08-09T13:09:16Z</time>
      </trkpt>
      <trkpt lat="45.46509" lon="6.37462">
        <ele>2310</ele>
        <time>2022-08-09T13:09:36Z</time>
      </trkpt>
      <trkpt lat="45.46506" lon="6.37467">
        <ele>2307</ele>
        <time>2022-08-09T13:09:51Z</time>
      </trkpt>
      <trkpt lat="45.46502" lon="6.37471">
        <ele>2304</ele>
        <time>2022-08-09T13:10:06Z</time>
      </trkpt>
      <trkpt lat="45.46497" lon="6.37477">
        <ele>2301</ele>
        <time>2022-08-09T13:10:26Z</time>
      </trkpt>
      <trkpt lat="45.46494" lon="6.37484">
        <ele>2298</ele>
        <time>2022-08-09T13:10:41Z</time>
      </trkpt>
      <trkpt lat="45.46485" lon="6.37492">
        <ele>2292</ele>
        <time>2022-08-09T13:11:09Z</time>
      </trkpt>
      <trkpt lat="45.46486" lon="6.37499">
        <ele>2290</ele>
        <time>2022-08-09T13:11:19Z</time>
      </trkpt>
      <trkpt lat="45.46481" lon="6.375">
        <ele>2288</ele>
        <time>2022-08-09T13:11:29Z</time>
      </trkpt>
      <trkpt lat="45.4648" lon="6.37507">
        <ele>2286</ele>
        <time>2022-08-09T13:11:39Z</time>
      </trkpt>
      <trkpt lat="45.46483" lon="6.37512">
        <ele>2284</ele>
        <time>2022-08-09T13:11:49Z</time>
      </trkpt>
      <trkpt lat="45.46486" lon="6.37518">
        <ele>2282</ele>
        <time>2022-08-09T13:11:59Z</time>
      </trkpt>
      <trkpt lat="45.46487" lon="6.37525">
        <ele>2280</ele>
        <time>2022-08-09T13:12:09Z</time>
      </trkpt>
      <trkpt lat="45.46489" lon="6.37542">
        <ele>2278</ele>
        <time>2022-08-09T13:12:39Z</time>
      </trkpt>
      <trkpt lat="45.46494" lon="6.37554">
        <ele>2275</ele>
        <time>2022-08-09T13:13:00Z</time>
      </trkpt>
      <trkpt lat="45.46497" lon="6.37559">
        <ele>2274</ele>
        <time>2022-08-09T13:13:12Z</time>
      </trkpt>
      <trkpt lat="45.46498" lon="6.37566">
        <ele>2274</ele>
        <time>2022-08-09T13:13:22Z</time>
      </trkpt>
      <trkpt lat="45.46498" lon="6.37573">
        <ele>2273</ele>
        <time>2022-08-09T13:13:32Z</time>
      </trkpt>
      <trkpt lat="45.46501" lon="6.37578">
        <ele>2272</ele>
        <time>2022-08-09T13:13:42Z</time>
      </trkpt>
      <trkpt lat="45.46509" lon="6.37587">
        <ele>2267</ele>
        <time>2022-08-09T13:14:17Z</time>
      </trkpt>
      <trkpt lat="45.46514" lon="6.37589">
        <ele>2265</ele>
        <time>2022-08-09T13:14:37Z</time>
      </trkpt>
      <trkpt lat="45.46525" lon="6.3759">
        <ele>2264</ele>
        <time>2022-08-09T13:14:58Z</time>
      </trkpt>
      <trkpt lat="45.46528" lon="6.37596">
        <ele>2262</ele>
        <time>2022-08-09T13:15:10Z</time>
      </trkpt>
      <trkpt lat="45.46541" lon="6.37608">
        <ele>2257</ele>
        <time>2022-08-09T13:15:41Z</time>
      </trkpt>
      <trkpt lat="45.46547" lon="6.37622">
        <ele>2253</ele>
        <time>2022-08-09T13:16:01Z</time>
      </trkpt>
      <trkpt lat="45.46544" lon="6.37627">
        <ele>2249</ele>
        <time>2022-08-09T13:17:28Z</time>
      </trkpt>
      <trkpt lat="45.46542" lon="6.37635">
        <ele>2246</ele>
        <time>2022-08-09T13:17:43Z</time>
      </trkpt>
      <trkpt lat="45.46545" lon="6.37642">
        <ele>2244</ele>
        <time>2022-08-09T13:17:53Z</time>
      </trkpt>
      <trkpt lat="45.4654" lon="6.37643">
        <ele>2242</ele>
        <time>2022-08-09T13:18:03Z</time>
      </trkpt>
      <trkpt lat="45.46544" lon="6.37653">
        <ele>2240</ele>
        <time>2022-08-09T13:18:13Z</time>
      </trkpt>
      <trkpt lat="45.46545" lon="6.3766">
        <ele>2238</ele>
        <time>2022-08-09T13:18:20Z</time>
      </trkpt>
      <trkpt lat="45.46553" lon="6.37682">
        <ele>2233</ele>
        <time>2022-08-09T13:18:44Z</time>
      </trkpt>
      <trkpt lat="45.46561" lon="6.37687">
        <ele>2232</ele>
        <time>2022-08-09T13:18:53Z</time>
      </trkpt>
      <trkpt lat="45.46566" lon="6.37691">
        <ele>2232</ele>
        <time>2022-08-09T13:18:57Z</time>
      </trkpt>
      <trkpt lat="45.46566" lon="6.37697">
        <ele>2231</ele>
        <time>2022-08-09T13:19:02Z</time>
      </trkpt>
      <trkpt lat="45.4656" lon="6.37698">
        <ele>2229</ele>
        <time>2022-08-09T13:19:14Z</time>
      </trkpt>
      <trkpt lat="45.46539" lon="6.37691">
        <ele>2225</ele>
        <time>2022-08-09T13:19:37Z</time>
      </trkpt>
      <trkpt lat="45.46526" lon="6.37679">
        <ele>2223</ele>
        <time>2022-08-09T13:19:53Z</time>
      </trkpt>
      <trkpt lat="45.46521" lon="6.37675">
        <ele>2224</ele>
        <time>2022-08-09T13:20:02Z</time>
      </trkpt>
      <trkpt lat="45.46517" lon="6.37673">
        <ele>2224</ele>
        <time>2022-08-09T13:20:07Z</time>
      </trkpt>
      <trkpt lat="45.46511" lon="6.37675">
        <ele>2223</ele>
        <time>2022-08-09T13:20:13Z</time>
      </trkpt>
      <trkpt lat="45.4649" lon="6.3768">
        <ele>2222</ele>
        <time>2022-08-09T13:20:33Z</time>
      </trkpt>
      <trkpt lat="45.46486" lon="6.37683">
        <ele>2222</ele>
        <time>2022-08-09T13:20:38Z</time>
      </trkpt>
      <trkpt lat="45.46481" lon="6.37685">
        <ele>2222</ele>
        <time>2022-08-09T13:20:43Z</time>
      </trkpt>
      <trkpt lat="45.46476" lon="6.37686">
        <ele>2222</ele>
        <time>2022-08-09T13:20:48Z</time>
      </trkpt>
      <trkpt lat="45.46471" lon="6.37688">
        <ele>2221</ele>
        <time>2022-08-09T13:20:53Z</time>
      </trkpt>
      <trkpt lat="45.46466" lon="6.3769">
        <ele>2220</ele>
        <time>2022-08-09T13:21:00Z</time>
      </trkpt>
      <trkpt lat="45.46462" lon="6.37696">
        <ele>2219</ele>
        <time>2022-08-09T13:21:10Z</time>
      </trkpt>
      <trkpt lat="45.46458" lon="6.37698">
        <ele>2217</ele>
        <time>2022-08-09T13:21:16Z</time>
      </trkpt>
      <trkpt lat="45.46454" lon="6.37703">
        <ele>2215</ele>
        <time>2022-08-09T13:21:26Z</time>
      </trkpt>
      <trkpt lat="45.46451" lon="6.37707">
        <ele>2213</ele>
        <time>2022-08-09T13:21:37Z</time>
      </trkpt>
      <trkpt lat="45.46446" lon="6.37713">
        <ele>2210</ele>
        <time>2022-08-09T13:21:47Z</time>
      </trkpt>
      <trkpt lat="45.46441" lon="6.37717">
        <ele>2207</ele>
        <time>2022-08-09T13:21:57Z</time>
      </trkpt>
      <trkpt lat="45.46438" lon="6.37724">
        <ele>2205</ele>
        <time>2022-08-09T13:22:07Z</time>
      </trkpt>
      <trkpt lat="45.46427" lon="6.37734">
        <ele>2200</ele>
        <time>2022-08-09T13:22:27Z</time>
      </trkpt>
      <trkpt lat="45.46426" lon="6.37743">
        <ele>2197</ele>
        <time>2022-08-09T13:22:42Z</time>
      </trkpt>
      <trkpt lat="45.46422" lon="6.37748">
        <ele>2195</ele>
        <time>2022-08-09T13:22:52Z</time>
      </trkpt>
      <trkpt lat="45.4642" lon="6.37753">
        <ele>2193</ele>
        <time>2022-08-09T13:23:02Z</time>
      </trkpt>
      <trkpt lat="45.4642" lon="6.3776">
        <ele>2191</ele>
        <time>2022-08-09T13:23:12Z</time>
      </trkpt>
      <trkpt lat="45.46416" lon="6.37762">
        <ele>2188</ele>
        <time>2022-08-09T13:23:23Z</time>
      </trkpt>
      <trkpt lat="45.46417" lon="6.37771">
        <ele>2185</ele>
        <time>2022-08-09T13:23:40Z</time>
      </trkpt>
      <trkpt lat="45.46418" lon="6.37777">
        <ele>2183</ele>
        <time>2022-08-09T13:23:50Z</time>
      </trkpt>
      <trkpt lat="45.46411" lon="6.3778">
        <ele>2180</ele>
        <time>2022-08-09T13:24:05Z</time>
      </trkpt>
      <trkpt lat="45.46405" lon="6.37778">
        <ele>2178</ele>
        <time>2022-08-09T13:24:15Z</time>
      </trkpt>
      <trkpt lat="45.46405" lon="6.37786">
        <ele>2174</ele>
        <time>2022-08-09T13:24:35Z</time>
      </trkpt>
      <trkpt lat="45.46409" lon="6.37792">
        <ele>2170</ele>
        <time>2022-08-09T13:24:50Z</time>
      </trkpt>
      <trkpt lat="45.4641" lon="6.37802">
        <ele>2167</ele>
        <time>2022-08-09T13:25:05Z</time>
      </trkpt>
      <trkpt lat="45.46414" lon="6.3781">
        <ele>2164</ele>
        <time>2022-08-09T13:25:15Z</time>
      </trkpt>
      <trkpt lat="45.46418" lon="6.37816">
        <ele>2162</ele>
        <time>2022-08-09T13:25:25Z</time>
      </trkpt>
      <trkpt lat="45.46422" lon="6.37821">
        <ele>2160</ele>
        <time>2022-08-09T13:25:36Z</time>
      </trkpt>
      <trkpt lat="45.4643" lon="6.3783">
        <ele>2155</ele>
        <time>2022-08-09T13:25:57Z</time>
      </trkpt>
      <trkpt lat="45.46425" lon="6.37834">
        <ele>2152</ele>
        <time>2022-08-09T13:26:17Z</time>
      </trkpt>
      <trkpt lat="45.46417" lon="6.37839">
        <ele>2150</ele>
        <time>2022-08-09T13:26:27Z</time>
      </trkpt>
      <trkpt lat="45.46411" lon="6.3784">
        <ele>2150</ele>
        <time>2022-08-09T13:26:36Z</time>
      </trkpt>
      <trkpt lat="45.4641" lon="6.37851">
        <ele>2148</ele>
        <time>2022-08-09T13:26:46Z</time>
      </trkpt>
      <trkpt lat="45.46406" lon="6.37855">
        <ele>2147</ele>
        <time>2022-08-09T13:26:56Z</time>
      </trkpt>
      <trkpt lat="45.46402" lon="6.37852">
        <ele>2145</ele>
        <time>2022-08-09T13:27:01Z</time>
      </trkpt>
      <trkpt lat="45.46397" lon="6.37849">
        <ele>2145</ele>
        <time>2022-08-09T13:27:08Z</time>
      </trkpt>
      <trkpt lat="45.46395" lon="6.37858">
        <ele>2143</ele>
        <time>2022-08-09T13:27:18Z</time>
      </trkpt>
      <trkpt lat="45.46396" lon="6.37864">
        <ele>2142</ele>
        <time>2022-08-09T13:27:23Z</time>
      </trkpt>
      <trkpt lat="45.46394" lon="6.37871">
        <ele>2141</ele>
        <time>2022-08-09T13:27:30Z</time>
      </trkpt>
      <trkpt lat="45.46396" lon="6.37877">
        <ele>2140</ele>
        <time>2022-08-09T13:27:36Z</time>
      </trkpt>
      <trkpt lat="45.46405" lon="6.37891">
        <ele>2134</ele>
        <time>2022-08-09T13:27:57Z</time>
      </trkpt>
      <trkpt lat="45.46409" lon="6.37897">
        <ele>2132</ele>
        <time>2022-08-09T13:28:07Z</time>
      </trkpt>
      <trkpt lat="45.46414" lon="6.37906">
        <ele>2129</ele>
        <time>2022-08-09T13:28:17Z</time>
      </trkpt>
      <trkpt lat="45.46417" lon="6.37914">
        <ele>2127</ele>
        <time>2022-08-09T13:28:27Z</time>
      </trkpt>
      <trkpt lat="45.4642" lon="6.37921">
        <ele>2126</ele>
        <time>2022-08-09T13:28:42Z</time>
      </trkpt>
      <trkpt lat="45.46422" lon="6.37927">
        <ele>2124</ele>
        <time>2022-08-09T13:28:52Z</time>
      </trkpt>
      <trkpt lat="45.46416" lon="6.37931">
        <ele>2122</ele>
        <time>2022-08-09T13:29:02Z</time>
      </trkpt>
      <trkpt lat="45.46414" lon="6.37936">
        <ele>2119</ele>
        <time>2022-08-09T13:29:12Z</time>
      </trkpt>
      <trkpt lat="45.46408" lon="6.3794">
        <ele>2117</ele>
        <time>2022-08-09T13:29:22Z</time>
      </trkpt>
      <trkpt lat="45.46405" lon="6.37943">
        <ele>2115</ele>
        <time>2022-08-09T13:29:43Z</time>
      </trkpt>
      <trkpt lat="45.46409" lon="6.37951">
        <ele>2112</ele>
        <time>2022-08-09T13:29:54Z</time>
      </trkpt>
      <trkpt lat="45.46415" lon="6.37955">
        <ele>2111</ele>
        <time>2022-08-09T13:30:04Z</time>
      </trkpt>
      <trkpt lat="45.46419" lon="6.37965">
        <ele>2109</ele>
        <time>2022-08-09T13:30:14Z</time>
      </trkpt>
      <trkpt lat="45.4642" lon="6.37971">
        <ele>2108</ele>
        <time>2022-08-09T13:30:21Z</time>
      </trkpt>
      <trkpt lat="45.4642" lon="6.37977">
        <ele>2105</ele>
        <time>2022-08-09T13:30:36Z</time>
      </trkpt>
      <trkpt lat="45.46419" lon="6.37982">
        <ele>2102</ele>
        <time>2022-08-09T13:30:51Z</time>
      </trkpt>
      <trkpt lat="45.4642" lon="6.37988">
        <ele>2100</ele>
        <time>2022-08-09T13:31:26Z</time>
      </trkpt>
      <trkpt lat="45.4642" lon="6.38006">
        <ele>2096</ele>
        <time>2022-08-09T13:31:52Z</time>
      </trkpt>
      <trkpt lat="45.46423" lon="6.38011">
        <ele>2094</ele>
        <time>2022-08-09T13:31:58Z</time>
      </trkpt>
      <trkpt lat="45.46423" lon="6.3802">
        <ele>2092</ele>
        <time>2022-08-09T13:32:09Z</time>
      </trkpt>
      <trkpt lat="45.46418" lon="6.38023">
        <ele>2090</ele>
        <time>2022-08-09T13:32:19Z</time>
      </trkpt>
      <trkpt lat="45.46417" lon="6.38031">
        <ele>2088</ele>
        <time>2022-08-09T13:32:29Z</time>
      </trkpt>
      <trkpt lat="45.4642" lon="6.3804">
        <ele>2087</ele>
        <time>2022-08-09T13:32:39Z</time>
      </trkpt>
      <trkpt lat="45.46421" lon="6.38048">
        <ele>2084</ele>
        <time>2022-08-09T13:32:49Z</time>
      </trkpt>
      <trkpt lat="45.46423" lon="6.38055">
        <ele>2080</ele>
        <time>2022-08-09T13:33:09Z</time>
      </trkpt>
      <trkpt lat="45.46427" lon="6.38063">
        <ele>2076</ele>
        <time>2022-08-09T13:33:29Z</time>
      </trkpt>
      <trkpt lat="45.46424" lon="6.38072">
        <ele>2075</ele>
        <time>2022-08-09T13:33:39Z</time>
      </trkpt>
      <trkpt lat="45.46425" lon="6.38078">
        <ele>2073</ele>
        <time>2022-08-09T13:33:49Z</time>
      </trkpt>
      <trkpt lat="45.46421" lon="6.38089">
        <ele>2070</ele>
        <time>2022-08-09T13:34:01Z</time>
      </trkpt>
      <trkpt lat="45.46416" lon="6.381">
        <ele>2069</ele>
        <time>2022-08-09T13:34:11Z</time>
      </trkpt>
      <trkpt lat="45.46411" lon="6.38103">
        <ele>2067</ele>
        <time>2022-08-09T13:34:23Z</time>
      </trkpt>
      <trkpt lat="45.46407" lon="6.38118">
        <ele>2063</ele>
        <time>2022-08-09T13:34:58Z</time>
      </trkpt>
      <trkpt lat="45.46405" lon="6.38128">
        <ele>2061</ele>
        <time>2022-08-09T13:35:08Z</time>
      </trkpt>
      <trkpt lat="45.46402" lon="6.38135">
        <ele>2059</ele>
        <time>2022-08-09T13:35:19Z</time>
      </trkpt>
      <trkpt lat="45.46404" lon="6.38155">
        <ele>2054</ele>
        <time>2022-08-09T13:35:44Z</time>
      </trkpt>
      <trkpt lat="45.46401" lon="6.3816">
        <ele>2052</ele>
        <time>2022-08-09T13:35:54Z</time>
      </trkpt>
      <trkpt lat="45.46397" lon="6.38165">
        <ele>2049</ele>
        <time>2022-08-09T13:36:06Z</time>
      </trkpt>
      <trkpt lat="45.4639" lon="6.38169">
        <ele>2047</ele>
        <time>2022-08-09T13:36:17Z</time>
      </trkpt>
      <trkpt lat="45.46392" lon="6.38179">
        <ele>2044</ele>
        <time>2022-08-09T13:36:28Z</time>
      </trkpt>
      <trkpt lat="45.46389" lon="6.38204">
        <ele>2038</ele>
        <time>2022-08-09T13:36:58Z</time>
      </trkpt>
      <trkpt lat="45.46386" lon="6.38211">
        <ele>2036</ele>
        <time>2022-08-09T13:37:08Z</time>
      </trkpt>
      <trkpt lat="45.46384" lon="6.38223">
        <ele>2034</ele>
        <time>2022-08-09T13:37:18Z</time>
      </trkpt>
      <trkpt lat="45.46382" lon="6.38228">
        <ele>2033</ele>
        <time>2022-08-09T13:37:25Z</time>
      </trkpt>
      <trkpt lat="45.46381" lon="6.38239">
        <ele>2031</ele>
        <time>2022-08-09T13:37:35Z</time>
      </trkpt>
      <trkpt lat="45.46383" lon="6.38246">
        <ele>2030</ele>
        <time>2022-08-09T13:37:40Z</time>
      </trkpt>
      <trkpt lat="45.46381" lon="6.38252">
        <ele>2029</ele>
        <time>2022-08-09T13:37:47Z</time>
      </trkpt>
      <trkpt lat="45.46379" lon="6.38267">
        <ele>2026</ele>
        <time>2022-08-09T13:38:03Z</time>
      </trkpt>
      <trkpt lat="45.46383" lon="6.38287">
        <ele>2022</ele>
        <time>2022-08-09T13:38:25Z</time>
      </trkpt>
      <trkpt lat="45.46383" lon="6.38295">
        <ele>2020</ele>
        <time>2022-08-09T13:38:35Z</time>
      </trkpt>
      <trkpt lat="45.46384" lon="6.38314">
        <ele>2016</ele>
        <time>2022-08-09T13:38:55Z</time>
      </trkpt>
      <trkpt lat="45.46383" lon="6.38324">
        <ele>2014</ele>
        <time>2022-08-09T13:39:05Z</time>
      </trkpt>
      <trkpt lat="45.4638" lon="6.38329">
        <ele>2013</ele>
        <time>2022-08-09T13:39:15Z</time>
      </trkpt>
      <trkpt lat="45.46377" lon="6.38342">
        <ele>2008</ele>
        <time>2022-08-09T13:40:16Z</time>
      </trkpt>
      <trkpt lat="45.46375" lon="6.38349">
        <ele>2005</ele>
        <time>2022-08-09T13:40:33Z</time>
      </trkpt>
      <trkpt lat="45.46375" lon="6.38358">
        <ele>2003</ele>
        <time>2022-08-09T13:40:48Z</time>
      </trkpt>
      <trkpt lat="45.46373" lon="6.38365">
        <ele>2000</ele>
        <time>2022-08-09T13:40:58Z</time>
      </trkpt>
      <trkpt lat="45.46376" lon="6.38371">
        <ele>1999</ele>
        <time>2022-08-09T13:41:08Z</time>
      </trkpt>
      <trkpt lat="45.46379" lon="6.38379">
        <ele>1999</ele>
        <time>2022-08-09T13:41:18Z</time>
      </trkpt>
      <trkpt lat="45.46381" lon="6.38386">
        <ele>1998</ele>
        <time>2022-08-09T13:41:28Z</time>
      </trkpt>
      <trkpt lat="45.46378" lon="6.38391">
        <ele>1994</ele>
        <time>2022-08-09T13:41:48Z</time>
      </trkpt>
      <trkpt lat="45.46376" lon="6.38399">
        <ele>1991</ele>
        <time>2022-08-09T13:42:03Z</time>
      </trkpt>
      <trkpt lat="45.46371" lon="6.384">
        <ele>1989</ele>
        <time>2022-08-09T13:42:19Z</time>
      </trkpt>
      <trkpt lat="45.46367" lon="6.38403">
        <ele>1986</ele>
        <time>2022-08-09T13:42:30Z</time>
      </trkpt>
      <trkpt lat="45.4636" lon="6.38415">
        <ele>1982</ele>
        <time>2022-08-09T13:42:50Z</time>
      </trkpt>
      <trkpt lat="45.46351" lon="6.3842">
        <ele>1978</ele>
        <time>2022-08-09T13:43:10Z</time>
      </trkpt>
      <trkpt lat="45.46349" lon="6.38427">
        <ele>1975</ele>
        <time>2022-08-09T13:43:20Z</time>
      </trkpt>
      <trkpt lat="45.46343" lon="6.38437">
        <ele>1972</ele>
        <time>2022-08-09T13:43:40Z</time>
      </trkpt>
      <trkpt lat="45.46341" lon="6.38446">
        <ele>1969</ele>
        <time>2022-08-09T13:43:55Z</time>
      </trkpt>
      <trkpt lat="45.46336" lon="6.3846">
        <ele>1965</ele>
        <time>2022-08-09T13:44:15Z</time>
      </trkpt>
      <trkpt lat="45.46334" lon="6.38477">
        <ele>1962</ele>
        <time>2022-08-09T13:44:32Z</time>
      </trkpt>
      <trkpt lat="45.46335" lon="6.38484">
        <ele>1962</ele>
        <time>2022-08-09T13:44:37Z</time>
      </trkpt>
      <trkpt lat="45.46334" lon="6.38506">
        <ele>1959</ele>
        <time>2022-08-09T13:44:55Z</time>
      </trkpt>
      <trkpt lat="45.46336" lon="6.38519">
        <ele>1957</ele>
        <time>2022-08-09T13:45:07Z</time>
      </trkpt>
      <trkpt lat="45.46336" lon="6.38525">
        <ele>1955</ele>
        <time>2022-08-09T13:45:17Z</time>
      </trkpt>
      <trkpt lat="45.46332" lon="6.38533">
        <ele>1953</ele>
        <time>2022-08-09T13:45:37Z</time>
      </trkpt>
      <trkpt lat="45.46311" lon="6.38548">
        <ele>1946</ele>
        <time>2022-08-09T13:46:09Z</time>
      </trkpt>
      <trkpt lat="45.46304" lon="6.3855">
        <ele>1944</ele>
        <time>2022-08-09T13:46:19Z</time>
      </trkpt>
      <trkpt lat="45.463" lon="6.38559">
        <ele>1942</ele>
        <time>2022-08-09T13:46:30Z</time>
      </trkpt>
      <trkpt lat="45.463" lon="6.38569">
        <ele>1940</ele>
        <time>2022-08-09T13:46:41Z</time>
      </trkpt>
      <trkpt lat="45.46295" lon="6.38586">
        <ele>1937</ele>
        <time>2022-08-09T13:46:58Z</time>
      </trkpt>
      <trkpt lat="45.46292" lon="6.38597">
        <ele>1936</ele>
        <time>2022-08-09T13:47:08Z</time>
      </trkpt>
      <trkpt lat="45.46286" lon="6.38605">
        <ele>1934</ele>
        <time>2022-08-09T13:47:19Z</time>
      </trkpt>
      <trkpt lat="45.46279" lon="6.38622">
        <ele>1930</ele>
        <time>2022-08-09T13:47:39Z</time>
      </trkpt>
      <trkpt lat="45.46279" lon="6.38629">
        <ele>1930</ele>
        <time>2022-08-09T13:47:44Z</time>
      </trkpt>
      <trkpt lat="45.46276" lon="6.38637">
        <ele>1928</ele>
        <time>2022-08-09T13:47:54Z</time>
      </trkpt>
      <trkpt lat="45.46275" lon="6.38645">
        <ele>1926</ele>
        <time>2022-08-09T13:48:04Z</time>
      </trkpt>
      <trkpt lat="45.46272" lon="6.38653">
        <ele>1925</ele>
        <time>2022-08-09T13:48:14Z</time>
      </trkpt>
      <trkpt lat="45.46271" lon="6.38662">
        <ele>1923</ele>
        <time>2022-08-09T13:48:24Z</time>
      </trkpt>
      <trkpt lat="45.46268" lon="6.38669">
        <ele>1921</ele>
        <time>2022-08-09T13:48:35Z</time>
      </trkpt>
      <trkpt lat="45.46263" lon="6.38687">
        <ele>1917</ele>
        <time>2022-08-09T13:48:57Z</time>
      </trkpt>
      <trkpt lat="45.46258" lon="6.38695">
        <ele>1914</ele>
        <time>2022-08-09T13:49:07Z</time>
      </trkpt>
      <trkpt lat="45.4626" lon="6.38706">
        <ele>1913</ele>
        <time>2022-08-09T13:49:18Z</time>
      </trkpt>
      <trkpt lat="45.46259" lon="6.38713">
        <ele>1912</ele>
        <time>2022-08-09T13:49:25Z</time>
      </trkpt>
      <trkpt lat="45.4626" lon="6.38719">
        <ele>1911</ele>
        <time>2022-08-09T13:49:35Z</time>
      </trkpt>
      <trkpt lat="45.46259" lon="6.38728">
        <ele>1909</ele>
        <time>2022-08-09T13:50:25Z</time>
      </trkpt>
      <trkpt lat="45.46262" lon="6.38742">
        <ele>1906</ele>
        <time>2022-08-09T13:50:46Z</time>
      </trkpt>
      <trkpt lat="45.46261" lon="6.38753">
        <ele>1903</ele>
        <time>2022-08-09T13:50:58Z</time>
      </trkpt>
      <trkpt lat="45.46261" lon="6.38764">
        <ele>1902</ele>
        <time>2022-08-09T13:51:08Z</time>
      </trkpt>
      <trkpt lat="45.46265" lon="6.38772">
        <ele>1900</ele>
        <time>2022-08-09T13:51:19Z</time>
      </trkpt>
      <trkpt lat="45.46267" lon="6.38786">
        <ele>1896</ele>
        <time>2022-08-09T13:51:35Z</time>
      </trkpt>
      <trkpt lat="45.46267" lon="6.38802">
        <ele>1894</ele>
        <time>2022-08-09T13:51:48Z</time>
      </trkpt>
      <trkpt lat="45.4626" lon="6.38818">
        <ele>1891</ele>
        <time>2022-08-09T13:52:05Z</time>
      </trkpt>
      <trkpt lat="45.46258" lon="6.38829">
        <ele>1891</ele>
        <time>2022-08-09T13:52:15Z</time>
      </trkpt>
      <trkpt lat="45.46257" lon="6.38837">
        <ele>1891</ele>
        <time>2022-08-09T13:52:22Z</time>
      </trkpt>
      <trkpt lat="45.46259" lon="6.38844">
        <ele>1891</ele>
        <time>2022-08-09T13:52:29Z</time>
      </trkpt>
      <trkpt lat="45.4626" lon="6.3885">
        <ele>1891</ele>
        <time>2022-08-09T13:52:35Z</time>
      </trkpt>
      <trkpt lat="45.46259" lon="6.38859">
        <ele>1890</ele>
        <time>2022-08-09T13:52:46Z</time>
      </trkpt>
      <trkpt lat="45.46258" lon="6.38865">
        <ele>1890</ele>
        <time>2022-08-09T13:52:52Z</time>
      </trkpt>
      <trkpt lat="45.46256" lon="6.38877">
        <ele>1889</ele>
        <time>2022-08-09T13:53:03Z</time>
      </trkpt>
      <trkpt lat="45.46255" lon="6.38884">
        <ele>1889</ele>
        <time>2022-08-09T13:53:10Z</time>
      </trkpt>
      <trkpt lat="45.46251" lon="6.3889">
        <ele>1888</ele>
        <time>2022-08-09T13:53:20Z</time>
      </trkpt>
      <trkpt lat="45.46249" lon="6.389">
        <ele>1888</ele>
        <time>2022-08-09T13:53:30Z</time>
      </trkpt>
      <trkpt lat="45.46244" lon="6.38905">
        <ele>1887</ele>
        <time>2022-08-09T13:53:40Z</time>
      </trkpt>
      <trkpt lat="45.46236" lon="6.38923">
        <ele>1884</ele>
        <time>2022-08-09T13:54:25Z</time>
      </trkpt>
      <trkpt lat="45.46232" lon="6.38928">
        <ele>1884</ele>
        <time>2022-08-09T13:54:31Z</time>
      </trkpt>
      <trkpt lat="45.46228" lon="6.3894">
        <ele>1883</ele>
        <time>2022-08-09T13:54:41Z</time>
      </trkpt>
      <trkpt lat="45.46223" lon="6.38948">
        <ele>1883</ele>
        <time>2022-08-09T13:54:49Z</time>
      </trkpt>
      <trkpt lat="45.46219" lon="6.38956">
        <ele>1883</ele>
        <time>2022-08-09T13:54:58Z</time>
      </trkpt>
      <trkpt lat="45.46215" lon="6.38968">
        <ele>1882</ele>
        <time>2022-08-09T13:55:10Z</time>
      </trkpt>
      <trkpt lat="45.4622" lon="6.38986">
        <ele>1880</ele>
        <time>2022-08-09T13:55:30Z</time>
      </trkpt>
      <trkpt lat="45.46218" lon="6.38977">
        <ele>1880</ele>
        <time>2022-08-09T13:55:50Z</time>
      </trkpt>
      <trkpt lat="45.46217" lon="6.3897">
        <ele>1881</ele>
        <time>2022-08-09T13:56:00Z</time>
      </trkpt>
      <trkpt lat="45.46218" lon="6.38962">
        <ele>1883</ele>
        <time>2022-08-09T13:56:10Z</time>
      </trkpt>
      <trkpt lat="45.46219" lon="6.38951">
        <ele>1883</ele>
        <time>2022-08-09T13:56:20Z</time>
      </trkpt>
      <trkpt lat="45.4622" lon="6.38939">
        <ele>1880</ele>
        <time>2022-08-09T13:56:31Z</time>
      </trkpt>
      <trkpt lat="45.46218" lon="6.3893">
        <ele>1878</ele>
        <time>2022-08-09T13:56:41Z</time>
      </trkpt>
      <trkpt lat="45.46217" lon="6.38921">
        <ele>1877</ele>
        <time>2022-08-09T13:56:51Z</time>
      </trkpt>
      <trkpt lat="45.46219" lon="6.38911">
        <ele>1876</ele>
        <time>2022-08-09T13:57:02Z</time>
      </trkpt>
      <trkpt lat="45.46217" lon="6.38902">
        <ele>1874</ele>
        <time>2022-08-09T13:57:14Z</time>
      </trkpt>
      <trkpt lat="45.46213" lon="6.38893">
        <ele>1871</ele>
        <time>2022-08-09T13:57:24Z</time>
      </trkpt>
      <trkpt lat="45.46208" lon="6.38872">
        <ele>1868</ele>
        <time>2022-08-09T13:57:57Z</time>
      </trkpt>
      <trkpt lat="45.46209" lon="6.38865">
        <ele>1867</ele>
        <time>2022-08-09T13:58:07Z</time>
      </trkpt>
      <trkpt lat="45.46205" lon="6.38856">
        <ele>1865</ele>
        <time>2022-08-09T13:58:17Z</time>
      </trkpt>
      <trkpt lat="45.46199" lon="6.38854">
        <ele>1863</ele>
        <time>2022-08-09T13:58:27Z</time>
      </trkpt>
      <trkpt lat="45.46193" lon="6.38857">
        <ele>1861</ele>
        <time>2022-08-09T13:58:37Z</time>
      </trkpt>
      <trkpt lat="45.46188" lon="6.38862">
        <ele>1859</ele>
        <time>2022-08-09T13:58:47Z</time>
      </trkpt>
      <trkpt lat="45.46183" lon="6.38864">
        <ele>1856</ele>
        <time>2022-08-09T13:58:57Z</time>
      </trkpt>
      <trkpt lat="45.46172" lon="6.38871">
        <ele>1852</ele>
        <time>2022-08-09T13:59:20Z</time>
      </trkpt>
      <trkpt lat="45.46166" lon="6.38871">
        <ele>1850</ele>
        <time>2022-08-09T13:59:30Z</time>
      </trkpt>
      <trkpt lat="45.46161" lon="6.38875">
        <ele>1848</ele>
        <time>2022-08-09T13:59:40Z</time>
      </trkpt>
      <trkpt lat="45.46143" lon="6.38882">
        <ele>1841</ele>
        <time>2022-08-09T14:00:10Z</time>
      </trkpt>
      <trkpt lat="45.46131" lon="6.38884">
        <ele>1837</ele>
        <time>2022-08-09T14:00:30Z</time>
      </trkpt>
      <trkpt lat="45.46113" lon="6.38897">
        <ele>1830</ele>
        <time>2022-08-09T14:01:00Z</time>
      </trkpt>
      <trkpt lat="45.46107" lon="6.38901">
        <ele>1827</ele>
        <time>2022-08-09T14:01:11Z</time>
      </trkpt>
      <trkpt lat="45.46087" lon="6.3891">
        <ele>1821</ele>
        <time>2022-08-09T14:01:43Z</time>
      </trkpt>
      <trkpt lat="45.46077" lon="6.3891">
        <ele>1817</ele>
        <time>2022-08-09T14:02:03Z</time>
      </trkpt>
      <trkpt lat="45.4607" lon="6.38912">
        <ele>1815</ele>
        <time>2022-08-09T14:02:13Z</time>
      </trkpt>
      <trkpt lat="45.46065" lon="6.38914">
        <ele>1814</ele>
        <time>2022-08-09T14:02:23Z</time>
      </trkpt>
      <trkpt lat="45.4606" lon="6.3891">
        <ele>1812</ele>
        <time>2022-08-09T14:02:33Z</time>
      </trkpt>
      <trkpt lat="45.46047" lon="6.38912">
        <ele>1808</ele>
        <time>2022-08-09T14:02:53Z</time>
      </trkpt>
      <trkpt lat="45.46029" lon="6.38926">
        <ele>1802</ele>
        <time>2022-08-09T14:03:24Z</time>
      </trkpt>
      <trkpt lat="45.46014" lon="6.38942">
        <ele>1795</ele>
        <time>2022-08-09T14:03:55Z</time>
      </trkpt>
      <trkpt lat="45.46009" lon="6.38947">
        <ele>1794</ele>
        <time>2022-08-09T14:04:05Z</time>
      </trkpt>
      <trkpt lat="45.46005" lon="6.38954">
        <ele>1792</ele>
        <time>2022-08-09T14:04:15Z</time>
      </trkpt>
      <trkpt lat="45.45995" lon="6.38959">
        <ele>1788</ele>
        <time>2022-08-09T14:04:35Z</time>
      </trkpt>
      <trkpt lat="45.4599" lon="6.38963">
        <ele>1786</ele>
        <time>2022-08-09T14:04:45Z</time>
      </trkpt>
      <trkpt lat="45.45978" lon="6.38964">
        <ele>1781</ele>
        <time>2022-08-09T14:05:05Z</time>
      </trkpt>
      <trkpt lat="45.45972" lon="6.38963">
        <ele>1779</ele>
        <time>2022-08-09T14:05:15Z</time>
      </trkpt>
      <trkpt lat="45.45956" lon="6.38979">
        <ele>1773</ele>
        <time>2022-08-09T14:05:47Z</time>
      </trkpt>
      <trkpt lat="45.4594" lon="6.38988">
        <ele>1768</ele>
        <time>2022-08-09T14:06:17Z</time>
      </trkpt>
      <trkpt lat="45.45936" lon="6.38991">
        <ele>1766</ele>
        <time>2022-08-09T14:06:27Z</time>
      </trkpt>
      <trkpt lat="45.45932" lon="6.38996">
        <ele>1764</ele>
        <time>2022-08-09T14:06:37Z</time>
      </trkpt>
      <trkpt lat="45.45929" lon="6.39006">
        <ele>1761</ele>
        <time>2022-08-09T14:06:47Z</time>
      </trkpt>
      <trkpt lat="45.45926" lon="6.39031">
        <ele>1757</ele>
        <time>2022-08-09T14:07:13Z</time>
      </trkpt>
      <trkpt lat="45.45924" lon="6.39039">
        <ele>1755</ele>
        <time>2022-08-09T14:07:39Z</time>
      </trkpt>
      <trkpt lat="45.45923" lon="6.39049">
        <ele>1753</ele>
        <time>2022-08-09T14:07:49Z</time>
      </trkpt>
      <trkpt lat="45.4592" lon="6.39058">
        <ele>1751</ele>
        <time>2022-08-09T14:07:59Z</time>
      </trkpt>
      <trkpt lat="45.45919" lon="6.39064">
        <ele>1750</ele>
        <time>2022-08-09T14:08:04Z</time>
      </trkpt>
      <trkpt lat="45.45911" lon="6.39093">
        <ele>1745</ele>
        <time>2022-08-09T14:08:34Z</time>
      </trkpt>
      <trkpt lat="45.45908" lon="6.391">
        <ele>1743</ele>
        <time>2022-08-09T14:08:44Z</time>
      </trkpt>
      <trkpt lat="45.45895" lon="6.39118">
        <ele>1737</ele>
        <time>2022-08-09T14:09:14Z</time>
      </trkpt>
      <trkpt lat="45.45879" lon="6.39131">
        <ele>1728</ele>
        <time>2022-08-09T14:09:46Z</time>
      </trkpt>
      <trkpt lat="45.45874" lon="6.39137">
        <ele>1726</ele>
        <time>2022-08-09T14:09:57Z</time>
      </trkpt>
      <trkpt lat="45.45862" lon="6.39147">
        <ele>1721</ele>
        <time>2022-08-09T14:10:18Z</time>
      </trkpt>
      <trkpt lat="45.45855" lon="6.39148">
        <ele>1718</ele>
        <time>2022-08-09T14:10:29Z</time>
      </trkpt>
      <trkpt lat="45.45853" lon="6.39155">
        <ele>1717</ele>
        <time>2022-08-09T14:10:34Z</time>
      </trkpt>
      <trkpt lat="45.45854" lon="6.39198">
        <ele>1711</ele>
        <time>2022-08-09T14:11:11Z</time>
      </trkpt>
      <trkpt lat="45.45855" lon="6.39238">
        <ele>1706</ele>
        <time>2022-08-09T14:11:44Z</time>
      </trkpt>
      <trkpt lat="45.45856" lon="6.39247">
        <ele>1705</ele>
        <time>2022-08-09T14:11:51Z</time>
      </trkpt>
      <trkpt lat="45.45857" lon="6.39253">
        <ele>1705</ele>
        <time>2022-08-09T14:11:56Z</time>
      </trkpt>
      <trkpt lat="45.45858" lon="6.39259">
        <ele>1704</ele>
        <time>2022-08-09T14:12:01Z</time>
      </trkpt>
      <trkpt lat="45.45862" lon="6.39272">
        <ele>1703</ele>
        <time>2022-08-09T14:12:13Z</time>
      </trkpt>
      <trkpt lat="45.45874" lon="6.39293">
        <ele>1699</ele>
        <time>2022-08-09T14:12:35Z</time>
      </trkpt>
      <trkpt lat="45.4588" lon="6.393">
        <ele>1697</ele>
        <time>2022-08-09T14:12:45Z</time>
      </trkpt>
      <trkpt lat="45.45885" lon="6.39312">
        <ele>1696</ele>
        <time>2022-08-09T14:12:55Z</time>
      </trkpt>
      <trkpt lat="45.45888" lon="6.39348">
        <ele>1690</ele>
        <time>2022-08-09T14:13:25Z</time>
      </trkpt>
      <trkpt lat="45.45886" lon="6.39357">
        <ele>1689</ele>
        <time>2022-08-09T14:13:35Z</time>
      </trkpt>
      <trkpt lat="45.45883" lon="6.39365">
        <ele>1687</ele>
        <time>2022-08-09T14:13:46Z</time>
      </trkpt>
      <trkpt lat="45.45879" lon="6.39384">
        <ele>1681</ele>
        <time>2022-08-09T14:14:09Z</time>
      </trkpt>
      <trkpt lat="45.45878" lon="6.39394">
        <ele>1679</ele>
        <time>2022-08-09T14:14:19Z</time>
      </trkpt>
      <trkpt lat="45.45873" lon="6.3941">
        <ele>1675</ele>
        <time>2022-08-09T14:14:39Z</time>
      </trkpt>
      <trkpt lat="45.45873" lon="6.39419">
        <ele>1673</ele>
        <time>2022-08-09T14:14:49Z</time>
      </trkpt>
      <trkpt lat="45.4587" lon="6.39443">
        <ele>1667</ele>
        <time>2022-08-09T14:15:19Z</time>
      </trkpt>
      <trkpt lat="45.45869" lon="6.39452">
        <ele>1664</ele>
        <time>2022-08-09T14:15:29Z</time>
      </trkpt>
      <trkpt lat="45.45867" lon="6.39458">
        <ele>1663</ele>
        <time>2022-08-09T14:15:39Z</time>
      </trkpt>
      <trkpt lat="45.45867" lon="6.39469">
        <ele>1660</ele>
        <time>2022-08-09T14:15:49Z</time>
      </trkpt>
      <trkpt lat="45.4586" lon="6.39498">
        <ele>1653</ele>
        <time>2022-08-09T14:16:21Z</time>
      </trkpt>
      <trkpt lat="45.45858" lon="6.39508">
        <ele>1651</ele>
        <time>2022-08-09T14:16:31Z</time>
      </trkpt>
      <trkpt lat="45.45855" lon="6.39525">
        <ele>1646</ele>
        <time>2022-08-09T14:16:51Z</time>
      </trkpt>
      <trkpt lat="45.45851" lon="6.39532">
        <ele>1643</ele>
        <time>2022-08-09T14:17:01Z</time>
      </trkpt>
      <trkpt lat="45.4585" lon="6.39538">
        <ele>1641</ele>
        <time>2022-08-09T14:17:11Z</time>
      </trkpt>
      <trkpt lat="45.45847" lon="6.39546">
        <ele>1639</ele>
        <time>2022-08-09T14:17:31Z</time>
      </trkpt>
      <trkpt lat="45.45846" lon="6.39554">
        <ele>1637</ele>
        <time>2022-08-09T14:17:41Z</time>
      </trkpt>
      <trkpt lat="45.45845" lon="6.39563">
        <ele>1635</ele>
        <time>2022-08-09T14:17:51Z</time>
      </trkpt>
      <trkpt lat="45.4584" lon="6.39593">
        <ele>1628</ele>
        <time>2022-08-09T14:18:24Z</time>
      </trkpt>
      <trkpt lat="45.45836" lon="6.39602">
        <ele>1625</ele>
        <time>2022-08-09T14:18:34Z</time>
      </trkpt>
      <trkpt lat="45.45832" lon="6.39645">
        <ele>1616</ele>
        <time>2022-08-09T14:19:12Z</time>
      </trkpt>
      <trkpt lat="45.45832" lon="6.39652">
        <ele>1615</ele>
        <time>2022-08-09T14:19:19Z</time>
      </trkpt>
      <trkpt lat="45.45829" lon="6.39661">
        <ele>1613</ele>
        <time>2022-08-09T14:19:29Z</time>
      </trkpt>
      <trkpt lat="45.45829" lon="6.39671">
        <ele>1611</ele>
        <time>2022-08-09T14:19:49Z</time>
      </trkpt>
      <trkpt lat="45.45826" lon="6.39676">
        <ele>1609</ele>
        <time>2022-08-09T14:20:05Z</time>
      </trkpt>
      <trkpt lat="45.4582" lon="6.39678">
        <ele>1607</ele>
        <time>2022-08-09T14:20:14Z</time>
      </trkpt>
      <trkpt lat="45.45814" lon="6.39686">
        <ele>1606</ele>
        <time>2022-08-09T14:21:37Z</time>
      </trkpt>
      <trkpt lat="45.45819" lon="6.39693">
        <ele>1606</ele>
        <time>2022-08-09T14:21:49Z</time>
      </trkpt>
      <trkpt lat="45.45848" lon="6.39737">
        <ele>1605</ele>
        <time>2022-08-09T14:22:03Z</time>
      </trkpt>
    </trkseg>
  </trk>
  <trk>
    <name><![CDATA[8 août 2022 à 10:07:29]]></name>
    <cmt><![CDATA[8 août 2022 à 10:07:29]]></cmt>
    <trkseg>
      <trkpt lat="45.50988" lon="6.41875">
        <ele>1907</ele>
        <time>2022-08-08T08:07:30Z</time>
      </trkpt>
      <trkpt lat="45.50989" lon="6.41875">
        <ele>1907</ele>
        <time>2022-08-08T08:07:31Z</time>
      </trkpt>
      <trkpt lat="45.50988" lon="6.41868">
        <ele>1907</ele>
        <time>2022-08-08T08:08:13Z</time>
      </trkpt>
      <trkpt lat="45.50995" lon="6.41866">
        <ele>1907</ele>
        <time>2022-08-08T08:08:29Z</time>
      </trkpt>
      <trkpt lat="45.50999" lon="6.41862">
        <ele>1909</ele>
        <time>2022-08-08T08:08:39Z</time>
      </trkpt>
      <trkpt lat="45.51" lon="6.41854">
        <ele>1909</ele>
        <time>2022-08-08T08:08:54Z</time>
      </trkpt>
      <trkpt lat="45.51" lon="6.41844">
        <ele>1911</ele>
        <time>2022-08-08T08:09:04Z</time>
      </trkpt>
      <trkpt lat="45.51" lon="6.4183">
        <ele>1913</ele>
        <time>2022-08-08T08:10:31Z</time>
      </trkpt>
      <trkpt lat="45.51" lon="6.41813">
        <ele>1916</ele>
        <time>2022-08-08T08:10:57Z</time>
      </trkpt>
      <trkpt lat="45.50998" lon="6.418">
        <ele>1918</ele>
        <time>2022-08-08T08:11:17Z</time>
      </trkpt>
      <trkpt lat="45.50995" lon="6.41793">
        <ele>1920</ele>
        <time>2022-08-08T08:11:27Z</time>
      </trkpt>
      <trkpt lat="45.50985" lon="6.41781">
        <ele>1921</ele>
        <time>2022-08-08T08:11:47Z</time>
      </trkpt>
      <trkpt lat="45.5098" lon="6.41764">
        <ele>1923</ele>
        <time>2022-08-08T08:12:07Z</time>
      </trkpt>
      <trkpt lat="45.50981" lon="6.41728">
        <ele>1926</ele>
        <time>2022-08-08T08:12:47Z</time>
      </trkpt>
      <trkpt lat="45.50985" lon="6.41721">
        <ele>1927</ele>
        <time>2022-08-08T08:12:57Z</time>
      </trkpt>
      <trkpt lat="45.50981" lon="6.41715">
        <ele>1927</ele>
        <time>2022-08-08T08:13:07Z</time>
      </trkpt>
      <trkpt lat="45.50979" lon="6.41708">
        <ele>1928</ele>
        <time>2022-08-08T08:13:14Z</time>
      </trkpt>
      <trkpt lat="45.50978" lon="6.41688">
        <ele>1929</ele>
        <time>2022-08-08T08:13:35Z</time>
      </trkpt>
      <trkpt lat="45.50979" lon="6.41668">
        <ele>1931</ele>
        <time>2022-08-08T08:13:55Z</time>
      </trkpt>
      <trkpt lat="45.50976" lon="6.41649">
        <ele>1932</ele>
        <time>2022-08-08T08:14:15Z</time>
      </trkpt>
      <trkpt lat="45.50974" lon="6.41641">
        <ele>1932</ele>
        <time>2022-08-08T08:14:25Z</time>
      </trkpt>
      <trkpt lat="45.50973" lon="6.41634">
        <ele>1933</ele>
        <time>2022-08-08T08:14:36Z</time>
      </trkpt>
      <trkpt lat="45.50966" lon="6.4162">
        <ele>1934</ele>
        <time>2022-08-08T08:14:54Z</time>
      </trkpt>
      <trkpt lat="45.50958" lon="6.41609">
        <ele>1936</ele>
        <time>2022-08-08T08:15:14Z</time>
      </trkpt>
      <trkpt lat="45.50946" lon="6.41599">
        <ele>1939</ele>
        <time>2022-08-08T08:15:44Z</time>
      </trkpt>
      <trkpt lat="45.50942" lon="6.41594">
        <ele>1940</ele>
        <time>2022-08-08T08:15:54Z</time>
      </trkpt>
      <trkpt lat="45.50931" lon="6.41585">
        <ele>1944</ele>
        <time>2022-08-08T08:16:24Z</time>
      </trkpt>
      <trkpt lat="45.50926" lon="6.41583">
        <ele>1945</ele>
        <time>2022-08-08T08:16:34Z</time>
      </trkpt>
      <trkpt lat="45.50909" lon="6.41568">
        <ele>1950</ele>
        <time>2022-08-08T08:17:53Z</time>
      </trkpt>
      <trkpt lat="45.50899" lon="6.41561">
        <ele>1952</ele>
        <time>2022-08-08T08:18:05Z</time>
      </trkpt>
      <trkpt lat="45.50887" lon="6.41548">
        <ele>1955</ele>
        <time>2022-08-08T08:18:23Z</time>
      </trkpt>
      <trkpt lat="45.50882" lon="6.41544">
        <ele>1956</ele>
        <time>2022-08-08T08:18:30Z</time>
      </trkpt>
      <trkpt lat="45.50875" lon="6.4153">
        <ele>1958</ele>
        <time>2022-08-08T08:18:45Z</time>
      </trkpt>
      <trkpt lat="45.50874" lon="6.41523">
        <ele>1959</ele>
        <time>2022-08-08T08:18:51Z</time>
      </trkpt>
      <trkpt lat="45.50871" lon="6.41518">
        <ele>1960</ele>
        <time>2022-08-08T08:18:56Z</time>
      </trkpt>
      <trkpt lat="45.50871" lon="6.41509">
        <ele>1961</ele>
        <time>2022-08-08T08:19:03Z</time>
      </trkpt>
      <trkpt lat="45.50874" lon="6.41488">
        <ele>1963</ele>
        <time>2022-08-08T08:19:20Z</time>
      </trkpt>
      <trkpt lat="45.50879" lon="6.41476">
        <ele>1964</ele>
        <time>2022-08-08T08:19:30Z</time>
      </trkpt>
      <trkpt lat="45.50883" lon="6.41464">
        <ele>1964</ele>
        <time>2022-08-08T08:19:40Z</time>
      </trkpt>
      <trkpt lat="45.50885" lon="6.41458">
        <ele>1965</ele>
        <time>2022-08-08T08:19:47Z</time>
      </trkpt>
      <trkpt lat="45.50891" lon="6.41434">
        <ele>1969</ele>
        <time>2022-08-08T08:20:22Z</time>
      </trkpt>
      <trkpt lat="45.50886" lon="6.41419">
        <ele>1971</ele>
        <time>2022-08-08T08:20:42Z</time>
      </trkpt>
      <trkpt lat="45.50881" lon="6.41414">
        <ele>1973</ele>
        <time>2022-08-08T08:20:53Z</time>
      </trkpt>
      <trkpt lat="45.50877" lon="6.41407">
        <ele>1974</ele>
        <time>2022-08-08T08:21:05Z</time>
      </trkpt>
      <trkpt lat="45.50876" lon="6.41391">
        <ele>1977</ele>
        <time>2022-08-08T08:21:26Z</time>
      </trkpt>
      <trkpt lat="45.50879" lon="6.41365">
        <ele>1981</ele>
        <time>2022-08-08T08:21:56Z</time>
      </trkpt>
      <trkpt lat="45.50878" lon="6.41357">
        <ele>1983</ele>
        <time>2022-08-08T08:22:06Z</time>
      </trkpt>
      <trkpt lat="45.5088" lon="6.41349">
        <ele>1985</ele>
        <time>2022-08-08T08:22:16Z</time>
      </trkpt>
      <trkpt lat="45.5088" lon="6.4133">
        <ele>1988</ele>
        <time>2022-08-08T08:22:36Z</time>
      </trkpt>
      <trkpt lat="45.50881" lon="6.41322">
        <ele>1990</ele>
        <time>2022-08-08T08:22:46Z</time>
      </trkpt>
      <trkpt lat="45.50882" lon="6.41311">
        <ele>1992</ele>
        <time>2022-08-08T08:22:57Z</time>
      </trkpt>
      <trkpt lat="45.5088" lon="6.41305">
        <ele>1993</ele>
        <time>2022-08-08T08:23:03Z</time>
      </trkpt>
      <trkpt lat="45.50882" lon="6.41292">
        <ele>1994</ele>
        <time>2022-08-08T08:23:16Z</time>
      </trkpt>
      <trkpt lat="45.50877" lon="6.41273">
        <ele>1997</ele>
        <time>2022-08-08T08:23:36Z</time>
      </trkpt>
      <trkpt lat="45.50874" lon="6.41269">
        <ele>1998</ele>
        <time>2022-08-08T08:23:41Z</time>
      </trkpt>
      <trkpt lat="45.5087" lon="6.41252">
        <ele>2000</ele>
        <time>2022-08-08T08:23:58Z</time>
      </trkpt>
      <trkpt lat="45.5087" lon="6.41232">
        <ele>2003</ele>
        <time>2022-08-08T08:24:18Z</time>
      </trkpt>
      <trkpt lat="45.50871" lon="6.41222">
        <ele>2004</ele>
        <time>2022-08-08T08:24:28Z</time>
      </trkpt>
      <trkpt lat="45.50872" lon="6.41212">
        <ele>2006</ele>
        <time>2022-08-08T08:25:26Z</time>
      </trkpt>
      <trkpt lat="45.50876" lon="6.41187">
        <ele>2010</ele>
        <time>2022-08-08T08:25:56Z</time>
      </trkpt>
      <trkpt lat="45.50879" lon="6.41176">
        <ele>2011</ele>
        <time>2022-08-08T08:27:32Z</time>
      </trkpt>
      <trkpt lat="45.50881" lon="6.41169">
        <ele>2011</ele>
        <time>2022-08-08T08:27:35Z</time>
      </trkpt>
      <trkpt lat="45.50885" lon="6.41159">
        <ele>2008</ele>
        <time>2022-08-08T08:27:44Z</time>
      </trkpt>
      <trkpt lat="45.50887" lon="6.41147">
        <ele>2007</ele>
        <time>2022-08-08T08:27:56Z</time>
      </trkpt>
      <trkpt lat="45.5089" lon="6.41134">
        <ele>2007</ele>
        <time>2022-08-08T08:28:05Z</time>
      </trkpt>
      <trkpt lat="45.50891" lon="6.41127">
        <ele>2007</ele>
        <time>2022-08-08T08:28:10Z</time>
      </trkpt>
      <trkpt lat="45.50892" lon="6.41121">
        <ele>2008</ele>
        <time>2022-08-08T08:28:15Z</time>
      </trkpt>
      <trkpt lat="45.50893" lon="6.41102">
        <ele>2009</ele>
        <time>2022-08-08T08:28:31Z</time>
      </trkpt>
      <trkpt lat="45.50898" lon="6.41082">
        <ele>2010</ele>
        <time>2022-08-08T08:28:46Z</time>
      </trkpt>
      <trkpt lat="45.50904" lon="6.41059">
        <ele>2010</ele>
        <time>2022-08-08T08:29:19Z</time>
      </trkpt>
      <trkpt lat="45.5091" lon="6.41039">
        <ele>2009</ele>
        <time>2022-08-08T08:29:36Z</time>
      </trkpt>
      <trkpt lat="45.50912" lon="6.41031">
        <ele>2010</ele>
        <time>2022-08-08T08:29:43Z</time>
      </trkpt>
      <trkpt lat="45.50915" lon="6.41026">
        <ele>2010</ele>
        <time>2022-08-08T08:29:48Z</time>
      </trkpt>
      <trkpt lat="45.50928" lon="6.41">
        <ele>2012</ele>
        <time>2022-08-08T08:30:24Z</time>
      </trkpt>
      <trkpt lat="45.50931" lon="6.40995">
        <ele>2013</ele>
        <time>2022-08-08T08:30:29Z</time>
      </trkpt>
      <trkpt lat="45.50932" lon="6.40988">
        <ele>2013</ele>
        <time>2022-08-08T08:30:36Z</time>
      </trkpt>
      <trkpt lat="45.50932" lon="6.40982">
        <ele>2015</ele>
        <time>2022-08-08T08:31:01Z</time>
      </trkpt>
      <trkpt lat="45.50933" lon="6.40975">
        <ele>2015</ele>
        <time>2022-08-08T08:31:06Z</time>
      </trkpt>
      <trkpt lat="45.50931" lon="6.40955">
        <ele>2018</ele>
        <time>2022-08-08T08:31:31Z</time>
      </trkpt>
      <trkpt lat="45.50932" lon="6.40949">
        <ele>2018</ele>
        <time>2022-08-08T08:31:36Z</time>
      </trkpt>
      <trkpt lat="45.50933" lon="6.40942">
        <ele>2019</ele>
        <time>2022-08-08T08:31:41Z</time>
      </trkpt>
      <trkpt lat="45.50933" lon="6.40932">
        <ele>2019</ele>
        <time>2022-08-08T08:31:50Z</time>
      </trkpt>
      <trkpt lat="45.50934" lon="6.4092">
        <ele>2020</ele>
        <time>2022-08-08T08:32:01Z</time>
      </trkpt>
      <trkpt lat="45.50932" lon="6.40897">
        <ele>2021</ele>
        <time>2022-08-08T08:32:27Z</time>
      </trkpt>
      <trkpt lat="45.50932" lon="6.4089">
        <ele>2021</ele>
        <time>2022-08-08T08:32:32Z</time>
      </trkpt>
      <trkpt lat="45.50935" lon="6.4088">
        <ele>2020</ele>
        <time>2022-08-08T08:32:41Z</time>
      </trkpt>
      <trkpt lat="45.50946" lon="6.40869">
        <ele>2018</ele>
        <time>2022-08-08T08:32:55Z</time>
      </trkpt>
      <trkpt lat="45.5095" lon="6.40868">
        <ele>2018</ele>
        <time>2022-08-08T08:33:02Z</time>
      </trkpt>
      <trkpt lat="45.50954" lon="6.40861">
        <ele>2019</ele>
        <time>2022-08-08T08:33:12Z</time>
      </trkpt>
      <trkpt lat="45.5096" lon="6.40854">
        <ele>2020</ele>
        <time>2022-08-08T08:33:23Z</time>
      </trkpt>
      <trkpt lat="45.50963" lon="6.40848">
        <ele>2020</ele>
        <time>2022-08-08T08:33:28Z</time>
      </trkpt>
      <trkpt lat="45.50966" lon="6.40843">
        <ele>2020</ele>
        <time>2022-08-08T08:33:33Z</time>
      </trkpt>
      <trkpt lat="45.50969" lon="6.40835">
        <ele>2020</ele>
        <time>2022-08-08T08:33:40Z</time>
      </trkpt>
      <trkpt lat="45.50972" lon="6.40828">
        <ele>2021</ele>
        <time>2022-08-08T08:33:52Z</time>
      </trkpt>
      <trkpt lat="45.50975" lon="6.40816">
        <ele>2021</ele>
        <time>2022-08-08T08:34:03Z</time>
      </trkpt>
      <trkpt lat="45.50975" lon="6.40817">
        <ele>2022</ele>
        <time>2022-08-08T08:34:42Z</time>
      </trkpt>
      <trkpt lat="45.50975" lon="6.40824">
        <ele>2022</ele>
        <time>2022-08-08T08:34:47Z</time>
      </trkpt>
      <trkpt lat="45.50977" lon="6.40829">
        <ele>2022</ele>
        <time>2022-08-08T08:34:54Z</time>
      </trkpt>
      <trkpt lat="45.50971" lon="6.40831">
        <ele>2022</ele>
        <time>2022-08-08T08:35:30Z</time>
      </trkpt>
      <trkpt lat="45.50972" lon="6.40838">
        <ele>2022</ele>
        <time>2022-08-08T08:35:52Z</time>
      </trkpt>
      <trkpt lat="45.5096" lon="6.40839">
        <ele>2022</ele>
        <time>2022-08-08T08:36:08Z</time>
      </trkpt>
      <trkpt lat="45.50956" lon="6.40837">
        <ele>2022</ele>
        <time>2022-08-08T08:36:12Z</time>
      </trkpt>
      <trkpt lat="45.50948" lon="6.40823">
        <ele>2020</ele>
        <time>2022-08-08T08:36:29Z</time>
      </trkpt>
      <trkpt lat="45.50945" lon="6.40831">
        <ele>2019</ele>
        <time>2022-08-08T08:37:09Z</time>
      </trkpt>
      <trkpt lat="45.50944" lon="6.40837">
        <ele>2019</ele>
        <time>2022-08-08T08:37:13Z</time>
      </trkpt>
      <trkpt lat="45.50943" lon="6.40843">
        <ele>2019</ele>
        <time>2022-08-08T08:37:17Z</time>
      </trkpt>
      <trkpt lat="45.50941" lon="6.40848">
        <ele>2019</ele>
        <time>2022-08-08T08:37:22Z</time>
      </trkpt>
      <trkpt lat="45.50935" lon="6.40852">
        <ele>2019</ele>
        <time>2022-08-08T08:37:28Z</time>
      </trkpt>
      <trkpt lat="45.50925" lon="6.40857">
        <ele>2018</ele>
        <time>2022-08-08T08:37:40Z</time>
      </trkpt>
      <trkpt lat="45.509" lon="6.40868">
        <ele>2012</ele>
        <time>2022-08-08T08:38:24Z</time>
      </trkpt>
      <trkpt lat="45.50896" lon="6.40862">
        <ele>2009</ele>
        <time>2022-08-08T08:38:39Z</time>
      </trkpt>
      <trkpt lat="45.50896" lon="6.40849">
        <ele>2005</ele>
        <time>2022-08-08T08:38:59Z</time>
      </trkpt>
      <trkpt lat="45.50895" lon="6.40842">
        <ele>2002</ele>
        <time>2022-08-08T08:39:14Z</time>
      </trkpt>
      <trkpt lat="45.50891" lon="6.40839">
        <ele>1999</ele>
        <time>2022-08-08T08:39:29Z</time>
      </trkpt>
      <trkpt lat="45.50891" lon="6.40833">
        <ele>1996</ele>
        <time>2022-08-08T08:40:00Z</time>
      </trkpt>
      <trkpt lat="45.50896" lon="6.40818">
        <ele>1994</ele>
        <time>2022-08-08T08:41:00Z</time>
      </trkpt>
      <trkpt lat="45.50905" lon="6.40799">
        <ele>1992</ele>
        <time>2022-08-08T08:41:30Z</time>
      </trkpt>
      <trkpt lat="45.50909" lon="6.40791">
        <ele>1991</ele>
        <time>2022-08-08T08:41:40Z</time>
      </trkpt>
      <trkpt lat="45.50913" lon="6.40781">
        <ele>1989</ele>
        <time>2022-08-08T08:41:51Z</time>
      </trkpt>
      <trkpt lat="45.50919" lon="6.40771">
        <ele>1988</ele>
        <time>2022-08-08T08:42:03Z</time>
      </trkpt>
      <trkpt lat="45.50922" lon="6.40765">
        <ele>1988</ele>
        <time>2022-08-08T08:42:09Z</time>
      </trkpt>
      <trkpt lat="45.50935" lon="6.40736">
        <ele>1984</ele>
        <time>2022-08-08T08:42:39Z</time>
      </trkpt>
      <trkpt lat="45.50941" lon="6.40724">
        <ele>1983</ele>
        <time>2022-08-08T08:42:51Z</time>
      </trkpt>
      <trkpt lat="45.50945" lon="6.40717">
        <ele>1983</ele>
        <time>2022-08-08T08:43:01Z</time>
      </trkpt>
      <trkpt lat="45.50958" lon="6.4069">
        <ele>1984</ele>
        <time>2022-08-08T08:43:34Z</time>
      </trkpt>
      <trkpt lat="45.50963" lon="6.40679">
        <ele>1983</ele>
        <time>2022-08-08T08:43:43Z</time>
      </trkpt>
      <trkpt lat="45.50976" lon="6.40668">
        <ele>1984</ele>
        <time>2022-08-08T08:44:02Z</time>
      </trkpt>
      <trkpt lat="45.50987" lon="6.40656">
        <ele>1984</ele>
        <time>2022-08-08T08:44:20Z</time>
      </trkpt>
      <trkpt lat="45.50991" lon="6.40651">
        <ele>1984</ele>
        <time>2022-08-08T08:44:27Z</time>
      </trkpt>
      <trkpt lat="45.50999" lon="6.40641">
        <ele>1984</ele>
        <time>2022-08-08T08:44:40Z</time>
      </trkpt>
      <trkpt lat="45.51003" lon="6.40634">
        <ele>1984</ele>
        <time>2022-08-08T08:44:48Z</time>
      </trkpt>
      <trkpt lat="45.51006" lon="6.4063">
        <ele>1985</ele>
        <time>2022-08-08T08:44:53Z</time>
      </trkpt>
      <trkpt lat="45.51008" lon="6.40624">
        <ele>1985</ele>
        <time>2022-08-08T08:44:59Z</time>
      </trkpt>
      <trkpt lat="45.51014" lon="6.40616">
        <ele>1985</ele>
        <time>2022-08-08T08:45:09Z</time>
      </trkpt>
      <trkpt lat="45.51017" lon="6.40606">
        <ele>1986</ele>
        <time>2022-08-08T08:45:19Z</time>
      </trkpt>
      <trkpt lat="45.51022" lon="6.40598">
        <ele>1985</ele>
        <time>2022-08-08T08:45:29Z</time>
      </trkpt>
      <trkpt lat="45.51025" lon="6.40585">
        <ele>1985</ele>
        <time>2022-08-08T08:45:43Z</time>
      </trkpt>
      <trkpt lat="45.51033" lon="6.40573">
        <ele>1984</ele>
        <time>2022-08-08T08:45:56Z</time>
      </trkpt>
      <trkpt lat="45.51049" lon="6.40537">
        <ele>1984</ele>
        <time>2022-08-08T08:46:31Z</time>
      </trkpt>
      <trkpt lat="45.51054" lon="6.40527">
        <ele>1983</ele>
        <time>2022-08-08T08:46:52Z</time>
      </trkpt>
      <trkpt lat="45.51059" lon="6.40519">
        <ele>1983</ele>
        <time>2022-08-08T08:47:00Z</time>
      </trkpt>
      <trkpt lat="45.51063" lon="6.40508">
        <ele>1982</ele>
        <time>2022-08-08T08:47:09Z</time>
      </trkpt>
      <trkpt lat="45.51066" lon="6.40503">
        <ele>1982</ele>
        <time>2022-08-08T08:47:14Z</time>
      </trkpt>
      <trkpt lat="45.51067" lon="6.40487">
        <ele>1980</ele>
        <time>2022-08-08T08:47:52Z</time>
      </trkpt>
      <trkpt lat="45.5107" lon="6.40481">
        <ele>1979</ele>
        <time>2022-08-08T08:48:02Z</time>
      </trkpt>
      <trkpt lat="45.51072" lon="6.40475">
        <ele>1980</ele>
        <time>2022-08-08T08:49:10Z</time>
      </trkpt>
      <trkpt lat="45.51079" lon="6.40457">
        <ele>1978</ele>
        <time>2022-08-08T08:49:31Z</time>
      </trkpt>
      <trkpt lat="45.51082" lon="6.4045">
        <ele>1978</ele>
        <time>2022-08-08T08:49:41Z</time>
      </trkpt>
      <trkpt lat="45.51087" lon="6.4044">
        <ele>1977</ele>
        <time>2022-08-08T08:49:51Z</time>
      </trkpt>
      <trkpt lat="45.5109" lon="6.40434">
        <ele>1977</ele>
        <time>2022-08-08T08:51:00Z</time>
      </trkpt>
      <trkpt lat="45.51091" lon="6.40427">
        <ele>1979</ele>
        <time>2022-08-08T08:51:25Z</time>
      </trkpt>
      <trkpt lat="45.51091" lon="6.40418">
        <ele>1979</ele>
        <time>2022-08-08T08:51:40Z</time>
      </trkpt>
      <trkpt lat="45.51095" lon="6.4041">
        <ele>1979</ele>
        <time>2022-08-08T08:52:00Z</time>
      </trkpt>
      <trkpt lat="45.51102" lon="6.40398">
        <ele>1979</ele>
        <time>2022-08-08T08:52:27Z</time>
      </trkpt>
      <trkpt lat="45.51106" lon="6.40386">
        <ele>1980</ele>
        <time>2022-08-08T08:52:39Z</time>
      </trkpt>
      <trkpt lat="45.51109" lon="6.40377">
        <ele>1980</ele>
        <time>2022-08-08T08:52:49Z</time>
      </trkpt>
      <trkpt lat="45.51114" lon="6.40367">
        <ele>1979</ele>
        <time>2022-08-08T08:52:59Z</time>
      </trkpt>
      <trkpt lat="45.51117" lon="6.40359">
        <ele>1979</ele>
        <time>2022-08-08T08:53:07Z</time>
      </trkpt>
      <trkpt lat="45.51128" lon="6.40335">
        <ele>1981</ele>
        <time>2022-08-08T08:53:37Z</time>
      </trkpt>
      <trkpt lat="45.51129" lon="6.40327">
        <ele>1982</ele>
        <time>2022-08-08T08:53:47Z</time>
      </trkpt>
      <trkpt lat="45.51133" lon="6.40323">
        <ele>1983</ele>
        <time>2022-08-08T08:53:57Z</time>
      </trkpt>
      <trkpt lat="45.51137" lon="6.40314">
        <ele>1984</ele>
        <time>2022-08-08T08:54:12Z</time>
      </trkpt>
      <trkpt lat="45.51139" lon="6.40305">
        <ele>1985</ele>
        <time>2022-08-08T08:54:22Z</time>
      </trkpt>
      <trkpt lat="45.51147" lon="6.40283">
        <ele>1987</ele>
        <time>2022-08-08T08:54:51Z</time>
      </trkpt>
      <trkpt lat="45.5115" lon="6.40271">
        <ele>1987</ele>
        <time>2022-08-08T08:55:03Z</time>
      </trkpt>
      <trkpt lat="45.51154" lon="6.40263">
        <ele>1987</ele>
        <time>2022-08-08T08:55:13Z</time>
      </trkpt>
      <trkpt lat="45.51157" lon="6.40256">
        <ele>1988</ele>
        <time>2022-08-08T08:55:23Z</time>
      </trkpt>
      <trkpt lat="45.51162" lon="6.40251">
        <ele>1990</ele>
        <time>2022-08-08T08:55:33Z</time>
      </trkpt>
      <trkpt lat="45.51165" lon="6.40243">
        <ele>1991</ele>
        <time>2022-08-08T08:55:48Z</time>
      </trkpt>
      <trkpt lat="45.51171" lon="6.40231">
        <ele>1993</ele>
        <time>2022-08-08T08:56:08Z</time>
      </trkpt>
      <trkpt lat="45.51174" lon="6.40224">
        <ele>1994</ele>
        <time>2022-08-08T08:56:28Z</time>
      </trkpt>
      <trkpt lat="45.51178" lon="6.4022">
        <ele>1996</ele>
        <time>2022-08-08T08:56:39Z</time>
      </trkpt>
      <trkpt lat="45.51181" lon="6.4021">
        <ele>1997</ele>
        <time>2022-08-08T08:56:51Z</time>
      </trkpt>
      <trkpt lat="45.51182" lon="6.40203">
        <ele>1998</ele>
        <time>2022-08-08T08:57:01Z</time>
      </trkpt>
      <trkpt lat="45.51184" lon="6.40196">
        <ele>1999</ele>
        <time>2022-08-08T08:57:11Z</time>
      </trkpt>
      <trkpt lat="45.5119" lon="6.40175">
        <ele>2001</ele>
        <time>2022-08-08T08:57:41Z</time>
      </trkpt>
      <trkpt lat="45.51196" lon="6.40155">
        <ele>2004</ele>
        <time>2022-08-08T08:58:16Z</time>
      </trkpt>
      <trkpt lat="45.51198" lon="6.40149">
        <ele>2006</ele>
        <time>2022-08-08T08:58:31Z</time>
      </trkpt>
      <trkpt lat="45.51199" lon="6.40142">
        <ele>2009</ele>
        <time>2022-08-08T08:58:47Z</time>
      </trkpt>
      <trkpt lat="45.512" lon="6.40135">
        <ele>2011</ele>
        <time>2022-08-08T08:59:08Z</time>
      </trkpt>
      <trkpt lat="45.51203" lon="6.40128">
        <ele>2013</ele>
        <time>2022-08-08T08:59:23Z</time>
      </trkpt>
      <trkpt lat="45.51204" lon="6.40121">
        <ele>2015</ele>
        <time>2022-08-08T08:59:38Z</time>
      </trkpt>
      <trkpt lat="45.51207" lon="6.40115">
        <ele>2017</ele>
        <time>2022-08-08T08:59:58Z</time>
      </trkpt>
      <trkpt lat="45.51208" lon="6.40108">
        <ele>2019</ele>
        <time>2022-08-08T09:00:28Z</time>
      </trkpt>
      <trkpt lat="45.51211" lon="6.40094">
        <ele>2021</ele>
        <time>2022-08-08T09:00:55Z</time>
      </trkpt>
      <trkpt lat="45.51213" lon="6.40088">
        <ele>2022</ele>
        <time>2022-08-08T09:01:06Z</time>
      </trkpt>
      <trkpt lat="45.51216" lon="6.40065">
        <ele>2025</ele>
        <time>2022-08-08T09:01:36Z</time>
      </trkpt>
      <trkpt lat="45.51217" lon="6.40058">
        <ele>2026</ele>
        <time>2022-08-08T09:01:46Z</time>
      </trkpt>
      <trkpt lat="45.51219" lon="6.4004">
        <ele>2028</ele>
        <time>2022-08-08T09:02:06Z</time>
      </trkpt>
      <trkpt lat="45.51223" lon="6.40015">
        <ele>2030</ele>
        <time>2022-08-08T09:02:36Z</time>
      </trkpt>
      <trkpt lat="45.51225" lon="6.3999">
        <ele>2035</ele>
        <time>2022-08-08T09:03:09Z</time>
      </trkpt>
      <trkpt lat="45.51225" lon="6.39967">
        <ele>2038</ele>
        <time>2022-08-08T09:03:39Z</time>
      </trkpt>
      <trkpt lat="45.51226" lon="6.39959">
        <ele>2039</ele>
        <time>2022-08-08T09:03:49Z</time>
      </trkpt>
      <trkpt lat="45.51225" lon="6.39952">
        <ele>2040</ele>
        <time>2022-08-08T09:03:59Z</time>
      </trkpt>
      <trkpt lat="45.51225" lon="6.3995">
        <ele>2042</ele>
        <time>2022-08-08T09:06:07Z</time>
      </trkpt>
      <trkpt lat="45.51224" lon="6.39943">
        <ele>2043</ele>
        <time>2022-08-08T09:06:37Z</time>
      </trkpt>
      <trkpt lat="45.51223" lon="6.39936">
        <ele>2043</ele>
        <time>2022-08-08T09:07:09Z</time>
      </trkpt>
      <trkpt lat="45.51223" lon="6.39927">
        <ele>2045</ele>
        <time>2022-08-08T09:07:21Z</time>
      </trkpt>
      <trkpt lat="45.5122" lon="6.39919">
        <ele>2046</ele>
        <time>2022-08-08T09:07:31Z</time>
      </trkpt>
      <trkpt lat="45.51218" lon="6.39912">
        <ele>2047</ele>
        <time>2022-08-08T09:07:41Z</time>
      </trkpt>
      <trkpt lat="45.51211" lon="6.399">
        <ele>2050</ele>
        <time>2022-08-08T09:08:11Z</time>
      </trkpt>
      <trkpt lat="45.51203" lon="6.39881">
        <ele>2054</ele>
        <time>2022-08-08T09:08:51Z</time>
      </trkpt>
      <trkpt lat="45.51199" lon="6.39873">
        <ele>2055</ele>
        <time>2022-08-08T09:09:01Z</time>
      </trkpt>
      <trkpt lat="45.51196" lon="6.39858">
        <ele>2058</ele>
        <time>2022-08-08T09:09:23Z</time>
      </trkpt>
      <trkpt lat="45.5119" lon="6.39839">
        <ele>2062</ele>
        <time>2022-08-08T09:09:58Z</time>
      </trkpt>
      <trkpt lat="45.51185" lon="6.39826">
        <ele>2065</ele>
        <time>2022-08-08T09:10:28Z</time>
      </trkpt>
      <trkpt lat="45.51184" lon="6.39818">
        <ele>2067</ele>
        <time>2022-08-08T09:10:43Z</time>
      </trkpt>
      <trkpt lat="45.5118" lon="6.39804">
        <ele>2071</ele>
        <time>2022-08-08T09:11:25Z</time>
      </trkpt>
      <trkpt lat="45.51176" lon="6.39789">
        <ele>2074</ele>
        <time>2022-08-08T09:12:01Z</time>
      </trkpt>
      <trkpt lat="45.51173" lon="6.39784">
        <ele>2076</ele>
        <time>2022-08-08T09:12:11Z</time>
      </trkpt>
      <trkpt lat="45.5117" lon="6.39768">
        <ele>2079</ele>
        <time>2022-08-08T09:12:41Z</time>
      </trkpt>
      <trkpt lat="45.51171" lon="6.39762">
        <ele>2081</ele>
        <time>2022-08-08T09:13:22Z</time>
      </trkpt>
      <trkpt lat="45.51166" lon="6.39756">
        <ele>2083</ele>
        <time>2022-08-08T09:13:39Z</time>
      </trkpt>
      <trkpt lat="45.51163" lon="6.39751">
        <ele>2084</ele>
        <time>2022-08-08T09:14:04Z</time>
      </trkpt>
      <trkpt lat="45.5116" lon="6.39742">
        <ele>2087</ele>
        <time>2022-08-08T09:14:24Z</time>
      </trkpt>
      <trkpt lat="45.51158" lon="6.39734">
        <ele>2088</ele>
        <time>2022-08-08T09:14:59Z</time>
      </trkpt>
      <trkpt lat="45.51157" lon="6.39726">
        <ele>2090</ele>
        <time>2022-08-08T09:15:14Z</time>
      </trkpt>
      <trkpt lat="45.51157" lon="6.39708">
        <ele>2090</ele>
        <time>2022-08-08T09:15:30Z</time>
      </trkpt>
      <trkpt lat="45.51158" lon="6.39689">
        <ele>2094</ele>
        <time>2022-08-08T09:15:53Z</time>
      </trkpt>
      <trkpt lat="45.51161" lon="6.39683">
        <ele>2095</ele>
        <time>2022-08-08T09:16:03Z</time>
      </trkpt>
      <trkpt lat="45.51165" lon="6.39658">
        <ele>2098</ele>
        <time>2022-08-08T09:16:33Z</time>
      </trkpt>
      <trkpt lat="45.51167" lon="6.39649">
        <ele>2098</ele>
        <time>2022-08-08T09:16:43Z</time>
      </trkpt>
      <trkpt lat="45.51166" lon="6.39641">
        <ele>2099</ele>
        <time>2022-08-08T09:17:03Z</time>
      </trkpt>
      <trkpt lat="45.51165" lon="6.39633">
        <ele>2099</ele>
        <time>2022-08-08T09:17:13Z</time>
      </trkpt>
      <trkpt lat="45.51165" lon="6.39626">
        <ele>2100</ele>
        <time>2022-08-08T09:18:19Z</time>
      </trkpt>
      <trkpt lat="45.51162" lon="6.39619">
        <ele>2100</ele>
        <time>2022-08-08T09:18:29Z</time>
      </trkpt>
      <trkpt lat="45.51157" lon="6.39612">
        <ele>2102</ele>
        <time>2022-08-08T09:18:44Z</time>
      </trkpt>
      <trkpt lat="45.51152" lon="6.39609">
        <ele>2104</ele>
        <time>2022-08-08T09:19:19Z</time>
      </trkpt>
      <trkpt lat="45.51147" lon="6.39603">
        <ele>2105</ele>
        <time>2022-08-08T09:19:40Z</time>
      </trkpt>
      <trkpt lat="45.51145" lon="6.39597">
        <ele>2107</ele>
        <time>2022-08-08T09:20:05Z</time>
      </trkpt>
      <trkpt lat="45.51145" lon="6.39589">
        <ele>2108</ele>
        <time>2022-08-08T09:20:30Z</time>
      </trkpt>
      <trkpt lat="45.51149" lon="6.39584">
        <ele>2109</ele>
        <time>2022-08-08T09:20:55Z</time>
      </trkpt>
      <trkpt lat="45.51152" lon="6.39578">
        <ele>2110</ele>
        <time>2022-08-08T09:21:05Z</time>
      </trkpt>
      <trkpt lat="45.51156" lon="6.39571">
        <ele>2111</ele>
        <time>2022-08-08T09:21:15Z</time>
      </trkpt>
      <trkpt lat="45.51158" lon="6.39563">
        <ele>2112</ele>
        <time>2022-08-08T09:21:25Z</time>
      </trkpt>
      <trkpt lat="45.51162" lon="6.39557">
        <ele>2114</ele>
        <time>2022-08-08T09:21:35Z</time>
      </trkpt>
      <trkpt lat="45.51165" lon="6.39539">
        <ele>2115</ele>
        <time>2022-08-08T09:21:56Z</time>
      </trkpt>
      <trkpt lat="45.51164" lon="6.39529">
        <ele>2116</ele>
        <time>2022-08-08T09:22:07Z</time>
      </trkpt>
      <trkpt lat="45.51162" lon="6.39521">
        <ele>2117</ele>
        <time>2022-08-08T09:22:17Z</time>
      </trkpt>
      <trkpt lat="45.51163" lon="6.39511">
        <ele>2118</ele>
        <time>2022-08-08T09:22:27Z</time>
      </trkpt>
      <trkpt lat="45.51167" lon="6.395">
        <ele>2117</ele>
        <time>2022-08-08T09:22:42Z</time>
      </trkpt>
      <trkpt lat="45.51166" lon="6.39493">
        <ele>2117</ele>
        <time>2022-08-08T09:22:49Z</time>
      </trkpt>
      <trkpt lat="45.51163" lon="6.39485">
        <ele>2119</ele>
        <time>2022-08-08T09:22:59Z</time>
      </trkpt>
      <trkpt lat="45.51162" lon="6.39475">
        <ele>2119</ele>
        <time>2022-08-08T09:23:09Z</time>
      </trkpt>
      <trkpt lat="45.51165" lon="6.39468">
        <ele>2119</ele>
        <time>2022-08-08T09:23:19Z</time>
      </trkpt>
      <trkpt lat="45.51172" lon="6.39438">
        <ele>2123</ele>
        <time>2022-08-08T09:24:01Z</time>
      </trkpt>
      <trkpt lat="45.51175" lon="6.39432">
        <ele>2124</ele>
        <time>2022-08-08T09:24:11Z</time>
      </trkpt>
      <trkpt lat="45.51183" lon="6.39421">
        <ele>2126</ele>
        <time>2022-08-08T09:24:32Z</time>
      </trkpt>
      <trkpt lat="45.51185" lon="6.39413">
        <ele>2128</ele>
        <time>2022-08-08T09:24:47Z</time>
      </trkpt>
      <trkpt lat="45.51187" lon="6.39402">
        <ele>2129</ele>
        <time>2022-08-08T09:24:58Z</time>
      </trkpt>
      <trkpt lat="45.51191" lon="6.39397">
        <ele>2130</ele>
        <time>2022-08-08T09:25:13Z</time>
      </trkpt>
      <trkpt lat="45.51201" lon="6.39388">
        <ele>2131</ele>
        <time>2022-08-08T09:25:33Z</time>
      </trkpt>
      <trkpt lat="45.51207" lon="6.3939">
        <ele>2132</ele>
        <time>2022-08-08T09:25:43Z</time>
      </trkpt>
      <trkpt lat="45.51212" lon="6.39383">
        <ele>2134</ele>
        <time>2022-08-08T09:25:53Z</time>
      </trkpt>
      <trkpt lat="45.51231" lon="6.39383">
        <ele>2137</ele>
        <time>2022-08-08T09:26:26Z</time>
      </trkpt>
      <trkpt lat="45.51238" lon="6.39384">
        <ele>2139</ele>
        <time>2022-08-08T09:26:41Z</time>
      </trkpt>
      <trkpt lat="45.51241" lon="6.39378">
        <ele>2140</ele>
        <time>2022-08-08T09:26:56Z</time>
      </trkpt>
      <trkpt lat="45.51252" lon="6.39372">
        <ele>2142</ele>
        <time>2022-08-08T09:27:36Z</time>
      </trkpt>
      <trkpt lat="45.51257" lon="6.39373">
        <ele>2143</ele>
        <time>2022-08-08T09:27:56Z</time>
      </trkpt>
      <trkpt lat="45.51262" lon="6.39371">
        <ele>2145</ele>
        <time>2022-08-08T09:28:07Z</time>
      </trkpt>
      <trkpt lat="45.51266" lon="6.39371">
        <ele>2146</ele>
        <time>2022-08-08T09:28:19Z</time>
      </trkpt>
      <trkpt lat="45.51269" lon="6.39367">
        <ele>2147</ele>
        <time>2022-08-08T09:28:29Z</time>
      </trkpt>
      <trkpt lat="45.51274" lon="6.39368">
        <ele>2150</ele>
        <time>2022-08-08T09:28:44Z</time>
      </trkpt>
      <trkpt lat="45.51283" lon="6.3936">
        <ele>2152</ele>
        <time>2022-08-08T09:29:04Z</time>
      </trkpt>
      <trkpt lat="45.51287" lon="6.39367">
        <ele>2154</ele>
        <time>2022-08-08T09:29:19Z</time>
      </trkpt>
      <trkpt lat="45.5129" lon="6.39371">
        <ele>2156</ele>
        <time>2022-08-08T09:29:29Z</time>
      </trkpt>
      <trkpt lat="45.51298" lon="6.39369">
        <ele>2155</ele>
        <time>2022-08-08T09:29:39Z</time>
      </trkpt>
      <trkpt lat="45.51302" lon="6.39367">
        <ele>2156</ele>
        <time>2022-08-08T09:29:47Z</time>
      </trkpt>
      <trkpt lat="45.51306" lon="6.39363">
        <ele>2156</ele>
        <time>2022-08-08T09:30:02Z</time>
      </trkpt>
      <trkpt lat="45.51316" lon="6.39353">
        <ele>2158</ele>
        <time>2022-08-08T09:30:25Z</time>
      </trkpt>
      <trkpt lat="45.5132" lon="6.39351">
        <ele>2160</ele>
        <time>2022-08-08T09:30:35Z</time>
      </trkpt>
      <trkpt lat="45.51324" lon="6.39346">
        <ele>2162</ele>
        <time>2022-08-08T09:30:50Z</time>
      </trkpt>
      <trkpt lat="45.51328" lon="6.39344">
        <ele>2164</ele>
        <time>2022-08-08T09:31:05Z</time>
      </trkpt>
      <trkpt lat="45.51332" lon="6.39339">
        <ele>2166</ele>
        <time>2022-08-08T09:31:30Z</time>
      </trkpt>
      <trkpt lat="45.51337" lon="6.39334">
        <ele>2168</ele>
        <time>2022-08-08T09:31:50Z</time>
      </trkpt>
      <trkpt lat="45.51342" lon="6.3934">
        <ele>2171</ele>
        <time>2022-08-08T09:32:05Z</time>
      </trkpt>
      <trkpt lat="45.51346" lon="6.39341">
        <ele>2172</ele>
        <time>2022-08-08T09:32:16Z</time>
      </trkpt>
      <trkpt lat="45.51351" lon="6.3934">
        <ele>2174</ele>
        <time>2022-08-08T09:32:48Z</time>
      </trkpt>
      <trkpt lat="45.51356" lon="6.3934">
        <ele>2176</ele>
        <time>2022-08-08T09:33:03Z</time>
      </trkpt>
      <trkpt lat="45.51358" lon="6.39335">
        <ele>2177</ele>
        <time>2022-08-08T09:33:13Z</time>
      </trkpt>
      <trkpt lat="45.51359" lon="6.39328">
        <ele>2179</ele>
        <time>2022-08-08T09:33:28Z</time>
      </trkpt>
      <trkpt lat="45.51362" lon="6.39323">
        <ele>2182</ele>
        <time>2022-08-08T09:33:48Z</time>
      </trkpt>
      <trkpt lat="45.51364" lon="6.39317">
        <ele>2184</ele>
        <time>2022-08-08T09:34:03Z</time>
      </trkpt>
      <trkpt lat="45.51362" lon="6.39311">
        <ele>2187</ele>
        <time>2022-08-08T09:34:30Z</time>
      </trkpt>
      <trkpt lat="45.51366" lon="6.39305">
        <ele>2187</ele>
        <time>2022-08-08T09:35:36Z</time>
      </trkpt>
      <trkpt lat="45.51365" lon="6.39299">
        <ele>2189</ele>
        <time>2022-08-08T09:35:51Z</time>
      </trkpt>
      <trkpt lat="45.5136" lon="6.39293">
        <ele>2190</ele>
        <time>2022-08-08T09:36:01Z</time>
      </trkpt>
      <trkpt lat="45.51358" lon="6.39286">
        <ele>2191</ele>
        <time>2022-08-08T09:36:11Z</time>
      </trkpt>
      <trkpt lat="45.51362" lon="6.39271">
        <ele>2195</ele>
        <time>2022-08-08T09:36:45Z</time>
      </trkpt>
      <trkpt lat="45.51367" lon="6.39267">
        <ele>2196</ele>
        <time>2022-08-08T09:36:55Z</time>
      </trkpt>
      <trkpt lat="45.51372" lon="6.39267">
        <ele>2197</ele>
        <time>2022-08-08T09:37:05Z</time>
      </trkpt>
      <trkpt lat="45.51376" lon="6.39268">
        <ele>2198</ele>
        <time>2022-08-08T09:37:25Z</time>
      </trkpt>
      <trkpt lat="45.51381" lon="6.39267">
        <ele>2198</ele>
        <time>2022-08-08T09:37:40Z</time>
      </trkpt>
      <trkpt lat="45.51385" lon="6.39265">
        <ele>2199</ele>
        <time>2022-08-08T09:37:55Z</time>
      </trkpt>
      <trkpt lat="45.51392" lon="6.39254">
        <ele>2202</ele>
        <time>2022-08-08T09:38:30Z</time>
      </trkpt>
      <trkpt lat="45.51401" lon="6.39246">
        <ele>2205</ele>
        <time>2022-08-08T09:38:52Z</time>
      </trkpt>
      <trkpt lat="45.51406" lon="6.39248">
        <ele>2206</ele>
        <time>2022-08-08T09:40:22Z</time>
      </trkpt>
      <trkpt lat="45.51411" lon="6.39243">
        <ele>2209</ele>
        <time>2022-08-08T09:40:37Z</time>
      </trkpt>
      <trkpt lat="45.51414" lon="6.39239">
        <ele>2211</ele>
        <time>2022-08-08T09:40:53Z</time>
      </trkpt>
      <trkpt lat="45.51419" lon="6.39234">
        <ele>2213</ele>
        <time>2022-08-08T09:41:13Z</time>
      </trkpt>
      <trkpt lat="45.51431" lon="6.39241">
        <ele>2215</ele>
        <time>2022-08-08T09:41:33Z</time>
      </trkpt>
      <trkpt lat="45.51435" lon="6.39235">
        <ele>2216</ele>
        <time>2022-08-08T09:41:43Z</time>
      </trkpt>
      <trkpt lat="45.5144" lon="6.39234">
        <ele>2218</ele>
        <time>2022-08-08T09:41:58Z</time>
      </trkpt>
      <trkpt lat="45.51449" lon="6.39229">
        <ele>2221</ele>
        <time>2022-08-08T09:42:18Z</time>
      </trkpt>
      <trkpt lat="45.51451" lon="6.39223">
        <ele>2222</ele>
        <time>2022-08-08T09:42:28Z</time>
      </trkpt>
      <trkpt lat="45.51457" lon="6.39224">
        <ele>2225</ele>
        <time>2022-08-08T09:42:43Z</time>
      </trkpt>
      <trkpt lat="45.51463" lon="6.39222">
        <ele>2227</ele>
        <time>2022-08-08T09:42:59Z</time>
      </trkpt>
      <trkpt lat="45.51465" lon="6.39216">
        <ele>2229</ele>
        <time>2022-08-08T09:43:14Z</time>
      </trkpt>
      <trkpt lat="45.5147" lon="6.39214">
        <ele>2231</ele>
        <time>2022-08-08T09:43:29Z</time>
      </trkpt>
      <trkpt lat="45.51475" lon="6.39214">
        <ele>2233</ele>
        <time>2022-08-08T09:43:44Z</time>
      </trkpt>
      <trkpt lat="45.51478" lon="6.39207">
        <ele>2236</ele>
        <time>2022-08-08T09:44:09Z</time>
      </trkpt>
      <trkpt lat="45.51482" lon="6.39206">
        <ele>2239</ele>
        <time>2022-08-08T09:44:24Z</time>
      </trkpt>
      <trkpt lat="45.51486" lon="6.39201">
        <ele>2241</ele>
        <time>2022-08-08T09:44:34Z</time>
      </trkpt>
      <trkpt lat="45.51482" lon="6.39197">
        <ele>2242</ele>
        <time>2022-08-08T09:44:44Z</time>
      </trkpt>
      <trkpt lat="45.5148" lon="6.39189">
        <ele>2245</ele>
        <time>2022-08-08T09:45:01Z</time>
      </trkpt>
      <trkpt lat="45.51478" lon="6.39183">
        <ele>2247</ele>
        <time>2022-08-08T09:45:12Z</time>
      </trkpt>
      <trkpt lat="45.51479" lon="6.39176">
        <ele>2248</ele>
        <time>2022-08-08T09:45:22Z</time>
      </trkpt>
      <trkpt lat="45.51472" lon="6.3916">
        <ele>2251</ele>
        <time>2022-08-08T09:45:42Z</time>
      </trkpt>
      <trkpt lat="45.51482" lon="6.39133">
        <ele>2254</ele>
        <time>2022-08-08T09:46:10Z</time>
      </trkpt>
      <trkpt lat="45.51479" lon="6.39127">
        <ele>2255</ele>
        <time>2022-08-08T09:46:15Z</time>
      </trkpt>
      <trkpt lat="45.51479" lon="6.39118">
        <ele>2256</ele>
        <time>2022-08-08T09:46:23Z</time>
      </trkpt>
      <trkpt lat="45.51478" lon="6.39109">
        <ele>2256</ele>
        <time>2022-08-08T09:46:30Z</time>
      </trkpt>
      <trkpt lat="45.51477" lon="6.391">
        <ele>2255</ele>
        <time>2022-08-08T09:46:38Z</time>
      </trkpt>
      <trkpt lat="45.51479" lon="6.39091">
        <ele>2254</ele>
        <time>2022-08-08T09:46:46Z</time>
      </trkpt>
      <trkpt lat="45.5148" lon="6.39085">
        <ele>2254</ele>
        <time>2022-08-08T09:46:51Z</time>
      </trkpt>
      <trkpt lat="45.51484" lon="6.39063">
        <ele>2254</ele>
        <time>2022-08-08T09:47:12Z</time>
      </trkpt>
      <trkpt lat="45.51477" lon="6.39062">
        <ele>2254</ele>
        <time>2022-08-08T09:47:38Z</time>
      </trkpt>
      <trkpt lat="45.51473" lon="6.39067">
        <ele>2254</ele>
        <time>2022-08-08T09:47:42Z</time>
      </trkpt>
      <trkpt lat="45.51467" lon="6.39068">
        <ele>2254</ele>
        <time>2022-08-08T09:47:49Z</time>
      </trkpt>
      <trkpt lat="45.51463" lon="6.39064">
        <ele>2254</ele>
        <time>2022-08-08T09:47:53Z</time>
      </trkpt>
      <trkpt lat="45.51467" lon="6.3905">
        <ele>2254</ele>
        <time>2022-08-08T09:48:02Z</time>
      </trkpt>
      <trkpt lat="45.51466" lon="6.39044">
        <ele>2254</ele>
        <time>2022-08-08T09:48:07Z</time>
      </trkpt>
      <trkpt lat="45.51462" lon="6.39038">
        <ele>2255</ele>
        <time>2022-08-08T09:48:15Z</time>
      </trkpt>
      <trkpt lat="45.51462" lon="6.39041">
        <ele>2256</ele>
        <time>2022-08-08T09:48:46Z</time>
      </trkpt>
      <trkpt lat="45.51466" lon="6.39045">
        <ele>2254</ele>
        <time>2022-08-08T09:49:13Z</time>
      </trkpt>
      <trkpt lat="45.51463" lon="6.39054">
        <ele>2256</ele>
        <time>2022-08-08T09:55:10Z</time>
      </trkpt>
      <trkpt lat="45.51462" lon="6.39064">
        <ele>2256</ele>
        <time>2022-08-08T09:55:33Z</time>
      </trkpt>
      <trkpt lat="45.51469" lon="6.39069">
        <ele>2255</ele>
        <time>2022-08-08T09:55:49Z</time>
      </trkpt>
      <trkpt lat="45.51473" lon="6.39068">
        <ele>2255</ele>
        <time>2022-08-08T09:56:06Z</time>
      </trkpt>
      <trkpt lat="45.51479" lon="6.39068">
        <ele>2255</ele>
        <time>2022-08-08T09:56:16Z</time>
      </trkpt>
      <trkpt lat="45.51483" lon="6.39067">
        <ele>2255</ele>
        <time>2022-08-08T09:56:26Z</time>
      </trkpt>
      <trkpt lat="45.51484" lon="6.39068">
        <ele>2255</ele>
        <time>2022-08-08T10:03:46Z</time>
      </trkpt>
      <trkpt lat="45.51484" lon="6.39068">
        <ele>2255</ele>
        <time>2022-08-08T10:03:50Z</time>
      </trkpt>
      <trkpt lat="45.51483" lon="6.39067">
        <ele>2257</ele>
        <time>2022-08-08T10:18:18Z</time>
      </trkpt>
      <trkpt lat="45.51482" lon="6.39076">
        <ele>2257</ele>
        <time>2022-08-08T10:22:55Z</time>
      </trkpt>
      <trkpt lat="45.5148" lon="6.39083">
        <ele>2257</ele>
        <time>2022-08-08T10:23:06Z</time>
      </trkpt>
      <trkpt lat="45.51478" lon="6.39091">
        <ele>2258</ele>
        <time>2022-08-08T10:23:17Z</time>
      </trkpt>
      <trkpt lat="45.51475" lon="6.391">
        <ele>2257</ele>
        <time>2022-08-08T10:23:27Z</time>
      </trkpt>
      <trkpt lat="45.51473" lon="6.3911">
        <ele>2258</ele>
        <time>2022-08-08T10:23:37Z</time>
      </trkpt>
      <trkpt lat="45.51471" lon="6.39116">
        <ele>2258</ele>
        <time>2022-08-08T10:23:47Z</time>
      </trkpt>
      <trkpt lat="45.51466" lon="6.39138">
        <ele>2254</ele>
        <time>2022-08-08T10:24:10Z</time>
      </trkpt>
      <trkpt lat="45.51464" lon="6.39148">
        <ele>2253</ele>
        <time>2022-08-08T10:24:26Z</time>
      </trkpt>
      <trkpt lat="45.51463" lon="6.39155">
        <ele>2253</ele>
        <time>2022-08-08T10:24:28Z</time>
      </trkpt>
      <trkpt lat="45.51463" lon="6.39164">
        <ele>2252</ele>
        <time>2022-08-08T10:24:41Z</time>
      </trkpt>
      <trkpt lat="45.51471" lon="6.39164">
        <ele>2253</ele>
        <time>2022-08-08T10:25:02Z</time>
      </trkpt>
      <trkpt lat="45.51478" lon="6.39171">
        <ele>2252</ele>
        <time>2022-08-08T10:25:13Z</time>
      </trkpt>
      <trkpt lat="45.51492" lon="6.39183">
        <ele>2250</ele>
        <time>2022-08-08T10:25:31Z</time>
      </trkpt>
      <trkpt lat="45.51496" lon="6.39189">
        <ele>2248</ele>
        <time>2022-08-08T10:25:37Z</time>
      </trkpt>
      <trkpt lat="45.51488" lon="6.392">
        <ele>2244</ele>
        <time>2022-08-08T10:25:54Z</time>
      </trkpt>
      <trkpt lat="45.51484" lon="6.39205">
        <ele>2242</ele>
        <time>2022-08-08T10:26:04Z</time>
      </trkpt>
      <trkpt lat="45.51485" lon="6.39214">
        <ele>2239</ele>
        <time>2022-08-08T10:26:21Z</time>
      </trkpt>
      <trkpt lat="45.51481" lon="6.39217">
        <ele>2236</ele>
        <time>2022-08-08T10:26:31Z</time>
      </trkpt>
      <trkpt lat="45.51479" lon="6.39235">
        <ele>2230</ele>
        <time>2022-08-08T10:26:57Z</time>
      </trkpt>
      <trkpt lat="45.5147" lon="6.39237">
        <ele>2227</ele>
        <time>2022-08-08T10:27:10Z</time>
      </trkpt>
      <trkpt lat="45.51454" lon="6.39255">
        <ele>2220</ele>
        <time>2022-08-08T10:27:37Z</time>
      </trkpt>
      <trkpt lat="45.51437" lon="6.39265">
        <ele>2217</ele>
        <time>2022-08-08T10:27:56Z</time>
      </trkpt>
      <trkpt lat="45.51432" lon="6.39268">
        <ele>2215</ele>
        <time>2022-08-08T10:28:06Z</time>
      </trkpt>
      <trkpt lat="45.51425" lon="6.39264">
        <ele>2212</ele>
        <time>2022-08-08T10:28:16Z</time>
      </trkpt>
      <trkpt lat="45.51412" lon="6.39275">
        <ele>2207</ele>
        <time>2022-08-08T10:28:34Z</time>
      </trkpt>
      <trkpt lat="45.51407" lon="6.39276">
        <ele>2205</ele>
        <time>2022-08-08T10:28:41Z</time>
      </trkpt>
      <trkpt lat="45.51405" lon="6.39282">
        <ele>2204</ele>
        <time>2022-08-08T10:28:46Z</time>
      </trkpt>
      <trkpt lat="45.51407" lon="6.39296">
        <ele>2202</ele>
        <time>2022-08-08T10:28:56Z</time>
      </trkpt>
      <trkpt lat="45.51407" lon="6.39303">
        <ele>2201</ele>
        <time>2022-08-08T10:29:03Z</time>
      </trkpt>
      <trkpt lat="45.51404" lon="6.39308">
        <ele>2200</ele>
        <time>2022-08-08T10:29:08Z</time>
      </trkpt>
      <trkpt lat="45.51402" lon="6.39314">
        <ele>2199</ele>
        <time>2022-08-08T10:29:14Z</time>
      </trkpt>
      <trkpt lat="45.51396" lon="6.39318">
        <ele>2196</ele>
        <time>2022-08-08T10:29:26Z</time>
      </trkpt>
      <trkpt lat="45.51394" lon="6.39326">
        <ele>2194</ele>
        <time>2022-08-08T10:29:36Z</time>
      </trkpt>
      <trkpt lat="45.51394" lon="6.39338">
        <ele>2191</ele>
        <time>2022-08-08T10:29:46Z</time>
      </trkpt>
      <trkpt lat="45.51397" lon="6.39356">
        <ele>2187</ele>
        <time>2022-08-08T10:30:06Z</time>
      </trkpt>
      <trkpt lat="45.51397" lon="6.39362">
        <ele>2186</ele>
        <time>2022-08-08T10:30:21Z</time>
      </trkpt>
      <trkpt lat="45.51398" lon="6.39371">
        <ele>2185</ele>
        <time>2022-08-08T10:30:41Z</time>
      </trkpt>
      <trkpt lat="45.51396" lon="6.3938">
        <ele>2184</ele>
        <time>2022-08-08T10:30:51Z</time>
      </trkpt>
      <trkpt lat="45.51394" lon="6.39388">
        <ele>2182</ele>
        <time>2022-08-08T10:31:01Z</time>
      </trkpt>
      <trkpt lat="45.5139" lon="6.3941">
        <ele>2178</ele>
        <time>2022-08-08T10:31:34Z</time>
      </trkpt>
      <trkpt lat="45.51386" lon="6.39414">
        <ele>2179</ele>
        <time>2022-08-08T10:33:25Z</time>
      </trkpt>
      <trkpt lat="45.51374" lon="6.39421">
        <ele>2173</ele>
        <time>2022-08-08T10:33:46Z</time>
      </trkpt>
      <trkpt lat="45.5137" lon="6.39425">
        <ele>2172</ele>
        <time>2022-08-08T10:33:52Z</time>
      </trkpt>
      <trkpt lat="45.51364" lon="6.39428">
        <ele>2169</ele>
        <time>2022-08-08T10:34:00Z</time>
      </trkpt>
      <trkpt lat="45.51362" lon="6.39434">
        <ele>2168</ele>
        <time>2022-08-08T10:34:05Z</time>
      </trkpt>
      <trkpt lat="45.51358" lon="6.39438">
        <ele>2167</ele>
        <time>2022-08-08T10:34:10Z</time>
      </trkpt>
      <trkpt lat="45.51354" lon="6.3944">
        <ele>2166</ele>
        <time>2022-08-08T10:34:14Z</time>
      </trkpt>
      <trkpt lat="45.5135" lon="6.39444">
        <ele>2166</ele>
        <time>2022-08-08T10:34:18Z</time>
      </trkpt>
      <trkpt lat="45.51343" lon="6.39454">
        <ele>2164</ele>
        <time>2022-08-08T10:34:26Z</time>
      </trkpt>
      <trkpt lat="45.51338" lon="6.39474">
        <ele>2163</ele>
        <time>2022-08-08T10:34:39Z</time>
      </trkpt>
      <trkpt lat="45.51338" lon="6.39482">
        <ele>2162</ele>
        <time>2022-08-08T10:34:44Z</time>
      </trkpt>
      <trkpt lat="45.51332" lon="6.39492">
        <ele>2163</ele>
        <time>2022-08-08T10:34:53Z</time>
      </trkpt>
      <trkpt lat="45.51333" lon="6.39499">
        <ele>2162</ele>
        <time>2022-08-08T10:34:57Z</time>
      </trkpt>
      <trkpt lat="45.51328" lon="6.39501">
        <ele>2160</ele>
        <time>2022-08-08T10:35:09Z</time>
      </trkpt>
      <trkpt lat="45.51324" lon="6.39511">
        <ele>2158</ele>
        <time>2022-08-08T10:35:19Z</time>
      </trkpt>
      <trkpt lat="45.5132" lon="6.39517">
        <ele>2158</ele>
        <time>2022-08-08T10:35:24Z</time>
      </trkpt>
      <trkpt lat="45.51318" lon="6.39523">
        <ele>2157</ele>
        <time>2022-08-08T10:35:28Z</time>
      </trkpt>
      <trkpt lat="45.51315" lon="6.39527">
        <ele>2157</ele>
        <time>2022-08-08T10:35:32Z</time>
      </trkpt>
      <trkpt lat="45.51305" lon="6.39532">
        <ele>2156</ele>
        <time>2022-08-08T10:35:43Z</time>
      </trkpt>
      <trkpt lat="45.513" lon="6.39532">
        <ele>2155</ele>
        <time>2022-08-08T10:35:47Z</time>
      </trkpt>
      <trkpt lat="45.51296" lon="6.39531">
        <ele>2154</ele>
        <time>2022-08-08T10:35:51Z</time>
      </trkpt>
      <trkpt lat="45.51292" lon="6.39533">
        <ele>2155</ele>
        <time>2022-08-08T10:35:55Z</time>
      </trkpt>
      <trkpt lat="45.51288" lon="6.3953">
        <ele>2154</ele>
        <time>2022-08-08T10:35:59Z</time>
      </trkpt>
      <trkpt lat="45.51283" lon="6.3953">
        <ele>2154</ele>
        <time>2022-08-08T10:36:03Z</time>
      </trkpt>
      <trkpt lat="45.51278" lon="6.3953">
        <ele>2153</ele>
        <time>2022-08-08T10:36:07Z</time>
      </trkpt>
      <trkpt lat="45.51273" lon="6.39529">
        <ele>2152</ele>
        <time>2022-08-08T10:36:11Z</time>
      </trkpt>
      <trkpt lat="45.51261" lon="6.3954">
        <ele>2153</ele>
        <time>2022-08-08T10:36:25Z</time>
      </trkpt>
      <trkpt lat="45.51263" lon="6.3955">
        <ele>2150</ele>
        <time>2022-08-08T10:37:02Z</time>
      </trkpt>
      <trkpt lat="45.51261" lon="6.39556">
        <ele>2148</ele>
        <time>2022-08-08T10:37:09Z</time>
      </trkpt>
      <trkpt lat="45.51256" lon="6.39564">
        <ele>2144</ele>
        <time>2022-08-08T10:37:19Z</time>
      </trkpt>
      <trkpt lat="45.5125" lon="6.39567">
        <ele>2141</ele>
        <time>2022-08-08T10:37:29Z</time>
      </trkpt>
      <trkpt lat="45.51246" lon="6.39564">
        <ele>2139</ele>
        <time>2022-08-08T10:37:35Z</time>
      </trkpt>
      <trkpt lat="45.5124" lon="6.39564">
        <ele>2136</ele>
        <time>2022-08-08T10:37:45Z</time>
      </trkpt>
      <trkpt lat="45.51239" lon="6.3957">
        <ele>2134</ele>
        <time>2022-08-08T10:37:51Z</time>
      </trkpt>
      <trkpt lat="45.51231" lon="6.39578">
        <ele>2130</ele>
        <time>2022-08-08T10:38:04Z</time>
      </trkpt>
      <trkpt lat="45.51227" lon="6.3958">
        <ele>2129</ele>
        <time>2022-08-08T10:38:09Z</time>
      </trkpt>
      <trkpt lat="45.51224" lon="6.39585">
        <ele>2127</ele>
        <time>2022-08-08T10:38:14Z</time>
      </trkpt>
      <trkpt lat="45.51222" lon="6.39591">
        <ele>2126</ele>
        <time>2022-08-08T10:38:18Z</time>
      </trkpt>
      <trkpt lat="45.51222" lon="6.39597">
        <ele>2126</ele>
        <time>2022-08-08T10:38:22Z</time>
      </trkpt>
      <trkpt lat="45.51221" lon="6.39603">
        <ele>2126</ele>
        <time>2022-08-08T10:38:27Z</time>
      </trkpt>
      <trkpt lat="45.51211" lon="6.39609">
        <ele>2123</ele>
        <time>2022-08-08T10:38:44Z</time>
      </trkpt>
      <trkpt lat="45.51205" lon="6.39627">
        <ele>2119</ele>
        <time>2022-08-08T10:39:04Z</time>
      </trkpt>
      <trkpt lat="45.512" lon="6.3963">
        <ele>2117</ele>
        <time>2022-08-08T10:39:24Z</time>
      </trkpt>
      <trkpt lat="45.51193" lon="6.39633">
        <ele>2113</ele>
        <time>2022-08-08T10:39:40Z</time>
      </trkpt>
      <trkpt lat="45.51191" lon="6.39639">
        <ele>2110</ele>
        <time>2022-08-08T10:39:52Z</time>
      </trkpt>
      <trkpt lat="45.51185" lon="6.39641">
        <ele>2108</ele>
        <time>2022-08-08T10:40:03Z</time>
      </trkpt>
      <trkpt lat="45.51179" lon="6.39648">
        <ele>2105</ele>
        <time>2022-08-08T10:40:13Z</time>
      </trkpt>
      <trkpt lat="45.51173" lon="6.39645">
        <ele>2103</ele>
        <time>2022-08-08T10:40:19Z</time>
      </trkpt>
      <trkpt lat="45.51168" lon="6.39651">
        <ele>2100</ele>
        <time>2022-08-08T10:40:27Z</time>
      </trkpt>
      <trkpt lat="45.51164" lon="6.39656">
        <ele>2100</ele>
        <time>2022-08-08T10:40:31Z</time>
      </trkpt>
      <trkpt lat="45.51162" lon="6.3967">
        <ele>2098</ele>
        <time>2022-08-08T10:40:42Z</time>
      </trkpt>
      <trkpt lat="45.51161" lon="6.39677">
        <ele>2098</ele>
        <time>2022-08-08T10:40:46Z</time>
      </trkpt>
      <trkpt lat="45.51158" lon="6.3969">
        <ele>2097</ele>
        <time>2022-08-08T10:40:56Z</time>
      </trkpt>
      <trkpt lat="45.51155" lon="6.39711">
        <ele>2092</ele>
        <time>2022-08-08T10:41:12Z</time>
      </trkpt>
      <trkpt lat="45.51157" lon="6.39716">
        <ele>2092</ele>
        <time>2022-08-08T10:41:16Z</time>
      </trkpt>
      <trkpt lat="45.51158" lon="6.3973">
        <ele>2092</ele>
        <time>2022-08-08T10:41:26Z</time>
      </trkpt>
      <trkpt lat="45.51157" lon="6.39726">
        <ele>2091</ele>
        <time>2022-08-08T10:45:38Z</time>
      </trkpt>
      <trkpt lat="45.51156" lon="6.39707">
        <ele>2092</ele>
        <time>2022-08-08T10:45:49Z</time>
      </trkpt>
      <trkpt lat="45.51158" lon="6.3969">
        <ele>2094</ele>
        <time>2022-08-08T10:46:04Z</time>
      </trkpt>
      <trkpt lat="45.5116" lon="6.39683">
        <ele>2096</ele>
        <time>2022-08-08T10:46:11Z</time>
      </trkpt>
      <trkpt lat="45.51162" lon="6.39673">
        <ele>2097</ele>
        <time>2022-08-08T10:46:21Z</time>
      </trkpt>
      <trkpt lat="45.51163" lon="6.39665">
        <ele>2098</ele>
        <time>2022-08-08T10:46:26Z</time>
      </trkpt>
      <trkpt lat="45.51167" lon="6.39653">
        <ele>2099</ele>
        <time>2022-08-08T10:46:35Z</time>
      </trkpt>
      <trkpt lat="45.51167" lon="6.39646">
        <ele>2100</ele>
        <time>2022-08-08T10:46:39Z</time>
      </trkpt>
      <trkpt lat="45.51165" lon="6.3964">
        <ele>2100</ele>
        <time>2022-08-08T10:46:43Z</time>
      </trkpt>
      <trkpt lat="45.51163" lon="6.39621">
        <ele>2101</ele>
        <time>2022-08-08T10:46:55Z</time>
      </trkpt>
      <trkpt lat="45.51159" lon="6.39618">
        <ele>2102</ele>
        <time>2022-08-08T10:46:59Z</time>
      </trkpt>
      <trkpt lat="45.51156" lon="6.3961">
        <ele>2103</ele>
        <time>2022-08-08T10:47:06Z</time>
      </trkpt>
      <trkpt lat="45.51147" lon="6.39605">
        <ele>2105</ele>
        <time>2022-08-08T10:47:18Z</time>
      </trkpt>
      <trkpt lat="45.51144" lon="6.396">
        <ele>2107</ele>
        <time>2022-08-08T10:47:23Z</time>
      </trkpt>
      <trkpt lat="45.51141" lon="6.39593">
        <ele>2108</ele>
        <time>2022-08-08T10:47:30Z</time>
      </trkpt>
      <trkpt lat="45.51144" lon="6.39585">
        <ele>2109</ele>
        <time>2022-08-08T10:47:37Z</time>
      </trkpt>
      <trkpt lat="45.51143" lon="6.39577">
        <ele>2110</ele>
        <time>2022-08-08T10:47:44Z</time>
      </trkpt>
      <trkpt lat="45.51142" lon="6.39569">
        <ele>2111</ele>
        <time>2022-08-08T10:47:52Z</time>
      </trkpt>
      <trkpt lat="45.51141" lon="6.39559">
        <ele>2113</ele>
        <time>2022-08-08T10:48:01Z</time>
      </trkpt>
      <trkpt lat="45.5114" lon="6.3955">
        <ele>2114</ele>
        <time>2022-08-08T10:48:08Z</time>
      </trkpt>
      <trkpt lat="45.51134" lon="6.39534">
        <ele>2117</ele>
        <time>2022-08-08T10:48:22Z</time>
      </trkpt>
      <trkpt lat="45.51125" lon="6.39527">
        <ele>2118</ele>
        <time>2022-08-08T10:48:33Z</time>
      </trkpt>
      <trkpt lat="45.5112" lon="6.39526">
        <ele>2118</ele>
        <time>2022-08-08T10:48:37Z</time>
      </trkpt>
      <trkpt lat="45.51117" lon="6.39522">
        <ele>2118</ele>
        <time>2022-08-08T10:48:41Z</time>
      </trkpt>
      <trkpt lat="45.51111" lon="6.39518">
        <ele>2118</ele>
        <time>2022-08-08T10:48:51Z</time>
      </trkpt>
      <trkpt lat="45.51107" lon="6.39512">
        <ele>2120</ele>
        <time>2022-08-08T10:49:01Z</time>
      </trkpt>
      <trkpt lat="45.51099" lon="6.3951">
        <ele>2123</ele>
        <time>2022-08-08T10:49:13Z</time>
      </trkpt>
      <trkpt lat="45.51091" lon="6.39517">
        <ele>2124</ele>
        <time>2022-08-08T10:49:23Z</time>
      </trkpt>
      <trkpt lat="45.51071" lon="6.39504">
        <ele>2128</ele>
        <time>2022-08-08T10:49:49Z</time>
      </trkpt>
      <trkpt lat="45.51062" lon="6.3949">
        <ele>2129</ele>
        <time>2022-08-08T10:50:02Z</time>
      </trkpt>
      <trkpt lat="45.51056" lon="6.39486">
        <ele>2131</ele>
        <time>2022-08-08T10:50:12Z</time>
      </trkpt>
      <trkpt lat="45.51051" lon="6.39485">
        <ele>2133</ele>
        <time>2022-08-08T10:50:19Z</time>
      </trkpt>
      <trkpt lat="45.51048" lon="6.3948">
        <ele>2135</ele>
        <time>2022-08-08T10:50:30Z</time>
      </trkpt>
      <trkpt lat="45.51042" lon="6.39477">
        <ele>2139</ele>
        <time>2022-08-08T10:50:50Z</time>
      </trkpt>
      <trkpt lat="45.51039" lon="6.3947">
        <ele>2142</ele>
        <time>2022-08-08T10:51:05Z</time>
      </trkpt>
      <trkpt lat="45.51042" lon="6.39462">
        <ele>2145</ele>
        <time>2022-08-08T10:51:20Z</time>
      </trkpt>
      <trkpt lat="45.51036" lon="6.39459">
        <ele>2148</ele>
        <time>2022-08-08T10:51:31Z</time>
      </trkpt>
      <trkpt lat="45.51022" lon="6.3945">
        <ele>2153</ele>
        <time>2022-08-08T10:52:01Z</time>
      </trkpt>
      <trkpt lat="45.51018" lon="6.39449">
        <ele>2155</ele>
        <time>2022-08-08T10:52:11Z</time>
      </trkpt>
      <trkpt lat="45.51013" lon="6.39444">
        <ele>2158</ele>
        <time>2022-08-08T10:52:28Z</time>
      </trkpt>
      <trkpt lat="45.51007" lon="6.39443">
        <ele>2162</ele>
        <time>2022-08-08T10:52:44Z</time>
      </trkpt>
      <trkpt lat="45.51002" lon="6.39446">
        <ele>2165</ele>
        <time>2022-08-08T10:52:59Z</time>
      </trkpt>
      <trkpt lat="45.50996" lon="6.39454">
        <ele>2167</ele>
        <time>2022-08-08T10:53:13Z</time>
      </trkpt>
      <trkpt lat="45.50992" lon="6.39458">
        <ele>2169</ele>
        <time>2022-08-08T10:53:25Z</time>
      </trkpt>
      <trkpt lat="45.50987" lon="6.39466">
        <ele>2170</ele>
        <time>2022-08-08T10:53:35Z</time>
      </trkpt>
      <trkpt lat="45.50982" lon="6.39468">
        <ele>2171</ele>
        <time>2022-08-08T10:53:40Z</time>
      </trkpt>
      <trkpt lat="45.50975" lon="6.39465">
        <ele>2169</ele>
        <time>2022-08-08T10:53:58Z</time>
      </trkpt>
      <trkpt lat="45.5097" lon="6.39463">
        <ele>2169</ele>
        <time>2022-08-08T10:54:02Z</time>
      </trkpt>
      <trkpt lat="45.50966" lon="6.39443">
        <ele>2170</ele>
        <time>2022-08-08T10:54:09Z</time>
      </trkpt>
      <trkpt lat="45.50961" lon="6.39434">
        <ele>2170</ele>
        <time>2022-08-08T10:54:13Z</time>
      </trkpt>
      <trkpt lat="45.50956" lon="6.39433">
        <ele>2170</ele>
        <time>2022-08-08T10:54:15Z</time>
      </trkpt>
      <trkpt lat="45.50942" lon="6.39413">
        <ele>2170</ele>
        <time>2022-08-08T10:54:23Z</time>
      </trkpt>
      <trkpt lat="45.50932" lon="6.3941">
        <ele>2171</ele>
        <time>2022-08-08T10:54:28Z</time>
      </trkpt>
      <trkpt lat="45.50923" lon="6.39401">
        <ele>2174</ele>
        <time>2022-08-08T10:54:38Z</time>
      </trkpt>
      <trkpt lat="45.50919" lon="6.39396">
        <ele>2175</ele>
        <time>2022-08-08T10:54:45Z</time>
      </trkpt>
      <trkpt lat="45.50915" lon="6.39391">
        <ele>2175</ele>
        <time>2022-08-08T10:54:48Z</time>
      </trkpt>
      <trkpt lat="45.50915" lon="6.39384">
        <ele>2174</ele>
        <time>2022-08-08T10:54:50Z</time>
      </trkpt>
      <trkpt lat="45.50912" lon="6.39379">
        <ele>2174</ele>
        <time>2022-08-08T10:54:53Z</time>
      </trkpt>
      <trkpt lat="45.50909" lon="6.39374">
        <ele>2174</ele>
        <time>2022-08-08T10:54:56Z</time>
      </trkpt>
      <trkpt lat="45.50907" lon="6.39367">
        <ele>2174</ele>
        <time>2022-08-08T10:54:58Z</time>
      </trkpt>
      <trkpt lat="45.509" lon="6.39359">
        <ele>2174</ele>
        <time>2022-08-08T10:55:02Z</time>
      </trkpt>
      <trkpt lat="45.50896" lon="6.39348">
        <ele>2173</ele>
        <time>2022-08-08T10:55:06Z</time>
      </trkpt>
      <trkpt lat="45.50893" lon="6.39345">
        <ele>2174</ele>
        <time>2022-08-08T10:55:08Z</time>
      </trkpt>
      <trkpt lat="45.50882" lon="6.39335">
        <ele>2174</ele>
        <time>2022-08-08T10:55:16Z</time>
      </trkpt>
      <trkpt lat="45.50878" lon="6.39332">
        <ele>2175</ele>
        <time>2022-08-08T10:55:20Z</time>
      </trkpt>
      <trkpt lat="45.50875" lon="6.39327">
        <ele>2176</ele>
        <time>2022-08-08T10:55:23Z</time>
      </trkpt>
      <trkpt lat="45.50871" lon="6.39318">
        <ele>2176</ele>
        <time>2022-08-08T10:55:27Z</time>
      </trkpt>
      <trkpt lat="45.5086" lon="6.39295">
        <ele>2178</ele>
        <time>2022-08-08T10:55:39Z</time>
      </trkpt>
      <trkpt lat="45.50858" lon="6.39288">
        <ele>2178</ele>
        <time>2022-08-08T10:55:43Z</time>
      </trkpt>
      <trkpt lat="45.50854" lon="6.39285">
        <ele>2179</ele>
        <time>2022-08-08T10:55:47Z</time>
      </trkpt>
      <trkpt lat="45.50845" lon="6.39275">
        <ele>2179</ele>
        <time>2022-08-08T10:55:55Z</time>
      </trkpt>
      <trkpt lat="45.50843" lon="6.3927">
        <ele>2180</ele>
        <time>2022-08-08T10:55:59Z</time>
      </trkpt>
      <trkpt lat="45.50831" lon="6.39258">
        <ele>2182</ele>
        <time>2022-08-08T10:56:12Z</time>
      </trkpt>
      <trkpt lat="45.50817" lon="6.39249">
        <ele>2183</ele>
        <time>2022-08-08T10:56:22Z</time>
      </trkpt>
      <trkpt lat="45.50814" lon="6.39245">
        <ele>2182</ele>
        <time>2022-08-08T10:56:26Z</time>
      </trkpt>
      <trkpt lat="45.50811" lon="6.39238">
        <ele>2182</ele>
        <time>2022-08-08T10:56:29Z</time>
      </trkpt>
      <trkpt lat="45.5081" lon="6.39232">
        <ele>2182</ele>
        <time>2022-08-08T10:56:31Z</time>
      </trkpt>
      <trkpt lat="45.50806" lon="6.39226">
        <ele>2182</ele>
        <time>2022-08-08T10:56:34Z</time>
      </trkpt>
      <trkpt lat="45.50802" lon="6.39219">
        <ele>2182</ele>
        <time>2022-08-08T10:56:39Z</time>
      </trkpt>
      <trkpt lat="45.50797" lon="6.39204">
        <ele>2181</ele>
        <time>2022-08-08T10:56:46Z</time>
      </trkpt>
      <trkpt lat="45.50797" lon="6.39197">
        <ele>2180</ele>
        <time>2022-08-08T10:56:48Z</time>
      </trkpt>
      <trkpt lat="45.50794" lon="6.39185">
        <ele>2180</ele>
        <time>2022-08-08T10:56:52Z</time>
      </trkpt>
      <trkpt lat="45.50791" lon="6.39176">
        <ele>2180</ele>
        <time>2022-08-08T10:56:55Z</time>
      </trkpt>
      <trkpt lat="45.50781" lon="6.39166">
        <ele>2180</ele>
        <time>2022-08-08T10:57:05Z</time>
      </trkpt>
      <trkpt lat="45.50776" lon="6.39164">
        <ele>2180</ele>
        <time>2022-08-08T10:57:08Z</time>
      </trkpt>
      <trkpt lat="45.50773" lon="6.39159">
        <ele>2179</ele>
        <time>2022-08-08T10:57:11Z</time>
      </trkpt>
      <trkpt lat="45.50762" lon="6.39149">
        <ele>2179</ele>
        <time>2022-08-08T10:57:19Z</time>
      </trkpt>
      <trkpt lat="45.50757" lon="6.39152">
        <ele>2179</ele>
        <time>2022-08-08T10:57:21Z</time>
      </trkpt>
      <trkpt lat="45.50749" lon="6.39153">
        <ele>2179</ele>
        <time>2022-08-08T10:57:25Z</time>
      </trkpt>
      <trkpt lat="45.50731" lon="6.39142">
        <ele>2178</ele>
        <time>2022-08-08T10:57:35Z</time>
      </trkpt>
      <trkpt lat="45.50728" lon="6.39134">
        <ele>2176</ele>
        <time>2022-08-08T10:57:40Z</time>
      </trkpt>
      <trkpt lat="45.50727" lon="6.39126">
        <ele>2175</ele>
        <time>2022-08-08T10:57:44Z</time>
      </trkpt>
      <trkpt lat="45.50723" lon="6.39112">
        <ele>2174</ele>
        <time>2022-08-08T10:57:49Z</time>
      </trkpt>
      <trkpt lat="45.50724" lon="6.39104">
        <ele>2172</ele>
        <time>2022-08-08T10:57:52Z</time>
      </trkpt>
      <trkpt lat="45.50723" lon="6.39096">
        <ele>2171</ele>
        <time>2022-08-08T10:57:55Z</time>
      </trkpt>
      <trkpt lat="45.50721" lon="6.39091">
        <ele>2170</ele>
        <time>2022-08-08T10:57:57Z</time>
      </trkpt>
      <trkpt lat="45.50719" lon="6.39086">
        <ele>2169</ele>
        <time>2022-08-08T10:58:01Z</time>
      </trkpt>
      <trkpt lat="45.50715" lon="6.39073">
        <ele>2168</ele>
        <time>2022-08-08T10:58:09Z</time>
      </trkpt>
      <trkpt lat="45.50709" lon="6.39069">
        <ele>2167</ele>
        <time>2022-08-08T10:58:14Z</time>
      </trkpt>
      <trkpt lat="45.50704" lon="6.39069">
        <ele>2167</ele>
        <time>2022-08-08T10:58:18Z</time>
      </trkpt>
      <trkpt lat="45.50699" lon="6.39069">
        <ele>2167</ele>
        <time>2022-08-08T10:58:23Z</time>
      </trkpt>
      <trkpt lat="45.50691" lon="6.39066">
        <ele>2167</ele>
        <time>2022-08-08T10:58:31Z</time>
      </trkpt>
      <trkpt lat="45.50687" lon="6.39069">
        <ele>2167</ele>
        <time>2022-08-08T10:58:35Z</time>
      </trkpt>
      <trkpt lat="45.50681" lon="6.39073">
        <ele>2167</ele>
        <time>2022-08-08T10:58:42Z</time>
      </trkpt>
      <trkpt lat="45.50677" lon="6.39072">
        <ele>2167</ele>
        <time>2022-08-08T10:58:46Z</time>
      </trkpt>
      <trkpt lat="45.5067" lon="6.39074">
        <ele>2167</ele>
        <time>2022-08-08T10:58:50Z</time>
      </trkpt>
      <trkpt lat="45.50665" lon="6.39079">
        <ele>2166</ele>
        <time>2022-08-08T10:58:54Z</time>
      </trkpt>
      <trkpt lat="45.50656" lon="6.39084">
        <ele>2168</ele>
        <time>2022-08-08T10:59:03Z</time>
      </trkpt>
      <trkpt lat="45.50651" lon="6.39084">
        <ele>2169</ele>
        <time>2022-08-08T10:59:07Z</time>
      </trkpt>
      <trkpt lat="45.50643" lon="6.39093">
        <ele>2171</ele>
        <time>2022-08-08T10:59:15Z</time>
      </trkpt>
      <trkpt lat="45.5064" lon="6.39098">
        <ele>2171</ele>
        <time>2022-08-08T10:59:19Z</time>
      </trkpt>
      <trkpt lat="45.50636" lon="6.39104">
        <ele>2170</ele>
        <time>2022-08-08T10:59:23Z</time>
      </trkpt>
      <trkpt lat="45.5063" lon="6.39111">
        <ele>2169</ele>
        <time>2022-08-08T10:59:26Z</time>
      </trkpt>
      <trkpt lat="45.50624" lon="6.39128">
        <ele>2168</ele>
        <time>2022-08-08T10:59:36Z</time>
      </trkpt>
      <trkpt lat="45.50623" lon="6.39134">
        <ele>2168</ele>
        <time>2022-08-08T10:59:40Z</time>
      </trkpt>
      <trkpt lat="45.50607" lon="6.39147">
        <ele>2166</ele>
        <time>2022-08-08T10:59:58Z</time>
      </trkpt>
      <trkpt lat="45.50603" lon="6.39151">
        <ele>2166</ele>
        <time>2022-08-08T11:00:02Z</time>
      </trkpt>
      <trkpt lat="45.50599" lon="6.39154">
        <ele>2165</ele>
        <time>2022-08-08T11:00:06Z</time>
      </trkpt>
      <trkpt lat="45.50594" lon="6.3915">
        <ele>2164</ele>
        <time>2022-08-08T11:00:10Z</time>
      </trkpt>
      <trkpt lat="45.50589" lon="6.3915">
        <ele>2164</ele>
        <time>2022-08-08T11:00:14Z</time>
      </trkpt>
      <trkpt lat="45.50585" lon="6.39147">
        <ele>2163</ele>
        <time>2022-08-08T11:00:18Z</time>
      </trkpt>
      <trkpt lat="45.50583" lon="6.39141">
        <ele>2162</ele>
        <time>2022-08-08T11:00:20Z</time>
      </trkpt>
      <trkpt lat="45.50579" lon="6.39138">
        <ele>2162</ele>
        <time>2022-08-08T11:00:23Z</time>
      </trkpt>
      <trkpt lat="45.50574" lon="6.39135">
        <ele>2162</ele>
        <time>2022-08-08T11:00:27Z</time>
      </trkpt>
      <trkpt lat="45.50566" lon="6.39128">
        <ele>2161</ele>
        <time>2022-08-08T11:00:33Z</time>
      </trkpt>
      <trkpt lat="45.50561" lon="6.39127">
        <ele>2161</ele>
        <time>2022-08-08T11:00:36Z</time>
      </trkpt>
      <trkpt lat="45.50554" lon="6.39127">
        <ele>2160</ele>
        <time>2022-08-08T11:00:41Z</time>
      </trkpt>
      <trkpt lat="45.5055" lon="6.39128">
        <ele>2160</ele>
        <time>2022-08-08T11:00:45Z</time>
      </trkpt>
      <trkpt lat="45.50545" lon="6.39128">
        <ele>2159</ele>
        <time>2022-08-08T11:00:48Z</time>
      </trkpt>
      <trkpt lat="45.50541" lon="6.39129">
        <ele>2158</ele>
        <time>2022-08-08T11:00:51Z</time>
      </trkpt>
      <trkpt lat="45.50537" lon="6.39128">
        <ele>2157</ele>
        <time>2022-08-08T11:00:56Z</time>
      </trkpt>
      <trkpt lat="45.50532" lon="6.39124">
        <ele>2156</ele>
        <time>2022-08-08T11:01:00Z</time>
      </trkpt>
      <trkpt lat="45.50526" lon="6.39127">
        <ele>2156</ele>
        <time>2022-08-08T11:01:09Z</time>
      </trkpt>
      <trkpt lat="45.50522" lon="6.39133">
        <ele>2156</ele>
        <time>2022-08-08T11:01:14Z</time>
      </trkpt>
      <trkpt lat="45.50517" lon="6.39133">
        <ele>2155</ele>
        <time>2022-08-08T11:01:17Z</time>
      </trkpt>
      <trkpt lat="45.50512" lon="6.39133">
        <ele>2155</ele>
        <time>2022-08-08T11:01:20Z</time>
      </trkpt>
      <trkpt lat="45.50507" lon="6.39134">
        <ele>2156</ele>
        <time>2022-08-08T11:01:23Z</time>
      </trkpt>
      <trkpt lat="45.50502" lon="6.39135">
        <ele>2156</ele>
        <time>2022-08-08T11:01:27Z</time>
      </trkpt>
      <trkpt lat="45.50498" lon="6.39134">
        <ele>2155</ele>
        <time>2022-08-08T11:01:30Z</time>
      </trkpt>
      <trkpt lat="45.50479" lon="6.39139">
        <ele>2151</ele>
        <time>2022-08-08T11:01:45Z</time>
      </trkpt>
      <trkpt lat="45.50469" lon="6.39136">
        <ele>2150</ele>
        <time>2022-08-08T11:01:50Z</time>
      </trkpt>
      <trkpt lat="45.50464" lon="6.39141">
        <ele>2149</ele>
        <time>2022-08-08T11:01:53Z</time>
      </trkpt>
      <trkpt lat="45.50462" lon="6.39149">
        <ele>2147</ele>
        <time>2022-08-08T11:01:57Z</time>
      </trkpt>
      <trkpt lat="45.50457" lon="6.39149">
        <ele>2146</ele>
        <time>2022-08-08T11:01:59Z</time>
      </trkpt>
      <trkpt lat="45.50452" lon="6.39151">
        <ele>2144</ele>
        <time>2022-08-08T11:02:04Z</time>
      </trkpt>
      <trkpt lat="45.50447" lon="6.39151">
        <ele>2143</ele>
        <time>2022-08-08T11:02:07Z</time>
      </trkpt>
      <trkpt lat="45.50444" lon="6.39155">
        <ele>2141</ele>
        <time>2022-08-08T11:02:15Z</time>
      </trkpt>
      <trkpt lat="45.50431" lon="6.39162">
        <ele>2137</ele>
        <time>2022-08-08T11:02:27Z</time>
      </trkpt>
      <trkpt lat="45.50428" lon="6.39168">
        <ele>2137</ele>
        <time>2022-08-08T11:02:31Z</time>
      </trkpt>
      <trkpt lat="45.50426" lon="6.39173">
        <ele>2135</ele>
        <time>2022-08-08T11:02:39Z</time>
      </trkpt>
      <trkpt lat="45.5042" lon="6.39179">
        <ele>2133</ele>
        <time>2022-08-08T11:02:55Z</time>
      </trkpt>
      <trkpt lat="45.50417" lon="6.39184">
        <ele>2132</ele>
        <time>2022-08-08T11:02:59Z</time>
      </trkpt>
      <trkpt lat="45.50414" lon="6.39192">
        <ele>2131</ele>
        <time>2022-08-08T11:03:06Z</time>
      </trkpt>
      <trkpt lat="45.50404" lon="6.39208">
        <ele>2126</ele>
        <time>2022-08-08T11:03:21Z</time>
      </trkpt>
      <trkpt lat="45.50402" lon="6.39215">
        <ele>2125</ele>
        <time>2022-08-08T11:03:26Z</time>
      </trkpt>
      <trkpt lat="45.50404" lon="6.39222">
        <ele>2122</ele>
        <time>2022-08-08T11:03:32Z</time>
      </trkpt>
      <trkpt lat="45.5041" lon="6.39229">
        <ele>2119</ele>
        <time>2022-08-08T11:03:39Z</time>
      </trkpt>
      <trkpt lat="45.50413" lon="6.39234">
        <ele>2117</ele>
        <time>2022-08-08T11:03:43Z</time>
      </trkpt>
      <trkpt lat="45.50417" lon="6.39236">
        <ele>2115</ele>
        <time>2022-08-08T11:03:46Z</time>
      </trkpt>
      <trkpt lat="45.50413" lon="6.3925">
        <ele>2111</ele>
        <time>2022-08-08T11:03:57Z</time>
      </trkpt>
      <trkpt lat="45.50407" lon="6.39259">
        <ele>2109</ele>
        <time>2022-08-08T11:04:05Z</time>
      </trkpt>
      <trkpt lat="45.50402" lon="6.39262">
        <ele>2108</ele>
        <time>2022-08-08T11:04:09Z</time>
      </trkpt>
      <trkpt lat="45.50397" lon="6.3926">
        <ele>2107</ele>
        <time>2022-08-08T11:04:13Z</time>
      </trkpt>
      <trkpt lat="45.50393" lon="6.39258">
        <ele>2107</ele>
        <time>2022-08-08T11:04:16Z</time>
      </trkpt>
      <trkpt lat="45.50388" lon="6.39259">
        <ele>2107</ele>
        <time>2022-08-08T11:04:19Z</time>
      </trkpt>
      <trkpt lat="45.50383" lon="6.39261">
        <ele>2107</ele>
        <time>2022-08-08T11:04:23Z</time>
      </trkpt>
      <trkpt lat="45.50379" lon="6.39264">
        <ele>2106</ele>
        <time>2022-08-08T11:04:27Z</time>
      </trkpt>
      <trkpt lat="45.50367" lon="6.39277">
        <ele>2103</ele>
        <time>2022-08-08T11:04:40Z</time>
      </trkpt>
      <trkpt lat="45.50363" lon="6.39279">
        <ele>2102</ele>
        <time>2022-08-08T11:04:44Z</time>
      </trkpt>
      <trkpt lat="45.50355" lon="6.39279">
        <ele>2100</ele>
        <time>2022-08-08T11:05:17Z</time>
      </trkpt>
      <trkpt lat="45.50351" lon="6.39281">
        <ele>2099</ele>
        <time>2022-08-08T11:05:21Z</time>
      </trkpt>
      <trkpt lat="45.50333" lon="6.39299">
        <ele>2094</ele>
        <time>2022-08-08T11:05:38Z</time>
      </trkpt>
      <trkpt lat="45.50328" lon="6.39312">
        <ele>2092</ele>
        <time>2022-08-08T11:05:49Z</time>
      </trkpt>
      <trkpt lat="45.50324" lon="6.39318">
        <ele>2089</ele>
        <time>2022-08-08T11:05:56Z</time>
      </trkpt>
      <trkpt lat="45.50316" lon="6.39334">
        <ele>2084</ele>
        <time>2022-08-08T11:06:11Z</time>
      </trkpt>
      <trkpt lat="45.50305" lon="6.39347">
        <ele>2081</ele>
        <time>2022-08-08T11:06:22Z</time>
      </trkpt>
      <trkpt lat="45.50303" lon="6.39352">
        <ele>2080</ele>
        <time>2022-08-08T11:06:26Z</time>
      </trkpt>
      <trkpt lat="45.50301" lon="6.39357">
        <ele>2078</ele>
        <time>2022-08-08T11:06:31Z</time>
      </trkpt>
      <trkpt lat="45.50287" lon="6.39368">
        <ele>2074</ele>
        <time>2022-08-08T11:06:44Z</time>
      </trkpt>
      <trkpt lat="45.50284" lon="6.39373">
        <ele>2072</ele>
        <time>2022-08-08T11:06:48Z</time>
      </trkpt>
      <trkpt lat="45.50277" lon="6.39381">
        <ele>2069</ele>
        <time>2022-08-08T11:06:57Z</time>
      </trkpt>
      <trkpt lat="45.50267" lon="6.39386">
        <ele>2064</ele>
        <time>2022-08-08T11:07:09Z</time>
      </trkpt>
      <trkpt lat="45.50263" lon="6.3939">
        <ele>2063</ele>
        <time>2022-08-08T11:07:13Z</time>
      </trkpt>
      <trkpt lat="45.50255" lon="6.39401">
        <ele>2059</ele>
        <time>2022-08-08T11:07:25Z</time>
      </trkpt>
      <trkpt lat="45.50251" lon="6.39404">
        <ele>2058</ele>
        <time>2022-08-08T11:07:29Z</time>
      </trkpt>
      <trkpt lat="45.50247" lon="6.39415">
        <ele>2054</ele>
        <time>2022-08-08T11:07:41Z</time>
      </trkpt>
      <trkpt lat="45.50249" lon="6.39425">
        <ele>2050</ele>
        <time>2022-08-08T11:07:51Z</time>
      </trkpt>
      <trkpt lat="45.50247" lon="6.39433">
        <ele>2046</ele>
        <time>2022-08-08T11:08:01Z</time>
      </trkpt>
      <trkpt lat="45.50248" lon="6.39441">
        <ele>2043</ele>
        <time>2022-08-08T11:08:16Z</time>
      </trkpt>
      <trkpt lat="45.50245" lon="6.39449">
        <ele>2040</ele>
        <time>2022-08-08T11:08:26Z</time>
      </trkpt>
      <trkpt lat="45.50238" lon="6.39459">
        <ele>2036</ele>
        <time>2022-08-08T11:08:38Z</time>
      </trkpt>
      <trkpt lat="45.5024" lon="6.39465">
        <ele>2034</ele>
        <time>2022-08-08T11:08:48Z</time>
      </trkpt>
      <trkpt lat="45.50245" lon="6.39472">
        <ele>2030</ele>
        <time>2022-08-08T11:08:57Z</time>
      </trkpt>
      <trkpt lat="45.50242" lon="6.39479">
        <ele>2028</ele>
        <time>2022-08-08T11:09:06Z</time>
      </trkpt>
      <trkpt lat="45.50233" lon="6.39481">
        <ele>2025</ele>
        <time>2022-08-08T11:09:14Z</time>
      </trkpt>
      <trkpt lat="45.50227" lon="6.39486">
        <ele>2022</ele>
        <time>2022-08-08T11:09:23Z</time>
      </trkpt>
      <trkpt lat="45.50222" lon="6.39485">
        <ele>2020</ele>
        <time>2022-08-08T11:09:27Z</time>
      </trkpt>
      <trkpt lat="45.50219" lon="6.39482">
        <ele>2018</ele>
        <time>2022-08-08T11:09:32Z</time>
      </trkpt>
      <trkpt lat="45.50213" lon="6.39483">
        <ele>2015</ele>
        <time>2022-08-08T11:09:42Z</time>
      </trkpt>
      <trkpt lat="45.50209" lon="6.3948">
        <ele>2014</ele>
        <time>2022-08-08T11:09:46Z</time>
      </trkpt>
      <trkpt lat="45.50204" lon="6.39479">
        <ele>2013</ele>
        <time>2022-08-08T11:09:51Z</time>
      </trkpt>
      <trkpt lat="45.50199" lon="6.39481">
        <ele>2011</ele>
        <time>2022-08-08T11:09:58Z</time>
      </trkpt>
      <trkpt lat="45.50196" lon="6.39485">
        <ele>2010</ele>
        <time>2022-08-08T11:10:03Z</time>
      </trkpt>
      <trkpt lat="45.5019" lon="6.39485">
        <ele>2008</ele>
        <time>2022-08-08T11:10:07Z</time>
      </trkpt>
      <trkpt lat="45.50186" lon="6.39483">
        <ele>2007</ele>
        <time>2022-08-08T11:10:10Z</time>
      </trkpt>
      <trkpt lat="45.50181" lon="6.39478">
        <ele>2007</ele>
        <time>2022-08-08T11:10:15Z</time>
      </trkpt>
      <trkpt lat="45.50177" lon="6.39479">
        <ele>2006</ele>
        <time>2022-08-08T11:10:22Z</time>
      </trkpt>
      <trkpt lat="45.50172" lon="6.39477">
        <ele>2005</ele>
        <time>2022-08-08T11:10:27Z</time>
      </trkpt>
      <trkpt lat="45.50166" lon="6.39479">
        <ele>2004</ele>
        <time>2022-08-08T11:10:39Z</time>
      </trkpt>
      <trkpt lat="45.50164" lon="6.39485">
        <ele>2003</ele>
        <time>2022-08-08T11:10:44Z</time>
      </trkpt>
      <trkpt lat="45.50159" lon="6.39488">
        <ele>2001</ele>
        <time>2022-08-08T11:10:49Z</time>
      </trkpt>
      <trkpt lat="45.50156" lon="6.39492">
        <ele>2001</ele>
        <time>2022-08-08T11:10:53Z</time>
      </trkpt>
      <trkpt lat="45.50151" lon="6.39493">
        <ele>2001</ele>
        <time>2022-08-08T11:10:57Z</time>
      </trkpt>
      <trkpt lat="45.50147" lon="6.39495">
        <ele>2001</ele>
        <time>2022-08-08T11:11:01Z</time>
      </trkpt>
      <trkpt lat="45.50142" lon="6.395">
        <ele>2001</ele>
        <time>2022-08-08T11:11:06Z</time>
      </trkpt>
      <trkpt lat="45.50138" lon="6.39534">
        <ele>2004</ele>
        <time>2022-08-08T11:11:26Z</time>
      </trkpt>
      <trkpt lat="45.50136" lon="6.39539">
        <ele>2004</ele>
        <time>2022-08-08T11:11:30Z</time>
      </trkpt>
      <trkpt lat="45.50133" lon="6.39548">
        <ele>2005</ele>
        <time>2022-08-08T11:11:37Z</time>
      </trkpt>
      <trkpt lat="45.50133" lon="6.39554">
        <ele>2006</ele>
        <time>2022-08-08T11:11:40Z</time>
      </trkpt>
      <trkpt lat="45.50131" lon="6.3956">
        <ele>2006</ele>
        <time>2022-08-08T11:11:44Z</time>
      </trkpt>
      <trkpt lat="45.50128" lon="6.39565">
        <ele>2006</ele>
        <time>2022-08-08T11:11:49Z</time>
      </trkpt>
      <trkpt lat="45.50125" lon="6.39577">
        <ele>2007</ele>
        <time>2022-08-08T11:12:01Z</time>
      </trkpt>
      <trkpt lat="45.50115" lon="6.39591">
        <ele>2008</ele>
        <time>2022-08-08T11:12:13Z</time>
      </trkpt>
      <trkpt lat="45.50093" lon="6.39633">
        <ele>2011</ele>
        <time>2022-08-08T11:12:45Z</time>
      </trkpt>
      <trkpt lat="45.50091" lon="6.39638">
        <ele>2011</ele>
        <time>2022-08-08T11:12:49Z</time>
      </trkpt>
      <trkpt lat="45.50089" lon="6.39643">
        <ele>2011</ele>
        <time>2022-08-08T11:12:52Z</time>
      </trkpt>
      <trkpt lat="45.50085" lon="6.39649">
        <ele>2011</ele>
        <time>2022-08-08T11:13:10Z</time>
      </trkpt>
      <trkpt lat="45.5008" lon="6.39658">
        <ele>2011</ele>
        <time>2022-08-08T11:13:20Z</time>
      </trkpt>
      <trkpt lat="45.50076" lon="6.39662">
        <ele>2011</ele>
        <time>2022-08-08T11:13:22Z</time>
      </trkpt>
      <trkpt lat="45.50072" lon="6.39667">
        <ele>2011</ele>
        <time>2022-08-08T11:13:24Z</time>
      </trkpt>
      <trkpt lat="45.50068" lon="6.39674">
        <ele>2010</ele>
        <time>2022-08-08T11:13:26Z</time>
      </trkpt>
      <trkpt lat="45.5006" lon="6.3968">
        <ele>2010</ele>
        <time>2022-08-08T11:13:30Z</time>
      </trkpt>
      <trkpt lat="45.50048" lon="6.39696">
        <ele>2011</ele>
        <time>2022-08-08T11:13:37Z</time>
      </trkpt>
      <trkpt lat="45.50048" lon="6.39704">
        <ele>2011</ele>
        <time>2022-08-08T11:13:40Z</time>
      </trkpt>
      <trkpt lat="45.50044" lon="6.39716">
        <ele>2010</ele>
        <time>2022-08-08T11:13:46Z</time>
      </trkpt>
      <trkpt lat="45.50037" lon="6.39734">
        <ele>2011</ele>
        <time>2022-08-08T11:13:53Z</time>
      </trkpt>
      <trkpt lat="45.50033" lon="6.39739">
        <ele>2011</ele>
        <time>2022-08-08T11:13:55Z</time>
      </trkpt>
      <trkpt lat="45.50031" lon="6.39745">
        <ele>2011</ele>
        <time>2022-08-08T11:13:57Z</time>
      </trkpt>
      <trkpt lat="45.50027" lon="6.39751">
        <ele>2011</ele>
        <time>2022-08-08T11:13:59Z</time>
      </trkpt>
      <trkpt lat="45.50025" lon="6.39757">
        <ele>2010</ele>
        <time>2022-08-08T11:14:03Z</time>
      </trkpt>
      <trkpt lat="45.50021" lon="6.39762">
        <ele>2011</ele>
        <time>2022-08-08T11:14:08Z</time>
      </trkpt>
      <trkpt lat="45.50018" lon="6.39767">
        <ele>2012</ele>
        <time>2022-08-08T11:14:11Z</time>
      </trkpt>
      <trkpt lat="45.50005" lon="6.39792">
        <ele>2011</ele>
        <time>2022-08-08T11:14:22Z</time>
      </trkpt>
      <trkpt lat="45.50004" lon="6.39799">
        <ele>2011</ele>
        <time>2022-08-08T11:14:25Z</time>
      </trkpt>
      <trkpt lat="45.50001" lon="6.39808">
        <ele>2011</ele>
        <time>2022-08-08T11:14:28Z</time>
      </trkpt>
      <trkpt lat="45.49995" lon="6.39816">
        <ele>2010</ele>
        <time>2022-08-08T11:14:32Z</time>
      </trkpt>
      <trkpt lat="45.49988" lon="6.39841">
        <ele>2011</ele>
        <time>2022-08-08T11:14:46Z</time>
      </trkpt>
      <trkpt lat="45.49984" lon="6.39846">
        <ele>2012</ele>
        <time>2022-08-08T11:14:53Z</time>
      </trkpt>
      <trkpt lat="45.49986" lon="6.39854">
        <ele>2013</ele>
        <time>2022-08-08T11:14:58Z</time>
      </trkpt>
      <trkpt lat="45.49986" lon="6.39862">
        <ele>2012</ele>
        <time>2022-08-08T11:15:02Z</time>
      </trkpt>
      <trkpt lat="45.49984" lon="6.39868">
        <ele>2012</ele>
        <time>2022-08-08T11:15:05Z</time>
      </trkpt>
      <trkpt lat="45.49981" lon="6.39874">
        <ele>2012</ele>
        <time>2022-08-08T11:15:08Z</time>
      </trkpt>
      <trkpt lat="45.4998" lon="6.39883">
        <ele>2013</ele>
        <time>2022-08-08T11:15:11Z</time>
      </trkpt>
      <trkpt lat="45.49974" lon="6.399">
        <ele>2013</ele>
        <time>2022-08-08T11:15:18Z</time>
      </trkpt>
      <trkpt lat="45.49967" lon="6.39916">
        <ele>2015</ele>
        <time>2022-08-08T11:15:28Z</time>
      </trkpt>
      <trkpt lat="45.49965" lon="6.39922">
        <ele>2015</ele>
        <time>2022-08-08T11:15:32Z</time>
      </trkpt>
      <trkpt lat="45.49962" lon="6.39927">
        <ele>2015</ele>
        <time>2022-08-08T11:15:36Z</time>
      </trkpt>
      <trkpt lat="45.49959" lon="6.39939">
        <ele>2016</ele>
        <time>2022-08-08T11:15:42Z</time>
      </trkpt>
      <trkpt lat="45.49959" lon="6.39947">
        <ele>2016</ele>
        <time>2022-08-08T11:15:45Z</time>
      </trkpt>
      <trkpt lat="45.49956" lon="6.39955">
        <ele>2015</ele>
        <time>2022-08-08T11:15:48Z</time>
      </trkpt>
      <trkpt lat="45.49956" lon="6.39965">
        <ele>2015</ele>
        <time>2022-08-08T11:15:53Z</time>
      </trkpt>
      <trkpt lat="45.49957" lon="6.39972">
        <ele>2015</ele>
        <time>2022-08-08T11:15:57Z</time>
      </trkpt>
      <trkpt lat="45.49957" lon="6.39979">
        <ele>2014</ele>
        <time>2022-08-08T11:16:01Z</time>
      </trkpt>
      <trkpt lat="45.49955" lon="6.39986">
        <ele>2014</ele>
        <time>2022-08-08T11:16:04Z</time>
      </trkpt>
      <trkpt lat="45.49956" lon="6.39993">
        <ele>2014</ele>
        <time>2022-08-08T11:16:07Z</time>
      </trkpt>
      <trkpt lat="45.49957" lon="6.39999">
        <ele>2014</ele>
        <time>2022-08-08T11:16:09Z</time>
      </trkpt>
      <trkpt lat="45.49964" lon="6.40016">
        <ele>2014</ele>
        <time>2022-08-08T11:16:16Z</time>
      </trkpt>
      <trkpt lat="45.4997" lon="6.40031">
        <ele>2017</ele>
        <time>2022-08-08T11:16:23Z</time>
      </trkpt>
      <trkpt lat="45.49971" lon="6.4004">
        <ele>2017</ele>
        <time>2022-08-08T11:16:29Z</time>
      </trkpt>
      <trkpt lat="45.4997" lon="6.40065">
        <ele>2013</ele>
        <time>2022-08-08T11:16:42Z</time>
      </trkpt>
      <trkpt lat="45.49969" lon="6.40071">
        <ele>2013</ele>
        <time>2022-08-08T11:16:47Z</time>
      </trkpt>
      <trkpt lat="45.49969" lon="6.40081">
        <ele>2016</ele>
        <time>2022-08-08T11:16:56Z</time>
      </trkpt>
      <trkpt lat="45.4997" lon="6.40094">
        <ele>2016</ele>
        <time>2022-08-08T11:17:04Z</time>
      </trkpt>
      <trkpt lat="45.4997" lon="6.40109">
        <ele>2016</ele>
        <time>2022-08-08T11:17:12Z</time>
      </trkpt>
      <trkpt lat="45.49968" lon="6.40122">
        <ele>2015</ele>
        <time>2022-08-08T11:17:20Z</time>
      </trkpt>
      <trkpt lat="45.49963" lon="6.40133">
        <ele>2011</ele>
        <time>2022-08-08T11:17:32Z</time>
      </trkpt>
      <trkpt lat="45.49959" lon="6.40135">
        <ele>2010</ele>
        <time>2022-08-08T11:17:36Z</time>
      </trkpt>
      <trkpt lat="45.49954" lon="6.40134">
        <ele>2009</ele>
        <time>2022-08-08T11:17:40Z</time>
      </trkpt>
      <trkpt lat="45.4995" lon="6.40135">
        <ele>2008</ele>
        <time>2022-08-08T11:17:44Z</time>
      </trkpt>
      <trkpt lat="45.49944" lon="6.40133">
        <ele>2008</ele>
        <time>2022-08-08T11:17:47Z</time>
      </trkpt>
      <trkpt lat="45.49928" lon="6.40118">
        <ele>2006</ele>
        <time>2022-08-08T11:18:02Z</time>
      </trkpt>
      <trkpt lat="45.49923" lon="6.40115">
        <ele>2004</ele>
        <time>2022-08-08T11:18:08Z</time>
      </trkpt>
      <trkpt lat="45.4991" lon="6.40127">
        <ele>1998</ele>
        <time>2022-08-08T11:18:26Z</time>
      </trkpt>
      <trkpt lat="45.49908" lon="6.40135">
        <ele>1993</ele>
        <time>2022-08-08T11:18:39Z</time>
      </trkpt>
      <trkpt lat="45.49909" lon="6.40141">
        <ele>1990</ele>
        <time>2022-08-08T11:18:48Z</time>
      </trkpt>
      <trkpt lat="45.49921" lon="6.40152">
        <ele>1986</ele>
        <time>2022-08-08T11:19:00Z</time>
      </trkpt>
      <trkpt lat="45.49912" lon="6.4016">
        <ele>1981</ele>
        <time>2022-08-08T11:19:10Z</time>
      </trkpt>
      <trkpt lat="45.49909" lon="6.40165">
        <ele>1979</ele>
        <time>2022-08-08T11:19:15Z</time>
      </trkpt>
      <trkpt lat="45.49899" lon="6.40169">
        <ele>1975</ele>
        <time>2022-08-08T11:19:23Z</time>
      </trkpt>
      <trkpt lat="45.49891" lon="6.40177">
        <ele>1973</ele>
        <time>2022-08-08T11:19:31Z</time>
      </trkpt>
      <trkpt lat="45.49887" lon="6.4018">
        <ele>1973</ele>
        <time>2022-08-08T11:19:34Z</time>
      </trkpt>
      <trkpt lat="45.49882" lon="6.4018">
        <ele>1972</ele>
        <time>2022-08-08T11:19:38Z</time>
      </trkpt>
      <trkpt lat="45.49872" lon="6.40175">
        <ele>1969</ele>
        <time>2022-08-08T11:19:48Z</time>
      </trkpt>
      <trkpt lat="45.49868" lon="6.40173">
        <ele>1969</ele>
        <time>2022-08-08T11:19:52Z</time>
      </trkpt>
      <trkpt lat="45.49856" lon="6.4017">
        <ele>1973</ele>
        <time>2022-08-08T11:20:10Z</time>
      </trkpt>
      <trkpt lat="45.49845" lon="6.40171">
        <ele>1973</ele>
        <time>2022-08-08T11:20:21Z</time>
      </trkpt>
      <trkpt lat="45.49841" lon="6.40175">
        <ele>1972</ele>
        <time>2022-08-08T11:20:25Z</time>
      </trkpt>
      <trkpt lat="45.49836" lon="6.40176">
        <ele>1972</ele>
        <time>2022-08-08T11:20:30Z</time>
      </trkpt>
      <trkpt lat="45.49831" lon="6.40179">
        <ele>1972</ele>
        <time>2022-08-08T11:20:35Z</time>
      </trkpt>
      <trkpt lat="45.49827" lon="6.40179">
        <ele>1972</ele>
        <time>2022-08-08T11:20:39Z</time>
      </trkpt>
      <trkpt lat="45.49818" lon="6.40185">
        <ele>1972</ele>
        <time>2022-08-08T11:20:49Z</time>
      </trkpt>
      <trkpt lat="45.49814" lon="6.40187">
        <ele>1972</ele>
        <time>2022-08-08T11:20:53Z</time>
      </trkpt>
      <trkpt lat="45.49805" lon="6.40185">
        <ele>1973</ele>
        <time>2022-08-08T11:21:01Z</time>
      </trkpt>
      <trkpt lat="45.49799" lon="6.40189">
        <ele>1973</ele>
        <time>2022-08-08T11:21:05Z</time>
      </trkpt>
      <trkpt lat="45.49787" lon="6.40202">
        <ele>1973</ele>
        <time>2022-08-08T11:21:19Z</time>
      </trkpt>
      <trkpt lat="45.49781" lon="6.40209">
        <ele>1972</ele>
        <time>2022-08-08T11:21:25Z</time>
      </trkpt>
      <trkpt lat="45.4977" lon="6.40202">
        <ele>1975</ele>
        <time>2022-08-08T11:21:40Z</time>
      </trkpt>
      <trkpt lat="45.49742" lon="6.40198">
        <ele>1976</ele>
        <time>2022-08-08T11:21:57Z</time>
      </trkpt>
      <trkpt lat="45.49727" lon="6.40187">
        <ele>1979</ele>
        <time>2022-08-08T11:22:14Z</time>
      </trkpt>
      <trkpt lat="45.49721" lon="6.40176">
        <ele>1980</ele>
        <time>2022-08-08T11:22:23Z</time>
      </trkpt>
      <trkpt lat="45.49719" lon="6.4017">
        <ele>1981</ele>
        <time>2022-08-08T11:22:27Z</time>
      </trkpt>
      <trkpt lat="45.49715" lon="6.40163">
        <ele>1980</ele>
        <time>2022-08-08T11:22:34Z</time>
      </trkpt>
      <trkpt lat="45.49712" lon="6.4016">
        <ele>1979</ele>
        <time>2022-08-08T11:22:37Z</time>
      </trkpt>
      <trkpt lat="45.49704" lon="6.40156">
        <ele>1978</ele>
        <time>2022-08-08T11:22:49Z</time>
      </trkpt>
      <trkpt lat="45.49701" lon="6.40162">
        <ele>1978</ele>
        <time>2022-08-08T11:22:56Z</time>
      </trkpt>
      <trkpt lat="45.49699" lon="6.40169">
        <ele>1977</ele>
        <time>2022-08-08T11:23:00Z</time>
      </trkpt>
      <trkpt lat="45.49695" lon="6.40171">
        <ele>1977</ele>
        <time>2022-08-08T11:23:04Z</time>
      </trkpt>
      <trkpt lat="45.49692" lon="6.40176">
        <ele>1978</ele>
        <time>2022-08-08T11:23:08Z</time>
      </trkpt>
      <trkpt lat="45.49688" lon="6.40186">
        <ele>1978</ele>
        <time>2022-08-08T11:23:17Z</time>
      </trkpt>
      <trkpt lat="45.49684" lon="6.40194">
        <ele>1977</ele>
        <time>2022-08-08T11:23:24Z</time>
      </trkpt>
      <trkpt lat="45.49683" lon="6.402">
        <ele>1976</ele>
        <time>2022-08-08T11:23:28Z</time>
      </trkpt>
      <trkpt lat="45.49683" lon="6.40208">
        <ele>1975</ele>
        <time>2022-08-08T11:23:33Z</time>
      </trkpt>
      <trkpt lat="45.49686" lon="6.4022">
        <ele>1975</ele>
        <time>2022-08-08T11:23:40Z</time>
      </trkpt>
      <trkpt lat="45.49686" lon="6.40235">
        <ele>1975</ele>
        <time>2022-08-08T11:23:48Z</time>
      </trkpt>
      <trkpt lat="45.49687" lon="6.40241">
        <ele>1975</ele>
        <time>2022-08-08T11:23:52Z</time>
      </trkpt>
      <trkpt lat="45.4969" lon="6.40247">
        <ele>1974</ele>
        <time>2022-08-08T11:23:55Z</time>
      </trkpt>
      <trkpt lat="45.4969" lon="6.40258">
        <ele>1973</ele>
        <time>2022-08-08T11:24:07Z</time>
      </trkpt>
      <trkpt lat="45.49689" lon="6.40264">
        <ele>1974</ele>
        <time>2022-08-08T11:24:09Z</time>
      </trkpt>
      <trkpt lat="45.49685" lon="6.40267">
        <ele>1976</ele>
        <time>2022-08-08T11:24:17Z</time>
      </trkpt>
      <trkpt lat="45.4968" lon="6.40273">
        <ele>1979</ele>
        <time>2022-08-08T11:24:27Z</time>
      </trkpt>
      <trkpt lat="45.49676" lon="6.40278">
        <ele>1981</ele>
        <time>2022-08-08T11:24:37Z</time>
      </trkpt>
      <trkpt lat="45.49673" lon="6.40286">
        <ele>1983</ele>
        <time>2022-08-08T11:24:47Z</time>
      </trkpt>
      <trkpt lat="45.49668" lon="6.40285">
        <ele>1985</ele>
        <time>2022-08-08T11:24:57Z</time>
      </trkpt>
      <trkpt lat="45.49664" lon="6.40287">
        <ele>1989</ele>
        <time>2022-08-08T11:25:12Z</time>
      </trkpt>
      <trkpt lat="45.49647" lon="6.40289">
        <ele>1994</ele>
        <time>2022-08-08T11:25:37Z</time>
      </trkpt>
      <trkpt lat="45.49644" lon="6.40293">
        <ele>1995</ele>
        <time>2022-08-08T11:25:45Z</time>
      </trkpt>
      <trkpt lat="45.49635" lon="6.40292">
        <ele>1997</ele>
        <time>2022-08-08T11:25:55Z</time>
      </trkpt>
      <trkpt lat="45.49629" lon="6.40287">
        <ele>1999</ele>
        <time>2022-08-08T11:26:08Z</time>
      </trkpt>
      <trkpt lat="45.49624" lon="6.4029">
        <ele>1999</ele>
        <time>2022-08-08T11:26:13Z</time>
      </trkpt>
      <trkpt lat="45.4962" lon="6.40291">
        <ele>1998</ele>
        <time>2022-08-08T11:26:18Z</time>
      </trkpt>
      <trkpt lat="45.49615" lon="6.40293">
        <ele>1998</ele>
        <time>2022-08-08T11:26:22Z</time>
      </trkpt>
      <trkpt lat="45.49613" lon="6.403">
        <ele>1998</ele>
        <time>2022-08-08T11:26:26Z</time>
      </trkpt>
      <trkpt lat="45.49608" lon="6.40316">
        <ele>2002</ele>
        <time>2022-08-08T11:26:43Z</time>
      </trkpt>
      <trkpt lat="45.49602" lon="6.40321">
        <ele>2004</ele>
        <time>2022-08-08T11:26:53Z</time>
      </trkpt>
      <trkpt lat="45.49593" lon="6.40322">
        <ele>2006</ele>
        <time>2022-08-08T11:27:03Z</time>
      </trkpt>
      <trkpt lat="45.49589" lon="6.40321">
        <ele>2006</ele>
        <time>2022-08-08T11:27:07Z</time>
      </trkpt>
      <trkpt lat="45.49583" lon="6.40322">
        <ele>2006</ele>
        <time>2022-08-08T11:27:11Z</time>
      </trkpt>
      <trkpt lat="45.49578" lon="6.40319">
        <ele>2007</ele>
        <time>2022-08-08T11:27:18Z</time>
      </trkpt>
      <trkpt lat="45.49573" lon="6.40321">
        <ele>2008</ele>
        <time>2022-08-08T11:27:23Z</time>
      </trkpt>
      <trkpt lat="45.49568" lon="6.40318">
        <ele>2009</ele>
        <time>2022-08-08T11:27:27Z</time>
      </trkpt>
      <trkpt lat="45.49564" lon="6.40318">
        <ele>2009</ele>
        <time>2022-08-08T11:27:31Z</time>
      </trkpt>
      <trkpt lat="45.49558" lon="6.40316">
        <ele>2009</ele>
        <time>2022-08-08T11:27:35Z</time>
      </trkpt>
      <trkpt lat="45.49554" lon="6.40313">
        <ele>2008</ele>
        <time>2022-08-08T11:27:39Z</time>
      </trkpt>
      <trkpt lat="45.4955" lon="6.40311">
        <ele>2008</ele>
        <time>2022-08-08T11:27:43Z</time>
      </trkpt>
      <trkpt lat="45.49545" lon="6.40313">
        <ele>2008</ele>
        <time>2022-08-08T11:27:47Z</time>
      </trkpt>
      <trkpt lat="45.49544" lon="6.4032">
        <ele>2009</ele>
        <time>2022-08-08T11:27:51Z</time>
      </trkpt>
      <trkpt lat="45.49545" lon="6.40326">
        <ele>2012</ele>
        <time>2022-08-08T11:27:59Z</time>
      </trkpt>
      <trkpt lat="45.49551" lon="6.40336">
        <ele>2012</ele>
        <time>2022-08-08T11:28:09Z</time>
      </trkpt>
      <trkpt lat="45.49548" lon="6.40344">
        <ele>2011</ele>
        <time>2022-08-08T11:28:26Z</time>
      </trkpt>
      <trkpt lat="45.49546" lon="6.40349">
        <ele>2011</ele>
        <time>2022-08-08T11:28:31Z</time>
      </trkpt>
      <trkpt lat="45.49535" lon="6.40354">
        <ele>2011</ele>
        <time>2022-08-08T11:28:38Z</time>
      </trkpt>
      <trkpt lat="45.49533" lon="6.4036">
        <ele>2012</ele>
        <time>2022-08-08T11:28:40Z</time>
      </trkpt>
      <trkpt lat="45.4953" lon="6.40364">
        <ele>2013</ele>
        <time>2022-08-08T11:28:43Z</time>
      </trkpt>
      <trkpt lat="45.49527" lon="6.40374">
        <ele>2014</ele>
        <time>2022-08-08T11:28:50Z</time>
      </trkpt>
      <trkpt lat="45.49529" lon="6.4038">
        <ele>2014</ele>
        <time>2022-08-08T11:28:53Z</time>
      </trkpt>
      <trkpt lat="45.4953" lon="6.40388">
        <ele>2014</ele>
        <time>2022-08-08T11:28:57Z</time>
      </trkpt>
      <trkpt lat="45.49528" lon="6.40395">
        <ele>2014</ele>
        <time>2022-08-08T11:29:06Z</time>
      </trkpt>
      <trkpt lat="45.49523" lon="6.40403">
        <ele>2014</ele>
        <time>2022-08-08T11:30:59Z</time>
      </trkpt>
      <trkpt lat="45.49515" lon="6.40412">
        <ele>2012</ele>
        <time>2022-08-08T11:31:06Z</time>
      </trkpt>
      <trkpt lat="45.4951" lon="6.40415">
        <ele>2012</ele>
        <time>2022-08-08T11:31:09Z</time>
      </trkpt>
      <trkpt lat="45.49503" lon="6.40416">
        <ele>2011</ele>
        <time>2022-08-08T11:31:12Z</time>
      </trkpt>
      <trkpt lat="45.495" lon="6.40419">
        <ele>2011</ele>
        <time>2022-08-08T11:31:14Z</time>
      </trkpt>
      <trkpt lat="45.49495" lon="6.40425">
        <ele>2011</ele>
        <time>2022-08-08T11:31:16Z</time>
      </trkpt>
      <trkpt lat="45.49495" lon="6.40432">
        <ele>2011</ele>
        <time>2022-08-08T11:31:18Z</time>
      </trkpt>
      <trkpt lat="45.49489" lon="6.40438">
        <ele>2010</ele>
        <time>2022-08-08T11:31:22Z</time>
      </trkpt>
      <trkpt lat="45.49485" lon="6.40441">
        <ele>2010</ele>
        <time>2022-08-08T11:31:24Z</time>
      </trkpt>
      <trkpt lat="45.49482" lon="6.40446">
        <ele>2010</ele>
        <time>2022-08-08T11:31:26Z</time>
      </trkpt>
      <trkpt lat="45.49477" lon="6.40465">
        <ele>2009</ele>
        <time>2022-08-08T11:31:32Z</time>
      </trkpt>
      <trkpt lat="45.49471" lon="6.4048">
        <ele>2010</ele>
        <time>2022-08-08T11:31:38Z</time>
      </trkpt>
      <trkpt lat="45.49467" lon="6.40485">
        <ele>2010</ele>
        <time>2022-08-08T11:31:41Z</time>
      </trkpt>
      <trkpt lat="45.49461" lon="6.40496">
        <ele>2009</ele>
        <time>2022-08-08T11:31:46Z</time>
      </trkpt>
      <trkpt lat="45.49451" lon="6.40504">
        <ele>2008</ele>
        <time>2022-08-08T11:31:51Z</time>
      </trkpt>
      <trkpt lat="45.49439" lon="6.40515">
        <ele>2007</ele>
        <time>2022-08-08T11:31:57Z</time>
      </trkpt>
      <trkpt lat="45.49433" lon="6.40518">
        <ele>2006</ele>
        <time>2022-08-08T11:32:00Z</time>
      </trkpt>
      <trkpt lat="45.49428" lon="6.40524">
        <ele>2006</ele>
        <time>2022-08-08T11:32:06Z</time>
      </trkpt>
      <trkpt lat="45.49423" lon="6.40526">
        <ele>2006</ele>
        <time>2022-08-08T11:32:10Z</time>
      </trkpt>
      <trkpt lat="45.49414" lon="6.40531">
        <ele>2006</ele>
        <time>2022-08-08T11:32:19Z</time>
      </trkpt>
      <trkpt lat="45.4941" lon="6.40537">
        <ele>2007</ele>
        <time>2022-08-08T11:32:23Z</time>
      </trkpt>
      <trkpt lat="45.49406" lon="6.40545">
        <ele>2006</ele>
        <time>2022-08-08T11:32:35Z</time>
      </trkpt>
      <trkpt lat="45.49402" lon="6.40552">
        <ele>2007</ele>
        <time>2022-08-08T11:32:38Z</time>
      </trkpt>
      <trkpt lat="45.49398" lon="6.40556">
        <ele>2007</ele>
        <time>2022-08-08T11:32:40Z</time>
      </trkpt>
      <trkpt lat="45.49395" lon="6.40563">
        <ele>2007</ele>
        <time>2022-08-08T11:32:42Z</time>
      </trkpt>
      <trkpt lat="45.49391" lon="6.4057">
        <ele>2007</ele>
        <time>2022-08-08T11:32:45Z</time>
      </trkpt>
      <trkpt lat="45.49387" lon="6.4057">
        <ele>2007</ele>
        <time>2022-08-08T11:32:47Z</time>
      </trkpt>
      <trkpt lat="45.49382" lon="6.40574">
        <ele>2007</ele>
        <time>2022-08-08T11:32:50Z</time>
      </trkpt>
      <trkpt lat="45.49373" lon="6.40578">
        <ele>2006</ele>
        <time>2022-08-08T11:32:54Z</time>
      </trkpt>
      <trkpt lat="45.49357" lon="6.40604">
        <ele>2004</ele>
        <time>2022-08-08T11:33:04Z</time>
      </trkpt>
      <trkpt lat="45.49349" lon="6.40613">
        <ele>2004</ele>
        <time>2022-08-08T11:33:08Z</time>
      </trkpt>
      <trkpt lat="45.49348" lon="6.4062">
        <ele>2004</ele>
        <time>2022-08-08T11:33:10Z</time>
      </trkpt>
      <trkpt lat="45.49343" lon="6.40632">
        <ele>2004</ele>
        <time>2022-08-08T11:33:14Z</time>
      </trkpt>
      <trkpt lat="45.4934" lon="6.40635">
        <ele>2004</ele>
        <time>2022-08-08T11:33:16Z</time>
      </trkpt>
      <trkpt lat="45.49333" lon="6.40656">
        <ele>2004</ele>
        <time>2022-08-08T11:33:24Z</time>
      </trkpt>
      <trkpt lat="45.49331" lon="6.40662">
        <ele>2004</ele>
        <time>2022-08-08T11:33:26Z</time>
      </trkpt>
      <trkpt lat="45.49316" lon="6.40699">
        <ele>2001</ele>
        <time>2022-08-08T11:33:41Z</time>
      </trkpt>
      <trkpt lat="45.49312" lon="6.40707">
        <ele>1999</ele>
        <time>2022-08-08T11:33:51Z</time>
      </trkpt>
      <trkpt lat="45.49294" lon="6.40713">
        <ele>1995</ele>
        <time>2022-08-08T11:34:05Z</time>
      </trkpt>
      <trkpt lat="45.49284" lon="6.40715">
        <ele>1994</ele>
        <time>2022-08-08T11:34:09Z</time>
      </trkpt>
      <trkpt lat="45.49279" lon="6.40719">
        <ele>1994</ele>
        <time>2022-08-08T11:34:11Z</time>
      </trkpt>
      <trkpt lat="45.49278" lon="6.40725">
        <ele>1993</ele>
        <time>2022-08-08T11:34:15Z</time>
      </trkpt>
      <trkpt lat="45.49276" lon="6.4073">
        <ele>1992</ele>
        <time>2022-08-08T11:34:19Z</time>
      </trkpt>
      <trkpt lat="45.49274" lon="6.40737">
        <ele>1991</ele>
        <time>2022-08-08T11:34:23Z</time>
      </trkpt>
      <trkpt lat="45.49267" lon="6.40746">
        <ele>1989</ele>
        <time>2022-08-08T11:34:29Z</time>
      </trkpt>
      <trkpt lat="45.49259" lon="6.40759">
        <ele>1988</ele>
        <time>2022-08-08T11:34:37Z</time>
      </trkpt>
      <trkpt lat="45.49255" lon="6.4076">
        <ele>1987</ele>
        <time>2022-08-08T11:34:39Z</time>
      </trkpt>
      <trkpt lat="45.49246" lon="6.40765">
        <ele>1986</ele>
        <time>2022-08-08T11:34:45Z</time>
      </trkpt>
      <trkpt lat="45.49236" lon="6.40764">
        <ele>1984</ele>
        <time>2022-08-08T11:34:50Z</time>
      </trkpt>
      <trkpt lat="45.49219" lon="6.40756">
        <ele>1982</ele>
        <time>2022-08-08T11:35:01Z</time>
      </trkpt>
      <trkpt lat="45.4921" lon="6.40747">
        <ele>1982</ele>
        <time>2022-08-08T11:35:07Z</time>
      </trkpt>
      <trkpt lat="45.49207" lon="6.40743">
        <ele>1982</ele>
        <time>2022-08-08T11:35:10Z</time>
      </trkpt>
      <trkpt lat="45.49203" lon="6.40738">
        <ele>1982</ele>
        <time>2022-08-08T11:35:14Z</time>
      </trkpt>
      <trkpt lat="45.49196" lon="6.40733">
        <ele>1982</ele>
        <time>2022-08-08T11:35:18Z</time>
      </trkpt>
      <trkpt lat="45.49188" lon="6.40727">
        <ele>1981</ele>
        <time>2022-08-08T11:35:22Z</time>
      </trkpt>
      <trkpt lat="45.49179" lon="6.40725">
        <ele>1980</ele>
        <time>2022-08-08T11:35:27Z</time>
      </trkpt>
      <trkpt lat="45.49169" lon="6.40723">
        <ele>1978</ele>
        <time>2022-08-08T11:35:32Z</time>
      </trkpt>
      <trkpt lat="45.4916" lon="6.40726">
        <ele>1977</ele>
        <time>2022-08-08T11:35:38Z</time>
      </trkpt>
      <trkpt lat="45.49155" lon="6.40727">
        <ele>1976</ele>
        <time>2022-08-08T11:35:41Z</time>
      </trkpt>
      <trkpt lat="45.49149" lon="6.40727">
        <ele>1976</ele>
        <time>2022-08-08T11:35:44Z</time>
      </trkpt>
      <trkpt lat="45.49142" lon="6.40732">
        <ele>1975</ele>
        <time>2022-08-08T11:35:49Z</time>
      </trkpt>
      <trkpt lat="45.49136" lon="6.4073">
        <ele>1974</ele>
        <time>2022-08-08T11:35:53Z</time>
      </trkpt>
      <trkpt lat="45.49131" lon="6.4073">
        <ele>1973</ele>
        <time>2022-08-08T11:35:55Z</time>
      </trkpt>
      <trkpt lat="45.49105" lon="6.40739">
        <ele>1971</ele>
        <time>2022-08-08T11:36:07Z</time>
      </trkpt>
      <trkpt lat="45.49095" lon="6.40741">
        <ele>1970</ele>
        <time>2022-08-08T11:36:12Z</time>
      </trkpt>
      <trkpt lat="45.49086" lon="6.40744">
        <ele>1970</ele>
        <time>2022-08-08T11:36:16Z</time>
      </trkpt>
      <trkpt lat="45.49082" lon="6.40748">
        <ele>1969</ele>
        <time>2022-08-08T11:36:18Z</time>
      </trkpt>
      <trkpt lat="45.49058" lon="6.40752">
        <ele>1967</ele>
        <time>2022-08-08T11:36:31Z</time>
      </trkpt>
      <trkpt lat="45.49052" lon="6.40759">
        <ele>1966</ele>
        <time>2022-08-08T11:36:38Z</time>
      </trkpt>
      <trkpt lat="45.4905" lon="6.40769">
        <ele>1965</ele>
        <time>2022-08-08T11:36:42Z</time>
      </trkpt>
      <trkpt lat="45.49047" lon="6.40791">
        <ele>1964</ele>
        <time>2022-08-08T11:36:49Z</time>
      </trkpt>
      <trkpt lat="45.49045" lon="6.40797">
        <ele>1964</ele>
        <time>2022-08-08T11:36:51Z</time>
      </trkpt>
      <trkpt lat="45.4903" lon="6.40805">
        <ele>1963</ele>
        <time>2022-08-08T11:36:59Z</time>
      </trkpt>
      <trkpt lat="45.49016" lon="6.40804">
        <ele>1962</ele>
        <time>2022-08-08T11:37:05Z</time>
      </trkpt>
      <trkpt lat="45.49012" lon="6.40808">
        <ele>1962</ele>
        <time>2022-08-08T11:37:07Z</time>
      </trkpt>
      <trkpt lat="45.48995" lon="6.40835">
        <ele>1961</ele>
        <time>2022-08-08T11:37:18Z</time>
      </trkpt>
      <trkpt lat="45.48989" lon="6.40845">
        <ele>1961</ele>
        <time>2022-08-08T11:37:22Z</time>
      </trkpt>
      <trkpt lat="45.4898" lon="6.40856">
        <ele>1960</ele>
        <time>2022-08-08T11:37:30Z</time>
      </trkpt>
      <trkpt lat="45.48971" lon="6.40861">
        <ele>1959</ele>
        <time>2022-08-08T11:37:38Z</time>
      </trkpt>
      <trkpt lat="45.48972" lon="6.4088">
        <ele>1956</ele>
        <time>2022-08-08T11:38:03Z</time>
      </trkpt>
      <trkpt lat="45.48969" lon="6.40887">
        <ele>1954</ele>
        <time>2022-08-08T11:38:06Z</time>
      </trkpt>
      <trkpt lat="45.48966" lon="6.40892">
        <ele>1953</ele>
        <time>2022-08-08T11:38:08Z</time>
      </trkpt>
      <trkpt lat="45.48958" lon="6.40906">
        <ele>1953</ele>
        <time>2022-08-08T11:38:14Z</time>
      </trkpt>
      <trkpt lat="45.4894" lon="6.40939">
        <ele>1953</ele>
        <time>2022-08-08T11:38:30Z</time>
      </trkpt>
      <trkpt lat="45.48935" lon="6.40944">
        <ele>1952</ele>
        <time>2022-08-08T11:38:35Z</time>
      </trkpt>
      <trkpt lat="45.48932" lon="6.40953">
        <ele>1952</ele>
        <time>2022-08-08T11:38:39Z</time>
      </trkpt>
      <trkpt lat="45.48909" lon="6.40979">
        <ele>1952</ele>
        <time>2022-08-08T11:38:51Z</time>
      </trkpt>
      <trkpt lat="45.48895" lon="6.41007">
        <ele>1952</ele>
        <time>2022-08-08T11:39:01Z</time>
      </trkpt>
      <trkpt lat="45.48891" lon="6.4101">
        <ele>1953</ele>
        <time>2022-08-08T11:39:03Z</time>
      </trkpt>
      <trkpt lat="45.48871" lon="6.41012">
        <ele>1952</ele>
        <time>2022-08-08T11:39:11Z</time>
      </trkpt>
      <trkpt lat="45.48856" lon="6.41006">
        <ele>1952</ele>
        <time>2022-08-08T11:39:17Z</time>
      </trkpt>
      <trkpt lat="45.4883" lon="6.41004">
        <ele>1951</ele>
        <time>2022-08-08T11:39:27Z</time>
      </trkpt>
      <trkpt lat="45.48824" lon="6.41002">
        <ele>1950</ele>
        <time>2022-08-08T11:39:32Z</time>
      </trkpt>
      <trkpt lat="45.48805" lon="6.41002">
        <ele>1950</ele>
        <time>2022-08-08T11:39:47Z</time>
      </trkpt>
      <trkpt lat="45.48792" lon="6.40998">
        <ele>1949</ele>
        <time>2022-08-08T11:39:53Z</time>
      </trkpt>
      <trkpt lat="45.48776" lon="6.40992">
        <ele>1948</ele>
        <time>2022-08-08T11:39:59Z</time>
      </trkpt>
      <trkpt lat="45.48762" lon="6.40978">
        <ele>1946</ele>
        <time>2022-08-08T11:40:08Z</time>
      </trkpt>
      <trkpt lat="45.48755" lon="6.40968">
        <ele>1946</ele>
        <time>2022-08-08T11:40:16Z</time>
      </trkpt>
      <trkpt lat="45.48751" lon="6.40955">
        <ele>1945</ele>
        <time>2022-08-08T11:40:23Z</time>
      </trkpt>
      <trkpt lat="45.48745" lon="6.40917">
        <ele>1945</ele>
        <time>2022-08-08T11:40:35Z</time>
      </trkpt>
      <trkpt lat="45.48738" lon="6.40896">
        <ele>1944</ele>
        <time>2022-08-08T11:40:41Z</time>
      </trkpt>
      <trkpt lat="45.48735" lon="6.40855">
        <ele>1942</ele>
        <time>2022-08-08T11:40:53Z</time>
      </trkpt>
      <trkpt lat="45.48734" lon="6.40814">
        <ele>1939</ele>
        <time>2022-08-08T11:41:05Z</time>
      </trkpt>
      <trkpt lat="45.48733" lon="6.40804">
        <ele>1938</ele>
        <time>2022-08-08T11:41:08Z</time>
      </trkpt>
      <trkpt lat="45.48726" lon="6.40804">
        <ele>1938</ele>
        <time>2022-08-08T11:41:10Z</time>
      </trkpt>
      <trkpt lat="45.48725" lon="6.40813">
        <ele>1938</ele>
        <time>2022-08-08T11:41:12Z</time>
      </trkpt>
      <trkpt lat="45.48722" lon="6.40819">
        <ele>1937</ele>
        <time>2022-08-08T11:41:14Z</time>
      </trkpt>
      <trkpt lat="45.4872" lon="6.40826">
        <ele>1937</ele>
        <time>2022-08-08T11:41:16Z</time>
      </trkpt>
      <trkpt lat="45.48719" lon="6.40832">
        <ele>1936</ele>
        <time>2022-08-08T11:41:18Z</time>
      </trkpt>
      <trkpt lat="45.48718" lon="6.40852">
        <ele>1935</ele>
        <time>2022-08-08T11:41:24Z</time>
      </trkpt>
      <trkpt lat="45.48714" lon="6.40868">
        <ele>1934</ele>
        <time>2022-08-08T11:41:29Z</time>
      </trkpt>
      <trkpt lat="45.48711" lon="6.40876">
        <ele>1933</ele>
        <time>2022-08-08T11:41:32Z</time>
      </trkpt>
      <trkpt lat="45.48705" lon="6.4088">
        <ele>1932</ele>
        <time>2022-08-08T11:41:35Z</time>
      </trkpt>
      <trkpt lat="45.48685" lon="6.40883">
        <ele>1930</ele>
        <time>2022-08-08T11:41:44Z</time>
      </trkpt>
      <trkpt lat="45.48676" lon="6.4089">
        <ele>1928</ele>
        <time>2022-08-08T11:41:49Z</time>
      </trkpt>
      <trkpt lat="45.48669" lon="6.40901">
        <ele>1928</ele>
        <time>2022-08-08T11:41:53Z</time>
      </trkpt>
      <trkpt lat="45.4866" lon="6.40951">
        <ele>1925</ele>
        <time>2022-08-08T11:42:08Z</time>
      </trkpt>
      <trkpt lat="45.48663" lon="6.40978">
        <ele>1923</ele>
        <time>2022-08-08T11:42:16Z</time>
      </trkpt>
      <trkpt lat="45.4867" lon="6.41009">
        <ele>1921</ele>
        <time>2022-08-08T11:42:26Z</time>
      </trkpt>
      <trkpt lat="45.48691" lon="6.41043">
        <ele>1918</ele>
        <time>2022-08-08T11:42:40Z</time>
      </trkpt>
      <trkpt lat="45.48695" lon="6.41047">
        <ele>1918</ele>
        <time>2022-08-08T11:42:42Z</time>
      </trkpt>
      <trkpt lat="45.48702" lon="6.41055">
        <ele>1917</ele>
        <time>2022-08-08T11:42:46Z</time>
      </trkpt>
      <trkpt lat="45.48707" lon="6.41059">
        <ele>1916</ele>
        <time>2022-08-08T11:42:48Z</time>
      </trkpt>
      <trkpt lat="45.48711" lon="6.41062">
        <ele>1915</ele>
        <time>2022-08-08T11:42:50Z</time>
      </trkpt>
      <trkpt lat="45.48714" lon="6.41068">
        <ele>1915</ele>
        <time>2022-08-08T11:42:52Z</time>
      </trkpt>
      <trkpt lat="45.48717" lon="6.41076">
        <ele>1914</ele>
        <time>2022-08-08T11:42:55Z</time>
      </trkpt>
      <trkpt lat="45.48723" lon="6.41087">
        <ele>1913</ele>
        <time>2022-08-08T11:42:59Z</time>
      </trkpt>
      <trkpt lat="45.48734" lon="6.41101">
        <ele>1912</ele>
        <time>2022-08-08T11:43:06Z</time>
      </trkpt>
      <trkpt lat="45.48746" lon="6.41107">
        <ele>1911</ele>
        <time>2022-08-08T11:43:12Z</time>
      </trkpt>
      <trkpt lat="45.48752" lon="6.41106">
        <ele>1910</ele>
        <time>2022-08-08T11:43:15Z</time>
      </trkpt>
      <trkpt lat="45.48761" lon="6.41108">
        <ele>1909</ele>
        <time>2022-08-08T11:43:19Z</time>
      </trkpt>
      <trkpt lat="45.48791" lon="6.41128">
        <ele>1905</ele>
        <time>2022-08-08T11:43:34Z</time>
      </trkpt>
      <trkpt lat="45.48816" lon="6.4113">
        <ele>1902</ele>
        <time>2022-08-08T11:43:46Z</time>
      </trkpt>
      <trkpt lat="45.48819" lon="6.41135">
        <ele>1902</ele>
        <time>2022-08-08T11:43:48Z</time>
      </trkpt>
      <trkpt lat="45.48819" lon="6.41143">
        <ele>1901</ele>
        <time>2022-08-08T11:43:51Z</time>
      </trkpt>
      <trkpt lat="45.48815" lon="6.41149">
        <ele>1901</ele>
        <time>2022-08-08T11:43:54Z</time>
      </trkpt>
      <trkpt lat="45.4881" lon="6.4115">
        <ele>1900</ele>
        <time>2022-08-08T11:43:56Z</time>
      </trkpt>
      <trkpt lat="45.48805" lon="6.41149">
        <ele>1899</ele>
        <time>2022-08-08T11:43:59Z</time>
      </trkpt>
      <trkpt lat="45.48761" lon="6.41157">
        <ele>1895</ele>
        <time>2022-08-08T11:44:19Z</time>
      </trkpt>
      <trkpt lat="45.48728" lon="6.41163">
        <ele>1891</ele>
        <time>2022-08-08T11:44:34Z</time>
      </trkpt>
      <trkpt lat="45.48723" lon="6.41161">
        <ele>1891</ele>
        <time>2022-08-08T11:44:36Z</time>
      </trkpt>
      <trkpt lat="45.48712" lon="6.4116">
        <ele>1889</ele>
        <time>2022-08-08T11:44:41Z</time>
      </trkpt>
      <trkpt lat="45.48707" lon="6.41161">
        <ele>1889</ele>
        <time>2022-08-08T11:44:43Z</time>
      </trkpt>
      <trkpt lat="45.48699" lon="6.41156">
        <ele>1888</ele>
        <time>2022-08-08T11:44:47Z</time>
      </trkpt>
      <trkpt lat="45.4869" lon="6.41151">
        <ele>1887</ele>
        <time>2022-08-08T11:44:51Z</time>
      </trkpt>
      <trkpt lat="45.48669" lon="6.41134">
        <ele>1885</ele>
        <time>2022-08-08T11:45:01Z</time>
      </trkpt>
      <trkpt lat="45.48647" lon="6.41117">
        <ele>1881</ele>
        <time>2022-08-08T11:45:13Z</time>
      </trkpt>
      <trkpt lat="45.48631" lon="6.41098">
        <ele>1878</ele>
        <time>2022-08-08T11:45:23Z</time>
      </trkpt>
      <trkpt lat="45.48626" lon="6.41104">
        <ele>1877</ele>
        <time>2022-08-08T11:45:26Z</time>
      </trkpt>
      <trkpt lat="45.48627" lon="6.41111">
        <ele>1877</ele>
        <time>2022-08-08T11:45:29Z</time>
      </trkpt>
      <trkpt lat="45.48652" lon="6.4115">
        <ele>1871</ele>
        <time>2022-08-08T11:46:00Z</time>
      </trkpt>
      <trkpt lat="45.48659" lon="6.41158">
        <ele>1870</ele>
        <time>2022-08-08T11:46:07Z</time>
      </trkpt>
      <trkpt lat="45.4867" lon="6.41173">
        <ele>1868</ele>
        <time>2022-08-08T11:46:18Z</time>
      </trkpt>
      <trkpt lat="45.48682" lon="6.41188">
        <ele>1867</ele>
        <time>2022-08-08T11:46:26Z</time>
      </trkpt>
      <trkpt lat="45.48749" lon="6.41238">
        <ele>1860</ele>
        <time>2022-08-08T11:46:55Z</time>
      </trkpt>
      <trkpt lat="45.48753" lon="6.41238">
        <ele>1859</ele>
        <time>2022-08-08T11:46:57Z</time>
      </trkpt>
      <trkpt lat="45.48758" lon="6.41237">
        <ele>1859</ele>
        <time>2022-08-08T11:46:59Z</time>
      </trkpt>
      <trkpt lat="45.48763" lon="6.41238">
        <ele>1858</ele>
        <time>2022-08-08T11:47:02Z</time>
      </trkpt>
      <trkpt lat="45.48765" lon="6.41245">
        <ele>1857</ele>
        <time>2022-08-08T11:47:04Z</time>
      </trkpt>
      <trkpt lat="45.48758" lon="6.41251">
        <ele>1856</ele>
        <time>2022-08-08T11:47:07Z</time>
      </trkpt>
      <trkpt lat="45.48749" lon="6.41255">
        <ele>1856</ele>
        <time>2022-08-08T11:47:11Z</time>
      </trkpt>
      <trkpt lat="45.48743" lon="6.41253">
        <ele>1855</ele>
        <time>2022-08-08T11:47:13Z</time>
      </trkpt>
      <trkpt lat="45.48734" lon="6.41252">
        <ele>1855</ele>
        <time>2022-08-08T11:47:17Z</time>
      </trkpt>
      <trkpt lat="45.48712" lon="6.41237">
        <ele>1853</ele>
        <time>2022-08-08T11:47:27Z</time>
      </trkpt>
      <trkpt lat="45.48688" lon="6.41228">
        <ele>1852</ele>
        <time>2022-08-08T11:47:37Z</time>
      </trkpt>
      <trkpt lat="45.48678" lon="6.41221">
        <ele>1851</ele>
        <time>2022-08-08T11:47:42Z</time>
      </trkpt>
      <trkpt lat="45.48669" lon="6.41218">
        <ele>1851</ele>
        <time>2022-08-08T11:47:46Z</time>
      </trkpt>
      <trkpt lat="45.4865" lon="6.41209">
        <ele>1850</ele>
        <time>2022-08-08T11:47:54Z</time>
      </trkpt>
      <trkpt lat="45.48636" lon="6.41209">
        <ele>1850</ele>
        <time>2022-08-08T11:48:00Z</time>
      </trkpt>
      <trkpt lat="45.48627" lon="6.41218">
        <ele>1849</ele>
        <time>2022-08-08T11:48:04Z</time>
      </trkpt>
      <trkpt lat="45.48614" lon="6.41217">
        <ele>1848</ele>
        <time>2022-08-08T11:48:13Z</time>
      </trkpt>
      <trkpt lat="45.48609" lon="6.41211">
        <ele>1847</ele>
        <time>2022-08-08T11:48:18Z</time>
      </trkpt>
      <trkpt lat="45.4859" lon="6.41187">
        <ele>1846</ele>
        <time>2022-08-08T11:48:29Z</time>
      </trkpt>
      <trkpt lat="45.48551" lon="6.41138">
        <ele>1841</ele>
        <time>2022-08-08T11:48:52Z</time>
      </trkpt>
      <trkpt lat="45.48546" lon="6.41136">
        <ele>1841</ele>
        <time>2022-08-08T11:48:55Z</time>
      </trkpt>
      <trkpt lat="45.48542" lon="6.41131">
        <ele>1839</ele>
        <time>2022-08-08T11:48:58Z</time>
      </trkpt>
      <trkpt lat="45.48536" lon="6.41136">
        <ele>1838</ele>
        <time>2022-08-08T11:49:03Z</time>
      </trkpt>
      <trkpt lat="45.48539" lon="6.4114">
        <ele>1837</ele>
        <time>2022-08-08T11:49:05Z</time>
      </trkpt>
      <trkpt lat="45.4854" lon="6.41148">
        <ele>1837</ele>
        <time>2022-08-08T11:49:08Z</time>
      </trkpt>
      <trkpt lat="45.48551" lon="6.41187">
        <ele>1832</ele>
        <time>2022-08-08T11:49:23Z</time>
      </trkpt>
      <trkpt lat="45.48546" lon="6.41185">
        <ele>1830</ele>
        <time>2022-08-08T11:49:28Z</time>
      </trkpt>
      <trkpt lat="45.48543" lon="6.41182">
        <ele>1829</ele>
        <time>2022-08-08T11:49:30Z</time>
      </trkpt>
      <trkpt lat="45.48542" lon="6.41192">
        <ele>1828</ele>
        <time>2022-08-08T11:49:33Z</time>
      </trkpt>
      <trkpt lat="45.48545" lon="6.41197">
        <ele>1828</ele>
        <time>2022-08-08T11:49:35Z</time>
      </trkpt>
      <trkpt lat="45.48549" lon="6.41217">
        <ele>1825</ele>
        <time>2022-08-08T11:49:43Z</time>
      </trkpt>
      <trkpt lat="45.48551" lon="6.41222">
        <ele>1825</ele>
        <time>2022-08-08T11:49:45Z</time>
      </trkpt>
      <trkpt lat="45.48545" lon="6.41222">
        <ele>1824</ele>
        <time>2022-08-08T11:49:50Z</time>
      </trkpt>
      <trkpt lat="45.48539" lon="6.41228">
        <ele>1822</ele>
        <time>2022-08-08T11:49:55Z</time>
      </trkpt>
      <trkpt lat="45.48537" lon="6.41236">
        <ele>1820</ele>
        <time>2022-08-08T11:50:00Z</time>
      </trkpt>
      <trkpt lat="45.48533" lon="6.41239">
        <ele>1817</ele>
        <time>2022-08-08T11:50:10Z</time>
      </trkpt>
      <trkpt lat="45.48538" lon="6.4125">
        <ele>1817</ele>
        <time>2022-08-08T11:50:19Z</time>
      </trkpt>
      <trkpt lat="45.4854" lon="6.41254">
        <ele>1817</ele>
        <time>2022-08-08T11:50:21Z</time>
      </trkpt>
      <trkpt lat="45.48535" lon="6.41258">
        <ele>1814</ele>
        <time>2022-08-08T11:50:26Z</time>
      </trkpt>
      <trkpt lat="45.48531" lon="6.41257">
        <ele>1813</ele>
        <time>2022-08-08T11:50:28Z</time>
      </trkpt>
      <trkpt lat="45.48521" lon="6.41251">
        <ele>1811</ele>
        <time>2022-08-08T11:50:34Z</time>
      </trkpt>
      <trkpt lat="45.4849" lon="6.41214">
        <ele>1805</ele>
        <time>2022-08-08T11:50:53Z</time>
      </trkpt>
      <trkpt lat="45.48483" lon="6.41212">
        <ele>1804</ele>
        <time>2022-08-08T11:50:56Z</time>
      </trkpt>
      <trkpt lat="45.4848" lon="6.41208">
        <ele>1804</ele>
        <time>2022-08-08T11:50:58Z</time>
      </trkpt>
      <trkpt lat="45.48465" lon="6.41194">
        <ele>1803</ele>
        <time>2022-08-08T11:51:04Z</time>
      </trkpt>
      <trkpt lat="45.48458" lon="6.41188">
        <ele>1802</ele>
        <time>2022-08-08T11:51:08Z</time>
      </trkpt>
      <trkpt lat="45.48444" lon="6.41182">
        <ele>1800</ele>
        <time>2022-08-08T11:51:15Z</time>
      </trkpt>
      <trkpt lat="45.48398" lon="6.41165">
        <ele>1789</ele>
        <time>2022-08-08T11:51:41Z</time>
      </trkpt>
      <trkpt lat="45.48395" lon="6.41176">
        <ele>1787</ele>
        <time>2022-08-08T11:51:48Z</time>
      </trkpt>
      <trkpt lat="45.484" lon="6.41186">
        <ele>1785</ele>
        <time>2022-08-08T11:51:53Z</time>
      </trkpt>
      <trkpt lat="45.48401" lon="6.41193">
        <ele>1784</ele>
        <time>2022-08-08T11:51:57Z</time>
      </trkpt>
      <trkpt lat="45.48396" lon="6.41194">
        <ele>1783</ele>
        <time>2022-08-08T11:52:00Z</time>
      </trkpt>
      <trkpt lat="45.48391" lon="6.41192">
        <ele>1782</ele>
        <time>2022-08-08T11:52:03Z</time>
      </trkpt>
      <trkpt lat="45.48387" lon="6.41194">
        <ele>1780</ele>
        <time>2022-08-08T11:52:07Z</time>
      </trkpt>
      <trkpt lat="45.48387" lon="6.412">
        <ele>1779</ele>
        <time>2022-08-08T11:52:09Z</time>
      </trkpt>
      <trkpt lat="45.4839" lon="6.41205">
        <ele>1779</ele>
        <time>2022-08-08T11:52:11Z</time>
      </trkpt>
      <trkpt lat="45.48385" lon="6.41207">
        <ele>1777</ele>
        <time>2022-08-08T11:52:15Z</time>
      </trkpt>
      <trkpt lat="45.48376" lon="6.41202">
        <ele>1775</ele>
        <time>2022-08-08T11:52:20Z</time>
      </trkpt>
      <trkpt lat="45.48372" lon="6.41206">
        <ele>1774</ele>
        <time>2022-08-08T11:52:23Z</time>
      </trkpt>
      <trkpt lat="45.48371" lon="6.41214">
        <ele>1773</ele>
        <time>2022-08-08T11:52:28Z</time>
      </trkpt>
      <trkpt lat="45.48374" lon="6.41221">
        <ele>1772</ele>
        <time>2022-08-08T11:52:31Z</time>
      </trkpt>
      <trkpt lat="45.48374" lon="6.41227">
        <ele>1770</ele>
        <time>2022-08-08T11:52:34Z</time>
      </trkpt>
      <trkpt lat="45.48368" lon="6.41227">
        <ele>1768</ele>
        <time>2022-08-08T11:52:37Z</time>
      </trkpt>
      <trkpt lat="45.48356" lon="6.41218">
        <ele>1764</ele>
        <time>2022-08-08T11:52:45Z</time>
      </trkpt>
      <trkpt lat="45.48352" lon="6.41223">
        <ele>1763</ele>
        <time>2022-08-08T11:52:49Z</time>
      </trkpt>
      <trkpt lat="45.48346" lon="6.41223">
        <ele>1760</ele>
        <time>2022-08-08T11:52:54Z</time>
      </trkpt>
      <trkpt lat="45.48343" lon="6.4122">
        <ele>1758</ele>
        <time>2022-08-08T11:52:56Z</time>
      </trkpt>
      <trkpt lat="45.48339" lon="6.41209">
        <ele>1756</ele>
        <time>2022-08-08T11:53:00Z</time>
      </trkpt>
      <trkpt lat="45.48335" lon="6.41205">
        <ele>1756</ele>
        <time>2022-08-08T11:53:02Z</time>
      </trkpt>
      <trkpt lat="45.48329" lon="6.41204">
        <ele>1755</ele>
        <time>2022-08-08T11:53:04Z</time>
      </trkpt>
      <trkpt lat="45.48324" lon="6.41208">
        <ele>1754</ele>
        <time>2022-08-08T11:53:06Z</time>
      </trkpt>
      <trkpt lat="45.4832" lon="6.41204">
        <ele>1754</ele>
        <time>2022-08-08T11:53:08Z</time>
      </trkpt>
      <trkpt lat="45.48315" lon="6.41192">
        <ele>1753</ele>
        <time>2022-08-08T11:53:12Z</time>
      </trkpt>
      <trkpt lat="45.48271" lon="6.41133">
        <ele>1749</ele>
        <time>2022-08-08T11:53:36Z</time>
      </trkpt>
      <trkpt lat="45.48263" lon="6.41125">
        <ele>1747</ele>
        <time>2022-08-08T11:53:43Z</time>
      </trkpt>
      <trkpt lat="45.48259" lon="6.41115">
        <ele>1747</ele>
        <time>2022-08-08T11:53:48Z</time>
      </trkpt>
      <trkpt lat="45.48244" lon="6.41075">
        <ele>1745</ele>
        <time>2022-08-08T11:54:01Z</time>
      </trkpt>
      <trkpt lat="45.48246" lon="6.41069">
        <ele>1744</ele>
        <time>2022-08-08T11:54:03Z</time>
      </trkpt>
      <trkpt lat="45.48241" lon="6.41047">
        <ele>1743</ele>
        <time>2022-08-08T11:54:09Z</time>
      </trkpt>
      <trkpt lat="45.48239" lon="6.41031">
        <ele>1742</ele>
        <time>2022-08-08T11:54:13Z</time>
      </trkpt>
      <trkpt lat="45.48236" lon="6.41025">
        <ele>1742</ele>
        <time>2022-08-08T11:54:15Z</time>
      </trkpt>
      <trkpt lat="45.48233" lon="6.41003">
        <ele>1742</ele>
        <time>2022-08-08T11:54:21Z</time>
      </trkpt>
      <trkpt lat="45.48233" lon="6.40994">
        <ele>1741</ele>
        <time>2022-08-08T11:54:24Z</time>
      </trkpt>
      <trkpt lat="45.48231" lon="6.4098">
        <ele>1740</ele>
        <time>2022-08-08T11:54:28Z</time>
      </trkpt>
      <trkpt lat="45.48229" lon="6.40953">
        <ele>1738</ele>
        <time>2022-08-08T11:54:36Z</time>
      </trkpt>
      <trkpt lat="45.48238" lon="6.40927">
        <ele>1737</ele>
        <time>2022-08-08T11:54:44Z</time>
      </trkpt>
      <trkpt lat="45.48285" lon="6.40855">
        <ele>1729</ele>
        <time>2022-08-08T11:55:14Z</time>
      </trkpt>
      <trkpt lat="45.48296" lon="6.40835">
        <ele>1727</ele>
        <time>2022-08-08T11:55:22Z</time>
      </trkpt>
      <trkpt lat="45.4835" lon="6.40767">
        <ele>1720</ele>
        <time>2022-08-08T11:55:53Z</time>
      </trkpt>
      <trkpt lat="45.4836" lon="6.40753">
        <ele>1719</ele>
        <time>2022-08-08T11:55:59Z</time>
      </trkpt>
      <trkpt lat="45.48364" lon="6.4074">
        <ele>1718</ele>
        <time>2022-08-08T11:56:03Z</time>
      </trkpt>
      <trkpt lat="45.48364" lon="6.40726">
        <ele>1717</ele>
        <time>2022-08-08T11:56:07Z</time>
      </trkpt>
      <trkpt lat="45.48368" lon="6.40719">
        <ele>1716</ele>
        <time>2022-08-08T11:56:10Z</time>
      </trkpt>
      <trkpt lat="45.48372" lon="6.40717">
        <ele>1716</ele>
        <time>2022-08-08T11:56:12Z</time>
      </trkpt>
      <trkpt lat="45.48381" lon="6.40698">
        <ele>1716</ele>
        <time>2022-08-08T11:56:19Z</time>
      </trkpt>
      <trkpt lat="45.48434" lon="6.40622">
        <ele>1711</ele>
        <time>2022-08-08T11:56:49Z</time>
      </trkpt>
      <trkpt lat="45.48462" lon="6.40574">
        <ele>1711</ele>
        <time>2022-08-08T11:57:07Z</time>
      </trkpt>
      <trkpt lat="45.48464" lon="6.40567">
        <ele>1712</ele>
        <time>2022-08-08T11:57:13Z</time>
      </trkpt>
      <trkpt lat="45.48462" lon="6.40556">
        <ele>1708</ele>
        <time>2022-08-08T11:57:24Z</time>
      </trkpt>
      <trkpt lat="45.48452" lon="6.40548">
        <ele>1703</ele>
        <time>2022-08-08T11:57:31Z</time>
      </trkpt>
      <trkpt lat="45.48439" lon="6.40558">
        <ele>1698</ele>
        <time>2022-08-08T11:57:41Z</time>
      </trkpt>
      <trkpt lat="45.48427" lon="6.40567">
        <ele>1694</ele>
        <time>2022-08-08T11:57:50Z</time>
      </trkpt>
      <trkpt lat="45.48422" lon="6.40568">
        <ele>1692</ele>
        <time>2022-08-08T11:57:53Z</time>
      </trkpt>
      <trkpt lat="45.484" lon="6.40583">
        <ele>1684</ele>
        <time>2022-08-08T11:58:09Z</time>
      </trkpt>
      <trkpt lat="45.48397" lon="6.40587">
        <ele>1682</ele>
        <time>2022-08-08T11:58:12Z</time>
      </trkpt>
      <trkpt lat="45.48392" lon="6.40587">
        <ele>1680</ele>
        <time>2022-08-08T11:58:15Z</time>
      </trkpt>
      <trkpt lat="45.48388" lon="6.40591">
        <ele>1679</ele>
        <time>2022-08-08T11:58:18Z</time>
      </trkpt>
      <trkpt lat="45.48362" lon="6.406">
        <ele>1671</ele>
        <time>2022-08-08T11:58:34Z</time>
      </trkpt>
      <trkpt lat="45.48358" lon="6.40604">
        <ele>1670</ele>
        <time>2022-08-08T11:58:37Z</time>
      </trkpt>
      <trkpt lat="45.48348" lon="6.40605">
        <ele>1668</ele>
        <time>2022-08-08T11:58:43Z</time>
      </trkpt>
      <trkpt lat="45.48344" lon="6.40608">
        <ele>1666</ele>
        <time>2022-08-08T11:58:46Z</time>
      </trkpt>
      <trkpt lat="45.4833" lon="6.40613">
        <ele>1662</ele>
        <time>2022-08-08T11:58:56Z</time>
      </trkpt>
      <trkpt lat="45.48322" lon="6.40619">
        <ele>1659</ele>
        <time>2022-08-08T11:59:02Z</time>
      </trkpt>
      <trkpt lat="45.48303" lon="6.40627">
        <ele>1655</ele>
        <time>2022-08-08T11:59:14Z</time>
      </trkpt>
      <trkpt lat="45.48299" lon="6.40631">
        <ele>1653</ele>
        <time>2022-08-08T11:59:17Z</time>
      </trkpt>
      <trkpt lat="45.48294" lon="6.40631">
        <ele>1652</ele>
        <time>2022-08-08T11:59:20Z</time>
      </trkpt>
      <trkpt lat="45.48292" lon="6.40637">
        <ele>1651</ele>
        <time>2022-08-08T11:59:23Z</time>
      </trkpt>
      <trkpt lat="45.48279" lon="6.40645">
        <ele>1648</ele>
        <time>2022-08-08T11:59:32Z</time>
      </trkpt>
      <trkpt lat="45.48274" lon="6.40646">
        <ele>1647</ele>
        <time>2022-08-08T11:59:35Z</time>
      </trkpt>
      <trkpt lat="45.48269" lon="6.40649">
        <ele>1645</ele>
        <time>2022-08-08T11:59:39Z</time>
      </trkpt>
      <trkpt lat="45.48255" lon="6.40657">
        <ele>1639</ele>
        <time>2022-08-08T11:59:49Z</time>
      </trkpt>
      <trkpt lat="45.48251" lon="6.40661">
        <ele>1638</ele>
        <time>2022-08-08T11:59:52Z</time>
      </trkpt>
      <trkpt lat="45.48247" lon="6.40662">
        <ele>1636</ele>
        <time>2022-08-08T11:59:56Z</time>
      </trkpt>
      <trkpt lat="45.48243" lon="6.40666">
        <ele>1635</ele>
        <time>2022-08-08T11:59:59Z</time>
      </trkpt>
      <trkpt lat="45.48239" lon="6.40671">
        <ele>1633</ele>
        <time>2022-08-08T12:00:03Z</time>
      </trkpt>
      <trkpt lat="45.48234" lon="6.40672">
        <ele>1632</ele>
        <time>2022-08-08T12:00:07Z</time>
      </trkpt>
      <trkpt lat="45.48228" lon="6.4067">
        <ele>1630</ele>
        <time>2022-08-08T12:00:11Z</time>
      </trkpt>
      <trkpt lat="45.48195" lon="6.40674">
        <ele>1622</ele>
        <time>2022-08-08T12:00:34Z</time>
      </trkpt>
      <trkpt lat="45.4819" lon="6.40671">
        <ele>1620</ele>
        <time>2022-08-08T12:00:37Z</time>
      </trkpt>
      <trkpt lat="45.48168" lon="6.40674">
        <ele>1616</ele>
        <time>2022-08-08T12:00:51Z</time>
      </trkpt>
      <trkpt lat="45.48164" lon="6.40672">
        <ele>1614</ele>
        <time>2022-08-08T12:00:54Z</time>
      </trkpt>
      <trkpt lat="45.48155" lon="6.40671">
        <ele>1612</ele>
        <time>2022-08-08T12:01:00Z</time>
      </trkpt>
      <trkpt lat="45.4815" lon="6.4067">
        <ele>1611</ele>
        <time>2022-08-08T12:01:03Z</time>
      </trkpt>
      <trkpt lat="45.48136" lon="6.4067">
        <ele>1608</ele>
        <time>2022-08-08T12:01:11Z</time>
      </trkpt>
      <trkpt lat="45.48126" lon="6.40672">
        <ele>1606</ele>
        <time>2022-08-08T12:01:17Z</time>
      </trkpt>
      <trkpt lat="45.4812" lon="6.40671">
        <ele>1605</ele>
        <time>2022-08-08T12:01:20Z</time>
      </trkpt>
      <trkpt lat="45.48113" lon="6.40673">
        <ele>1603</ele>
        <time>2022-08-08T12:01:24Z</time>
      </trkpt>
      <trkpt lat="45.481" lon="6.40669">
        <ele>1600</ele>
        <time>2022-08-08T12:01:31Z</time>
      </trkpt>
      <trkpt lat="45.48095" lon="6.4067">
        <ele>1599</ele>
        <time>2022-08-08T12:01:33Z</time>
      </trkpt>
      <trkpt lat="45.4809" lon="6.40667">
        <ele>1597</ele>
        <time>2022-08-08T12:01:36Z</time>
      </trkpt>
      <trkpt lat="45.48081" lon="6.40674">
        <ele>1596</ele>
        <time>2022-08-08T12:01:41Z</time>
      </trkpt>
      <trkpt lat="45.48073" lon="6.40673">
        <ele>1594</ele>
        <time>2022-08-08T12:01:45Z</time>
      </trkpt>
      <trkpt lat="45.48047" lon="6.40689">
        <ele>1589</ele>
        <time>2022-08-08T12:02:00Z</time>
      </trkpt>
      <trkpt lat="45.48037" lon="6.40697">
        <ele>1586</ele>
        <time>2022-08-08T12:02:06Z</time>
      </trkpt>
      <trkpt lat="45.48033" lon="6.40697">
        <ele>1585</ele>
        <time>2022-08-08T12:02:09Z</time>
      </trkpt>
      <trkpt lat="45.48029" lon="6.40699">
        <ele>1584</ele>
        <time>2022-08-08T12:02:12Z</time>
      </trkpt>
      <trkpt lat="45.48025" lon="6.40704">
        <ele>1583</ele>
        <time>2022-08-08T12:02:15Z</time>
      </trkpt>
      <trkpt lat="45.48015" lon="6.40705">
        <ele>1580</ele>
        <time>2022-08-08T12:02:21Z</time>
      </trkpt>
      <trkpt lat="45.48011" lon="6.40708">
        <ele>1579</ele>
        <time>2022-08-08T12:02:24Z</time>
      </trkpt>
      <trkpt lat="45.48003" lon="6.40724">
        <ele>1574</ele>
        <time>2022-08-08T12:02:34Z</time>
      </trkpt>
      <trkpt lat="45.47994" lon="6.4073">
        <ele>1572</ele>
        <time>2022-08-08T12:02:42Z</time>
      </trkpt>
      <trkpt lat="45.47989" lon="6.40732">
        <ele>1570</ele>
        <time>2022-08-08T12:02:46Z</time>
      </trkpt>
      <trkpt lat="45.47984" lon="6.40737">
        <ele>1568</ele>
        <time>2022-08-08T12:02:50Z</time>
      </trkpt>
      <trkpt lat="45.47981" lon="6.40741">
        <ele>1567</ele>
        <time>2022-08-08T12:02:53Z</time>
      </trkpt>
      <trkpt lat="45.47976" lon="6.40745">
        <ele>1566</ele>
        <time>2022-08-08T12:02:57Z</time>
      </trkpt>
      <trkpt lat="45.47974" lon="6.40751">
        <ele>1565</ele>
        <time>2022-08-08T12:03:00Z</time>
      </trkpt>
      <trkpt lat="45.47968" lon="6.40762">
        <ele>1562</ele>
        <time>2022-08-08T12:03:06Z</time>
      </trkpt>
      <trkpt lat="45.47963" lon="6.40766">
        <ele>1561</ele>
        <time>2022-08-08T12:03:10Z</time>
      </trkpt>
      <trkpt lat="45.47943" lon="6.40798">
        <ele>1553</ele>
        <time>2022-08-08T12:03:29Z</time>
      </trkpt>
      <trkpt lat="45.47935" lon="6.40797">
        <ele>1550</ele>
        <time>2022-08-08T12:03:37Z</time>
      </trkpt>
      <trkpt lat="45.47923" lon="6.40812">
        <ele>1546</ele>
        <time>2022-08-08T12:03:47Z</time>
      </trkpt>
      <trkpt lat="45.47918" lon="6.40825">
        <ele>1544</ele>
        <time>2022-08-08T12:03:53Z</time>
      </trkpt>
      <trkpt lat="45.47914" lon="6.4083">
        <ele>1543</ele>
        <time>2022-08-08T12:03:56Z</time>
      </trkpt>
      <trkpt lat="45.47911" lon="6.40836">
        <ele>1542</ele>
        <time>2022-08-08T12:03:59Z</time>
      </trkpt>
      <trkpt lat="45.47905" lon="6.40843">
        <ele>1540</ele>
        <time>2022-08-08T12:04:04Z</time>
      </trkpt>
      <trkpt lat="45.47901" lon="6.40846">
        <ele>1539</ele>
        <time>2022-08-08T12:04:07Z</time>
      </trkpt>
      <trkpt lat="45.47893" lon="6.40859">
        <ele>1537</ele>
        <time>2022-08-08T12:04:12Z</time>
      </trkpt>
      <trkpt lat="45.47886" lon="6.40865">
        <ele>1535</ele>
        <time>2022-08-08T12:04:18Z</time>
      </trkpt>
      <trkpt lat="45.47879" lon="6.40874">
        <ele>1531</ele>
        <time>2022-08-08T12:04:25Z</time>
      </trkpt>
      <trkpt lat="45.47873" lon="6.40886">
        <ele>1529</ele>
        <time>2022-08-08T12:04:31Z</time>
      </trkpt>
      <trkpt lat="45.4787" lon="6.40891">
        <ele>1528</ele>
        <time>2022-08-08T12:04:33Z</time>
      </trkpt>
      <trkpt lat="45.47858" lon="6.40899">
        <ele>1525</ele>
        <time>2022-08-08T12:04:41Z</time>
      </trkpt>
      <trkpt lat="45.47855" lon="6.40907">
        <ele>1523</ele>
        <time>2022-08-08T12:04:45Z</time>
      </trkpt>
      <trkpt lat="45.47842" lon="6.40925">
        <ele>1518</ele>
        <time>2022-08-08T12:04:58Z</time>
      </trkpt>
      <trkpt lat="45.47837" lon="6.40938">
        <ele>1516</ele>
        <time>2022-08-08T12:05:04Z</time>
      </trkpt>
      <trkpt lat="45.47832" lon="6.40944">
        <ele>1515</ele>
        <time>2022-08-08T12:05:07Z</time>
      </trkpt>
      <trkpt lat="45.47826" lon="6.40961">
        <ele>1511</ele>
        <time>2022-08-08T12:05:17Z</time>
      </trkpt>
      <trkpt lat="45.47822" lon="6.40953">
        <ele>1509</ele>
        <time>2022-08-08T12:05:24Z</time>
      </trkpt>
      <trkpt lat="45.47822" lon="6.40945">
        <ele>1508</ele>
        <time>2022-08-08T12:05:27Z</time>
      </trkpt>
      <trkpt lat="45.47831" lon="6.40863">
        <ele>1502</ele>
        <time>2022-08-08T12:05:53Z</time>
      </trkpt>
      <trkpt lat="45.4783" lon="6.40856">
        <ele>1501</ele>
        <time>2022-08-08T12:05:55Z</time>
      </trkpt>
      <trkpt lat="45.47827" lon="6.40851">
        <ele>1501</ele>
        <time>2022-08-08T12:05:57Z</time>
      </trkpt>
      <trkpt lat="45.47822" lon="6.40848">
        <ele>1500</ele>
        <time>2022-08-08T12:05:59Z</time>
      </trkpt>
      <trkpt lat="45.47807" lon="6.40843">
        <ele>1499</ele>
        <time>2022-08-08T12:06:06Z</time>
      </trkpt>
      <trkpt lat="45.47799" lon="6.40845">
        <ele>1498</ele>
        <time>2022-08-08T12:06:12Z</time>
      </trkpt>
      <trkpt lat="45.47777" lon="6.40839">
        <ele>1497</ele>
        <time>2022-08-08T12:06:21Z</time>
      </trkpt>
      <trkpt lat="45.47772" lon="6.4084">
        <ele>1497</ele>
        <time>2022-08-08T12:06:23Z</time>
      </trkpt>
      <trkpt lat="45.47757" lon="6.40849">
        <ele>1496</ele>
        <time>2022-08-08T12:06:29Z</time>
      </trkpt>
      <trkpt lat="45.47703" lon="6.40916">
        <ele>1488</ele>
        <time>2022-08-08T12:06:59Z</time>
      </trkpt>
      <trkpt lat="45.47689" lon="6.4093">
        <ele>1486</ele>
        <time>2022-08-08T12:07:07Z</time>
      </trkpt>
      <trkpt lat="45.47689" lon="6.40939">
        <ele>1484</ele>
        <time>2022-08-08T12:07:12Z</time>
      </trkpt>
      <trkpt lat="45.47686" lon="6.40945">
        <ele>1482</ele>
        <time>2022-08-08T12:07:16Z</time>
      </trkpt>
      <trkpt lat="45.47683" lon="6.40954">
        <ele>1479</ele>
        <time>2022-08-08T12:07:21Z</time>
      </trkpt>
      <trkpt lat="45.47683" lon="6.4096">
        <ele>1478</ele>
        <time>2022-08-08T12:07:24Z</time>
      </trkpt>
      <trkpt lat="45.47677" lon="6.40979">
        <ele>1472</ele>
        <time>2022-08-08T12:07:36Z</time>
      </trkpt>
      <trkpt lat="45.47676" lon="6.40996">
        <ele>1466</ele>
        <time>2022-08-08T12:07:47Z</time>
      </trkpt>
      <trkpt lat="45.47675" lon="6.41003">
        <ele>1465</ele>
        <time>2022-08-08T12:07:51Z</time>
      </trkpt>
      <trkpt lat="45.47676" lon="6.41009">
        <ele>1463</ele>
        <time>2022-08-08T12:07:55Z</time>
      </trkpt>
      <trkpt lat="45.47671" lon="6.41029">
        <ele>1457</ele>
        <time>2022-08-08T12:08:07Z</time>
      </trkpt>
      <trkpt lat="45.4767" lon="6.41036">
        <ele>1455</ele>
        <time>2022-08-08T12:08:11Z</time>
      </trkpt>
      <trkpt lat="45.47667" lon="6.41043">
        <ele>1453</ele>
        <time>2022-08-08T12:08:15Z</time>
      </trkpt>
      <trkpt lat="45.47667" lon="6.41049">
        <ele>1452</ele>
        <time>2022-08-08T12:08:18Z</time>
      </trkpt>
      <trkpt lat="45.47664" lon="6.41055">
        <ele>1451</ele>
        <time>2022-08-08T12:08:21Z</time>
      </trkpt>
      <trkpt lat="45.47667" lon="6.41067">
        <ele>1448</ele>
        <time>2022-08-08T12:08:28Z</time>
      </trkpt>
      <trkpt lat="45.47667" lon="6.41074">
        <ele>1446</ele>
        <time>2022-08-08T12:08:32Z</time>
      </trkpt>
      <trkpt lat="45.47652" lon="6.41112">
        <ele>1437</ele>
        <time>2022-08-08T12:08:55Z</time>
      </trkpt>
      <trkpt lat="45.47655" lon="6.41125">
        <ele>1434</ele>
        <time>2022-08-08T12:09:02Z</time>
      </trkpt>
      <trkpt lat="45.47653" lon="6.41132">
        <ele>1432</ele>
        <time>2022-08-08T12:09:06Z</time>
      </trkpt>
      <trkpt lat="45.47649" lon="6.41153">
        <ele>1428</ele>
        <time>2022-08-08T12:09:17Z</time>
      </trkpt>
      <trkpt lat="45.47636" lon="6.41178">
        <ele>1424</ele>
        <time>2022-08-08T12:09:27Z</time>
      </trkpt>
      <trkpt lat="45.47628" lon="6.41188">
        <ele>1423</ele>
        <time>2022-08-08T12:09:32Z</time>
      </trkpt>
      <trkpt lat="45.47604" lon="6.41222">
        <ele>1419</ele>
        <time>2022-08-08T12:09:48Z</time>
      </trkpt>
      <trkpt lat="45.47583" lon="6.41271">
        <ele>1414</ele>
        <time>2022-08-08T12:10:07Z</time>
      </trkpt>
      <trkpt lat="45.47574" lon="6.41302">
        <ele>1411</ele>
        <time>2022-08-08T12:10:19Z</time>
      </trkpt>
      <trkpt lat="45.47571" lon="6.41308">
        <ele>1410</ele>
        <time>2022-08-08T12:10:22Z</time>
      </trkpt>
      <trkpt lat="45.47571" lon="6.41317">
        <ele>1409</ele>
        <time>2022-08-08T12:10:28Z</time>
      </trkpt>
      <trkpt lat="45.47587" lon="6.41333">
        <ele>1401</ele>
        <time>2022-08-08T12:10:44Z</time>
      </trkpt>
      <trkpt lat="45.47588" lon="6.41341">
        <ele>1398</ele>
        <time>2022-08-08T12:10:49Z</time>
      </trkpt>
      <trkpt lat="45.47583" lon="6.41346">
        <ele>1397</ele>
        <time>2022-08-08T12:10:52Z</time>
      </trkpt>
      <trkpt lat="45.47577" lon="6.4136">
        <ele>1397</ele>
        <time>2022-08-08T12:10:57Z</time>
      </trkpt>
      <trkpt lat="45.47574" lon="6.41364">
        <ele>1397</ele>
        <time>2022-08-08T12:10:59Z</time>
      </trkpt>
      <trkpt lat="45.4757" lon="6.41367">
        <ele>1396</ele>
        <time>2022-08-08T12:11:01Z</time>
      </trkpt>
      <trkpt lat="45.4756" lon="6.41379">
        <ele>1395</ele>
        <time>2022-08-08T12:11:07Z</time>
      </trkpt>
      <trkpt lat="45.47545" lon="6.41398">
        <ele>1394</ele>
        <time>2022-08-08T12:11:16Z</time>
      </trkpt>
      <trkpt lat="45.47537" lon="6.41414">
        <ele>1393</ele>
        <time>2022-08-08T12:11:22Z</time>
      </trkpt>
      <trkpt lat="45.47532" lon="6.41448">
        <ele>1391</ele>
        <time>2022-08-08T12:11:32Z</time>
      </trkpt>
      <trkpt lat="45.47518" lon="6.41539">
        <ele>1386</ele>
        <time>2022-08-08T12:12:03Z</time>
      </trkpt>
      <trkpt lat="45.47515" lon="6.41555">
        <ele>1386</ele>
        <time>2022-08-08T12:12:09Z</time>
      </trkpt>
      <trkpt lat="45.47501" lon="6.41605">
        <ele>1383</ele>
        <time>2022-08-08T12:12:26Z</time>
      </trkpt>
      <trkpt lat="45.47497" lon="6.41612">
        <ele>1382</ele>
        <time>2022-08-08T12:12:29Z</time>
      </trkpt>
      <trkpt lat="45.47486" lon="6.41624">
        <ele>1381</ele>
        <time>2022-08-08T12:12:35Z</time>
      </trkpt>
      <trkpt lat="45.47478" lon="6.4163">
        <ele>1380</ele>
        <time>2022-08-08T12:12:39Z</time>
      </trkpt>
      <trkpt lat="45.47469" lon="6.41629">
        <ele>1380</ele>
        <time>2022-08-08T12:12:43Z</time>
      </trkpt>
      <trkpt lat="45.47456" lon="6.41624">
        <ele>1379</ele>
        <time>2022-08-08T12:12:49Z</time>
      </trkpt>
      <trkpt lat="45.47436" lon="6.41611">
        <ele>1377</ele>
        <time>2022-08-08T12:12:59Z</time>
      </trkpt>
      <trkpt lat="45.47434" lon="6.41606">
        <ele>1377</ele>
        <time>2022-08-08T12:13:01Z</time>
      </trkpt>
      <trkpt lat="45.47408" lon="6.41576">
        <ele>1374</ele>
        <time>2022-08-08T12:13:16Z</time>
      </trkpt>
      <trkpt lat="45.47404" lon="6.41571">
        <ele>1374</ele>
        <time>2022-08-08T12:13:18Z</time>
      </trkpt>
      <trkpt lat="45.47399" lon="6.41567">
        <ele>1373</ele>
        <time>2022-08-08T12:13:21Z</time>
      </trkpt>
      <trkpt lat="45.47363" lon="6.41516">
        <ele>1370</ele>
        <time>2022-08-08T12:13:43Z</time>
      </trkpt>
      <trkpt lat="45.47355" lon="6.41489">
        <ele>1369</ele>
        <time>2022-08-08T12:13:52Z</time>
      </trkpt>
      <trkpt lat="45.47353" lon="6.41484">
        <ele>1368</ele>
        <time>2022-08-08T12:13:55Z</time>
      </trkpt>
      <trkpt lat="45.47347" lon="6.41479">
        <ele>1368</ele>
        <time>2022-08-08T12:13:59Z</time>
      </trkpt>
      <trkpt lat="45.47343" lon="6.41476">
        <ele>1367</ele>
        <time>2022-08-08T12:14:03Z</time>
      </trkpt>
    </trkseg>
  </trk>
  <trk>
    <name><![CDATA[7 août 2022 à 15:43:42]]></name>
    <cmt><![CDATA[7 août 2022 à 15:43:42]]></cmt>
    <trkseg>
      <trkpt lat="45.4714" lon="6.41312">
        <ele>1366</ele>
        <time>2022-08-07T13:43:43Z</time>
      </trkpt>
      <trkpt lat="45.4714" lon="6.4131">
        <ele>1366</ele>
        <time>2022-08-07T13:43:44Z</time>
      </trkpt>
      <trkpt lat="45.47138" lon="6.41303">
        <ele>1366</ele>
        <time>2022-08-07T13:43:51Z</time>
      </trkpt>
      <trkpt lat="45.47137" lon="6.41301">
        <ele>1366</ele>
        <time>2022-08-07T13:43:52Z</time>
      </trkpt>
      <trkpt lat="45.47133" lon="6.41296">
        <ele>1367</ele>
        <time>2022-08-07T13:43:58Z</time>
      </trkpt>
      <trkpt lat="45.47131" lon="6.41291">
        <ele>1367</ele>
        <time>2022-08-07T13:44:02Z</time>
      </trkpt>
      <trkpt lat="45.47127" lon="6.41287">
        <ele>1367</ele>
        <time>2022-08-07T13:44:06Z</time>
      </trkpt>
      <trkpt lat="45.47121" lon="6.41278">
        <ele>1368</ele>
        <time>2022-08-07T13:44:13Z</time>
      </trkpt>
      <trkpt lat="45.47119" lon="6.41272">
        <ele>1368</ele>
        <time>2022-08-07T13:44:17Z</time>
      </trkpt>
      <trkpt lat="45.47113" lon="6.41263">
        <ele>1369</ele>
        <time>2022-08-07T13:44:25Z</time>
      </trkpt>
      <trkpt lat="45.47109" lon="6.41257">
        <ele>1369</ele>
        <time>2022-08-07T13:44:31Z</time>
      </trkpt>
      <trkpt lat="45.47105" lon="6.41251">
        <ele>1370</ele>
        <time>2022-08-07T13:44:37Z</time>
      </trkpt>
      <trkpt lat="45.47104" lon="6.41239">
        <ele>1371</ele>
        <time>2022-08-07T13:44:45Z</time>
      </trkpt>
      <trkpt lat="45.471" lon="6.41231">
        <ele>1372</ele>
        <time>2022-08-07T13:44:53Z</time>
      </trkpt>
      <trkpt lat="45.47096" lon="6.41229">
        <ele>1372</ele>
        <time>2022-08-07T13:44:56Z</time>
      </trkpt>
      <trkpt lat="45.47093" lon="6.41225">
        <ele>1373</ele>
        <time>2022-08-07T13:45:00Z</time>
      </trkpt>
      <trkpt lat="45.47088" lon="6.41225">
        <ele>1374</ele>
        <time>2022-08-07T13:45:06Z</time>
      </trkpt>
      <trkpt lat="45.47082" lon="6.41222">
        <ele>1375</ele>
        <time>2022-08-07T13:45:12Z</time>
      </trkpt>
      <trkpt lat="45.47075" lon="6.41214">
        <ele>1375</ele>
        <time>2022-08-07T13:45:21Z</time>
      </trkpt>
      <trkpt lat="45.47071" lon="6.41212">
        <ele>1376</ele>
        <time>2022-08-07T13:45:29Z</time>
      </trkpt>
      <trkpt lat="45.47065" lon="6.41204">
        <ele>1377</ele>
        <time>2022-08-07T13:45:41Z</time>
      </trkpt>
      <trkpt lat="45.47059" lon="6.41201">
        <ele>1377</ele>
        <time>2022-08-07T13:45:49Z</time>
      </trkpt>
      <trkpt lat="45.47055" lon="6.41189">
        <ele>1377</ele>
        <time>2022-08-07T13:46:02Z</time>
      </trkpt>
      <trkpt lat="45.47051" lon="6.41186">
        <ele>1378</ele>
        <time>2022-08-07T13:46:07Z</time>
      </trkpt>
      <trkpt lat="45.47027" lon="6.41154">
        <ele>1377</ele>
        <time>2022-08-07T13:46:41Z</time>
      </trkpt>
      <trkpt lat="45.47015" lon="6.4114">
        <ele>1376</ele>
        <time>2022-08-07T13:46:57Z</time>
      </trkpt>
      <trkpt lat="45.47007" lon="6.41132">
        <ele>1376</ele>
        <time>2022-08-07T13:47:06Z</time>
      </trkpt>
      <trkpt lat="45.46997" lon="6.41119">
        <ele>1375</ele>
        <time>2022-08-07T13:47:18Z</time>
      </trkpt>
      <trkpt lat="45.46992" lon="6.41115">
        <ele>1375</ele>
        <time>2022-08-07T13:47:22Z</time>
      </trkpt>
      <trkpt lat="45.46987" lon="6.41108">
        <ele>1373</ele>
        <time>2022-08-07T13:47:30Z</time>
      </trkpt>
      <trkpt lat="45.46984" lon="6.41102">
        <ele>1373</ele>
        <time>2022-08-07T13:47:34Z</time>
      </trkpt>
      <trkpt lat="45.46982" lon="6.41097">
        <ele>1373</ele>
        <time>2022-08-07T13:47:38Z</time>
      </trkpt>
      <trkpt lat="45.46981" lon="6.4109">
        <ele>1373</ele>
        <time>2022-08-07T13:47:43Z</time>
      </trkpt>
      <trkpt lat="45.4698" lon="6.41084">
        <ele>1373</ele>
        <time>2022-08-07T13:47:47Z</time>
      </trkpt>
      <trkpt lat="45.46974" lon="6.41071">
        <ele>1374</ele>
        <time>2022-08-07T13:47:59Z</time>
      </trkpt>
      <trkpt lat="45.46967" lon="6.41067">
        <ele>1374</ele>
        <time>2022-08-07T13:48:06Z</time>
      </trkpt>
      <trkpt lat="45.46959" lon="6.41065">
        <ele>1374</ele>
        <time>2022-08-07T13:48:13Z</time>
      </trkpt>
      <trkpt lat="45.46954" lon="6.41065">
        <ele>1374</ele>
        <time>2022-08-07T13:48:17Z</time>
      </trkpt>
      <trkpt lat="45.46949" lon="6.41064">
        <ele>1374</ele>
        <time>2022-08-07T13:48:21Z</time>
      </trkpt>
      <trkpt lat="45.46943" lon="6.4106">
        <ele>1375</ele>
        <time>2022-08-07T13:48:29Z</time>
      </trkpt>
      <trkpt lat="45.4694" lon="6.41055">
        <ele>1375</ele>
        <time>2022-08-07T13:48:33Z</time>
      </trkpt>
      <trkpt lat="45.46937" lon="6.4105">
        <ele>1375</ele>
        <time>2022-08-07T13:48:38Z</time>
      </trkpt>
      <trkpt lat="45.46934" lon="6.41033">
        <ele>1375</ele>
        <time>2022-08-07T13:48:51Z</time>
      </trkpt>
      <trkpt lat="45.46924" lon="6.41017">
        <ele>1378</ele>
        <time>2022-08-07T13:49:09Z</time>
      </trkpt>
      <trkpt lat="45.46921" lon="6.41012">
        <ele>1378</ele>
        <time>2022-08-07T13:49:14Z</time>
      </trkpt>
      <trkpt lat="45.46917" lon="6.41007">
        <ele>1378</ele>
        <time>2022-08-07T13:49:19Z</time>
      </trkpt>
      <trkpt lat="45.46913" lon="6.40997">
        <ele>1377</ele>
        <time>2022-08-07T13:49:27Z</time>
      </trkpt>
      <trkpt lat="45.46891" lon="6.40953">
        <ele>1375</ele>
        <time>2022-08-07T13:49:59Z</time>
      </trkpt>
      <trkpt lat="45.46882" lon="6.40944">
        <ele>1374</ele>
        <time>2022-08-07T13:50:08Z</time>
      </trkpt>
      <trkpt lat="45.46877" lon="6.40934">
        <ele>1374</ele>
        <time>2022-08-07T13:50:16Z</time>
      </trkpt>
      <trkpt lat="45.4687" lon="6.40924">
        <ele>1375</ele>
        <time>2022-08-07T13:50:25Z</time>
      </trkpt>
      <trkpt lat="45.46849" lon="6.4091">
        <ele>1378</ele>
        <time>2022-08-07T13:50:48Z</time>
      </trkpt>
      <trkpt lat="45.46838" lon="6.40907">
        <ele>1380</ele>
        <time>2022-08-07T13:51:01Z</time>
      </trkpt>
      <trkpt lat="45.46829" lon="6.40902">
        <ele>1382</ele>
        <time>2022-08-07T13:51:12Z</time>
      </trkpt>
      <trkpt lat="45.46823" lon="6.40896">
        <ele>1384</ele>
        <time>2022-08-07T13:51:44Z</time>
      </trkpt>
      <trkpt lat="45.46815" lon="6.40879">
        <ele>1387</ele>
        <time>2022-08-07T13:52:18Z</time>
      </trkpt>
      <trkpt lat="45.46811" lon="6.40869">
        <ele>1388</ele>
        <time>2022-08-07T13:52:34Z</time>
      </trkpt>
      <trkpt lat="45.46805" lon="6.40856">
        <ele>1390</ele>
        <time>2022-08-07T13:52:46Z</time>
      </trkpt>
      <trkpt lat="45.46803" lon="6.4085">
        <ele>1390</ele>
        <time>2022-08-07T13:52:53Z</time>
      </trkpt>
      <trkpt lat="45.468" lon="6.40841">
        <ele>1391</ele>
        <time>2022-08-07T13:53:01Z</time>
      </trkpt>
      <trkpt lat="45.468" lon="6.40834">
        <ele>1392</ele>
        <time>2022-08-07T13:53:05Z</time>
      </trkpt>
      <trkpt lat="45.468" lon="6.40812">
        <ele>1393</ele>
        <time>2022-08-07T13:53:17Z</time>
      </trkpt>
      <trkpt lat="45.46797" lon="6.40792">
        <ele>1393</ele>
        <time>2022-08-07T13:53:29Z</time>
      </trkpt>
      <trkpt lat="45.46788" lon="6.40777">
        <ele>1393</ele>
        <time>2022-08-07T13:53:41Z</time>
      </trkpt>
      <trkpt lat="45.46786" lon="6.40762">
        <ele>1393</ele>
        <time>2022-08-07T13:53:49Z</time>
      </trkpt>
      <trkpt lat="45.46785" lon="6.40748">
        <ele>1393</ele>
        <time>2022-08-07T13:53:57Z</time>
      </trkpt>
      <trkpt lat="45.46783" lon="6.40737">
        <ele>1392</ele>
        <time>2022-08-07T13:54:07Z</time>
      </trkpt>
      <trkpt lat="45.46782" lon="6.40719">
        <ele>1393</ele>
        <time>2022-08-07T13:54:18Z</time>
      </trkpt>
      <trkpt lat="45.46783" lon="6.40713">
        <ele>1393</ele>
        <time>2022-08-07T13:54:21Z</time>
      </trkpt>
      <trkpt lat="45.4678" lon="6.40702">
        <ele>1392</ele>
        <time>2022-08-07T13:54:30Z</time>
      </trkpt>
      <trkpt lat="45.4678" lon="6.40693">
        <ele>1392</ele>
        <time>2022-08-07T13:54:36Z</time>
      </trkpt>
      <trkpt lat="45.46776" lon="6.40688">
        <ele>1392</ele>
        <time>2022-08-07T13:54:39Z</time>
      </trkpt>
      <trkpt lat="45.46774" lon="6.40682">
        <ele>1392</ele>
        <time>2022-08-07T13:54:43Z</time>
      </trkpt>
      <trkpt lat="45.46772" lon="6.40662">
        <ele>1392</ele>
        <time>2022-08-07T13:54:56Z</time>
      </trkpt>
      <trkpt lat="45.46767" lon="6.40655">
        <ele>1391</ele>
        <time>2022-08-07T13:55:05Z</time>
      </trkpt>
      <trkpt lat="45.46763" lon="6.40651">
        <ele>1391</ele>
        <time>2022-08-07T13:55:11Z</time>
      </trkpt>
      <trkpt lat="45.46757" lon="6.40648">
        <ele>1391</ele>
        <time>2022-08-07T13:55:18Z</time>
      </trkpt>
      <trkpt lat="45.46735" lon="6.40647">
        <ele>1392</ele>
        <time>2022-08-07T13:55:46Z</time>
      </trkpt>
      <trkpt lat="45.46726" lon="6.40656">
        <ele>1392</ele>
        <time>2022-08-07T13:55:58Z</time>
      </trkpt>
      <trkpt lat="45.46719" lon="6.40669">
        <ele>1393</ele>
        <time>2022-08-07T13:56:12Z</time>
      </trkpt>
      <trkpt lat="45.46714" lon="6.4069">
        <ele>1396</ele>
        <time>2022-08-07T13:56:29Z</time>
      </trkpt>
      <trkpt lat="45.4671" lon="6.40694">
        <ele>1397</ele>
        <time>2022-08-07T13:56:45Z</time>
      </trkpt>
      <trkpt lat="45.46707" lon="6.407">
        <ele>1398</ele>
        <time>2022-08-07T13:56:52Z</time>
      </trkpt>
      <trkpt lat="45.46699" lon="6.40699">
        <ele>1399</ele>
        <time>2022-08-07T13:57:02Z</time>
      </trkpt>
      <trkpt lat="45.46695" lon="6.40695">
        <ele>1400</ele>
        <time>2022-08-07T13:57:06Z</time>
      </trkpt>
      <trkpt lat="45.46685" lon="6.40693">
        <ele>1401</ele>
        <time>2022-08-07T13:57:17Z</time>
      </trkpt>
      <trkpt lat="45.46676" lon="6.4069">
        <ele>1401</ele>
        <time>2022-08-07T13:57:25Z</time>
      </trkpt>
      <trkpt lat="45.46671" lon="6.40691">
        <ele>1402</ele>
        <time>2022-08-07T13:57:32Z</time>
      </trkpt>
      <trkpt lat="45.46667" lon="6.40692">
        <ele>1402</ele>
        <time>2022-08-07T13:57:37Z</time>
      </trkpt>
      <trkpt lat="45.4666" lon="6.40694">
        <ele>1403</ele>
        <time>2022-08-07T13:57:47Z</time>
      </trkpt>
      <trkpt lat="45.46656" lon="6.40694">
        <ele>1404</ele>
        <time>2022-08-07T13:57:52Z</time>
      </trkpt>
      <trkpt lat="45.46651" lon="6.40692">
        <ele>1406</ele>
        <time>2022-08-07T13:58:02Z</time>
      </trkpt>
      <trkpt lat="45.46648" lon="6.40688">
        <ele>1407</ele>
        <time>2022-08-07T13:59:23Z</time>
      </trkpt>
      <trkpt lat="45.46642" lon="6.40686">
        <ele>1407</ele>
        <time>2022-08-07T13:59:28Z</time>
      </trkpt>
      <trkpt lat="45.46626" lon="6.40679">
        <ele>1409</ele>
        <time>2022-08-07T13:59:48Z</time>
      </trkpt>
      <trkpt lat="45.46601" lon="6.40665">
        <ele>1413</ele>
        <time>2022-08-07T14:00:18Z</time>
      </trkpt>
      <trkpt lat="45.46574" lon="6.40648">
        <ele>1418</ele>
        <time>2022-08-07T14:00:49Z</time>
      </trkpt>
      <trkpt lat="45.46573" lon="6.40647">
        <ele>1419</ele>
        <time>2022-08-07T14:01:23Z</time>
      </trkpt>
      <trkpt lat="45.46568" lon="6.40645">
        <ele>1419</ele>
        <time>2022-08-07T14:01:30Z</time>
      </trkpt>
      <trkpt lat="45.46537" lon="6.40638">
        <ele>1424</ele>
        <time>2022-08-07T14:02:28Z</time>
      </trkpt>
      <trkpt lat="45.46531" lon="6.40635">
        <ele>1425</ele>
        <time>2022-08-07T14:02:39Z</time>
      </trkpt>
      <trkpt lat="45.4651" lon="6.40619">
        <ele>1429</ele>
        <time>2022-08-07T14:03:13Z</time>
      </trkpt>
      <trkpt lat="45.46487" lon="6.40603">
        <ele>1433</ele>
        <time>2022-08-07T14:03:48Z</time>
      </trkpt>
      <trkpt lat="45.46464" lon="6.40592">
        <ele>1437</ele>
        <time>2022-08-07T14:04:19Z</time>
      </trkpt>
      <trkpt lat="45.46447" lon="6.40583">
        <ele>1440</ele>
        <time>2022-08-07T14:04:43Z</time>
      </trkpt>
      <trkpt lat="45.46427" lon="6.4056">
        <ele>1446</ele>
        <time>2022-08-07T14:05:22Z</time>
      </trkpt>
      <trkpt lat="45.46427" lon="6.40548">
        <ele>1446</ele>
        <time>2022-08-07T14:05:33Z</time>
      </trkpt>
      <trkpt lat="45.46422" lon="6.40541">
        <ele>1446</ele>
        <time>2022-08-07T14:05:43Z</time>
      </trkpt>
      <trkpt lat="45.46422" lon="6.40543">
        <ele>1446</ele>
        <time>2022-08-07T14:05:58Z</time>
      </trkpt>
      <trkpt lat="45.46421" lon="6.40543">
        <ele>1446</ele>
        <time>2022-08-07T14:06:32Z</time>
      </trkpt>
      <trkpt lat="45.46418" lon="6.40536">
        <ele>1446</ele>
        <time>2022-08-07T14:06:43Z</time>
      </trkpt>
      <trkpt lat="45.46414" lon="6.40534">
        <ele>1446</ele>
        <time>2022-08-07T14:06:47Z</time>
      </trkpt>
      <trkpt lat="45.46411" lon="6.40526">
        <ele>1446</ele>
        <time>2022-08-07T14:06:54Z</time>
      </trkpt>
      <trkpt lat="45.4641" lon="6.4052">
        <ele>1446</ele>
        <time>2022-08-07T14:06:58Z</time>
      </trkpt>
      <trkpt lat="45.46405" lon="6.40514">
        <ele>1446</ele>
        <time>2022-08-07T14:07:03Z</time>
      </trkpt>
      <trkpt lat="45.46397" lon="6.40508">
        <ele>1445</ele>
        <time>2022-08-07T14:07:12Z</time>
      </trkpt>
      <trkpt lat="45.4639" lon="6.40507">
        <ele>1445</ele>
        <time>2022-08-07T14:07:18Z</time>
      </trkpt>
      <trkpt lat="45.4638" lon="6.40511">
        <ele>1445</ele>
        <time>2022-08-07T14:07:28Z</time>
      </trkpt>
      <trkpt lat="45.46376" lon="6.40514">
        <ele>1445</ele>
        <time>2022-08-07T14:07:32Z</time>
      </trkpt>
      <trkpt lat="45.46374" lon="6.40519">
        <ele>1444</ele>
        <time>2022-08-07T14:07:45Z</time>
      </trkpt>
      <trkpt lat="45.4637" lon="6.40522">
        <ele>1444</ele>
        <time>2022-08-07T14:07:50Z</time>
      </trkpt>
      <trkpt lat="45.46362" lon="6.40525">
        <ele>1444</ele>
        <time>2022-08-07T14:09:26Z</time>
      </trkpt>
      <trkpt lat="45.46356" lon="6.40526">
        <ele>1444</ele>
        <time>2022-08-07T14:09:31Z</time>
      </trkpt>
      <trkpt lat="45.46352" lon="6.40527">
        <ele>1443</ele>
        <time>2022-08-07T14:09:51Z</time>
      </trkpt>
      <trkpt lat="45.46347" lon="6.40525">
        <ele>1443</ele>
        <time>2022-08-07T14:09:55Z</time>
      </trkpt>
      <trkpt lat="45.46342" lon="6.40525">
        <ele>1443</ele>
        <time>2022-08-07T14:09:59Z</time>
      </trkpt>
      <trkpt lat="45.46325" lon="6.40517">
        <ele>1442</ele>
        <time>2022-08-07T14:10:19Z</time>
      </trkpt>
      <trkpt lat="45.46322" lon="6.40511">
        <ele>1442</ele>
        <time>2022-08-07T14:10:26Z</time>
      </trkpt>
      <trkpt lat="45.46319" lon="6.40503">
        <ele>1442</ele>
        <time>2022-08-07T14:10:34Z</time>
      </trkpt>
      <trkpt lat="45.46312" lon="6.40495">
        <ele>1442</ele>
        <time>2022-08-07T14:10:41Z</time>
      </trkpt>
      <trkpt lat="45.46277" lon="6.40489">
        <ele>1441</ele>
        <time>2022-08-07T14:11:10Z</time>
      </trkpt>
      <trkpt lat="45.46267" lon="6.40486">
        <ele>1441</ele>
        <time>2022-08-07T14:11:19Z</time>
      </trkpt>
      <trkpt lat="45.46261" lon="6.40485">
        <ele>1441</ele>
        <time>2022-08-07T14:11:25Z</time>
      </trkpt>
      <trkpt lat="45.46256" lon="6.40485">
        <ele>1441</ele>
        <time>2022-08-07T14:11:43Z</time>
      </trkpt>
      <trkpt lat="45.46251" lon="6.40484">
        <ele>1441</ele>
        <time>2022-08-07T14:11:48Z</time>
      </trkpt>
      <trkpt lat="45.46244" lon="6.40486">
        <ele>1441</ele>
        <time>2022-08-07T14:11:54Z</time>
      </trkpt>
      <trkpt lat="45.46236" lon="6.40483">
        <ele>1441</ele>
        <time>2022-08-07T14:12:02Z</time>
      </trkpt>
      <trkpt lat="45.4623" lon="6.40482">
        <ele>1441</ele>
        <time>2022-08-07T14:12:28Z</time>
      </trkpt>
      <trkpt lat="45.4622" lon="6.4048">
        <ele>1440</ele>
        <time>2022-08-07T14:12:36Z</time>
      </trkpt>
      <trkpt lat="45.46215" lon="6.40482">
        <ele>1440</ele>
        <time>2022-08-07T14:12:41Z</time>
      </trkpt>
      <trkpt lat="45.46211" lon="6.40482">
        <ele>1440</ele>
        <time>2022-08-07T14:12:45Z</time>
      </trkpt>
      <trkpt lat="45.46207" lon="6.40482">
        <ele>1440</ele>
        <time>2022-08-07T14:12:49Z</time>
      </trkpt>
      <trkpt lat="45.462" lon="6.40481">
        <ele>1440</ele>
        <time>2022-08-07T14:12:56Z</time>
      </trkpt>
      <trkpt lat="45.46188" lon="6.40474">
        <ele>1439</ele>
        <time>2022-08-07T14:13:08Z</time>
      </trkpt>
      <trkpt lat="45.46184" lon="6.40473">
        <ele>1439</ele>
        <time>2022-08-07T14:13:13Z</time>
      </trkpt>
      <trkpt lat="45.4618" lon="6.4047">
        <ele>1439</ele>
        <time>2022-08-07T14:13:17Z</time>
      </trkpt>
      <trkpt lat="45.4616" lon="6.40462">
        <ele>1438</ele>
        <time>2022-08-07T14:13:37Z</time>
      </trkpt>
      <trkpt lat="45.46143" lon="6.40455">
        <ele>1438</ele>
        <time>2022-08-07T14:13:59Z</time>
      </trkpt>
      <trkpt lat="45.46132" lon="6.40451">
        <ele>1437</ele>
        <time>2022-08-07T14:14:09Z</time>
      </trkpt>
      <trkpt lat="45.46137" lon="6.40456">
        <ele>1437</ele>
        <time>2022-08-07T14:14:21Z</time>
      </trkpt>
      <trkpt lat="45.46141" lon="6.40457">
        <ele>1437</ele>
        <time>2022-08-07T14:14:25Z</time>
      </trkpt>
      <trkpt lat="45.46137" lon="6.40454">
        <ele>1438</ele>
        <time>2022-08-07T14:15:59Z</time>
      </trkpt>
      <trkpt lat="45.46128" lon="6.40448">
        <ele>1438</ele>
        <time>2022-08-07T14:16:09Z</time>
      </trkpt>
      <trkpt lat="45.46121" lon="6.40449">
        <ele>1438</ele>
        <time>2022-08-07T14:16:11Z</time>
      </trkpt>
      <trkpt lat="45.46117" lon="6.40451">
        <ele>1438</ele>
        <time>2022-08-07T14:16:14Z</time>
      </trkpt>
      <trkpt lat="45.46081" lon="6.40451">
        <ele>1437</ele>
        <time>2022-08-07T14:16:31Z</time>
      </trkpt>
      <trkpt lat="45.46064" lon="6.40438">
        <ele>1435</ele>
        <time>2022-08-07T14:17:05Z</time>
      </trkpt>
      <trkpt lat="45.46058" lon="6.40437">
        <ele>1435</ele>
        <time>2022-08-07T14:18:13Z</time>
      </trkpt>
      <trkpt lat="45.46049" lon="6.40421">
        <ele>1434</ele>
        <time>2022-08-07T14:18:26Z</time>
      </trkpt>
      <trkpt lat="45.46033" lon="6.40389">
        <ele>1433</ele>
        <time>2022-08-07T14:18:50Z</time>
      </trkpt>
      <trkpt lat="45.46029" lon="6.40383">
        <ele>1432</ele>
        <time>2022-08-07T14:18:54Z</time>
      </trkpt>
      <trkpt lat="45.46016" lon="6.40373">
        <ele>1432</ele>
        <time>2022-08-07T14:19:06Z</time>
      </trkpt>
      <trkpt lat="45.46007" lon="6.40368">
        <ele>1432</ele>
        <time>2022-08-07T14:19:14Z</time>
      </trkpt>
      <trkpt lat="45.46003" lon="6.40364">
        <ele>1431</ele>
        <time>2022-08-07T14:19:19Z</time>
      </trkpt>
      <trkpt lat="45.45999" lon="6.40363">
        <ele>1431</ele>
        <time>2022-08-07T14:19:22Z</time>
      </trkpt>
      <trkpt lat="45.45984" lon="6.40353">
        <ele>1431</ele>
        <time>2022-08-07T14:19:34Z</time>
      </trkpt>
      <trkpt lat="45.4597" lon="6.40345">
        <ele>1431</ele>
        <time>2022-08-07T14:19:48Z</time>
      </trkpt>
      <trkpt lat="45.45965" lon="6.40341">
        <ele>1431</ele>
        <time>2022-08-07T14:19:52Z</time>
      </trkpt>
      <trkpt lat="45.45951" lon="6.40334">
        <ele>1430</ele>
        <time>2022-08-07T14:20:03Z</time>
      </trkpt>
      <trkpt lat="45.45924" lon="6.4033">
        <ele>1429</ele>
        <time>2022-08-07T14:20:24Z</time>
      </trkpt>
      <trkpt lat="45.45912" lon="6.40323">
        <ele>1429</ele>
        <time>2022-08-07T14:20:36Z</time>
      </trkpt>
      <trkpt lat="45.45877" lon="6.40297">
        <ele>1427</ele>
        <time>2022-08-07T14:21:09Z</time>
      </trkpt>
      <trkpt lat="45.45862" lon="6.40284">
        <ele>1427</ele>
        <time>2022-08-07T14:21:25Z</time>
      </trkpt>
      <trkpt lat="45.45857" lon="6.40285">
        <ele>1426</ele>
        <time>2022-08-07T14:21:29Z</time>
      </trkpt>
      <trkpt lat="45.45855" lon="6.40291">
        <ele>1425</ele>
        <time>2022-08-07T14:22:04Z</time>
      </trkpt>
      <trkpt lat="45.45858" lon="6.40288">
        <ele>1425</ele>
        <time>2022-08-07T14:23:35Z</time>
      </trkpt>
      <trkpt lat="45.45858" lon="6.40282">
        <ele>1426</ele>
        <time>2022-08-07T14:23:54Z</time>
      </trkpt>
      <trkpt lat="45.45856" lon="6.40272">
        <ele>1426</ele>
        <time>2022-08-07T14:24:14Z</time>
      </trkpt>
      <trkpt lat="45.45852" lon="6.40266">
        <ele>1428</ele>
        <time>2022-08-07T14:24:24Z</time>
      </trkpt>
      <trkpt lat="45.45848" lon="6.40257">
        <ele>1428</ele>
        <time>2022-08-07T14:24:33Z</time>
      </trkpt>
      <trkpt lat="45.45837" lon="6.40251">
        <ele>1430</ele>
        <time>2022-08-07T14:24:45Z</time>
      </trkpt>
      <trkpt lat="45.45833" lon="6.40243">
        <ele>1431</ele>
        <time>2022-08-07T14:24:53Z</time>
      </trkpt>
      <trkpt lat="45.45828" lon="6.40239">
        <ele>1432</ele>
        <time>2022-08-07T14:24:59Z</time>
      </trkpt>
      <trkpt lat="45.45823" lon="6.40239">
        <ele>1432</ele>
        <time>2022-08-07T14:25:04Z</time>
      </trkpt>
      <trkpt lat="45.45818" lon="6.40237">
        <ele>1433</ele>
        <time>2022-08-07T14:25:16Z</time>
      </trkpt>
      <trkpt lat="45.45815" lon="6.40234">
        <ele>1433</ele>
        <time>2022-08-07T14:25:21Z</time>
      </trkpt>
      <trkpt lat="45.45809" lon="6.4023">
        <ele>1433</ele>
        <time>2022-08-07T14:25:30Z</time>
      </trkpt>
      <trkpt lat="45.45806" lon="6.40223">
        <ele>1434</ele>
        <time>2022-08-07T14:25:39Z</time>
      </trkpt>
      <trkpt lat="45.45805" lon="6.40215">
        <ele>1435</ele>
        <time>2022-08-07T14:25:47Z</time>
      </trkpt>
      <trkpt lat="45.45799" lon="6.40202">
        <ele>1437</ele>
        <time>2022-08-07T14:26:02Z</time>
      </trkpt>
      <trkpt lat="45.4579" lon="6.40176">
        <ele>1441</ele>
        <time>2022-08-07T14:26:32Z</time>
      </trkpt>
      <trkpt lat="45.45794" lon="6.40173">
        <ele>1442</ele>
        <time>2022-08-07T14:26:37Z</time>
      </trkpt>
      <trkpt lat="45.45791" lon="6.40167">
        <ele>1443</ele>
        <time>2022-08-07T14:26:44Z</time>
      </trkpt>
      <trkpt lat="45.45787" lon="6.40161">
        <ele>1444</ele>
        <time>2022-08-07T14:26:54Z</time>
      </trkpt>
      <trkpt lat="45.45784" lon="6.40157">
        <ele>1445</ele>
        <time>2022-08-07T14:27:09Z</time>
      </trkpt>
      <trkpt lat="45.4578" lon="6.40151">
        <ele>1445</ele>
        <time>2022-08-07T14:27:34Z</time>
      </trkpt>
      <trkpt lat="45.45779" lon="6.40144">
        <ele>1447</ele>
        <time>2022-08-07T14:27:45Z</time>
      </trkpt>
      <trkpt lat="45.45774" lon="6.40139">
        <ele>1449</ele>
        <time>2022-08-07T14:27:56Z</time>
      </trkpt>
      <trkpt lat="45.45771" lon="6.40132">
        <ele>1451</ele>
        <time>2022-08-07T14:28:12Z</time>
      </trkpt>
      <trkpt lat="45.4577" lon="6.40124">
        <ele>1453</ele>
        <time>2022-08-07T14:28:22Z</time>
      </trkpt>
      <trkpt lat="45.45761" lon="6.40123">
        <ele>1454</ele>
        <time>2022-08-07T14:28:38Z</time>
      </trkpt>
      <trkpt lat="45.45756" lon="6.40119">
        <ele>1454</ele>
        <time>2022-08-07T14:28:46Z</time>
      </trkpt>
      <trkpt lat="45.45752" lon="6.40118">
        <ele>1455</ele>
        <time>2022-08-07T14:29:07Z</time>
      </trkpt>
      <trkpt lat="45.45747" lon="6.40121">
        <ele>1455</ele>
        <time>2022-08-07T14:29:12Z</time>
      </trkpt>
      <trkpt lat="45.45741" lon="6.40114">
        <ele>1457</ele>
        <time>2022-08-07T14:29:30Z</time>
      </trkpt>
      <trkpt lat="45.45744" lon="6.40113">
        <ele>1457</ele>
        <time>2022-08-07T14:30:25Z</time>
      </trkpt>
      <trkpt lat="45.45741" lon="6.40108">
        <ele>1457</ele>
        <time>2022-08-07T14:32:28Z</time>
      </trkpt>
      <trkpt lat="45.45741" lon="6.401">
        <ele>1455</ele>
        <time>2022-08-07T14:33:23Z</time>
      </trkpt>
      <trkpt lat="45.45739" lon="6.40093">
        <ele>1456</ele>
        <time>2022-08-07T14:33:33Z</time>
      </trkpt>
      <trkpt lat="45.45739" lon="6.40087">
        <ele>1457</ele>
        <time>2022-08-07T14:33:43Z</time>
      </trkpt>
      <trkpt lat="45.45745" lon="6.40082">
        <ele>1461</ele>
        <time>2022-08-07T14:34:14Z</time>
      </trkpt>
      <trkpt lat="45.45748" lon="6.40071">
        <ele>1465</ele>
        <time>2022-08-07T14:34:36Z</time>
      </trkpt>
      <trkpt lat="45.45752" lon="6.40069">
        <ele>1471</ele>
        <time>2022-08-07T14:35:14Z</time>
      </trkpt>
      <trkpt lat="45.45755" lon="6.4006">
        <ele>1477</ele>
        <time>2022-08-07T14:35:49Z</time>
      </trkpt>
      <trkpt lat="45.45762" lon="6.40053">
        <ele>1481</ele>
        <time>2022-08-07T14:36:16Z</time>
      </trkpt>
      <trkpt lat="45.45763" lon="6.40048">
        <ele>1484</ele>
        <time>2022-08-07T14:36:28Z</time>
      </trkpt>
      <trkpt lat="45.45761" lon="6.4004">
        <ele>1486</ele>
        <time>2022-08-07T14:36:38Z</time>
      </trkpt>
      <trkpt lat="45.45765" lon="6.40035">
        <ele>1490</ele>
        <time>2022-08-07T14:36:59Z</time>
      </trkpt>
      <trkpt lat="45.45765" lon="6.40026">
        <ele>1493</ele>
        <time>2022-08-07T14:37:11Z</time>
      </trkpt>
      <trkpt lat="45.45771" lon="6.40024">
        <ele>1497</ele>
        <time>2022-08-07T14:37:36Z</time>
      </trkpt>
      <trkpt lat="45.45776" lon="6.40022">
        <ele>1502</ele>
        <time>2022-08-07T14:37:51Z</time>
      </trkpt>
      <trkpt lat="45.45776" lon="6.40023">
        <ele>1505</ele>
        <time>2022-08-07T14:39:04Z</time>
      </trkpt>
      <trkpt lat="45.45771" lon="6.40024">
        <ele>1503</ele>
        <time>2022-08-07T14:39:14Z</time>
      </trkpt>
      <trkpt lat="45.45769" lon="6.40017">
        <ele>1500</ele>
        <time>2022-08-07T14:39:39Z</time>
      </trkpt>
      <trkpt lat="45.45765" lon="6.40019">
        <ele>1498</ele>
        <time>2022-08-07T14:39:49Z</time>
      </trkpt>
      <trkpt lat="45.45762" lon="6.40026">
        <ele>1495</ele>
        <time>2022-08-07T14:40:00Z</time>
      </trkpt>
      <trkpt lat="45.45761" lon="6.40033">
        <ele>1492</ele>
        <time>2022-08-07T14:40:10Z</time>
      </trkpt>
      <trkpt lat="45.45755" lon="6.40034">
        <ele>1488</ele>
        <time>2022-08-07T14:40:30Z</time>
      </trkpt>
      <trkpt lat="45.45759" lon="6.40042">
        <ele>1489</ele>
        <time>2022-08-07T14:40:57Z</time>
      </trkpt>
      <trkpt lat="45.4576" lon="6.40049">
        <ele>1487</ele>
        <time>2022-08-07T14:41:07Z</time>
      </trkpt>
      <trkpt lat="45.45751" lon="6.4006">
        <ele>1478</ele>
        <time>2022-08-07T14:41:52Z</time>
      </trkpt>
      <trkpt lat="45.45749" lon="6.40065">
        <ele>1474</ele>
        <time>2022-08-07T14:42:17Z</time>
      </trkpt>
      <trkpt lat="45.45744" lon="6.40066">
        <ele>1468</ele>
        <time>2022-08-07T14:42:46Z</time>
      </trkpt>
      <trkpt lat="45.45741" lon="6.40072">
        <ele>1467</ele>
        <time>2022-08-07T14:42:51Z</time>
      </trkpt>
      <trkpt lat="45.45738" lon="6.4008">
        <ele>1463</ele>
        <time>2022-08-07T14:43:10Z</time>
      </trkpt>
      <trkpt lat="45.45739" lon="6.40092">
        <ele>1461</ele>
        <time>2022-08-07T14:43:20Z</time>
      </trkpt>
      <trkpt lat="45.45742" lon="6.40105">
        <ele>1459</ele>
        <time>2022-08-07T14:43:28Z</time>
      </trkpt>
      <trkpt lat="45.4574" lon="6.40103">
        <ele>1458</ele>
        <time>2022-08-07T14:43:48Z</time>
      </trkpt>
      <trkpt lat="45.4574" lon="6.40096">
        <ele>1458</ele>
        <time>2022-08-07T14:43:53Z</time>
      </trkpt>
      <trkpt lat="45.4574" lon="6.4009">
        <ele>1459</ele>
        <time>2022-08-07T14:44:00Z</time>
      </trkpt>
      <trkpt lat="45.45741" lon="6.40079">
        <ele>1462</ele>
        <time>2022-08-07T14:44:15Z</time>
      </trkpt>
      <trkpt lat="45.45744" lon="6.40073">
        <ele>1466</ele>
        <time>2022-08-07T14:44:39Z</time>
      </trkpt>
      <trkpt lat="45.45749" lon="6.40076">
        <ele>1471</ele>
        <time>2022-08-07T14:45:06Z</time>
      </trkpt>
      <trkpt lat="45.45755" lon="6.40069">
        <ele>1473</ele>
        <time>2022-08-07T14:45:29Z</time>
      </trkpt>
      <trkpt lat="45.45756" lon="6.40062">
        <ele>1477</ele>
        <time>2022-08-07T14:45:48Z</time>
      </trkpt>
      <trkpt lat="45.45761" lon="6.40056">
        <ele>1483</ele>
        <time>2022-08-07T14:46:29Z</time>
      </trkpt>
      <trkpt lat="45.45764" lon="6.4005">
        <ele>1485</ele>
        <time>2022-08-07T14:46:41Z</time>
      </trkpt>
      <trkpt lat="45.45762" lon="6.40039">
        <ele>1490</ele>
        <time>2022-08-07T14:47:14Z</time>
      </trkpt>
      <trkpt lat="45.45763" lon="6.40033">
        <ele>1493</ele>
        <time>2022-08-07T14:47:29Z</time>
      </trkpt>
      <trkpt lat="45.45766" lon="6.40028">
        <ele>1495</ele>
        <time>2022-08-07T14:47:39Z</time>
      </trkpt>
      <trkpt lat="45.4577" lon="6.40026">
        <ele>1500</ele>
        <time>2022-08-07T14:48:09Z</time>
      </trkpt>
      <trkpt lat="45.45775" lon="6.40024">
        <ele>1504</ele>
        <time>2022-08-07T14:48:30Z</time>
      </trkpt>
      <trkpt lat="45.45778" lon="6.40017">
        <ele>1507</ele>
        <time>2022-08-07T14:48:41Z</time>
      </trkpt>
      <trkpt lat="45.45774" lon="6.40015">
        <ele>1508</ele>
        <time>2022-08-07T14:51:49Z</time>
      </trkpt>
      <trkpt lat="45.45758" lon="6.39994">
        <ele>1508</ele>
        <time>2022-08-07T14:51:59Z</time>
      </trkpt>
      <trkpt lat="45.45754" lon="6.39983">
        <ele>1507</ele>
        <time>2022-08-07T14:52:06Z</time>
      </trkpt>
      <trkpt lat="45.4575" lon="6.39981">
        <ele>1506</ele>
        <time>2022-08-07T14:52:14Z</time>
      </trkpt>
      <trkpt lat="45.45753" lon="6.39992">
        <ele>1505</ele>
        <time>2022-08-07T14:53:00Z</time>
      </trkpt>
      <trkpt lat="45.45758" lon="6.39998">
        <ele>1506</ele>
        <time>2022-08-07T14:53:11Z</time>
      </trkpt>
      <trkpt lat="45.45764" lon="6.40004">
        <ele>1506</ele>
        <time>2022-08-07T14:53:21Z</time>
      </trkpt>
      <trkpt lat="45.45767" lon="6.40009">
        <ele>1506</ele>
        <time>2022-08-07T14:53:25Z</time>
      </trkpt>
      <trkpt lat="45.45772" lon="6.40014">
        <ele>1506</ele>
        <time>2022-08-07T14:53:37Z</time>
      </trkpt>
      <trkpt lat="45.4577" lon="6.40012">
        <ele>1506</ele>
        <time>2022-08-07T14:54:12Z</time>
      </trkpt>
      <trkpt lat="45.45762" lon="6.40002">
        <ele>1506</ele>
        <time>2022-08-07T14:54:21Z</time>
      </trkpt>
      <trkpt lat="45.45755" lon="6.39992">
        <ele>1505</ele>
        <time>2022-08-07T14:54:29Z</time>
      </trkpt>
      <trkpt lat="45.45748" lon="6.39971">
        <ele>1504</ele>
        <time>2022-08-07T14:54:42Z</time>
      </trkpt>
      <trkpt lat="45.45747" lon="6.39964">
        <ele>1503</ele>
        <time>2022-08-07T14:54:47Z</time>
      </trkpt>
      <trkpt lat="45.45747" lon="6.39956">
        <ele>1504</ele>
        <time>2022-08-07T14:54:54Z</time>
      </trkpt>
      <trkpt lat="45.45746" lon="6.39949">
        <ele>1505</ele>
        <time>2022-08-07T14:54:59Z</time>
      </trkpt>
      <trkpt lat="45.45744" lon="6.39943">
        <ele>1505</ele>
        <time>2022-08-07T14:55:01Z</time>
      </trkpt>
      <trkpt lat="45.45741" lon="6.39938">
        <ele>1504</ele>
        <time>2022-08-07T14:55:05Z</time>
      </trkpt>
      <trkpt lat="45.45732" lon="6.39934">
        <ele>1503</ele>
        <time>2022-08-07T14:55:12Z</time>
      </trkpt>
      <trkpt lat="45.45729" lon="6.39929">
        <ele>1504</ele>
        <time>2022-08-07T14:55:17Z</time>
      </trkpt>
      <trkpt lat="45.45727" lon="6.39923">
        <ele>1505</ele>
        <time>2022-08-07T14:55:21Z</time>
      </trkpt>
      <trkpt lat="45.45726" lon="6.39917">
        <ele>1505</ele>
        <time>2022-08-07T14:55:26Z</time>
      </trkpt>
      <trkpt lat="45.45725" lon="6.3991">
        <ele>1504</ele>
        <time>2022-08-07T14:55:30Z</time>
      </trkpt>
      <trkpt lat="45.45722" lon="6.39903">
        <ele>1504</ele>
        <time>2022-08-07T14:55:35Z</time>
      </trkpt>
      <trkpt lat="45.45722" lon="6.39897">
        <ele>1504</ele>
        <time>2022-08-07T14:55:39Z</time>
      </trkpt>
      <trkpt lat="45.4572" lon="6.39891">
        <ele>1504</ele>
        <time>2022-08-07T14:55:43Z</time>
      </trkpt>
      <trkpt lat="45.45717" lon="6.39886">
        <ele>1504</ele>
        <time>2022-08-07T14:55:47Z</time>
      </trkpt>
      <trkpt lat="45.45715" lon="6.3988">
        <ele>1504</ele>
        <time>2022-08-07T14:55:52Z</time>
      </trkpt>
      <trkpt lat="45.45712" lon="6.39874">
        <ele>1503</ele>
        <time>2022-08-07T14:55:57Z</time>
      </trkpt>
      <trkpt lat="45.45708" lon="6.39868">
        <ele>1504</ele>
        <time>2022-08-07T14:56:03Z</time>
      </trkpt>
      <trkpt lat="45.45703" lon="6.39857">
        <ele>1505</ele>
        <time>2022-08-07T14:56:11Z</time>
      </trkpt>
      <trkpt lat="45.4568" lon="6.39822">
        <ele>1505</ele>
        <time>2022-08-07T14:56:42Z</time>
      </trkpt>
      <trkpt lat="45.4568" lon="6.39816">
        <ele>1506</ele>
        <time>2022-08-07T14:56:46Z</time>
      </trkpt>
      <trkpt lat="45.45677" lon="6.39808">
        <ele>1507</ele>
        <time>2022-08-07T14:56:53Z</time>
      </trkpt>
      <trkpt lat="45.45673" lon="6.39805">
        <ele>1507</ele>
        <time>2022-08-07T14:56:57Z</time>
      </trkpt>
      <trkpt lat="45.45669" lon="6.39805">
        <ele>1508</ele>
        <time>2022-08-07T14:57:01Z</time>
      </trkpt>
      <trkpt lat="45.45665" lon="6.39811">
        <ele>1508</ele>
        <time>2022-08-07T14:57:06Z</time>
      </trkpt>
      <trkpt lat="45.45663" lon="6.39817">
        <ele>1509</ele>
        <time>2022-08-07T14:57:11Z</time>
      </trkpt>
      <trkpt lat="45.45662" lon="6.39824">
        <ele>1509</ele>
        <time>2022-08-07T14:57:15Z</time>
      </trkpt>
      <trkpt lat="45.45661" lon="6.3983">
        <ele>1509</ele>
        <time>2022-08-07T14:57:20Z</time>
      </trkpt>
      <trkpt lat="45.45662" lon="6.39836">
        <ele>1509</ele>
        <time>2022-08-07T14:57:24Z</time>
      </trkpt>
      <trkpt lat="45.45661" lon="6.39845">
        <ele>1510</ele>
        <time>2022-08-07T14:57:32Z</time>
      </trkpt>
      <trkpt lat="45.45661" lon="6.39851">
        <ele>1510</ele>
        <time>2022-08-07T14:57:36Z</time>
      </trkpt>
      <trkpt lat="45.45661" lon="6.39858">
        <ele>1511</ele>
        <time>2022-08-07T14:57:40Z</time>
      </trkpt>
      <trkpt lat="45.4566" lon="6.39875">
        <ele>1511</ele>
        <time>2022-08-07T14:57:52Z</time>
      </trkpt>
      <trkpt lat="45.45659" lon="6.39889">
        <ele>1512</ele>
        <time>2022-08-07T14:58:01Z</time>
      </trkpt>
      <trkpt lat="45.45658" lon="6.39895">
        <ele>1513</ele>
        <time>2022-08-07T14:58:06Z</time>
      </trkpt>
      <trkpt lat="45.45643" lon="6.39921">
        <ele>1515</ele>
        <time>2022-08-07T14:58:31Z</time>
      </trkpt>
      <trkpt lat="45.45642" lon="6.39928">
        <ele>1516</ele>
        <time>2022-08-07T14:58:34Z</time>
      </trkpt>
      <trkpt lat="45.4564" lon="6.39946">
        <ele>1517</ele>
        <time>2022-08-07T14:58:46Z</time>
      </trkpt>
      <trkpt lat="45.45633" lon="6.39956">
        <ele>1519</ele>
        <time>2022-08-07T14:58:59Z</time>
      </trkpt>
      <trkpt lat="45.45632" lon="6.39952">
        <ele>1522</ele>
        <time>2022-08-07T14:59:26Z</time>
      </trkpt>
      <trkpt lat="45.45631" lon="6.39934">
        <ele>1525</ele>
        <time>2022-08-07T14:59:40Z</time>
      </trkpt>
      <trkpt lat="45.45628" lon="6.39917">
        <ele>1526</ele>
        <time>2022-08-07T14:59:54Z</time>
      </trkpt>
      <trkpt lat="45.4563" lon="6.399">
        <ele>1528</ele>
        <time>2022-08-07T15:00:06Z</time>
      </trkpt>
      <trkpt lat="45.45624" lon="6.39886">
        <ele>1530</ele>
        <time>2022-08-07T15:00:23Z</time>
      </trkpt>
      <trkpt lat="45.45625" lon="6.39879">
        <ele>1531</ele>
        <time>2022-08-07T15:00:28Z</time>
      </trkpt>
      <trkpt lat="45.45623" lon="6.39872">
        <ele>1532</ele>
        <time>2022-08-07T15:00:35Z</time>
      </trkpt>
      <trkpt lat="45.45623" lon="6.39864">
        <ele>1533</ele>
        <time>2022-08-07T15:00:45Z</time>
      </trkpt>
      <trkpt lat="45.45622" lon="6.39858">
        <ele>1534</ele>
        <time>2022-08-07T15:00:50Z</time>
      </trkpt>
      <trkpt lat="45.45621" lon="6.39851">
        <ele>1535</ele>
        <time>2022-08-07T15:01:00Z</time>
      </trkpt>
      <trkpt lat="45.45622" lon="6.39845">
        <ele>1536</ele>
        <time>2022-08-07T15:01:10Z</time>
      </trkpt>
      <trkpt lat="45.45621" lon="6.39849">
        <ele>1541</ele>
        <time>2022-08-07T15:11:49Z</time>
      </trkpt>
      <trkpt lat="45.45618" lon="6.39854">
        <ele>1540</ele>
        <time>2022-08-07T15:11:54Z</time>
      </trkpt>
      <trkpt lat="45.4562" lon="6.39861">
        <ele>1540</ele>
        <time>2022-08-07T15:12:06Z</time>
      </trkpt>
      <trkpt lat="45.4562" lon="6.39869">
        <ele>1538</ele>
        <time>2022-08-07T15:12:17Z</time>
      </trkpt>
      <trkpt lat="45.45624" lon="6.39877">
        <ele>1537</ele>
        <time>2022-08-07T15:12:48Z</time>
      </trkpt>
      <trkpt lat="45.45619" lon="6.39885">
        <ele>1536</ele>
        <time>2022-08-07T15:12:59Z</time>
      </trkpt>
      <trkpt lat="45.4562" lon="6.39896">
        <ele>1535</ele>
        <time>2022-08-07T15:13:09Z</time>
      </trkpt>
      <trkpt lat="45.45622" lon="6.39901">
        <ele>1534</ele>
        <time>2022-08-07T15:13:16Z</time>
      </trkpt>
      <trkpt lat="45.45623" lon="6.39912">
        <ele>1533</ele>
        <time>2022-08-07T15:13:26Z</time>
      </trkpt>
      <trkpt lat="45.45624" lon="6.39918">
        <ele>1532</ele>
        <time>2022-08-07T15:13:34Z</time>
      </trkpt>
      <trkpt lat="45.45625" lon="6.39925">
        <ele>1531</ele>
        <time>2022-08-07T15:13:44Z</time>
      </trkpt>
      <trkpt lat="45.45628" lon="6.39936">
        <ele>1531</ele>
        <time>2022-08-07T15:13:54Z</time>
      </trkpt>
      <trkpt lat="45.45627" lon="6.39945">
        <ele>1530</ele>
        <time>2022-08-07T15:14:01Z</time>
      </trkpt>
      <trkpt lat="45.45628" lon="6.39952">
        <ele>1529</ele>
        <time>2022-08-07T15:14:09Z</time>
      </trkpt>
      <trkpt lat="45.45628" lon="6.39972">
        <ele>1528</ele>
        <time>2022-08-07T15:14:30Z</time>
      </trkpt>
      <trkpt lat="45.45633" lon="6.39965">
        <ele>1526</ele>
        <time>2022-08-07T15:14:41Z</time>
      </trkpt>
      <trkpt lat="45.4564" lon="6.39952">
        <ele>1524</ele>
        <time>2022-08-07T15:15:26Z</time>
      </trkpt>
      <trkpt lat="45.45645" lon="6.39925">
        <ele>1521</ele>
        <time>2022-08-07T15:15:56Z</time>
      </trkpt>
      <trkpt lat="45.45649" lon="6.39918">
        <ele>1520</ele>
        <time>2022-08-07T15:16:13Z</time>
      </trkpt>
      <trkpt lat="45.45656" lon="6.39902">
        <ele>1518</ele>
        <time>2022-08-07T15:16:34Z</time>
      </trkpt>
      <trkpt lat="45.45659" lon="6.39893">
        <ele>1517</ele>
        <time>2022-08-07T15:16:44Z</time>
      </trkpt>
      <trkpt lat="45.4566" lon="6.39882">
        <ele>1516</ele>
        <time>2022-08-07T15:16:54Z</time>
      </trkpt>
      <trkpt lat="45.45661" lon="6.39873">
        <ele>1515</ele>
        <time>2022-08-07T15:17:04Z</time>
      </trkpt>
      <trkpt lat="45.4566" lon="6.39866">
        <ele>1515</ele>
        <time>2022-08-07T15:17:09Z</time>
      </trkpt>
      <trkpt lat="45.45662" lon="6.39845">
        <ele>1513</ele>
        <time>2022-08-07T15:17:27Z</time>
      </trkpt>
      <trkpt lat="45.45662" lon="6.39835">
        <ele>1513</ele>
        <time>2022-08-07T15:17:37Z</time>
      </trkpt>
      <trkpt lat="45.45662" lon="6.39827">
        <ele>1512</ele>
        <time>2022-08-07T15:17:47Z</time>
      </trkpt>
      <trkpt lat="45.45669" lon="6.39809">
        <ele>1511</ele>
        <time>2022-08-07T15:18:09Z</time>
      </trkpt>
      <trkpt lat="45.45674" lon="6.39808">
        <ele>1511</ele>
        <time>2022-08-07T15:18:17Z</time>
      </trkpt>
      <trkpt lat="45.45677" lon="6.39814">
        <ele>1510</ele>
        <time>2022-08-07T15:18:29Z</time>
      </trkpt>
      <trkpt lat="45.45677" lon="6.39824">
        <ele>1508</ele>
        <time>2022-08-07T15:18:50Z</time>
      </trkpt>
      <trkpt lat="45.4568" lon="6.3983">
        <ele>1508</ele>
        <time>2022-08-07T15:18:54Z</time>
      </trkpt>
      <trkpt lat="45.45684" lon="6.39839">
        <ele>1508</ele>
        <time>2022-08-07T15:19:03Z</time>
      </trkpt>
      <trkpt lat="45.45703" lon="6.39861">
        <ele>1507</ele>
        <time>2022-08-07T15:19:32Z</time>
      </trkpt>
      <trkpt lat="45.45714" lon="6.39883">
        <ele>1505</ele>
        <time>2022-08-07T15:19:56Z</time>
      </trkpt>
      <trkpt lat="45.45713" lon="6.39891">
        <ele>1506</ele>
        <time>2022-08-07T15:20:06Z</time>
      </trkpt>
      <trkpt lat="45.45718" lon="6.39896">
        <ele>1506</ele>
        <time>2022-08-07T15:20:10Z</time>
      </trkpt>
      <trkpt lat="45.4572" lon="6.39901">
        <ele>1506</ele>
        <time>2022-08-07T15:20:15Z</time>
      </trkpt>
      <trkpt lat="45.45724" lon="6.39914">
        <ele>1506</ele>
        <time>2022-08-07T15:20:25Z</time>
      </trkpt>
      <trkpt lat="45.45725" lon="6.39922">
        <ele>1506</ele>
        <time>2022-08-07T15:20:32Z</time>
      </trkpt>
      <trkpt lat="45.45727" lon="6.39929">
        <ele>1506</ele>
        <time>2022-08-07T15:20:39Z</time>
      </trkpt>
      <trkpt lat="45.45734" lon="6.39936">
        <ele>1506</ele>
        <time>2022-08-07T15:20:49Z</time>
      </trkpt>
      <trkpt lat="45.45738" lon="6.39937">
        <ele>1505</ele>
        <time>2022-08-07T15:20:54Z</time>
      </trkpt>
      <trkpt lat="45.45742" lon="6.39942">
        <ele>1505</ele>
        <time>2022-08-07T15:20:59Z</time>
      </trkpt>
      <trkpt lat="45.45745" lon="6.39952">
        <ele>1505</ele>
        <time>2022-08-07T15:21:09Z</time>
      </trkpt>
      <trkpt lat="45.45746" lon="6.39959">
        <ele>1506</ele>
        <time>2022-08-07T15:21:16Z</time>
      </trkpt>
      <trkpt lat="45.45746" lon="6.39974">
        <ele>1503</ele>
        <time>2022-08-07T15:21:32Z</time>
      </trkpt>
      <trkpt lat="45.45759" lon="6.40004">
        <ele>1505</ele>
        <time>2022-08-07T15:22:04Z</time>
      </trkpt>
      <trkpt lat="45.45763" lon="6.40008">
        <ele>1505</ele>
        <time>2022-08-07T15:22:09Z</time>
      </trkpt>
      <trkpt lat="45.45766" lon="6.40012">
        <ele>1506</ele>
        <time>2022-08-07T15:22:16Z</time>
      </trkpt>
      <trkpt lat="45.45772" lon="6.40016">
        <ele>1506</ele>
        <time>2022-08-07T15:22:44Z</time>
      </trkpt>
      <trkpt lat="45.4579" lon="6.40025">
        <ele>1506</ele>
        <time>2022-08-07T15:23:11Z</time>
      </trkpt>
      <trkpt lat="45.45796" lon="6.40026">
        <ele>1506</ele>
        <time>2022-08-07T15:23:18Z</time>
      </trkpt>
      <trkpt lat="45.45801" lon="6.40028">
        <ele>1506</ele>
        <time>2022-08-07T15:23:50Z</time>
      </trkpt>
      <trkpt lat="45.45805" lon="6.40031">
        <ele>1506</ele>
        <time>2022-08-07T15:23:55Z</time>
      </trkpt>
      <trkpt lat="45.45811" lon="6.40037">
        <ele>1507</ele>
        <time>2022-08-07T15:24:04Z</time>
      </trkpt>
      <trkpt lat="45.45815" lon="6.40041">
        <ele>1507</ele>
        <time>2022-08-07T15:24:08Z</time>
      </trkpt>
      <trkpt lat="45.45819" lon="6.40044">
        <ele>1507</ele>
        <time>2022-08-07T15:24:13Z</time>
      </trkpt>
      <trkpt lat="45.45827" lon="6.40048">
        <ele>1506</ele>
        <time>2022-08-07T15:24:21Z</time>
      </trkpt>
      <trkpt lat="45.45838" lon="6.40053">
        <ele>1507</ele>
        <time>2022-08-07T15:24:32Z</time>
      </trkpt>
      <trkpt lat="45.45852" lon="6.40062">
        <ele>1507</ele>
        <time>2022-08-07T15:24:56Z</time>
      </trkpt>
      <trkpt lat="45.45854" lon="6.40069">
        <ele>1507</ele>
        <time>2022-08-07T15:25:04Z</time>
      </trkpt>
      <trkpt lat="45.45867" lon="6.40094">
        <ele>1504</ele>
        <time>2022-08-07T15:25:27Z</time>
      </trkpt>
      <trkpt lat="45.45875" lon="6.40105">
        <ele>1503</ele>
        <time>2022-08-07T15:25:38Z</time>
      </trkpt>
      <trkpt lat="45.45879" lon="6.40111">
        <ele>1502</ele>
        <time>2022-08-07T15:25:47Z</time>
      </trkpt>
      <trkpt lat="45.45881" lon="6.40118">
        <ele>1502</ele>
        <time>2022-08-07T15:25:58Z</time>
      </trkpt>
      <trkpt lat="45.45886" lon="6.40122">
        <ele>1502</ele>
        <time>2022-08-07T15:26:14Z</time>
      </trkpt>
      <trkpt lat="45.45892" lon="6.40124">
        <ele>1502</ele>
        <time>2022-08-07T15:26:24Z</time>
      </trkpt>
      <trkpt lat="45.45902" lon="6.40145">
        <ele>1501</ele>
        <time>2022-08-07T15:26:45Z</time>
      </trkpt>
      <trkpt lat="45.45905" lon="6.40152">
        <ele>1501</ele>
        <time>2022-08-07T15:26:54Z</time>
      </trkpt>
      <trkpt lat="45.45917" lon="6.40169">
        <ele>1501</ele>
        <time>2022-08-07T15:27:13Z</time>
      </trkpt>
      <trkpt lat="45.45924" lon="6.40179">
        <ele>1499</ele>
        <time>2022-08-07T15:27:25Z</time>
      </trkpt>
      <trkpt lat="45.45938" lon="6.4019">
        <ele>1498</ele>
        <time>2022-08-07T15:27:42Z</time>
      </trkpt>
      <trkpt lat="45.45949" lon="6.40196">
        <ele>1496</ele>
        <time>2022-08-07T15:28:02Z</time>
      </trkpt>
      <trkpt lat="45.45954" lon="6.40201">
        <ele>1496</ele>
        <time>2022-08-07T15:28:17Z</time>
      </trkpt>
      <trkpt lat="45.4596" lon="6.40204">
        <ele>1495</ele>
        <time>2022-08-07T15:28:27Z</time>
      </trkpt>
      <trkpt lat="45.45969" lon="6.4021">
        <ele>1495</ele>
        <time>2022-08-07T15:28:38Z</time>
      </trkpt>
      <trkpt lat="45.4599" lon="6.40229">
        <ele>1493</ele>
        <time>2022-08-07T15:29:05Z</time>
      </trkpt>
      <trkpt lat="45.46004" lon="6.40237">
        <ele>1492</ele>
        <time>2022-08-07T15:29:23Z</time>
      </trkpt>
      <trkpt lat="45.46012" lon="6.40244">
        <ele>1491</ele>
        <time>2022-08-07T15:29:33Z</time>
      </trkpt>
      <trkpt lat="45.46016" lon="6.40248">
        <ele>1491</ele>
        <time>2022-08-07T15:29:38Z</time>
      </trkpt>
      <trkpt lat="45.4602" lon="6.40254">
        <ele>1491</ele>
        <time>2022-08-07T15:29:45Z</time>
      </trkpt>
      <trkpt lat="45.46025" lon="6.40256">
        <ele>1491</ele>
        <time>2022-08-07T15:29:50Z</time>
      </trkpt>
      <trkpt lat="45.46046" lon="6.40274">
        <ele>1488</ele>
        <time>2022-08-07T15:30:18Z</time>
      </trkpt>
      <trkpt lat="45.46056" lon="6.40279">
        <ele>1487</ele>
        <time>2022-08-07T15:30:30Z</time>
      </trkpt>
      <trkpt lat="45.46069" lon="6.40282">
        <ele>1486</ele>
        <time>2022-08-07T15:30:44Z</time>
      </trkpt>
      <trkpt lat="45.46088" lon="6.40287">
        <ele>1485</ele>
        <time>2022-08-07T15:31:05Z</time>
      </trkpt>
      <trkpt lat="45.46095" lon="6.40288">
        <ele>1484</ele>
        <time>2022-08-07T15:31:13Z</time>
      </trkpt>
      <trkpt lat="45.46101" lon="6.40292">
        <ele>1483</ele>
        <time>2022-08-07T15:31:21Z</time>
      </trkpt>
      <trkpt lat="45.46111" lon="6.403">
        <ele>1482</ele>
        <time>2022-08-07T15:31:43Z</time>
      </trkpt>
      <trkpt lat="45.46116" lon="6.40305">
        <ele>1481</ele>
        <time>2022-08-07T15:31:50Z</time>
      </trkpt>
      <trkpt lat="45.46119" lon="6.4031">
        <ele>1481</ele>
        <time>2022-08-07T15:31:55Z</time>
      </trkpt>
      <trkpt lat="45.46132" lon="6.40321">
        <ele>1480</ele>
        <time>2022-08-07T15:32:12Z</time>
      </trkpt>
      <trkpt lat="45.46151" lon="6.40349">
        <ele>1477</ele>
        <time>2022-08-07T15:32:46Z</time>
      </trkpt>
      <trkpt lat="45.46172" lon="6.40376">
        <ele>1475</ele>
        <time>2022-08-07T15:33:20Z</time>
      </trkpt>
      <trkpt lat="45.46191" lon="6.40394">
        <ele>1473</ele>
        <time>2022-08-07T15:33:50Z</time>
      </trkpt>
      <trkpt lat="45.46195" lon="6.40398">
        <ele>1473</ele>
        <time>2022-08-07T15:33:55Z</time>
      </trkpt>
      <trkpt lat="45.46206" lon="6.40408">
        <ele>1471</ele>
        <time>2022-08-07T15:34:12Z</time>
      </trkpt>
      <trkpt lat="45.46217" lon="6.40417">
        <ele>1470</ele>
        <time>2022-08-07T15:34:26Z</time>
      </trkpt>
      <trkpt lat="45.46229" lon="6.40427">
        <ele>1468</ele>
        <time>2022-08-07T15:34:48Z</time>
      </trkpt>
      <trkpt lat="45.46233" lon="6.40431">
        <ele>1468</ele>
        <time>2022-08-07T15:34:54Z</time>
      </trkpt>
      <trkpt lat="45.46247" lon="6.40444">
        <ele>1466</ele>
        <time>2022-08-07T15:35:14Z</time>
      </trkpt>
      <trkpt lat="45.46257" lon="6.40447">
        <ele>1465</ele>
        <time>2022-08-07T15:35:27Z</time>
      </trkpt>
      <trkpt lat="45.46269" lon="6.40451">
        <ele>1463</ele>
        <time>2022-08-07T15:38:01Z</time>
      </trkpt>
      <trkpt lat="45.46275" lon="6.40452">
        <ele>1463</ele>
        <time>2022-08-07T15:38:22Z</time>
      </trkpt>
      <trkpt lat="45.4628" lon="6.40454">
        <ele>1462</ele>
        <time>2022-08-07T15:39:13Z</time>
      </trkpt>
      <trkpt lat="45.46285" lon="6.40459">
        <ele>1462</ele>
        <time>2022-08-07T15:39:26Z</time>
      </trkpt>
      <trkpt lat="45.46302" lon="6.40458">
        <ele>1461</ele>
        <time>2022-08-07T15:39:56Z</time>
      </trkpt>
      <trkpt lat="45.46307" lon="6.40458">
        <ele>1460</ele>
        <time>2022-08-07T15:40:01Z</time>
      </trkpt>
      <trkpt lat="45.46317" lon="6.40462">
        <ele>1459</ele>
        <time>2022-08-07T15:40:10Z</time>
      </trkpt>
      <trkpt lat="45.4632" lon="6.40465">
        <ele>1459</ele>
        <time>2022-08-07T15:40:14Z</time>
      </trkpt>
      <trkpt lat="45.46324" lon="6.4047">
        <ele>1459</ele>
        <time>2022-08-07T15:40:19Z</time>
      </trkpt>
      <trkpt lat="45.46326" lon="6.40476">
        <ele>1458</ele>
        <time>2022-08-07T15:40:24Z</time>
      </trkpt>
      <trkpt lat="45.46329" lon="6.40482">
        <ele>1458</ele>
        <time>2022-08-07T15:40:28Z</time>
      </trkpt>
      <trkpt lat="45.46337" lon="6.4049">
        <ele>1455</ele>
        <time>2022-08-07T15:40:52Z</time>
      </trkpt>
      <trkpt lat="45.46342" lon="6.40492">
        <ele>1454</ele>
        <time>2022-08-07T15:40:56Z</time>
      </trkpt>
      <trkpt lat="45.46346" lon="6.40497">
        <ele>1453</ele>
        <time>2022-08-07T15:40:59Z</time>
      </trkpt>
      <trkpt lat="45.46363" lon="6.40512">
        <ele>1448</ele>
        <time>2022-08-07T15:41:13Z</time>
      </trkpt>
      <trkpt lat="45.46368" lon="6.40513">
        <ele>1447</ele>
        <time>2022-08-07T15:41:16Z</time>
      </trkpt>
      <trkpt lat="45.46372" lon="6.40513">
        <ele>1446</ele>
        <time>2022-08-07T15:41:19Z</time>
      </trkpt>
      <trkpt lat="45.46378" lon="6.40517">
        <ele>1445</ele>
        <time>2022-08-07T15:41:22Z</time>
      </trkpt>
      <trkpt lat="45.46383" lon="6.40513">
        <ele>1444</ele>
        <time>2022-08-07T15:41:24Z</time>
      </trkpt>
      <trkpt lat="45.4639" lon="6.40516">
        <ele>1444</ele>
        <time>2022-08-07T15:41:27Z</time>
      </trkpt>
      <trkpt lat="45.46397" lon="6.40512">
        <ele>1444</ele>
        <time>2022-08-07T15:41:32Z</time>
      </trkpt>
      <trkpt lat="45.46402" lon="6.40515">
        <ele>1445</ele>
        <time>2022-08-07T15:41:36Z</time>
      </trkpt>
      <trkpt lat="45.46405" lon="6.40519">
        <ele>1445</ele>
        <time>2022-08-07T15:41:39Z</time>
      </trkpt>
      <trkpt lat="45.46411" lon="6.40528">
        <ele>1446</ele>
        <time>2022-08-07T15:42:14Z</time>
      </trkpt>
      <trkpt lat="45.46425" lon="6.40552">
        <ele>1446</ele>
        <time>2022-08-07T15:42:35Z</time>
      </trkpt>
      <trkpt lat="45.46426" lon="6.40561">
        <ele>1446</ele>
        <time>2022-08-07T15:42:41Z</time>
      </trkpt>
      <trkpt lat="45.46427" lon="6.40567">
        <ele>1446</ele>
        <time>2022-08-07T15:42:46Z</time>
      </trkpt>
      <trkpt lat="45.46431" lon="6.40571">
        <ele>1445</ele>
        <time>2022-08-07T15:42:58Z</time>
      </trkpt>
      <trkpt lat="45.46438" lon="6.40578">
        <ele>1443</ele>
        <time>2022-08-07T15:43:10Z</time>
      </trkpt>
      <trkpt lat="45.46443" lon="6.40579">
        <ele>1442</ele>
        <time>2022-08-07T15:44:09Z</time>
      </trkpt>
      <trkpt lat="45.46454" lon="6.40589">
        <ele>1439</ele>
        <time>2022-08-07T15:44:34Z</time>
      </trkpt>
      <trkpt lat="45.46479" lon="6.40599">
        <ele>1435</ele>
        <time>2022-08-07T15:45:07Z</time>
      </trkpt>
      <trkpt lat="45.46482" lon="6.40602">
        <ele>1435</ele>
        <time>2022-08-07T15:45:12Z</time>
      </trkpt>
      <trkpt lat="45.46492" lon="6.40608">
        <ele>1433</ele>
        <time>2022-08-07T15:45:23Z</time>
      </trkpt>
      <trkpt lat="45.46498" lon="6.40613">
        <ele>1432</ele>
        <time>2022-08-07T15:45:28Z</time>
      </trkpt>
      <trkpt lat="45.46503" lon="6.40612">
        <ele>1430</ele>
        <time>2022-08-07T15:45:48Z</time>
      </trkpt>
      <trkpt lat="45.46506" lon="6.40618">
        <ele>1430</ele>
        <time>2022-08-07T15:46:44Z</time>
      </trkpt>
      <trkpt lat="45.46509" lon="6.40621">
        <ele>1430</ele>
        <time>2022-08-07T15:46:48Z</time>
      </trkpt>
      <trkpt lat="45.46513" lon="6.40624">
        <ele>1429</ele>
        <time>2022-08-07T15:46:53Z</time>
      </trkpt>
      <trkpt lat="45.46518" lon="6.40629">
        <ele>1428</ele>
        <time>2022-08-07T15:47:25Z</time>
      </trkpt>
      <trkpt lat="45.46522" lon="6.40632">
        <ele>1428</ele>
        <time>2022-08-07T15:47:29Z</time>
      </trkpt>
      <trkpt lat="45.46535" lon="6.4064">
        <ele>1425</ele>
        <time>2022-08-07T15:47:42Z</time>
      </trkpt>
      <trkpt lat="45.46541" lon="6.4064">
        <ele>1425</ele>
        <time>2022-08-07T15:47:45Z</time>
      </trkpt>
      <trkpt lat="45.46564" lon="6.40644">
        <ele>1421</ele>
        <time>2022-08-07T15:48:14Z</time>
      </trkpt>
      <trkpt lat="45.46587" lon="6.40655">
        <ele>1417</ele>
        <time>2022-08-07T15:48:36Z</time>
      </trkpt>
      <trkpt lat="45.46605" lon="6.4067">
        <ele>1414</ele>
        <time>2022-08-07T15:48:52Z</time>
      </trkpt>
      <trkpt lat="45.46614" lon="6.40674">
        <ele>1412</ele>
        <time>2022-08-07T15:49:00Z</time>
      </trkpt>
      <trkpt lat="45.46619" lon="6.40675">
        <ele>1412</ele>
        <time>2022-08-07T15:49:04Z</time>
      </trkpt>
      <trkpt lat="45.46632" lon="6.40683">
        <ele>1410</ele>
        <time>2022-08-07T15:49:16Z</time>
      </trkpt>
      <trkpt lat="45.46635" lon="6.40686">
        <ele>1409</ele>
        <time>2022-08-07T15:49:20Z</time>
      </trkpt>
      <trkpt lat="45.4665" lon="6.40693">
        <ele>1407</ele>
        <time>2022-08-07T15:49:33Z</time>
      </trkpt>
      <trkpt lat="45.46674" lon="6.40692">
        <ele>1403</ele>
        <time>2022-08-07T15:49:55Z</time>
      </trkpt>
      <trkpt lat="45.46684" lon="6.40688">
        <ele>1402</ele>
        <time>2022-08-07T15:50:05Z</time>
      </trkpt>
      <trkpt lat="45.46689" lon="6.40689">
        <ele>1401</ele>
        <time>2022-08-07T15:50:09Z</time>
      </trkpt>
      <trkpt lat="45.46693" lon="6.40692">
        <ele>1401</ele>
        <time>2022-08-07T15:50:13Z</time>
      </trkpt>
      <trkpt lat="45.46696" lon="6.40698">
        <ele>1401</ele>
        <time>2022-08-07T15:50:17Z</time>
      </trkpt>
      <trkpt lat="45.46705" lon="6.407">
        <ele>1401</ele>
        <time>2022-08-07T15:50:25Z</time>
      </trkpt>
      <trkpt lat="45.46711" lon="6.40696">
        <ele>1399</ele>
        <time>2022-08-07T15:50:32Z</time>
      </trkpt>
      <trkpt lat="45.46715" lon="6.40681">
        <ele>1397</ele>
        <time>2022-08-07T15:50:43Z</time>
      </trkpt>
      <trkpt lat="45.46717" lon="6.40675">
        <ele>1396</ele>
        <time>2022-08-07T15:50:55Z</time>
      </trkpt>
      <trkpt lat="45.46718" lon="6.40668">
        <ele>1395</ele>
        <time>2022-08-07T15:51:01Z</time>
      </trkpt>
      <trkpt lat="45.46726" lon="6.40655">
        <ele>1393</ele>
        <time>2022-08-07T15:51:19Z</time>
      </trkpt>
      <trkpt lat="45.46733" lon="6.40647">
        <ele>1393</ele>
        <time>2022-08-07T15:51:29Z</time>
      </trkpt>
      <trkpt lat="45.46741" lon="6.40644">
        <ele>1392</ele>
        <time>2022-08-07T15:51:38Z</time>
      </trkpt>
      <trkpt lat="45.46762" lon="6.40651">
        <ele>1390</ele>
        <time>2022-08-07T15:52:04Z</time>
      </trkpt>
      <trkpt lat="45.46771" lon="6.40658">
        <ele>1390</ele>
        <time>2022-08-07T15:52:37Z</time>
      </trkpt>
      <trkpt lat="45.46775" lon="6.40663">
        <ele>1391</ele>
        <time>2022-08-07T15:52:41Z</time>
      </trkpt>
      <trkpt lat="45.46776" lon="6.40669">
        <ele>1391</ele>
        <time>2022-08-07T15:52:45Z</time>
      </trkpt>
      <trkpt lat="45.46777" lon="6.40675">
        <ele>1391</ele>
        <time>2022-08-07T15:52:48Z</time>
      </trkpt>
      <trkpt lat="45.46777" lon="6.40683">
        <ele>1391</ele>
        <time>2022-08-07T15:52:53Z</time>
      </trkpt>
      <trkpt lat="45.46783" lon="6.40738">
        <ele>1392</ele>
        <time>2022-08-07T15:53:26Z</time>
      </trkpt>
      <trkpt lat="45.46784" lon="6.40752">
        <ele>1392</ele>
        <time>2022-08-07T15:53:34Z</time>
      </trkpt>
      <trkpt lat="45.46785" lon="6.40758">
        <ele>1393</ele>
        <time>2022-08-07T15:53:39Z</time>
      </trkpt>
      <trkpt lat="45.46786" lon="6.40766">
        <ele>1393</ele>
        <time>2022-08-07T15:53:46Z</time>
      </trkpt>
      <trkpt lat="45.46791" lon="6.40781">
        <ele>1392</ele>
        <time>2022-08-07T15:53:57Z</time>
      </trkpt>
      <trkpt lat="45.46797" lon="6.4079">
        <ele>1393</ele>
        <time>2022-08-07T15:54:04Z</time>
      </trkpt>
      <trkpt lat="45.46801" lon="6.40804">
        <ele>1392</ele>
        <time>2022-08-07T15:54:12Z</time>
      </trkpt>
      <trkpt lat="45.46802" lon="6.40818">
        <ele>1392</ele>
        <time>2022-08-07T15:54:20Z</time>
      </trkpt>
      <trkpt lat="45.46802" lon="6.40815">
        <ele>1393</ele>
        <time>2022-08-07T15:56:43Z</time>
      </trkpt>
      <trkpt lat="45.46802" lon="6.40815">
        <ele>1392</ele>
        <time>2022-08-07T15:57:02Z</time>
      </trkpt>
      <trkpt lat="45.46802" lon="6.40827">
        <ele>1393</ele>
        <time>2022-08-07T15:58:39Z</time>
      </trkpt>
      <trkpt lat="45.468" lon="6.40834">
        <ele>1393</ele>
        <time>2022-08-07T15:58:43Z</time>
      </trkpt>
      <trkpt lat="45.468" lon="6.40842">
        <ele>1392</ele>
        <time>2022-08-07T15:58:47Z</time>
      </trkpt>
      <trkpt lat="45.4681" lon="6.40869">
        <ele>1390</ele>
        <time>2022-08-07T15:59:02Z</time>
      </trkpt>
      <trkpt lat="45.46818" lon="6.40888">
        <ele>1388</ele>
        <time>2022-08-07T15:59:14Z</time>
      </trkpt>
      <trkpt lat="45.4682" lon="6.40894">
        <ele>1387</ele>
        <time>2022-08-07T15:59:18Z</time>
      </trkpt>
      <trkpt lat="45.46824" lon="6.409">
        <ele>1386</ele>
        <time>2022-08-07T15:59:22Z</time>
      </trkpt>
      <trkpt lat="45.46832" lon="6.40906">
        <ele>1385</ele>
        <time>2022-08-07T15:59:30Z</time>
      </trkpt>
      <trkpt lat="45.46841" lon="6.4091">
        <ele>1383</ele>
        <time>2022-08-07T15:59:38Z</time>
      </trkpt>
      <trkpt lat="45.46846" lon="6.4091">
        <ele>1382</ele>
        <time>2022-08-07T15:59:42Z</time>
      </trkpt>
      <trkpt lat="45.4686" lon="6.40918">
        <ele>1379</ele>
        <time>2022-08-07T15:59:54Z</time>
      </trkpt>
      <trkpt lat="45.46865" lon="6.40923">
        <ele>1378</ele>
        <time>2022-08-07T15:59:58Z</time>
      </trkpt>
      <trkpt lat="45.46869" lon="6.40925">
        <ele>1378</ele>
        <time>2022-08-07T16:00:01Z</time>
      </trkpt>
      <trkpt lat="45.46876" lon="6.40933">
        <ele>1377</ele>
        <time>2022-08-07T16:00:10Z</time>
      </trkpt>
      <trkpt lat="45.4688" lon="6.40937">
        <ele>1377</ele>
        <time>2022-08-07T16:00:15Z</time>
      </trkpt>
      <trkpt lat="45.46885" lon="6.40947">
        <ele>1376</ele>
        <time>2022-08-07T16:00:24Z</time>
      </trkpt>
      <trkpt lat="45.46889" lon="6.4095">
        <ele>1376</ele>
        <time>2022-08-07T16:00:28Z</time>
      </trkpt>
      <trkpt lat="45.46893" lon="6.40957">
        <ele>1376</ele>
        <time>2022-08-07T16:00:35Z</time>
      </trkpt>
      <trkpt lat="45.46897" lon="6.40969">
        <ele>1377</ele>
        <time>2022-08-07T16:00:45Z</time>
      </trkpt>
      <trkpt lat="45.46904" lon="6.40981">
        <ele>1378</ele>
        <time>2022-08-07T16:00:54Z</time>
      </trkpt>
      <trkpt lat="45.46915" lon="6.41003">
        <ele>1379</ele>
        <time>2022-08-07T16:01:14Z</time>
      </trkpt>
      <trkpt lat="45.46931" lon="6.41028">
        <ele>1380</ele>
        <time>2022-08-07T16:01:33Z</time>
      </trkpt>
      <trkpt lat="45.46934" lon="6.41034">
        <ele>1380</ele>
        <time>2022-08-07T16:01:37Z</time>
      </trkpt>
      <trkpt lat="45.4694" lon="6.41055">
        <ele>1378</ele>
        <time>2022-08-07T16:01:49Z</time>
      </trkpt>
      <trkpt lat="45.46943" lon="6.41061">
        <ele>1378</ele>
        <time>2022-08-07T16:01:53Z</time>
      </trkpt>
      <trkpt lat="45.46948" lon="6.41065">
        <ele>1378</ele>
        <time>2022-08-07T16:01:57Z</time>
      </trkpt>
      <trkpt lat="45.46959" lon="6.41066">
        <ele>1377</ele>
        <time>2022-08-07T16:02:05Z</time>
      </trkpt>
      <trkpt lat="45.46964" lon="6.41067">
        <ele>1377</ele>
        <time>2022-08-07T16:02:09Z</time>
      </trkpt>
      <trkpt lat="45.46972" lon="6.41067">
        <ele>1378</ele>
        <time>2022-08-07T16:02:15Z</time>
      </trkpt>
      <trkpt lat="45.46975" lon="6.41071">
        <ele>1378</ele>
        <time>2022-08-07T16:02:20Z</time>
      </trkpt>
      <trkpt lat="45.46978" lon="6.41078">
        <ele>1378</ele>
        <time>2022-08-07T16:02:24Z</time>
      </trkpt>
      <trkpt lat="45.46982" lon="6.41097">
        <ele>1377</ele>
        <time>2022-08-07T16:02:34Z</time>
      </trkpt>
      <trkpt lat="45.46987" lon="6.41109">
        <ele>1376</ele>
        <time>2022-08-07T16:02:41Z</time>
      </trkpt>
      <trkpt lat="45.46995" lon="6.41118">
        <ele>1377</ele>
        <time>2022-08-07T16:02:50Z</time>
      </trkpt>
      <trkpt lat="45.46998" lon="6.41122">
        <ele>1377</ele>
        <time>2022-08-07T16:02:54Z</time>
      </trkpt>
      <trkpt lat="45.47013" lon="6.41139">
        <ele>1379</ele>
        <time>2022-08-07T16:03:11Z</time>
      </trkpt>
      <trkpt lat="45.47029" lon="6.41157">
        <ele>1381</ele>
        <time>2022-08-07T16:03:30Z</time>
      </trkpt>
      <trkpt lat="45.47037" lon="6.41166">
        <ele>1381</ele>
        <time>2022-08-07T16:03:41Z</time>
      </trkpt>
      <trkpt lat="45.4704" lon="6.41171">
        <ele>1382</ele>
        <time>2022-08-07T16:03:45Z</time>
      </trkpt>
      <trkpt lat="45.47055" lon="6.41188">
        <ele>1382</ele>
        <time>2022-08-07T16:04:03Z</time>
      </trkpt>
      <trkpt lat="45.47059" lon="6.41195">
        <ele>1382</ele>
        <time>2022-08-07T16:04:10Z</time>
      </trkpt>
      <trkpt lat="45.47065" lon="6.41204">
        <ele>1382</ele>
        <time>2022-08-07T16:04:20Z</time>
      </trkpt>
      <trkpt lat="45.47071" lon="6.4121">
        <ele>1382</ele>
        <time>2022-08-07T16:04:29Z</time>
      </trkpt>
      <trkpt lat="45.47084" lon="6.41219">
        <ele>1380</ele>
        <time>2022-08-07T16:04:47Z</time>
      </trkpt>
      <trkpt lat="45.47092" lon="6.41222">
        <ele>1379</ele>
        <time>2022-08-07T16:04:57Z</time>
      </trkpt>
      <trkpt lat="45.47097" lon="6.41227">
        <ele>1378</ele>
        <time>2022-08-07T16:05:07Z</time>
      </trkpt>
      <trkpt lat="45.471" lon="6.4124">
        <ele>1376</ele>
        <time>2022-08-07T16:05:18Z</time>
      </trkpt>
      <trkpt lat="45.47107" lon="6.41249">
        <ele>1375</ele>
        <time>2022-08-07T16:05:26Z</time>
      </trkpt>
      <trkpt lat="45.47111" lon="6.4126">
        <ele>1374</ele>
        <time>2022-08-07T16:05:33Z</time>
      </trkpt>
      <trkpt lat="45.47119" lon="6.41268">
        <ele>1373</ele>
        <time>2022-08-07T16:05:43Z</time>
      </trkpt>
      <trkpt lat="45.47136" lon="6.41298">
        <ele>1372</ele>
        <time>2022-08-07T16:06:13Z</time>
      </trkpt>
      <trkpt lat="45.47147" lon="6.41324">
        <ele>1371</ele>
        <time>2022-08-07T16:06:33Z</time>
      </trkpt>
      <trkpt lat="45.47163" lon="6.41343">
        <ele>1370</ele>
        <time>2022-08-07T16:06:54Z</time>
      </trkpt>
      <trkpt lat="45.47172" lon="6.4135">
        <ele>1370</ele>
        <time>2022-08-07T16:07:01Z</time>
      </trkpt>
      <trkpt lat="45.4718" lon="6.4136">
        <ele>1369</ele>
        <time>2022-08-07T16:07:10Z</time>
      </trkpt>
      <trkpt lat="45.47186" lon="6.41366">
        <ele>1369</ele>
        <time>2022-08-07T16:07:19Z</time>
      </trkpt>
      <trkpt lat="45.47195" lon="6.41374">
        <ele>1369</ele>
        <time>2022-08-07T16:07:27Z</time>
      </trkpt>
      <trkpt lat="45.47197" lon="6.4138">
        <ele>1369</ele>
        <time>2022-08-07T16:07:32Z</time>
      </trkpt>
      <trkpt lat="45.47205" lon="6.41389">
        <ele>1369</ele>
        <time>2022-08-07T16:07:40Z</time>
      </trkpt>
      <trkpt lat="45.47208" lon="6.41394">
        <ele>1369</ele>
        <time>2022-08-07T16:07:43Z</time>
      </trkpt>
      <trkpt lat="45.47215" lon="6.41401">
        <ele>1369</ele>
        <time>2022-08-07T16:07:53Z</time>
      </trkpt>
      <trkpt lat="45.47218" lon="6.41407">
        <ele>1368</ele>
        <time>2022-08-07T16:07:57Z</time>
      </trkpt>
      <trkpt lat="45.47221" lon="6.41411">
        <ele>1368</ele>
        <time>2022-08-07T16:08:02Z</time>
      </trkpt>
      <trkpt lat="45.47227" lon="6.41415">
        <ele>1367</ele>
        <time>2022-08-07T16:08:11Z</time>
      </trkpt>
      <trkpt lat="45.47232" lon="6.41416">
        <ele>1367</ele>
        <time>2022-08-07T16:08:16Z</time>
      </trkpt>
      <trkpt lat="45.47236" lon="6.41421">
        <ele>1367</ele>
        <time>2022-08-07T16:08:21Z</time>
      </trkpt>
      <trkpt lat="45.4724" lon="6.41422">
        <ele>1367</ele>
        <time>2022-08-07T16:08:26Z</time>
      </trkpt>
      <trkpt lat="45.47241" lon="6.41428">
        <ele>1367</ele>
        <time>2022-08-07T16:08:31Z</time>
      </trkpt>
      <trkpt lat="45.47245" lon="6.41434">
        <ele>1367</ele>
        <time>2022-08-07T16:08:39Z</time>
      </trkpt>
      <trkpt lat="45.47253" lon="6.41437">
        <ele>1366</ele>
        <time>2022-08-07T16:08:50Z</time>
      </trkpt>
      <trkpt lat="45.47258" lon="6.4144">
        <ele>1366</ele>
        <time>2022-08-07T16:09:10Z</time>
      </trkpt>
      <trkpt lat="45.47262" lon="6.4144">
        <ele>1365</ele>
        <time>2022-08-07T16:09:15Z</time>
      </trkpt>
      <trkpt lat="45.47267" lon="6.41441">
        <ele>1365</ele>
        <time>2022-08-07T16:09:19Z</time>
      </trkpt>
      <trkpt lat="45.47268" lon="6.41443">
        <ele>1366</ele>
        <time>2022-08-07T16:15:26Z</time>
      </trkpt>
      <trkpt lat="45.4727" lon="6.41435">
        <ele>1366</ele>
        <time>2022-08-07T16:15:31Z</time>
      </trkpt>
      <trkpt lat="45.47271" lon="6.41433">
        <ele>1366</ele>
        <time>2022-08-07T16:16:15Z</time>
      </trkpt>
      <trkpt lat="45.47269" lon="6.41432">
        <ele>1368</ele>
        <time>2022-08-07T16:18:22Z</time>
      </trkpt>
      <trkpt lat="45.47271" lon="6.41432">
        <ele>1368</ele>
        <time>2022-08-07T16:18:59Z</time>
      </trkpt>
      <trkpt lat="45.47271" lon="6.41434">
        <ele>1366</ele>
        <time>2022-08-07T16:24:35Z</time>
      </trkpt>
      <trkpt lat="45.47266" lon="6.41441">
        <ele>1367</ele>
        <time>2022-08-07T16:25:49Z</time>
      </trkpt>
      <trkpt lat="45.47266" lon="6.4144">
        <ele>1366</ele>
        <time>2022-08-07T16:28:31Z</time>
      </trkpt>
      <trkpt lat="45.47271" lon="6.41437">
        <ele>1366</ele>
        <time>2022-08-07T16:28:46Z</time>
      </trkpt>
      <trkpt lat="45.47276" lon="6.41438">
        <ele>1367</ele>
        <time>2022-08-07T16:29:17Z</time>
      </trkpt>
      <trkpt lat="45.47272" lon="6.41444">
        <ele>1366</ele>
        <time>2022-08-07T16:31:37Z</time>
      </trkpt>
      <trkpt lat="45.47269" lon="6.41441">
        <ele>1365</ele>
        <time>2022-08-07T16:33:06Z</time>
      </trkpt>
      <trkpt lat="45.47266" lon="6.4144">
        <ele>1366</ele>
        <time>2022-08-07T16:38:37Z</time>
      </trkpt>
      <trkpt lat="45.47271" lon="6.4145">
        <ele>1367</ele>
        <time>2022-08-07T17:40:56Z</time>
      </trkpt>
      <trkpt lat="45.47269" lon="6.41445">
        <ele>1366</ele>
        <time>2022-08-07T19:14:33Z</time>
      </trkpt>
      <trkpt lat="45.47271" lon="6.41459">
        <ele>1366</ele>
        <time>2022-08-07T20:05:37Z</time>
      </trkpt>
      <trkpt lat="45.47276" lon="6.41433">
        <ele>1366</ele>
        <time>2022-08-07T20:06:19Z</time>
      </trkpt>
      <trkpt lat="45.47271" lon="6.41439">
        <ele>1366</ele>
        <time>2022-08-07T20:06:22Z</time>
      </trkpt>
      <trkpt lat="45.4726" lon="6.41441">
        <ele>1365</ele>
        <time>2022-08-07T20:06:34Z</time>
      </trkpt>
      <trkpt lat="45.47252" lon="6.41439">
        <ele>1364</ele>
        <time>2022-08-07T20:06:41Z</time>
      </trkpt>
      <trkpt lat="45.47242" lon="6.41427">
        <ele>1365</ele>
        <time>2022-08-07T20:06:53Z</time>
      </trkpt>
      <trkpt lat="45.47236" lon="6.41417">
        <ele>1366</ele>
        <time>2022-08-07T20:07:03Z</time>
      </trkpt>
      <trkpt lat="45.4723" lon="6.41411">
        <ele>1366</ele>
        <time>2022-08-07T20:07:11Z</time>
      </trkpt>
      <trkpt lat="45.47225" lon="6.41408">
        <ele>1367</ele>
        <time>2022-08-07T20:07:16Z</time>
      </trkpt>
      <trkpt lat="45.47221" lon="6.41403">
        <ele>1367</ele>
        <time>2022-08-07T20:07:21Z</time>
      </trkpt>
      <trkpt lat="45.47219" lon="6.41396">
        <ele>1368</ele>
        <time>2022-08-07T20:07:25Z</time>
      </trkpt>
      <trkpt lat="45.47212" lon="6.41388">
        <ele>1368</ele>
        <time>2022-08-07T20:07:33Z</time>
      </trkpt>
      <trkpt lat="45.47208" lon="6.41386">
        <ele>1369</ele>
        <time>2022-08-07T20:07:37Z</time>
      </trkpt>
      <trkpt lat="45.47204" lon="6.41381">
        <ele>1369</ele>
        <time>2022-08-07T20:07:41Z</time>
      </trkpt>
      <trkpt lat="45.472" lon="6.41378">
        <ele>1369</ele>
        <time>2022-08-07T20:07:45Z</time>
      </trkpt>
      <trkpt lat="45.47196" lon="6.41372">
        <ele>1369</ele>
        <time>2022-08-07T20:07:49Z</time>
      </trkpt>
      <trkpt lat="45.47191" lon="6.41373">
        <ele>1369</ele>
        <time>2022-08-07T20:07:53Z</time>
      </trkpt>
      <trkpt lat="45.47175" lon="6.41385">
        <ele>1367</ele>
        <time>2022-08-07T20:12:22Z</time>
      </trkpt>
      <trkpt lat="45.47226" lon="6.41411">
        <ele>1365.8</ele>
        <time>2022-08-08T07:01:04Z</time>
      </trkpt>
      <trkpt lat="45.47272" lon="6.41454">
        <ele>1366</ele>
        <time>2022-08-08T07:09:42Z</time>
      </trkpt>
    </trkseg>
  </trk>
  <trk>
    <name><![CDATA[6 août 2022 à 09:18:51]]></name>
    <cmt><![CDATA[6 août 2022 à 09:18:51]]></cmt>
    <trkseg>
      <trkpt lat="45.47217" lon="6.41405">
        <ele>1381</ele>
        <time>2022-08-06T07:18:52Z</time>
      </trkpt>
      <trkpt lat="45.47227" lon="6.41414">
        <ele>1380</ele>
        <time>2022-08-06T07:19:00Z</time>
      </trkpt>
      <trkpt lat="45.47245" lon="6.41435">
        <ele>1379</ele>
        <time>2022-08-06T07:19:18Z</time>
      </trkpt>
      <trkpt lat="45.4725" lon="6.41435">
        <ele>1378</ele>
        <time>2022-08-06T07:19:21Z</time>
      </trkpt>
      <trkpt lat="45.47264" lon="6.41442">
        <ele>1377</ele>
        <time>2022-08-06T07:19:34Z</time>
      </trkpt>
      <trkpt lat="45.47272" lon="6.41436">
        <ele>1378</ele>
        <time>2022-08-06T07:19:56Z</time>
      </trkpt>
      <trkpt lat="45.47279" lon="6.4144">
        <ele>1378</ele>
        <time>2022-08-06T07:21:07Z</time>
      </trkpt>
      <trkpt lat="45.47264" lon="6.41429">
        <ele>1377</ele>
        <time>2022-08-06T07:22:42Z</time>
      </trkpt>
      <trkpt lat="45.47265" lon="6.41432">
        <ele>1376</ele>
        <time>2022-08-06T07:23:26Z</time>
      </trkpt>
      <trkpt lat="45.47269" lon="6.41437">
        <ele>1376</ele>
        <time>2022-08-06T07:23:28Z</time>
      </trkpt>
      <trkpt lat="45.47265" lon="6.41439">
        <ele>1373</ele>
        <time>2022-08-06T07:27:45Z</time>
      </trkpt>
      <trkpt lat="45.47265" lon="6.41446">
        <ele>1372</ele>
        <time>2022-08-06T07:27:50Z</time>
      </trkpt>
      <trkpt lat="45.47279" lon="6.41461">
        <ele>1370</ele>
        <time>2022-08-06T07:28:09Z</time>
      </trkpt>
      <trkpt lat="45.47302" lon="6.41476">
        <ele>1367</ele>
        <time>2022-08-06T07:28:31Z</time>
      </trkpt>
      <trkpt lat="45.47311" lon="6.41484">
        <ele>1366</ele>
        <time>2022-08-06T07:28:41Z</time>
      </trkpt>
      <trkpt lat="45.4732" lon="6.41489">
        <ele>1365</ele>
        <time>2022-08-06T07:28:51Z</time>
      </trkpt>
      <trkpt lat="45.47325" lon="6.41488">
        <ele>1364</ele>
        <time>2022-08-06T07:29:04Z</time>
      </trkpt>
      <trkpt lat="45.4733" lon="6.41486">
        <ele>1364</ele>
        <time>2022-08-06T07:29:10Z</time>
      </trkpt>
      <trkpt lat="45.47335" lon="6.41483">
        <ele>1364</ele>
        <time>2022-08-06T07:29:28Z</time>
      </trkpt>
      <trkpt lat="45.47339" lon="6.4148">
        <ele>1364</ele>
        <time>2022-08-06T07:29:32Z</time>
      </trkpt>
      <trkpt lat="45.47343" lon="6.4148">
        <ele>1364</ele>
        <time>2022-08-06T07:29:36Z</time>
      </trkpt>
      <trkpt lat="45.47347" lon="6.41482">
        <ele>1364</ele>
        <time>2022-08-06T07:29:40Z</time>
      </trkpt>
      <trkpt lat="45.4735" lon="6.41486">
        <ele>1365</ele>
        <time>2022-08-06T07:29:44Z</time>
      </trkpt>
      <trkpt lat="45.4737" lon="6.41527">
        <ele>1366</ele>
        <time>2022-08-06T07:30:18Z</time>
      </trkpt>
      <trkpt lat="45.47385" lon="6.41547">
        <ele>1367</ele>
        <time>2022-08-06T07:30:39Z</time>
      </trkpt>
      <trkpt lat="45.47387" lon="6.41553">
        <ele>1367</ele>
        <time>2022-08-06T07:30:43Z</time>
      </trkpt>
      <trkpt lat="45.47415" lon="6.41588">
        <ele>1370</ele>
        <time>2022-08-06T07:31:16Z</time>
      </trkpt>
      <trkpt lat="45.47424" lon="6.41602">
        <ele>1371</ele>
        <time>2022-08-06T07:31:28Z</time>
      </trkpt>
      <trkpt lat="45.4743" lon="6.41607">
        <ele>1371</ele>
        <time>2022-08-06T07:31:35Z</time>
      </trkpt>
      <trkpt lat="45.47444" lon="6.41623">
        <ele>1372</ele>
        <time>2022-08-06T07:31:51Z</time>
      </trkpt>
      <trkpt lat="45.47449" lon="6.41626">
        <ele>1373</ele>
        <time>2022-08-06T07:31:55Z</time>
      </trkpt>
      <trkpt lat="45.47452" lon="6.41631">
        <ele>1373</ele>
        <time>2022-08-06T07:31:59Z</time>
      </trkpt>
      <trkpt lat="45.47475" lon="6.41636">
        <ele>1374</ele>
        <time>2022-08-06T07:32:19Z</time>
      </trkpt>
      <trkpt lat="45.47492" lon="6.41629">
        <ele>1376</ele>
        <time>2022-08-06T07:32:36Z</time>
      </trkpt>
      <trkpt lat="45.47499" lon="6.4162">
        <ele>1376</ele>
        <time>2022-08-06T07:32:44Z</time>
      </trkpt>
      <trkpt lat="45.47504" lon="6.41609">
        <ele>1377</ele>
        <time>2022-08-06T07:32:51Z</time>
      </trkpt>
      <trkpt lat="45.47515" lon="6.41563">
        <ele>1379</ele>
        <time>2022-08-06T07:33:19Z</time>
      </trkpt>
      <trkpt lat="45.4752" lon="6.41512">
        <ele>1381</ele>
        <time>2022-08-06T07:33:52Z</time>
      </trkpt>
      <trkpt lat="45.47523" lon="6.41507">
        <ele>1381</ele>
        <time>2022-08-06T07:33:59Z</time>
      </trkpt>
      <trkpt lat="45.47525" lon="6.41481">
        <ele>1382</ele>
        <time>2022-08-06T07:34:15Z</time>
      </trkpt>
      <trkpt lat="45.47532" lon="6.4144">
        <ele>1384</ele>
        <time>2022-08-06T07:34:40Z</time>
      </trkpt>
      <trkpt lat="45.47535" lon="6.41435">
        <ele>1384</ele>
        <time>2022-08-06T07:34:44Z</time>
      </trkpt>
      <trkpt lat="45.4754" lon="6.41416">
        <ele>1385</ele>
        <time>2022-08-06T07:34:56Z</time>
      </trkpt>
      <trkpt lat="45.47547" lon="6.414">
        <ele>1386</ele>
        <time>2022-08-06T07:35:08Z</time>
      </trkpt>
      <trkpt lat="45.47558" lon="6.41386">
        <ele>1387</ele>
        <time>2022-08-06T07:35:21Z</time>
      </trkpt>
      <trkpt lat="45.4758" lon="6.41362">
        <ele>1389</ele>
        <time>2022-08-06T07:35:45Z</time>
      </trkpt>
      <trkpt lat="45.47587" lon="6.41337">
        <ele>1390</ele>
        <time>2022-08-06T07:36:01Z</time>
      </trkpt>
      <trkpt lat="45.47588" lon="6.41332">
        <ele>1390</ele>
        <time>2022-08-06T07:36:09Z</time>
      </trkpt>
      <trkpt lat="45.47583" lon="6.41328">
        <ele>1392</ele>
        <time>2022-08-06T07:36:19Z</time>
      </trkpt>
      <trkpt lat="45.47576" lon="6.41318">
        <ele>1397</ele>
        <time>2022-08-06T07:36:44Z</time>
      </trkpt>
      <trkpt lat="45.47571" lon="6.41315">
        <ele>1399</ele>
        <time>2022-08-06T07:36:59Z</time>
      </trkpt>
      <trkpt lat="45.47571" lon="6.41308">
        <ele>1400</ele>
        <time>2022-08-06T07:37:10Z</time>
      </trkpt>
      <trkpt lat="45.47574" lon="6.41304">
        <ele>1401</ele>
        <time>2022-08-06T07:37:15Z</time>
      </trkpt>
      <trkpt lat="45.47579" lon="6.41292">
        <ele>1402</ele>
        <time>2022-08-06T07:37:27Z</time>
      </trkpt>
      <trkpt lat="45.47586" lon="6.41266">
        <ele>1404</ele>
        <time>2022-08-06T07:37:50Z</time>
      </trkpt>
      <trkpt lat="45.47601" lon="6.41233">
        <ele>1407</ele>
        <time>2022-08-06T07:38:22Z</time>
      </trkpt>
      <trkpt lat="45.47621" lon="6.412">
        <ele>1410</ele>
        <time>2022-08-06T07:38:54Z</time>
      </trkpt>
      <trkpt lat="45.47642" lon="6.41175">
        <ele>1413</ele>
        <time>2022-08-06T07:39:25Z</time>
      </trkpt>
      <trkpt lat="45.47648" lon="6.4116">
        <ele>1414</ele>
        <time>2022-08-06T07:39:37Z</time>
      </trkpt>
      <trkpt lat="45.4765" lon="6.41154">
        <ele>1414</ele>
        <time>2022-08-06T07:39:44Z</time>
      </trkpt>
      <trkpt lat="45.47656" lon="6.41134">
        <ele>1419</ele>
        <time>2022-08-06T07:40:17Z</time>
      </trkpt>
      <trkpt lat="45.47657" lon="6.41127">
        <ele>1421</ele>
        <time>2022-08-06T07:40:27Z</time>
      </trkpt>
      <trkpt lat="45.4766" lon="6.41121">
        <ele>1422</ele>
        <time>2022-08-06T07:40:37Z</time>
      </trkpt>
      <trkpt lat="45.47656" lon="6.41115">
        <ele>1423</ele>
        <time>2022-08-06T07:40:47Z</time>
      </trkpt>
      <trkpt lat="45.47659" lon="6.41111">
        <ele>1425</ele>
        <time>2022-08-06T07:40:57Z</time>
      </trkpt>
      <trkpt lat="45.47661" lon="6.41105">
        <ele>1426</ele>
        <time>2022-08-06T07:41:07Z</time>
      </trkpt>
      <trkpt lat="45.47661" lon="6.41096">
        <ele>1428</ele>
        <time>2022-08-06T07:41:22Z</time>
      </trkpt>
      <trkpt lat="45.47664" lon="6.4109">
        <ele>1430</ele>
        <time>2022-08-06T07:41:32Z</time>
      </trkpt>
      <trkpt lat="45.47671" lon="6.41077">
        <ele>1432</ele>
        <time>2022-08-06T07:41:52Z</time>
      </trkpt>
      <trkpt lat="45.47673" lon="6.41068">
        <ele>1434</ele>
        <time>2022-08-06T07:42:03Z</time>
      </trkpt>
      <trkpt lat="45.47669" lon="6.41062">
        <ele>1436</ele>
        <time>2022-08-06T07:42:15Z</time>
      </trkpt>
      <trkpt lat="45.47669" lon="6.41055">
        <ele>1438</ele>
        <time>2022-08-06T07:42:30Z</time>
      </trkpt>
      <trkpt lat="45.47674" lon="6.4105">
        <ele>1439</ele>
        <time>2022-08-06T07:42:40Z</time>
      </trkpt>
      <trkpt lat="45.47677" lon="6.41044">
        <ele>1440</ele>
        <time>2022-08-06T07:42:50Z</time>
      </trkpt>
      <trkpt lat="45.47678" lon="6.41038">
        <ele>1441</ele>
        <time>2022-08-06T07:43:00Z</time>
      </trkpt>
      <trkpt lat="45.4768" lon="6.41032">
        <ele>1444</ele>
        <time>2022-08-06T07:43:15Z</time>
      </trkpt>
      <trkpt lat="45.47684" lon="6.41026">
        <ele>1445</ele>
        <time>2022-08-06T07:43:25Z</time>
      </trkpt>
      <trkpt lat="45.47682" lon="6.41019">
        <ele>1447</ele>
        <time>2022-08-06T07:43:35Z</time>
      </trkpt>
      <trkpt lat="45.47677" lon="6.41013">
        <ele>1448</ele>
        <time>2022-08-06T07:43:45Z</time>
      </trkpt>
      <trkpt lat="45.4768" lon="6.41007">
        <ele>1450</ele>
        <time>2022-08-06T07:44:00Z</time>
      </trkpt>
      <trkpt lat="45.47685" lon="6.41003">
        <ele>1452</ele>
        <time>2022-08-06T07:44:12Z</time>
      </trkpt>
      <trkpt lat="45.47687" lon="6.40996">
        <ele>1453</ele>
        <time>2022-08-06T07:44:23Z</time>
      </trkpt>
      <trkpt lat="45.47676" lon="6.40983">
        <ele>1457</ele>
        <time>2022-08-06T07:44:53Z</time>
      </trkpt>
      <trkpt lat="45.4768" lon="6.4098">
        <ele>1459</ele>
        <time>2022-08-06T07:45:08Z</time>
      </trkpt>
      <trkpt lat="45.47685" lon="6.40975">
        <ele>1460</ele>
        <time>2022-08-06T07:45:18Z</time>
      </trkpt>
      <trkpt lat="45.47692" lon="6.40966">
        <ele>1463</ele>
        <time>2022-08-06T07:45:38Z</time>
      </trkpt>
      <trkpt lat="45.47693" lon="6.40959">
        <ele>1464</ele>
        <time>2022-08-06T07:45:48Z</time>
      </trkpt>
      <trkpt lat="45.4769" lon="6.40955">
        <ele>1465</ele>
        <time>2022-08-06T07:45:54Z</time>
      </trkpt>
      <trkpt lat="45.47691" lon="6.40948">
        <ele>1468</ele>
        <time>2022-08-06T07:46:09Z</time>
      </trkpt>
      <trkpt lat="45.47687" lon="6.40942">
        <ele>1470</ele>
        <time>2022-08-06T07:46:21Z</time>
      </trkpt>
      <trkpt lat="45.47681" lon="6.40939">
        <ele>1471</ele>
        <time>2022-08-06T07:46:32Z</time>
      </trkpt>
      <trkpt lat="45.47682" lon="6.40932">
        <ele>1473</ele>
        <time>2022-08-06T07:46:42Z</time>
      </trkpt>
      <trkpt lat="45.47687" lon="6.40931">
        <ele>1473</ele>
        <time>2022-08-06T07:46:47Z</time>
      </trkpt>
      <trkpt lat="45.47698" lon="6.40924">
        <ele>1475</ele>
        <time>2022-08-06T07:47:00Z</time>
      </trkpt>
      <trkpt lat="45.47703" lon="6.40917">
        <ele>1476</ele>
        <time>2022-08-06T07:47:07Z</time>
      </trkpt>
      <trkpt lat="45.47727" lon="6.4089">
        <ele>1480</ele>
        <time>2022-08-06T07:47:41Z</time>
      </trkpt>
      <trkpt lat="45.47733" lon="6.40883">
        <ele>1480</ele>
        <time>2022-08-06T07:47:49Z</time>
      </trkpt>
      <trkpt lat="45.4775" lon="6.40857">
        <ele>1483</ele>
        <time>2022-08-06T07:48:14Z</time>
      </trkpt>
      <trkpt lat="45.47754" lon="6.40853">
        <ele>1484</ele>
        <time>2022-08-06T07:48:19Z</time>
      </trkpt>
      <trkpt lat="45.47766" lon="6.40844">
        <ele>1486</ele>
        <time>2022-08-06T07:48:33Z</time>
      </trkpt>
      <trkpt lat="45.4779" lon="6.40846">
        <ele>1487</ele>
        <time>2022-08-06T07:48:56Z</time>
      </trkpt>
      <trkpt lat="45.47795" lon="6.40848">
        <ele>1488</ele>
        <time>2022-08-06T07:49:01Z</time>
      </trkpt>
      <trkpt lat="45.47804" lon="6.40849">
        <ele>1488</ele>
        <time>2022-08-06T07:49:10Z</time>
      </trkpt>
      <trkpt lat="45.47817" lon="6.40845">
        <ele>1489</ele>
        <time>2022-08-06T07:49:23Z</time>
      </trkpt>
      <trkpt lat="45.47825" lon="6.40851">
        <ele>1490</ele>
        <time>2022-08-06T07:49:32Z</time>
      </trkpt>
      <trkpt lat="45.47828" lon="6.40856">
        <ele>1490</ele>
        <time>2022-08-06T07:49:37Z</time>
      </trkpt>
      <trkpt lat="45.47831" lon="6.40872">
        <ele>1491</ele>
        <time>2022-08-06T07:49:49Z</time>
      </trkpt>
      <trkpt lat="45.47824" lon="6.40899">
        <ele>1493</ele>
        <time>2022-08-06T07:50:13Z</time>
      </trkpt>
      <trkpt lat="45.47823" lon="6.40905">
        <ele>1494</ele>
        <time>2022-08-06T07:50:18Z</time>
      </trkpt>
      <trkpt lat="45.47821" lon="6.40918">
        <ele>1494</ele>
        <time>2022-08-06T07:50:27Z</time>
      </trkpt>
      <trkpt lat="45.47821" lon="6.40925">
        <ele>1495</ele>
        <time>2022-08-06T07:50:31Z</time>
      </trkpt>
      <trkpt lat="45.47819" lon="6.40932">
        <ele>1495</ele>
        <time>2022-08-06T07:50:35Z</time>
      </trkpt>
      <trkpt lat="45.47819" lon="6.40961">
        <ele>1498</ele>
        <time>2022-08-06T07:50:57Z</time>
      </trkpt>
      <trkpt lat="45.4782" lon="6.40967">
        <ele>1498</ele>
        <time>2022-08-06T07:51:02Z</time>
      </trkpt>
      <trkpt lat="45.47826" lon="6.40965">
        <ele>1499</ele>
        <time>2022-08-06T07:51:11Z</time>
      </trkpt>
      <trkpt lat="45.47828" lon="6.40957">
        <ele>1501</ele>
        <time>2022-08-06T07:51:21Z</time>
      </trkpt>
      <trkpt lat="45.47832" lon="6.40953">
        <ele>1503</ele>
        <time>2022-08-06T07:51:31Z</time>
      </trkpt>
      <trkpt lat="45.47836" lon="6.40947">
        <ele>1504</ele>
        <time>2022-08-06T07:51:42Z</time>
      </trkpt>
      <trkpt lat="45.47841" lon="6.40939">
        <ele>1506</ele>
        <time>2022-08-06T07:51:57Z</time>
      </trkpt>
      <trkpt lat="45.47844" lon="6.40933">
        <ele>1507</ele>
        <time>2022-08-06T07:52:08Z</time>
      </trkpt>
      <trkpt lat="45.47856" lon="6.40915">
        <ele>1512</ele>
        <time>2022-08-06T07:52:39Z</time>
      </trkpt>
      <trkpt lat="45.47856" lon="6.40909">
        <ele>1513</ele>
        <time>2022-08-06T07:52:45Z</time>
      </trkpt>
      <trkpt lat="45.47861" lon="6.40905">
        <ele>1514</ele>
        <time>2022-08-06T07:52:55Z</time>
      </trkpt>
      <trkpt lat="45.47864" lon="6.40899">
        <ele>1515</ele>
        <time>2022-08-06T07:53:05Z</time>
      </trkpt>
      <trkpt lat="45.4787" lon="6.40896">
        <ele>1517</ele>
        <time>2022-08-06T07:53:16Z</time>
      </trkpt>
      <trkpt lat="45.47876" lon="6.40886">
        <ele>1518</ele>
        <time>2022-08-06T07:53:26Z</time>
      </trkpt>
      <trkpt lat="45.47879" lon="6.40878">
        <ele>1519</ele>
        <time>2022-08-06T07:53:38Z</time>
      </trkpt>
      <trkpt lat="45.47895" lon="6.40864">
        <ele>1527</ele>
        <time>2022-08-06T07:54:19Z</time>
      </trkpt>
      <trkpt lat="45.47898" lon="6.40859">
        <ele>1527</ele>
        <time>2022-08-06T07:54:24Z</time>
      </trkpt>
      <trkpt lat="45.47901" lon="6.40852">
        <ele>1528</ele>
        <time>2022-08-06T07:54:31Z</time>
      </trkpt>
      <trkpt lat="45.4791" lon="6.40844">
        <ele>1532</ele>
        <time>2022-08-06T07:54:59Z</time>
      </trkpt>
      <trkpt lat="45.47913" lon="6.40838">
        <ele>1533</ele>
        <time>2022-08-06T07:55:06Z</time>
      </trkpt>
      <trkpt lat="45.47916" lon="6.40833">
        <ele>1534</ele>
        <time>2022-08-06T07:55:12Z</time>
      </trkpt>
      <trkpt lat="45.47921" lon="6.4083">
        <ele>1534</ele>
        <time>2022-08-06T07:55:17Z</time>
      </trkpt>
      <trkpt lat="45.47925" lon="6.40819">
        <ele>1535</ele>
        <time>2022-08-06T07:55:29Z</time>
      </trkpt>
      <trkpt lat="45.47926" lon="6.40813">
        <ele>1537</ele>
        <time>2022-08-06T07:55:39Z</time>
      </trkpt>
      <trkpt lat="45.4793" lon="6.40808">
        <ele>1538</ele>
        <time>2022-08-06T07:55:49Z</time>
      </trkpt>
      <trkpt lat="45.47935" lon="6.40803">
        <ele>1540</ele>
        <time>2022-08-06T07:55:59Z</time>
      </trkpt>
      <trkpt lat="45.47938" lon="6.40799">
        <ele>1541</ele>
        <time>2022-08-06T07:56:09Z</time>
      </trkpt>
      <trkpt lat="45.47941" lon="6.40804">
        <ele>1543</ele>
        <time>2022-08-06T07:56:19Z</time>
      </trkpt>
      <trkpt lat="45.47945" lon="6.40799">
        <ele>1544</ele>
        <time>2022-08-06T07:56:29Z</time>
      </trkpt>
      <trkpt lat="45.47949" lon="6.40792">
        <ele>1545</ele>
        <time>2022-08-06T07:56:40Z</time>
      </trkpt>
      <trkpt lat="45.47951" lon="6.40783">
        <ele>1547</ele>
        <time>2022-08-06T07:56:57Z</time>
      </trkpt>
      <trkpt lat="45.47961" lon="6.40772">
        <ele>1550</ele>
        <time>2022-08-06T07:57:22Z</time>
      </trkpt>
      <trkpt lat="45.47965" lon="6.40767">
        <ele>1552</ele>
        <time>2022-08-06T07:57:32Z</time>
      </trkpt>
      <trkpt lat="45.4797" lon="6.40764">
        <ele>1553</ele>
        <time>2022-08-06T07:57:42Z</time>
      </trkpt>
      <trkpt lat="45.47977" lon="6.40753">
        <ele>1556</ele>
        <time>2022-08-06T07:58:02Z</time>
      </trkpt>
      <trkpt lat="45.47982" lon="6.40747">
        <ele>1557</ele>
        <time>2022-08-06T07:58:12Z</time>
      </trkpt>
      <trkpt lat="45.47984" lon="6.40739">
        <ele>1558</ele>
        <time>2022-08-06T07:58:23Z</time>
      </trkpt>
      <trkpt lat="45.47993" lon="6.40734">
        <ele>1561</ele>
        <time>2022-08-06T07:58:43Z</time>
      </trkpt>
      <trkpt lat="45.47999" lon="6.40732">
        <ele>1563</ele>
        <time>2022-08-06T07:58:55Z</time>
      </trkpt>
      <trkpt lat="45.48006" lon="6.40722">
        <ele>1566</ele>
        <time>2022-08-06T07:59:17Z</time>
      </trkpt>
      <trkpt lat="45.48012" lon="6.40712">
        <ele>1569</ele>
        <time>2022-08-06T07:59:37Z</time>
      </trkpt>
      <trkpt lat="45.48018" lon="6.40708">
        <ele>1571</ele>
        <time>2022-08-06T07:59:53Z</time>
      </trkpt>
      <trkpt lat="45.48023" lon="6.40708">
        <ele>1572</ele>
        <time>2022-08-06T08:00:03Z</time>
      </trkpt>
      <trkpt lat="45.4803" lon="6.40701">
        <ele>1574</ele>
        <time>2022-08-06T08:00:15Z</time>
      </trkpt>
      <trkpt lat="45.48036" lon="6.407">
        <ele>1575</ele>
        <time>2022-08-06T08:00:25Z</time>
      </trkpt>
      <trkpt lat="45.48045" lon="6.40696">
        <ele>1577</ele>
        <time>2022-08-06T08:00:41Z</time>
      </trkpt>
      <trkpt lat="45.48064" lon="6.40682">
        <ele>1580</ele>
        <time>2022-08-06T08:01:12Z</time>
      </trkpt>
      <trkpt lat="45.48083" lon="6.40675">
        <ele>1584</ele>
        <time>2022-08-06T08:01:47Z</time>
      </trkpt>
      <trkpt lat="45.48093" lon="6.40671">
        <ele>1587</ele>
        <time>2022-08-06T08:02:07Z</time>
      </trkpt>
      <trkpt lat="45.48098" lon="6.40673">
        <ele>1588</ele>
        <time>2022-08-06T08:02:13Z</time>
      </trkpt>
      <trkpt lat="45.48102" lon="6.4067">
        <ele>1588</ele>
        <time>2022-08-06T08:02:20Z</time>
      </trkpt>
      <trkpt lat="45.48113" lon="6.40674">
        <ele>1592</ele>
        <time>2022-08-06T08:02:45Z</time>
      </trkpt>
      <trkpt lat="45.4812" lon="6.40672">
        <ele>1593</ele>
        <time>2022-08-06T08:02:55Z</time>
      </trkpt>
      <trkpt lat="45.48132" lon="6.40672">
        <ele>1596</ele>
        <time>2022-08-06T08:03:19Z</time>
      </trkpt>
      <trkpt lat="45.48138" lon="6.4067">
        <ele>1597</ele>
        <time>2022-08-06T08:03:29Z</time>
      </trkpt>
      <trkpt lat="45.48153" lon="6.40672">
        <ele>1601</ele>
        <time>2022-08-06T08:03:59Z</time>
      </trkpt>
      <trkpt lat="45.48157" lon="6.40674">
        <ele>1603</ele>
        <time>2022-08-06T08:04:09Z</time>
      </trkpt>
      <trkpt lat="45.48162" lon="6.40675">
        <ele>1604</ele>
        <time>2022-08-06T08:04:19Z</time>
      </trkpt>
      <trkpt lat="45.48167" lon="6.40673">
        <ele>1605</ele>
        <time>2022-08-06T08:04:29Z</time>
      </trkpt>
      <trkpt lat="45.48173" lon="6.40676">
        <ele>1607</ele>
        <time>2022-08-06T08:04:44Z</time>
      </trkpt>
      <trkpt lat="45.48183" lon="6.40675">
        <ele>1611</ele>
        <time>2022-08-06T08:05:06Z</time>
      </trkpt>
      <trkpt lat="45.48189" lon="6.40672">
        <ele>1610</ele>
        <time>2022-08-06T08:05:17Z</time>
      </trkpt>
      <trkpt lat="45.48193" lon="6.40674">
        <ele>1612</ele>
        <time>2022-08-06T08:06:13Z</time>
      </trkpt>
      <trkpt lat="45.482" lon="6.40674">
        <ele>1614</ele>
        <time>2022-08-06T08:06:28Z</time>
      </trkpt>
      <trkpt lat="45.48204" lon="6.40673">
        <ele>1616</ele>
        <time>2022-08-06T08:07:08Z</time>
      </trkpt>
      <trkpt lat="45.48215" lon="6.40674">
        <ele>1620</ele>
        <time>2022-08-06T08:07:40Z</time>
      </trkpt>
      <trkpt lat="45.48219" lon="6.40672">
        <ele>1621</ele>
        <time>2022-08-06T08:07:50Z</time>
      </trkpt>
      <trkpt lat="45.48224" lon="6.40671">
        <ele>1622</ele>
        <time>2022-08-06T08:08:35Z</time>
      </trkpt>
      <trkpt lat="45.48229" lon="6.40671">
        <ele>1623</ele>
        <time>2022-08-06T08:09:01Z</time>
      </trkpt>
      <trkpt lat="45.48234" lon="6.40669">
        <ele>1624</ele>
        <time>2022-08-06T08:09:17Z</time>
      </trkpt>
      <trkpt lat="45.48239" lon="6.40668">
        <ele>1625</ele>
        <time>2022-08-06T08:09:29Z</time>
      </trkpt>
      <trkpt lat="45.48252" lon="6.40661">
        <ele>1628</ele>
        <time>2022-08-06T08:10:00Z</time>
      </trkpt>
      <trkpt lat="45.48256" lon="6.40657">
        <ele>1630</ele>
        <time>2022-08-06T08:10:10Z</time>
      </trkpt>
      <trkpt lat="45.48267" lon="6.40649">
        <ele>1634</ele>
        <time>2022-08-06T08:10:40Z</time>
      </trkpt>
      <trkpt lat="45.48278" lon="6.40644">
        <ele>1638</ele>
        <time>2022-08-06T08:11:10Z</time>
      </trkpt>
      <trkpt lat="45.48293" lon="6.40637">
        <ele>1643</ele>
        <time>2022-08-06T08:11:42Z</time>
      </trkpt>
      <trkpt lat="45.48298" lon="6.40632">
        <ele>1644</ele>
        <time>2022-08-06T08:11:57Z</time>
      </trkpt>
      <trkpt lat="45.48303" lon="6.4063">
        <ele>1646</ele>
        <time>2022-08-06T08:12:07Z</time>
      </trkpt>
      <trkpt lat="45.48307" lon="6.40628">
        <ele>1647</ele>
        <time>2022-08-06T08:12:17Z</time>
      </trkpt>
      <trkpt lat="45.48316" lon="6.40624">
        <ele>1649</ele>
        <time>2022-08-06T08:12:42Z</time>
      </trkpt>
      <trkpt lat="45.48321" lon="6.40622">
        <ele>1650</ele>
        <time>2022-08-06T08:12:52Z</time>
      </trkpt>
      <trkpt lat="45.48325" lon="6.4062">
        <ele>1651</ele>
        <time>2022-08-06T08:13:02Z</time>
      </trkpt>
      <trkpt lat="45.48331" lon="6.40616">
        <ele>1653</ele>
        <time>2022-08-06T08:13:12Z</time>
      </trkpt>
      <trkpt lat="45.48341" lon="6.4061">
        <ele>1656</ele>
        <time>2022-08-06T08:13:39Z</time>
      </trkpt>
      <trkpt lat="45.48346" lon="6.40607">
        <ele>1658</ele>
        <time>2022-08-06T08:13:50Z</time>
      </trkpt>
      <trkpt lat="45.48351" lon="6.40605">
        <ele>1659</ele>
        <time>2022-08-06T08:14:00Z</time>
      </trkpt>
      <trkpt lat="45.48357" lon="6.40605">
        <ele>1661</ele>
        <time>2022-08-06T08:14:11Z</time>
      </trkpt>
      <trkpt lat="45.48362" lon="6.40602">
        <ele>1662</ele>
        <time>2022-08-06T08:14:21Z</time>
      </trkpt>
      <trkpt lat="45.48371" lon="6.40599">
        <ele>1665</ele>
        <time>2022-08-06T08:14:41Z</time>
      </trkpt>
      <trkpt lat="45.48377" lon="6.40595">
        <ele>1666</ele>
        <time>2022-08-06T08:14:51Z</time>
      </trkpt>
      <trkpt lat="45.48389" lon="6.40591">
        <ele>1671</ele>
        <time>2022-08-06T08:15:21Z</time>
      </trkpt>
      <trkpt lat="45.48394" lon="6.40589">
        <ele>1672</ele>
        <time>2022-08-06T08:15:31Z</time>
      </trkpt>
      <trkpt lat="45.48408" lon="6.40581">
        <ele>1678</ele>
        <time>2022-08-06T08:16:09Z</time>
      </trkpt>
      <trkpt lat="45.48413" lon="6.40578">
        <ele>1679</ele>
        <time>2022-08-06T08:16:19Z</time>
      </trkpt>
      <trkpt lat="45.48418" lon="6.40575">
        <ele>1681</ele>
        <time>2022-08-06T08:16:34Z</time>
      </trkpt>
      <trkpt lat="45.48422" lon="6.4057">
        <ele>1683</ele>
        <time>2022-08-06T08:16:49Z</time>
      </trkpt>
      <trkpt lat="45.48427" lon="6.40568">
        <ele>1684</ele>
        <time>2022-08-06T08:17:24Z</time>
      </trkpt>
      <trkpt lat="45.48438" lon="6.40563">
        <ele>1689</ele>
        <time>2022-08-06T08:17:57Z</time>
      </trkpt>
      <trkpt lat="45.48442" lon="6.40558">
        <ele>1690</ele>
        <time>2022-08-06T08:18:07Z</time>
      </trkpt>
      <trkpt lat="45.48457" lon="6.40549">
        <ele>1696</ele>
        <time>2022-08-06T08:18:47Z</time>
      </trkpt>
      <trkpt lat="45.48472" lon="6.40538">
        <ele>1700</ele>
        <time>2022-08-06T08:19:17Z</time>
      </trkpt>
      <trkpt lat="45.48483" lon="6.40526">
        <ele>1703</ele>
        <time>2022-08-06T08:19:48Z</time>
      </trkpt>
      <trkpt lat="45.48488" lon="6.40523">
        <ele>1705</ele>
        <time>2022-08-06T08:19:59Z</time>
      </trkpt>
      <trkpt lat="45.48492" lon="6.40519">
        <ele>1707</ele>
        <time>2022-08-06T08:20:30Z</time>
      </trkpt>
      <trkpt lat="45.48498" lon="6.40518">
        <ele>1708</ele>
        <time>2022-08-06T08:21:05Z</time>
      </trkpt>
      <trkpt lat="45.48502" lon="6.40514">
        <ele>1710</ele>
        <time>2022-08-06T08:21:15Z</time>
      </trkpt>
      <trkpt lat="45.48516" lon="6.405">
        <ele>1713</ele>
        <time>2022-08-06T08:21:45Z</time>
      </trkpt>
      <trkpt lat="45.48521" lon="6.40496">
        <ele>1714</ele>
        <time>2022-08-06T08:21:56Z</time>
      </trkpt>
      <trkpt lat="45.48525" lon="6.40496">
        <ele>1714</ele>
        <time>2022-08-06T08:24:12Z</time>
      </trkpt>
      <trkpt lat="45.4853" lon="6.40494">
        <ele>1715</ele>
        <time>2022-08-06T08:24:37Z</time>
      </trkpt>
      <trkpt lat="45.48535" lon="6.40494">
        <ele>1716</ele>
        <time>2022-08-06T08:24:47Z</time>
      </trkpt>
      <trkpt lat="45.4855" lon="6.40484">
        <ele>1721</ele>
        <time>2022-08-06T08:25:22Z</time>
      </trkpt>
      <trkpt lat="45.48554" lon="6.4048">
        <ele>1722</ele>
        <time>2022-08-06T08:25:32Z</time>
      </trkpt>
      <trkpt lat="45.48559" lon="6.40483">
        <ele>1724</ele>
        <time>2022-08-06T08:25:47Z</time>
      </trkpt>
      <trkpt lat="45.48562" lon="6.4049">
        <ele>1726</ele>
        <time>2022-08-06T08:26:02Z</time>
      </trkpt>
      <trkpt lat="45.48567" lon="6.40485">
        <ele>1728</ele>
        <time>2022-08-06T08:26:13Z</time>
      </trkpt>
      <trkpt lat="45.48581" lon="6.40476">
        <ele>1732</ele>
        <time>2022-08-06T08:26:49Z</time>
      </trkpt>
      <trkpt lat="45.48586" lon="6.40472">
        <ele>1734</ele>
        <time>2022-08-06T08:27:04Z</time>
      </trkpt>
      <trkpt lat="45.48593" lon="6.40472">
        <ele>1737</ele>
        <time>2022-08-06T08:27:19Z</time>
      </trkpt>
      <trkpt lat="45.48601" lon="6.40465">
        <ele>1739</ele>
        <time>2022-08-06T08:27:39Z</time>
      </trkpt>
      <trkpt lat="45.48608" lon="6.40464">
        <ele>1740</ele>
        <time>2022-08-06T08:27:54Z</time>
      </trkpt>
      <trkpt lat="45.48612" lon="6.40459">
        <ele>1741</ele>
        <time>2022-08-06T08:28:04Z</time>
      </trkpt>
      <trkpt lat="45.48617" lon="6.40455">
        <ele>1743</ele>
        <time>2022-08-06T08:28:15Z</time>
      </trkpt>
      <trkpt lat="45.48619" lon="6.40447">
        <ele>1744</ele>
        <time>2022-08-06T08:28:25Z</time>
      </trkpt>
      <trkpt lat="45.48628" lon="6.40438">
        <ele>1747</ele>
        <time>2022-08-06T08:28:50Z</time>
      </trkpt>
      <trkpt lat="45.48632" lon="6.40434">
        <ele>1748</ele>
        <time>2022-08-06T08:29:00Z</time>
      </trkpt>
      <trkpt lat="45.48636" lon="6.4043">
        <ele>1750</ele>
        <time>2022-08-06T08:29:15Z</time>
      </trkpt>
      <trkpt lat="45.4864" lon="6.40425">
        <ele>1751</ele>
        <time>2022-08-06T08:29:25Z</time>
      </trkpt>
      <trkpt lat="45.48646" lon="6.40408">
        <ele>1754</ele>
        <time>2022-08-06T08:30:00Z</time>
      </trkpt>
      <trkpt lat="45.48648" lon="6.40402">
        <ele>1755</ele>
        <time>2022-08-06T08:30:10Z</time>
      </trkpt>
      <trkpt lat="45.48648" lon="6.40395">
        <ele>1757</ele>
        <time>2022-08-06T08:30:21Z</time>
      </trkpt>
      <trkpt lat="45.48652" lon="6.40389">
        <ele>1759</ele>
        <time>2022-08-06T08:30:38Z</time>
      </trkpt>
      <trkpt lat="45.48656" lon="6.40386">
        <ele>1761</ele>
        <time>2022-08-06T08:30:53Z</time>
      </trkpt>
      <trkpt lat="45.48661" lon="6.40385">
        <ele>1763</ele>
        <time>2022-08-06T08:31:08Z</time>
      </trkpt>
      <trkpt lat="45.48665" lon="6.40388">
        <ele>1766</ele>
        <time>2022-08-06T08:32:08Z</time>
      </trkpt>
      <trkpt lat="45.4867" lon="6.40388">
        <ele>1770</ele>
        <time>2022-08-06T08:48:03Z</time>
      </trkpt>
      <trkpt lat="45.48671" lon="6.40382">
        <ele>1771</ele>
        <time>2022-08-06T08:48:53Z</time>
      </trkpt>
      <trkpt lat="45.48675" lon="6.40378">
        <ele>1772</ele>
        <time>2022-08-06T08:49:35Z</time>
      </trkpt>
      <trkpt lat="45.48676" lon="6.4037">
        <ele>1772</ele>
        <time>2022-08-06T08:50:10Z</time>
      </trkpt>
      <trkpt lat="45.48677" lon="6.40364">
        <ele>1773</ele>
        <time>2022-08-06T08:50:35Z</time>
      </trkpt>
      <trkpt lat="45.4868" lon="6.4036">
        <ele>1774</ele>
        <time>2022-08-06T08:51:10Z</time>
      </trkpt>
      <trkpt lat="45.48686" lon="6.40347">
        <ele>1776</ele>
        <time>2022-08-06T08:51:33Z</time>
      </trkpt>
      <trkpt lat="45.48687" lon="6.40341">
        <ele>1777</ele>
        <time>2022-08-06T08:51:43Z</time>
      </trkpt>
      <trkpt lat="45.48692" lon="6.40334">
        <ele>1778</ele>
        <time>2022-08-06T08:51:58Z</time>
      </trkpt>
      <trkpt lat="45.48695" lon="6.40328">
        <ele>1780</ele>
        <time>2022-08-06T08:52:13Z</time>
      </trkpt>
      <trkpt lat="45.48701" lon="6.40316">
        <ele>1782</ele>
        <time>2022-08-06T08:52:38Z</time>
      </trkpt>
      <trkpt lat="45.48705" lon="6.40312">
        <ele>1784</ele>
        <time>2022-08-06T08:52:53Z</time>
      </trkpt>
      <trkpt lat="45.48712" lon="6.40299">
        <ele>1787</ele>
        <time>2022-08-06T08:53:18Z</time>
      </trkpt>
      <trkpt lat="45.48718" lon="6.40285">
        <ele>1789</ele>
        <time>2022-08-06T08:53:41Z</time>
      </trkpt>
      <trkpt lat="45.48721" lon="6.40278">
        <ele>1790</ele>
        <time>2022-08-06T08:53:51Z</time>
      </trkpt>
      <trkpt lat="45.48724" lon="6.40271">
        <ele>1791</ele>
        <time>2022-08-06T08:54:01Z</time>
      </trkpt>
      <trkpt lat="45.48726" lon="6.40265">
        <ele>1792</ele>
        <time>2022-08-06T08:54:11Z</time>
      </trkpt>
      <trkpt lat="45.48729" lon="6.40259">
        <ele>1793</ele>
        <time>2022-08-06T08:54:21Z</time>
      </trkpt>
      <trkpt lat="45.48733" lon="6.40247">
        <ele>1795</ele>
        <time>2022-08-06T08:54:41Z</time>
      </trkpt>
      <trkpt lat="45.48734" lon="6.40239">
        <ele>1796</ele>
        <time>2022-08-06T08:54:51Z</time>
      </trkpt>
      <trkpt lat="45.48737" lon="6.40233">
        <ele>1797</ele>
        <time>2022-08-06T08:55:01Z</time>
      </trkpt>
      <trkpt lat="45.48739" lon="6.40226">
        <ele>1798</ele>
        <time>2022-08-06T08:55:11Z</time>
      </trkpt>
      <trkpt lat="45.48747" lon="6.40207">
        <ele>1802</ele>
        <time>2022-08-06T08:55:48Z</time>
      </trkpt>
      <trkpt lat="45.48751" lon="6.40201">
        <ele>1804</ele>
        <time>2022-08-06T08:56:03Z</time>
      </trkpt>
      <trkpt lat="45.48753" lon="6.40195">
        <ele>1806</ele>
        <time>2022-08-06T08:56:13Z</time>
      </trkpt>
      <trkpt lat="45.48761" lon="6.40181">
        <ele>1809</ele>
        <time>2022-08-06T08:56:43Z</time>
      </trkpt>
      <trkpt lat="45.48763" lon="6.40175">
        <ele>1810</ele>
        <time>2022-08-06T08:56:53Z</time>
      </trkpt>
      <trkpt lat="45.48768" lon="6.40163">
        <ele>1812</ele>
        <time>2022-08-06T08:57:13Z</time>
      </trkpt>
      <trkpt lat="45.48769" lon="6.40156">
        <ele>1813</ele>
        <time>2022-08-06T08:57:23Z</time>
      </trkpt>
      <trkpt lat="45.48774" lon="6.40153">
        <ele>1815</ele>
        <time>2022-08-06T08:57:35Z</time>
      </trkpt>
      <trkpt lat="45.48775" lon="6.40145">
        <ele>1816</ele>
        <time>2022-08-06T08:57:47Z</time>
      </trkpt>
      <trkpt lat="45.48779" lon="6.40138">
        <ele>1818</ele>
        <time>2022-08-06T08:58:48Z</time>
      </trkpt>
      <trkpt lat="45.48786" lon="6.40119">
        <ele>1822</ele>
        <time>2022-08-06T08:59:19Z</time>
      </trkpt>
      <trkpt lat="45.48793" lon="6.40105">
        <ele>1825</ele>
        <time>2022-08-06T08:59:45Z</time>
      </trkpt>
      <trkpt lat="45.488" lon="6.40085">
        <ele>1829</ele>
        <time>2022-08-06T09:00:17Z</time>
      </trkpt>
      <trkpt lat="45.48804" lon="6.40082">
        <ele>1830</ele>
        <time>2022-08-06T09:00:27Z</time>
      </trkpt>
      <trkpt lat="45.48807" lon="6.40077">
        <ele>1832</ele>
        <time>2022-08-06T09:00:37Z</time>
      </trkpt>
      <trkpt lat="45.48811" lon="6.40073">
        <ele>1833</ele>
        <time>2022-08-06T09:00:47Z</time>
      </trkpt>
      <trkpt lat="45.48814" lon="6.40059">
        <ele>1836</ele>
        <time>2022-08-06T09:01:07Z</time>
      </trkpt>
      <trkpt lat="45.48818" lon="6.40055">
        <ele>1837</ele>
        <time>2022-08-06T09:01:17Z</time>
      </trkpt>
      <trkpt lat="45.48821" lon="6.40048">
        <ele>1838</ele>
        <time>2022-08-06T09:01:27Z</time>
      </trkpt>
      <trkpt lat="45.48824" lon="6.40042">
        <ele>1839</ele>
        <time>2022-08-06T09:01:37Z</time>
      </trkpt>
      <trkpt lat="45.48827" lon="6.40036">
        <ele>1841</ele>
        <time>2022-08-06T09:01:53Z</time>
      </trkpt>
      <trkpt lat="45.48833" lon="6.40034">
        <ele>1844</ele>
        <time>2022-08-06T09:02:10Z</time>
      </trkpt>
      <trkpt lat="45.48838" lon="6.40032">
        <ele>1845</ele>
        <time>2022-08-06T09:02:25Z</time>
      </trkpt>
      <trkpt lat="45.48844" lon="6.40022">
        <ele>1848</ele>
        <time>2022-08-06T09:02:45Z</time>
      </trkpt>
      <trkpt lat="45.48846" lon="6.40016">
        <ele>1849</ele>
        <time>2022-08-06T09:02:55Z</time>
      </trkpt>
      <trkpt lat="45.48849" lon="6.40012">
        <ele>1850</ele>
        <time>2022-08-06T09:03:05Z</time>
      </trkpt>
      <trkpt lat="45.48852" lon="6.40006">
        <ele>1852</ele>
        <time>2022-08-06T09:03:15Z</time>
      </trkpt>
      <trkpt lat="45.48856" lon="6.40001">
        <ele>1854</ele>
        <time>2022-08-06T09:03:30Z</time>
      </trkpt>
      <trkpt lat="45.48865" lon="6.39986">
        <ele>1858</ele>
        <time>2022-08-06T09:04:01Z</time>
      </trkpt>
      <trkpt lat="45.48869" lon="6.39982">
        <ele>1860</ele>
        <time>2022-08-06T09:04:17Z</time>
      </trkpt>
      <trkpt lat="45.48874" lon="6.39978">
        <ele>1863</ele>
        <time>2022-08-06T09:04:37Z</time>
      </trkpt>
      <trkpt lat="45.48879" lon="6.39972">
        <ele>1865</ele>
        <time>2022-08-06T09:04:52Z</time>
      </trkpt>
      <trkpt lat="45.48884" lon="6.39967">
        <ele>1867</ele>
        <time>2022-08-06T09:05:07Z</time>
      </trkpt>
      <trkpt lat="45.48888" lon="6.39962">
        <ele>1869</ele>
        <time>2022-08-06T09:05:22Z</time>
      </trkpt>
      <trkpt lat="45.48889" lon="6.39953">
        <ele>1871</ele>
        <time>2022-08-06T09:05:32Z</time>
      </trkpt>
      <trkpt lat="45.48891" lon="6.39945">
        <ele>1872</ele>
        <time>2022-08-06T09:05:42Z</time>
      </trkpt>
      <trkpt lat="45.48898" lon="6.39933">
        <ele>1873</ele>
        <time>2022-08-06T09:06:05Z</time>
      </trkpt>
      <trkpt lat="45.48902" lon="6.39932">
        <ele>1874</ele>
        <time>2022-08-06T09:06:17Z</time>
      </trkpt>
      <trkpt lat="45.48906" lon="6.3993">
        <ele>1876</ele>
        <time>2022-08-06T09:06:27Z</time>
      </trkpt>
      <trkpt lat="45.48916" lon="6.39906">
        <ele>1879</ele>
        <time>2022-08-06T09:06:57Z</time>
      </trkpt>
      <trkpt lat="45.48924" lon="6.39883">
        <ele>1882</ele>
        <time>2022-08-06T09:07:27Z</time>
      </trkpt>
      <trkpt lat="45.48928" lon="6.39865">
        <ele>1883</ele>
        <time>2022-08-06T09:07:47Z</time>
      </trkpt>
      <trkpt lat="45.48934" lon="6.39851">
        <ele>1885</ele>
        <time>2022-08-06T09:08:08Z</time>
      </trkpt>
      <trkpt lat="45.48941" lon="6.39843">
        <ele>1888</ele>
        <time>2022-08-06T09:08:29Z</time>
      </trkpt>
      <trkpt lat="45.48943" lon="6.39836">
        <ele>1890</ele>
        <time>2022-08-06T09:08:39Z</time>
      </trkpt>
      <trkpt lat="45.48949" lon="6.39837">
        <ele>1891</ele>
        <time>2022-08-06T09:08:49Z</time>
      </trkpt>
      <trkpt lat="45.48953" lon="6.39831">
        <ele>1893</ele>
        <time>2022-08-06T09:08:59Z</time>
      </trkpt>
      <trkpt lat="45.48956" lon="6.39825">
        <ele>1894</ele>
        <time>2022-08-06T09:09:09Z</time>
      </trkpt>
      <trkpt lat="45.48958" lon="6.39818">
        <ele>1895</ele>
        <time>2022-08-06T09:09:19Z</time>
      </trkpt>
      <trkpt lat="45.48963" lon="6.39813">
        <ele>1896</ele>
        <time>2022-08-06T09:09:40Z</time>
      </trkpt>
      <trkpt lat="45.48965" lon="6.39807">
        <ele>1897</ele>
        <time>2022-08-06T09:10:50Z</time>
      </trkpt>
      <trkpt lat="45.48973" lon="6.39794">
        <ele>1897</ele>
        <time>2022-08-06T09:11:05Z</time>
      </trkpt>
      <trkpt lat="45.48976" lon="6.39784">
        <ele>1898</ele>
        <time>2022-08-06T09:11:15Z</time>
      </trkpt>
      <trkpt lat="45.4898" lon="6.39776">
        <ele>1899</ele>
        <time>2022-08-06T09:11:25Z</time>
      </trkpt>
      <trkpt lat="45.48981" lon="6.39768">
        <ele>1900</ele>
        <time>2022-08-06T09:11:35Z</time>
      </trkpt>
      <trkpt lat="45.48986" lon="6.39761">
        <ele>1901</ele>
        <time>2022-08-06T09:11:45Z</time>
      </trkpt>
      <trkpt lat="45.48992" lon="6.39724">
        <ele>1904</ele>
        <time>2022-08-06T09:12:23Z</time>
      </trkpt>
      <trkpt lat="45.48993" lon="6.39711">
        <ele>1905</ele>
        <time>2022-08-06T09:12:35Z</time>
      </trkpt>
      <trkpt lat="45.48993" lon="6.39703">
        <ele>1906</ele>
        <time>2022-08-06T09:12:45Z</time>
      </trkpt>
      <trkpt lat="45.48994" lon="6.39689">
        <ele>1909</ele>
        <time>2022-08-06T09:13:05Z</time>
      </trkpt>
      <trkpt lat="45.48996" lon="6.39663">
        <ele>1913</ele>
        <time>2022-08-06T09:13:40Z</time>
      </trkpt>
      <trkpt lat="45.48995" lon="6.39656">
        <ele>1914</ele>
        <time>2022-08-06T09:13:50Z</time>
      </trkpt>
      <trkpt lat="45.48997" lon="6.39648">
        <ele>1917</ele>
        <time>2022-08-06T09:14:05Z</time>
      </trkpt>
      <trkpt lat="45.48997" lon="6.39638">
        <ele>1918</ele>
        <time>2022-08-06T09:14:26Z</time>
      </trkpt>
      <trkpt lat="45.49" lon="6.39622">
        <ele>1920</ele>
        <time>2022-08-06T09:14:43Z</time>
      </trkpt>
      <trkpt lat="45.49002" lon="6.39612">
        <ele>1919</ele>
        <time>2022-08-06T09:14:53Z</time>
      </trkpt>
      <trkpt lat="45.49006" lon="6.39608">
        <ele>1920</ele>
        <time>2022-08-06T09:15:03Z</time>
      </trkpt>
      <trkpt lat="45.4901" lon="6.39602">
        <ele>1920</ele>
        <time>2022-08-06T09:15:13Z</time>
      </trkpt>
      <trkpt lat="45.49014" lon="6.39598">
        <ele>1923</ele>
        <time>2022-08-06T09:15:33Z</time>
      </trkpt>
      <trkpt lat="45.49017" lon="6.3959">
        <ele>1922</ele>
        <time>2022-08-06T09:15:43Z</time>
      </trkpt>
      <trkpt lat="45.49021" lon="6.39587">
        <ele>1925</ele>
        <time>2022-08-06T09:16:08Z</time>
      </trkpt>
      <trkpt lat="45.49023" lon="6.39577">
        <ele>1925</ele>
        <time>2022-08-06T09:16:23Z</time>
      </trkpt>
      <trkpt lat="45.49027" lon="6.39572">
        <ele>1925</ele>
        <time>2022-08-06T09:16:35Z</time>
      </trkpt>
      <trkpt lat="45.49036" lon="6.39566">
        <ele>1928</ele>
        <time>2022-08-06T09:17:02Z</time>
      </trkpt>
      <trkpt lat="45.49039" lon="6.39561">
        <ele>1929</ele>
        <time>2022-08-06T09:17:12Z</time>
      </trkpt>
      <trkpt lat="45.49042" lon="6.39553">
        <ele>1930</ele>
        <time>2022-08-06T09:17:22Z</time>
      </trkpt>
      <trkpt lat="45.49047" lon="6.39548">
        <ele>1931</ele>
        <time>2022-08-06T09:17:32Z</time>
      </trkpt>
      <trkpt lat="45.49052" lon="6.39547">
        <ele>1931</ele>
        <time>2022-08-06T09:17:42Z</time>
      </trkpt>
      <trkpt lat="45.49061" lon="6.39538">
        <ele>1933</ele>
        <time>2022-08-06T09:18:02Z</time>
      </trkpt>
      <trkpt lat="45.49074" lon="6.39524">
        <ele>1936</ele>
        <time>2022-08-06T09:18:32Z</time>
      </trkpt>
      <trkpt lat="45.49079" lon="6.3952">
        <ele>1937</ele>
        <time>2022-08-06T09:18:43Z</time>
      </trkpt>
      <trkpt lat="45.49083" lon="6.39511">
        <ele>1938</ele>
        <time>2022-08-06T09:18:54Z</time>
      </trkpt>
      <trkpt lat="45.49098" lon="6.395">
        <ele>1940</ele>
        <time>2022-08-06T09:19:24Z</time>
      </trkpt>
      <trkpt lat="45.491" lon="6.39492">
        <ele>1941</ele>
        <time>2022-08-06T09:19:34Z</time>
      </trkpt>
      <trkpt lat="45.49102" lon="6.39482">
        <ele>1942</ele>
        <time>2022-08-06T09:19:44Z</time>
      </trkpt>
      <trkpt lat="45.49106" lon="6.39477">
        <ele>1942</ele>
        <time>2022-08-06T09:19:54Z</time>
      </trkpt>
      <trkpt lat="45.49108" lon="6.39471">
        <ele>1942</ele>
        <time>2022-08-06T09:20:00Z</time>
      </trkpt>
      <trkpt lat="45.49112" lon="6.39465">
        <ele>1942</ele>
        <time>2022-08-06T09:20:10Z</time>
      </trkpt>
      <trkpt lat="45.49117" lon="6.3946">
        <ele>1943</ele>
        <time>2022-08-06T09:20:20Z</time>
      </trkpt>
      <trkpt lat="45.4912" lon="6.39453">
        <ele>1943</ele>
        <time>2022-08-06T09:20:35Z</time>
      </trkpt>
      <trkpt lat="45.49122" lon="6.39445">
        <ele>1944</ele>
        <time>2022-08-06T09:20:47Z</time>
      </trkpt>
      <trkpt lat="45.49126" lon="6.3944">
        <ele>1945</ele>
        <time>2022-08-06T09:20:59Z</time>
      </trkpt>
      <trkpt lat="45.4913" lon="6.39437">
        <ele>1947</ele>
        <time>2022-08-06T09:21:14Z</time>
      </trkpt>
      <trkpt lat="45.49132" lon="6.39431">
        <ele>1948</ele>
        <time>2022-08-06T09:21:29Z</time>
      </trkpt>
      <trkpt lat="45.49138" lon="6.39426">
        <ele>1949</ele>
        <time>2022-08-06T09:21:44Z</time>
      </trkpt>
      <trkpt lat="45.49141" lon="6.39419">
        <ele>1951</ele>
        <time>2022-08-06T09:21:59Z</time>
      </trkpt>
      <trkpt lat="45.49144" lon="6.39413">
        <ele>1952</ele>
        <time>2022-08-06T09:22:14Z</time>
      </trkpt>
      <trkpt lat="45.49147" lon="6.39404">
        <ele>1953</ele>
        <time>2022-08-06T09:22:29Z</time>
      </trkpt>
      <trkpt lat="45.49149" lon="6.39388">
        <ele>1958</ele>
        <time>2022-08-06T09:23:21Z</time>
      </trkpt>
      <trkpt lat="45.49148" lon="6.3938">
        <ele>1960</ele>
        <time>2022-08-06T09:23:36Z</time>
      </trkpt>
      <trkpt lat="45.49147" lon="6.39374">
        <ele>1962</ele>
        <time>2022-08-06T09:23:51Z</time>
      </trkpt>
      <trkpt lat="45.49151" lon="6.3937">
        <ele>1964</ele>
        <time>2022-08-06T09:24:26Z</time>
      </trkpt>
      <trkpt lat="45.49154" lon="6.39362">
        <ele>1966</ele>
        <time>2022-08-06T09:24:41Z</time>
      </trkpt>
      <trkpt lat="45.49153" lon="6.39356">
        <ele>1968</ele>
        <time>2022-08-06T09:24:51Z</time>
      </trkpt>
      <trkpt lat="45.4915" lon="6.3935">
        <ele>1969</ele>
        <time>2022-08-06T09:25:02Z</time>
      </trkpt>
      <trkpt lat="45.49148" lon="6.39344">
        <ele>1970</ele>
        <time>2022-08-06T09:25:17Z</time>
      </trkpt>
      <trkpt lat="45.49151" lon="6.39338">
        <ele>1973</ele>
        <time>2022-08-06T09:25:37Z</time>
      </trkpt>
      <trkpt lat="45.49153" lon="6.39333">
        <ele>1974</ele>
        <time>2022-08-06T09:25:47Z</time>
      </trkpt>
      <trkpt lat="45.49151" lon="6.39317">
        <ele>1978</ele>
        <time>2022-08-06T09:26:17Z</time>
      </trkpt>
      <trkpt lat="45.49151" lon="6.3931">
        <ele>1980</ele>
        <time>2022-08-06T09:26:32Z</time>
      </trkpt>
      <trkpt lat="45.49148" lon="6.39303">
        <ele>1982</ele>
        <time>2022-08-06T09:26:47Z</time>
      </trkpt>
      <trkpt lat="45.49146" lon="6.39297">
        <ele>1983</ele>
        <time>2022-08-06T09:27:03Z</time>
      </trkpt>
      <trkpt lat="45.49145" lon="6.3929">
        <ele>1985</ele>
        <time>2022-08-06T09:27:15Z</time>
      </trkpt>
      <trkpt lat="45.49145" lon="6.39283">
        <ele>1988</ele>
        <time>2022-08-06T09:27:35Z</time>
      </trkpt>
      <trkpt lat="45.49148" lon="6.39276">
        <ele>1991</ele>
        <time>2022-08-06T09:28:00Z</time>
      </trkpt>
      <trkpt lat="45.49153" lon="6.39273">
        <ele>1993</ele>
        <time>2022-08-06T09:28:30Z</time>
      </trkpt>
      <trkpt lat="45.49161" lon="6.39276">
        <ele>1995</ele>
        <time>2022-08-06T09:29:58Z</time>
      </trkpt>
      <trkpt lat="45.49166" lon="6.39279">
        <ele>1997</ele>
        <time>2022-08-06T09:30:13Z</time>
      </trkpt>
      <trkpt lat="45.49171" lon="6.39281">
        <ele>1998</ele>
        <time>2022-08-06T09:30:58Z</time>
      </trkpt>
      <trkpt lat="45.49177" lon="6.39282">
        <ele>2000</ele>
        <time>2022-08-06T09:31:14Z</time>
      </trkpt>
      <trkpt lat="45.49182" lon="6.39283">
        <ele>2001</ele>
        <time>2022-08-06T09:31:39Z</time>
      </trkpt>
      <trkpt lat="45.49186" lon="6.3928">
        <ele>2004</ele>
        <time>2022-08-06T09:31:59Z</time>
      </trkpt>
      <trkpt lat="45.49197" lon="6.39284">
        <ele>2008</ele>
        <time>2022-08-06T09:32:34Z</time>
      </trkpt>
      <trkpt lat="45.49201" lon="6.39287">
        <ele>2009</ele>
        <time>2022-08-06T09:32:49Z</time>
      </trkpt>
      <trkpt lat="45.49205" lon="6.3929">
        <ele>2010</ele>
        <time>2022-08-06T09:32:59Z</time>
      </trkpt>
      <trkpt lat="45.49215" lon="6.39287">
        <ele>2015</ele>
        <time>2022-08-06T09:33:31Z</time>
      </trkpt>
      <trkpt lat="45.49219" lon="6.39285">
        <ele>2018</ele>
        <time>2022-08-06T09:33:51Z</time>
      </trkpt>
      <trkpt lat="45.49224" lon="6.39288">
        <ele>2019</ele>
        <time>2022-08-06T09:34:01Z</time>
      </trkpt>
      <trkpt lat="45.49236" lon="6.39294">
        <ele>2020</ele>
        <time>2022-08-06T09:34:22Z</time>
      </trkpt>
      <trkpt lat="45.4924" lon="6.39296">
        <ele>2022</ele>
        <time>2022-08-06T09:34:32Z</time>
      </trkpt>
      <trkpt lat="45.49245" lon="6.393">
        <ele>2022</ele>
        <time>2022-08-06T09:34:38Z</time>
      </trkpt>
      <trkpt lat="45.49251" lon="6.39303">
        <ele>2023</ele>
        <time>2022-08-06T09:34:47Z</time>
      </trkpt>
      <trkpt lat="45.49254" lon="6.39294">
        <ele>2024</ele>
        <time>2022-08-06T09:34:58Z</time>
      </trkpt>
      <trkpt lat="45.49254" lon="6.39285">
        <ele>2026</ele>
        <time>2022-08-06T09:35:08Z</time>
      </trkpt>
      <trkpt lat="45.49258" lon="6.39278">
        <ele>2027</ele>
        <time>2022-08-06T09:35:18Z</time>
      </trkpt>
      <trkpt lat="45.49242" lon="6.39269">
        <ele>2030</ele>
        <time>2022-08-06T09:35:56Z</time>
      </trkpt>
      <trkpt lat="45.4924" lon="6.39263">
        <ele>2033</ele>
        <time>2022-08-06T09:36:16Z</time>
      </trkpt>
      <trkpt lat="45.49235" lon="6.39259">
        <ele>2034</ele>
        <time>2022-08-06T09:36:41Z</time>
      </trkpt>
      <trkpt lat="45.49227" lon="6.39256">
        <ele>2034</ele>
        <time>2022-08-06T09:37:01Z</time>
      </trkpt>
      <trkpt lat="45.49215" lon="6.39248">
        <ele>2033</ele>
        <time>2022-08-06T09:37:17Z</time>
      </trkpt>
      <trkpt lat="45.49217" lon="6.39252">
        <ele>2034</ele>
        <time>2022-08-06T09:40:51Z</time>
      </trkpt>
      <trkpt lat="45.49225" lon="6.39255">
        <ele>2034</ele>
        <time>2022-08-06T09:41:17Z</time>
      </trkpt>
      <trkpt lat="45.4923" lon="6.39254">
        <ele>2034</ele>
        <time>2022-08-06T09:41:22Z</time>
      </trkpt>
      <trkpt lat="45.49233" lon="6.39259">
        <ele>2034</ele>
        <time>2022-08-06T09:41:29Z</time>
      </trkpt>
      <trkpt lat="45.49237" lon="6.39261">
        <ele>2035</ele>
        <time>2022-08-06T09:43:05Z</time>
      </trkpt>
      <trkpt lat="45.4924" lon="6.39259">
        <ele>2034</ele>
        <time>2022-08-06T09:53:49Z</time>
      </trkpt>
      <trkpt lat="45.49248" lon="6.39253">
        <ele>2033</ele>
        <time>2022-08-06T09:54:02Z</time>
      </trkpt>
      <trkpt lat="45.49252" lon="6.39243">
        <ele>2032</ele>
        <time>2022-08-06T09:54:11Z</time>
      </trkpt>
      <trkpt lat="45.49252" lon="6.39236">
        <ele>2031</ele>
        <time>2022-08-06T09:54:19Z</time>
      </trkpt>
      <trkpt lat="45.4925" lon="6.39229">
        <ele>2029</ele>
        <time>2022-08-06T09:54:36Z</time>
      </trkpt>
      <trkpt lat="45.49251" lon="6.39221">
        <ele>2027</ele>
        <time>2022-08-06T09:55:16Z</time>
      </trkpt>
      <trkpt lat="45.49251" lon="6.39219">
        <ele>2027</ele>
        <time>2022-08-06T09:56:33Z</time>
      </trkpt>
      <trkpt lat="45.49251" lon="6.39211">
        <ele>2026</ele>
        <time>2022-08-06T09:57:09Z</time>
      </trkpt>
      <trkpt lat="45.49256" lon="6.39206">
        <ele>2026</ele>
        <time>2022-08-06T09:57:24Z</time>
      </trkpt>
      <trkpt lat="45.49259" lon="6.39199">
        <ele>2026</ele>
        <time>2022-08-06T09:57:39Z</time>
      </trkpt>
      <trkpt lat="45.49255" lon="6.39201">
        <ele>2026</ele>
        <time>2022-08-06T09:58:19Z</time>
      </trkpt>
      <trkpt lat="45.49253" lon="6.39209">
        <ele>2026</ele>
        <time>2022-08-06T09:58:34Z</time>
      </trkpt>
      <trkpt lat="45.49249" lon="6.39213">
        <ele>2026</ele>
        <time>2022-08-06T09:59:00Z</time>
      </trkpt>
      <trkpt lat="45.49244" lon="6.39213">
        <ele>2026</ele>
        <time>2022-08-06T09:59:26Z</time>
      </trkpt>
      <trkpt lat="45.49245" lon="6.39215">
        <ele>2025</ele>
        <time>2022-08-06T10:00:36Z</time>
      </trkpt>
      <trkpt lat="45.49248" lon="6.39219">
        <ele>2025</ele>
        <time>2022-08-06T10:01:34Z</time>
      </trkpt>
      <trkpt lat="45.4925" lon="6.39225">
        <ele>2026</ele>
        <time>2022-08-06T10:02:24Z</time>
      </trkpt>
      <trkpt lat="45.49256" lon="6.39225">
        <ele>2026</ele>
        <time>2022-08-06T10:05:25Z</time>
      </trkpt>
      <trkpt lat="45.49252" lon="6.39233">
        <ele>2029</ele>
        <time>2022-08-06T10:07:29Z</time>
      </trkpt>
      <trkpt lat="45.49248" lon="6.39238">
        <ele>2030</ele>
        <time>2022-08-06T10:07:44Z</time>
      </trkpt>
      <trkpt lat="45.49251" lon="6.39243">
        <ele>2031</ele>
        <time>2022-08-06T10:09:35Z</time>
      </trkpt>
      <trkpt lat="45.49248" lon="6.39251">
        <ele>2031</ele>
        <time>2022-08-06T10:09:45Z</time>
      </trkpt>
      <trkpt lat="45.49245" lon="6.39255">
        <ele>2032</ele>
        <time>2022-08-06T10:09:55Z</time>
      </trkpt>
      <trkpt lat="45.49241" lon="6.39259">
        <ele>2034</ele>
        <time>2022-08-06T10:10:05Z</time>
      </trkpt>
      <trkpt lat="45.49234" lon="6.39258">
        <ele>2035</ele>
        <time>2022-08-06T10:10:16Z</time>
      </trkpt>
      <trkpt lat="45.49236" lon="6.3926">
        <ele>2035</ele>
        <time>2022-08-06T10:11:47Z</time>
      </trkpt>
      <trkpt lat="45.49242" lon="6.39261">
        <ele>2035</ele>
        <time>2022-08-06T10:14:32Z</time>
      </trkpt>
      <trkpt lat="45.49245" lon="6.39256">
        <ele>2035</ele>
        <time>2022-08-06T10:14:42Z</time>
      </trkpt>
      <trkpt lat="45.4925" lon="6.39253">
        <ele>2034</ele>
        <time>2022-08-06T10:14:48Z</time>
      </trkpt>
      <trkpt lat="45.49252" lon="6.39244">
        <ele>2033</ele>
        <time>2022-08-06T10:14:58Z</time>
      </trkpt>
      <trkpt lat="45.49252" lon="6.39238">
        <ele>2034</ele>
        <time>2022-08-06T10:18:34Z</time>
      </trkpt>
      <trkpt lat="45.49251" lon="6.39233">
        <ele>2031</ele>
        <time>2022-08-06T10:31:47Z</time>
      </trkpt>
      <trkpt lat="45.49254" lon="6.39225">
        <ele>2030</ele>
        <time>2022-08-06T10:31:58Z</time>
      </trkpt>
      <trkpt lat="45.49251" lon="6.39226">
        <ele>2029</ele>
        <time>2022-08-06T10:32:46Z</time>
      </trkpt>
      <trkpt lat="45.49252" lon="6.39224">
        <ele>2029</ele>
        <time>2022-08-06T10:33:31Z</time>
      </trkpt>
      <trkpt lat="45.49251" lon="6.39224">
        <ele>2029</ele>
        <time>2022-08-06T10:34:23Z</time>
      </trkpt>
      <trkpt lat="45.4925" lon="6.3923">
        <ele>2031</ele>
        <time>2022-08-06T10:34:39Z</time>
      </trkpt>
      <trkpt lat="45.49251" lon="6.39237">
        <ele>2032</ele>
        <time>2022-08-06T10:34:49Z</time>
      </trkpt>
      <trkpt lat="45.49252" lon="6.39236">
        <ele>2033</ele>
        <time>2022-08-06T10:37:30Z</time>
      </trkpt>
      <trkpt lat="45.49253" lon="6.39226">
        <ele>2031</ele>
        <time>2022-08-06T10:37:55Z</time>
      </trkpt>
      <trkpt lat="45.49252" lon="6.39226">
        <ele>2029</ele>
        <time>2022-08-06T10:38:47Z</time>
      </trkpt>
      <trkpt lat="45.49251" lon="6.39233">
        <ele>2032</ele>
        <time>2022-08-06T10:39:02Z</time>
      </trkpt>
      <trkpt lat="45.49252" lon="6.3924">
        <ele>2033</ele>
        <time>2022-08-06T10:39:22Z</time>
      </trkpt>
      <trkpt lat="45.49248" lon="6.3924">
        <ele>2034</ele>
        <time>2022-08-06T10:44:01Z</time>
      </trkpt>
      <trkpt lat="45.4924" lon="6.39237">
        <ele>2033</ele>
        <time>2022-08-06T10:44:52Z</time>
      </trkpt>
      <trkpt lat="45.49224" lon="6.39226">
        <ele>2033</ele>
        <time>2022-08-06T10:45:28Z</time>
      </trkpt>
      <trkpt lat="45.49219" lon="6.39226">
        <ele>2033</ele>
        <time>2022-08-06T10:45:32Z</time>
      </trkpt>
      <trkpt lat="45.49211" lon="6.39222">
        <ele>2032</ele>
        <time>2022-08-06T10:45:42Z</time>
      </trkpt>
      <trkpt lat="45.49201" lon="6.3922">
        <ele>2030</ele>
        <time>2022-08-06T10:45:54Z</time>
      </trkpt>
      <trkpt lat="45.4919" lon="6.39219">
        <ele>2031</ele>
        <time>2022-08-06T10:46:11Z</time>
      </trkpt>
      <trkpt lat="45.49197" lon="6.39222">
        <ele>2030</ele>
        <time>2022-08-06T10:46:36Z</time>
      </trkpt>
      <trkpt lat="45.49206" lon="6.39222">
        <ele>2030</ele>
        <time>2022-08-06T10:46:46Z</time>
      </trkpt>
      <trkpt lat="45.49213" lon="6.39226">
        <ele>2030</ele>
        <time>2022-08-06T10:46:59Z</time>
      </trkpt>
      <trkpt lat="45.49217" lon="6.39226">
        <ele>2031</ele>
        <time>2022-08-06T10:47:05Z</time>
      </trkpt>
      <trkpt lat="45.49225" lon="6.39228">
        <ele>2031</ele>
        <time>2022-08-06T10:47:15Z</time>
      </trkpt>
      <trkpt lat="45.49238" lon="6.39238">
        <ele>2032</ele>
        <time>2022-08-06T10:47:32Z</time>
      </trkpt>
      <trkpt lat="45.49244" lon="6.39242">
        <ele>2032</ele>
        <time>2022-08-06T10:47:41Z</time>
      </trkpt>
      <trkpt lat="45.49244" lon="6.39239">
        <ele>2032</ele>
        <time>2022-08-06T10:50:14Z</time>
      </trkpt>
      <trkpt lat="45.49235" lon="6.39234">
        <ele>2031</ele>
        <time>2022-08-06T10:50:23Z</time>
      </trkpt>
      <trkpt lat="45.49227" lon="6.39227">
        <ele>2031</ele>
        <time>2022-08-06T10:50:33Z</time>
      </trkpt>
      <trkpt lat="45.49221" lon="6.39226">
        <ele>2031</ele>
        <time>2022-08-06T10:50:40Z</time>
      </trkpt>
      <trkpt lat="45.49212" lon="6.39223">
        <ele>2030</ele>
        <time>2022-08-06T10:50:49Z</time>
      </trkpt>
      <trkpt lat="45.49206" lon="6.39221">
        <ele>2029</ele>
        <time>2022-08-06T10:50:57Z</time>
      </trkpt>
      <trkpt lat="45.49202" lon="6.39222">
        <ele>2028</ele>
        <time>2022-08-06T10:51:01Z</time>
      </trkpt>
      <trkpt lat="45.49195" lon="6.39219">
        <ele>2028</ele>
        <time>2022-08-06T10:51:10Z</time>
      </trkpt>
      <trkpt lat="45.49188" lon="6.39205">
        <ele>2028</ele>
        <time>2022-08-06T10:51:41Z</time>
      </trkpt>
      <trkpt lat="45.49188" lon="6.39198">
        <ele>2029</ele>
        <time>2022-08-06T10:52:01Z</time>
      </trkpt>
      <trkpt lat="45.49188" lon="6.39191">
        <ele>2028</ele>
        <time>2022-08-06T10:52:11Z</time>
      </trkpt>
      <trkpt lat="45.49177" lon="6.3918">
        <ele>2030</ele>
        <time>2022-08-06T10:52:31Z</time>
      </trkpt>
      <trkpt lat="45.49173" lon="6.39166">
        <ele>2031</ele>
        <time>2022-08-06T10:52:48Z</time>
      </trkpt>
      <trkpt lat="45.49176" lon="6.3916">
        <ele>2033</ele>
        <time>2022-08-06T10:52:58Z</time>
      </trkpt>
      <trkpt lat="45.49175" lon="6.39153">
        <ele>2035</ele>
        <time>2022-08-06T10:53:09Z</time>
      </trkpt>
      <trkpt lat="45.49172" lon="6.39149">
        <ele>2036</ele>
        <time>2022-08-06T10:53:19Z</time>
      </trkpt>
      <trkpt lat="45.49167" lon="6.39145">
        <ele>2039</ele>
        <time>2022-08-06T10:53:34Z</time>
      </trkpt>
      <trkpt lat="45.49165" lon="6.39139">
        <ele>2041</ele>
        <time>2022-08-06T10:53:49Z</time>
      </trkpt>
      <trkpt lat="45.4916" lon="6.39133">
        <ele>2043</ele>
        <time>2022-08-06T10:54:04Z</time>
      </trkpt>
      <trkpt lat="45.49165" lon="6.39129">
        <ele>2045</ele>
        <time>2022-08-06T10:54:14Z</time>
      </trkpt>
      <trkpt lat="45.49165" lon="6.39117">
        <ele>2046</ele>
        <time>2022-08-06T10:54:24Z</time>
      </trkpt>
      <trkpt lat="45.49166" lon="6.3911">
        <ele>2046</ele>
        <time>2022-08-06T10:54:32Z</time>
      </trkpt>
      <trkpt lat="45.49164" lon="6.39103">
        <ele>2046</ele>
        <time>2022-08-06T10:54:37Z</time>
      </trkpt>
      <trkpt lat="45.49165" lon="6.39095">
        <ele>2045</ele>
        <time>2022-08-06T10:54:50Z</time>
      </trkpt>
      <trkpt lat="45.49168" lon="6.3909">
        <ele>2045</ele>
        <time>2022-08-06T10:55:05Z</time>
      </trkpt>
      <trkpt lat="45.4917" lon="6.39084">
        <ele>2045</ele>
        <time>2022-08-06T10:55:10Z</time>
      </trkpt>
      <trkpt lat="45.49167" lon="6.39079">
        <ele>2045</ele>
        <time>2022-08-06T10:55:29Z</time>
      </trkpt>
      <trkpt lat="45.4917" lon="6.39073">
        <ele>2045</ele>
        <time>2022-08-06T10:55:39Z</time>
      </trkpt>
      <trkpt lat="45.49175" lon="6.39069">
        <ele>2045</ele>
        <time>2022-08-06T10:55:49Z</time>
      </trkpt>
      <trkpt lat="45.49172" lon="6.39063">
        <ele>2047</ele>
        <time>2022-08-06T10:55:59Z</time>
      </trkpt>
      <trkpt lat="45.49175" lon="6.39056">
        <ele>2050</ele>
        <time>2022-08-06T10:56:14Z</time>
      </trkpt>
      <trkpt lat="45.49177" lon="6.39046">
        <ele>2051</ele>
        <time>2022-08-06T10:56:24Z</time>
      </trkpt>
      <trkpt lat="45.49175" lon="6.39036">
        <ele>2053</ele>
        <time>2022-08-06T10:56:33Z</time>
      </trkpt>
      <trkpt lat="45.49173" lon="6.3903">
        <ele>2052</ele>
        <time>2022-08-06T10:56:37Z</time>
      </trkpt>
      <trkpt lat="45.49173" lon="6.39023">
        <ele>2052</ele>
        <time>2022-08-06T10:56:42Z</time>
      </trkpt>
      <trkpt lat="45.49176" lon="6.39018">
        <ele>2052</ele>
        <time>2022-08-06T10:56:46Z</time>
      </trkpt>
      <trkpt lat="45.49175" lon="6.39008">
        <ele>2054</ele>
        <time>2022-08-06T10:56:58Z</time>
      </trkpt>
      <trkpt lat="45.49174" lon="6.39002">
        <ele>2055</ele>
        <time>2022-08-06T10:57:03Z</time>
      </trkpt>
      <trkpt lat="45.49175" lon="6.38983">
        <ele>2056</ele>
        <time>2022-08-06T10:57:18Z</time>
      </trkpt>
      <trkpt lat="45.49176" lon="6.38974">
        <ele>2056</ele>
        <time>2022-08-06T10:57:26Z</time>
      </trkpt>
      <trkpt lat="45.49179" lon="6.38966">
        <ele>2056</ele>
        <time>2022-08-06T10:57:33Z</time>
      </trkpt>
      <trkpt lat="45.4918" lon="6.38953">
        <ele>2059</ele>
        <time>2022-08-06T10:57:50Z</time>
      </trkpt>
      <trkpt lat="45.49182" lon="6.38947">
        <ele>2059</ele>
        <time>2022-08-06T10:57:54Z</time>
      </trkpt>
      <trkpt lat="45.49182" lon="6.38934">
        <ele>2059</ele>
        <time>2022-08-06T10:58:02Z</time>
      </trkpt>
      <trkpt lat="45.4918" lon="6.3892">
        <ele>2058</ele>
        <time>2022-08-06T10:58:12Z</time>
      </trkpt>
      <trkpt lat="45.49186" lon="6.38914">
        <ele>2058</ele>
        <time>2022-08-06T10:58:24Z</time>
      </trkpt>
      <trkpt lat="45.49194" lon="6.38911">
        <ele>2058</ele>
        <time>2022-08-06T10:58:34Z</time>
      </trkpt>
      <trkpt lat="45.49199" lon="6.38911">
        <ele>2059</ele>
        <time>2022-08-06T10:58:44Z</time>
      </trkpt>
      <trkpt lat="45.49198" lon="6.38904">
        <ele>2061</ele>
        <time>2022-08-06T11:01:32Z</time>
      </trkpt>
      <trkpt lat="45.49199" lon="6.38898">
        <ele>2062</ele>
        <time>2022-08-06T11:01:38Z</time>
      </trkpt>
      <trkpt lat="45.49198" lon="6.38888">
        <ele>2063</ele>
        <time>2022-08-06T11:01:48Z</time>
      </trkpt>
      <trkpt lat="45.49192" lon="6.38877">
        <ele>2064</ele>
        <time>2022-08-06T11:01:59Z</time>
      </trkpt>
      <trkpt lat="45.49188" lon="6.38874">
        <ele>2064</ele>
        <time>2022-08-06T11:02:03Z</time>
      </trkpt>
      <trkpt lat="45.49184" lon="6.38875">
        <ele>2064</ele>
        <time>2022-08-06T11:02:08Z</time>
      </trkpt>
      <trkpt lat="45.49181" lon="6.38868">
        <ele>2064</ele>
        <time>2022-08-06T11:02:18Z</time>
      </trkpt>
      <trkpt lat="45.49177" lon="6.3887">
        <ele>2063</ele>
        <time>2022-08-06T11:02:38Z</time>
      </trkpt>
      <trkpt lat="45.49173" lon="6.38862">
        <ele>2058</ele>
        <time>2022-08-06T11:02:53Z</time>
      </trkpt>
      <trkpt lat="45.49171" lon="6.38855">
        <ele>2056</ele>
        <time>2022-08-06T11:03:03Z</time>
      </trkpt>
      <trkpt lat="45.49164" lon="6.38847">
        <ele>2054</ele>
        <time>2022-08-06T11:03:14Z</time>
      </trkpt>
      <trkpt lat="45.49159" lon="6.38845">
        <ele>2053</ele>
        <time>2022-08-06T11:03:22Z</time>
      </trkpt>
      <trkpt lat="45.49156" lon="6.38835">
        <ele>2054</ele>
        <time>2022-08-06T11:03:37Z</time>
      </trkpt>
      <trkpt lat="45.49149" lon="6.38829">
        <ele>2054</ele>
        <time>2022-08-06T11:03:45Z</time>
      </trkpt>
      <trkpt lat="45.49143" lon="6.38831">
        <ele>2053</ele>
        <time>2022-08-06T11:03:54Z</time>
      </trkpt>
      <trkpt lat="45.49139" lon="6.38828">
        <ele>2052</ele>
        <time>2022-08-06T11:03:59Z</time>
      </trkpt>
      <trkpt lat="45.4913" lon="6.38825">
        <ele>2052</ele>
        <time>2022-08-06T11:04:09Z</time>
      </trkpt>
      <trkpt lat="45.49127" lon="6.38826">
        <ele>2053</ele>
        <time>2022-08-06T11:05:15Z</time>
      </trkpt>
      <trkpt lat="45.4912" lon="6.38826">
        <ele>2053</ele>
        <time>2022-08-06T11:05:25Z</time>
      </trkpt>
      <trkpt lat="45.49115" lon="6.38829">
        <ele>2054</ele>
        <time>2022-08-06T11:05:32Z</time>
      </trkpt>
      <trkpt lat="45.49109" lon="6.38828">
        <ele>2056</ele>
        <time>2022-08-06T11:05:47Z</time>
      </trkpt>
      <trkpt lat="45.49105" lon="6.38825">
        <ele>2060</ele>
        <time>2022-08-06T11:06:18Z</time>
      </trkpt>
      <trkpt lat="45.49102" lon="6.38832">
        <ele>2061</ele>
        <time>2022-08-06T11:06:28Z</time>
      </trkpt>
      <trkpt lat="45.49097" lon="6.3883">
        <ele>2064</ele>
        <time>2022-08-06T11:06:48Z</time>
      </trkpt>
      <trkpt lat="45.49093" lon="6.38826">
        <ele>2066</ele>
        <time>2022-08-06T11:07:03Z</time>
      </trkpt>
      <trkpt lat="45.49095" lon="6.38819">
        <ele>2068</ele>
        <time>2022-08-06T11:07:18Z</time>
      </trkpt>
      <trkpt lat="45.49098" lon="6.38813">
        <ele>2070</ele>
        <time>2022-08-06T11:07:28Z</time>
      </trkpt>
      <trkpt lat="45.49094" lon="6.38805">
        <ele>2071</ele>
        <time>2022-08-06T11:07:38Z</time>
      </trkpt>
      <trkpt lat="45.49088" lon="6.3879">
        <ele>2077</ele>
        <time>2022-08-06T11:08:17Z</time>
      </trkpt>
      <trkpt lat="45.49083" lon="6.38784">
        <ele>2079</ele>
        <time>2022-08-06T11:08:32Z</time>
      </trkpt>
      <trkpt lat="45.49078" lon="6.38778">
        <ele>2080</ele>
        <time>2022-08-06T11:08:42Z</time>
      </trkpt>
      <trkpt lat="45.49072" lon="6.3878">
        <ele>2081</ele>
        <time>2022-08-06T11:08:52Z</time>
      </trkpt>
      <trkpt lat="45.4907" lon="6.38775">
        <ele>2085</ele>
        <time>2022-08-06T11:09:17Z</time>
      </trkpt>
      <trkpt lat="45.49066" lon="6.38771">
        <ele>2087</ele>
        <time>2022-08-06T11:09:32Z</time>
      </trkpt>
      <trkpt lat="45.49062" lon="6.38767">
        <ele>2090</ele>
        <time>2022-08-06T11:09:53Z</time>
      </trkpt>
      <trkpt lat="45.4906" lon="6.38754">
        <ele>2097</ele>
        <time>2022-08-06T11:10:32Z</time>
      </trkpt>
      <trkpt lat="45.49057" lon="6.3875">
        <ele>2097</ele>
        <time>2022-08-06T11:10:39Z</time>
      </trkpt>
      <trkpt lat="45.49058" lon="6.38743">
        <ele>2101</ele>
        <time>2022-08-06T11:11:09Z</time>
      </trkpt>
      <trkpt lat="45.49054" lon="6.3874">
        <ele>2104</ele>
        <time>2022-08-06T11:11:24Z</time>
      </trkpt>
      <trkpt lat="45.49052" lon="6.38733">
        <ele>2109</ele>
        <time>2022-08-06T11:12:00Z</time>
      </trkpt>
      <trkpt lat="45.49047" lon="6.3873">
        <ele>2111</ele>
        <time>2022-08-06T11:12:17Z</time>
      </trkpt>
      <trkpt lat="45.49037" lon="6.38725">
        <ele>2117</ele>
        <time>2022-08-06T11:12:58Z</time>
      </trkpt>
      <trkpt lat="45.49035" lon="6.38717">
        <ele>2120</ele>
        <time>2022-08-06T11:13:23Z</time>
      </trkpt>
      <trkpt lat="45.49029" lon="6.38717">
        <ele>2124</ele>
        <time>2022-08-06T11:13:43Z</time>
      </trkpt>
      <trkpt lat="45.49024" lon="6.38714">
        <ele>2128</ele>
        <time>2022-08-06T11:14:22Z</time>
      </trkpt>
      <trkpt lat="45.49021" lon="6.38708">
        <ele>2134</ele>
        <time>2022-08-06T11:15:02Z</time>
      </trkpt>
      <trkpt lat="45.49021" lon="6.38701">
        <ele>2137</ele>
        <time>2022-08-06T11:15:32Z</time>
      </trkpt>
      <trkpt lat="45.49018" lon="6.38696">
        <ele>2140</ele>
        <time>2022-08-06T11:15:57Z</time>
      </trkpt>
      <trkpt lat="45.49016" lon="6.3869">
        <ele>2144</ele>
        <time>2022-08-06T11:16:25Z</time>
      </trkpt>
      <trkpt lat="45.49012" lon="6.38685">
        <ele>2146</ele>
        <time>2022-08-06T11:16:40Z</time>
      </trkpt>
      <trkpt lat="45.49017" lon="6.3868">
        <ele>2149</ele>
        <time>2022-08-06T11:16:55Z</time>
      </trkpt>
      <trkpt lat="45.49019" lon="6.38675">
        <ele>2151</ele>
        <time>2022-08-06T11:17:10Z</time>
      </trkpt>
      <trkpt lat="45.49018" lon="6.38668">
        <ele>2153</ele>
        <time>2022-08-06T11:17:25Z</time>
      </trkpt>
      <trkpt lat="45.49015" lon="6.38661">
        <ele>2155</ele>
        <time>2022-08-06T11:17:40Z</time>
      </trkpt>
      <trkpt lat="45.49011" lon="6.38653">
        <ele>2157</ele>
        <time>2022-08-06T11:18:00Z</time>
      </trkpt>
      <trkpt lat="45.49008" lon="6.38657">
        <ele>2160</ele>
        <time>2022-08-06T11:18:21Z</time>
      </trkpt>
      <trkpt lat="45.49003" lon="6.3865">
        <ele>2161</ele>
        <time>2022-08-06T11:18:38Z</time>
      </trkpt>
      <trkpt lat="45.48998" lon="6.38642">
        <ele>2162</ele>
        <time>2022-08-06T11:18:48Z</time>
      </trkpt>
      <trkpt lat="45.48994" lon="6.38639">
        <ele>2162</ele>
        <time>2022-08-06T11:18:54Z</time>
      </trkpt>
      <trkpt lat="45.48992" lon="6.38633">
        <ele>2163</ele>
        <time>2022-08-06T11:19:01Z</time>
      </trkpt>
      <trkpt lat="45.48987" lon="6.3862">
        <ele>2168</ele>
        <time>2022-08-06T11:19:41Z</time>
      </trkpt>
      <trkpt lat="45.48987" lon="6.38611">
        <ele>2171</ele>
        <time>2022-08-06T11:20:01Z</time>
      </trkpt>
      <trkpt lat="45.4898" lon="6.38598">
        <ele>2176</ele>
        <time>2022-08-06T11:20:33Z</time>
      </trkpt>
      <trkpt lat="45.48978" lon="6.38591">
        <ele>2178</ele>
        <time>2022-08-06T11:20:54Z</time>
      </trkpt>
      <trkpt lat="45.48973" lon="6.38589">
        <ele>2179</ele>
        <time>2022-08-06T11:21:09Z</time>
      </trkpt>
      <trkpt lat="45.4897" lon="6.38579">
        <ele>2181</ele>
        <time>2022-08-06T11:21:25Z</time>
      </trkpt>
      <trkpt lat="45.4897" lon="6.38572">
        <ele>2182</ele>
        <time>2022-08-06T11:21:35Z</time>
      </trkpt>
      <trkpt lat="45.48965" lon="6.38566">
        <ele>2184</ele>
        <time>2022-08-06T11:21:50Z</time>
      </trkpt>
      <trkpt lat="45.48962" lon="6.3857">
        <ele>2187</ele>
        <time>2022-08-06T11:22:05Z</time>
      </trkpt>
      <trkpt lat="45.48958" lon="6.38566">
        <ele>2191</ele>
        <time>2022-08-06T11:22:37Z</time>
      </trkpt>
      <trkpt lat="45.48957" lon="6.38559">
        <ele>2193</ele>
        <time>2022-08-06T11:22:58Z</time>
      </trkpt>
      <trkpt lat="45.48951" lon="6.38558">
        <ele>2197</ele>
        <time>2022-08-06T11:23:23Z</time>
      </trkpt>
      <trkpt lat="45.48948" lon="6.38552">
        <ele>2201</ele>
        <time>2022-08-06T11:23:53Z</time>
      </trkpt>
      <trkpt lat="45.48947" lon="6.38545">
        <ele>2203</ele>
        <time>2022-08-06T11:24:08Z</time>
      </trkpt>
      <trkpt lat="45.48944" lon="6.38539">
        <ele>2205</ele>
        <time>2022-08-06T11:24:18Z</time>
      </trkpt>
      <trkpt lat="45.48941" lon="6.38533">
        <ele>2206</ele>
        <time>2022-08-06T11:24:28Z</time>
      </trkpt>
      <trkpt lat="45.48938" lon="6.38523">
        <ele>2208</ele>
        <time>2022-08-06T11:24:45Z</time>
      </trkpt>
      <trkpt lat="45.48931" lon="6.38514">
        <ele>2212</ele>
        <time>2022-08-06T11:25:11Z</time>
      </trkpt>
      <trkpt lat="45.48926" lon="6.38511">
        <ele>2214</ele>
        <time>2022-08-06T11:25:26Z</time>
      </trkpt>
      <trkpt lat="45.48928" lon="6.38503">
        <ele>2216</ele>
        <time>2022-08-06T11:26:01Z</time>
      </trkpt>
      <trkpt lat="45.48922" lon="6.38498">
        <ele>2218</ele>
        <time>2022-08-06T11:26:11Z</time>
      </trkpt>
      <trkpt lat="45.48918" lon="6.38494">
        <ele>2219</ele>
        <time>2022-08-06T11:26:21Z</time>
      </trkpt>
      <trkpt lat="45.48902" lon="6.38489">
        <ele>2224</ele>
        <time>2022-08-06T11:27:00Z</time>
      </trkpt>
      <trkpt lat="45.48898" lon="6.38483">
        <ele>2225</ele>
        <time>2022-08-06T11:27:10Z</time>
      </trkpt>
      <trkpt lat="45.48892" lon="6.38479">
        <ele>2224</ele>
        <time>2022-08-06T11:27:20Z</time>
      </trkpt>
      <trkpt lat="45.48888" lon="6.38474">
        <ele>2224</ele>
        <time>2022-08-06T11:27:30Z</time>
      </trkpt>
      <trkpt lat="45.48885" lon="6.38469">
        <ele>2225</ele>
        <time>2022-08-06T11:27:45Z</time>
      </trkpt>
      <trkpt lat="45.48884" lon="6.38462">
        <ele>2225</ele>
        <time>2022-08-06T11:28:00Z</time>
      </trkpt>
      <trkpt lat="45.48882" lon="6.38455">
        <ele>2227</ele>
        <time>2022-08-06T11:28:15Z</time>
      </trkpt>
      <trkpt lat="45.4888" lon="6.38448">
        <ele>2229</ele>
        <time>2022-08-06T11:28:30Z</time>
      </trkpt>
      <trkpt lat="45.48877" lon="6.3844">
        <ele>2230</ele>
        <time>2022-08-06T11:28:45Z</time>
      </trkpt>
      <trkpt lat="45.48873" lon="6.38434">
        <ele>2233</ele>
        <time>2022-08-06T11:29:13Z</time>
      </trkpt>
      <trkpt lat="45.48873" lon="6.38427">
        <ele>2235</ele>
        <time>2022-08-06T11:29:28Z</time>
      </trkpt>
      <trkpt lat="45.48868" lon="6.38413">
        <ele>2243</ele>
        <time>2022-08-06T11:30:33Z</time>
      </trkpt>
      <trkpt lat="45.4887" lon="6.38407">
        <ele>2246</ele>
        <time>2022-08-06T11:30:54Z</time>
      </trkpt>
      <trkpt lat="45.48867" lon="6.38403">
        <ele>2247</ele>
        <time>2022-08-06T11:31:11Z</time>
      </trkpt>
      <trkpt lat="45.48863" lon="6.38403">
        <ele>2249</ele>
        <time>2022-08-06T11:31:21Z</time>
      </trkpt>
      <trkpt lat="45.48852" lon="6.38395">
        <ele>2254</ele>
        <time>2022-08-06T11:32:01Z</time>
      </trkpt>
      <trkpt lat="45.48848" lon="6.38392">
        <ele>2256</ele>
        <time>2022-08-06T11:32:16Z</time>
      </trkpt>
      <trkpt lat="45.48846" lon="6.38386">
        <ele>2259</ele>
        <time>2022-08-06T11:32:41Z</time>
      </trkpt>
      <trkpt lat="45.48842" lon="6.38382">
        <ele>2263</ele>
        <time>2022-08-06T11:33:07Z</time>
      </trkpt>
      <trkpt lat="45.48838" lon="6.3838">
        <ele>2264</ele>
        <time>2022-08-06T11:33:19Z</time>
      </trkpt>
      <trkpt lat="45.48828" lon="6.38378">
        <ele>2267</ele>
        <time>2022-08-06T11:33:49Z</time>
      </trkpt>
      <trkpt lat="45.4882" lon="6.38369">
        <ele>2273</ele>
        <time>2022-08-06T11:34:34Z</time>
      </trkpt>
      <trkpt lat="45.48816" lon="6.38369">
        <ele>2275</ele>
        <time>2022-08-06T11:34:44Z</time>
      </trkpt>
      <trkpt lat="45.48811" lon="6.38364">
        <ele>2277</ele>
        <time>2022-08-06T11:35:06Z</time>
      </trkpt>
      <trkpt lat="45.48808" lon="6.38358">
        <ele>2279</ele>
        <time>2022-08-06T11:35:17Z</time>
      </trkpt>
      <trkpt lat="45.48804" lon="6.38355">
        <ele>2281</ele>
        <time>2022-08-06T11:35:28Z</time>
      </trkpt>
      <trkpt lat="45.48798" lon="6.38356">
        <ele>2282</ele>
        <time>2022-08-06T11:35:38Z</time>
      </trkpt>
      <trkpt lat="45.48794" lon="6.3835">
        <ele>2286</ele>
        <time>2022-08-06T11:36:13Z</time>
      </trkpt>
      <trkpt lat="45.48793" lon="6.38344">
        <ele>2289</ele>
        <time>2022-08-06T11:36:38Z</time>
      </trkpt>
      <trkpt lat="45.48793" lon="6.38337">
        <ele>2292</ele>
        <time>2022-08-06T11:36:58Z</time>
      </trkpt>
      <trkpt lat="45.48792" lon="6.38331">
        <ele>2294</ele>
        <time>2022-08-06T11:37:19Z</time>
      </trkpt>
      <trkpt lat="45.48786" lon="6.3832">
        <ele>2299</ele>
        <time>2022-08-06T11:37:55Z</time>
      </trkpt>
      <trkpt lat="45.48783" lon="6.38316">
        <ele>2300</ele>
        <time>2022-08-06T11:38:05Z</time>
      </trkpt>
      <trkpt lat="45.48775" lon="6.38304">
        <ele>2305</ele>
        <time>2022-08-06T11:38:50Z</time>
      </trkpt>
      <trkpt lat="45.48776" lon="6.38297">
        <ele>2308</ele>
        <time>2022-08-06T11:39:10Z</time>
      </trkpt>
      <trkpt lat="45.48772" lon="6.38293">
        <ele>2309</ele>
        <time>2022-08-06T11:39:21Z</time>
      </trkpt>
      <trkpt lat="45.48766" lon="6.38288">
        <ele>2310</ele>
        <time>2022-08-06T11:39:33Z</time>
      </trkpt>
      <trkpt lat="45.4877" lon="6.38281">
        <ele>2312</ele>
        <time>2022-08-06T11:39:53Z</time>
      </trkpt>
      <trkpt lat="45.48765" lon="6.38277">
        <ele>2314</ele>
        <time>2022-08-06T11:40:13Z</time>
      </trkpt>
      <trkpt lat="45.48764" lon="6.38271">
        <ele>2318</ele>
        <time>2022-08-06T11:40:43Z</time>
      </trkpt>
      <trkpt lat="45.48759" lon="6.38268">
        <ele>2319</ele>
        <time>2022-08-06T11:40:53Z</time>
      </trkpt>
      <trkpt lat="45.48755" lon="6.38264">
        <ele>2323</ele>
        <time>2022-08-06T11:41:24Z</time>
      </trkpt>
      <trkpt lat="45.4875" lon="6.38261">
        <ele>2328</ele>
        <time>2022-08-06T11:42:06Z</time>
      </trkpt>
      <trkpt lat="45.4875" lon="6.38254">
        <ele>2332</ele>
        <time>2022-08-06T11:42:36Z</time>
      </trkpt>
      <trkpt lat="45.48746" lon="6.38249">
        <ele>2335</ele>
        <time>2022-08-06T11:43:01Z</time>
      </trkpt>
      <trkpt lat="45.48742" lon="6.38249">
        <ele>2339</ele>
        <time>2022-08-06T11:43:32Z</time>
      </trkpt>
      <trkpt lat="45.48737" lon="6.38245">
        <ele>2342</ele>
        <time>2022-08-06T11:44:23Z</time>
      </trkpt>
      <trkpt lat="45.48736" lon="6.3824">
        <ele>2345</ele>
        <time>2022-08-06T11:44:43Z</time>
      </trkpt>
      <trkpt lat="45.48732" lon="6.38235">
        <ele>2347</ele>
        <time>2022-08-06T11:44:58Z</time>
      </trkpt>
      <trkpt lat="45.48728" lon="6.38233">
        <ele>2349</ele>
        <time>2022-08-06T11:45:13Z</time>
      </trkpt>
      <trkpt lat="45.48724" lon="6.38233">
        <ele>2352</ele>
        <time>2022-08-06T11:45:33Z</time>
      </trkpt>
      <trkpt lat="45.4872" lon="6.38231">
        <ele>2352</ele>
        <time>2022-08-06T11:45:46Z</time>
      </trkpt>
      <trkpt lat="45.48718" lon="6.38225">
        <ele>2354</ele>
        <time>2022-08-06T11:46:01Z</time>
      </trkpt>
      <trkpt lat="45.48711" lon="6.3821">
        <ele>2358</ele>
        <time>2022-08-06T11:46:46Z</time>
      </trkpt>
      <trkpt lat="45.48708" lon="6.38205">
        <ele>2356</ele>
        <time>2022-08-06T11:46:57Z</time>
      </trkpt>
      <trkpt lat="45.48705" lon="6.38196">
        <ele>2356</ele>
        <time>2022-08-06T11:47:12Z</time>
      </trkpt>
      <trkpt lat="45.48702" lon="6.38191">
        <ele>2358</ele>
        <time>2022-08-06T11:47:22Z</time>
      </trkpt>
      <trkpt lat="45.48698" lon="6.38188">
        <ele>2358</ele>
        <time>2022-08-06T11:47:37Z</time>
      </trkpt>
      <trkpt lat="45.48694" lon="6.38187">
        <ele>2360</ele>
        <time>2022-08-06T11:48:00Z</time>
      </trkpt>
      <trkpt lat="45.48694" lon="6.38179">
        <ele>2361</ele>
        <time>2022-08-06T11:48:20Z</time>
      </trkpt>
      <trkpt lat="45.48688" lon="6.38168">
        <ele>2365</ele>
        <time>2022-08-06T11:48:50Z</time>
      </trkpt>
      <trkpt lat="45.48687" lon="6.3816">
        <ele>2367</ele>
        <time>2022-08-06T11:49:05Z</time>
      </trkpt>
      <trkpt lat="45.48684" lon="6.38155">
        <ele>2368</ele>
        <time>2022-08-06T11:49:20Z</time>
      </trkpt>
      <trkpt lat="45.48681" lon="6.3815">
        <ele>2369</ele>
        <time>2022-08-06T11:49:30Z</time>
      </trkpt>
      <trkpt lat="45.48677" lon="6.38134">
        <ele>2373</ele>
        <time>2022-08-06T11:50:03Z</time>
      </trkpt>
      <trkpt lat="45.4867" lon="6.38123">
        <ele>2378</ele>
        <time>2022-08-06T11:50:36Z</time>
      </trkpt>
      <trkpt lat="45.4867" lon="6.38114">
        <ele>2383</ele>
        <time>2022-08-06T11:51:46Z</time>
      </trkpt>
      <trkpt lat="45.48662" lon="6.38103">
        <ele>2386</ele>
        <time>2022-08-06T11:52:12Z</time>
      </trkpt>
      <trkpt lat="45.48657" lon="6.38101">
        <ele>2388</ele>
        <time>2022-08-06T11:52:27Z</time>
      </trkpt>
      <trkpt lat="45.48654" lon="6.38095">
        <ele>2390</ele>
        <time>2022-08-06T11:52:42Z</time>
      </trkpt>
      <trkpt lat="45.48652" lon="6.38088">
        <ele>2392</ele>
        <time>2022-08-06T11:53:02Z</time>
      </trkpt>
      <trkpt lat="45.48649" lon="6.38082">
        <ele>2393</ele>
        <time>2022-08-06T11:53:12Z</time>
      </trkpt>
      <trkpt lat="45.48645" lon="6.38079">
        <ele>2395</ele>
        <time>2022-08-06T11:53:27Z</time>
      </trkpt>
      <trkpt lat="45.48642" lon="6.38073">
        <ele>2397</ele>
        <time>2022-08-06T11:53:42Z</time>
      </trkpt>
      <trkpt lat="45.48636" lon="6.3807">
        <ele>2398</ele>
        <time>2022-08-06T11:53:52Z</time>
      </trkpt>
      <trkpt lat="45.48629" lon="6.38066">
        <ele>2398</ele>
        <time>2022-08-06T11:54:03Z</time>
      </trkpt>
      <trkpt lat="45.4861" lon="6.38062">
        <ele>2401</ele>
        <time>2022-08-06T11:54:41Z</time>
      </trkpt>
      <trkpt lat="45.48605" lon="6.38062">
        <ele>2402</ele>
        <time>2022-08-06T11:54:51Z</time>
      </trkpt>
      <trkpt lat="45.486" lon="6.38059">
        <ele>2403</ele>
        <time>2022-08-06T11:55:01Z</time>
      </trkpt>
      <trkpt lat="45.48598" lon="6.38052">
        <ele>2405</ele>
        <time>2022-08-06T11:55:21Z</time>
      </trkpt>
      <trkpt lat="45.48592" lon="6.3805">
        <ele>2407</ele>
        <time>2022-08-06T11:55:36Z</time>
      </trkpt>
      <trkpt lat="45.48587" lon="6.38051">
        <ele>2407</ele>
        <time>2022-08-06T11:55:51Z</time>
      </trkpt>
      <trkpt lat="45.48583" lon="6.38044">
        <ele>2408</ele>
        <time>2022-08-06T11:56:13Z</time>
      </trkpt>
      <trkpt lat="45.48582" lon="6.38038">
        <ele>2409</ele>
        <time>2022-08-06T11:56:25Z</time>
      </trkpt>
      <trkpt lat="45.48576" lon="6.38037">
        <ele>2411</ele>
        <time>2022-08-06T11:56:35Z</time>
      </trkpt>
      <trkpt lat="45.48574" lon="6.3803">
        <ele>2412</ele>
        <time>2022-08-06T11:56:50Z</time>
      </trkpt>
      <trkpt lat="45.4857" lon="6.3803">
        <ele>2415</ele>
        <time>2022-08-06T11:57:10Z</time>
      </trkpt>
      <trkpt lat="45.48566" lon="6.38025">
        <ele>2418</ele>
        <time>2022-08-06T11:57:40Z</time>
      </trkpt>
      <trkpt lat="45.48565" lon="6.38018">
        <ele>2420</ele>
        <time>2022-08-06T11:57:55Z</time>
      </trkpt>
      <trkpt lat="45.48561" lon="6.38016">
        <ele>2420</ele>
        <time>2022-08-06T11:57:59Z</time>
      </trkpt>
      <trkpt lat="45.48559" lon="6.38009">
        <ele>2420</ele>
        <time>2022-08-06T11:58:34Z</time>
      </trkpt>
      <trkpt lat="45.48553" lon="6.38005">
        <ele>2421</ele>
        <time>2022-08-06T11:58:44Z</time>
      </trkpt>
      <trkpt lat="45.48547" lon="6.37997">
        <ele>2424</ele>
        <time>2022-08-06T11:59:09Z</time>
      </trkpt>
      <trkpt lat="45.48547" lon="6.37991">
        <ele>2427</ele>
        <time>2022-08-06T11:59:34Z</time>
      </trkpt>
      <trkpt lat="45.48543" lon="6.37984">
        <ele>2428</ele>
        <time>2022-08-06T11:59:54Z</time>
      </trkpt>
      <trkpt lat="45.48542" lon="6.37976">
        <ele>2429</ele>
        <time>2022-08-06T12:00:14Z</time>
      </trkpt>
      <trkpt lat="45.48538" lon="6.37964">
        <ele>2433</ele>
        <time>2022-08-06T12:00:56Z</time>
      </trkpt>
      <trkpt lat="45.48533" lon="6.37958">
        <ele>2434</ele>
        <time>2022-08-06T12:01:11Z</time>
      </trkpt>
      <trkpt lat="45.48529" lon="6.37954">
        <ele>2435</ele>
        <time>2022-08-06T12:01:26Z</time>
      </trkpt>
      <trkpt lat="45.48527" lon="6.37947">
        <ele>2438</ele>
        <time>2022-08-06T12:01:46Z</time>
      </trkpt>
      <trkpt lat="45.48522" lon="6.37945">
        <ele>2441</ele>
        <time>2022-08-06T12:02:11Z</time>
      </trkpt>
      <trkpt lat="45.48517" lon="6.37946">
        <ele>2443</ele>
        <time>2022-08-06T12:02:33Z</time>
      </trkpt>
      <trkpt lat="45.48509" lon="6.37939">
        <ele>2449</ele>
        <time>2022-08-06T12:03:34Z</time>
      </trkpt>
      <trkpt lat="45.48507" lon="6.37933">
        <ele>2451</ele>
        <time>2022-08-06T12:03:49Z</time>
      </trkpt>
      <trkpt lat="45.48507" lon="6.37927">
        <ele>2455</ele>
        <time>2022-08-06T12:04:19Z</time>
      </trkpt>
      <trkpt lat="45.48504" lon="6.37922">
        <ele>2458</ele>
        <time>2022-08-06T12:04:47Z</time>
      </trkpt>
      <trkpt lat="45.48508" lon="6.37918">
        <ele>2460</ele>
        <time>2022-08-06T12:05:07Z</time>
      </trkpt>
      <trkpt lat="45.48505" lon="6.37913">
        <ele>2462</ele>
        <time>2022-08-06T12:05:22Z</time>
      </trkpt>
      <trkpt lat="45.485" lon="6.37912">
        <ele>2464</ele>
        <time>2022-08-06T12:05:37Z</time>
      </trkpt>
      <trkpt lat="45.48501" lon="6.37904">
        <ele>2467</ele>
        <time>2022-08-06T12:06:12Z</time>
      </trkpt>
      <trkpt lat="45.48506" lon="6.37902">
        <ele>2470</ele>
        <time>2022-08-06T12:06:38Z</time>
      </trkpt>
      <trkpt lat="45.48512" lon="6.3789">
        <ele>2476</ele>
        <time>2022-08-06T12:09:22Z</time>
      </trkpt>
      <trkpt lat="45.48514" lon="6.37883">
        <ele>2476</ele>
        <time>2022-08-06T12:09:37Z</time>
      </trkpt>
      <trkpt lat="45.48518" lon="6.37877">
        <ele>2479</ele>
        <time>2022-08-06T12:10:22Z</time>
      </trkpt>
      <trkpt lat="45.48521" lon="6.3787">
        <ele>2481</ele>
        <time>2022-08-06T12:10:37Z</time>
      </trkpt>
      <trkpt lat="45.48525" lon="6.37866">
        <ele>2483</ele>
        <time>2022-08-06T12:10:48Z</time>
      </trkpt>
      <trkpt lat="45.48528" lon="6.37864">
        <ele>2487</ele>
        <time>2022-08-06T12:11:20Z</time>
      </trkpt>
      <trkpt lat="45.48533" lon="6.37864">
        <ele>2490</ele>
        <time>2022-08-06T12:11:45Z</time>
      </trkpt>
      <trkpt lat="45.48537" lon="6.37863">
        <ele>2494</ele>
        <time>2022-08-06T12:12:05Z</time>
      </trkpt>
      <trkpt lat="45.48539" lon="6.37857">
        <ele>2496</ele>
        <time>2022-08-06T12:12:20Z</time>
      </trkpt>
      <trkpt lat="45.48543" lon="6.37854">
        <ele>2497</ele>
        <time>2022-08-06T12:12:35Z</time>
      </trkpt>
      <trkpt lat="45.48547" lon="6.37849">
        <ele>2499</ele>
        <time>2022-08-06T12:12:50Z</time>
      </trkpt>
      <trkpt lat="45.48552" lon="6.37849">
        <ele>2502</ele>
        <time>2022-08-06T12:13:12Z</time>
      </trkpt>
      <trkpt lat="45.48556" lon="6.37845">
        <ele>2505</ele>
        <time>2022-08-06T12:13:32Z</time>
      </trkpt>
      <trkpt lat="45.48559" lon="6.37839">
        <ele>2507</ele>
        <time>2022-08-06T12:13:52Z</time>
      </trkpt>
      <trkpt lat="45.48563" lon="6.37822">
        <ele>2513</ele>
        <time>2022-08-06T12:14:28Z</time>
      </trkpt>
      <trkpt lat="45.48572" lon="6.37814">
        <ele>2519</ele>
        <time>2022-08-06T12:15:17Z</time>
      </trkpt>
      <trkpt lat="45.48576" lon="6.37809">
        <ele>2521</ele>
        <time>2022-08-06T12:15:32Z</time>
      </trkpt>
      <trkpt lat="45.48578" lon="6.37803">
        <ele>2524</ele>
        <time>2022-08-06T12:15:47Z</time>
      </trkpt>
      <trkpt lat="45.48579" lon="6.37792">
        <ele>2526</ele>
        <time>2022-08-06T12:16:03Z</time>
      </trkpt>
      <trkpt lat="45.48583" lon="6.37787">
        <ele>2530</ele>
        <time>2022-08-06T12:16:24Z</time>
      </trkpt>
      <trkpt lat="45.48584" lon="6.37778">
        <ele>2530</ele>
        <time>2022-08-06T12:16:39Z</time>
      </trkpt>
      <trkpt lat="45.48582" lon="6.37771">
        <ele>2532</ele>
        <time>2022-08-06T12:16:54Z</time>
      </trkpt>
      <trkpt lat="45.48583" lon="6.37762">
        <ele>2534</ele>
        <time>2022-08-06T12:17:23Z</time>
      </trkpt>
      <trkpt lat="45.48581" lon="6.37755">
        <ele>2534</ele>
        <time>2022-08-06T12:17:33Z</time>
      </trkpt>
      <trkpt lat="45.48582" lon="6.37748">
        <ele>2535</ele>
        <time>2022-08-06T12:17:43Z</time>
      </trkpt>
      <trkpt lat="45.48583" lon="6.37741">
        <ele>2538</ele>
        <time>2022-08-06T12:18:03Z</time>
      </trkpt>
      <trkpt lat="45.48586" lon="6.37738">
        <ele>2541</ele>
        <time>2022-08-06T12:18:18Z</time>
      </trkpt>
      <trkpt lat="45.48588" lon="6.3773">
        <ele>2542</ele>
        <time>2022-08-06T12:19:25Z</time>
      </trkpt>
      <trkpt lat="45.48592" lon="6.37728">
        <ele>2545</ele>
        <time>2022-08-06T12:19:55Z</time>
      </trkpt>
      <trkpt lat="45.48597" lon="6.3773">
        <ele>2547</ele>
        <time>2022-08-06T12:20:10Z</time>
      </trkpt>
      <trkpt lat="45.48599" lon="6.37736">
        <ele>2550</ele>
        <time>2022-08-06T12:20:35Z</time>
      </trkpt>
      <trkpt lat="45.48604" lon="6.37738">
        <ele>2553</ele>
        <time>2022-08-06T12:20:55Z</time>
      </trkpt>
      <trkpt lat="45.4861" lon="6.37739">
        <ele>2557</ele>
        <time>2022-08-06T12:21:27Z</time>
      </trkpt>
      <trkpt lat="45.48613" lon="6.37736">
        <ele>2560</ele>
        <time>2022-08-06T12:21:48Z</time>
      </trkpt>
      <trkpt lat="45.48617" lon="6.37732">
        <ele>2564</ele>
        <time>2022-08-06T12:22:33Z</time>
      </trkpt>
      <trkpt lat="45.48621" lon="6.37734">
        <ele>2575</ele>
        <time>2022-08-06T12:23:57Z</time>
      </trkpt>
      <trkpt lat="45.48625" lon="6.37729">
        <ele>2578</ele>
        <time>2022-08-06T12:24:12Z</time>
      </trkpt>
      <trkpt lat="45.48628" lon="6.3772">
        <ele>2581</ele>
        <time>2022-08-06T12:24:32Z</time>
      </trkpt>
      <trkpt lat="45.48633" lon="6.37712">
        <ele>2584</ele>
        <time>2022-08-06T12:24:47Z</time>
      </trkpt>
      <trkpt lat="45.48633" lon="6.37706">
        <ele>2588</ele>
        <time>2022-08-06T12:25:17Z</time>
      </trkpt>
      <trkpt lat="45.48634" lon="6.37699">
        <ele>2592</ele>
        <time>2022-08-06T12:26:05Z</time>
      </trkpt>
      <trkpt lat="45.48637" lon="6.37695">
        <ele>2594</ele>
        <time>2022-08-06T12:26:50Z</time>
      </trkpt>
      <trkpt lat="45.48643" lon="6.37698">
        <ele>2596</ele>
        <time>2022-08-06T12:27:00Z</time>
      </trkpt>
      <trkpt lat="45.48647" lon="6.37701">
        <ele>2600</ele>
        <time>2022-08-06T12:27:25Z</time>
      </trkpt>
      <trkpt lat="45.48652" lon="6.37701">
        <ele>2603</ele>
        <time>2022-08-06T12:27:42Z</time>
      </trkpt>
      <trkpt lat="45.48655" lon="6.37712">
        <ele>2604</ele>
        <time>2022-08-06T12:28:03Z</time>
      </trkpt>
      <trkpt lat="45.48664" lon="6.37717">
        <ele>2609</ele>
        <time>2022-08-06T12:28:38Z</time>
      </trkpt>
      <trkpt lat="45.48668" lon="6.37721">
        <ele>2613</ele>
        <time>2022-08-06T12:29:08Z</time>
      </trkpt>
      <trkpt lat="45.48671" lon="6.37726">
        <ele>2615</ele>
        <time>2022-08-06T12:29:23Z</time>
      </trkpt>
      <trkpt lat="45.48676" lon="6.37725">
        <ele>2616</ele>
        <time>2022-08-06T12:29:49Z</time>
      </trkpt>
      <trkpt lat="45.48679" lon="6.37721">
        <ele>2619</ele>
        <time>2022-08-06T12:30:10Z</time>
      </trkpt>
      <trkpt lat="45.48683" lon="6.37718">
        <ele>2623</ele>
        <time>2022-08-06T12:30:35Z</time>
      </trkpt>
      <trkpt lat="45.48684" lon="6.37711">
        <ele>2626</ele>
        <time>2022-08-06T12:30:55Z</time>
      </trkpt>
      <trkpt lat="45.4869" lon="6.37714">
        <ele>2630</ele>
        <time>2022-08-06T12:31:30Z</time>
      </trkpt>
      <trkpt lat="45.48695" lon="6.37715">
        <ele>2633</ele>
        <time>2022-08-06T12:31:51Z</time>
      </trkpt>
      <trkpt lat="45.48698" lon="6.37719">
        <ele>2634</ele>
        <time>2022-08-06T12:32:18Z</time>
      </trkpt>
      <trkpt lat="45.48702" lon="6.37721">
        <ele>2636</ele>
        <time>2022-08-06T12:32:38Z</time>
      </trkpt>
      <trkpt lat="45.48707" lon="6.37725">
        <ele>2634</ele>
        <time>2022-08-06T12:33:28Z</time>
      </trkpt>
      <trkpt lat="45.4871" lon="6.37722">
        <ele>2631</ele>
        <time>2022-08-06T12:33:54Z</time>
      </trkpt>
      <trkpt lat="45.48715" lon="6.37722">
        <ele>2628</ele>
        <time>2022-08-06T12:34:41Z</time>
      </trkpt>
      <trkpt lat="45.48719" lon="6.37727">
        <ele>2628</ele>
        <time>2022-08-06T12:34:56Z</time>
      </trkpt>
      <trkpt lat="45.48722" lon="6.37732">
        <ele>2628</ele>
        <time>2022-08-06T12:36:43Z</time>
      </trkpt>
    </trkseg>
  </trk>
  <trk>
    <name><![CDATA[5 août 2022 à 21:21:59]]></name>
    <cmt><![CDATA[5 août 2022 à 21:21:59]]></cmt>
    <trkseg>
  </trk>
  <trk>
    <name><![CDATA[5 août 2022 à 10:07:42]]></name>
    <cmt><![CDATA[5 août 2022 à 10:07:42]]></cmt>
    <trkseg>
      <trkpt lat="45.47469" lon="6.4163">
        <ele>1363</ele>
        <time>2022-08-05T08:07:43Z</time>
      </trkpt>
      <trkpt lat="45.47469" lon="6.4163">
        <ele>1363</ele>
        <time>2022-08-05T08:07:44Z</time>
      </trkpt>
      <trkpt lat="45.47474" lon="6.41629">
        <ele>1363</ele>
        <time>2022-08-05T08:07:53Z</time>
      </trkpt>
      <trkpt lat="45.47485" lon="6.4163">
        <ele>1364</ele>
        <time>2022-08-05T08:08:06Z</time>
      </trkpt>
      <trkpt lat="45.47497" lon="6.41625">
        <ele>1365</ele>
        <time>2022-08-05T08:08:18Z</time>
      </trkpt>
      <trkpt lat="45.475" lon="6.4162">
        <ele>1365</ele>
        <time>2022-08-05T08:08:23Z</time>
      </trkpt>
      <trkpt lat="45.47504" lon="6.4161">
        <ele>1366</ele>
        <time>2022-08-05T08:08:37Z</time>
      </trkpt>
      <trkpt lat="45.47506" lon="6.41604">
        <ele>1368</ele>
        <time>2022-08-05T08:11:03Z</time>
      </trkpt>
      <trkpt lat="45.47513" lon="6.4157">
        <ele>1370</ele>
        <time>2022-08-05T08:11:41Z</time>
      </trkpt>
      <trkpt lat="45.47515" lon="6.41553">
        <ele>1371</ele>
        <time>2022-08-05T08:12:18Z</time>
      </trkpt>
      <trkpt lat="45.47521" lon="6.41511">
        <ele>1373</ele>
        <time>2022-08-05T08:13:08Z</time>
      </trkpt>
      <trkpt lat="45.47528" lon="6.41465">
        <ele>1376</ele>
        <time>2022-08-05T08:13:41Z</time>
      </trkpt>
      <trkpt lat="45.47536" lon="6.41424">
        <ele>1378</ele>
        <time>2022-08-05T08:14:09Z</time>
      </trkpt>
      <trkpt lat="45.47545" lon="6.41402">
        <ele>1380</ele>
        <time>2022-08-05T08:14:25Z</time>
      </trkpt>
      <trkpt lat="45.47555" lon="6.41389">
        <ele>1381</ele>
        <time>2022-08-05T08:14:37Z</time>
      </trkpt>
      <trkpt lat="45.47584" lon="6.41357">
        <ele>1383</ele>
        <time>2022-08-05T08:15:09Z</time>
      </trkpt>
      <trkpt lat="45.47587" lon="6.41352">
        <ele>1384</ele>
        <time>2022-08-05T08:15:14Z</time>
      </trkpt>
      <trkpt lat="45.47588" lon="6.41346">
        <ele>1384</ele>
        <time>2022-08-05T08:15:19Z</time>
      </trkpt>
      <trkpt lat="45.47592" lon="6.41339">
        <ele>1384</ele>
        <time>2022-08-05T08:15:26Z</time>
      </trkpt>
      <trkpt lat="45.47588" lon="6.41338">
        <ele>1385</ele>
        <time>2022-08-05T08:15:46Z</time>
      </trkpt>
      <trkpt lat="45.47584" lon="6.41346">
        <ele>1385</ele>
        <time>2022-08-05T08:15:56Z</time>
      </trkpt>
      <trkpt lat="45.47584" lon="6.41353">
        <ele>1385</ele>
        <time>2022-08-05T08:16:01Z</time>
      </trkpt>
      <trkpt lat="45.47581" lon="6.41352">
        <ele>1385</ele>
        <time>2022-08-05T08:16:54Z</time>
      </trkpt>
      <trkpt lat="45.4758" lon="6.41345">
        <ele>1385</ele>
        <time>2022-08-05T08:17:09Z</time>
      </trkpt>
      <trkpt lat="45.47577" lon="6.4134">
        <ele>1385</ele>
        <time>2022-08-05T08:17:13Z</time>
      </trkpt>
      <trkpt lat="45.47573" lon="6.41342">
        <ele>1386</ele>
        <time>2022-08-05T08:17:40Z</time>
      </trkpt>
      <trkpt lat="45.47572" lon="6.41336">
        <ele>1387</ele>
        <time>2022-08-05T08:18:49Z</time>
      </trkpt>
      <trkpt lat="45.47562" lon="6.41338">
        <ele>1388</ele>
        <time>2022-08-05T08:18:57Z</time>
      </trkpt>
      <trkpt lat="45.47539" lon="6.41375">
        <ele>1391</ele>
        <time>2022-08-05T08:19:30Z</time>
      </trkpt>
      <trkpt lat="45.47535" lon="6.4138">
        <ele>1391</ele>
        <time>2022-08-05T08:19:35Z</time>
      </trkpt>
      <trkpt lat="45.4753" lon="6.41381">
        <ele>1392</ele>
        <time>2022-08-05T08:19:40Z</time>
      </trkpt>
      <trkpt lat="45.47527" lon="6.41374">
        <ele>1393</ele>
        <time>2022-08-05T08:19:50Z</time>
      </trkpt>
      <trkpt lat="45.47532" lon="6.41363">
        <ele>1394</ele>
        <time>2022-08-05T08:20:00Z</time>
      </trkpt>
      <trkpt lat="45.47551" lon="6.41335">
        <ele>1396</ele>
        <time>2022-08-05T08:20:31Z</time>
      </trkpt>
      <trkpt lat="45.47575" lon="6.41303">
        <ele>1399</ele>
        <time>2022-08-05T08:21:05Z</time>
      </trkpt>
      <trkpt lat="45.47578" lon="6.41298">
        <ele>1400</ele>
        <time>2022-08-05T08:21:10Z</time>
      </trkpt>
      <trkpt lat="45.47583" lon="6.41271">
        <ele>1403</ele>
        <time>2022-08-05T08:21:43Z</time>
      </trkpt>
      <trkpt lat="45.47585" lon="6.41264">
        <ele>1403</ele>
        <time>2022-08-05T08:22:08Z</time>
      </trkpt>
      <trkpt lat="45.47589" lon="6.41253">
        <ele>1404</ele>
        <time>2022-08-05T08:22:18Z</time>
      </trkpt>
      <trkpt lat="45.47611" lon="6.41215">
        <ele>1408</ele>
        <time>2022-08-05T08:22:51Z</time>
      </trkpt>
      <trkpt lat="45.4763" lon="6.41188">
        <ele>1412</ele>
        <time>2022-08-05T08:23:21Z</time>
      </trkpt>
      <trkpt lat="45.47642" lon="6.41173">
        <ele>1414</ele>
        <time>2022-08-05T08:23:39Z</time>
      </trkpt>
      <trkpt lat="45.47644" lon="6.41168">
        <ele>1414</ele>
        <time>2022-08-05T08:23:46Z</time>
      </trkpt>
      <trkpt lat="45.47643" lon="6.41161">
        <ele>1415</ele>
        <time>2022-08-05T08:23:51Z</time>
      </trkpt>
      <trkpt lat="45.47639" lon="6.41157">
        <ele>1415</ele>
        <time>2022-08-05T08:23:58Z</time>
      </trkpt>
      <trkpt lat="45.47627" lon="6.41162">
        <ele>1417</ele>
        <time>2022-08-05T08:24:13Z</time>
      </trkpt>
      <trkpt lat="45.4761" lon="6.41166">
        <ele>1419</ele>
        <time>2022-08-05T08:24:38Z</time>
      </trkpt>
      <trkpt lat="45.47599" lon="6.41174">
        <ele>1421</ele>
        <time>2022-08-05T08:24:53Z</time>
      </trkpt>
      <trkpt lat="45.47595" lon="6.41178">
        <ele>1421</ele>
        <time>2022-08-05T08:25:00Z</time>
      </trkpt>
      <trkpt lat="45.47592" lon="6.41171">
        <ele>1423</ele>
        <time>2022-08-05T08:26:00Z</time>
      </trkpt>
      <trkpt lat="45.47587" lon="6.41168">
        <ele>1425</ele>
        <time>2022-08-05T08:26:15Z</time>
      </trkpt>
      <trkpt lat="45.47588" lon="6.4116">
        <ele>1429</ele>
        <time>2022-08-05T08:26:42Z</time>
      </trkpt>
      <trkpt lat="45.47589" lon="6.41151">
        <ele>1431</ele>
        <time>2022-08-05T08:27:02Z</time>
      </trkpt>
      <trkpt lat="45.47585" lon="6.41147">
        <ele>1433</ele>
        <time>2022-08-05T08:27:12Z</time>
      </trkpt>
      <trkpt lat="45.47586" lon="6.41141">
        <ele>1435</ele>
        <time>2022-08-05T08:27:27Z</time>
      </trkpt>
      <trkpt lat="45.47586" lon="6.41127">
        <ele>1439</ele>
        <time>2022-08-05T08:28:44Z</time>
      </trkpt>
      <trkpt lat="45.4759" lon="6.41121">
        <ele>1440</ele>
        <time>2022-08-05T08:29:00Z</time>
      </trkpt>
      <trkpt lat="45.47592" lon="6.41114">
        <ele>1442</ele>
        <time>2022-08-05T08:29:20Z</time>
      </trkpt>
      <trkpt lat="45.47592" lon="6.41106">
        <ele>1445</ele>
        <time>2022-08-05T08:29:40Z</time>
      </trkpt>
      <trkpt lat="45.47592" lon="6.411">
        <ele>1447</ele>
        <time>2022-08-05T08:30:00Z</time>
      </trkpt>
      <trkpt lat="45.4759" lon="6.41093">
        <ele>1448</ele>
        <time>2022-08-05T08:30:25Z</time>
      </trkpt>
      <trkpt lat="45.47591" lon="6.41086">
        <ele>1450</ele>
        <time>2022-08-05T08:30:41Z</time>
      </trkpt>
      <trkpt lat="45.4759" lon="6.4108">
        <ele>1453</ele>
        <time>2022-08-05T08:30:58Z</time>
      </trkpt>
      <trkpt lat="45.47587" lon="6.41073">
        <ele>1455</ele>
        <time>2022-08-05T08:31:18Z</time>
      </trkpt>
      <trkpt lat="45.47588" lon="6.41065">
        <ele>1458</ele>
        <time>2022-08-05T08:31:38Z</time>
      </trkpt>
      <trkpt lat="45.47584" lon="6.41054">
        <ele>1463</ele>
        <time>2022-08-05T08:33:00Z</time>
      </trkpt>
      <trkpt lat="45.47583" lon="6.41053">
        <ele>1463</ele>
        <time>2022-08-05T08:35:18Z</time>
      </trkpt>
      <trkpt lat="45.47593" lon="6.41041">
        <ele>1464</ele>
        <time>2022-08-05T08:35:48Z</time>
      </trkpt>
      <trkpt lat="45.47601" lon="6.41026">
        <ele>1465</ele>
        <time>2022-08-05T08:36:18Z</time>
      </trkpt>
      <trkpt lat="45.47608" lon="6.4102">
        <ele>1466</ele>
        <time>2022-08-05T08:36:29Z</time>
      </trkpt>
      <trkpt lat="45.47623" lon="6.40996">
        <ele>1468</ele>
        <time>2022-08-05T08:37:02Z</time>
      </trkpt>
      <trkpt lat="45.47636" lon="6.40977">
        <ele>1470</ele>
        <time>2022-08-05T08:37:26Z</time>
      </trkpt>
      <trkpt lat="45.4764" lon="6.40967">
        <ele>1471</ele>
        <time>2022-08-05T08:37:36Z</time>
      </trkpt>
      <trkpt lat="45.47651" lon="6.40954">
        <ele>1473</ele>
        <time>2022-08-05T08:37:58Z</time>
      </trkpt>
      <trkpt lat="45.47668" lon="6.40942">
        <ele>1475</ele>
        <time>2022-08-05T08:38:25Z</time>
      </trkpt>
      <trkpt lat="45.47675" lon="6.40939">
        <ele>1476</ele>
        <time>2022-08-05T08:38:41Z</time>
      </trkpt>
      <trkpt lat="45.47681" lon="6.40932">
        <ele>1477</ele>
        <time>2022-08-05T08:38:51Z</time>
      </trkpt>
      <trkpt lat="45.47685" lon="6.40933">
        <ele>1477</ele>
        <time>2022-08-05T08:38:58Z</time>
      </trkpt>
      <trkpt lat="45.47688" lon="6.4093">
        <ele>1478</ele>
        <time>2022-08-05T08:39:57Z</time>
      </trkpt>
      <trkpt lat="45.47699" lon="6.40923">
        <ele>1479</ele>
        <time>2022-08-05T08:40:27Z</time>
      </trkpt>
      <trkpt lat="45.47705" lon="6.40917">
        <ele>1480</ele>
        <time>2022-08-05T08:40:37Z</time>
      </trkpt>
      <trkpt lat="45.4771" lon="6.40915">
        <ele>1481</ele>
        <time>2022-08-05T08:40:57Z</time>
      </trkpt>
      <trkpt lat="45.47713" lon="6.4091">
        <ele>1481</ele>
        <time>2022-08-05T08:41:02Z</time>
      </trkpt>
      <trkpt lat="45.47732" lon="6.40882">
        <ele>1484</ele>
        <time>2022-08-05T08:41:33Z</time>
      </trkpt>
      <trkpt lat="45.47754" lon="6.40855">
        <ele>1487</ele>
        <time>2022-08-05T08:42:11Z</time>
      </trkpt>
      <trkpt lat="45.47759" lon="6.40849">
        <ele>1488</ele>
        <time>2022-08-05T08:42:21Z</time>
      </trkpt>
      <trkpt lat="45.47768" lon="6.40844">
        <ele>1489</ele>
        <time>2022-08-05T08:42:33Z</time>
      </trkpt>
      <trkpt lat="45.47788" lon="6.40846">
        <ele>1490</ele>
        <time>2022-08-05T08:42:59Z</time>
      </trkpt>
      <trkpt lat="45.47792" lon="6.40846">
        <ele>1490</ele>
        <time>2022-08-05T08:43:14Z</time>
      </trkpt>
      <trkpt lat="45.47797" lon="6.40846">
        <ele>1490</ele>
        <time>2022-08-05T08:43:20Z</time>
      </trkpt>
      <trkpt lat="45.47801" lon="6.40849">
        <ele>1490</ele>
        <time>2022-08-05T08:43:24Z</time>
      </trkpt>
      <trkpt lat="45.47806" lon="6.40847">
        <ele>1491</ele>
        <time>2022-08-05T08:43:29Z</time>
      </trkpt>
      <trkpt lat="45.47812" lon="6.40845">
        <ele>1491</ele>
        <time>2022-08-05T08:43:36Z</time>
      </trkpt>
      <trkpt lat="45.47817" lon="6.40845">
        <ele>1492</ele>
        <time>2022-08-05T08:43:43Z</time>
      </trkpt>
      <trkpt lat="45.47821" lon="6.40845">
        <ele>1492</ele>
        <time>2022-08-05T08:44:03Z</time>
      </trkpt>
      <trkpt lat="45.47817" lon="6.40838">
        <ele>1491</ele>
        <time>2022-08-05T08:45:45Z</time>
      </trkpt>
      <trkpt lat="45.47816" lon="6.40843">
        <ele>1490</ele>
        <time>2022-08-05T08:46:14Z</time>
      </trkpt>
      <trkpt lat="45.47819" lon="6.40847">
        <ele>1491</ele>
        <time>2022-08-05T08:46:43Z</time>
      </trkpt>
      <trkpt lat="45.47825" lon="6.40847">
        <ele>1491</ele>
        <time>2022-08-05T08:47:18Z</time>
      </trkpt>
      <trkpt lat="45.47827" lon="6.40855">
        <ele>1491</ele>
        <time>2022-08-05T08:48:01Z</time>
      </trkpt>
      <trkpt lat="45.4783" lon="6.40861">
        <ele>1492</ele>
        <time>2022-08-05T08:48:11Z</time>
      </trkpt>
      <trkpt lat="45.47828" lon="6.40868">
        <ele>1493</ele>
        <time>2022-08-05T08:48:31Z</time>
      </trkpt>
      <trkpt lat="45.47826" lon="6.40886">
        <ele>1494</ele>
        <time>2022-08-05T08:48:52Z</time>
      </trkpt>
      <trkpt lat="45.4782" lon="6.40922">
        <ele>1497</ele>
        <time>2022-08-05T08:49:26Z</time>
      </trkpt>
      <trkpt lat="45.47818" lon="6.40932">
        <ele>1498</ele>
        <time>2022-08-05T08:49:38Z</time>
      </trkpt>
      <trkpt lat="45.4782" lon="6.40939">
        <ele>1499</ele>
        <time>2022-08-05T08:49:59Z</time>
      </trkpt>
      <trkpt lat="45.4782" lon="6.40947">
        <ele>1499</ele>
        <time>2022-08-05T08:50:04Z</time>
      </trkpt>
      <trkpt lat="45.47819" lon="6.40955">
        <ele>1499</ele>
        <time>2022-08-05T08:50:11Z</time>
      </trkpt>
      <trkpt lat="45.47819" lon="6.40965">
        <ele>1500</ele>
        <time>2022-08-05T08:50:18Z</time>
      </trkpt>
      <trkpt lat="45.47825" lon="6.40965">
        <ele>1501</ele>
        <time>2022-08-05T08:50:30Z</time>
      </trkpt>
      <trkpt lat="45.47835" lon="6.40946">
        <ele>1506</ele>
        <time>2022-08-05T08:51:05Z</time>
      </trkpt>
      <trkpt lat="45.47845" lon="6.4093">
        <ele>1509</ele>
        <time>2022-08-05T08:51:37Z</time>
      </trkpt>
      <trkpt lat="45.4785" lon="6.40925">
        <ele>1511</ele>
        <time>2022-08-05T08:51:54Z</time>
      </trkpt>
      <trkpt lat="45.47855" lon="6.40914">
        <ele>1514</ele>
        <time>2022-08-05T08:52:14Z</time>
      </trkpt>
      <trkpt lat="45.47857" lon="6.40908">
        <ele>1514</ele>
        <time>2022-08-05T08:52:24Z</time>
      </trkpt>
      <trkpt lat="45.47855" lon="6.40913">
        <ele>1515</ele>
        <time>2022-08-05T08:52:53Z</time>
      </trkpt>
      <trkpt lat="45.4785" lon="6.40925">
        <ele>1513</ele>
        <time>2022-08-05T08:53:15Z</time>
      </trkpt>
      <trkpt lat="45.47845" lon="6.40926">
        <ele>1510</ele>
        <time>2022-08-05T08:53:40Z</time>
      </trkpt>
      <trkpt lat="45.47837" lon="6.40936">
        <ele>1508</ele>
        <time>2022-08-05T08:53:53Z</time>
      </trkpt>
      <trkpt lat="45.47827" lon="6.40957">
        <ele>1504</ele>
        <time>2022-08-05T08:54:25Z</time>
      </trkpt>
      <trkpt lat="45.47824" lon="6.40961">
        <ele>1503</ele>
        <time>2022-08-05T08:54:35Z</time>
      </trkpt>
      <trkpt lat="45.4782" lon="6.40972">
        <ele>1501</ele>
        <time>2022-08-05T08:54:56Z</time>
      </trkpt>
      <trkpt lat="45.4782" lon="6.40979">
        <ele>1501</ele>
        <time>2022-08-05T08:55:01Z</time>
      </trkpt>
      <trkpt lat="45.47823" lon="6.40984">
        <ele>1502</ele>
        <time>2022-08-05T08:55:06Z</time>
      </trkpt>
      <trkpt lat="45.47822" lon="6.40993">
        <ele>1502</ele>
        <time>2022-08-05T08:55:14Z</time>
      </trkpt>
      <trkpt lat="45.47825" lon="6.41017">
        <ele>1504</ele>
        <time>2022-08-05T08:55:42Z</time>
      </trkpt>
      <trkpt lat="45.47827" lon="6.41018">
        <ele>1503</ele>
        <time>2022-08-05T08:57:35Z</time>
      </trkpt>
      <trkpt lat="45.47826" lon="6.41026">
        <ele>1503</ele>
        <time>2022-08-05T08:57:55Z</time>
      </trkpt>
      <trkpt lat="45.47832" lon="6.41065">
        <ele>1506</ele>
        <time>2022-08-05T08:58:34Z</time>
      </trkpt>
      <trkpt lat="45.47837" lon="6.41083">
        <ele>1507</ele>
        <time>2022-08-05T08:58:54Z</time>
      </trkpt>
      <trkpt lat="45.47836" lon="6.41091">
        <ele>1507</ele>
        <time>2022-08-05T08:59:04Z</time>
      </trkpt>
      <trkpt lat="45.47847" lon="6.41089">
        <ele>1509</ele>
        <time>2022-08-05T08:59:34Z</time>
      </trkpt>
      <trkpt lat="45.47853" lon="6.41094">
        <ele>1509</ele>
        <time>2022-08-05T09:00:42Z</time>
      </trkpt>
      <trkpt lat="45.47859" lon="6.411">
        <ele>1511</ele>
        <time>2022-08-05T09:00:57Z</time>
      </trkpt>
      <trkpt lat="45.47861" lon="6.41106">
        <ele>1512</ele>
        <time>2022-08-05T09:01:14Z</time>
      </trkpt>
      <trkpt lat="45.4786" lon="6.41113">
        <ele>1513</ele>
        <time>2022-08-05T09:01:35Z</time>
      </trkpt>
      <trkpt lat="45.4786" lon="6.4112">
        <ele>1513</ele>
        <time>2022-08-05T09:01:40Z</time>
      </trkpt>
      <trkpt lat="45.47863" lon="6.41128">
        <ele>1514</ele>
        <time>2022-08-05T09:01:49Z</time>
      </trkpt>
      <trkpt lat="45.47867" lon="6.41138">
        <ele>1513</ele>
        <time>2022-08-05T09:01:59Z</time>
      </trkpt>
      <trkpt lat="45.47868" lon="6.41151">
        <ele>1513</ele>
        <time>2022-08-05T09:02:09Z</time>
      </trkpt>
      <trkpt lat="45.47868" lon="6.41157">
        <ele>1513</ele>
        <time>2022-08-05T09:02:16Z</time>
      </trkpt>
      <trkpt lat="45.4787" lon="6.41163">
        <ele>1514</ele>
        <time>2022-08-05T09:02:27Z</time>
      </trkpt>
      <trkpt lat="45.47868" lon="6.41171">
        <ele>1514</ele>
        <time>2022-08-05T09:02:38Z</time>
      </trkpt>
      <trkpt lat="45.4787" lon="6.41182">
        <ele>1515</ele>
        <time>2022-08-05T09:02:47Z</time>
      </trkpt>
      <trkpt lat="45.47871" lon="6.4121">
        <ele>1517</ele>
        <time>2022-08-05T09:03:14Z</time>
      </trkpt>
      <trkpt lat="45.47873" lon="6.41216">
        <ele>1518</ele>
        <time>2022-08-05T09:03:24Z</time>
      </trkpt>
      <trkpt lat="45.47876" lon="6.41222">
        <ele>1519</ele>
        <time>2022-08-05T09:03:34Z</time>
      </trkpt>
      <trkpt lat="45.47878" lon="6.4124">
        <ele>1521</ele>
        <time>2022-08-05T09:04:14Z</time>
      </trkpt>
      <trkpt lat="45.47876" lon="6.41247">
        <ele>1522</ele>
        <time>2022-08-05T09:04:26Z</time>
      </trkpt>
      <trkpt lat="45.4788" lon="6.41263">
        <ele>1523</ele>
        <time>2022-08-05T09:04:48Z</time>
      </trkpt>
      <trkpt lat="45.47884" lon="6.41269">
        <ele>1524</ele>
        <time>2022-08-05T09:05:03Z</time>
      </trkpt>
      <trkpt lat="45.47894" lon="6.41293">
        <ele>1526</ele>
        <time>2022-08-05T09:05:33Z</time>
      </trkpt>
      <trkpt lat="45.47895" lon="6.41299">
        <ele>1526</ele>
        <time>2022-08-05T09:05:38Z</time>
      </trkpt>
      <trkpt lat="45.47901" lon="6.41308">
        <ele>1527</ele>
        <time>2022-08-05T09:05:48Z</time>
      </trkpt>
      <trkpt lat="45.47904" lon="6.41317">
        <ele>1526</ele>
        <time>2022-08-05T09:06:00Z</time>
      </trkpt>
      <trkpt lat="45.47909" lon="6.41321">
        <ele>1527</ele>
        <time>2022-08-05T09:06:10Z</time>
      </trkpt>
      <trkpt lat="45.47911" lon="6.41329">
        <ele>1527</ele>
        <time>2022-08-05T09:06:20Z</time>
      </trkpt>
      <trkpt lat="45.47914" lon="6.4132">
        <ele>1527</ele>
        <time>2022-08-05T09:06:50Z</time>
      </trkpt>
      <trkpt lat="45.47911" lon="6.41314">
        <ele>1527</ele>
        <time>2022-08-05T09:07:05Z</time>
      </trkpt>
      <trkpt lat="45.47907" lon="6.4132">
        <ele>1527</ele>
        <time>2022-08-05T09:07:20Z</time>
      </trkpt>
      <trkpt lat="45.47904" lon="6.41315">
        <ele>1527</ele>
        <time>2022-08-05T09:07:37Z</time>
      </trkpt>
      <trkpt lat="45.47906" lon="6.41309">
        <ele>1527</ele>
        <time>2022-08-05T09:07:52Z</time>
      </trkpt>
      <trkpt lat="45.47898" lon="6.41298">
        <ele>1527</ele>
        <time>2022-08-05T09:08:08Z</time>
      </trkpt>
      <trkpt lat="45.47895" lon="6.41305">
        <ele>1527</ele>
        <time>2022-08-05T09:08:20Z</time>
      </trkpt>
      <trkpt lat="45.479" lon="6.41311">
        <ele>1527</ele>
        <time>2022-08-05T09:08:31Z</time>
      </trkpt>
      <trkpt lat="45.47901" lon="6.41317">
        <ele>1527</ele>
        <time>2022-08-05T09:08:58Z</time>
      </trkpt>
      <trkpt lat="45.4791" lon="6.41325">
        <ele>1527</ele>
        <time>2022-08-05T09:09:13Z</time>
      </trkpt>
      <trkpt lat="45.47916" lon="6.41331">
        <ele>1527</ele>
        <time>2022-08-05T09:09:24Z</time>
      </trkpt>
      <trkpt lat="45.47926" lon="6.41343">
        <ele>1528</ele>
        <time>2022-08-05T09:09:55Z</time>
      </trkpt>
      <trkpt lat="45.47942" lon="6.41357">
        <ele>1530</ele>
        <time>2022-08-05T09:10:52Z</time>
      </trkpt>
      <trkpt lat="45.47948" lon="6.4136">
        <ele>1531</ele>
        <time>2022-08-05T09:11:02Z</time>
      </trkpt>
      <trkpt lat="45.47954" lon="6.4137">
        <ele>1532</ele>
        <time>2022-08-05T09:11:14Z</time>
      </trkpt>
      <trkpt lat="45.47959" lon="6.41375">
        <ele>1533</ele>
        <time>2022-08-05T09:11:31Z</time>
      </trkpt>
      <trkpt lat="45.47965" lon="6.4138">
        <ele>1534</ele>
        <time>2022-08-05T09:11:42Z</time>
      </trkpt>
      <trkpt lat="45.47969" lon="6.41385">
        <ele>1534</ele>
        <time>2022-08-05T09:11:47Z</time>
      </trkpt>
      <trkpt lat="45.47976" lon="6.41387">
        <ele>1535</ele>
        <time>2022-08-05T09:12:02Z</time>
      </trkpt>
      <trkpt lat="45.47991" lon="6.41389">
        <ele>1536</ele>
        <time>2022-08-05T09:12:22Z</time>
      </trkpt>
      <trkpt lat="45.47996" lon="6.41395">
        <ele>1536</ele>
        <time>2022-08-05T09:12:31Z</time>
      </trkpt>
      <trkpt lat="45.48" lon="6.41396">
        <ele>1535</ele>
        <time>2022-08-05T09:12:35Z</time>
      </trkpt>
      <trkpt lat="45.48021" lon="6.41397">
        <ele>1534</ele>
        <time>2022-08-05T09:12:56Z</time>
      </trkpt>
      <trkpt lat="45.48028" lon="6.414">
        <ele>1534</ele>
        <time>2022-08-05T09:13:08Z</time>
      </trkpt>
      <trkpt lat="45.48034" lon="6.41398">
        <ele>1534</ele>
        <time>2022-08-05T09:13:18Z</time>
      </trkpt>
      <trkpt lat="45.48042" lon="6.41403">
        <ele>1533</ele>
        <time>2022-08-05T09:13:43Z</time>
      </trkpt>
      <trkpt lat="45.48047" lon="6.41403">
        <ele>1534</ele>
        <time>2022-08-05T09:13:54Z</time>
      </trkpt>
      <trkpt lat="45.48052" lon="6.41405">
        <ele>1535</ele>
        <time>2022-08-05T09:14:04Z</time>
      </trkpt>
      <trkpt lat="45.48061" lon="6.41405">
        <ele>1536</ele>
        <time>2022-08-05T09:14:17Z</time>
      </trkpt>
      <trkpt lat="45.48062" lon="6.41411">
        <ele>1537</ele>
        <time>2022-08-05T09:14:24Z</time>
      </trkpt>
      <trkpt lat="45.48066" lon="6.41413">
        <ele>1538</ele>
        <time>2022-08-05T09:14:37Z</time>
      </trkpt>
      <trkpt lat="45.48071" lon="6.41416">
        <ele>1538</ele>
        <time>2022-08-05T09:14:48Z</time>
      </trkpt>
      <trkpt lat="45.48076" lon="6.41415">
        <ele>1538</ele>
        <time>2022-08-05T09:14:52Z</time>
      </trkpt>
      <trkpt lat="45.48088" lon="6.41402">
        <ele>1537</ele>
        <time>2022-08-05T09:15:14Z</time>
      </trkpt>
      <trkpt lat="45.48094" lon="6.41401">
        <ele>1537</ele>
        <time>2022-08-05T09:15:24Z</time>
      </trkpt>
      <trkpt lat="45.48099" lon="6.414">
        <ele>1538</ele>
        <time>2022-08-05T09:15:34Z</time>
      </trkpt>
      <trkpt lat="45.48106" lon="6.414">
        <ele>1538</ele>
        <time>2022-08-05T09:15:44Z</time>
      </trkpt>
      <trkpt lat="45.48113" lon="6.41405">
        <ele>1537</ele>
        <time>2022-08-05T09:15:54Z</time>
      </trkpt>
      <trkpt lat="45.48119" lon="6.41407">
        <ele>1537</ele>
        <time>2022-08-05T09:16:04Z</time>
      </trkpt>
      <trkpt lat="45.48124" lon="6.41413">
        <ele>1536</ele>
        <time>2022-08-05T09:16:15Z</time>
      </trkpt>
      <trkpt lat="45.48129" lon="6.41413">
        <ele>1536</ele>
        <time>2022-08-05T09:16:19Z</time>
      </trkpt>
      <trkpt lat="45.48138" lon="6.41418">
        <ele>1536</ele>
        <time>2022-08-05T09:16:36Z</time>
      </trkpt>
      <trkpt lat="45.48142" lon="6.41422">
        <ele>1535</ele>
        <time>2022-08-05T09:16:46Z</time>
      </trkpt>
      <trkpt lat="45.4815" lon="6.41434">
        <ele>1535</ele>
        <time>2022-08-05T09:17:21Z</time>
      </trkpt>
      <trkpt lat="45.48154" lon="6.41437">
        <ele>1535</ele>
        <time>2022-08-05T09:17:26Z</time>
      </trkpt>
      <trkpt lat="45.48159" lon="6.41441">
        <ele>1535</ele>
        <time>2022-08-05T09:17:36Z</time>
      </trkpt>
      <trkpt lat="45.48166" lon="6.41447">
        <ele>1536</ele>
        <time>2022-08-05T09:17:46Z</time>
      </trkpt>
      <trkpt lat="45.48175" lon="6.41472">
        <ele>1538</ele>
        <time>2022-08-05T09:18:25Z</time>
      </trkpt>
      <trkpt lat="45.48179" lon="6.41475">
        <ele>1539</ele>
        <time>2022-08-05T09:18:31Z</time>
      </trkpt>
      <trkpt lat="45.48185" lon="6.41487">
        <ele>1539</ele>
        <time>2022-08-05T09:18:46Z</time>
      </trkpt>
      <trkpt lat="45.48191" lon="6.41492">
        <ele>1539</ele>
        <time>2022-08-05T09:18:56Z</time>
      </trkpt>
      <trkpt lat="45.48197" lon="6.41497">
        <ele>1539</ele>
        <time>2022-08-05T09:19:08Z</time>
      </trkpt>
      <trkpt lat="45.482" lon="6.41503">
        <ele>1539</ele>
        <time>2022-08-05T09:19:14Z</time>
      </trkpt>
      <trkpt lat="45.48206" lon="6.4151">
        <ele>1538</ele>
        <time>2022-08-05T09:19:27Z</time>
      </trkpt>
      <trkpt lat="45.48209" lon="6.41516">
        <ele>1537</ele>
        <time>2022-08-05T09:19:30Z</time>
      </trkpt>
      <trkpt lat="45.48216" lon="6.41517">
        <ele>1536</ele>
        <time>2022-08-05T09:19:57Z</time>
      </trkpt>
      <trkpt lat="45.48222" lon="6.41529">
        <ele>1534</ele>
        <time>2022-08-05T09:20:14Z</time>
      </trkpt>
      <trkpt lat="45.48233" lon="6.41538">
        <ele>1532</ele>
        <time>2022-08-05T09:20:35Z</time>
      </trkpt>
      <trkpt lat="45.48237" lon="6.41548">
        <ele>1531</ele>
        <time>2022-08-05T09:21:06Z</time>
      </trkpt>
      <trkpt lat="45.48242" lon="6.41555">
        <ele>1530</ele>
        <time>2022-08-05T09:21:28Z</time>
      </trkpt>
      <trkpt lat="45.48246" lon="6.41558">
        <ele>1528</ele>
        <time>2022-08-05T09:21:43Z</time>
      </trkpt>
      <trkpt lat="45.48247" lon="6.41566">
        <ele>1526</ele>
        <time>2022-08-05T09:21:58Z</time>
      </trkpt>
      <trkpt lat="45.48247" lon="6.41575">
        <ele>1523</ele>
        <time>2022-08-05T09:22:13Z</time>
      </trkpt>
      <trkpt lat="45.48252" lon="6.41577">
        <ele>1522</ele>
        <time>2022-08-05T09:22:18Z</time>
      </trkpt>
      <trkpt lat="45.4826" lon="6.41584">
        <ele>1520</ele>
        <time>2022-08-05T09:22:30Z</time>
      </trkpt>
      <trkpt lat="45.48262" lon="6.41591">
        <ele>1519</ele>
        <time>2022-08-05T09:22:40Z</time>
      </trkpt>
      <trkpt lat="45.48265" lon="6.41596">
        <ele>1518</ele>
        <time>2022-08-05T09:23:22Z</time>
      </trkpt>
      <trkpt lat="45.48273" lon="6.41606">
        <ele>1515</ele>
        <time>2022-08-05T09:23:43Z</time>
      </trkpt>
      <trkpt lat="45.48277" lon="6.41611">
        <ele>1515</ele>
        <time>2022-08-05T09:23:59Z</time>
      </trkpt>
      <trkpt lat="45.48283" lon="6.41618">
        <ele>1514</ele>
        <time>2022-08-05T09:24:09Z</time>
      </trkpt>
      <trkpt lat="45.48287" lon="6.41621">
        <ele>1513</ele>
        <time>2022-08-05T09:24:24Z</time>
      </trkpt>
      <trkpt lat="45.4829" lon="6.41628">
        <ele>1512</ele>
        <time>2022-08-05T09:24:34Z</time>
      </trkpt>
      <trkpt lat="45.48301" lon="6.41641">
        <ele>1510</ele>
        <time>2022-08-05T09:25:05Z</time>
      </trkpt>
      <trkpt lat="45.48296" lon="6.41636">
        <ele>1511</ele>
        <time>2022-08-05T09:25:21Z</time>
      </trkpt>
      <trkpt lat="45.48298" lon="6.41635">
        <ele>1511</ele>
        <time>2022-08-05T09:25:54Z</time>
      </trkpt>
      <trkpt lat="45.48298" lon="6.41632">
        <ele>1512</ele>
        <time>2022-08-05T09:28:07Z</time>
      </trkpt>
      <trkpt lat="45.48302" lon="6.4164">
        <ele>1512</ele>
        <time>2022-08-05T09:29:24Z</time>
      </trkpt>
      <trkpt lat="45.483" lon="6.41645">
        <ele>1512</ele>
        <time>2022-08-05T09:29:37Z</time>
      </trkpt>
      <trkpt lat="45.48306" lon="6.41644">
        <ele>1511</ele>
        <time>2022-08-05T09:29:57Z</time>
      </trkpt>
      <trkpt lat="45.48308" lon="6.4165">
        <ele>1510</ele>
        <time>2022-08-05T09:30:01Z</time>
      </trkpt>
      <trkpt lat="45.48309" lon="6.41656">
        <ele>1509</ele>
        <time>2022-08-05T09:30:05Z</time>
      </trkpt>
      <trkpt lat="45.4831" lon="6.41662">
        <ele>1509</ele>
        <time>2022-08-05T09:30:08Z</time>
      </trkpt>
      <trkpt lat="45.48315" lon="6.41665">
        <ele>1509</ele>
        <time>2022-08-05T09:30:12Z</time>
      </trkpt>
      <trkpt lat="45.48319" lon="6.41668">
        <ele>1509</ele>
        <time>2022-08-05T09:30:16Z</time>
      </trkpt>
      <trkpt lat="45.48323" lon="6.41672">
        <ele>1509</ele>
        <time>2022-08-05T09:30:20Z</time>
      </trkpt>
      <trkpt lat="45.48326" lon="6.41685">
        <ele>1510</ele>
        <time>2022-08-05T09:30:27Z</time>
      </trkpt>
      <trkpt lat="45.48327" lon="6.41691">
        <ele>1510</ele>
        <time>2022-08-05T09:30:30Z</time>
      </trkpt>
      <trkpt lat="45.4833" lon="6.41697">
        <ele>1511</ele>
        <time>2022-08-05T09:30:34Z</time>
      </trkpt>
      <trkpt lat="45.48337" lon="6.41705">
        <ele>1511</ele>
        <time>2022-08-05T09:30:41Z</time>
      </trkpt>
      <trkpt lat="45.48351" lon="6.41722">
        <ele>1510</ele>
        <time>2022-08-05T09:30:56Z</time>
      </trkpt>
      <trkpt lat="45.48355" lon="6.41723">
        <ele>1509</ele>
        <time>2022-08-05T09:31:01Z</time>
      </trkpt>
      <trkpt lat="45.4836" lon="6.41722">
        <ele>1509</ele>
        <time>2022-08-05T09:31:05Z</time>
      </trkpt>
      <trkpt lat="45.48364" lon="6.41719">
        <ele>1509</ele>
        <time>2022-08-05T09:31:09Z</time>
      </trkpt>
      <trkpt lat="45.48375" lon="6.41717">
        <ele>1511</ele>
        <time>2022-08-05T09:31:20Z</time>
      </trkpt>
      <trkpt lat="45.4838" lon="6.41715">
        <ele>1512</ele>
        <time>2022-08-05T09:31:27Z</time>
      </trkpt>
      <trkpt lat="45.48356" lon="6.41698">
        <ele>1517</ele>
        <time>2022-08-05T09:31:57Z</time>
      </trkpt>
      <trkpt lat="45.48352" lon="6.41693">
        <ele>1518</ele>
        <time>2022-08-05T09:32:05Z</time>
      </trkpt>
      <trkpt lat="45.48347" lon="6.41683">
        <ele>1520</ele>
        <time>2022-08-05T09:32:15Z</time>
      </trkpt>
      <trkpt lat="45.48349" lon="6.41681">
        <ele>1526</ele>
        <time>2022-08-05T09:32:45Z</time>
      </trkpt>
      <trkpt lat="45.48369" lon="6.41681">
        <ele>1529</ele>
        <time>2022-08-05T09:33:06Z</time>
      </trkpt>
      <trkpt lat="45.48384" lon="6.4168">
        <ele>1533</ele>
        <time>2022-08-05T09:33:26Z</time>
      </trkpt>
      <trkpt lat="45.48391" lon="6.41681">
        <ele>1535</ele>
        <time>2022-08-05T09:33:37Z</time>
      </trkpt>
      <trkpt lat="45.48401" lon="6.41679">
        <ele>1537</ele>
        <time>2022-08-05T09:33:48Z</time>
      </trkpt>
      <trkpt lat="45.48405" lon="6.41676">
        <ele>1537</ele>
        <time>2022-08-05T09:33:53Z</time>
      </trkpt>
      <trkpt lat="45.48418" lon="6.41668">
        <ele>1540</ele>
        <time>2022-08-05T09:34:12Z</time>
      </trkpt>
      <trkpt lat="45.48429" lon="6.41667">
        <ele>1542</ele>
        <time>2022-08-05T09:34:26Z</time>
      </trkpt>
      <trkpt lat="45.48437" lon="6.41662">
        <ele>1543</ele>
        <time>2022-08-05T09:34:35Z</time>
      </trkpt>
      <trkpt lat="45.48455" lon="6.41654">
        <ele>1549</ele>
        <time>2022-08-05T09:34:59Z</time>
      </trkpt>
      <trkpt lat="45.48484" lon="6.41654">
        <ele>1554</ele>
        <time>2022-08-05T09:35:31Z</time>
      </trkpt>
      <trkpt lat="45.48488" lon="6.41655">
        <ele>1556</ele>
        <time>2022-08-05T09:35:38Z</time>
      </trkpt>
      <trkpt lat="45.48493" lon="6.41651">
        <ele>1556</ele>
        <time>2022-08-05T09:35:42Z</time>
      </trkpt>
      <trkpt lat="45.48499" lon="6.41652">
        <ele>1557</ele>
        <time>2022-08-05T09:35:49Z</time>
      </trkpt>
      <trkpt lat="45.48505" lon="6.41651">
        <ele>1558</ele>
        <time>2022-08-05T09:35:57Z</time>
      </trkpt>
      <trkpt lat="45.4851" lon="6.41647">
        <ele>1560</ele>
        <time>2022-08-05T09:36:08Z</time>
      </trkpt>
      <trkpt lat="45.48518" lon="6.41645">
        <ele>1562</ele>
        <time>2022-08-05T09:36:24Z</time>
      </trkpt>
      <trkpt lat="45.48522" lon="6.41648">
        <ele>1563</ele>
        <time>2022-08-05T09:36:29Z</time>
      </trkpt>
      <trkpt lat="45.48527" lon="6.41654">
        <ele>1564</ele>
        <time>2022-08-05T09:36:36Z</time>
      </trkpt>
      <trkpt lat="45.48535" lon="6.41664">
        <ele>1565</ele>
        <time>2022-08-05T09:36:47Z</time>
      </trkpt>
      <trkpt lat="45.4854" lon="6.41668">
        <ele>1567</ele>
        <time>2022-08-05T09:36:55Z</time>
      </trkpt>
      <trkpt lat="45.48564" lon="6.41674">
        <ele>1571</ele>
        <time>2022-08-05T09:37:25Z</time>
      </trkpt>
      <trkpt lat="45.48584" lon="6.41677">
        <ele>1574</ele>
        <time>2022-08-05T09:37:46Z</time>
      </trkpt>
      <trkpt lat="45.48599" lon="6.41678">
        <ele>1578</ele>
        <time>2022-08-05T09:38:05Z</time>
      </trkpt>
      <trkpt lat="45.48599" lon="6.41664">
        <ele>1581</ele>
        <time>2022-08-05T09:38:17Z</time>
      </trkpt>
      <trkpt lat="45.48597" lon="6.41655">
        <ele>1583</ele>
        <time>2022-08-05T09:38:27Z</time>
      </trkpt>
      <trkpt lat="45.48594" lon="6.41647">
        <ele>1585</ele>
        <time>2022-08-05T09:38:37Z</time>
      </trkpt>
      <trkpt lat="45.4859" lon="6.41644">
        <ele>1586</ele>
        <time>2022-08-05T09:38:42Z</time>
      </trkpt>
      <trkpt lat="45.48586" lon="6.41627">
        <ele>1590</ele>
        <time>2022-08-05T09:39:03Z</time>
      </trkpt>
      <trkpt lat="45.48584" lon="6.41621">
        <ele>1591</ele>
        <time>2022-08-05T09:39:09Z</time>
      </trkpt>
      <trkpt lat="45.48581" lon="6.41617">
        <ele>1592</ele>
        <time>2022-08-05T09:39:14Z</time>
      </trkpt>
      <trkpt lat="45.48579" lon="6.41609">
        <ele>1594</ele>
        <time>2022-08-05T09:39:23Z</time>
      </trkpt>
      <trkpt lat="45.48573" lon="6.41603">
        <ele>1595</ele>
        <time>2022-08-05T09:39:29Z</time>
      </trkpt>
      <trkpt lat="45.48567" lon="6.41602">
        <ele>1595</ele>
        <time>2022-08-05T09:39:32Z</time>
      </trkpt>
      <trkpt lat="45.48563" lon="6.41596">
        <ele>1596</ele>
        <time>2022-08-05T09:39:35Z</time>
      </trkpt>
      <trkpt lat="45.48557" lon="6.41597">
        <ele>1596</ele>
        <time>2022-08-05T09:39:38Z</time>
      </trkpt>
      <trkpt lat="45.48553" lon="6.41598">
        <ele>1596</ele>
        <time>2022-08-05T09:39:41Z</time>
      </trkpt>
      <trkpt lat="45.48537" lon="6.4159">
        <ele>1597</ele>
        <time>2022-08-05T09:39:56Z</time>
      </trkpt>
      <trkpt lat="45.48521" lon="6.41575">
        <ele>1602</ele>
        <time>2022-08-05T09:40:25Z</time>
      </trkpt>
      <trkpt lat="45.48515" lon="6.41574">
        <ele>1603</ele>
        <time>2022-08-05T09:40:30Z</time>
      </trkpt>
      <trkpt lat="45.48512" lon="6.41569">
        <ele>1604</ele>
        <time>2022-08-05T09:40:35Z</time>
      </trkpt>
      <trkpt lat="45.48497" lon="6.4156">
        <ele>1606</ele>
        <time>2022-08-05T09:40:48Z</time>
      </trkpt>
      <trkpt lat="45.48492" lon="6.4156">
        <ele>1607</ele>
        <time>2022-08-05T09:40:52Z</time>
      </trkpt>
      <trkpt lat="45.48486" lon="6.41556">
        <ele>1607</ele>
        <time>2022-08-05T09:40:57Z</time>
      </trkpt>
      <trkpt lat="45.48478" lon="6.41557">
        <ele>1608</ele>
        <time>2022-08-05T09:41:06Z</time>
      </trkpt>
      <trkpt lat="45.48472" lon="6.41555">
        <ele>1609</ele>
        <time>2022-08-05T09:41:10Z</time>
      </trkpt>
      <trkpt lat="45.48468" lon="6.41554">
        <ele>1608</ele>
        <time>2022-08-05T09:41:14Z</time>
      </trkpt>
      <trkpt lat="45.48462" lon="6.41554">
        <ele>1609</ele>
        <time>2022-08-05T09:41:19Z</time>
      </trkpt>
      <trkpt lat="45.48452" lon="6.41551">
        <ele>1610</ele>
        <time>2022-08-05T09:41:28Z</time>
      </trkpt>
      <trkpt lat="45.48447" lon="6.41551">
        <ele>1610</ele>
        <time>2022-08-05T09:41:32Z</time>
      </trkpt>
      <trkpt lat="45.48442" lon="6.41553">
        <ele>1611</ele>
        <time>2022-08-05T09:41:36Z</time>
      </trkpt>
      <trkpt lat="45.48437" lon="6.41552">
        <ele>1613</ele>
        <time>2022-08-05T09:41:48Z</time>
      </trkpt>
      <trkpt lat="45.48431" lon="6.41551">
        <ele>1614</ele>
        <time>2022-08-05T09:41:52Z</time>
      </trkpt>
      <trkpt lat="45.48425" lon="6.41551">
        <ele>1614</ele>
        <time>2022-08-05T09:41:56Z</time>
      </trkpt>
      <trkpt lat="45.48419" lon="6.41551">
        <ele>1616</ele>
        <time>2022-08-05T09:42:06Z</time>
      </trkpt>
      <trkpt lat="45.48414" lon="6.4155">
        <ele>1617</ele>
        <time>2022-08-05T09:42:11Z</time>
      </trkpt>
      <trkpt lat="45.4841" lon="6.41544">
        <ele>1618</ele>
        <time>2022-08-05T09:42:18Z</time>
      </trkpt>
      <trkpt lat="45.48401" lon="6.41537">
        <ele>1618</ele>
        <time>2022-08-05T09:42:26Z</time>
      </trkpt>
      <trkpt lat="45.48396" lon="6.41528">
        <ele>1618</ele>
        <time>2022-08-05T09:42:33Z</time>
      </trkpt>
      <trkpt lat="45.48393" lon="6.41517">
        <ele>1620</ele>
        <time>2022-08-05T09:42:45Z</time>
      </trkpt>
      <trkpt lat="45.48418" lon="6.41532">
        <ele>1626</ele>
        <time>2022-08-05T09:43:21Z</time>
      </trkpt>
      <trkpt lat="45.4843" lon="6.4153">
        <ele>1627</ele>
        <time>2022-08-05T09:43:32Z</time>
      </trkpt>
      <trkpt lat="45.48436" lon="6.41525">
        <ele>1628</ele>
        <time>2022-08-05T09:43:40Z</time>
      </trkpt>
      <trkpt lat="45.4845" lon="6.4152">
        <ele>1631</ele>
        <time>2022-08-05T09:43:56Z</time>
      </trkpt>
      <trkpt lat="45.48454" lon="6.41516">
        <ele>1631</ele>
        <time>2022-08-05T09:44:00Z</time>
      </trkpt>
      <trkpt lat="45.48479" lon="6.41517">
        <ele>1634</ele>
        <time>2022-08-05T09:44:24Z</time>
      </trkpt>
      <trkpt lat="45.48465" lon="6.41497">
        <ele>1640</ele>
        <time>2022-08-05T09:44:54Z</time>
      </trkpt>
      <trkpt lat="45.48458" lon="6.41495">
        <ele>1641</ele>
        <time>2022-08-05T09:45:03Z</time>
      </trkpt>
      <trkpt lat="45.48454" lon="6.41492">
        <ele>1642</ele>
        <time>2022-08-05T09:45:08Z</time>
      </trkpt>
      <trkpt lat="45.48434" lon="6.41488">
        <ele>1648</ele>
        <time>2022-08-05T09:45:38Z</time>
      </trkpt>
      <trkpt lat="45.4842" lon="6.41478">
        <ele>1650</ele>
        <time>2022-08-05T09:45:56Z</time>
      </trkpt>
      <trkpt lat="45.48417" lon="6.41472">
        <ele>1650</ele>
        <time>2022-08-05T09:46:00Z</time>
      </trkpt>
      <trkpt lat="45.48418" lon="6.41475">
        <ele>1653</ele>
        <time>2022-08-05T09:46:24Z</time>
      </trkpt>
      <trkpt lat="45.48423" lon="6.41476">
        <ele>1654</ele>
        <time>2022-08-05T09:46:29Z</time>
      </trkpt>
      <trkpt lat="45.48441" lon="6.41478">
        <ele>1657</ele>
        <time>2022-08-05T09:46:48Z</time>
      </trkpt>
      <trkpt lat="45.48445" lon="6.41479">
        <ele>1657</ele>
        <time>2022-08-05T09:46:52Z</time>
      </trkpt>
      <trkpt lat="45.4845" lon="6.41478">
        <ele>1657</ele>
        <time>2022-08-05T09:46:56Z</time>
      </trkpt>
      <trkpt lat="45.48454" lon="6.41479">
        <ele>1657</ele>
        <time>2022-08-05T09:47:00Z</time>
      </trkpt>
      <trkpt lat="45.48458" lon="6.41476">
        <ele>1658</ele>
        <time>2022-08-05T09:47:05Z</time>
      </trkpt>
      <trkpt lat="45.48466" lon="6.41477">
        <ele>1659</ele>
        <time>2022-08-05T09:47:13Z</time>
      </trkpt>
      <trkpt lat="45.48471" lon="6.41475">
        <ele>1661</ele>
        <time>2022-08-05T09:47:20Z</time>
      </trkpt>
      <trkpt lat="45.48496" lon="6.41476">
        <ele>1666</ele>
        <time>2022-08-05T09:47:50Z</time>
      </trkpt>
      <trkpt lat="45.48499" lon="6.41472">
        <ele>1668</ele>
        <time>2022-08-05T09:48:02Z</time>
      </trkpt>
      <trkpt lat="45.48491" lon="6.41466">
        <ele>1670</ele>
        <time>2022-08-05T09:48:11Z</time>
      </trkpt>
      <trkpt lat="45.48483" lon="6.41461">
        <ele>1671</ele>
        <time>2022-08-05T09:48:18Z</time>
      </trkpt>
      <trkpt lat="45.48479" lon="6.41457">
        <ele>1671</ele>
        <time>2022-08-05T09:48:21Z</time>
      </trkpt>
      <trkpt lat="45.4846" lon="6.41452">
        <ele>1672</ele>
        <time>2022-08-05T09:48:36Z</time>
      </trkpt>
      <trkpt lat="45.48455" lon="6.41452">
        <ele>1672</ele>
        <time>2022-08-05T09:48:41Z</time>
      </trkpt>
      <trkpt lat="45.4845" lon="6.41453">
        <ele>1671</ele>
        <time>2022-08-05T09:48:45Z</time>
      </trkpt>
      <trkpt lat="45.48441" lon="6.41449">
        <ele>1672</ele>
        <time>2022-08-05T09:48:53Z</time>
      </trkpt>
      <trkpt lat="45.48434" lon="6.41445">
        <ele>1673</ele>
        <time>2022-08-05T09:49:02Z</time>
      </trkpt>
      <trkpt lat="45.48432" lon="6.41439">
        <ele>1673</ele>
        <time>2022-08-05T09:49:05Z</time>
      </trkpt>
      <trkpt lat="45.48419" lon="6.41417">
        <ele>1675</ele>
        <time>2022-08-05T09:49:26Z</time>
      </trkpt>
      <trkpt lat="45.48407" lon="6.41388">
        <ele>1679</ele>
        <time>2022-08-05T09:49:49Z</time>
      </trkpt>
      <trkpt lat="45.48398" lon="6.41377">
        <ele>1682</ele>
        <time>2022-08-05T09:50:06Z</time>
      </trkpt>
      <trkpt lat="45.48367" lon="6.41364">
        <ele>1689</ele>
        <time>2022-08-05T09:50:41Z</time>
      </trkpt>
      <trkpt lat="45.48361" lon="6.41365">
        <ele>1690</ele>
        <time>2022-08-05T09:50:48Z</time>
      </trkpt>
      <trkpt lat="45.48363" lon="6.41362">
        <ele>1693</ele>
        <time>2022-08-05T09:51:05Z</time>
      </trkpt>
      <trkpt lat="45.48372" lon="6.4136">
        <ele>1694</ele>
        <time>2022-08-05T09:51:15Z</time>
      </trkpt>
      <trkpt lat="45.48376" lon="6.41361">
        <ele>1695</ele>
        <time>2022-08-05T09:51:19Z</time>
      </trkpt>
      <trkpt lat="45.48381" lon="6.4136">
        <ele>1695</ele>
        <time>2022-08-05T09:51:23Z</time>
      </trkpt>
      <trkpt lat="45.48386" lon="6.41361">
        <ele>1696</ele>
        <time>2022-08-05T09:51:27Z</time>
      </trkpt>
      <trkpt lat="45.48394" lon="6.41354">
        <ele>1697</ele>
        <time>2022-08-05T09:51:37Z</time>
      </trkpt>
      <trkpt lat="45.48415" lon="6.4136">
        <ele>1701</ele>
        <time>2022-08-05T09:52:01Z</time>
      </trkpt>
      <trkpt lat="45.48424" lon="6.41367">
        <ele>1702</ele>
        <time>2022-08-05T09:52:11Z</time>
      </trkpt>
      <trkpt lat="45.48429" lon="6.41374">
        <ele>1703</ele>
        <time>2022-08-05T09:52:18Z</time>
      </trkpt>
      <trkpt lat="45.48432" lon="6.41379">
        <ele>1703</ele>
        <time>2022-08-05T09:52:22Z</time>
      </trkpt>
      <trkpt lat="45.48436" lon="6.41382">
        <ele>1704</ele>
        <time>2022-08-05T09:52:27Z</time>
      </trkpt>
      <trkpt lat="45.48439" lon="6.41386">
        <ele>1704</ele>
        <time>2022-08-05T09:52:30Z</time>
      </trkpt>
      <trkpt lat="45.48445" lon="6.41391">
        <ele>1704</ele>
        <time>2022-08-05T09:52:38Z</time>
      </trkpt>
      <trkpt lat="45.48454" lon="6.41398">
        <ele>1706</ele>
        <time>2022-08-05T09:52:48Z</time>
      </trkpt>
      <trkpt lat="45.48457" lon="6.41401">
        <ele>1707</ele>
        <time>2022-08-05T09:52:52Z</time>
      </trkpt>
      <trkpt lat="45.48474" lon="6.41405">
        <ele>1709</ele>
        <time>2022-08-05T09:53:11Z</time>
      </trkpt>
      <trkpt lat="45.48479" lon="6.41405">
        <ele>1709</ele>
        <time>2022-08-05T09:53:15Z</time>
      </trkpt>
      <trkpt lat="45.48483" lon="6.41406">
        <ele>1709</ele>
        <time>2022-08-05T09:53:20Z</time>
      </trkpt>
      <trkpt lat="45.48487" lon="6.41405">
        <ele>1710</ele>
        <time>2022-08-05T09:53:26Z</time>
      </trkpt>
      <trkpt lat="45.48481" lon="6.41398">
        <ele>1712</ele>
        <time>2022-08-05T09:53:36Z</time>
      </trkpt>
      <trkpt lat="45.4847" lon="6.41392">
        <ele>1714</ele>
        <time>2022-08-05T09:53:49Z</time>
      </trkpt>
      <trkpt lat="45.48459" lon="6.41377">
        <ele>1717</ele>
        <time>2022-08-05T09:54:07Z</time>
      </trkpt>
      <trkpt lat="45.4845" lon="6.41363">
        <ele>1719</ele>
        <time>2022-08-05T09:54:22Z</time>
      </trkpt>
      <trkpt lat="45.4845" lon="6.41356">
        <ele>1719</ele>
        <time>2022-08-05T09:54:26Z</time>
      </trkpt>
      <trkpt lat="45.48448" lon="6.41351">
        <ele>1719</ele>
        <time>2022-08-05T09:54:30Z</time>
      </trkpt>
      <trkpt lat="45.48437" lon="6.41333">
        <ele>1721</ele>
        <time>2022-08-05T09:54:46Z</time>
      </trkpt>
      <trkpt lat="45.48433" lon="6.41328">
        <ele>1723</ele>
        <time>2022-08-05T09:54:54Z</time>
      </trkpt>
      <trkpt lat="45.48428" lon="6.41326">
        <ele>1723</ele>
        <time>2022-08-05T09:54:58Z</time>
      </trkpt>
      <trkpt lat="45.48425" lon="6.41321">
        <ele>1723</ele>
        <time>2022-08-05T09:55:01Z</time>
      </trkpt>
      <trkpt lat="45.48415" lon="6.41308">
        <ele>1724</ele>
        <time>2022-08-05T09:55:16Z</time>
      </trkpt>
      <trkpt lat="45.48412" lon="6.41303">
        <ele>1725</ele>
        <time>2022-08-05T09:55:20Z</time>
      </trkpt>
      <trkpt lat="45.48406" lon="6.41301">
        <ele>1725</ele>
        <time>2022-08-05T09:55:24Z</time>
      </trkpt>
      <trkpt lat="45.48403" lon="6.41296">
        <ele>1726</ele>
        <time>2022-08-05T09:55:29Z</time>
      </trkpt>
      <trkpt lat="45.48398" lon="6.41295">
        <ele>1726</ele>
        <time>2022-08-05T09:55:32Z</time>
      </trkpt>
      <trkpt lat="45.48392" lon="6.41296">
        <ele>1726</ele>
        <time>2022-08-05T09:55:36Z</time>
      </trkpt>
      <trkpt lat="45.48378" lon="6.41296">
        <ele>1727</ele>
        <time>2022-08-05T09:55:50Z</time>
      </trkpt>
      <trkpt lat="45.48374" lon="6.41294">
        <ele>1728</ele>
        <time>2022-08-05T09:55:53Z</time>
      </trkpt>
      <trkpt lat="45.48371" lon="6.41287">
        <ele>1728</ele>
        <time>2022-08-05T09:56:01Z</time>
      </trkpt>
      <trkpt lat="45.48371" lon="6.4128">
        <ele>1728</ele>
        <time>2022-08-05T09:56:05Z</time>
      </trkpt>
      <trkpt lat="45.48368" lon="6.41275">
        <ele>1729</ele>
        <time>2022-08-05T09:56:10Z</time>
      </trkpt>
      <trkpt lat="45.48352" lon="6.4126">
        <ele>1732</ele>
        <time>2022-08-05T09:56:29Z</time>
      </trkpt>
      <trkpt lat="45.48334" lon="6.41256">
        <ele>1735</ele>
        <time>2022-08-05T09:56:49Z</time>
      </trkpt>
      <trkpt lat="45.48329" lon="6.41253">
        <ele>1735</ele>
        <time>2022-08-05T09:56:54Z</time>
      </trkpt>
      <trkpt lat="45.48321" lon="6.4124">
        <ele>1740</ele>
        <time>2022-08-05T09:57:15Z</time>
      </trkpt>
      <trkpt lat="45.48321" lon="6.41231">
        <ele>1742</ele>
        <time>2022-08-05T09:57:26Z</time>
      </trkpt>
      <trkpt lat="45.48315" lon="6.41221">
        <ele>1743</ele>
        <time>2022-08-05T09:57:34Z</time>
      </trkpt>
      <trkpt lat="45.48309" lon="6.41203">
        <ele>1745</ele>
        <time>2022-08-05T09:57:49Z</time>
      </trkpt>
      <trkpt lat="45.48308" lon="6.41193">
        <ele>1746</ele>
        <time>2022-08-05T09:57:57Z</time>
      </trkpt>
      <trkpt lat="45.48313" lon="6.41197">
        <ele>1748</ele>
        <time>2022-08-05T09:58:11Z</time>
      </trkpt>
      <trkpt lat="45.48318" lon="6.41207">
        <ele>1748</ele>
        <time>2022-08-05T09:58:19Z</time>
      </trkpt>
      <trkpt lat="45.48323" lon="6.41209">
        <ele>1748</ele>
        <time>2022-08-05T09:58:23Z</time>
      </trkpt>
      <trkpt lat="45.4833" lon="6.41207">
        <ele>1748</ele>
        <time>2022-08-05T09:58:32Z</time>
      </trkpt>
      <trkpt lat="45.48342" lon="6.41224">
        <ele>1752</ele>
        <time>2022-08-05T09:58:52Z</time>
      </trkpt>
      <trkpt lat="45.48345" lon="6.41228">
        <ele>1752</ele>
        <time>2022-08-05T09:58:57Z</time>
      </trkpt>
      <trkpt lat="45.4835" lon="6.41233">
        <ele>1753</ele>
        <time>2022-08-05T09:59:03Z</time>
      </trkpt>
      <trkpt lat="45.48355" lon="6.4122">
        <ele>1755</ele>
        <time>2022-08-05T09:59:19Z</time>
      </trkpt>
      <trkpt lat="45.4836" lon="6.41226">
        <ele>1759</ele>
        <time>2022-08-05T09:59:40Z</time>
      </trkpt>
      <trkpt lat="45.48371" lon="6.41229">
        <ele>1762</ele>
        <time>2022-08-05T09:59:56Z</time>
      </trkpt>
      <trkpt lat="45.48372" lon="6.41222">
        <ele>1763</ele>
        <time>2022-08-05T10:00:01Z</time>
      </trkpt>
      <trkpt lat="45.48372" lon="6.41213">
        <ele>1765</ele>
        <time>2022-08-05T10:00:13Z</time>
      </trkpt>
      <trkpt lat="45.48373" lon="6.41207">
        <ele>1767</ele>
        <time>2022-08-05T10:00:23Z</time>
      </trkpt>
      <trkpt lat="45.4838" lon="6.41209">
        <ele>1769</ele>
        <time>2022-08-05T10:00:34Z</time>
      </trkpt>
      <trkpt lat="45.48387" lon="6.41209">
        <ele>1770</ele>
        <time>2022-08-05T10:00:44Z</time>
      </trkpt>
      <trkpt lat="45.48387" lon="6.41199">
        <ele>1772</ele>
        <time>2022-08-05T10:00:54Z</time>
      </trkpt>
      <trkpt lat="45.48392" lon="6.41196">
        <ele>1775</ele>
        <time>2022-08-05T10:01:06Z</time>
      </trkpt>
      <trkpt lat="45.48397" lon="6.41197">
        <ele>1777</ele>
        <time>2022-08-05T10:01:17Z</time>
      </trkpt>
      <trkpt lat="45.484" lon="6.4119">
        <ele>1778</ele>
        <time>2022-08-05T10:01:27Z</time>
      </trkpt>
      <trkpt lat="45.48397" lon="6.41168">
        <ele>1781</ele>
        <time>2022-08-05T10:01:48Z</time>
      </trkpt>
      <trkpt lat="45.48401" lon="6.41174">
        <ele>1784</ele>
        <time>2022-08-05T10:02:03Z</time>
      </trkpt>
      <trkpt lat="45.48408" lon="6.41174">
        <ele>1785</ele>
        <time>2022-08-05T10:02:13Z</time>
      </trkpt>
      <trkpt lat="45.48414" lon="6.41174">
        <ele>1787</ele>
        <time>2022-08-05T10:02:24Z</time>
      </trkpt>
      <trkpt lat="45.48422" lon="6.41178">
        <ele>1789</ele>
        <time>2022-08-05T10:02:34Z</time>
      </trkpt>
      <trkpt lat="45.48427" lon="6.41181">
        <ele>1790</ele>
        <time>2022-08-05T10:02:44Z</time>
      </trkpt>
      <trkpt lat="45.48454" lon="6.41193">
        <ele>1796</ele>
        <time>2022-08-05T10:03:20Z</time>
      </trkpt>
      <trkpt lat="45.4846" lon="6.41196">
        <ele>1796</ele>
        <time>2022-08-05T10:03:28Z</time>
      </trkpt>
      <trkpt lat="45.48462" lon="6.41201">
        <ele>1797</ele>
        <time>2022-08-05T10:03:33Z</time>
      </trkpt>
      <trkpt lat="45.48466" lon="6.41205">
        <ele>1797</ele>
        <time>2022-08-05T10:03:38Z</time>
      </trkpt>
      <trkpt lat="45.4847" lon="6.41207">
        <ele>1798</ele>
        <time>2022-08-05T10:03:45Z</time>
      </trkpt>
      <trkpt lat="45.48475" lon="6.41208">
        <ele>1798</ele>
        <time>2022-08-05T10:03:50Z</time>
      </trkpt>
      <trkpt lat="45.48492" lon="6.41221">
        <ele>1800</ele>
        <time>2022-08-05T10:04:10Z</time>
      </trkpt>
      <trkpt lat="45.48512" lon="6.41248">
        <ele>1803</ele>
        <time>2022-08-05T10:04:41Z</time>
      </trkpt>
      <trkpt lat="45.48517" lon="6.41251">
        <ele>1804</ele>
        <time>2022-08-05T10:04:48Z</time>
      </trkpt>
      <trkpt lat="45.4852" lon="6.41257">
        <ele>1805</ele>
        <time>2022-08-05T10:04:53Z</time>
      </trkpt>
      <trkpt lat="45.48525" lon="6.41261">
        <ele>1806</ele>
        <time>2022-08-05T10:05:00Z</time>
      </trkpt>
      <trkpt lat="45.48539" lon="6.41262">
        <ele>1808</ele>
        <time>2022-08-05T10:05:15Z</time>
      </trkpt>
      <trkpt lat="45.48538" lon="6.41253">
        <ele>1810</ele>
        <time>2022-08-05T10:05:22Z</time>
      </trkpt>
      <trkpt lat="45.48537" lon="6.41244">
        <ele>1811</ele>
        <time>2022-08-05T10:05:29Z</time>
      </trkpt>
      <trkpt lat="45.48536" lon="6.41238">
        <ele>1812</ele>
        <time>2022-08-05T10:05:36Z</time>
      </trkpt>
      <trkpt lat="45.4854" lon="6.41225">
        <ele>1815</ele>
        <time>2022-08-05T10:05:52Z</time>
      </trkpt>
      <trkpt lat="45.48544" lon="6.41227">
        <ele>1818</ele>
        <time>2022-08-05T10:06:26Z</time>
      </trkpt>
      <trkpt lat="45.48549" lon="6.41229">
        <ele>1819</ele>
        <time>2022-08-05T10:06:34Z</time>
      </trkpt>
      <trkpt lat="45.4855" lon="6.4122">
        <ele>1819</ele>
        <time>2022-08-05T10:06:44Z</time>
      </trkpt>
      <trkpt lat="45.48546" lon="6.41207">
        <ele>1820</ele>
        <time>2022-08-05T10:06:56Z</time>
      </trkpt>
      <trkpt lat="45.48543" lon="6.41191">
        <ele>1822</ele>
        <time>2022-08-05T10:07:13Z</time>
      </trkpt>
      <trkpt lat="45.4854" lon="6.41185">
        <ele>1823</ele>
        <time>2022-08-05T10:07:17Z</time>
      </trkpt>
      <trkpt lat="45.48546" lon="6.41187">
        <ele>1824</ele>
        <time>2022-08-05T10:07:30Z</time>
      </trkpt>
      <trkpt lat="45.4855" lon="6.41184">
        <ele>1826</ele>
        <time>2022-08-05T10:07:41Z</time>
      </trkpt>
      <trkpt lat="45.48543" lon="6.41163">
        <ele>1828</ele>
        <time>2022-08-05T10:08:05Z</time>
      </trkpt>
      <trkpt lat="45.48535" lon="6.4113">
        <ele>1832</ele>
        <time>2022-08-05T10:08:35Z</time>
      </trkpt>
      <trkpt lat="45.48541" lon="6.41133">
        <ele>1834</ele>
        <time>2022-08-05T10:08:52Z</time>
      </trkpt>
      <trkpt lat="45.48548" lon="6.41138">
        <ele>1836</ele>
        <time>2022-08-05T10:09:02Z</time>
      </trkpt>
      <trkpt lat="45.4855" lon="6.41133">
        <ele>1837</ele>
        <time>2022-08-05T10:09:12Z</time>
      </trkpt>
      <trkpt lat="45.48544" lon="6.41123">
        <ele>1837</ele>
        <time>2022-08-05T10:09:22Z</time>
      </trkpt>
      <trkpt lat="45.48533" lon="6.41099">
        <ele>1836</ele>
        <time>2022-08-05T10:09:39Z</time>
      </trkpt>
      <trkpt lat="45.48535" lon="6.41108">
        <ele>1836</ele>
        <time>2022-08-05T10:10:02Z</time>
      </trkpt>
      <trkpt lat="45.4856" lon="6.41151">
        <ele>1839</ele>
        <time>2022-08-05T10:10:35Z</time>
      </trkpt>
      <trkpt lat="45.48571" lon="6.41166">
        <ele>1840</ele>
        <time>2022-08-05T10:10:47Z</time>
      </trkpt>
      <trkpt lat="45.48593" lon="6.41192">
        <ele>1843</ele>
        <time>2022-08-05T10:11:11Z</time>
      </trkpt>
      <trkpt lat="45.48607" lon="6.41211">
        <ele>1845</ele>
        <time>2022-08-05T10:11:27Z</time>
      </trkpt>
      <trkpt lat="45.48615" lon="6.41217">
        <ele>1845</ele>
        <time>2022-08-05T10:11:34Z</time>
      </trkpt>
      <trkpt lat="45.48621" lon="6.41217">
        <ele>1845</ele>
        <time>2022-08-05T10:11:38Z</time>
      </trkpt>
      <trkpt lat="45.4864" lon="6.41209">
        <ele>1846</ele>
        <time>2022-08-05T10:11:54Z</time>
      </trkpt>
      <trkpt lat="45.48644" lon="6.41209">
        <ele>1847</ele>
        <time>2022-08-05T10:11:58Z</time>
      </trkpt>
      <trkpt lat="45.48683" lon="6.41227">
        <ele>1849</ele>
        <time>2022-08-05T10:12:31Z</time>
      </trkpt>
      <trkpt lat="45.48719" lon="6.41244">
        <ele>1850</ele>
        <time>2022-08-05T10:13:00Z</time>
      </trkpt>
      <trkpt lat="45.48723" lon="6.41247">
        <ele>1850</ele>
        <time>2022-08-05T10:13:04Z</time>
      </trkpt>
      <trkpt lat="45.48727" lon="6.41249">
        <ele>1850</ele>
        <time>2022-08-05T10:13:07Z</time>
      </trkpt>
      <trkpt lat="45.48732" lon="6.41253">
        <ele>1851</ele>
        <time>2022-08-05T10:13:11Z</time>
      </trkpt>
      <trkpt lat="45.48742" lon="6.41258">
        <ele>1852</ele>
        <time>2022-08-05T10:13:20Z</time>
      </trkpt>
      <trkpt lat="45.48753" lon="6.41258">
        <ele>1853</ele>
        <time>2022-08-05T10:13:28Z</time>
      </trkpt>
      <trkpt lat="45.48758" lon="6.41255">
        <ele>1853</ele>
        <time>2022-08-05T10:13:32Z</time>
      </trkpt>
      <trkpt lat="45.48761" lon="6.41252">
        <ele>1853</ele>
        <time>2022-08-05T10:13:36Z</time>
      </trkpt>
      <trkpt lat="45.48762" lon="6.41245">
        <ele>1854</ele>
        <time>2022-08-05T10:13:41Z</time>
      </trkpt>
      <trkpt lat="45.48758" lon="6.4124">
        <ele>1854</ele>
        <time>2022-08-05T10:13:45Z</time>
      </trkpt>
      <trkpt lat="45.48743" lon="6.41238">
        <ele>1857</ele>
        <time>2022-08-05T10:13:57Z</time>
      </trkpt>
      <trkpt lat="45.48709" lon="6.4121">
        <ele>1860</ele>
        <time>2022-08-05T10:14:29Z</time>
      </trkpt>
      <trkpt lat="45.4868" lon="6.41187">
        <ele>1862</ele>
        <time>2022-08-05T10:14:56Z</time>
      </trkpt>
      <trkpt lat="45.48655" lon="6.41152">
        <ele>1866</ele>
        <time>2022-08-05T10:15:29Z</time>
      </trkpt>
      <trkpt lat="45.48638" lon="6.41131">
        <ele>1869</ele>
        <time>2022-08-05T10:15:50Z</time>
      </trkpt>
      <trkpt lat="45.48626" lon="6.41108">
        <ele>1871</ele>
        <time>2022-08-05T10:16:09Z</time>
      </trkpt>
      <trkpt lat="45.48624" lon="6.411">
        <ele>1872</ele>
        <time>2022-08-05T10:16:15Z</time>
      </trkpt>
      <trkpt lat="45.48629" lon="6.41098">
        <ele>1873</ele>
        <time>2022-08-05T10:16:21Z</time>
      </trkpt>
      <trkpt lat="45.48652" lon="6.41122">
        <ele>1876</ele>
        <time>2022-08-05T10:16:49Z</time>
      </trkpt>
      <trkpt lat="45.48683" lon="6.41147">
        <ele>1882</ele>
        <time>2022-08-05T10:17:22Z</time>
      </trkpt>
      <trkpt lat="45.48699" lon="6.41159">
        <ele>1883</ele>
        <time>2022-08-05T10:17:38Z</time>
      </trkpt>
      <trkpt lat="45.48723" lon="6.41163">
        <ele>1886</ele>
        <time>2022-08-05T10:17:59Z</time>
      </trkpt>
      <trkpt lat="45.48759" lon="6.41161">
        <ele>1890</ele>
        <time>2022-08-05T10:18:31Z</time>
      </trkpt>
      <trkpt lat="45.48796" lon="6.41151">
        <ele>1894</ele>
        <time>2022-08-05T10:19:04Z</time>
      </trkpt>
      <trkpt lat="45.48813" lon="6.4115">
        <ele>1896</ele>
        <time>2022-08-05T10:19:20Z</time>
      </trkpt>
      <trkpt lat="45.48817" lon="6.41144">
        <ele>1896</ele>
        <time>2022-08-05T10:19:24Z</time>
      </trkpt>
      <trkpt lat="45.48818" lon="6.41138">
        <ele>1897</ele>
        <time>2022-08-05T10:19:28Z</time>
      </trkpt>
      <trkpt lat="45.48816" lon="6.41132">
        <ele>1897</ele>
        <time>2022-08-05T10:19:32Z</time>
      </trkpt>
      <trkpt lat="45.48806" lon="6.41126">
        <ele>1899</ele>
        <time>2022-08-05T10:19:41Z</time>
      </trkpt>
      <trkpt lat="45.48792" lon="6.41126">
        <ele>1900</ele>
        <time>2022-08-05T10:19:53Z</time>
      </trkpt>
      <trkpt lat="45.48787" lon="6.41124">
        <ele>1901</ele>
        <time>2022-08-05T10:19:57Z</time>
      </trkpt>
      <trkpt lat="45.48775" lon="6.41117">
        <ele>1902</ele>
        <time>2022-08-05T10:20:09Z</time>
      </trkpt>
      <trkpt lat="45.48753" lon="6.41105">
        <ele>1904</ele>
        <time>2022-08-05T10:20:30Z</time>
      </trkpt>
      <trkpt lat="45.48735" lon="6.41102">
        <ele>1907</ele>
        <time>2022-08-05T10:20:46Z</time>
      </trkpt>
      <trkpt lat="45.48729" lon="6.41099">
        <ele>1908</ele>
        <time>2022-08-05T10:20:52Z</time>
      </trkpt>
      <trkpt lat="45.48725" lon="6.41095">
        <ele>1908</ele>
        <time>2022-08-05T10:20:56Z</time>
      </trkpt>
      <trkpt lat="45.48716" lon="6.41079">
        <ele>1909</ele>
        <time>2022-08-05T10:21:08Z</time>
      </trkpt>
      <trkpt lat="45.48711" lon="6.41067">
        <ele>1910</ele>
        <time>2022-08-05T10:21:16Z</time>
      </trkpt>
      <trkpt lat="45.48705" lon="6.41058">
        <ele>1911</ele>
        <time>2022-08-05T10:21:24Z</time>
      </trkpt>
      <trkpt lat="45.48698" lon="6.4105">
        <ele>1911</ele>
        <time>2022-08-05T10:21:32Z</time>
      </trkpt>
      <trkpt lat="45.48689" lon="6.41045">
        <ele>1913</ele>
        <time>2022-08-05T10:21:40Z</time>
      </trkpt>
      <trkpt lat="45.48686" lon="6.41041">
        <ele>1913</ele>
        <time>2022-08-05T10:21:44Z</time>
      </trkpt>
      <trkpt lat="45.48675" lon="6.41021">
        <ele>1914</ele>
        <time>2022-08-05T10:22:00Z</time>
      </trkpt>
      <trkpt lat="45.48669" lon="6.4101">
        <ele>1916</ele>
        <time>2022-08-05T10:22:09Z</time>
      </trkpt>
      <trkpt lat="45.48667" lon="6.41005">
        <ele>1916</ele>
        <time>2022-08-05T10:22:13Z</time>
      </trkpt>
      <trkpt lat="45.48664" lon="6.40998">
        <ele>1916</ele>
        <time>2022-08-05T10:22:18Z</time>
      </trkpt>
      <trkpt lat="45.48659" lon="6.4098">
        <ele>1918</ele>
        <time>2022-08-05T10:22:30Z</time>
      </trkpt>
      <trkpt lat="45.48658" lon="6.40961">
        <ele>1920</ele>
        <time>2022-08-05T10:22:42Z</time>
      </trkpt>
      <trkpt lat="45.48661" lon="6.40923">
        <ele>1922</ele>
        <time>2022-08-05T10:23:06Z</time>
      </trkpt>
      <trkpt lat="45.48666" lon="6.40904">
        <ele>1923</ele>
        <time>2022-08-05T10:23:18Z</time>
      </trkpt>
      <trkpt lat="45.48671" lon="6.40894">
        <ele>1924</ele>
        <time>2022-08-05T10:23:26Z</time>
      </trkpt>
      <trkpt lat="45.48675" lon="6.4089">
        <ele>1924</ele>
        <time>2022-08-05T10:23:30Z</time>
      </trkpt>
      <trkpt lat="45.48689" lon="6.40884">
        <ele>1925</ele>
        <time>2022-08-05T10:23:42Z</time>
      </trkpt>
      <trkpt lat="45.48697" lon="6.40884">
        <ele>1927</ele>
        <time>2022-08-05T10:23:50Z</time>
      </trkpt>
      <trkpt lat="45.48702" lon="6.40882">
        <ele>1927</ele>
        <time>2022-08-05T10:23:54Z</time>
      </trkpt>
      <trkpt lat="45.48706" lon="6.40879">
        <ele>1927</ele>
        <time>2022-08-05T10:23:58Z</time>
      </trkpt>
      <trkpt lat="45.48712" lon="6.4087">
        <ele>1928</ele>
        <time>2022-08-05T10:24:06Z</time>
      </trkpt>
      <trkpt lat="45.48714" lon="6.40864">
        <ele>1929</ele>
        <time>2022-08-05T10:24:10Z</time>
      </trkpt>
      <trkpt lat="45.48717" lon="6.4083">
        <ele>1931</ele>
        <time>2022-08-05T10:24:31Z</time>
      </trkpt>
      <trkpt lat="45.48723" lon="6.40812">
        <ele>1932</ele>
        <time>2022-08-05T10:24:43Z</time>
      </trkpt>
      <trkpt lat="45.48726" lon="6.40808">
        <ele>1932</ele>
        <time>2022-08-05T10:24:47Z</time>
      </trkpt>
      <trkpt lat="45.48731" lon="6.40808">
        <ele>1933</ele>
        <time>2022-08-05T10:24:52Z</time>
      </trkpt>
      <trkpt lat="45.48732" lon="6.40814">
        <ele>1933</ele>
        <time>2022-08-05T10:24:57Z</time>
      </trkpt>
      <trkpt lat="45.48731" lon="6.40841">
        <ele>1935</ele>
        <time>2022-08-05T10:25:14Z</time>
      </trkpt>
      <trkpt lat="45.48735" lon="6.40892">
        <ele>1938</ele>
        <time>2022-08-05T10:25:46Z</time>
      </trkpt>
      <trkpt lat="45.48738" lon="6.40905">
        <ele>1939</ele>
        <time>2022-08-05T10:25:54Z</time>
      </trkpt>
      <trkpt lat="45.48747" lon="6.40945">
        <ele>1941</ele>
        <time>2022-08-05T10:26:18Z</time>
      </trkpt>
      <trkpt lat="45.4875" lon="6.40966">
        <ele>1941</ele>
        <time>2022-08-05T10:26:30Z</time>
      </trkpt>
      <trkpt lat="45.48752" lon="6.40972">
        <ele>1941</ele>
        <time>2022-08-05T10:26:34Z</time>
      </trkpt>
      <trkpt lat="45.48762" lon="6.40985">
        <ele>1942</ele>
        <time>2022-08-05T10:26:46Z</time>
      </trkpt>
      <trkpt lat="45.48775" lon="6.40995">
        <ele>1943</ele>
        <time>2022-08-05T10:26:58Z</time>
      </trkpt>
      <trkpt lat="45.48808" lon="6.41005">
        <ele>1945</ele>
        <time>2022-08-05T10:27:26Z</time>
      </trkpt>
      <trkpt lat="45.48842" lon="6.41006">
        <ele>1947</ele>
        <time>2022-08-05T10:27:54Z</time>
      </trkpt>
      <trkpt lat="45.48833" lon="6.41001">
        <ele>1947</ele>
        <time>2022-08-05T10:28:04Z</time>
      </trkpt>
      <trkpt lat="45.48833" lon="6.41002">
        <ele>1947</ele>
        <time>2022-08-05T10:28:50Z</time>
      </trkpt>
      <trkpt lat="45.48838" lon="6.41004">
        <ele>1947</ele>
        <time>2022-08-05T10:28:54Z</time>
      </trkpt>
      <trkpt lat="45.48869" lon="6.4101">
        <ele>1948</ele>
        <time>2022-08-05T10:29:18Z</time>
      </trkpt>
      <trkpt lat="45.48873" lon="6.41012">
        <ele>1948</ele>
        <time>2022-08-05T10:29:21Z</time>
      </trkpt>
      <trkpt lat="45.48883" lon="6.41011">
        <ele>1948</ele>
        <time>2022-08-05T10:29:29Z</time>
      </trkpt>
      <trkpt lat="45.48888" lon="6.4101">
        <ele>1949</ele>
        <time>2022-08-05T10:29:33Z</time>
      </trkpt>
      <trkpt lat="45.48896" lon="6.41002">
        <ele>1949</ele>
        <time>2022-08-05T10:29:41Z</time>
      </trkpt>
      <trkpt lat="45.48912" lon="6.4097">
        <ele>1949</ele>
        <time>2022-08-05T10:30:06Z</time>
      </trkpt>
      <trkpt lat="45.4892" lon="6.40961">
        <ele>1949</ele>
        <time>2022-08-05T10:30:14Z</time>
      </trkpt>
      <trkpt lat="45.48923" lon="6.40956">
        <ele>1949</ele>
        <time>2022-08-05T10:30:19Z</time>
      </trkpt>
      <trkpt lat="45.48923" lon="6.40949">
        <ele>1949</ele>
        <time>2022-08-05T10:30:24Z</time>
      </trkpt>
      <trkpt lat="45.4892" lon="6.40945">
        <ele>1949</ele>
        <time>2022-08-05T10:30:28Z</time>
      </trkpt>
      <trkpt lat="45.48927" lon="6.40931">
        <ele>1948</ele>
        <time>2022-08-05T10:30:42Z</time>
      </trkpt>
      <trkpt lat="45.48931" lon="6.40928">
        <ele>1947</ele>
        <time>2022-08-05T10:30:46Z</time>
      </trkpt>
      <trkpt lat="45.48935" lon="6.40917">
        <ele>1947</ele>
        <time>2022-08-05T10:30:55Z</time>
      </trkpt>
      <trkpt lat="45.48933" lon="6.40924">
        <ele>1947</ele>
        <time>2022-08-05T10:31:38Z</time>
      </trkpt>
      <trkpt lat="45.48929" lon="6.40932">
        <ele>1947</ele>
        <time>2022-08-05T10:31:47Z</time>
      </trkpt>
      <trkpt lat="45.48924" lon="6.40933">
        <ele>1947</ele>
        <time>2022-08-05T10:31:52Z</time>
      </trkpt>
      <trkpt lat="45.4892" lon="6.40938">
        <ele>1947</ele>
        <time>2022-08-05T10:31:59Z</time>
      </trkpt>
      <trkpt lat="45.48919" lon="6.40945">
        <ele>1948</ele>
        <time>2022-08-05T10:32:04Z</time>
      </trkpt>
      <trkpt lat="45.48923" lon="6.40952">
        <ele>1949</ele>
        <time>2022-08-05T10:32:10Z</time>
      </trkpt>
      <trkpt lat="45.48923" lon="6.40959">
        <ele>1949</ele>
        <time>2022-08-05T10:32:15Z</time>
      </trkpt>
      <trkpt lat="45.4892" lon="6.40964">
        <ele>1948</ele>
        <time>2022-08-05T10:32:19Z</time>
      </trkpt>
      <trkpt lat="45.48916" lon="6.40967">
        <ele>1948</ele>
        <time>2022-08-05T10:32:23Z</time>
      </trkpt>
      <trkpt lat="45.48906" lon="6.40982">
        <ele>1948</ele>
        <time>2022-08-05T10:32:35Z</time>
      </trkpt>
      <trkpt lat="45.48896" lon="6.41004">
        <ele>1948</ele>
        <time>2022-08-05T10:32:51Z</time>
      </trkpt>
      <trkpt lat="45.48892" lon="6.41009">
        <ele>1948</ele>
        <time>2022-08-05T10:32:55Z</time>
      </trkpt>
      <trkpt lat="45.48887" lon="6.41011">
        <ele>1948</ele>
        <time>2022-08-05T10:32:59Z</time>
      </trkpt>
      <trkpt lat="45.48878" lon="6.41012">
        <ele>1948</ele>
        <time>2022-08-05T10:33:07Z</time>
      </trkpt>
      <trkpt lat="45.48867" lon="6.41011">
        <ele>1948</ele>
        <time>2022-08-05T10:33:15Z</time>
      </trkpt>
      <trkpt lat="45.48858" lon="6.41005">
        <ele>1948</ele>
        <time>2022-08-05T10:33:22Z</time>
      </trkpt>
      <trkpt lat="45.48815" lon="6.41002">
        <ele>1947</ele>
        <time>2022-08-05T10:33:56Z</time>
      </trkpt>
      <trkpt lat="45.4881" lon="6.41002">
        <ele>1947</ele>
        <time>2022-08-05T10:34:00Z</time>
      </trkpt>
      <trkpt lat="45.4878" lon="6.40995">
        <ele>1945</ele>
        <time>2022-08-05T10:34:32Z</time>
      </trkpt>
      <trkpt lat="45.48767" lon="6.40988">
        <ele>1945</ele>
        <time>2022-08-05T10:34:45Z</time>
      </trkpt>
      <trkpt lat="45.48763" lon="6.40983">
        <ele>1945</ele>
        <time>2022-08-05T10:34:49Z</time>
      </trkpt>
      <trkpt lat="45.48752" lon="6.40969">
        <ele>1943</ele>
        <time>2022-08-05T10:35:01Z</time>
      </trkpt>
      <trkpt lat="45.4875" lon="6.40963">
        <ele>1944</ele>
        <time>2022-08-05T10:35:05Z</time>
      </trkpt>
      <trkpt lat="45.48748" lon="6.4095">
        <ele>1943</ele>
        <time>2022-08-05T10:35:13Z</time>
      </trkpt>
      <trkpt lat="45.48747" lon="6.40935">
        <ele>1943</ele>
        <time>2022-08-05T10:35:22Z</time>
      </trkpt>
      <trkpt lat="45.48735" lon="6.40888">
        <ele>1942</ele>
        <time>2022-08-05T10:35:48Z</time>
      </trkpt>
      <trkpt lat="45.48732" lon="6.4086">
        <ele>1940</ele>
        <time>2022-08-05T10:36:03Z</time>
      </trkpt>
      <trkpt lat="45.48732" lon="6.40837">
        <ele>1939</ele>
        <time>2022-08-05T10:36:12Z</time>
      </trkpt>
      <trkpt lat="45.48734" lon="6.40815">
        <ele>1937</ele>
        <time>2022-08-05T10:36:20Z</time>
      </trkpt>
      <trkpt lat="45.48731" lon="6.40808">
        <ele>1936</ele>
        <time>2022-08-05T10:36:23Z</time>
      </trkpt>
      <trkpt lat="45.48726" lon="6.4081">
        <ele>1935</ele>
        <time>2022-08-05T10:36:26Z</time>
      </trkpt>
      <trkpt lat="45.48719" lon="6.40829">
        <ele>1933</ele>
        <time>2022-08-05T10:36:33Z</time>
      </trkpt>
      <trkpt lat="45.48713" lon="6.40866">
        <ele>1931</ele>
        <time>2022-08-05T10:36:46Z</time>
      </trkpt>
      <trkpt lat="45.4871" lon="6.40874">
        <ele>1930</ele>
        <time>2022-08-05T10:36:49Z</time>
      </trkpt>
      <trkpt lat="45.48705" lon="6.40882">
        <ele>1929</ele>
        <time>2022-08-05T10:36:53Z</time>
      </trkpt>
      <trkpt lat="45.48701" lon="6.40883">
        <ele>1929</ele>
        <time>2022-08-05T10:36:55Z</time>
      </trkpt>
      <trkpt lat="45.48686" lon="6.40884">
        <ele>1927</ele>
        <time>2022-08-05T10:37:02Z</time>
      </trkpt>
      <trkpt lat="45.4868" lon="6.40887">
        <ele>1926</ele>
        <time>2022-08-05T10:37:05Z</time>
      </trkpt>
      <trkpt lat="45.48676" lon="6.40891">
        <ele>1925</ele>
        <time>2022-08-05T10:37:08Z</time>
      </trkpt>
      <trkpt lat="45.48669" lon="6.40902">
        <ele>1925</ele>
        <time>2022-08-05T10:37:12Z</time>
      </trkpt>
      <trkpt lat="45.48663" lon="6.40924">
        <ele>1924</ele>
        <time>2022-08-05T10:37:20Z</time>
      </trkpt>
      <trkpt lat="45.48659" lon="6.40961">
        <ele>1921</ele>
        <time>2022-08-05T10:37:33Z</time>
      </trkpt>
      <trkpt lat="45.48659" lon="6.40967">
        <ele>1921</ele>
        <time>2022-08-05T10:37:35Z</time>
      </trkpt>
      <trkpt lat="45.48668" lon="6.41007">
        <ele>1918</ele>
        <time>2022-08-05T10:37:50Z</time>
      </trkpt>
      <trkpt lat="45.48689" lon="6.41046">
        <ele>1915</ele>
        <time>2022-08-05T10:38:08Z</time>
      </trkpt>
      <trkpt lat="45.48711" lon="6.41067">
        <ele>1913</ele>
        <time>2022-08-05T10:38:21Z</time>
      </trkpt>
      <trkpt lat="45.48722" lon="6.4109">
        <ele>1911</ele>
        <time>2022-08-05T10:38:30Z</time>
      </trkpt>
      <trkpt lat="45.48731" lon="6.41103">
        <ele>1911</ele>
        <time>2022-08-05T10:38:36Z</time>
      </trkpt>
      <trkpt lat="45.48736" lon="6.41106">
        <ele>1910</ele>
        <time>2022-08-05T10:38:39Z</time>
      </trkpt>
      <trkpt lat="45.48758" lon="6.4111">
        <ele>1907</ele>
        <time>2022-08-05T10:38:50Z</time>
      </trkpt>
      <trkpt lat="45.48791" lon="6.4113">
        <ele>1904</ele>
        <time>2022-08-05T10:39:06Z</time>
      </trkpt>
      <trkpt lat="45.48796" lon="6.4113">
        <ele>1903</ele>
        <time>2022-08-05T10:39:09Z</time>
      </trkpt>
      <trkpt lat="45.48802" lon="6.4113">
        <ele>1902</ele>
        <time>2022-08-05T10:39:22Z</time>
      </trkpt>
      <trkpt lat="45.48807" lon="6.4113">
        <ele>1902</ele>
        <time>2022-08-05T10:39:25Z</time>
      </trkpt>
      <trkpt lat="45.48814" lon="6.41133">
        <ele>1901</ele>
        <time>2022-08-05T10:39:29Z</time>
      </trkpt>
      <trkpt lat="45.48818" lon="6.41139">
        <ele>1901</ele>
        <time>2022-08-05T10:39:32Z</time>
      </trkpt>
      <trkpt lat="45.48816" lon="6.41148">
        <ele>1900</ele>
        <time>2022-08-05T10:39:35Z</time>
      </trkpt>
      <trkpt lat="45.48809" lon="6.41151">
        <ele>1899</ele>
        <time>2022-08-05T10:39:39Z</time>
      </trkpt>
      <trkpt lat="45.48796" lon="6.41149">
        <ele>1898</ele>
        <time>2022-08-05T10:39:45Z</time>
      </trkpt>
      <trkpt lat="45.48791" lon="6.41151">
        <ele>1897</ele>
        <time>2022-08-05T10:39:47Z</time>
      </trkpt>
      <trkpt lat="45.48727" lon="6.41159">
        <ele>1891</ele>
        <time>2022-08-05T10:40:18Z</time>
      </trkpt>
      <trkpt lat="45.48704" lon="6.41158">
        <ele>1888</ele>
        <time>2022-08-05T10:40:29Z</time>
      </trkpt>
      <trkpt lat="45.4869" lon="6.4115">
        <ele>1887</ele>
        <time>2022-08-05T10:40:36Z</time>
      </trkpt>
      <trkpt lat="45.48639" lon="6.41106">
        <ele>1880</ele>
        <time>2022-08-05T10:41:07Z</time>
      </trkpt>
      <trkpt lat="45.48635" lon="6.411">
        <ele>1879</ele>
        <time>2022-08-05T10:41:10Z</time>
      </trkpt>
      <trkpt lat="45.48629" lon="6.41095">
        <ele>1878</ele>
        <time>2022-08-05T10:41:13Z</time>
      </trkpt>
      <trkpt lat="45.48624" lon="6.411">
        <ele>1877</ele>
        <time>2022-08-05T10:41:16Z</time>
      </trkpt>
      <trkpt lat="45.48624" lon="6.41108">
        <ele>1876</ele>
        <time>2022-08-05T10:41:18Z</time>
      </trkpt>
      <trkpt lat="45.48627" lon="6.41113">
        <ele>1876</ele>
        <time>2022-08-05T10:41:20Z</time>
      </trkpt>
      <trkpt lat="45.48664" lon="6.41171">
        <ele>1869</ele>
        <time>2022-08-05T10:41:50Z</time>
      </trkpt>
      <trkpt lat="45.48688" lon="6.41197">
        <ele>1866</ele>
        <time>2022-08-05T10:42:05Z</time>
      </trkpt>
      <trkpt lat="45.48744" lon="6.41241">
        <ele>1860</ele>
        <time>2022-08-05T10:42:36Z</time>
      </trkpt>
      <trkpt lat="45.48762" lon="6.41244">
        <ele>1858</ele>
        <time>2022-08-05T10:42:46Z</time>
      </trkpt>
      <trkpt lat="45.48762" lon="6.41253">
        <ele>1857</ele>
        <time>2022-08-05T10:42:49Z</time>
      </trkpt>
      <trkpt lat="45.48757" lon="6.41255">
        <ele>1856</ele>
        <time>2022-08-05T10:42:51Z</time>
      </trkpt>
      <trkpt lat="45.48753" lon="6.41256">
        <ele>1856</ele>
        <time>2022-08-05T10:42:53Z</time>
      </trkpt>
      <trkpt lat="45.48745" lon="6.41256">
        <ele>1855</ele>
        <time>2022-08-05T10:42:58Z</time>
      </trkpt>
      <trkpt lat="45.48736" lon="6.41252">
        <ele>1855</ele>
        <time>2022-08-05T10:43:06Z</time>
      </trkpt>
      <trkpt lat="45.48725" lon="6.41244">
        <ele>1854</ele>
        <time>2022-08-05T10:43:16Z</time>
      </trkpt>
      <trkpt lat="45.48684" lon="6.41224">
        <ele>1852</ele>
        <time>2022-08-05T10:43:48Z</time>
      </trkpt>
      <trkpt lat="45.48676" lon="6.41218">
        <ele>1851</ele>
        <time>2022-08-05T10:43:54Z</time>
      </trkpt>
      <trkpt lat="45.48649" lon="6.41206">
        <ele>1850</ele>
        <time>2022-08-05T10:44:14Z</time>
      </trkpt>
      <trkpt lat="45.48642" lon="6.41206">
        <ele>1850</ele>
        <time>2022-08-05T10:44:17Z</time>
      </trkpt>
      <trkpt lat="45.48625" lon="6.41218">
        <ele>1849</ele>
        <time>2022-08-05T10:44:26Z</time>
      </trkpt>
      <trkpt lat="45.48627" lon="6.41226">
        <ele>1848</ele>
        <time>2022-08-05T10:44:32Z</time>
      </trkpt>
      <trkpt lat="45.48611" lon="6.41214">
        <ele>1848</ele>
        <time>2022-08-05T10:44:50Z</time>
      </trkpt>
      <trkpt lat="45.48574" lon="6.41166">
        <ele>1844</ele>
        <time>2022-08-05T10:45:23Z</time>
      </trkpt>
      <trkpt lat="45.48569" lon="6.4116">
        <ele>1844</ele>
        <time>2022-08-05T10:45:26Z</time>
      </trkpt>
      <trkpt lat="45.48564" lon="6.41153">
        <ele>1843</ele>
        <time>2022-08-05T10:45:29Z</time>
      </trkpt>
      <trkpt lat="45.48554" lon="6.41139">
        <ele>1842</ele>
        <time>2022-08-05T10:45:36Z</time>
      </trkpt>
      <trkpt lat="45.4855" lon="6.41138">
        <ele>1841</ele>
        <time>2022-08-05T10:45:39Z</time>
      </trkpt>
      <trkpt lat="45.48546" lon="6.41135">
        <ele>1841</ele>
        <time>2022-08-05T10:45:42Z</time>
      </trkpt>
      <trkpt lat="45.48541" lon="6.41129">
        <ele>1840</ele>
        <time>2022-08-05T10:45:45Z</time>
      </trkpt>
      <trkpt lat="45.48537" lon="6.41135">
        <ele>1838</ele>
        <time>2022-08-05T10:45:50Z</time>
      </trkpt>
      <trkpt lat="45.48539" lon="6.41148">
        <ele>1837</ele>
        <time>2022-08-05T10:45:54Z</time>
      </trkpt>
      <trkpt lat="45.4855" lon="6.41187">
        <ele>1831</ele>
        <time>2022-08-05T10:46:09Z</time>
      </trkpt>
      <trkpt lat="45.48545" lon="6.41186">
        <ele>1830</ele>
        <time>2022-08-05T10:46:15Z</time>
      </trkpt>
      <trkpt lat="45.48543" lon="6.41193">
        <ele>1828</ele>
        <time>2022-08-05T10:46:21Z</time>
      </trkpt>
      <trkpt lat="45.4855" lon="6.41225">
        <ele>1824</ele>
        <time>2022-08-05T10:46:34Z</time>
      </trkpt>
      <trkpt lat="45.48544" lon="6.41222">
        <ele>1823</ele>
        <time>2022-08-05T10:46:46Z</time>
      </trkpt>
      <trkpt lat="45.48539" lon="6.41218">
        <ele>1822</ele>
        <time>2022-08-05T10:46:49Z</time>
      </trkpt>
      <trkpt lat="45.48539" lon="6.41233">
        <ele>1821</ele>
        <time>2022-08-05T10:46:58Z</time>
      </trkpt>
      <trkpt lat="45.48535" lon="6.41244">
        <ele>1818</ele>
        <time>2022-08-05T10:47:05Z</time>
      </trkpt>
      <trkpt lat="45.48537" lon="6.4125">
        <ele>1817</ele>
        <time>2022-08-05T10:47:08Z</time>
      </trkpt>
      <trkpt lat="45.48539" lon="6.41255">
        <ele>1816</ele>
        <time>2022-08-05T10:47:11Z</time>
      </trkpt>
      <trkpt lat="45.48536" lon="6.41261">
        <ele>1815</ele>
        <time>2022-08-05T10:47:16Z</time>
      </trkpt>
      <trkpt lat="45.48529" lon="6.41259">
        <ele>1813</ele>
        <time>2022-08-05T10:47:19Z</time>
      </trkpt>
      <trkpt lat="45.48525" lon="6.41256">
        <ele>1812</ele>
        <time>2022-08-05T10:47:22Z</time>
      </trkpt>
      <trkpt lat="45.48516" lon="6.41245">
        <ele>1810</ele>
        <time>2022-08-05T10:47:29Z</time>
      </trkpt>
      <trkpt lat="45.48511" lon="6.41242">
        <ele>1809</ele>
        <time>2022-08-05T10:47:32Z</time>
      </trkpt>
      <trkpt lat="45.48506" lon="6.41235">
        <ele>1807</ele>
        <time>2022-08-05T10:47:36Z</time>
      </trkpt>
      <trkpt lat="45.48503" lon="6.4123">
        <ele>1807</ele>
        <time>2022-08-05T10:47:39Z</time>
      </trkpt>
      <trkpt lat="45.48498" lon="6.41226">
        <ele>1806</ele>
        <time>2022-08-05T10:47:42Z</time>
      </trkpt>
      <trkpt lat="45.48495" lon="6.4122">
        <ele>1806</ele>
        <time>2022-08-05T10:47:45Z</time>
      </trkpt>
      <trkpt lat="45.48482" lon="6.41208">
        <ele>1804</ele>
        <time>2022-08-05T10:47:53Z</time>
      </trkpt>
      <trkpt lat="45.48475" lon="6.41204">
        <ele>1804</ele>
        <time>2022-08-05T10:47:57Z</time>
      </trkpt>
      <trkpt lat="45.48472" lon="6.41198">
        <ele>1803</ele>
        <time>2022-08-05T10:48:00Z</time>
      </trkpt>
      <trkpt lat="45.48467" lon="6.41197">
        <ele>1803</ele>
        <time>2022-08-05T10:48:03Z</time>
      </trkpt>
      <trkpt lat="45.48462" lon="6.41192">
        <ele>1802</ele>
        <time>2022-08-05T10:48:05Z</time>
      </trkpt>
      <trkpt lat="45.4846" lon="6.41187">
        <ele>1802</ele>
        <time>2022-08-05T10:48:08Z</time>
      </trkpt>
      <trkpt lat="45.48426" lon="6.41175">
        <ele>1796</ele>
        <time>2022-08-05T10:48:29Z</time>
      </trkpt>
      <trkpt lat="45.48411" lon="6.41166">
        <ele>1793</ele>
        <time>2022-08-05T10:48:38Z</time>
      </trkpt>
      <trkpt lat="45.48405" lon="6.41168">
        <ele>1792</ele>
        <time>2022-08-05T10:48:41Z</time>
      </trkpt>
      <trkpt lat="45.48395" lon="6.41165">
        <ele>1789</ele>
        <time>2022-08-05T10:48:49Z</time>
      </trkpt>
      <trkpt lat="45.48394" lon="6.41174">
        <ele>1787</ele>
        <time>2022-08-05T10:48:53Z</time>
      </trkpt>
      <trkpt lat="45.484" lon="6.41193">
        <ele>1785</ele>
        <time>2022-08-05T10:49:01Z</time>
      </trkpt>
      <trkpt lat="45.48394" lon="6.41196">
        <ele>1783</ele>
        <time>2022-08-05T10:49:07Z</time>
      </trkpt>
      <trkpt lat="45.48385" lon="6.41193">
        <ele>1781</ele>
        <time>2022-08-05T10:49:13Z</time>
      </trkpt>
      <trkpt lat="45.48384" lon="6.412">
        <ele>1780</ele>
        <time>2022-08-05T10:49:15Z</time>
      </trkpt>
      <trkpt lat="45.48387" lon="6.41206">
        <ele>1779</ele>
        <time>2022-08-05T10:49:18Z</time>
      </trkpt>
      <trkpt lat="45.48385" lon="6.41212">
        <ele>1778</ele>
        <time>2022-08-05T10:49:22Z</time>
      </trkpt>
      <trkpt lat="45.4838" lon="6.41209">
        <ele>1776</ele>
        <time>2022-08-05T10:49:25Z</time>
      </trkpt>
      <trkpt lat="45.48368" lon="6.41196">
        <ele>1774</ele>
        <time>2022-08-05T10:49:36Z</time>
      </trkpt>
      <trkpt lat="45.48364" lon="6.41193">
        <ele>1774</ele>
        <time>2022-08-05T10:49:40Z</time>
      </trkpt>
      <trkpt lat="45.48358" lon="6.4118">
        <ele>1773</ele>
        <time>2022-08-05T10:49:50Z</time>
      </trkpt>
      <trkpt lat="45.4836" lon="6.41187">
        <ele>1772</ele>
        <time>2022-08-05T10:49:56Z</time>
      </trkpt>
      <trkpt lat="45.48368" lon="6.41198">
        <ele>1773</ele>
        <time>2022-08-05T10:50:03Z</time>
      </trkpt>
      <trkpt lat="45.48372" lon="6.41201">
        <ele>1773</ele>
        <time>2022-08-05T10:50:06Z</time>
      </trkpt>
      <trkpt lat="45.48373" lon="6.41208">
        <ele>1774</ele>
        <time>2022-08-05T10:50:10Z</time>
      </trkpt>
      <trkpt lat="45.48369" lon="6.41211">
        <ele>1774</ele>
        <time>2022-08-05T10:50:13Z</time>
      </trkpt>
      <trkpt lat="45.4837" lon="6.41218">
        <ele>1773</ele>
        <time>2022-08-05T10:50:16Z</time>
      </trkpt>
      <trkpt lat="45.48373" lon="6.41229">
        <ele>1770</ele>
        <time>2022-08-05T10:50:22Z</time>
      </trkpt>
      <trkpt lat="45.48367" lon="6.41228">
        <ele>1768</ele>
        <time>2022-08-05T10:50:26Z</time>
      </trkpt>
      <trkpt lat="45.48355" lon="6.41215">
        <ele>1765</ele>
        <time>2022-08-05T10:50:36Z</time>
      </trkpt>
      <trkpt lat="45.48352" lon="6.41233">
        <ele>1761</ele>
        <time>2022-08-05T10:50:45Z</time>
      </trkpt>
      <trkpt lat="45.48347" lon="6.41232">
        <ele>1759</ele>
        <time>2022-08-05T10:50:50Z</time>
      </trkpt>
      <trkpt lat="45.48342" lon="6.41221">
        <ele>1758</ele>
        <time>2022-08-05T10:50:54Z</time>
      </trkpt>
      <trkpt lat="45.48342" lon="6.41214">
        <ele>1757</ele>
        <time>2022-08-05T10:50:58Z</time>
      </trkpt>
      <trkpt lat="45.48332" lon="6.41206">
        <ele>1756</ele>
        <time>2022-08-05T10:51:05Z</time>
      </trkpt>
      <trkpt lat="45.4832" lon="6.41205">
        <ele>1754</ele>
        <time>2022-08-05T10:51:11Z</time>
      </trkpt>
      <trkpt lat="45.48278" lon="6.41144">
        <ele>1750</ele>
        <time>2022-08-05T10:51:42Z</time>
      </trkpt>
      <trkpt lat="45.48254" lon="6.41108">
        <ele>1747</ele>
        <time>2022-08-05T10:51:56Z</time>
      </trkpt>
      <trkpt lat="45.48244" lon="6.41075">
        <ele>1745</ele>
        <time>2022-08-05T10:52:07Z</time>
      </trkpt>
      <trkpt lat="45.4824" lon="6.41048">
        <ele>1744</ele>
        <time>2022-08-05T10:52:15Z</time>
      </trkpt>
      <trkpt lat="45.48236" lon="6.4103">
        <ele>1743</ele>
        <time>2022-08-05T10:52:21Z</time>
      </trkpt>
      <trkpt lat="45.48236" lon="6.41023">
        <ele>1742</ele>
        <time>2022-08-05T10:52:23Z</time>
      </trkpt>
      <trkpt lat="45.48228" lon="6.40974">
        <ele>1740</ele>
        <time>2022-08-05T10:52:41Z</time>
      </trkpt>
      <trkpt lat="45.4823" lon="6.40952">
        <ele>1738</ele>
        <time>2022-08-05T10:52:48Z</time>
      </trkpt>
      <trkpt lat="45.48235" lon="6.40931">
        <ele>1737</ele>
        <time>2022-08-05T10:52:55Z</time>
      </trkpt>
      <trkpt lat="45.48243" lon="6.40919">
        <ele>1737</ele>
        <time>2022-08-05T10:53:01Z</time>
      </trkpt>
      <trkpt lat="45.48249" lon="6.40914">
        <ele>1736</ele>
        <time>2022-08-05T10:53:04Z</time>
      </trkpt>
      <trkpt lat="45.48253" lon="6.40912">
        <ele>1736</ele>
        <time>2022-08-05T10:53:06Z</time>
      </trkpt>
      <trkpt lat="45.48278" lon="6.40862">
        <ele>1730</ele>
        <time>2022-08-05T10:53:31Z</time>
      </trkpt>
      <trkpt lat="45.4828" lon="6.40854">
        <ele>1729</ele>
        <time>2022-08-05T10:53:34Z</time>
      </trkpt>
      <trkpt lat="45.48329" lon="6.40794">
        <ele>1723</ele>
        <time>2022-08-05T10:54:08Z</time>
      </trkpt>
      <trkpt lat="45.48361" lon="6.40756">
        <ele>1719</ele>
        <time>2022-08-05T10:54:31Z</time>
      </trkpt>
      <trkpt lat="45.48367" lon="6.40746">
        <ele>1718</ele>
        <time>2022-08-05T10:54:37Z</time>
      </trkpt>
      <trkpt lat="45.48365" lon="6.40736">
        <ele>1717</ele>
        <time>2022-08-05T10:54:42Z</time>
      </trkpt>
      <trkpt lat="45.48363" lon="6.4073">
        <ele>1716</ele>
        <time>2022-08-05T10:54:45Z</time>
      </trkpt>
      <trkpt lat="45.48359" lon="6.40727">
        <ele>1715</ele>
        <time>2022-08-05T10:54:49Z</time>
      </trkpt>
      <trkpt lat="45.48354" lon="6.40728">
        <ele>1715</ele>
        <time>2022-08-05T10:54:52Z</time>
      </trkpt>
      <trkpt lat="45.48321" lon="6.40766">
        <ele>1709</ele>
        <time>2022-08-05T10:55:18Z</time>
      </trkpt>
      <trkpt lat="45.48293" lon="6.40786">
        <ele>1706</ele>
        <time>2022-08-05T10:55:34Z</time>
      </trkpt>
      <trkpt lat="45.48261" lon="6.40797">
        <ele>1702</ele>
        <time>2022-08-05T10:55:49Z</time>
      </trkpt>
      <trkpt lat="45.48242" lon="6.40812">
        <ele>1700</ele>
        <time>2022-08-05T10:55:59Z</time>
      </trkpt>
      <trkpt lat="45.48229" lon="6.40826">
        <ele>1699</ele>
        <time>2022-08-05T10:56:07Z</time>
      </trkpt>
      <trkpt lat="45.48227" lon="6.40821">
        <ele>1697</ele>
        <time>2022-08-05T10:56:24Z</time>
      </trkpt>
      <trkpt lat="45.48222" lon="6.4082">
        <ele>1697</ele>
        <time>2022-08-05T10:56:28Z</time>
      </trkpt>
      <trkpt lat="45.48212" lon="6.40822">
        <ele>1693</ele>
        <time>2022-08-05T10:56:40Z</time>
      </trkpt>
      <trkpt lat="45.48208" lon="6.40819">
        <ele>1692</ele>
        <time>2022-08-05T10:56:43Z</time>
      </trkpt>
      <trkpt lat="45.48193" lon="6.40823">
        <ele>1690</ele>
        <time>2022-08-05T10:56:55Z</time>
      </trkpt>
      <trkpt lat="45.4817" lon="6.40831">
        <ele>1686</ele>
        <time>2022-08-05T10:57:15Z</time>
      </trkpt>
      <trkpt lat="45.48173" lon="6.40837">
        <ele>1684</ele>
        <time>2022-08-05T10:57:22Z</time>
      </trkpt>
      <trkpt lat="45.48174" lon="6.40849">
        <ele>1682</ele>
        <time>2022-08-05T10:57:33Z</time>
      </trkpt>
      <trkpt lat="45.48176" lon="6.40855">
        <ele>1681</ele>
        <time>2022-08-05T10:57:38Z</time>
      </trkpt>
      <trkpt lat="45.48176" lon="6.40863">
        <ele>1681</ele>
        <time>2022-08-05T10:57:45Z</time>
      </trkpt>
      <trkpt lat="45.48174" lon="6.40869">
        <ele>1681</ele>
        <time>2022-08-05T10:57:50Z</time>
      </trkpt>
      <trkpt lat="45.48171" lon="6.40874">
        <ele>1682</ele>
        <time>2022-08-05T10:57:55Z</time>
      </trkpt>
      <trkpt lat="45.48171" lon="6.40882">
        <ele>1682</ele>
        <time>2022-08-05T10:58:01Z</time>
      </trkpt>
      <trkpt lat="45.48168" lon="6.40895">
        <ele>1684</ele>
        <time>2022-08-05T10:58:10Z</time>
      </trkpt>
      <trkpt lat="45.48162" lon="6.40906">
        <ele>1686</ele>
        <time>2022-08-05T10:58:19Z</time>
      </trkpt>
      <trkpt lat="45.48159" lon="6.40915">
        <ele>1688</ele>
        <time>2022-08-05T10:58:26Z</time>
      </trkpt>
      <trkpt lat="45.48157" lon="6.40921">
        <ele>1688</ele>
        <time>2022-08-05T10:58:29Z</time>
      </trkpt>
      <trkpt lat="45.48136" lon="6.40957">
        <ele>1686</ele>
        <time>2022-08-05T10:58:45Z</time>
      </trkpt>
      <trkpt lat="45.48135" lon="6.40964">
        <ele>1685</ele>
        <time>2022-08-05T10:58:47Z</time>
      </trkpt>
      <trkpt lat="45.48126" lon="6.40976">
        <ele>1684</ele>
        <time>2022-08-05T10:58:52Z</time>
      </trkpt>
      <trkpt lat="45.48125" lon="6.40981">
        <ele>1684</ele>
        <time>2022-08-05T10:58:54Z</time>
      </trkpt>
      <trkpt lat="45.48122" lon="6.40986">
        <ele>1683</ele>
        <time>2022-08-05T10:58:56Z</time>
      </trkpt>
      <trkpt lat="45.48105" lon="6.41049">
        <ele>1679</ele>
        <time>2022-08-05T10:59:16Z</time>
      </trkpt>
      <trkpt lat="45.48102" lon="6.41078">
        <ele>1676</ele>
        <time>2022-08-05T10:59:26Z</time>
      </trkpt>
      <trkpt lat="45.48102" lon="6.41087">
        <ele>1675</ele>
        <time>2022-08-05T10:59:29Z</time>
      </trkpt>
      <trkpt lat="45.48107" lon="6.41119">
        <ele>1672</ele>
        <time>2022-08-05T10:59:39Z</time>
      </trkpt>
      <trkpt lat="45.48113" lon="6.41136">
        <ele>1671</ele>
        <time>2022-08-05T10:59:45Z</time>
      </trkpt>
      <trkpt lat="45.4812" lon="6.41186">
        <ele>1668</ele>
        <time>2022-08-05T11:00:01Z</time>
      </trkpt>
      <trkpt lat="45.48117" lon="6.41193">
        <ele>1667</ele>
        <time>2022-08-05T11:00:04Z</time>
      </trkpt>
      <trkpt lat="45.4811" lon="6.41189">
        <ele>1666</ele>
        <time>2022-08-05T11:00:08Z</time>
      </trkpt>
      <trkpt lat="45.48105" lon="6.41178">
        <ele>1665</ele>
        <time>2022-08-05T11:00:12Z</time>
      </trkpt>
      <trkpt lat="45.48091" lon="6.4114">
        <ele>1662</ele>
        <time>2022-08-05T11:00:26Z</time>
      </trkpt>
      <trkpt lat="45.48085" lon="6.41129">
        <ele>1661</ele>
        <time>2022-08-05T11:00:30Z</time>
      </trkpt>
      <trkpt lat="45.4807" lon="6.41082">
        <ele>1660</ele>
        <time>2022-08-05T11:00:46Z</time>
      </trkpt>
      <trkpt lat="45.48068" lon="6.4106">
        <ele>1658</ele>
        <time>2022-08-05T11:00:53Z</time>
      </trkpt>
      <trkpt lat="45.4807" lon="6.41036">
        <ele>1656</ele>
        <time>2022-08-05T11:01:01Z</time>
      </trkpt>
      <trkpt lat="45.48073" lon="6.41005">
        <ele>1653</ele>
        <time>2022-08-05T11:01:12Z</time>
      </trkpt>
      <trkpt lat="45.48072" lon="6.40963">
        <ele>1649</ele>
        <time>2022-08-05T11:01:26Z</time>
      </trkpt>
      <trkpt lat="45.48074" lon="6.40955">
        <ele>1648</ele>
        <time>2022-08-05T11:01:29Z</time>
      </trkpt>
      <trkpt lat="45.48072" lon="6.40926">
        <ele>1646</ele>
        <time>2022-08-05T11:01:38Z</time>
      </trkpt>
      <trkpt lat="45.48062" lon="6.40881">
        <ele>1644</ele>
        <time>2022-08-05T11:01:53Z</time>
      </trkpt>
      <trkpt lat="45.48063" lon="6.40872">
        <ele>1643</ele>
        <time>2022-08-05T11:01:56Z</time>
      </trkpt>
      <trkpt lat="45.48065" lon="6.40856">
        <ele>1642</ele>
        <time>2022-08-05T11:02:01Z</time>
      </trkpt>
      <trkpt lat="45.48065" lon="6.40827">
        <ele>1639</ele>
        <time>2022-08-05T11:02:11Z</time>
      </trkpt>
      <trkpt lat="45.48067" lon="6.40819">
        <ele>1639</ele>
        <time>2022-08-05T11:02:14Z</time>
      </trkpt>
      <trkpt lat="45.48073" lon="6.40813">
        <ele>1638</ele>
        <time>2022-08-05T11:02:17Z</time>
      </trkpt>
      <trkpt lat="45.48082" lon="6.40804">
        <ele>1637</ele>
        <time>2022-08-05T11:02:22Z</time>
      </trkpt>
      <trkpt lat="45.48121" lon="6.4075">
        <ele>1630</ele>
        <time>2022-08-05T11:02:49Z</time>
      </trkpt>
      <trkpt lat="45.48139" lon="6.40733">
        <ele>1627</ele>
        <time>2022-08-05T11:03:00Z</time>
      </trkpt>
      <trkpt lat="45.48141" lon="6.40725">
        <ele>1626</ele>
        <time>2022-08-05T11:03:03Z</time>
      </trkpt>
      <trkpt lat="45.48149" lon="6.40718">
        <ele>1625</ele>
        <time>2022-08-05T11:03:08Z</time>
      </trkpt>
      <trkpt lat="45.48162" lon="6.40701">
        <ele>1623</ele>
        <time>2022-08-05T11:03:17Z</time>
      </trkpt>
      <trkpt lat="45.48178" lon="6.40681">
        <ele>1620</ele>
        <time>2022-08-05T11:03:29Z</time>
      </trkpt>
      <trkpt lat="45.48184" lon="6.40677">
        <ele>1619</ele>
        <time>2022-08-05T11:03:32Z</time>
      </trkpt>
      <trkpt lat="45.48173" lon="6.40673">
        <ele>1616</ele>
        <time>2022-08-05T11:03:39Z</time>
      </trkpt>
      <trkpt lat="45.48158" lon="6.40671">
        <ele>1611</ele>
        <time>2022-08-05T11:03:53Z</time>
      </trkpt>
      <trkpt lat="45.48138" lon="6.40668">
        <ele>1608</ele>
        <time>2022-08-05T11:04:09Z</time>
      </trkpt>
      <trkpt lat="45.48119" lon="6.40671">
        <ele>1603</ele>
        <time>2022-08-05T11:04:21Z</time>
      </trkpt>
      <trkpt lat="45.48114" lon="6.40673">
        <ele>1602</ele>
        <time>2022-08-05T11:04:24Z</time>
      </trkpt>
      <trkpt lat="45.48109" lon="6.40673">
        <ele>1601</ele>
        <time>2022-08-05T11:04:27Z</time>
      </trkpt>
      <trkpt lat="45.48105" lon="6.40672">
        <ele>1599</ele>
        <time>2022-08-05T11:04:30Z</time>
      </trkpt>
      <trkpt lat="45.48101" lon="6.40668">
        <ele>1598</ele>
        <time>2022-08-05T11:04:33Z</time>
      </trkpt>
      <trkpt lat="45.48096" lon="6.40669">
        <ele>1597</ele>
        <time>2022-08-05T11:04:36Z</time>
      </trkpt>
      <trkpt lat="45.48091" lon="6.40667">
        <ele>1596</ele>
        <time>2022-08-05T11:04:40Z</time>
      </trkpt>
      <trkpt lat="45.48085" lon="6.40668">
        <ele>1595</ele>
        <time>2022-08-05T11:04:44Z</time>
      </trkpt>
      <trkpt lat="45.4808" lon="6.40673">
        <ele>1594</ele>
        <time>2022-08-05T11:04:47Z</time>
      </trkpt>
      <trkpt lat="45.4807" lon="6.40673">
        <ele>1592</ele>
        <time>2022-08-05T11:04:53Z</time>
      </trkpt>
      <trkpt lat="45.48037" lon="6.40696">
        <ele>1585</ele>
        <time>2022-08-05T11:05:15Z</time>
      </trkpt>
      <trkpt lat="45.48028" lon="6.40699">
        <ele>1583</ele>
        <time>2022-08-05T11:05:21Z</time>
      </trkpt>
      <trkpt lat="45.48019" lon="6.40704">
        <ele>1581</ele>
        <time>2022-08-05T11:05:28Z</time>
      </trkpt>
      <trkpt lat="45.48014" lon="6.40705">
        <ele>1579</ele>
        <time>2022-08-05T11:05:32Z</time>
      </trkpt>
      <trkpt lat="45.4801" lon="6.40709">
        <ele>1578</ele>
        <time>2022-08-05T11:05:35Z</time>
      </trkpt>
      <trkpt lat="45.48003" lon="6.40719">
        <ele>1576</ele>
        <time>2022-08-05T11:05:42Z</time>
      </trkpt>
      <trkpt lat="45.48001" lon="6.40725">
        <ele>1574</ele>
        <time>2022-08-05T11:05:46Z</time>
      </trkpt>
      <trkpt lat="45.47991" lon="6.40731">
        <ele>1571</ele>
        <time>2022-08-05T11:05:54Z</time>
      </trkpt>
      <trkpt lat="45.47986" lon="6.40732">
        <ele>1570</ele>
        <time>2022-08-05T11:05:58Z</time>
      </trkpt>
      <trkpt lat="45.47975" lon="6.40746">
        <ele>1566</ele>
        <time>2022-08-05T11:06:08Z</time>
      </trkpt>
      <trkpt lat="45.47966" lon="6.40762">
        <ele>1563</ele>
        <time>2022-08-05T11:06:18Z</time>
      </trkpt>
      <trkpt lat="45.4795" lon="6.40782">
        <ele>1558</ele>
        <time>2022-08-05T11:06:34Z</time>
      </trkpt>
      <trkpt lat="45.47942" lon="6.40798">
        <ele>1554</ele>
        <time>2022-08-05T11:06:47Z</time>
      </trkpt>
      <trkpt lat="45.47938" lon="6.40799">
        <ele>1552</ele>
        <time>2022-08-05T11:06:52Z</time>
      </trkpt>
      <trkpt lat="45.47936" lon="6.40793">
        <ele>1551</ele>
        <time>2022-08-05T11:06:55Z</time>
      </trkpt>
      <trkpt lat="45.47923" lon="6.40811">
        <ele>1547</ele>
        <time>2022-08-05T11:07:11Z</time>
      </trkpt>
      <trkpt lat="45.47919" lon="6.40813">
        <ele>1545</ele>
        <time>2022-08-05T11:07:14Z</time>
      </trkpt>
      <trkpt lat="45.47915" lon="6.40828">
        <ele>1543</ele>
        <time>2022-08-05T11:07:22Z</time>
      </trkpt>
      <trkpt lat="45.47907" lon="6.40836">
        <ele>1542</ele>
        <time>2022-08-05T11:07:28Z</time>
      </trkpt>
      <trkpt lat="45.47904" lon="6.40843">
        <ele>1541</ele>
        <time>2022-08-05T11:07:34Z</time>
      </trkpt>
      <trkpt lat="45.47895" lon="6.40851">
        <ele>1538</ele>
        <time>2022-08-05T11:07:40Z</time>
      </trkpt>
      <trkpt lat="45.47889" lon="6.40862">
        <ele>1537</ele>
        <time>2022-08-05T11:07:45Z</time>
      </trkpt>
      <trkpt lat="45.47875" lon="6.40876">
        <ele>1531</ele>
        <time>2022-08-05T11:08:00Z</time>
      </trkpt>
      <trkpt lat="45.47867" lon="6.40893">
        <ele>1527</ele>
        <time>2022-08-05T11:08:10Z</time>
      </trkpt>
      <trkpt lat="45.47864" lon="6.40897">
        <ele>1526</ele>
        <time>2022-08-05T11:08:13Z</time>
      </trkpt>
      <trkpt lat="45.47854" lon="6.4091">
        <ele>1523</ele>
        <time>2022-08-05T11:08:23Z</time>
      </trkpt>
      <trkpt lat="45.47852" lon="6.40917">
        <ele>1522</ele>
        <time>2022-08-05T11:08:27Z</time>
      </trkpt>
      <trkpt lat="45.47848" lon="6.40921">
        <ele>1522</ele>
        <time>2022-08-05T11:08:31Z</time>
      </trkpt>
      <trkpt lat="45.47843" lon="6.40924">
        <ele>1520</ele>
        <time>2022-08-05T11:08:35Z</time>
      </trkpt>
      <trkpt lat="45.47832" lon="6.40946">
        <ele>1515</ele>
        <time>2022-08-05T11:08:48Z</time>
      </trkpt>
      <trkpt lat="45.4783" lon="6.40953">
        <ele>1514</ele>
        <time>2022-08-05T11:08:52Z</time>
      </trkpt>
      <trkpt lat="45.47826" lon="6.40958">
        <ele>1513</ele>
        <time>2022-08-05T11:08:56Z</time>
      </trkpt>
      <trkpt lat="45.47823" lon="6.40963">
        <ele>1511</ele>
        <time>2022-08-05T11:09:01Z</time>
      </trkpt>
      <trkpt lat="45.47821" lon="6.40957">
        <ele>1509</ele>
        <time>2022-08-05T11:09:08Z</time>
      </trkpt>
      <trkpt lat="45.47821" lon="6.40951">
        <ele>1509</ele>
        <time>2022-08-05T11:09:12Z</time>
      </trkpt>
      <trkpt lat="45.47823" lon="6.40943">
        <ele>1508</ele>
        <time>2022-08-05T11:09:16Z</time>
      </trkpt>
      <trkpt lat="45.47821" lon="6.40937">
        <ele>1508</ele>
        <time>2022-08-05T11:09:19Z</time>
      </trkpt>
      <trkpt lat="45.4782" lon="6.40949">
        <ele>1508</ele>
        <time>2022-08-05T11:09:31Z</time>
      </trkpt>
      <trkpt lat="45.47821" lon="6.40948">
        <ele>1508</ele>
        <time>2022-08-05T11:09:41Z</time>
      </trkpt>
      <trkpt lat="45.47822" lon="6.40938">
        <ele>1508</ele>
        <time>2022-08-05T11:09:45Z</time>
      </trkpt>
      <trkpt lat="45.47831" lon="6.40858">
        <ele>1502</ele>
        <time>2022-08-05T11:10:11Z</time>
      </trkpt>
      <trkpt lat="45.47824" lon="6.40846">
        <ele>1501</ele>
        <time>2022-08-05T11:10:16Z</time>
      </trkpt>
      <trkpt lat="45.4782" lon="6.40844">
        <ele>1500</ele>
        <time>2022-08-05T11:10:20Z</time>
      </trkpt>
      <trkpt lat="45.47816" lon="6.4084">
        <ele>1500</ele>
        <time>2022-08-05T11:10:24Z</time>
      </trkpt>
      <trkpt lat="45.47811" lon="6.4084">
        <ele>1500</ele>
        <time>2022-08-05T11:10:27Z</time>
      </trkpt>
      <trkpt lat="45.47807" lon="6.40846">
        <ele>1499</ele>
        <time>2022-08-05T11:10:31Z</time>
      </trkpt>
      <trkpt lat="45.47802" lon="6.40847">
        <ele>1499</ele>
        <time>2022-08-05T11:10:35Z</time>
      </trkpt>
      <trkpt lat="45.47773" lon="6.40838">
        <ele>1497</ele>
        <time>2022-08-05T11:10:56Z</time>
      </trkpt>
      <trkpt lat="45.47762" lon="6.40842">
        <ele>1496</ele>
        <time>2022-08-05T11:11:02Z</time>
      </trkpt>
      <trkpt lat="45.47732" lon="6.4088">
        <ele>1493</ele>
        <time>2022-08-05T11:11:20Z</time>
      </trkpt>
      <trkpt lat="45.47729" lon="6.40886">
        <ele>1492</ele>
        <time>2022-08-05T11:11:22Z</time>
      </trkpt>
      <trkpt lat="45.47689" lon="6.4093">
        <ele>1486</ele>
        <time>2022-08-05T11:11:46Z</time>
      </trkpt>
      <trkpt lat="45.47688" lon="6.4094">
        <ele>1485</ele>
        <time>2022-08-05T11:11:53Z</time>
      </trkpt>
      <trkpt lat="45.47682" lon="6.40953">
        <ele>1481</ele>
        <time>2022-08-05T11:12:01Z</time>
      </trkpt>
      <trkpt lat="45.47684" lon="6.40959">
        <ele>1479</ele>
        <time>2022-08-05T11:12:04Z</time>
      </trkpt>
      <trkpt lat="45.47675" lon="6.40999">
        <ele>1468</ele>
        <time>2022-08-05T11:12:26Z</time>
      </trkpt>
      <trkpt lat="45.47676" lon="6.41009">
        <ele>1465</ele>
        <time>2022-08-05T11:12:32Z</time>
      </trkpt>
      <trkpt lat="45.47674" lon="6.41015">
        <ele>1463</ele>
        <time>2022-08-05T11:12:36Z</time>
      </trkpt>
      <trkpt lat="45.47674" lon="6.41028">
        <ele>1460</ele>
        <time>2022-08-05T11:12:43Z</time>
      </trkpt>
      <trkpt lat="45.4767" lon="6.41033">
        <ele>1458</ele>
        <time>2022-08-05T11:12:47Z</time>
      </trkpt>
      <trkpt lat="45.47668" lon="6.4104">
        <ele>1456</ele>
        <time>2022-08-05T11:12:51Z</time>
      </trkpt>
      <trkpt lat="45.47668" lon="6.41048">
        <ele>1455</ele>
        <time>2022-08-05T11:12:55Z</time>
      </trkpt>
      <trkpt lat="45.47665" lon="6.41053">
        <ele>1453</ele>
        <time>2022-08-05T11:12:58Z</time>
      </trkpt>
      <trkpt lat="45.47666" lon="6.4106">
        <ele>1452</ele>
        <time>2022-08-05T11:13:02Z</time>
      </trkpt>
      <trkpt lat="45.47668" lon="6.41066">
        <ele>1450</ele>
        <time>2022-08-05T11:13:06Z</time>
      </trkpt>
      <trkpt lat="45.4765" lon="6.41115">
        <ele>1438</ele>
        <time>2022-08-05T11:13:37Z</time>
      </trkpt>
      <trkpt lat="45.47647" lon="6.4112">
        <ele>1437</ele>
        <time>2022-08-05T11:13:41Z</time>
      </trkpt>
      <trkpt lat="45.47645" lon="6.41127">
        <ele>1436</ele>
        <time>2022-08-05T11:13:46Z</time>
      </trkpt>
      <trkpt lat="45.47647" lon="6.41134">
        <ele>1434</ele>
        <time>2022-08-05T11:13:50Z</time>
      </trkpt>
      <trkpt lat="45.47649" lon="6.41139">
        <ele>1433</ele>
        <time>2022-08-05T11:13:54Z</time>
      </trkpt>
      <trkpt lat="45.47647" lon="6.41158">
        <ele>1428</ele>
        <time>2022-08-05T11:14:06Z</time>
      </trkpt>
      <trkpt lat="45.47644" lon="6.41167">
        <ele>1426</ele>
        <time>2022-08-05T11:14:11Z</time>
      </trkpt>
      <trkpt lat="45.47636" lon="6.41178">
        <ele>1425</ele>
        <time>2022-08-05T11:14:18Z</time>
      </trkpt>
      <trkpt lat="45.47614" lon="6.41207">
        <ele>1422</ele>
        <time>2022-08-05T11:14:32Z</time>
      </trkpt>
      <trkpt lat="45.47588" lon="6.41255">
        <ele>1417</ele>
        <time>2022-08-05T11:14:51Z</time>
      </trkpt>
      <trkpt lat="45.47576" lon="6.41297">
        <ele>1413</ele>
        <time>2022-08-05T11:15:06Z</time>
      </trkpt>
      <trkpt lat="45.4757" lon="6.41309">
        <ele>1412</ele>
        <time>2022-08-05T11:15:11Z</time>
      </trkpt>
      <trkpt lat="45.47568" lon="6.41317">
        <ele>1411</ele>
        <time>2022-08-05T11:15:15Z</time>
      </trkpt>
      <trkpt lat="45.47578" lon="6.41324">
        <ele>1407</ele>
        <time>2022-08-05T11:15:28Z</time>
      </trkpt>
      <trkpt lat="45.47582" lon="6.4133">
        <ele>1405</ele>
        <time>2022-08-05T11:15:33Z</time>
      </trkpt>
      <trkpt lat="45.47586" lon="6.41331">
        <ele>1403</ele>
        <time>2022-08-05T11:15:37Z</time>
      </trkpt>
      <trkpt lat="45.47588" lon="6.4134">
        <ele>1401</ele>
        <time>2022-08-05T11:15:45Z</time>
      </trkpt>
      <trkpt lat="45.47584" lon="6.41346">
        <ele>1400</ele>
        <time>2022-08-05T11:15:49Z</time>
      </trkpt>
      <trkpt lat="45.47546" lon="6.41401">
        <ele>1396</ele>
        <time>2022-08-05T11:16:16Z</time>
      </trkpt>
      <trkpt lat="45.4754" lon="6.41418">
        <ele>1395</ele>
        <time>2022-08-05T11:16:23Z</time>
      </trkpt>
      <trkpt lat="45.47524" lon="6.41513">
        <ele>1390</ele>
        <time>2022-08-05T11:16:55Z</time>
      </trkpt>
      <trkpt lat="45.47509" lon="6.41596">
        <ele>1386</ele>
        <time>2022-08-05T11:17:24Z</time>
      </trkpt>
      <trkpt lat="45.475" lon="6.41617">
        <ele>1385</ele>
        <time>2022-08-05T11:17:32Z</time>
      </trkpt>
      <trkpt lat="45.4749" lon="6.41628">
        <ele>1384</ele>
        <time>2022-08-05T11:17:38Z</time>
      </trkpt>
      <trkpt lat="45.47477" lon="6.41634">
        <ele>1383</ele>
        <time>2022-08-05T11:17:44Z</time>
      </trkpt>
      <trkpt lat="45.47462" lon="6.41633">
        <ele>1382</ele>
        <time>2022-08-05T11:17:51Z</time>
      </trkpt>
      <trkpt lat="45.4745" lon="6.41627">
        <ele>1380</ele>
        <time>2022-08-05T11:18:01Z</time>
      </trkpt>
      <trkpt lat="45.47438" lon="6.41615">
        <ele>1379</ele>
        <time>2022-08-05T11:18:12Z</time>
      </trkpt>
      <trkpt lat="45.47436" lon="6.4161">
        <ele>1379</ele>
        <time>2022-08-05T11:18:15Z</time>
      </trkpt>
      <trkpt lat="45.47428" lon="6.41601">
        <ele>1378</ele>
        <time>2022-08-05T11:18:23Z</time>
      </trkpt>
      <trkpt lat="45.47402" lon="6.41568">
        <ele>1375</ele>
        <time>2022-08-05T11:18:49Z</time>
      </trkpt>
      <trkpt lat="45.4739" lon="6.41555">
        <ele>1374</ele>
        <time>2022-08-05T11:19:00Z</time>
      </trkpt>
      <trkpt lat="45.47383" lon="6.41544">
        <ele>1373</ele>
        <time>2022-08-05T11:19:08Z</time>
      </trkpt>
      <trkpt lat="45.47368" lon="6.41525">
        <ele>1372</ele>
        <time>2022-08-05T11:19:22Z</time>
      </trkpt>
      <trkpt lat="45.47361" lon="6.41515">
        <ele>1371</ele>
        <time>2022-08-05T11:19:29Z</time>
      </trkpt>
      <trkpt lat="45.47352" lon="6.41484">
        <ele>1370</ele>
        <time>2022-08-05T11:19:49Z</time>
      </trkpt>
      <trkpt lat="45.47348" lon="6.41478">
        <ele>1369</ele>
        <time>2022-08-05T11:19:53Z</time>
      </trkpt>
      <trkpt lat="45.47343" lon="6.41477">
        <ele>1369</ele>
        <time>2022-08-05T11:19:56Z</time>
      </trkpt>
      <trkpt lat="45.47332" lon="6.41479">
        <ele>1368</ele>
        <time>2022-08-05T11:20:04Z</time>
      </trkpt>
      <trkpt lat="45.47323" lon="6.41485">
        <ele>1368</ele>
        <time>2022-08-05T11:20:12Z</time>
      </trkpt>
      <trkpt lat="45.47319" lon="6.41486">
        <ele>1368</ele>
        <time>2022-08-05T11:20:16Z</time>
      </trkpt>
      <trkpt lat="45.47308" lon="6.41478">
        <ele>1369</ele>
        <time>2022-08-05T11:20:49Z</time>
      </trkpt>
      <trkpt lat="45.47297" lon="6.41469">
        <ele>1370</ele>
        <time>2022-08-05T11:21:05Z</time>
      </trkpt>
      <trkpt lat="45.47278" lon="6.41455">
        <ele>1372</ele>
        <time>2022-08-05T11:21:29Z</time>
      </trkpt>
      <trkpt lat="45.47278" lon="6.41456">
        <ele>1372</ele>
        <time>2022-08-05T11:22:09Z</time>
      </trkpt>
      <trkpt lat="45.47273" lon="6.4145">
        <ele>1372</ele>
        <time>2022-08-05T11:22:33Z</time>
      </trkpt>
      <trkpt lat="45.47268" lon="6.41447">
        <ele>1373</ele>
        <time>2022-08-05T11:22:37Z</time>
      </trkpt>
      <trkpt lat="45.47265" lon="6.41441">
        <ele>1373</ele>
        <time>2022-08-05T11:22:42Z</time>
      </trkpt>
      <trkpt lat="45.47274" lon="6.41441">
        <ele>1374</ele>
        <time>2022-08-05T11:22:55Z</time>
      </trkpt>
    </trkseg>
  </trk>
  <trk>
    <name><![CDATA[30 juil. 2022 à 09:31:45]]></name>
    <cmt><![CDATA[30 juil. 2022 à 09:31:45]]></cmt>
    <trkseg>
      <trkpt lat="45.36555" lon="5.83399">
        <ele>1145</ele>
        <time>2022-07-30T07:31:46Z</time>
      </trkpt>
      <trkpt lat="45.36559" lon="5.83403">
        <ele>1145</ele>
        <time>2022-07-30T07:32:22Z</time>
      </trkpt>
      <trkpt lat="45.36564" lon="5.834">
        <ele>1144</ele>
        <time>2022-07-30T07:32:32Z</time>
      </trkpt>
      <trkpt lat="45.36572" lon="5.83393">
        <ele>1145</ele>
        <time>2022-07-30T07:32:47Z</time>
      </trkpt>
      <trkpt lat="45.36577" lon="5.83387">
        <ele>1139</ele>
        <time>2022-07-30T07:33:02Z</time>
      </trkpt>
      <trkpt lat="45.3658" lon="5.83383">
        <ele>1139</ele>
        <time>2022-07-30T07:33:06Z</time>
      </trkpt>
      <trkpt lat="45.36584" lon="5.83387">
        <ele>1140</ele>
        <time>2022-07-30T07:33:43Z</time>
      </trkpt>
      <trkpt lat="45.36588" lon="5.83385">
        <ele>1140</ele>
        <time>2022-07-30T07:33:49Z</time>
      </trkpt>
      <trkpt lat="45.36593" lon="5.83386">
        <ele>1141</ele>
        <time>2022-07-30T07:33:56Z</time>
      </trkpt>
      <trkpt lat="45.36604" lon="5.83382">
        <ele>1141</ele>
        <time>2022-07-30T07:34:08Z</time>
      </trkpt>
      <trkpt lat="45.36609" lon="5.83381">
        <ele>1142</ele>
        <time>2022-07-30T07:34:22Z</time>
      </trkpt>
      <trkpt lat="45.36619" lon="5.83372">
        <ele>1144</ele>
        <time>2022-07-30T07:34:38Z</time>
      </trkpt>
      <trkpt lat="45.36621" lon="5.83375">
        <ele>1145</ele>
        <time>2022-07-30T07:35:23Z</time>
      </trkpt>
      <trkpt lat="45.36625" lon="5.83381">
        <ele>1144</ele>
        <time>2022-07-30T07:35:28Z</time>
      </trkpt>
      <trkpt lat="45.3663" lon="5.83389">
        <ele>1143</ele>
        <time>2022-07-30T07:35:36Z</time>
      </trkpt>
      <trkpt lat="45.36635" lon="5.83392">
        <ele>1141</ele>
        <time>2022-07-30T07:35:40Z</time>
      </trkpt>
      <trkpt lat="45.36639" lon="5.8339">
        <ele>1140</ele>
        <time>2022-07-30T07:35:44Z</time>
      </trkpt>
      <trkpt lat="45.36642" lon="5.83384">
        <ele>1141</ele>
        <time>2022-07-30T07:35:53Z</time>
      </trkpt>
      <trkpt lat="45.36641" lon="5.83385">
        <ele>1142</ele>
        <time>2022-07-30T07:36:27Z</time>
      </trkpt>
      <trkpt lat="45.36638" lon="5.8339">
        <ele>1142</ele>
        <time>2022-07-30T07:36:32Z</time>
      </trkpt>
      <trkpt lat="45.36633" lon="5.83385">
        <ele>1141</ele>
        <time>2022-07-30T07:36:42Z</time>
      </trkpt>
      <trkpt lat="45.36626" lon="5.83373">
        <ele>1144</ele>
        <time>2022-07-30T07:36:57Z</time>
      </trkpt>
      <trkpt lat="45.36623" lon="5.83366">
        <ele>1146</ele>
        <time>2022-07-30T07:37:06Z</time>
      </trkpt>
      <trkpt lat="45.36625" lon="5.83358">
        <ele>1147</ele>
        <time>2022-07-30T07:37:16Z</time>
      </trkpt>
      <trkpt lat="45.36628" lon="5.83349">
        <ele>1147</ele>
        <time>2022-07-30T07:37:26Z</time>
      </trkpt>
      <trkpt lat="45.36629" lon="5.83332">
        <ele>1148</ele>
        <time>2022-07-30T07:37:42Z</time>
      </trkpt>
      <trkpt lat="45.36631" lon="5.83327">
        <ele>1149</ele>
        <time>2022-07-30T07:37:52Z</time>
      </trkpt>
      <trkpt lat="45.36635" lon="5.83322">
        <ele>1150</ele>
        <time>2022-07-30T07:38:02Z</time>
      </trkpt>
      <trkpt lat="45.36642" lon="5.83322">
        <ele>1151</ele>
        <time>2022-07-30T07:38:13Z</time>
      </trkpt>
      <trkpt lat="45.36647" lon="5.83326">
        <ele>1152</ele>
        <time>2022-07-30T07:38:23Z</time>
      </trkpt>
      <trkpt lat="45.36658" lon="5.83328">
        <ele>1154</ele>
        <time>2022-07-30T07:38:43Z</time>
      </trkpt>
      <trkpt lat="45.36676" lon="5.8334">
        <ele>1156</ele>
        <time>2022-07-30T07:39:13Z</time>
      </trkpt>
      <trkpt lat="45.36671" lon="5.83332">
        <ele>1157</ele>
        <time>2022-07-30T07:39:37Z</time>
      </trkpt>
      <trkpt lat="45.36665" lon="5.83327">
        <ele>1156</ele>
        <time>2022-07-30T07:39:43Z</time>
      </trkpt>
      <trkpt lat="45.36651" lon="5.83323">
        <ele>1154</ele>
        <time>2022-07-30T07:39:56Z</time>
      </trkpt>
      <trkpt lat="45.36635" lon="5.83317">
        <ele>1152</ele>
        <time>2022-07-30T07:40:10Z</time>
      </trkpt>
      <trkpt lat="45.36622" lon="5.8332">
        <ele>1151</ele>
        <time>2022-07-30T07:40:23Z</time>
      </trkpt>
      <trkpt lat="45.36621" lon="5.83314">
        <ele>1151</ele>
        <time>2022-07-30T07:40:29Z</time>
      </trkpt>
      <trkpt lat="45.36616" lon="5.83308">
        <ele>1151</ele>
        <time>2022-07-30T07:40:39Z</time>
      </trkpt>
      <trkpt lat="45.36614" lon="5.83303">
        <ele>1152</ele>
        <time>2022-07-30T07:40:44Z</time>
      </trkpt>
      <trkpt lat="45.3661" lon="5.83306">
        <ele>1153</ele>
        <time>2022-07-30T07:40:56Z</time>
      </trkpt>
      <trkpt lat="45.36609" lon="5.83299">
        <ele>1153</ele>
        <time>2022-07-30T07:41:01Z</time>
      </trkpt>
      <trkpt lat="45.36594" lon="5.83285">
        <ele>1156</ele>
        <time>2022-07-30T07:41:26Z</time>
      </trkpt>
      <trkpt lat="45.3659" lon="5.83281">
        <ele>1158</ele>
        <time>2022-07-30T07:41:44Z</time>
      </trkpt>
      <trkpt lat="45.36581" lon="5.83268">
        <ele>1160</ele>
        <time>2022-07-30T07:42:05Z</time>
      </trkpt>
      <trkpt lat="45.3658" lon="5.83258">
        <ele>1161</ele>
        <time>2022-07-30T07:42:15Z</time>
      </trkpt>
      <trkpt lat="45.36575" lon="5.83254">
        <ele>1162</ele>
        <time>2022-07-30T07:42:24Z</time>
      </trkpt>
      <trkpt lat="45.36568" lon="5.83248">
        <ele>1162</ele>
        <time>2022-07-30T07:42:32Z</time>
      </trkpt>
      <trkpt lat="45.36565" lon="5.83247">
        <ele>1163</ele>
        <time>2022-07-30T07:42:36Z</time>
      </trkpt>
      <trkpt lat="45.36563" lon="5.8324">
        <ele>1164</ele>
        <time>2022-07-30T07:42:41Z</time>
      </trkpt>
      <trkpt lat="45.36558" lon="5.83234">
        <ele>1165</ele>
        <time>2022-07-30T07:42:48Z</time>
      </trkpt>
      <trkpt lat="45.36555" lon="5.83227">
        <ele>1166</ele>
        <time>2022-07-30T07:42:58Z</time>
      </trkpt>
      <trkpt lat="45.36551" lon="5.83227">
        <ele>1167</ele>
        <time>2022-07-30T07:43:03Z</time>
      </trkpt>
      <trkpt lat="45.36546" lon="5.83218">
        <ele>1168</ele>
        <time>2022-07-30T07:43:13Z</time>
      </trkpt>
      <trkpt lat="45.36548" lon="5.83202">
        <ele>1170</ele>
        <time>2022-07-30T07:43:26Z</time>
      </trkpt>
      <trkpt lat="45.36546" lon="5.83191">
        <ele>1171</ele>
        <time>2022-07-30T07:43:39Z</time>
      </trkpt>
      <trkpt lat="45.36545" lon="5.83185">
        <ele>1172</ele>
        <time>2022-07-30T07:43:43Z</time>
      </trkpt>
      <trkpt lat="45.36539" lon="5.83175">
        <ele>1173</ele>
        <time>2022-07-30T07:43:55Z</time>
      </trkpt>
      <trkpt lat="45.36543" lon="5.83169">
        <ele>1174</ele>
        <time>2022-07-30T07:44:01Z</time>
      </trkpt>
      <trkpt lat="45.3654" lon="5.83158">
        <ele>1176</ele>
        <time>2022-07-30T07:44:13Z</time>
      </trkpt>
      <trkpt lat="45.36535" lon="5.83156">
        <ele>1177</ele>
        <time>2022-07-30T07:44:24Z</time>
      </trkpt>
      <trkpt lat="45.36537" lon="5.83148">
        <ele>1178</ele>
        <time>2022-07-30T07:44:28Z</time>
      </trkpt>
      <trkpt lat="45.36536" lon="5.83143">
        <ele>1179</ele>
        <time>2022-07-30T07:44:36Z</time>
      </trkpt>
      <trkpt lat="45.36534" lon="5.83136">
        <ele>1180</ele>
        <time>2022-07-30T07:44:41Z</time>
      </trkpt>
      <trkpt lat="45.36531" lon="5.83129">
        <ele>1181</ele>
        <time>2022-07-30T07:44:53Z</time>
      </trkpt>
      <trkpt lat="45.3653" lon="5.83119">
        <ele>1183</ele>
        <time>2022-07-30T07:45:04Z</time>
      </trkpt>
      <trkpt lat="45.36525" lon="5.8312">
        <ele>1184</ele>
        <time>2022-07-30T07:45:08Z</time>
      </trkpt>
      <trkpt lat="45.36524" lon="5.83104">
        <ele>1187</ele>
        <time>2022-07-30T07:45:31Z</time>
      </trkpt>
      <trkpt lat="45.36522" lon="5.83097">
        <ele>1189</ele>
        <time>2022-07-30T07:45:41Z</time>
      </trkpt>
      <trkpt lat="45.36517" lon="5.83098">
        <ele>1189</ele>
        <time>2022-07-30T07:45:46Z</time>
      </trkpt>
      <trkpt lat="45.36517" lon="5.83088">
        <ele>1191</ele>
        <time>2022-07-30T07:45:57Z</time>
      </trkpt>
      <trkpt lat="45.36513" lon="5.83081">
        <ele>1193</ele>
        <time>2022-07-30T07:46:12Z</time>
      </trkpt>
      <trkpt lat="45.3651" lon="5.83075">
        <ele>1194</ele>
        <time>2022-07-30T07:46:22Z</time>
      </trkpt>
      <trkpt lat="45.3651" lon="5.83069">
        <ele>1196</ele>
        <time>2022-07-30T07:46:32Z</time>
      </trkpt>
      <trkpt lat="45.36502" lon="5.83055">
        <ele>1199</ele>
        <time>2022-07-30T07:46:51Z</time>
      </trkpt>
      <trkpt lat="45.365" lon="5.83047">
        <ele>1201</ele>
        <time>2022-07-30T07:47:03Z</time>
      </trkpt>
      <trkpt lat="45.36503" lon="5.83038">
        <ele>1202</ele>
        <time>2022-07-30T07:47:10Z</time>
      </trkpt>
      <trkpt lat="45.36499" lon="5.83033">
        <ele>1203</ele>
        <time>2022-07-30T07:47:17Z</time>
      </trkpt>
      <trkpt lat="45.365" lon="5.83028">
        <ele>1204</ele>
        <time>2022-07-30T07:47:24Z</time>
      </trkpt>
      <trkpt lat="45.365" lon="5.8302">
        <ele>1206</ele>
        <time>2022-07-30T07:47:34Z</time>
      </trkpt>
      <trkpt lat="45.36497" lon="5.83013">
        <ele>1207</ele>
        <time>2022-07-30T07:47:44Z</time>
      </trkpt>
      <trkpt lat="45.36494" lon="5.83008">
        <ele>1208</ele>
        <time>2022-07-30T07:47:48Z</time>
      </trkpt>
      <trkpt lat="45.36493" lon="5.83002">
        <ele>1210</ele>
        <time>2022-07-30T07:48:01Z</time>
      </trkpt>
      <trkpt lat="45.36489" lon="5.82997">
        <ele>1210</ele>
        <time>2022-07-30T07:48:04Z</time>
      </trkpt>
      <trkpt lat="45.36492" lon="5.8299">
        <ele>1211</ele>
        <time>2022-07-30T07:48:17Z</time>
      </trkpt>
      <trkpt lat="45.3649" lon="5.82983">
        <ele>1212</ele>
        <time>2022-07-30T07:48:22Z</time>
      </trkpt>
      <trkpt lat="45.36489" lon="5.82978">
        <ele>1212</ele>
        <time>2022-07-30T07:48:29Z</time>
      </trkpt>
      <trkpt lat="45.36493" lon="5.82975">
        <ele>1213</ele>
        <time>2022-07-30T07:48:40Z</time>
      </trkpt>
      <trkpt lat="45.36493" lon="5.82969">
        <ele>1213</ele>
        <time>2022-07-30T07:48:45Z</time>
      </trkpt>
      <trkpt lat="45.36491" lon="5.82963">
        <ele>1214</ele>
        <time>2022-07-30T07:48:52Z</time>
      </trkpt>
      <trkpt lat="45.36487" lon="5.82958">
        <ele>1214</ele>
        <time>2022-07-30T07:48:56Z</time>
      </trkpt>
      <trkpt lat="45.36486" lon="5.82951">
        <ele>1215</ele>
        <time>2022-07-30T07:49:03Z</time>
      </trkpt>
      <trkpt lat="45.36485" lon="5.82942">
        <ele>1217</ele>
        <time>2022-07-30T07:49:18Z</time>
      </trkpt>
      <trkpt lat="45.36484" lon="5.82933">
        <ele>1219</ele>
        <time>2022-07-30T07:49:33Z</time>
      </trkpt>
      <trkpt lat="45.36479" lon="5.82929">
        <ele>1220</ele>
        <time>2022-07-30T07:49:53Z</time>
      </trkpt>
      <trkpt lat="45.36478" lon="5.82926">
        <ele>1220</ele>
        <time>2022-07-30T07:50:59Z</time>
      </trkpt>
      <trkpt lat="45.36478" lon="5.8292">
        <ele>1221</ele>
        <time>2022-07-30T07:51:05Z</time>
      </trkpt>
      <trkpt lat="45.36476" lon="5.82915">
        <ele>1222</ele>
        <time>2022-07-30T07:51:09Z</time>
      </trkpt>
      <trkpt lat="45.36462" lon="5.82901">
        <ele>1222</ele>
        <time>2022-07-30T07:51:23Z</time>
      </trkpt>
      <trkpt lat="45.3645" lon="5.82893">
        <ele>1222</ele>
        <time>2022-07-30T07:51:35Z</time>
      </trkpt>
      <trkpt lat="45.36429" lon="5.8288">
        <ele>1222</ele>
        <time>2022-07-30T07:52:08Z</time>
      </trkpt>
      <trkpt lat="45.36426" lon="5.82879">
        <ele>1222</ele>
        <time>2022-07-30T07:52:11Z</time>
      </trkpt>
      <trkpt lat="45.36422" lon="5.8287">
        <ele>1222</ele>
        <time>2022-07-30T07:52:27Z</time>
      </trkpt>
      <trkpt lat="45.36419" lon="5.82864">
        <ele>1223</ele>
        <time>2022-07-30T07:52:37Z</time>
      </trkpt>
      <trkpt lat="45.36418" lon="5.82858">
        <ele>1224</ele>
        <time>2022-07-30T07:52:48Z</time>
      </trkpt>
      <trkpt lat="45.36417" lon="5.82848">
        <ele>1225</ele>
        <time>2022-07-30T07:53:00Z</time>
      </trkpt>
      <trkpt lat="45.36414" lon="5.82842">
        <ele>1225</ele>
        <time>2022-07-30T07:53:06Z</time>
      </trkpt>
      <trkpt lat="45.36413" lon="5.82836">
        <ele>1225</ele>
        <time>2022-07-30T07:53:22Z</time>
      </trkpt>
      <trkpt lat="45.36414" lon="5.82829">
        <ele>1224</ele>
        <time>2022-07-30T07:53:28Z</time>
      </trkpt>
      <trkpt lat="45.36416" lon="5.82824">
        <ele>1223</ele>
        <time>2022-07-30T07:53:32Z</time>
      </trkpt>
      <trkpt lat="45.36418" lon="5.82817">
        <ele>1223</ele>
        <time>2022-07-30T07:53:36Z</time>
      </trkpt>
      <trkpt lat="45.36418" lon="5.82811">
        <ele>1222</ele>
        <time>2022-07-30T07:53:43Z</time>
      </trkpt>
      <trkpt lat="45.36422" lon="5.82801">
        <ele>1224</ele>
        <time>2022-07-30T07:53:53Z</time>
      </trkpt>
      <trkpt lat="45.36423" lon="5.82794">
        <ele>1223</ele>
        <time>2022-07-30T07:54:00Z</time>
      </trkpt>
      <trkpt lat="45.36426" lon="5.82786">
        <ele>1222</ele>
        <time>2022-07-30T07:54:10Z</time>
      </trkpt>
      <trkpt lat="45.36427" lon="5.82777">
        <ele>1222</ele>
        <time>2022-07-30T07:54:16Z</time>
      </trkpt>
      <trkpt lat="45.36426" lon="5.82771">
        <ele>1222</ele>
        <time>2022-07-30T07:54:21Z</time>
      </trkpt>
      <trkpt lat="45.3642" lon="5.82768">
        <ele>1222</ele>
        <time>2022-07-30T07:54:44Z</time>
      </trkpt>
      <trkpt lat="45.36432" lon="5.82758">
        <ele>1224</ele>
        <time>2022-07-30T07:55:05Z</time>
      </trkpt>
      <trkpt lat="45.36434" lon="5.82749">
        <ele>1224</ele>
        <time>2022-07-30T07:55:11Z</time>
      </trkpt>
      <trkpt lat="45.36432" lon="5.82737">
        <ele>1225</ele>
        <time>2022-07-30T07:55:18Z</time>
      </trkpt>
      <trkpt lat="45.36433" lon="5.82729">
        <ele>1225</ele>
        <time>2022-07-30T07:55:26Z</time>
      </trkpt>
      <trkpt lat="45.36439" lon="5.82727">
        <ele>1226</ele>
        <time>2022-07-30T07:55:36Z</time>
      </trkpt>
      <trkpt lat="45.36443" lon="5.82694">
        <ele>1227</ele>
        <time>2022-07-30T07:56:05Z</time>
      </trkpt>
      <trkpt lat="45.36444" lon="5.82686">
        <ele>1227</ele>
        <time>2022-07-30T07:56:12Z</time>
      </trkpt>
      <trkpt lat="45.36443" lon="5.82678">
        <ele>1226</ele>
        <time>2022-07-30T07:56:19Z</time>
      </trkpt>
      <trkpt lat="45.36447" lon="5.82673">
        <ele>1227</ele>
        <time>2022-07-30T07:56:26Z</time>
      </trkpt>
      <trkpt lat="45.3645" lon="5.82669">
        <ele>1228</ele>
        <time>2022-07-30T07:56:36Z</time>
      </trkpt>
      <trkpt lat="45.36454" lon="5.82658">
        <ele>1228</ele>
        <time>2022-07-30T07:56:46Z</time>
      </trkpt>
      <trkpt lat="45.36465" lon="5.82635">
        <ele>1227</ele>
        <time>2022-07-30T07:57:09Z</time>
      </trkpt>
      <trkpt lat="45.3647" lon="5.8263">
        <ele>1227</ele>
        <time>2022-07-30T07:57:20Z</time>
      </trkpt>
      <trkpt lat="45.36473" lon="5.82624">
        <ele>1227</ele>
        <time>2022-07-30T07:57:25Z</time>
      </trkpt>
      <trkpt lat="45.36475" lon="5.82613">
        <ele>1227</ele>
        <time>2022-07-30T07:57:31Z</time>
      </trkpt>
      <trkpt lat="45.36473" lon="5.82607">
        <ele>1227</ele>
        <time>2022-07-30T07:57:34Z</time>
      </trkpt>
      <trkpt lat="45.36473" lon="5.82598">
        <ele>1228</ele>
        <time>2022-07-30T07:57:43Z</time>
      </trkpt>
      <trkpt lat="45.36468" lon="5.82593">
        <ele>1227</ele>
        <time>2022-07-30T07:57:54Z</time>
      </trkpt>
      <trkpt lat="45.3647" lon="5.82587">
        <ele>1225</ele>
        <time>2022-07-30T07:59:25Z</time>
      </trkpt>
      <trkpt lat="45.3647" lon="5.8258">
        <ele>1225</ele>
        <time>2022-07-30T07:59:29Z</time>
      </trkpt>
      <trkpt lat="45.36473" lon="5.82574">
        <ele>1225</ele>
        <time>2022-07-30T07:59:37Z</time>
      </trkpt>
      <trkpt lat="45.36476" lon="5.82569">
        <ele>1225</ele>
        <time>2022-07-30T07:59:47Z</time>
      </trkpt>
      <trkpt lat="45.36482" lon="5.82564">
        <ele>1226</ele>
        <time>2022-07-30T07:59:59Z</time>
      </trkpt>
      <trkpt lat="45.3648" lon="5.82557">
        <ele>1226</ele>
        <time>2022-07-30T08:00:03Z</time>
      </trkpt>
      <trkpt lat="45.3648" lon="5.82551">
        <ele>1227</ele>
        <time>2022-07-30T08:00:08Z</time>
      </trkpt>
      <trkpt lat="45.36474" lon="5.82548">
        <ele>1227</ele>
        <time>2022-07-30T08:00:24Z</time>
      </trkpt>
      <trkpt lat="45.36467" lon="5.82543">
        <ele>1228</ele>
        <time>2022-07-30T08:01:20Z</time>
      </trkpt>
      <trkpt lat="45.36464" lon="5.82544">
        <ele>1228</ele>
        <time>2022-07-30T08:02:07Z</time>
      </trkpt>
      <trkpt lat="45.36459" lon="5.82542">
        <ele>1228</ele>
        <time>2022-07-30T08:02:19Z</time>
      </trkpt>
      <trkpt lat="45.36451" lon="5.82542">
        <ele>1230</ele>
        <time>2022-07-30T08:02:34Z</time>
      </trkpt>
      <trkpt lat="45.36443" lon="5.82546">
        <ele>1229</ele>
        <time>2022-07-30T08:02:43Z</time>
      </trkpt>
      <trkpt lat="45.36439" lon="5.82543">
        <ele>1229</ele>
        <time>2022-07-30T08:02:50Z</time>
      </trkpt>
      <trkpt lat="45.36431" lon="5.82543">
        <ele>1230</ele>
        <time>2022-07-30T08:03:09Z</time>
      </trkpt>
      <trkpt lat="45.36425" lon="5.82542">
        <ele>1230</ele>
        <time>2022-07-30T08:03:18Z</time>
      </trkpt>
      <trkpt lat="45.36422" lon="5.82537">
        <ele>1230</ele>
        <time>2022-07-30T08:03:30Z</time>
      </trkpt>
      <trkpt lat="45.36417" lon="5.82536">
        <ele>1230</ele>
        <time>2022-07-30T08:03:36Z</time>
      </trkpt>
      <trkpt lat="45.36416" lon="5.82529">
        <ele>1230</ele>
        <time>2022-07-30T08:03:56Z</time>
      </trkpt>
      <trkpt lat="45.36416" lon="5.82522">
        <ele>1230</ele>
        <time>2022-07-30T08:04:06Z</time>
      </trkpt>
      <trkpt lat="45.36413" lon="5.82516">
        <ele>1229</ele>
        <time>2022-07-30T08:04:16Z</time>
      </trkpt>
      <trkpt lat="45.36407" lon="5.82511">
        <ele>1227</ele>
        <time>2022-07-30T08:04:25Z</time>
      </trkpt>
      <trkpt lat="45.36403" lon="5.82508">
        <ele>1227</ele>
        <time>2022-07-30T08:04:47Z</time>
      </trkpt>
      <trkpt lat="45.36399" lon="5.82507">
        <ele>1226</ele>
        <time>2022-07-30T08:04:51Z</time>
      </trkpt>
      <trkpt lat="45.36395" lon="5.82502">
        <ele>1225</ele>
        <time>2022-07-30T08:05:04Z</time>
      </trkpt>
      <trkpt lat="45.36387" lon="5.82497">
        <ele>1227</ele>
        <time>2022-07-30T08:05:19Z</time>
      </trkpt>
      <trkpt lat="45.36378" lon="5.82488">
        <ele>1229</ele>
        <time>2022-07-30T08:05:37Z</time>
      </trkpt>
      <trkpt lat="45.3637" lon="5.82484">
        <ele>1229</ele>
        <time>2022-07-30T08:05:47Z</time>
      </trkpt>
      <trkpt lat="45.36356" lon="5.82466">
        <ele>1231</ele>
        <time>2022-07-30T08:06:16Z</time>
      </trkpt>
      <trkpt lat="45.36348" lon="5.8246">
        <ele>1233</ele>
        <time>2022-07-30T08:06:53Z</time>
      </trkpt>
      <trkpt lat="45.36346" lon="5.82467">
        <ele>1235</ele>
        <time>2022-07-30T08:07:14Z</time>
      </trkpt>
      <trkpt lat="45.36354" lon="5.82465">
        <ele>1236</ele>
        <time>2022-07-30T08:07:29Z</time>
      </trkpt>
      <trkpt lat="45.36358" lon="5.82465">
        <ele>1236</ele>
        <time>2022-07-30T08:07:35Z</time>
      </trkpt>
      <trkpt lat="45.36363" lon="5.82467">
        <ele>1236</ele>
        <time>2022-07-30T08:07:42Z</time>
      </trkpt>
      <trkpt lat="45.36362" lon="5.82457">
        <ele>1238</ele>
        <time>2022-07-30T08:07:57Z</time>
      </trkpt>
      <trkpt lat="45.36358" lon="5.8245">
        <ele>1239</ele>
        <time>2022-07-30T08:08:07Z</time>
      </trkpt>
      <trkpt lat="45.36359" lon="5.82449">
        <ele>1241</ele>
        <time>2022-07-30T08:08:29Z</time>
      </trkpt>
      <trkpt lat="45.36376" lon="5.82453">
        <ele>1244</ele>
        <time>2022-07-30T08:08:59Z</time>
      </trkpt>
      <trkpt lat="45.3638" lon="5.82456">
        <ele>1245</ele>
        <time>2022-07-30T08:09:04Z</time>
      </trkpt>
      <trkpt lat="45.36396" lon="5.82456">
        <ele>1247</ele>
        <time>2022-07-30T08:09:24Z</time>
      </trkpt>
      <trkpt lat="45.36406" lon="5.82452">
        <ele>1248</ele>
        <time>2022-07-30T08:09:38Z</time>
      </trkpt>
      <trkpt lat="45.36411" lon="5.82452">
        <ele>1249</ele>
        <time>2022-07-30T08:09:44Z</time>
      </trkpt>
      <trkpt lat="45.36416" lon="5.8245">
        <ele>1249</ele>
        <time>2022-07-30T08:09:50Z</time>
      </trkpt>
      <trkpt lat="45.36419" lon="5.82453">
        <ele>1250</ele>
        <time>2022-07-30T08:09:56Z</time>
      </trkpt>
      <trkpt lat="45.36427" lon="5.82455">
        <ele>1251</ele>
        <time>2022-07-30T08:10:07Z</time>
      </trkpt>
      <trkpt lat="45.36439" lon="5.8245">
        <ele>1253</ele>
        <time>2022-07-30T08:10:24Z</time>
      </trkpt>
      <trkpt lat="45.36445" lon="5.82452">
        <ele>1254</ele>
        <time>2022-07-30T08:10:34Z</time>
      </trkpt>
      <trkpt lat="45.36448" lon="5.82447">
        <ele>1255</ele>
        <time>2022-07-30T08:10:38Z</time>
      </trkpt>
      <trkpt lat="45.36446" lon="5.82441">
        <ele>1255</ele>
        <time>2022-07-30T08:10:43Z</time>
      </trkpt>
      <trkpt lat="45.36437" lon="5.82434">
        <ele>1257</ele>
        <time>2022-07-30T08:10:58Z</time>
      </trkpt>
      <trkpt lat="45.36434" lon="5.8243">
        <ele>1258</ele>
        <time>2022-07-30T08:11:18Z</time>
      </trkpt>
      <trkpt lat="45.36427" lon="5.82425">
        <ele>1258</ele>
        <time>2022-07-30T08:11:47Z</time>
      </trkpt>
      <trkpt lat="45.36421" lon="5.8242">
        <ele>1258</ele>
        <time>2022-07-30T08:12:00Z</time>
      </trkpt>
      <trkpt lat="45.36418" lon="5.82415">
        <ele>1259</ele>
        <time>2022-07-30T08:12:08Z</time>
      </trkpt>
      <trkpt lat="45.36405" lon="5.82412">
        <ele>1261</ele>
        <time>2022-07-30T08:12:34Z</time>
      </trkpt>
      <trkpt lat="45.36394" lon="5.82406">
        <ele>1263</ele>
        <time>2022-07-30T08:12:56Z</time>
      </trkpt>
      <trkpt lat="45.36388" lon="5.82404">
        <ele>1263</ele>
        <time>2022-07-30T08:13:06Z</time>
      </trkpt>
      <trkpt lat="45.36372" lon="5.82388">
        <ele>1266</ele>
        <time>2022-07-30T08:13:46Z</time>
      </trkpt>
      <trkpt lat="45.36373" lon="5.82388">
        <ele>1267</ele>
        <time>2022-07-30T08:15:20Z</time>
      </trkpt>
      <trkpt lat="45.36384" lon="5.82392">
        <ele>1269</ele>
        <time>2022-07-30T08:15:40Z</time>
      </trkpt>
      <trkpt lat="45.364" lon="5.8239">
        <ele>1272</ele>
        <time>2022-07-30T08:16:12Z</time>
      </trkpt>
      <trkpt lat="45.36405" lon="5.8239">
        <ele>1273</ele>
        <time>2022-07-30T08:16:22Z</time>
      </trkpt>
      <trkpt lat="45.36415" lon="5.82384">
        <ele>1274</ele>
        <time>2022-07-30T08:16:52Z</time>
      </trkpt>
      <trkpt lat="45.36421" lon="5.82382">
        <ele>1275</ele>
        <time>2022-07-30T08:17:07Z</time>
      </trkpt>
      <trkpt lat="45.36426" lon="5.82382">
        <ele>1275</ele>
        <time>2022-07-30T08:17:17Z</time>
      </trkpt>
      <trkpt lat="45.36438" lon="5.82385">
        <ele>1278</ele>
        <time>2022-07-30T08:17:52Z</time>
      </trkpt>
      <trkpt lat="45.36439" lon="5.82376">
        <ele>1279</ele>
        <time>2022-07-30T08:18:01Z</time>
      </trkpt>
      <trkpt lat="45.36431" lon="5.82366">
        <ele>1279</ele>
        <time>2022-07-30T08:18:13Z</time>
      </trkpt>
      <trkpt lat="45.36427" lon="5.82363">
        <ele>1279</ele>
        <time>2022-07-30T08:18:17Z</time>
      </trkpt>
      <trkpt lat="45.3642" lon="5.82358">
        <ele>1281</ele>
        <time>2022-07-30T08:18:32Z</time>
      </trkpt>
      <trkpt lat="45.36416" lon="5.82359">
        <ele>1281</ele>
        <time>2022-07-30T08:18:37Z</time>
      </trkpt>
      <trkpt lat="45.36411" lon="5.82361">
        <ele>1281</ele>
        <time>2022-07-30T08:18:42Z</time>
      </trkpt>
      <trkpt lat="45.36406" lon="5.8236">
        <ele>1282</ele>
        <time>2022-07-30T08:18:47Z</time>
      </trkpt>
      <trkpt lat="45.36399" lon="5.8236">
        <ele>1283</ele>
        <time>2022-07-30T08:18:59Z</time>
      </trkpt>
      <trkpt lat="45.36395" lon="5.82356">
        <ele>1283</ele>
        <time>2022-07-30T08:19:09Z</time>
      </trkpt>
      <trkpt lat="45.3639" lon="5.82351">
        <ele>1284</ele>
        <time>2022-07-30T08:19:19Z</time>
      </trkpt>
      <trkpt lat="45.36392" lon="5.82352">
        <ele>1286</ele>
        <time>2022-07-30T08:19:51Z</time>
      </trkpt>
      <trkpt lat="45.36396" lon="5.82354">
        <ele>1287</ele>
        <time>2022-07-30T08:19:57Z</time>
      </trkpt>
      <trkpt lat="45.36401" lon="5.82352">
        <ele>1288</ele>
        <time>2022-07-30T08:20:07Z</time>
      </trkpt>
      <trkpt lat="45.3642" lon="5.82344">
        <ele>1290</ele>
        <time>2022-07-30T08:20:34Z</time>
      </trkpt>
      <trkpt lat="45.36424" lon="5.82341">
        <ele>1290</ele>
        <time>2022-07-30T08:20:51Z</time>
      </trkpt>
      <trkpt lat="45.3643" lon="5.82337">
        <ele>1291</ele>
        <time>2022-07-30T08:21:01Z</time>
      </trkpt>
      <trkpt lat="45.3644" lon="5.82338">
        <ele>1293</ele>
        <time>2022-07-30T08:21:41Z</time>
      </trkpt>
      <trkpt lat="45.36448" lon="5.82344">
        <ele>1294</ele>
        <time>2022-07-30T08:21:51Z</time>
      </trkpt>
      <trkpt lat="45.36453" lon="5.82343">
        <ele>1295</ele>
        <time>2022-07-30T08:21:58Z</time>
      </trkpt>
      <trkpt lat="45.36459" lon="5.82344">
        <ele>1296</ele>
        <time>2022-07-30T08:22:10Z</time>
      </trkpt>
      <trkpt lat="45.36465" lon="5.8234">
        <ele>1297</ele>
        <time>2022-07-30T08:22:22Z</time>
      </trkpt>
      <trkpt lat="45.36469" lon="5.82335">
        <ele>1298</ele>
        <time>2022-07-30T08:22:28Z</time>
      </trkpt>
      <trkpt lat="45.36473" lon="5.82332">
        <ele>1299</ele>
        <time>2022-07-30T08:22:35Z</time>
      </trkpt>
      <trkpt lat="45.36478" lon="5.82323">
        <ele>1300</ele>
        <time>2022-07-30T08:22:45Z</time>
      </trkpt>
      <trkpt lat="45.36482" lon="5.82319">
        <ele>1300</ele>
        <time>2022-07-30T08:22:49Z</time>
      </trkpt>
      <trkpt lat="45.36484" lon="5.82314">
        <ele>1300</ele>
        <time>2022-07-30T08:22:56Z</time>
      </trkpt>
      <trkpt lat="45.36491" lon="5.82302">
        <ele>1302</ele>
        <time>2022-07-30T08:23:14Z</time>
      </trkpt>
      <trkpt lat="45.36496" lon="5.823">
        <ele>1304</ele>
        <time>2022-07-30T08:23:24Z</time>
      </trkpt>
      <trkpt lat="45.3651" lon="5.82291">
        <ele>1306</ele>
        <time>2022-07-30T08:23:49Z</time>
      </trkpt>
      <trkpt lat="45.36521" lon="5.82292">
        <ele>1308</ele>
        <time>2022-07-30T08:24:10Z</time>
      </trkpt>
      <trkpt lat="45.36526" lon="5.82291">
        <ele>1308</ele>
        <time>2022-07-30T08:24:16Z</time>
      </trkpt>
      <trkpt lat="45.36536" lon="5.82287">
        <ele>1311</ele>
        <time>2022-07-30T08:25:00Z</time>
      </trkpt>
      <trkpt lat="45.36541" lon="5.82286">
        <ele>1313</ele>
        <time>2022-07-30T08:25:10Z</time>
      </trkpt>
      <trkpt lat="45.36547" lon="5.82288">
        <ele>1313</ele>
        <time>2022-07-30T08:25:20Z</time>
      </trkpt>
      <trkpt lat="45.36552" lon="5.82286">
        <ele>1313</ele>
        <time>2022-07-30T08:25:24Z</time>
      </trkpt>
      <trkpt lat="45.3656" lon="5.82281">
        <ele>1315</ele>
        <time>2022-07-30T08:25:34Z</time>
      </trkpt>
      <trkpt lat="45.36564" lon="5.82275">
        <ele>1315</ele>
        <time>2022-07-30T08:25:42Z</time>
      </trkpt>
      <trkpt lat="45.36573" lon="5.82267">
        <ele>1317</ele>
        <time>2022-07-30T08:25:56Z</time>
      </trkpt>
      <trkpt lat="45.36578" lon="5.82263">
        <ele>1318</ele>
        <time>2022-07-30T08:26:06Z</time>
      </trkpt>
      <trkpt lat="45.36589" lon="5.82253">
        <ele>1320</ele>
        <time>2022-07-30T08:26:29Z</time>
      </trkpt>
      <trkpt lat="45.36598" lon="5.8225">
        <ele>1321</ele>
        <time>2022-07-30T08:26:40Z</time>
      </trkpt>
      <trkpt lat="45.36602" lon="5.82253">
        <ele>1321</ele>
        <time>2022-07-30T08:26:48Z</time>
      </trkpt>
      <trkpt lat="45.36605" lon="5.8227">
        <ele>1323</ele>
        <time>2022-07-30T08:27:12Z</time>
      </trkpt>
      <trkpt lat="45.3661" lon="5.82279">
        <ele>1325</ele>
        <time>2022-07-30T08:27:27Z</time>
      </trkpt>
      <trkpt lat="45.36612" lon="5.82288">
        <ele>1327</ele>
        <time>2022-07-30T08:27:39Z</time>
      </trkpt>
      <trkpt lat="45.36612" lon="5.82295">
        <ele>1328</ele>
        <time>2022-07-30T08:27:46Z</time>
      </trkpt>
      <trkpt lat="45.36616" lon="5.82306">
        <ele>1328</ele>
        <time>2022-07-30T08:27:55Z</time>
      </trkpt>
      <trkpt lat="45.36619" lon="5.82311">
        <ele>1329</ele>
        <time>2022-07-30T08:28:00Z</time>
      </trkpt>
      <trkpt lat="45.36621" lon="5.82323">
        <ele>1330</ele>
        <time>2022-07-30T08:28:19Z</time>
      </trkpt>
      <trkpt lat="45.36622" lon="5.8234">
        <ele>1332</ele>
        <time>2022-07-30T08:28:35Z</time>
      </trkpt>
      <trkpt lat="45.36629" lon="5.82378">
        <ele>1335</ele>
        <time>2022-07-30T08:29:14Z</time>
      </trkpt>
      <trkpt lat="45.36634" lon="5.8239">
        <ele>1336</ele>
        <time>2022-07-30T08:29:29Z</time>
      </trkpt>
      <trkpt lat="45.36638" lon="5.82409">
        <ele>1337</ele>
        <time>2022-07-30T08:29:47Z</time>
      </trkpt>
      <trkpt lat="45.36642" lon="5.824">
        <ele>1338</ele>
        <time>2022-07-30T08:29:57Z</time>
      </trkpt>
      <trkpt lat="45.36641" lon="5.82382">
        <ele>1339</ele>
        <time>2022-07-30T08:30:15Z</time>
      </trkpt>
      <trkpt lat="45.36643" lon="5.82372">
        <ele>1341</ele>
        <time>2022-07-30T08:30:25Z</time>
      </trkpt>
      <trkpt lat="45.36644" lon="5.82365">
        <ele>1342</ele>
        <time>2022-07-30T08:30:35Z</time>
      </trkpt>
      <trkpt lat="45.36646" lon="5.82358">
        <ele>1343</ele>
        <time>2022-07-30T08:30:41Z</time>
      </trkpt>
      <trkpt lat="45.36645" lon="5.82352">
        <ele>1343</ele>
        <time>2022-07-30T08:30:46Z</time>
      </trkpt>
      <trkpt lat="45.36646" lon="5.82344">
        <ele>1344</ele>
        <time>2022-07-30T08:30:54Z</time>
      </trkpt>
      <trkpt lat="45.36646" lon="5.8233">
        <ele>1345</ele>
        <time>2022-07-30T08:31:07Z</time>
      </trkpt>
      <trkpt lat="45.3665" lon="5.82317">
        <ele>1347</ele>
        <time>2022-07-30T08:31:22Z</time>
      </trkpt>
      <trkpt lat="45.3665" lon="5.82311">
        <ele>1348</ele>
        <time>2022-07-30T08:31:35Z</time>
      </trkpt>
      <trkpt lat="45.36651" lon="5.82303">
        <ele>1349</ele>
        <time>2022-07-30T08:31:41Z</time>
      </trkpt>
      <trkpt lat="45.36655" lon="5.82296">
        <ele>1350</ele>
        <time>2022-07-30T08:31:50Z</time>
      </trkpt>
      <trkpt lat="45.36654" lon="5.82289">
        <ele>1352</ele>
        <time>2022-07-30T08:32:11Z</time>
      </trkpt>
      <trkpt lat="45.36656" lon="5.82281">
        <ele>1354</ele>
        <time>2022-07-30T08:32:28Z</time>
      </trkpt>
      <trkpt lat="45.36667" lon="5.82256">
        <ele>1358</ele>
        <time>2022-07-30T08:33:02Z</time>
      </trkpt>
      <trkpt lat="45.36669" lon="5.8225">
        <ele>1360</ele>
        <time>2022-07-30T08:33:17Z</time>
      </trkpt>
      <trkpt lat="45.36669" lon="5.82238">
        <ele>1360</ele>
        <time>2022-07-30T08:33:28Z</time>
      </trkpt>
      <trkpt lat="45.36668" lon="5.82232">
        <ele>1360</ele>
        <time>2022-07-30T08:33:38Z</time>
      </trkpt>
      <trkpt lat="45.36664" lon="5.82226">
        <ele>1362</ele>
        <time>2022-07-30T08:33:48Z</time>
      </trkpt>
      <trkpt lat="45.36664" lon="5.82221">
        <ele>1363</ele>
        <time>2022-07-30T08:33:55Z</time>
      </trkpt>
      <trkpt lat="45.36666" lon="5.82215">
        <ele>1364</ele>
        <time>2022-07-30T08:34:40Z</time>
      </trkpt>
      <trkpt lat="45.36665" lon="5.82217">
        <ele>1366</ele>
        <time>2022-07-30T08:35:00Z</time>
      </trkpt>
      <trkpt lat="45.3667" lon="5.82222">
        <ele>1369</ele>
        <time>2022-07-30T08:35:22Z</time>
      </trkpt>
      <trkpt lat="45.36673" lon="5.82229">
        <ele>1369</ele>
        <time>2022-07-30T08:35:32Z</time>
      </trkpt>
      <trkpt lat="45.36677" lon="5.82232">
        <ele>1370</ele>
        <time>2022-07-30T08:35:42Z</time>
      </trkpt>
      <trkpt lat="45.36682" lon="5.82231">
        <ele>1371</ele>
        <time>2022-07-30T08:35:47Z</time>
      </trkpt>
      <trkpt lat="45.3668" lon="5.82221">
        <ele>1373</ele>
        <time>2022-07-30T08:35:56Z</time>
      </trkpt>
      <trkpt lat="45.36684" lon="5.8221">
        <ele>1374</ele>
        <time>2022-07-30T08:36:09Z</time>
      </trkpt>
      <trkpt lat="45.36681" lon="5.82202">
        <ele>1376</ele>
        <time>2022-07-30T08:36:22Z</time>
      </trkpt>
      <trkpt lat="45.36684" lon="5.82197">
        <ele>1377</ele>
        <time>2022-07-30T08:36:33Z</time>
      </trkpt>
      <trkpt lat="45.36687" lon="5.82193">
        <ele>1378</ele>
        <time>2022-07-30T08:36:43Z</time>
      </trkpt>
      <trkpt lat="45.36686" lon="5.82186">
        <ele>1380</ele>
        <time>2022-07-30T08:36:53Z</time>
      </trkpt>
      <trkpt lat="45.36689" lon="5.82179">
        <ele>1382</ele>
        <time>2022-07-30T08:37:16Z</time>
      </trkpt>
      <trkpt lat="45.36685" lon="5.82179">
        <ele>1382</ele>
        <time>2022-07-30T08:37:31Z</time>
      </trkpt>
      <trkpt lat="45.36684" lon="5.82185">
        <ele>1384</ele>
        <time>2022-07-30T08:37:51Z</time>
      </trkpt>
      <trkpt lat="45.36684" lon="5.82192">
        <ele>1385</ele>
        <time>2022-07-30T08:38:02Z</time>
      </trkpt>
      <trkpt lat="45.36695" lon="5.82204">
        <ele>1388</ele>
        <time>2022-07-30T08:38:25Z</time>
      </trkpt>
      <trkpt lat="45.36697" lon="5.82213">
        <ele>1389</ele>
        <time>2022-07-30T08:38:34Z</time>
      </trkpt>
      <trkpt lat="45.36701" lon="5.82219">
        <ele>1389</ele>
        <time>2022-07-30T08:38:39Z</time>
      </trkpt>
      <trkpt lat="45.36707" lon="5.8222">
        <ele>1390</ele>
        <time>2022-07-30T08:38:52Z</time>
      </trkpt>
      <trkpt lat="45.3671" lon="5.82231">
        <ele>1391</ele>
        <time>2022-07-30T08:39:02Z</time>
      </trkpt>
      <trkpt lat="45.36707" lon="5.82239">
        <ele>1394</ele>
        <time>2022-07-30T08:39:25Z</time>
      </trkpt>
      <trkpt lat="45.36706" lon="5.82248">
        <ele>1394</ele>
        <time>2022-07-30T08:39:35Z</time>
      </trkpt>
      <trkpt lat="45.36705" lon="5.82266">
        <ele>1397</ele>
        <time>2022-07-30T08:39:56Z</time>
      </trkpt>
      <trkpt lat="45.36706" lon="5.82274">
        <ele>1397</ele>
        <time>2022-07-30T08:40:06Z</time>
      </trkpt>
      <trkpt lat="45.36705" lon="5.8229">
        <ele>1399</ele>
        <time>2022-07-30T08:40:26Z</time>
      </trkpt>
      <trkpt lat="45.36708" lon="5.82304">
        <ele>1400</ele>
        <time>2022-07-30T08:40:42Z</time>
      </trkpt>
      <trkpt lat="45.36709" lon="5.82311">
        <ele>1401</ele>
        <time>2022-07-30T08:40:52Z</time>
      </trkpt>
      <trkpt lat="45.36711" lon="5.82317">
        <ele>1402</ele>
        <time>2022-07-30T08:41:02Z</time>
      </trkpt>
      <trkpt lat="45.36713" lon="5.82326">
        <ele>1404</ele>
        <time>2022-07-30T08:41:31Z</time>
      </trkpt>
      <trkpt lat="45.36718" lon="5.82319">
        <ele>1404</ele>
        <time>2022-07-30T08:41:49Z</time>
      </trkpt>
      <trkpt lat="45.36717" lon="5.82306">
        <ele>1405</ele>
        <time>2022-07-30T08:42:00Z</time>
      </trkpt>
      <trkpt lat="45.36721" lon="5.82298">
        <ele>1406</ele>
        <time>2022-07-30T08:42:21Z</time>
      </trkpt>
      <trkpt lat="45.36719" lon="5.8229">
        <ele>1407</ele>
        <time>2022-07-30T08:42:31Z</time>
      </trkpt>
      <trkpt lat="45.3672" lon="5.82278">
        <ele>1409</ele>
        <time>2022-07-30T08:42:41Z</time>
      </trkpt>
      <trkpt lat="45.36724" lon="5.8227">
        <ele>1410</ele>
        <time>2022-07-30T08:42:55Z</time>
      </trkpt>
      <trkpt lat="45.36727" lon="5.82259">
        <ele>1412</ele>
        <time>2022-07-30T08:43:16Z</time>
      </trkpt>
      <trkpt lat="45.36732" lon="5.82255">
        <ele>1413</ele>
        <time>2022-07-30T08:43:27Z</time>
      </trkpt>
      <trkpt lat="45.36736" lon="5.8225">
        <ele>1414</ele>
        <time>2022-07-30T08:43:36Z</time>
      </trkpt>
      <trkpt lat="45.36741" lon="5.82249">
        <ele>1415</ele>
        <time>2022-07-30T08:43:47Z</time>
      </trkpt>
      <trkpt lat="45.36741" lon="5.82232">
        <ele>1416</ele>
        <time>2022-07-30T08:44:02Z</time>
      </trkpt>
      <trkpt lat="45.36747" lon="5.82234">
        <ele>1417</ele>
        <time>2022-07-30T08:44:08Z</time>
      </trkpt>
      <trkpt lat="45.36754" lon="5.82224">
        <ele>1418</ele>
        <time>2022-07-30T08:44:28Z</time>
      </trkpt>
      <trkpt lat="45.36755" lon="5.82214">
        <ele>1421</ele>
        <time>2022-07-30T08:44:45Z</time>
      </trkpt>
      <trkpt lat="45.36748" lon="5.82209">
        <ele>1421</ele>
        <time>2022-07-30T08:44:51Z</time>
      </trkpt>
      <trkpt lat="45.36749" lon="5.82194">
        <ele>1423</ele>
        <time>2022-07-30T08:45:03Z</time>
      </trkpt>
      <trkpt lat="45.36746" lon="5.82185">
        <ele>1426</ele>
        <time>2022-07-30T08:45:34Z</time>
      </trkpt>
      <trkpt lat="45.36747" lon="5.82177">
        <ele>1426</ele>
        <time>2022-07-30T08:45:38Z</time>
      </trkpt>
      <trkpt lat="45.36741" lon="5.82171">
        <ele>1426</ele>
        <time>2022-07-30T08:45:46Z</time>
      </trkpt>
      <trkpt lat="45.36742" lon="5.82164">
        <ele>1427</ele>
        <time>2022-07-30T08:45:58Z</time>
      </trkpt>
      <trkpt lat="45.36742" lon="5.82158">
        <ele>1427</ele>
        <time>2022-07-30T08:46:08Z</time>
      </trkpt>
      <trkpt lat="45.36744" lon="5.82142">
        <ele>1428</ele>
        <time>2022-07-30T08:46:24Z</time>
      </trkpt>
      <trkpt lat="45.36746" lon="5.82142">
        <ele>1433</ele>
        <time>2022-07-30T08:47:15Z</time>
      </trkpt>
      <trkpt lat="45.36755" lon="5.82166">
        <ele>1437</ele>
        <time>2022-07-30T08:47:57Z</time>
      </trkpt>
      <trkpt lat="45.36758" lon="5.82172">
        <ele>1438</ele>
        <time>2022-07-30T08:48:07Z</time>
      </trkpt>
      <trkpt lat="45.36777" lon="5.82196">
        <ele>1442</ele>
        <time>2022-07-30T08:48:53Z</time>
      </trkpt>
      <trkpt lat="45.36787" lon="5.82207">
        <ele>1444</ele>
        <time>2022-07-30T08:49:11Z</time>
      </trkpt>
      <trkpt lat="45.36797" lon="5.82214">
        <ele>1445</ele>
        <time>2022-07-30T08:49:31Z</time>
      </trkpt>
      <trkpt lat="45.36794" lon="5.82223">
        <ele>1447</ele>
        <time>2022-07-30T08:49:48Z</time>
      </trkpt>
      <trkpt lat="45.36797" lon="5.82232">
        <ele>1449</ele>
        <time>2022-07-30T08:50:08Z</time>
      </trkpt>
      <trkpt lat="45.36794" lon="5.82238">
        <ele>1450</ele>
        <time>2022-07-30T08:50:19Z</time>
      </trkpt>
      <trkpt lat="45.36791" lon="5.82245">
        <ele>1451</ele>
        <time>2022-07-30T08:50:31Z</time>
      </trkpt>
      <trkpt lat="45.36789" lon="5.82255">
        <ele>1452</ele>
        <time>2022-07-30T08:50:41Z</time>
      </trkpt>
      <trkpt lat="45.36786" lon="5.8226">
        <ele>1454</ele>
        <time>2022-07-30T08:50:56Z</time>
      </trkpt>
      <trkpt lat="45.36787" lon="5.82267">
        <ele>1455</ele>
        <time>2022-07-30T08:51:07Z</time>
      </trkpt>
      <trkpt lat="45.36784" lon="5.82273">
        <ele>1456</ele>
        <time>2022-07-30T08:51:17Z</time>
      </trkpt>
      <trkpt lat="45.36779" lon="5.82277">
        <ele>1458</ele>
        <time>2022-07-30T08:51:32Z</time>
      </trkpt>
      <trkpt lat="45.3678" lon="5.82285">
        <ele>1459</ele>
        <time>2022-07-30T08:51:43Z</time>
      </trkpt>
      <trkpt lat="45.36782" lon="5.82292">
        <ele>1460</ele>
        <time>2022-07-30T08:51:48Z</time>
      </trkpt>
      <trkpt lat="45.36784" lon="5.823">
        <ele>1461</ele>
        <time>2022-07-30T08:51:59Z</time>
      </trkpt>
      <trkpt lat="45.36788" lon="5.82293">
        <ele>1463</ele>
        <time>2022-07-30T08:52:14Z</time>
      </trkpt>
      <trkpt lat="45.36796" lon="5.82287">
        <ele>1464</ele>
        <time>2022-07-30T08:52:29Z</time>
      </trkpt>
      <trkpt lat="45.36802" lon="5.82282">
        <ele>1464</ele>
        <time>2022-07-30T08:52:39Z</time>
      </trkpt>
      <trkpt lat="45.36802" lon="5.82274">
        <ele>1464</ele>
        <time>2022-07-30T08:52:44Z</time>
      </trkpt>
      <trkpt lat="45.36809" lon="5.82276">
        <ele>1465</ele>
        <time>2022-07-30T08:53:00Z</time>
      </trkpt>
      <trkpt lat="45.36811" lon="5.82267">
        <ele>1466</ele>
        <time>2022-07-30T08:53:10Z</time>
      </trkpt>
      <trkpt lat="45.36821" lon="5.82264">
        <ele>1467</ele>
        <time>2022-07-30T08:53:20Z</time>
      </trkpt>
      <trkpt lat="45.36823" lon="5.82259">
        <ele>1468</ele>
        <time>2022-07-30T08:53:32Z</time>
      </trkpt>
      <trkpt lat="45.36823" lon="5.82258">
        <ele>1471</ele>
        <time>2022-07-30T08:54:00Z</time>
      </trkpt>
      <trkpt lat="45.36819" lon="5.82264">
        <ele>1473</ele>
        <time>2022-07-30T08:54:21Z</time>
      </trkpt>
      <trkpt lat="45.36819" lon="5.82273">
        <ele>1474</ele>
        <time>2022-07-30T08:54:31Z</time>
      </trkpt>
      <trkpt lat="45.36813" lon="5.82276">
        <ele>1475</ele>
        <time>2022-07-30T08:54:41Z</time>
      </trkpt>
      <trkpt lat="45.36813" lon="5.82282">
        <ele>1476</ele>
        <time>2022-07-30T08:54:51Z</time>
      </trkpt>
      <trkpt lat="45.36808" lon="5.82296">
        <ele>1478</ele>
        <time>2022-07-30T08:55:11Z</time>
      </trkpt>
      <trkpt lat="45.36806" lon="5.82305">
        <ele>1479</ele>
        <time>2022-07-30T08:55:21Z</time>
      </trkpt>
      <trkpt lat="45.36811" lon="5.82306">
        <ele>1479</ele>
        <time>2022-07-30T08:55:30Z</time>
      </trkpt>
      <trkpt lat="45.36826" lon="5.82293">
        <ele>1481</ele>
        <time>2022-07-30T08:55:58Z</time>
      </trkpt>
      <trkpt lat="45.36832" lon="5.82287">
        <ele>1482</ele>
        <time>2022-07-30T08:56:09Z</time>
      </trkpt>
      <trkpt lat="45.36841" lon="5.82277">
        <ele>1483</ele>
        <time>2022-07-30T08:56:26Z</time>
      </trkpt>
      <trkpt lat="45.36836" lon="5.82294">
        <ele>1488</ele>
        <time>2022-07-30T08:57:04Z</time>
      </trkpt>
      <trkpt lat="45.36833" lon="5.82299">
        <ele>1489</ele>
        <time>2022-07-30T08:57:20Z</time>
      </trkpt>
      <trkpt lat="45.36829" lon="5.82307">
        <ele>1490</ele>
        <time>2022-07-30T08:57:35Z</time>
      </trkpt>
      <trkpt lat="45.36828" lon="5.82317">
        <ele>1491</ele>
        <time>2022-07-30T08:57:45Z</time>
      </trkpt>
      <trkpt lat="45.36826" lon="5.82324">
        <ele>1491</ele>
        <time>2022-07-30T08:57:53Z</time>
      </trkpt>
      <trkpt lat="45.36823" lon="5.82331">
        <ele>1492</ele>
        <time>2022-07-30T08:58:04Z</time>
      </trkpt>
      <trkpt lat="45.36824" lon="5.82338">
        <ele>1494</ele>
        <time>2022-07-30T08:58:19Z</time>
      </trkpt>
      <trkpt lat="45.36826" lon="5.82346">
        <ele>1494</ele>
        <time>2022-07-30T08:58:29Z</time>
      </trkpt>
      <trkpt lat="45.36829" lon="5.82351">
        <ele>1494</ele>
        <time>2022-07-30T08:58:35Z</time>
      </trkpt>
      <trkpt lat="45.36833" lon="5.82357">
        <ele>1495</ele>
        <time>2022-07-30T08:58:45Z</time>
      </trkpt>
      <trkpt lat="45.36837" lon="5.8236">
        <ele>1496</ele>
        <time>2022-07-30T08:58:55Z</time>
      </trkpt>
      <trkpt lat="45.36841" lon="5.82368">
        <ele>1497</ele>
        <time>2022-07-30T08:59:20Z</time>
      </trkpt>
      <trkpt lat="45.36844" lon="5.82373">
        <ele>1498</ele>
        <time>2022-07-30T08:59:30Z</time>
      </trkpt>
      <trkpt lat="45.36848" lon="5.82369">
        <ele>1499</ele>
        <time>2022-07-30T08:59:40Z</time>
      </trkpt>
      <trkpt lat="45.36849" lon="5.82362">
        <ele>1500</ele>
        <time>2022-07-30T08:59:50Z</time>
      </trkpt>
      <trkpt lat="45.36849" lon="5.82355">
        <ele>1501</ele>
        <time>2022-07-30T09:00:00Z</time>
      </trkpt>
      <trkpt lat="45.36851" lon="5.82348">
        <ele>1502</ele>
        <time>2022-07-30T09:00:11Z</time>
      </trkpt>
      <trkpt lat="45.36853" lon="5.82342">
        <ele>1503</ele>
        <time>2022-07-30T09:00:22Z</time>
      </trkpt>
      <trkpt lat="45.36856" lon="5.82333">
        <ele>1504</ele>
        <time>2022-07-30T09:00:32Z</time>
      </trkpt>
      <trkpt lat="45.36862" lon="5.82323">
        <ele>1505</ele>
        <time>2022-07-30T09:00:52Z</time>
      </trkpt>
      <trkpt lat="45.36877" lon="5.82311">
        <ele>1509</ele>
        <time>2022-07-30T09:01:27Z</time>
      </trkpt>
      <trkpt lat="45.36889" lon="5.8229">
        <ele>1512</ele>
        <time>2022-07-30T09:01:59Z</time>
      </trkpt>
      <trkpt lat="45.36893" lon="5.82284">
        <ele>1513</ele>
        <time>2022-07-30T09:02:10Z</time>
      </trkpt>
      <trkpt lat="45.36893" lon="5.82289">
        <ele>1518</ele>
        <time>2022-07-30T09:03:03Z</time>
      </trkpt>
      <trkpt lat="45.36891" lon="5.82296">
        <ele>1519</ele>
        <time>2022-07-30T09:03:18Z</time>
      </trkpt>
      <trkpt lat="45.36888" lon="5.82313">
        <ele>1521</ele>
        <time>2022-07-30T09:03:38Z</time>
      </trkpt>
      <trkpt lat="45.3689" lon="5.82323">
        <ele>1522</ele>
        <time>2022-07-30T09:03:49Z</time>
      </trkpt>
      <trkpt lat="45.36889" lon="5.8233">
        <ele>1523</ele>
        <time>2022-07-30T09:03:59Z</time>
      </trkpt>
      <trkpt lat="45.36889" lon="5.8234">
        <ele>1524</ele>
        <time>2022-07-30T09:04:09Z</time>
      </trkpt>
      <trkpt lat="45.36888" lon="5.8235">
        <ele>1525</ele>
        <time>2022-07-30T09:04:19Z</time>
      </trkpt>
      <trkpt lat="45.36892" lon="5.82358">
        <ele>1526</ele>
        <time>2022-07-30T09:04:30Z</time>
      </trkpt>
      <trkpt lat="45.36898" lon="5.82374">
        <ele>1528</ele>
        <time>2022-07-30T09:04:51Z</time>
      </trkpt>
      <trkpt lat="45.36898" lon="5.82381">
        <ele>1528</ele>
        <time>2022-07-30T09:04:56Z</time>
      </trkpt>
      <trkpt lat="45.36899" lon="5.8239">
        <ele>1528</ele>
        <time>2022-07-30T09:05:03Z</time>
      </trkpt>
      <trkpt lat="45.36901" lon="5.82395">
        <ele>1528</ele>
        <time>2022-07-30T09:05:10Z</time>
      </trkpt>
      <trkpt lat="45.36904" lon="5.82411">
        <ele>1531</ele>
        <time>2022-07-30T09:05:30Z</time>
      </trkpt>
      <trkpt lat="45.36908" lon="5.82417">
        <ele>1531</ele>
        <time>2022-07-30T09:05:40Z</time>
      </trkpt>
      <trkpt lat="45.36909" lon="5.82422">
        <ele>1532</ele>
        <time>2022-07-30T09:05:45Z</time>
      </trkpt>
      <trkpt lat="45.36912" lon="5.82428">
        <ele>1533</ele>
        <time>2022-07-30T09:05:55Z</time>
      </trkpt>
      <trkpt lat="45.36918" lon="5.82417">
        <ele>1535</ele>
        <time>2022-07-30T09:06:28Z</time>
      </trkpt>
      <trkpt lat="45.36923" lon="5.82415">
        <ele>1535</ele>
        <time>2022-07-30T09:07:15Z</time>
      </trkpt>
      <trkpt lat="45.36921" lon="5.82407">
        <ele>1536</ele>
        <time>2022-07-30T09:07:25Z</time>
      </trkpt>
      <trkpt lat="45.36923" lon="5.82399">
        <ele>1538</ele>
        <time>2022-07-30T09:07:40Z</time>
      </trkpt>
      <trkpt lat="45.36925" lon="5.82392">
        <ele>1538</ele>
        <time>2022-07-30T09:07:44Z</time>
      </trkpt>
      <trkpt lat="45.36926" lon="5.82382">
        <ele>1540</ele>
        <time>2022-07-30T09:07:57Z</time>
      </trkpt>
      <trkpt lat="45.3693" lon="5.82376">
        <ele>1541</ele>
        <time>2022-07-30T09:08:12Z</time>
      </trkpt>
      <trkpt lat="45.36932" lon="5.82382">
        <ele>1547</ele>
        <time>2022-07-30T09:08:57Z</time>
      </trkpt>
      <trkpt lat="45.36933" lon="5.82389">
        <ele>1548</ele>
        <time>2022-07-30T09:09:07Z</time>
      </trkpt>
      <trkpt lat="45.36935" lon="5.82399">
        <ele>1548</ele>
        <time>2022-07-30T09:09:18Z</time>
      </trkpt>
      <trkpt lat="45.36939" lon="5.82407">
        <ele>1549</ele>
        <time>2022-07-30T09:09:28Z</time>
      </trkpt>
      <trkpt lat="45.36943" lon="5.82402">
        <ele>1549</ele>
        <time>2022-07-30T09:09:34Z</time>
      </trkpt>
      <trkpt lat="45.36943" lon="5.82393">
        <ele>1550</ele>
        <time>2022-07-30T09:09:44Z</time>
      </trkpt>
      <trkpt lat="45.36945" lon="5.82386">
        <ele>1552</ele>
        <time>2022-07-30T09:09:59Z</time>
      </trkpt>
      <trkpt lat="45.36945" lon="5.82378">
        <ele>1553</ele>
        <time>2022-07-30T09:10:10Z</time>
      </trkpt>
      <trkpt lat="45.36947" lon="5.82373">
        <ele>1554</ele>
        <time>2022-07-30T09:10:20Z</time>
      </trkpt>
      <trkpt lat="45.36947" lon="5.82355">
        <ele>1557</ele>
        <time>2022-07-30T09:10:41Z</time>
      </trkpt>
      <trkpt lat="45.36946" lon="5.82354">
        <ele>1560</ele>
        <time>2022-07-30T09:11:07Z</time>
      </trkpt>
      <trkpt lat="45.36947" lon="5.82362">
        <ele>1561</ele>
        <time>2022-07-30T09:11:17Z</time>
      </trkpt>
      <trkpt lat="45.36949" lon="5.82369">
        <ele>1562</ele>
        <time>2022-07-30T09:11:28Z</time>
      </trkpt>
      <trkpt lat="45.36954" lon="5.82376">
        <ele>1563</ele>
        <time>2022-07-30T09:11:38Z</time>
      </trkpt>
      <trkpt lat="45.36959" lon="5.8238">
        <ele>1564</ele>
        <time>2022-07-30T09:11:50Z</time>
      </trkpt>
      <trkpt lat="45.36963" lon="5.82377">
        <ele>1564</ele>
        <time>2022-07-30T09:11:55Z</time>
      </trkpt>
      <trkpt lat="45.36974" lon="5.82376">
        <ele>1566</ele>
        <time>2022-07-30T09:12:13Z</time>
      </trkpt>
      <trkpt lat="45.36978" lon="5.82372">
        <ele>1567</ele>
        <time>2022-07-30T09:12:23Z</time>
      </trkpt>
      <trkpt lat="45.36981" lon="5.82364">
        <ele>1568</ele>
        <time>2022-07-30T09:12:33Z</time>
      </trkpt>
      <trkpt lat="45.36976" lon="5.82352">
        <ele>1571</ele>
        <time>2022-07-30T09:12:54Z</time>
      </trkpt>
      <trkpt lat="45.36979" lon="5.82358">
        <ele>1573</ele>
        <time>2022-07-30T09:13:09Z</time>
      </trkpt>
      <trkpt lat="45.36984" lon="5.82358">
        <ele>1575</ele>
        <time>2022-07-30T09:13:30Z</time>
      </trkpt>
      <trkpt lat="45.36992" lon="5.82358">
        <ele>1576</ele>
        <time>2022-07-30T09:13:40Z</time>
      </trkpt>
      <trkpt lat="45.36995" lon="5.82353">
        <ele>1577</ele>
        <time>2022-07-30T09:13:46Z</time>
      </trkpt>
      <trkpt lat="45.36996" lon="5.82347">
        <ele>1578</ele>
        <time>2022-07-30T09:13:58Z</time>
      </trkpt>
      <trkpt lat="45.37" lon="5.82343">
        <ele>1581</ele>
        <time>2022-07-30T09:14:18Z</time>
      </trkpt>
      <trkpt lat="45.37004" lon="5.82339">
        <ele>1582</ele>
        <time>2022-07-30T09:14:29Z</time>
      </trkpt>
      <trkpt lat="45.37001" lon="5.82329">
        <ele>1584</ele>
        <time>2022-07-30T09:14:39Z</time>
      </trkpt>
      <trkpt lat="45.37006" lon="5.8233">
        <ele>1587</ele>
        <time>2022-07-30T09:15:06Z</time>
      </trkpt>
      <trkpt lat="45.37011" lon="5.82332">
        <ele>1588</ele>
        <time>2022-07-30T09:15:17Z</time>
      </trkpt>
      <trkpt lat="45.37017" lon="5.82331">
        <ele>1591</ele>
        <time>2022-07-30T09:15:38Z</time>
      </trkpt>
      <trkpt lat="45.37026" lon="5.8231">
        <ele>1594</ele>
        <time>2022-07-30T09:16:11Z</time>
      </trkpt>
      <trkpt lat="45.37026" lon="5.82315">
        <ele>1599</ele>
        <time>2022-07-30T09:16:53Z</time>
      </trkpt>
      <trkpt lat="45.3703" lon="5.8232">
        <ele>1599</ele>
        <time>2022-07-30T09:17:03Z</time>
      </trkpt>
      <trkpt lat="45.37035" lon="5.82319">
        <ele>1600</ele>
        <time>2022-07-30T09:17:14Z</time>
      </trkpt>
      <trkpt lat="45.37039" lon="5.82315">
        <ele>1601</ele>
        <time>2022-07-30T09:17:24Z</time>
      </trkpt>
      <trkpt lat="45.37045" lon="5.82312">
        <ele>1602</ele>
        <time>2022-07-30T09:17:34Z</time>
      </trkpt>
      <trkpt lat="45.37045" lon="5.82304">
        <ele>1604</ele>
        <time>2022-07-30T09:17:49Z</time>
      </trkpt>
      <trkpt lat="45.37048" lon="5.82304">
        <ele>1610</ele>
        <time>2022-07-30T09:18:39Z</time>
      </trkpt>
      <trkpt lat="45.37053" lon="5.82305">
        <ele>1610</ele>
        <time>2022-07-30T09:18:49Z</time>
      </trkpt>
      <trkpt lat="45.37059" lon="5.82306">
        <ele>1612</ele>
        <time>2022-07-30T09:19:00Z</time>
      </trkpt>
      <trkpt lat="45.37062" lon="5.82299">
        <ele>1613</ele>
        <time>2022-07-30T09:19:12Z</time>
      </trkpt>
      <trkpt lat="45.37062" lon="5.82291">
        <ele>1615</ele>
        <time>2022-07-30T09:19:23Z</time>
      </trkpt>
      <trkpt lat="45.3706" lon="5.82282">
        <ele>1617</ele>
        <time>2022-07-30T09:19:38Z</time>
      </trkpt>
      <trkpt lat="45.37066" lon="5.82285">
        <ele>1621</ele>
        <time>2022-07-30T09:20:18Z</time>
      </trkpt>
      <trkpt lat="45.37072" lon="5.82287">
        <ele>1622</ele>
        <time>2022-07-30T09:20:33Z</time>
      </trkpt>
      <trkpt lat="45.37077" lon="5.82288">
        <ele>1623</ele>
        <time>2022-07-30T09:20:43Z</time>
      </trkpt>
      <trkpt lat="45.37082" lon="5.8229">
        <ele>1624</ele>
        <time>2022-07-30T09:20:53Z</time>
      </trkpt>
      <trkpt lat="45.37087" lon="5.82286">
        <ele>1626</ele>
        <time>2022-07-30T09:21:04Z</time>
      </trkpt>
      <trkpt lat="45.37087" lon="5.82277">
        <ele>1627</ele>
        <time>2022-07-30T09:21:16Z</time>
      </trkpt>
      <trkpt lat="45.37083" lon="5.8227">
        <ele>1628</ele>
        <time>2022-07-30T09:21:28Z</time>
      </trkpt>
      <trkpt lat="45.37087" lon="5.82256">
        <ele>1632</ele>
        <time>2022-07-30T09:22:03Z</time>
      </trkpt>
      <trkpt lat="45.3709" lon="5.82251">
        <ele>1633</ele>
        <time>2022-07-30T09:22:18Z</time>
      </trkpt>
      <trkpt lat="45.37092" lon="5.82243">
        <ele>1634</ele>
        <time>2022-07-30T09:22:28Z</time>
      </trkpt>
      <trkpt lat="45.37094" lon="5.82237">
        <ele>1634</ele>
        <time>2022-07-30T09:22:33Z</time>
      </trkpt>
      <trkpt lat="45.37097" lon="5.82227">
        <ele>1634</ele>
        <time>2022-07-30T09:22:42Z</time>
      </trkpt>
      <trkpt lat="45.37098" lon="5.82219">
        <ele>1634</ele>
        <time>2022-07-30T09:22:49Z</time>
      </trkpt>
      <trkpt lat="45.37098" lon="5.82208">
        <ele>1634</ele>
        <time>2022-07-30T09:22:59Z</time>
      </trkpt>
      <trkpt lat="45.37099" lon="5.82196">
        <ele>1634</ele>
        <time>2022-07-30T09:23:10Z</time>
      </trkpt>
      <trkpt lat="45.371" lon="5.82189">
        <ele>1634</ele>
        <time>2022-07-30T09:23:16Z</time>
      </trkpt>
      <trkpt lat="45.37101" lon="5.8218">
        <ele>1634</ele>
        <time>2022-07-30T09:23:26Z</time>
      </trkpt>
      <trkpt lat="45.37106" lon="5.82168">
        <ele>1636</ele>
        <time>2022-07-30T09:23:41Z</time>
      </trkpt>
      <trkpt lat="45.37105" lon="5.8216">
        <ele>1637</ele>
        <time>2022-07-30T09:23:49Z</time>
      </trkpt>
      <trkpt lat="45.37108" lon="5.82151">
        <ele>1638</ele>
        <time>2022-07-30T09:23:59Z</time>
      </trkpt>
      <trkpt lat="45.37113" lon="5.82141">
        <ele>1638</ele>
        <time>2022-07-30T09:24:10Z</time>
      </trkpt>
      <trkpt lat="45.37125" lon="5.8212">
        <ele>1637</ele>
        <time>2022-07-30T09:24:31Z</time>
      </trkpt>
      <trkpt lat="45.37127" lon="5.82114">
        <ele>1638</ele>
        <time>2022-07-30T09:24:46Z</time>
      </trkpt>
      <trkpt lat="45.37131" lon="5.82109">
        <ele>1638</ele>
        <time>2022-07-30T09:25:17Z</time>
      </trkpt>
      <trkpt lat="45.37133" lon="5.82102">
        <ele>1639</ele>
        <time>2022-07-30T09:25:22Z</time>
      </trkpt>
      <trkpt lat="45.37135" lon="5.82097">
        <ele>1639</ele>
        <time>2022-07-30T09:25:26Z</time>
      </trkpt>
      <trkpt lat="45.37137" lon="5.8209">
        <ele>1638</ele>
        <time>2022-07-30T09:25:33Z</time>
      </trkpt>
      <trkpt lat="45.37142" lon="5.82085">
        <ele>1638</ele>
        <time>2022-07-30T09:26:00Z</time>
      </trkpt>
      <trkpt lat="45.37146" lon="5.82079">
        <ele>1639</ele>
        <time>2022-07-30T09:26:15Z</time>
      </trkpt>
      <trkpt lat="45.37145" lon="5.82073">
        <ele>1640</ele>
        <time>2022-07-30T09:26:20Z</time>
      </trkpt>
      <trkpt lat="45.37147" lon="5.82074">
        <ele>1641</ele>
        <time>2022-07-30T09:31:07Z</time>
      </trkpt>
      <trkpt lat="45.37146" lon="5.82075">
        <ele>1640</ele>
        <time>2022-07-30T09:35:03Z</time>
      </trkpt>
      <trkpt lat="45.37145" lon="5.82072">
        <ele>1638</ele>
        <time>2022-07-30T09:42:11Z</time>
      </trkpt>
      <trkpt lat="45.37147" lon="5.82074">
        <ele>1638</ele>
        <time>2022-07-30T09:43:28Z</time>
      </trkpt>
      <trkpt lat="45.37146" lon="5.82071">
        <ele>1639</ele>
        <time>2022-07-30T09:46:22Z</time>
      </trkpt>
      <trkpt lat="45.37143" lon="5.8206">
        <ele>1639</ele>
        <time>2022-07-30T09:55:35Z</time>
      </trkpt>
      <trkpt lat="45.37143" lon="5.82053">
        <ele>1640</ele>
        <time>2022-07-30T09:55:42Z</time>
      </trkpt>
      <trkpt lat="45.37141" lon="5.82036">
        <ele>1641</ele>
        <time>2022-07-30T09:56:02Z</time>
      </trkpt>
      <trkpt lat="45.37138" lon="5.82029">
        <ele>1643</ele>
        <time>2022-07-30T09:56:12Z</time>
      </trkpt>
      <trkpt lat="45.37136" lon="5.82015">
        <ele>1646</ele>
        <time>2022-07-30T09:56:37Z</time>
      </trkpt>
      <trkpt lat="45.37133" lon="5.82009">
        <ele>1649</ele>
        <time>2022-07-30T09:56:54Z</time>
      </trkpt>
      <trkpt lat="45.37134" lon="5.82001">
        <ele>1651</ele>
        <time>2022-07-30T09:57:11Z</time>
      </trkpt>
      <trkpt lat="45.37133" lon="5.81987">
        <ele>1656</ele>
        <time>2022-07-30T09:57:46Z</time>
      </trkpt>
      <trkpt lat="45.37131" lon="5.81973">
        <ele>1660</ele>
        <time>2022-07-30T09:58:21Z</time>
      </trkpt>
      <trkpt lat="45.37131" lon="5.81959">
        <ele>1666</ele>
        <time>2022-07-30T09:59:10Z</time>
      </trkpt>
      <trkpt lat="45.37131" lon="5.81953">
        <ele>1669</ele>
        <time>2022-07-30T09:59:25Z</time>
      </trkpt>
      <trkpt lat="45.37129" lon="5.81945">
        <ele>1671</ele>
        <time>2022-07-30T09:59:40Z</time>
      </trkpt>
      <trkpt lat="45.37122" lon="5.81931">
        <ele>1674</ele>
        <time>2022-07-30T10:00:05Z</time>
      </trkpt>
      <trkpt lat="45.37116" lon="5.81925">
        <ele>1675</ele>
        <time>2022-07-30T10:00:15Z</time>
      </trkpt>
      <trkpt lat="45.37103" lon="5.81903">
        <ele>1676</ele>
        <time>2022-07-30T10:00:46Z</time>
      </trkpt>
      <trkpt lat="45.37101" lon="5.81896">
        <ele>1676</ele>
        <time>2022-07-30T10:00:52Z</time>
      </trkpt>
      <trkpt lat="45.37093" lon="5.81881">
        <ele>1678</ele>
        <time>2022-07-30T10:01:12Z</time>
      </trkpt>
      <trkpt lat="45.37088" lon="5.81876">
        <ele>1678</ele>
        <time>2022-07-30T10:01:23Z</time>
      </trkpt>
      <trkpt lat="45.37084" lon="5.81873">
        <ele>1678</ele>
        <time>2022-07-30T10:01:33Z</time>
      </trkpt>
      <trkpt lat="45.37077" lon="5.81868">
        <ele>1678</ele>
        <time>2022-07-30T10:01:50Z</time>
      </trkpt>
      <trkpt lat="45.37074" lon="5.81863">
        <ele>1679</ele>
        <time>2022-07-30T10:02:00Z</time>
      </trkpt>
      <trkpt lat="45.37073" lon="5.81856">
        <ele>1679</ele>
        <time>2022-07-30T10:02:10Z</time>
      </trkpt>
      <trkpt lat="45.37069" lon="5.81853">
        <ele>1678</ele>
        <time>2022-07-30T10:02:16Z</time>
      </trkpt>
      <trkpt lat="45.37065" lon="5.81852">
        <ele>1677</ele>
        <time>2022-07-30T10:02:23Z</time>
      </trkpt>
      <trkpt lat="45.37059" lon="5.81849">
        <ele>1678</ele>
        <time>2022-07-30T10:02:33Z</time>
      </trkpt>
      <trkpt lat="45.37056" lon="5.81844">
        <ele>1679</ele>
        <time>2022-07-30T10:02:43Z</time>
      </trkpt>
      <trkpt lat="45.37052" lon="5.81844">
        <ele>1679</ele>
        <time>2022-07-30T10:02:48Z</time>
      </trkpt>
      <trkpt lat="45.37049" lon="5.81836">
        <ele>1680</ele>
        <time>2022-07-30T10:02:58Z</time>
      </trkpt>
      <trkpt lat="45.37044" lon="5.81832">
        <ele>1681</ele>
        <time>2022-07-30T10:03:10Z</time>
      </trkpt>
      <trkpt lat="45.37041" lon="5.81822">
        <ele>1683</ele>
        <time>2022-07-30T10:03:22Z</time>
      </trkpt>
      <trkpt lat="45.37036" lon="5.8182">
        <ele>1685</ele>
        <time>2022-07-30T10:03:32Z</time>
      </trkpt>
      <trkpt lat="45.37031" lon="5.81821">
        <ele>1686</ele>
        <time>2022-07-30T10:03:43Z</time>
      </trkpt>
      <trkpt lat="45.37028" lon="5.81817">
        <ele>1689</ele>
        <time>2022-07-30T10:04:18Z</time>
      </trkpt>
      <trkpt lat="45.37022" lon="5.81812">
        <ele>1690</ele>
        <time>2022-07-30T10:04:28Z</time>
      </trkpt>
      <trkpt lat="45.37019" lon="5.81809">
        <ele>1691</ele>
        <time>2022-07-30T10:04:39Z</time>
      </trkpt>
      <trkpt lat="45.37017" lon="5.81804">
        <ele>1698</ele>
        <time>2022-07-30T10:05:53Z</time>
      </trkpt>
      <trkpt lat="45.37013" lon="5.81801">
        <ele>1702</ele>
        <time>2022-07-30T10:06:23Z</time>
      </trkpt>
      <trkpt lat="45.37009" lon="5.81796">
        <ele>1706</ele>
        <time>2022-07-30T10:07:13Z</time>
      </trkpt>
      <trkpt lat="45.37004" lon="5.81796">
        <ele>1707</ele>
        <time>2022-07-30T10:07:24Z</time>
      </trkpt>
      <trkpt lat="45.37" lon="5.81791">
        <ele>1710</ele>
        <time>2022-07-30T10:07:46Z</time>
      </trkpt>
      <trkpt lat="45.36994" lon="5.8179">
        <ele>1712</ele>
        <time>2022-07-30T10:08:01Z</time>
      </trkpt>
      <trkpt lat="45.36992" lon="5.81784">
        <ele>1715</ele>
        <time>2022-07-30T10:08:31Z</time>
      </trkpt>
      <trkpt lat="45.36989" lon="5.81778">
        <ele>1719</ele>
        <time>2022-07-30T10:08:51Z</time>
      </trkpt>
      <trkpt lat="45.36988" lon="5.81772">
        <ele>1721</ele>
        <time>2022-07-30T10:09:28Z</time>
      </trkpt>
      <trkpt lat="45.36985" lon="5.81767">
        <ele>1727</ele>
        <time>2022-07-30T10:10:30Z</time>
      </trkpt>
      <trkpt lat="45.36989" lon="5.81763">
        <ele>1731</ele>
        <time>2022-07-30T10:11:10Z</time>
      </trkpt>
      <trkpt lat="45.36994" lon="5.81762">
        <ele>1733</ele>
        <time>2022-07-30T10:11:31Z</time>
      </trkpt>
      <trkpt lat="45.36995" lon="5.81756">
        <ele>1735</ele>
        <time>2022-07-30T10:12:12Z</time>
      </trkpt>
      <trkpt lat="45.36994" lon="5.8175">
        <ele>1737</ele>
        <time>2022-07-30T10:12:27Z</time>
      </trkpt>
      <trkpt lat="45.36989" lon="5.81744">
        <ele>1743</ele>
        <time>2022-07-30T10:13:12Z</time>
      </trkpt>
      <trkpt lat="45.36984" lon="5.81739">
        <ele>1744</ele>
        <time>2022-07-30T10:13:22Z</time>
      </trkpt>
      <trkpt lat="45.36979" lon="5.81737">
        <ele>1744</ele>
        <time>2022-07-30T10:13:26Z</time>
      </trkpt>
      <trkpt lat="45.36975" lon="5.81731">
        <ele>1744</ele>
        <time>2022-07-30T10:13:35Z</time>
      </trkpt>
      <trkpt lat="45.36969" lon="5.81728">
        <ele>1745</ele>
        <time>2022-07-30T10:13:46Z</time>
      </trkpt>
      <trkpt lat="45.36967" lon="5.81722">
        <ele>1748</ele>
        <time>2022-07-30T10:14:02Z</time>
      </trkpt>
      <trkpt lat="45.36967" lon="5.81716">
        <ele>1750</ele>
        <time>2022-07-30T10:14:47Z</time>
      </trkpt>
      <trkpt lat="45.36963" lon="5.81705">
        <ele>1757</ele>
        <time>2022-07-30T10:15:32Z</time>
      </trkpt>
      <trkpt lat="45.3696" lon="5.817">
        <ele>1759</ele>
        <time>2022-07-30T10:15:54Z</time>
      </trkpt>
      <trkpt lat="45.36964" lon="5.81698">
        <ele>1764</ele>
        <time>2022-07-30T10:16:44Z</time>
      </trkpt>
      <trkpt lat="45.36968" lon="5.81699">
        <ele>1767</ele>
        <time>2022-07-30T10:17:09Z</time>
      </trkpt>
      <trkpt lat="45.36973" lon="5.81699">
        <ele>1767</ele>
        <time>2022-07-30T10:17:19Z</time>
      </trkpt>
      <trkpt lat="45.36977" lon="5.81697">
        <ele>1769</ele>
        <time>2022-07-30T10:17:31Z</time>
      </trkpt>
      <trkpt lat="45.36974" lon="5.8169">
        <ele>1771</ele>
        <time>2022-07-30T10:17:41Z</time>
      </trkpt>
      <trkpt lat="45.36968" lon="5.81687">
        <ele>1771</ele>
        <time>2022-07-30T10:17:52Z</time>
      </trkpt>
      <trkpt lat="45.36964" lon="5.81675">
        <ele>1776</ele>
        <time>2022-07-30T10:18:39Z</time>
      </trkpt>
      <trkpt lat="45.36961" lon="5.8167">
        <ele>1779</ele>
        <time>2022-07-30T10:18:59Z</time>
      </trkpt>
      <trkpt lat="45.36958" lon="5.81657">
        <ele>1785</ele>
        <time>2022-07-30T10:20:00Z</time>
      </trkpt>
      <trkpt lat="45.36952" lon="5.81655">
        <ele>1785</ele>
        <time>2022-07-30T10:20:11Z</time>
      </trkpt>
      <trkpt lat="45.3695" lon="5.81649">
        <ele>1787</ele>
        <time>2022-07-30T10:20:31Z</time>
      </trkpt>
      <trkpt lat="45.36951" lon="5.81643">
        <ele>1789</ele>
        <time>2022-07-30T10:20:56Z</time>
      </trkpt>
      <trkpt lat="45.36959" lon="5.81633">
        <ele>1794</ele>
        <time>2022-07-30T10:22:49Z</time>
      </trkpt>
      <trkpt lat="45.36964" lon="5.8163">
        <ele>1801</ele>
        <time>2022-07-30T10:26:44Z</time>
      </trkpt>
      <trkpt lat="45.36967" lon="5.81624">
        <ele>1804</ele>
        <time>2022-07-30T10:27:14Z</time>
      </trkpt>
      <trkpt lat="45.3697" lon="5.81619">
        <ele>1805</ele>
        <time>2022-07-30T10:27:24Z</time>
      </trkpt>
      <trkpt lat="45.36972" lon="5.81614">
        <ele>1807</ele>
        <time>2022-07-30T10:27:34Z</time>
      </trkpt>
      <trkpt lat="45.36975" lon="5.8161">
        <ele>1809</ele>
        <time>2022-07-30T10:27:54Z</time>
      </trkpt>
      <trkpt lat="45.36977" lon="5.81604">
        <ele>1811</ele>
        <time>2022-07-30T10:28:09Z</time>
      </trkpt>
      <trkpt lat="45.36981" lon="5.81603">
        <ele>1814</ele>
        <time>2022-07-30T10:28:32Z</time>
      </trkpt>
      <trkpt lat="45.36983" lon="5.81611">
        <ele>1816</ele>
        <time>2022-07-30T10:28:47Z</time>
      </trkpt>
      <trkpt lat="45.36987" lon="5.8161">
        <ele>1818</ele>
        <time>2022-07-30T10:29:02Z</time>
      </trkpt>
      <trkpt lat="45.36991" lon="5.81606">
        <ele>1822</ele>
        <time>2022-07-30T10:29:22Z</time>
      </trkpt>
      <trkpt lat="45.36993" lon="5.81613">
        <ele>1827</ele>
        <time>2022-07-30T10:29:57Z</time>
      </trkpt>
      <trkpt lat="45.36998" lon="5.81613">
        <ele>1830</ele>
        <time>2022-07-30T10:30:17Z</time>
      </trkpt>
      <trkpt lat="45.37002" lon="5.81611">
        <ele>1834</ele>
        <time>2022-07-30T10:30:50Z</time>
      </trkpt>
      <trkpt lat="45.37007" lon="5.81613">
        <ele>1839</ele>
        <time>2022-07-30T10:31:20Z</time>
      </trkpt>
      <trkpt lat="45.37012" lon="5.81613">
        <ele>1841</ele>
        <time>2022-07-30T10:31:35Z</time>
      </trkpt>
      <trkpt lat="45.37016" lon="5.81615">
        <ele>1845</ele>
        <time>2022-07-30T10:32:05Z</time>
      </trkpt>
      <trkpt lat="45.3702" lon="5.81618">
        <ele>1850</ele>
        <time>2022-07-30T10:32:47Z</time>
      </trkpt>
      <trkpt lat="45.37025" lon="5.81617">
        <ele>1853</ele>
        <time>2022-07-30T10:33:07Z</time>
      </trkpt>
      <trkpt lat="45.3703" lon="5.81614">
        <ele>1856</ele>
        <time>2022-07-30T10:33:27Z</time>
      </trkpt>
      <trkpt lat="45.37034" lon="5.81614">
        <ele>1858</ele>
        <time>2022-07-30T10:33:52Z</time>
      </trkpt>
      <trkpt lat="45.37039" lon="5.81618">
        <ele>1860</ele>
        <time>2022-07-30T10:34:07Z</time>
      </trkpt>
      <trkpt lat="45.37043" lon="5.81624">
        <ele>1865</ele>
        <time>2022-07-30T10:34:38Z</time>
      </trkpt>
      <trkpt lat="45.37046" lon="5.81617">
        <ele>1867</ele>
        <time>2022-07-30T10:34:55Z</time>
      </trkpt>
      <trkpt lat="45.3705" lon="5.8162">
        <ele>1868</ele>
        <time>2022-07-30T10:35:10Z</time>
      </trkpt>
      <trkpt lat="45.37054" lon="5.81619">
        <ele>1871</ele>
        <time>2022-07-30T10:35:30Z</time>
      </trkpt>
      <trkpt lat="45.37059" lon="5.81621">
        <ele>1873</ele>
        <time>2022-07-30T10:35:45Z</time>
      </trkpt>
      <trkpt lat="45.37064" lon="5.81622">
        <ele>1875</ele>
        <time>2022-07-30T10:36:00Z</time>
      </trkpt>
      <trkpt lat="45.37069" lon="5.8162">
        <ele>1876</ele>
        <time>2022-07-30T10:36:20Z</time>
      </trkpt>
      <trkpt lat="45.37072" lon="5.81616">
        <ele>1878</ele>
        <time>2022-07-30T10:36:30Z</time>
      </trkpt>
      <trkpt lat="45.37077" lon="5.81613">
        <ele>1879</ele>
        <time>2022-07-30T10:36:41Z</time>
      </trkpt>
      <trkpt lat="45.37089" lon="5.81598">
        <ele>1882</ele>
        <time>2022-07-30T10:37:13Z</time>
      </trkpt>
      <trkpt lat="45.37101" lon="5.81584">
        <ele>1886</ele>
        <time>2022-07-30T10:37:43Z</time>
      </trkpt>
      <trkpt lat="45.37103" lon="5.81579">
        <ele>1887</ele>
        <time>2022-07-30T10:37:58Z</time>
      </trkpt>
      <trkpt lat="45.37109" lon="5.81566">
        <ele>1892</ele>
        <time>2022-07-30T10:38:33Z</time>
      </trkpt>
      <trkpt lat="45.37111" lon="5.81561">
        <ele>1893</ele>
        <time>2022-07-30T10:38:49Z</time>
      </trkpt>
      <trkpt lat="45.37112" lon="5.81553">
        <ele>1897</ele>
        <time>2022-07-30T10:39:10Z</time>
      </trkpt>
      <trkpt lat="45.37115" lon="5.81549">
        <ele>1899</ele>
        <time>2022-07-30T10:39:25Z</time>
      </trkpt>
      <trkpt lat="45.37116" lon="5.81543">
        <ele>1901</ele>
        <time>2022-07-30T10:39:40Z</time>
      </trkpt>
      <trkpt lat="45.37112" lon="5.81537">
        <ele>1903</ele>
        <time>2022-07-30T10:39:55Z</time>
      </trkpt>
      <trkpt lat="45.37102" lon="5.81528">
        <ele>1907</ele>
        <time>2022-07-30T10:40:25Z</time>
      </trkpt>
      <trkpt lat="45.37101" lon="5.81522">
        <ele>1909</ele>
        <time>2022-07-30T10:40:45Z</time>
      </trkpt>
      <trkpt lat="45.37104" lon="5.81516">
        <ele>1912</ele>
        <time>2022-07-30T10:41:02Z</time>
      </trkpt>
      <trkpt lat="45.37107" lon="5.81512">
        <ele>1914</ele>
        <time>2022-07-30T10:41:18Z</time>
      </trkpt>
      <trkpt lat="45.37108" lon="5.81505">
        <ele>1917</ele>
        <time>2022-07-30T10:41:38Z</time>
      </trkpt>
      <trkpt lat="45.37111" lon="5.815">
        <ele>1919</ele>
        <time>2022-07-30T10:41:58Z</time>
      </trkpt>
      <trkpt lat="45.37112" lon="5.81493">
        <ele>1921</ele>
        <time>2022-07-30T10:42:13Z</time>
      </trkpt>
      <trkpt lat="45.37114" lon="5.81488">
        <ele>1922</ele>
        <time>2022-07-30T10:42:28Z</time>
      </trkpt>
      <trkpt lat="45.37115" lon="5.81481">
        <ele>1925</ele>
        <time>2022-07-30T10:42:43Z</time>
      </trkpt>
      <trkpt lat="45.37114" lon="5.81474">
        <ele>1927</ele>
        <time>2022-07-30T10:42:59Z</time>
      </trkpt>
      <trkpt lat="45.37116" lon="5.81468">
        <ele>1929</ele>
        <time>2022-07-30T10:43:16Z</time>
      </trkpt>
      <trkpt lat="45.37113" lon="5.81453">
        <ele>1934</ele>
        <time>2022-07-30T10:43:46Z</time>
      </trkpt>
      <trkpt lat="45.37111" lon="5.81441">
        <ele>1939</ele>
        <time>2022-07-30T10:44:26Z</time>
      </trkpt>
      <trkpt lat="45.37109" lon="5.81426">
        <ele>1943</ele>
        <time>2022-07-30T10:44:56Z</time>
      </trkpt>
      <trkpt lat="45.37106" lon="5.81418">
        <ele>1946</ele>
        <time>2022-07-30T10:45:13Z</time>
      </trkpt>
      <trkpt lat="45.37103" lon="5.81413">
        <ele>1948</ele>
        <time>2022-07-30T10:45:29Z</time>
      </trkpt>
      <trkpt lat="45.37103" lon="5.81404">
        <ele>1951</ele>
        <time>2022-07-30T10:45:45Z</time>
      </trkpt>
      <trkpt lat="45.37102" lon="5.81398">
        <ele>1953</ele>
        <time>2022-07-30T10:46:00Z</time>
      </trkpt>
      <trkpt lat="45.371" lon="5.81384">
        <ele>1958</ele>
        <time>2022-07-30T10:46:35Z</time>
      </trkpt>
      <trkpt lat="45.37097" lon="5.81378">
        <ele>1960</ele>
        <time>2022-07-30T10:46:50Z</time>
      </trkpt>
      <trkpt lat="45.37097" lon="5.8137">
        <ele>1964</ele>
        <time>2022-07-30T10:47:22Z</time>
      </trkpt>
      <trkpt lat="45.37098" lon="5.81357">
        <ele>1968</ele>
        <time>2022-07-30T10:47:53Z</time>
      </trkpt>
      <trkpt lat="45.37095" lon="5.81353">
        <ele>1971</ele>
        <time>2022-07-30T10:48:03Z</time>
      </trkpt>
      <trkpt lat="45.37094" lon="5.81346">
        <ele>1974</ele>
        <time>2022-07-30T10:48:28Z</time>
      </trkpt>
      <trkpt lat="45.37094" lon="5.81339">
        <ele>1978</ele>
        <time>2022-07-30T10:48:53Z</time>
      </trkpt>
      <trkpt lat="45.3709" lon="5.81336">
        <ele>1979</ele>
        <time>2022-07-30T10:49:03Z</time>
      </trkpt>
      <trkpt lat="45.37083" lon="5.81335">
        <ele>1980</ele>
        <time>2022-07-30T10:49:12Z</time>
      </trkpt>
      <trkpt lat="45.37068" lon="5.81319">
        <ele>1983</ele>
        <time>2022-07-30T10:49:48Z</time>
      </trkpt>
      <trkpt lat="45.37072" lon="5.81318">
        <ele>1984</ele>
        <time>2022-07-30T10:50:03Z</time>
      </trkpt>
      <trkpt lat="45.37073" lon="5.81311">
        <ele>1987</ele>
        <time>2022-07-30T10:50:18Z</time>
      </trkpt>
      <trkpt lat="45.37072" lon="5.81305">
        <ele>1989</ele>
        <time>2022-07-30T10:50:28Z</time>
      </trkpt>
      <trkpt lat="45.37074" lon="5.81299">
        <ele>1990</ele>
        <time>2022-07-30T10:50:43Z</time>
      </trkpt>
      <trkpt lat="45.37071" lon="5.81291">
        <ele>1993</ele>
        <time>2022-07-30T10:51:04Z</time>
      </trkpt>
      <trkpt lat="45.37075" lon="5.81289">
        <ele>1995</ele>
        <time>2022-07-30T10:51:19Z</time>
      </trkpt>
      <trkpt lat="45.37078" lon="5.81284">
        <ele>1998</ele>
        <time>2022-07-30T10:51:36Z</time>
      </trkpt>
      <trkpt lat="45.37074" lon="5.81278">
        <ele>2001</ele>
        <time>2022-07-30T10:51:53Z</time>
      </trkpt>
      <trkpt lat="45.37074" lon="5.81264">
        <ele>2004</ele>
        <time>2022-07-30T10:52:23Z</time>
      </trkpt>
      <trkpt lat="45.3707" lon="5.81258">
        <ele>2008</ele>
        <time>2022-07-30T10:52:48Z</time>
      </trkpt>
      <trkpt lat="45.37067" lon="5.81252">
        <ele>2011</ele>
        <time>2022-07-30T10:53:09Z</time>
      </trkpt>
      <trkpt lat="45.37066" lon="5.81243">
        <ele>2014</ele>
        <time>2022-07-30T10:53:36Z</time>
      </trkpt>
      <trkpt lat="45.37062" lon="5.81237">
        <ele>2015</ele>
        <time>2022-07-30T10:53:53Z</time>
      </trkpt>
      <trkpt lat="45.37063" lon="5.8123">
        <ele>2016</ele>
        <time>2022-07-30T10:54:13Z</time>
      </trkpt>
      <trkpt lat="45.37064" lon="5.81223">
        <ele>2019</ele>
        <time>2022-07-30T10:54:28Z</time>
      </trkpt>
      <trkpt lat="45.37058" lon="5.81216">
        <ele>2022</ele>
        <time>2022-07-30T10:54:43Z</time>
      </trkpt>
      <trkpt lat="45.37052" lon="5.81214">
        <ele>2023</ele>
        <time>2022-07-30T10:54:58Z</time>
      </trkpt>
      <trkpt lat="45.3705" lon="5.81209">
        <ele>2026</ele>
        <time>2022-07-30T10:55:18Z</time>
      </trkpt>
      <trkpt lat="45.37044" lon="5.81207">
        <ele>2028</ele>
        <time>2022-07-30T10:55:40Z</time>
      </trkpt>
      <trkpt lat="45.3704" lon="5.81202">
        <ele>2028</ele>
        <time>2022-07-30T10:55:57Z</time>
      </trkpt>
      <trkpt lat="45.37043" lon="5.81204">
        <ele>2025</ele>
        <time>2022-07-30T10:59:24Z</time>
      </trkpt>
      <trkpt lat="45.37048" lon="5.81206">
        <ele>2025</ele>
        <time>2022-07-30T10:59:50Z</time>
      </trkpt>
      <trkpt lat="45.37052" lon="5.81207">
        <ele>2023</ele>
        <time>2022-07-30T11:00:00Z</time>
      </trkpt>
      <trkpt lat="45.37055" lon="5.81211">
        <ele>2023</ele>
        <time>2022-07-30T11:00:10Z</time>
      </trkpt>
      <trkpt lat="45.3706" lon="5.81208">
        <ele>2021</ele>
        <time>2022-07-30T11:00:20Z</time>
      </trkpt>
      <trkpt lat="45.37065" lon="5.81207">
        <ele>2021</ele>
        <time>2022-07-30T11:00:25Z</time>
      </trkpt>
      <trkpt lat="45.37072" lon="5.81209">
        <ele>2021</ele>
        <time>2022-07-30T11:00:33Z</time>
      </trkpt>
      <trkpt lat="45.37077" lon="5.81208">
        <ele>2022</ele>
        <time>2022-07-30T11:00:40Z</time>
      </trkpt>
      <trkpt lat="45.37079" lon="5.81207">
        <ele>2021</ele>
        <time>2022-07-30T12:07:24Z</time>
      </trkpt>
      <trkpt lat="45.37079" lon="5.81198">
        <ele>2022</ele>
        <time>2022-07-30T12:07:29Z</time>
      </trkpt>
      <trkpt lat="45.37081" lon="5.81202">
        <ele>2023</ele>
        <time>2022-07-30T12:07:52Z</time>
      </trkpt>
      <trkpt lat="45.37082" lon="5.8121">
        <ele>2022</ele>
        <time>2022-07-30T12:08:00Z</time>
      </trkpt>
      <trkpt lat="45.37079" lon="5.81209">
        <ele>2022</ele>
        <time>2022-07-30T12:09:30Z</time>
      </trkpt>
      <trkpt lat="45.37073" lon="5.81207">
        <ele>2023</ele>
        <time>2022-07-30T12:09:40Z</time>
      </trkpt>
      <trkpt lat="45.37065" lon="5.81206">
        <ele>2024</ele>
        <time>2022-07-30T12:09:50Z</time>
      </trkpt>
      <trkpt lat="45.37058" lon="5.81206">
        <ele>2025</ele>
        <time>2022-07-30T12:10:01Z</time>
      </trkpt>
      <trkpt lat="45.37053" lon="5.81205">
        <ele>2026</ele>
        <time>2022-07-30T12:10:11Z</time>
      </trkpt>
      <trkpt lat="45.37047" lon="5.81204">
        <ele>2028</ele>
        <time>2022-07-30T12:10:21Z</time>
      </trkpt>
      <trkpt lat="45.37043" lon="5.81203">
        <ele>2027</ele>
        <time>2022-07-30T12:10:31Z</time>
      </trkpt>
      <trkpt lat="45.37038" lon="5.81205">
        <ele>2027</ele>
        <time>2022-07-30T12:13:01Z</time>
      </trkpt>
      <trkpt lat="45.37045" lon="5.81211">
        <ele>2027</ele>
        <time>2022-07-30T12:13:16Z</time>
      </trkpt>
      <trkpt lat="45.37048" lon="5.81206">
        <ele>2026</ele>
        <time>2022-07-30T12:13:20Z</time>
      </trkpt>
      <trkpt lat="45.37044" lon="5.81209">
        <ele>2027</ele>
        <time>2022-07-30T12:13:46Z</time>
      </trkpt>
      <trkpt lat="45.36423" lon="5.82541">
        <ele>1218</ele>
        <time>2022-07-30T14:27:22Z</time>
      </trkpt>
      <trkpt lat="45.3643" lon="5.82549">
        <ele>1219</ele>
        <time>2022-07-30T14:27:33Z</time>
      </trkpt>
      <trkpt lat="45.36437" lon="5.82547">
        <ele>1219</ele>
        <time>2022-07-30T14:27:43Z</time>
      </trkpt>
      <trkpt lat="45.36443" lon="5.8255">
        <ele>1218</ele>
        <time>2022-07-30T14:28:00Z</time>
      </trkpt>
      <trkpt lat="45.36453" lon="5.82553">
        <ele>1218</ele>
        <time>2022-07-30T14:28:09Z</time>
      </trkpt>
      <trkpt lat="45.36457" lon="5.82544">
        <ele>1219</ele>
        <time>2022-07-30T14:28:18Z</time>
      </trkpt>
      <trkpt lat="45.36467" lon="5.82549">
        <ele>1217</ele>
        <time>2022-07-30T14:28:31Z</time>
      </trkpt>
      <trkpt lat="45.36471" lon="5.82555">
        <ele>1217</ele>
        <time>2022-07-30T14:28:36Z</time>
      </trkpt>
      <trkpt lat="45.36475" lon="5.8255">
        <ele>1217</ele>
        <time>2022-07-30T14:28:42Z</time>
      </trkpt>
      <trkpt lat="45.36476" lon="5.82559">
        <ele>1217</ele>
        <time>2022-07-30T14:28:50Z</time>
      </trkpt>
      <trkpt lat="45.3647" lon="5.82564">
        <ele>1217</ele>
        <time>2022-07-30T14:28:58Z</time>
      </trkpt>
      <trkpt lat="45.36466" lon="5.82567">
        <ele>1217</ele>
        <time>2022-07-30T14:29:02Z</time>
      </trkpt>
      <trkpt lat="45.36465" lon="5.82579">
        <ele>1216</ele>
        <time>2022-07-30T14:29:15Z</time>
      </trkpt>
      <trkpt lat="45.36463" lon="5.82586">
        <ele>1216</ele>
        <time>2022-07-30T14:29:23Z</time>
      </trkpt>
      <trkpt lat="45.36467" lon="5.82598">
        <ele>1217</ele>
        <time>2022-07-30T14:29:33Z</time>
      </trkpt>
      <trkpt lat="45.36469" lon="5.82605">
        <ele>1219</ele>
        <time>2022-07-30T14:29:45Z</time>
      </trkpt>
      <trkpt lat="45.36467" lon="5.82618">
        <ele>1219</ele>
        <time>2022-07-30T14:29:55Z</time>
      </trkpt>
      <trkpt lat="45.36463" lon="5.82623">
        <ele>1218</ele>
        <time>2022-07-30T14:30:00Z</time>
      </trkpt>
      <trkpt lat="45.36458" lon="5.82636">
        <ele>1219</ele>
        <time>2022-07-30T14:30:14Z</time>
      </trkpt>
      <trkpt lat="45.36455" lon="5.82642">
        <ele>1219</ele>
        <time>2022-07-30T14:30:21Z</time>
      </trkpt>
      <trkpt lat="45.36453" lon="5.82649">
        <ele>1219</ele>
        <time>2022-07-30T14:30:25Z</time>
      </trkpt>
      <trkpt lat="45.36447" lon="5.8266">
        <ele>1220</ele>
        <time>2022-07-30T14:30:37Z</time>
      </trkpt>
      <trkpt lat="45.36444" lon="5.8267">
        <ele>1220</ele>
        <time>2022-07-30T14:30:47Z</time>
      </trkpt>
      <trkpt lat="45.36441" lon="5.82681">
        <ele>1219</ele>
        <time>2022-07-30T14:30:56Z</time>
      </trkpt>
      <trkpt lat="45.36439" lon="5.82687">
        <ele>1218</ele>
        <time>2022-07-30T14:31:00Z</time>
      </trkpt>
      <trkpt lat="45.36436" lon="5.82695">
        <ele>1219</ele>
        <time>2022-07-30T14:31:11Z</time>
      </trkpt>
      <trkpt lat="45.36437" lon="5.82702">
        <ele>1220</ele>
        <time>2022-07-30T14:31:15Z</time>
      </trkpt>
      <trkpt lat="45.36436" lon="5.82708">
        <ele>1219</ele>
        <time>2022-07-30T14:31:22Z</time>
      </trkpt>
      <trkpt lat="45.36435" lon="5.82715">
        <ele>1219</ele>
        <time>2022-07-30T14:31:27Z</time>
      </trkpt>
      <trkpt lat="45.36432" lon="5.82721">
        <ele>1219</ele>
        <time>2022-07-30T14:31:32Z</time>
      </trkpt>
      <trkpt lat="45.36432" lon="5.82729">
        <ele>1219</ele>
        <time>2022-07-30T14:31:40Z</time>
      </trkpt>
      <trkpt lat="45.3643" lon="5.82735">
        <ele>1218</ele>
        <time>2022-07-30T14:31:45Z</time>
      </trkpt>
      <trkpt lat="45.36428" lon="5.82742">
        <ele>1218</ele>
        <time>2022-07-30T14:31:49Z</time>
      </trkpt>
      <trkpt lat="45.36428" lon="5.8276">
        <ele>1218</ele>
        <time>2022-07-30T14:32:03Z</time>
      </trkpt>
      <trkpt lat="45.36425" lon="5.82766">
        <ele>1217</ele>
        <time>2022-07-30T14:32:08Z</time>
      </trkpt>
      <trkpt lat="45.36422" lon="5.82778">
        <ele>1216</ele>
        <time>2022-07-30T14:32:20Z</time>
      </trkpt>
      <trkpt lat="45.36421" lon="5.82785">
        <ele>1216</ele>
        <time>2022-07-30T14:32:25Z</time>
      </trkpt>
      <trkpt lat="45.36416" lon="5.82788">
        <ele>1217</ele>
        <time>2022-07-30T14:32:34Z</time>
      </trkpt>
      <trkpt lat="45.36416" lon="5.82797">
        <ele>1217</ele>
        <time>2022-07-30T14:32:41Z</time>
      </trkpt>
      <trkpt lat="45.36415" lon="5.82805">
        <ele>1218</ele>
        <time>2022-07-30T14:32:47Z</time>
      </trkpt>
      <trkpt lat="45.36409" lon="5.8281">
        <ele>1218</ele>
        <time>2022-07-30T14:32:56Z</time>
      </trkpt>
      <trkpt lat="45.36408" lon="5.82817">
        <ele>1217</ele>
        <time>2022-07-30T14:33:02Z</time>
      </trkpt>
      <trkpt lat="45.36407" lon="5.82825">
        <ele>1217</ele>
        <time>2022-07-30T14:33:06Z</time>
      </trkpt>
      <trkpt lat="45.36412" lon="5.82845">
        <ele>1220</ele>
        <time>2022-07-30T14:33:29Z</time>
      </trkpt>
      <trkpt lat="45.36414" lon="5.82852">
        <ele>1220</ele>
        <time>2022-07-30T14:33:34Z</time>
      </trkpt>
      <trkpt lat="45.36415" lon="5.82861">
        <ele>1220</ele>
        <time>2022-07-30T14:33:42Z</time>
      </trkpt>
      <trkpt lat="45.36415" lon="5.82869">
        <ele>1220</ele>
        <time>2022-07-30T14:33:48Z</time>
      </trkpt>
      <trkpt lat="45.36415" lon="5.82881">
        <ele>1219</ele>
        <time>2022-07-30T14:33:53Z</time>
      </trkpt>
      <trkpt lat="45.36422" lon="5.82878">
        <ele>1219</ele>
        <time>2022-07-30T14:33:59Z</time>
      </trkpt>
      <trkpt lat="45.36425" lon="5.82887">
        <ele>1219</ele>
        <time>2022-07-30T14:34:09Z</time>
      </trkpt>
      <trkpt lat="45.36431" lon="5.82891">
        <ele>1218</ele>
        <time>2022-07-30T14:34:13Z</time>
      </trkpt>
      <trkpt lat="45.36444" lon="5.82904">
        <ele>1219</ele>
        <time>2022-07-30T14:34:29Z</time>
      </trkpt>
      <trkpt lat="45.36457" lon="5.8291">
        <ele>1219</ele>
        <time>2022-07-30T14:34:44Z</time>
      </trkpt>
      <trkpt lat="45.36463" lon="5.8291">
        <ele>1220</ele>
        <time>2022-07-30T14:34:54Z</time>
      </trkpt>
      <trkpt lat="45.36468" lon="5.82916">
        <ele>1220</ele>
        <time>2022-07-30T14:34:58Z</time>
      </trkpt>
      <trkpt lat="45.36478" lon="5.82921">
        <ele>1219</ele>
        <time>2022-07-30T14:35:12Z</time>
      </trkpt>
      <trkpt lat="45.36481" lon="5.82926">
        <ele>1219</ele>
        <time>2022-07-30T14:35:24Z</time>
      </trkpt>
      <trkpt lat="45.36483" lon="5.82935">
        <ele>1221</ele>
        <time>2022-07-30T14:36:36Z</time>
      </trkpt>
      <trkpt lat="45.36485" lon="5.82943">
        <ele>1220</ele>
        <time>2022-07-30T14:36:58Z</time>
      </trkpt>
      <trkpt lat="45.36491" lon="5.82955">
        <ele>1219</ele>
        <time>2022-07-30T14:37:07Z</time>
      </trkpt>
      <trkpt lat="45.36491" lon="5.82963">
        <ele>1219</ele>
        <time>2022-07-30T14:37:11Z</time>
      </trkpt>
      <trkpt lat="45.36488" lon="5.82964">
        <ele>1215</ele>
        <time>2022-07-30T14:38:18Z</time>
      </trkpt>
      <trkpt lat="45.36483" lon="5.82966">
        <ele>1215</ele>
        <time>2022-07-30T14:38:24Z</time>
      </trkpt>
      <trkpt lat="45.36488" lon="5.82971">
        <ele>1217</ele>
        <time>2022-07-30T14:39:17Z</time>
      </trkpt>
      <trkpt lat="45.36489" lon="5.82978">
        <ele>1218</ele>
        <time>2022-07-30T14:40:08Z</time>
      </trkpt>
      <trkpt lat="45.36491" lon="5.82979">
        <ele>1216</ele>
        <time>2022-07-30T14:40:31Z</time>
      </trkpt>
      <trkpt lat="45.36491" lon="5.82987">
        <ele>1216</ele>
        <time>2022-07-30T14:40:38Z</time>
      </trkpt>
      <trkpt lat="45.36487" lon="5.82998">
        <ele>1215</ele>
        <time>2022-07-30T14:40:52Z</time>
      </trkpt>
      <trkpt lat="45.36489" lon="5.83009">
        <ele>1214</ele>
        <time>2022-07-30T14:41:13Z</time>
      </trkpt>
      <trkpt lat="45.36495" lon="5.83008">
        <ele>1213</ele>
        <time>2022-07-30T14:41:20Z</time>
      </trkpt>
      <trkpt lat="45.36497" lon="5.83017">
        <ele>1212</ele>
        <time>2022-07-30T14:41:31Z</time>
      </trkpt>
      <trkpt lat="45.36497" lon="5.83028">
        <ele>1211</ele>
        <time>2022-07-30T14:41:36Z</time>
      </trkpt>
      <trkpt lat="45.36503" lon="5.83035">
        <ele>1208</ele>
        <time>2022-07-30T14:41:50Z</time>
      </trkpt>
      <trkpt lat="45.36503" lon="5.83068">
        <ele>1202</ele>
        <time>2022-07-30T14:42:15Z</time>
      </trkpt>
      <trkpt lat="45.36507" lon="5.83073">
        <ele>1201</ele>
        <time>2022-07-30T14:42:20Z</time>
      </trkpt>
      <trkpt lat="45.36511" lon="5.83094">
        <ele>1196</ele>
        <time>2022-07-30T14:42:36Z</time>
      </trkpt>
      <trkpt lat="45.36516" lon="5.83102">
        <ele>1194</ele>
        <time>2022-07-30T14:42:46Z</time>
      </trkpt>
      <trkpt lat="45.36521" lon="5.83122">
        <ele>1191</ele>
        <time>2022-07-30T14:43:02Z</time>
      </trkpt>
      <trkpt lat="45.36528" lon="5.83126">
        <ele>1190</ele>
        <time>2022-07-30T14:43:07Z</time>
      </trkpt>
      <trkpt lat="45.36531" lon="5.83137">
        <ele>1187</ele>
        <time>2022-07-30T14:43:19Z</time>
      </trkpt>
      <trkpt lat="45.36532" lon="5.8315">
        <ele>1184</ele>
        <time>2022-07-30T14:43:31Z</time>
      </trkpt>
      <trkpt lat="45.36535" lon="5.83157">
        <ele>1183</ele>
        <time>2022-07-30T14:43:37Z</time>
      </trkpt>
      <trkpt lat="45.36534" lon="5.83164">
        <ele>1181</ele>
        <time>2022-07-30T14:43:42Z</time>
      </trkpt>
      <trkpt lat="45.36535" lon="5.83175">
        <ele>1180</ele>
        <time>2022-07-30T14:43:47Z</time>
      </trkpt>
      <trkpt lat="45.36538" lon="5.83181">
        <ele>1180</ele>
        <time>2022-07-30T14:43:50Z</time>
      </trkpt>
      <trkpt lat="45.36542" lon="5.83186">
        <ele>1179</ele>
        <time>2022-07-30T14:43:55Z</time>
      </trkpt>
      <trkpt lat="45.36543" lon="5.83197">
        <ele>1177</ele>
        <time>2022-07-30T14:44:03Z</time>
      </trkpt>
      <trkpt lat="45.36541" lon="5.8321">
        <ele>1176</ele>
        <time>2022-07-30T14:44:11Z</time>
      </trkpt>
      <trkpt lat="45.36544" lon="5.83218">
        <ele>1175</ele>
        <time>2022-07-30T14:44:15Z</time>
      </trkpt>
      <trkpt lat="45.36545" lon="5.83229">
        <ele>1174</ele>
        <time>2022-07-30T14:44:21Z</time>
      </trkpt>
      <trkpt lat="45.36548" lon="5.83236">
        <ele>1173</ele>
        <time>2022-07-30T14:44:27Z</time>
      </trkpt>
      <trkpt lat="45.36557" lon="5.83241">
        <ele>1171</ele>
        <time>2022-07-30T14:44:36Z</time>
      </trkpt>
      <trkpt lat="45.36563" lon="5.83257">
        <ele>1169</ele>
        <time>2022-07-30T14:44:46Z</time>
      </trkpt>
      <trkpt lat="45.36572" lon="5.83259">
        <ele>1168</ele>
        <time>2022-07-30T14:44:53Z</time>
      </trkpt>
      <trkpt lat="45.36576" lon="5.83269">
        <ele>1167</ele>
        <time>2022-07-30T14:44:57Z</time>
      </trkpt>
      <trkpt lat="45.36583" lon="5.83272">
        <ele>1167</ele>
        <time>2022-07-30T14:45:04Z</time>
      </trkpt>
      <trkpt lat="45.36593" lon="5.83289">
        <ele>1164</ele>
        <time>2022-07-30T14:45:17Z</time>
      </trkpt>
      <trkpt lat="45.36596" lon="5.83291">
        <ele>1163</ele>
        <time>2022-07-30T14:45:22Z</time>
      </trkpt>
      <trkpt lat="45.36601" lon="5.83295">
        <ele>1162</ele>
        <time>2022-07-30T14:45:26Z</time>
      </trkpt>
      <trkpt lat="45.36626" lon="5.83337">
        <ele>1156</ele>
        <time>2022-07-30T14:45:59Z</time>
      </trkpt>
      <trkpt lat="45.36628" lon="5.83343">
        <ele>1156</ele>
        <time>2022-07-30T14:46:04Z</time>
      </trkpt>
      <trkpt lat="45.36625" lon="5.83346">
        <ele>1156</ele>
        <time>2022-07-30T14:46:08Z</time>
      </trkpt>
      <trkpt lat="45.36624" lon="5.83355">
        <ele>1155</ele>
        <time>2022-07-30T14:46:13Z</time>
      </trkpt>
      <trkpt lat="45.36615" lon="5.83375">
        <ele>1154</ele>
        <time>2022-07-30T14:46:29Z</time>
      </trkpt>
      <trkpt lat="45.36606" lon="5.83382">
        <ele>1152</ele>
        <time>2022-07-30T14:46:37Z</time>
      </trkpt>
      <trkpt lat="45.36584" lon="5.83386">
        <ele>1150</ele>
        <time>2022-07-30T14:46:57Z</time>
      </trkpt>
      <trkpt lat="45.36579" lon="5.83389">
        <ele>1150</ele>
        <time>2022-07-30T14:47:02Z</time>
      </trkpt>
      <trkpt lat="45.36566" lon="5.83393">
        <ele>1149</ele>
        <time>2022-07-30T14:47:14Z</time>
      </trkpt>
      <trkpt lat="45.36562" lon="5.83396">
        <ele>1148</ele>
        <time>2022-07-30T14:47:19Z</time>
      </trkpt>
      <trkpt lat="45.36559" lon="5.83405">
        <ele>1147</ele>
        <time>2022-07-30T14:47:52Z</time>
      </trkpt>
      <trkpt lat="45.36554" lon="5.83401">
        <ele>1146</ele>
        <time>2022-07-30T14:48:49Z</time>
      </trkpt>
      <trkpt lat="45.36548" lon="5.83405">
        <ele>1145</ele>
        <time>2022-07-30T14:48:56Z</time>
      </trkpt>
      <trkpt lat="45.36544" lon="5.83407">
        <ele>1145</ele>
        <time>2022-07-30T14:49:01Z</time>
      </trkpt>
      <trkpt lat="45.36542" lon="5.834">
        <ele>1144</ele>
        <time>2022-07-30T14:49:11Z</time>
      </trkpt>
      <trkpt lat="45.36535" lon="5.83404">
        <ele>1145</ele>
        <time>2022-07-30T14:49:35Z</time>
      </trkpt>
      <trkpt lat="45.36535" lon="5.83408">
        <ele>1144</ele>
        <time>2022-07-30T14:50:12Z</time>
      </trkpt>
      <trkpt lat="45.36542" lon="5.8341">
        <ele>1144</ele>
        <time>2022-07-30T14:50:22Z</time>
      </trkpt>
      <trkpt lat="45.36538" lon="5.83408">
        <ele>1144</ele>
        <time>2022-07-30T14:50:51Z</time>
      </trkpt>
      <trkpt lat="45.36539" lon="5.83413">
        <ele>1143</ele>
        <time>2022-07-30T14:51:35Z</time>
      </trkpt>
      <trkpt lat="45.36536" lon="5.83407">
        <ele>1143</ele>
        <time>2022-07-30T14:52:27Z</time>
      </trkpt>
      <trkpt lat="45.36536" lon="5.83398">
        <ele>1143</ele>
        <time>2022-07-30T14:52:35Z</time>
      </trkpt>
      <trkpt lat="45.36527" lon="5.83397">
        <ele>1143</ele>
        <time>2022-07-30T14:52:48Z</time>
      </trkpt>
      <trkpt lat="45.36415" lon="5.83304">
        <ele>1138</ele>
        <time>2022-07-30T14:53:03Z</time>
      </trkpt>
      <trkpt lat="45.3639" lon="5.83269">
        <ele>1135</ele>
        <time>2022-07-30T14:53:06Z</time>
      </trkpt>
      <trkpt lat="45.36381" lon="5.83248">
        <ele>1133</ele>
        <time>2022-07-30T14:53:08Z</time>
      </trkpt>
      <trkpt lat="45.36368" lon="5.83194">
        <ele>1130</ele>
        <time>2022-07-30T14:53:12Z</time>
      </trkpt>
      <trkpt lat="45.36204" lon="5.83014">
        <ele>1115</ele>
        <time>2022-07-30T14:53:30Z</time>
      </trkpt>
      <trkpt lat="45.3618" lon="5.83002">
        <ele>1112</ele>
        <time>2022-07-30T14:53:32Z</time>
      </trkpt>
      <trkpt lat="45.36106" lon="5.82988">
        <ele>1106</ele>
        <time>2022-07-30T14:53:38Z</time>
      </trkpt>
      <trkpt lat="45.36093" lon="5.82987">
        <ele>1106</ele>
        <time>2022-07-30T14:53:39Z</time>
      </trkpt>
      <trkpt lat="45.36028" lon="5.82978">
        <ele>1098</ele>
        <time>2022-07-30T14:53:44Z</time>
      </trkpt>
      <trkpt lat="45.3598" lon="5.82964">
        <ele>1091</ele>
        <time>2022-07-30T14:53:48Z</time>
      </trkpt>
      <trkpt lat="45.35951" lon="5.82969">
        <ele>1087</ele>
        <time>2022-07-30T14:53:51Z</time>
      </trkpt>
      <trkpt lat="45.35941" lon="5.82969">
        <ele>1085</ele>
        <time>2022-07-30T14:53:52Z</time>
      </trkpt>
      <trkpt lat="45.35932" lon="5.82966">
        <ele>1085</ele>
        <time>2022-07-30T14:53:53Z</time>
      </trkpt>
      <trkpt lat="45.35921" lon="5.82967">
        <ele>1083</ele>
        <time>2022-07-30T14:53:54Z</time>
      </trkpt>
      <trkpt lat="45.35882" lon="5.82998">
        <ele>1076</ele>
        <time>2022-07-30T14:53:59Z</time>
      </trkpt>
      <trkpt lat="45.35874" lon="5.82996">
        <ele>1075</ele>
        <time>2022-07-30T14:54:00Z</time>
      </trkpt>
      <trkpt lat="45.35864" lon="5.82991">
        <ele>1073</ele>
        <time>2022-07-30T14:54:01Z</time>
      </trkpt>
      <trkpt lat="45.35829" lon="5.82944">
        <ele>1067</ele>
        <time>2022-07-30T14:54:06Z</time>
      </trkpt>
      <trkpt lat="45.3582" lon="5.82933">
        <ele>1067</ele>
        <time>2022-07-30T14:54:07Z</time>
      </trkpt>
      <trkpt lat="45.35803" lon="5.82887">
        <ele>1064</ele>
        <time>2022-07-30T14:54:10Z</time>
      </trkpt>
      <trkpt lat="45.35796" lon="5.82852">
        <ele>1061</ele>
        <time>2022-07-30T14:54:12Z</time>
      </trkpt>
      <trkpt lat="45.35786" lon="5.82767">
        <ele>1053</ele>
        <time>2022-07-30T14:54:17Z</time>
      </trkpt>
      <trkpt lat="45.35767" lon="5.82724">
        <ele>1049</ele>
        <time>2022-07-30T14:54:20Z</time>
      </trkpt>
      <trkpt lat="45.35759" lon="5.82711">
        <ele>1048</ele>
        <time>2022-07-30T14:54:21Z</time>
      </trkpt>
      <trkpt lat="45.35751" lon="5.82697">
        <ele>1048</ele>
        <time>2022-07-30T14:54:22Z</time>
      </trkpt>
      <trkpt lat="45.35725" lon="5.82658">
        <ele>1044</ele>
        <time>2022-07-30T14:54:25Z</time>
      </trkpt>
      <trkpt lat="45.35708" lon="5.82638">
        <ele>1041</ele>
        <time>2022-07-30T14:54:27Z</time>
      </trkpt>
      <trkpt lat="45.35703" lon="5.82626">
        <ele>1039</ele>
        <time>2022-07-30T14:54:28Z</time>
      </trkpt>
      <trkpt lat="45.35701" lon="5.82612">
        <ele>1038</ele>
        <time>2022-07-30T14:54:29Z</time>
      </trkpt>
      <trkpt lat="45.35703" lon="5.82575">
        <ele>1034</ele>
        <time>2022-07-30T14:54:32Z</time>
      </trkpt>
      <trkpt lat="45.35702" lon="5.82564">
        <ele>1032</ele>
        <time>2022-07-30T14:54:33Z</time>
      </trkpt>
      <trkpt lat="45.35697" lon="5.82556">
        <ele>1031</ele>
        <time>2022-07-30T14:54:34Z</time>
      </trkpt>
      <trkpt lat="45.35691" lon="5.82551">
        <ele>1030</ele>
        <time>2022-07-30T14:54:35Z</time>
      </trkpt>
      <trkpt lat="45.35682" lon="5.82551">
        <ele>1030</ele>
        <time>2022-07-30T14:54:36Z</time>
      </trkpt>
      <trkpt lat="45.35664" lon="5.82551">
        <ele>1028</ele>
        <time>2022-07-30T14:54:38Z</time>
      </trkpt>
      <trkpt lat="45.35644" lon="5.82543">
        <ele>1026</ele>
        <time>2022-07-30T14:54:40Z</time>
      </trkpt>
      <trkpt lat="45.35585" lon="5.82497">
        <ele>1019</ele>
        <time>2022-07-30T14:54:46Z</time>
      </trkpt>
      <trkpt lat="45.35563" lon="5.82484">
        <ele>1017</ele>
        <time>2022-07-30T14:54:48Z</time>
      </trkpt>
      <trkpt lat="45.35552" lon="5.82474">
        <ele>1016</ele>
        <time>2022-07-30T14:54:49Z</time>
      </trkpt>
      <trkpt lat="45.35542" lon="5.82464">
        <ele>1016</ele>
        <time>2022-07-30T14:54:50Z</time>
      </trkpt>
      <trkpt lat="45.35426" lon="5.82343">
        <ele>1000</ele>
        <time>2022-07-30T14:55:01Z</time>
      </trkpt>
      <trkpt lat="45.35402" lon="5.82304">
        <ele>996</ele>
        <time>2022-07-30T14:55:04Z</time>
      </trkpt>
      <trkpt lat="45.35394" lon="5.82291">
        <ele>996</ele>
        <time>2022-07-30T14:55:05Z</time>
      </trkpt>
      <trkpt lat="45.35378" lon="5.82268">
        <ele>993</ele>
        <time>2022-07-30T14:55:07Z</time>
      </trkpt>
      <trkpt lat="45.35353" lon="5.82254">
        <ele>990</ele>
        <time>2022-07-30T14:55:09Z</time>
      </trkpt>
      <trkpt lat="45.35303" lon="5.82243">
        <ele>985</ele>
        <time>2022-07-30T14:55:13Z</time>
      </trkpt>
      <trkpt lat="45.35291" lon="5.82237">
        <ele>983</ele>
        <time>2022-07-30T14:55:14Z</time>
      </trkpt>
      <trkpt lat="45.35258" lon="5.82201">
        <ele>978</ele>
        <time>2022-07-30T14:55:18Z</time>
      </trkpt>
      <trkpt lat="45.35249" lon="5.82194">
        <ele>978</ele>
        <time>2022-07-30T14:55:19Z</time>
      </trkpt>
      <trkpt lat="45.35227" lon="5.82185">
        <ele>976</ele>
        <time>2022-07-30T14:55:21Z</time>
      </trkpt>
      <trkpt lat="45.35143" lon="5.82068">
        <ele>965</ele>
        <time>2022-07-30T14:55:30Z</time>
      </trkpt>
      <trkpt lat="45.35128" lon="5.82038">
        <ele>962</ele>
        <time>2022-07-30T14:55:32Z</time>
      </trkpt>
      <trkpt lat="45.35122" lon="5.82021">
        <ele>962</ele>
        <time>2022-07-30T14:55:33Z</time>
      </trkpt>
      <trkpt lat="45.351" lon="5.81964">
        <ele>956</ele>
        <time>2022-07-30T14:55:37Z</time>
      </trkpt>
      <trkpt lat="45.35092" lon="5.81955">
        <ele>955</ele>
        <time>2022-07-30T14:55:38Z</time>
      </trkpt>
      <trkpt lat="45.35081" lon="5.81949">
        <ele>954</ele>
        <time>2022-07-30T14:55:39Z</time>
      </trkpt>
      <trkpt lat="45.34991" lon="5.81943">
        <ele>947</ele>
        <time>2022-07-30T14:55:47Z</time>
      </trkpt>
      <trkpt lat="45.3498" lon="5.81938">
        <ele>947</ele>
        <time>2022-07-30T14:55:48Z</time>
      </trkpt>
      <trkpt lat="45.34883" lon="5.81896">
        <ele>942</ele>
        <time>2022-07-30T14:55:56Z</time>
      </trkpt>
      <trkpt lat="45.34864" lon="5.81874">
        <ele>940</ele>
        <time>2022-07-30T14:55:58Z</time>
      </trkpt>
      <trkpt lat="45.34774" lon="5.81723">
        <ele>931</ele>
        <time>2022-07-30T14:56:09Z</time>
      </trkpt>
      <trkpt lat="45.34753" lon="5.81707">
        <ele>929</ele>
        <time>2022-07-30T14:56:11Z</time>
      </trkpt>
      <trkpt lat="45.34709" lon="5.81693">
        <ele>924</ele>
        <time>2022-07-30T14:56:15Z</time>
      </trkpt>
      <trkpt lat="45.34695" lon="5.81691">
        <ele>924</ele>
        <time>2022-07-30T14:56:16Z</time>
      </trkpt>
      <trkpt lat="45.34656" lon="5.81682">
        <ele>921</ele>
        <time>2022-07-30T14:56:20Z</time>
      </trkpt>
      <trkpt lat="45.34593" lon="5.81692">
        <ele>918</ele>
        <time>2022-07-30T14:56:27Z</time>
      </trkpt>
      <trkpt lat="45.34588" lon="5.8169">
        <ele>918</ele>
        <time>2022-07-30T14:56:28Z</time>
      </trkpt>
      <trkpt lat="45.34582" lon="5.81684">
        <ele>917</ele>
        <time>2022-07-30T14:56:30Z</time>
      </trkpt>
      <trkpt lat="45.34582" lon="5.8167">
        <ele>916</ele>
        <time>2022-07-30T14:56:32Z</time>
      </trkpt>
      <trkpt lat="45.34585" lon="5.81662">
        <ele>916</ele>
        <time>2022-07-30T14:56:33Z</time>
      </trkpt>
      <trkpt lat="45.34586" lon="5.81645">
        <ele>915</ele>
        <time>2022-07-30T14:56:35Z</time>
      </trkpt>
      <trkpt lat="45.34586" lon="5.81636">
        <ele>915</ele>
        <time>2022-07-30T14:56:36Z</time>
      </trkpt>
      <trkpt lat="45.3458" lon="5.8163">
        <ele>914</ele>
        <time>2022-07-30T14:56:37Z</time>
      </trkpt>
      <trkpt lat="45.34575" lon="5.81626">
        <ele>913</ele>
        <time>2022-07-30T14:56:38Z</time>
      </trkpt>
      <trkpt lat="45.34443" lon="5.81598">
        <ele>906</ele>
        <time>2022-07-30T14:56:53Z</time>
      </trkpt>
      <trkpt lat="45.3442" lon="5.8158">
        <ele>905</ele>
        <time>2022-07-30T14:56:56Z</time>
      </trkpt>
      <trkpt lat="45.34413" lon="5.81573">
        <ele>905</ele>
        <time>2022-07-30T14:56:57Z</time>
      </trkpt>
      <trkpt lat="45.34406" lon="5.81563">
        <ele>904</ele>
        <time>2022-07-30T14:56:58Z</time>
      </trkpt>
      <trkpt lat="45.34346" lon="5.81495">
        <ele>899</ele>
        <time>2022-07-30T14:57:10Z</time>
      </trkpt>
      <trkpt lat="45.34341" lon="5.81474">
        <ele>897</ele>
        <time>2022-07-30T14:57:15Z</time>
      </trkpt>
      <trkpt lat="45.34361" lon="5.81455">
        <ele>897</ele>
        <time>2022-07-30T14:57:41Z</time>
      </trkpt>
      <trkpt lat="45.3436" lon="5.81447">
        <ele>897</ele>
        <time>2022-07-30T14:57:44Z</time>
      </trkpt>
      <trkpt lat="45.3435" lon="5.81451">
        <ele>895</ele>
        <time>2022-07-30T15:00:20Z</time>
      </trkpt>
      <trkpt lat="45.34343" lon="5.81454">
        <ele>895</ele>
        <time>2022-07-30T15:00:25Z</time>
      </trkpt>
      <trkpt lat="45.34341" lon="5.81462">
        <ele>895</ele>
        <time>2022-07-30T15:00:31Z</time>
      </trkpt>
      <trkpt lat="45.34342" lon="5.81461">
        <ele>895</ele>
        <time>2022-07-30T15:00:50Z</time>
      </trkpt>
      <trkpt lat="45.3434" lon="5.81455">
        <ele>895</ele>
        <time>2022-07-30T15:00:53Z</time>
      </trkpt>
      <trkpt lat="45.3434" lon="5.81437">
        <ele>894</ele>
        <time>2022-07-30T15:01:02Z</time>
      </trkpt>
      <trkpt lat="45.3434" lon="5.8143">
        <ele>894</ele>
        <time>2022-07-30T15:01:06Z</time>
      </trkpt>
      <trkpt lat="45.34336" lon="5.81425">
        <ele>894</ele>
        <time>2022-07-30T15:01:09Z</time>
      </trkpt>
      <trkpt lat="45.3433" lon="5.81425">
        <ele>894</ele>
        <time>2022-07-30T15:01:12Z</time>
      </trkpt>
      <trkpt lat="45.34325" lon="5.81422">
        <ele>894</ele>
        <time>2022-07-30T15:01:15Z</time>
      </trkpt>
      <trkpt lat="45.34321" lon="5.81425">
        <ele>893</ele>
        <time>2022-07-30T15:01:18Z</time>
      </trkpt>
      <trkpt lat="45.34315" lon="5.81429">
        <ele>893</ele>
        <time>2022-07-30T15:01:21Z</time>
      </trkpt>
      <trkpt lat="45.34308" lon="5.81439">
        <ele>893</ele>
        <time>2022-07-30T15:01:28Z</time>
      </trkpt>
      <trkpt lat="45.34304" lon="5.81441">
        <ele>893</ele>
        <time>2022-07-30T15:01:31Z</time>
      </trkpt>
      <trkpt lat="45.343" lon="5.81445">
        <ele>893</ele>
        <time>2022-07-30T15:01:35Z</time>
      </trkpt>
      <trkpt lat="45.34297" lon="5.81449">
        <ele>893</ele>
        <time>2022-07-30T15:01:38Z</time>
      </trkpt>
      <trkpt lat="45.34292" lon="5.81448">
        <ele>893</ele>
        <time>2022-07-30T15:01:42Z</time>
      </trkpt>
      <trkpt lat="45.34287" lon="5.8145">
        <ele>893</ele>
        <time>2022-07-30T15:01:46Z</time>
      </trkpt>
      <trkpt lat="45.34279" lon="5.81457">
        <ele>893</ele>
        <time>2022-07-30T15:01:53Z</time>
      </trkpt>
      <trkpt lat="45.3429" lon="5.81458">
        <ele>889</ele>
        <time>2022-07-30T15:09:31Z</time>
      </trkpt>
      <trkpt lat="45.34294" lon="5.81457">
        <ele>889</ele>
        <time>2022-07-30T15:09:35Z</time>
      </trkpt>
      <trkpt lat="45.34298" lon="5.81453">
        <ele>889</ele>
        <time>2022-07-30T15:09:38Z</time>
      </trkpt>
      <trkpt lat="45.34305" lon="5.81451">
        <ele>889</ele>
        <time>2022-07-30T15:09:45Z</time>
      </trkpt>
      <trkpt lat="45.34307" lon="5.81446">
        <ele>890</ele>
        <time>2022-07-30T15:09:48Z</time>
      </trkpt>
      <trkpt lat="45.34307" lon="5.8144">
        <ele>889</ele>
        <time>2022-07-30T15:09:51Z</time>
      </trkpt>
      <trkpt lat="45.3431" lon="5.81435">
        <ele>889</ele>
        <time>2022-07-30T15:09:54Z</time>
      </trkpt>
      <trkpt lat="45.34314" lon="5.81432">
        <ele>889</ele>
        <time>2022-07-30T15:09:57Z</time>
      </trkpt>
      <trkpt lat="45.34318" lon="5.81429">
        <ele>889</ele>
        <time>2022-07-30T15:10:01Z</time>
      </trkpt>
      <trkpt lat="45.34327" lon="5.81427">
        <ele>889</ele>
        <time>2022-07-30T15:10:09Z</time>
      </trkpt>
      <trkpt lat="45.34332" lon="5.81428">
        <ele>890</ele>
        <time>2022-07-30T15:10:13Z</time>
      </trkpt>
      <trkpt lat="45.34336" lon="5.81433">
        <ele>890</ele>
        <time>2022-07-30T15:10:18Z</time>
      </trkpt>
      <trkpt lat="45.34337" lon="5.81456">
        <ele>890</ele>
        <time>2022-07-30T15:10:32Z</time>
      </trkpt>
      <trkpt lat="45.3434" lon="5.81464">
        <ele>890</ele>
        <time>2022-07-30T15:10:38Z</time>
      </trkpt>
      <trkpt lat="45.34345" lon="5.81467">
        <ele>890</ele>
        <time>2022-07-30T15:10:41Z</time>
      </trkpt>
    </trkseg>
  </trk>
  <trk>
    <name><![CDATA[23 juil. 2022 à 11:00:53]]></name>
    <cmt><![CDATA[23 juil. 2022 à 11:00:53]]></cmt>
    <trkseg>
      <trkpt lat="45.61302" lon="5.97324">
        <ele>1384</ele>
        <time>2022-07-23T09:00:53Z</time>
      </trkpt>
      <trkpt lat="45.61306" lon="5.97326">
        <ele>1385</ele>
        <time>2022-07-23T09:01:08Z</time>
      </trkpt>
      <trkpt lat="45.61308" lon="5.97332">
        <ele>1385</ele>
        <time>2022-07-23T09:01:13Z</time>
      </trkpt>
      <trkpt lat="45.61314" lon="5.97327">
        <ele>1388</ele>
        <time>2022-07-23T09:01:34Z</time>
      </trkpt>
      <trkpt lat="45.61321" lon="5.97328">
        <ele>1391</ele>
        <time>2022-07-23T09:01:58Z</time>
      </trkpt>
      <trkpt lat="45.61327" lon="5.97325">
        <ele>1393</ele>
        <time>2022-07-23T09:02:05Z</time>
      </trkpt>
      <trkpt lat="45.61329" lon="5.97317">
        <ele>1394</ele>
        <time>2022-07-23T09:02:16Z</time>
      </trkpt>
      <trkpt lat="45.61327" lon="5.9731">
        <ele>1395</ele>
        <time>2022-07-23T09:02:47Z</time>
      </trkpt>
      <trkpt lat="45.61334" lon="5.97313">
        <ele>1398</ele>
        <time>2022-07-23T09:03:17Z</time>
      </trkpt>
      <trkpt lat="45.6134" lon="5.9731">
        <ele>1401</ele>
        <time>2022-07-23T09:03:43Z</time>
      </trkpt>
      <trkpt lat="45.61342" lon="5.97302">
        <ele>1403</ele>
        <time>2022-07-23T09:03:54Z</time>
      </trkpt>
      <trkpt lat="45.61348" lon="5.97297">
        <ele>1404</ele>
        <time>2022-07-23T09:03:58Z</time>
      </trkpt>
      <trkpt lat="45.61348" lon="5.97277">
        <ele>1409</ele>
        <time>2022-07-23T09:04:36Z</time>
      </trkpt>
      <trkpt lat="45.61349" lon="5.97266">
        <ele>1411</ele>
        <time>2022-07-23T09:04:56Z</time>
      </trkpt>
      <trkpt lat="45.61351" lon="5.97259">
        <ele>1414</ele>
        <time>2022-07-23T09:05:11Z</time>
      </trkpt>
      <trkpt lat="45.61346" lon="5.97236">
        <ele>1420</ele>
        <time>2022-07-23T09:05:48Z</time>
      </trkpt>
      <trkpt lat="45.61345" lon="5.97224">
        <ele>1424</ele>
        <time>2022-07-23T09:06:19Z</time>
      </trkpt>
      <trkpt lat="45.61347" lon="5.97211">
        <ele>1426</ele>
        <time>2022-07-23T09:06:32Z</time>
      </trkpt>
      <trkpt lat="45.61359" lon="5.97197">
        <ele>1427</ele>
        <time>2022-07-23T09:07:04Z</time>
      </trkpt>
      <trkpt lat="45.61356" lon="5.97166">
        <ele>1430</ele>
        <time>2022-07-23T09:07:19Z</time>
      </trkpt>
      <trkpt lat="45.61349" lon="5.97156">
        <ele>1439</ele>
        <time>2022-07-23T09:08:09Z</time>
      </trkpt>
      <trkpt lat="45.61347" lon="5.97142">
        <ele>1440</ele>
        <time>2022-07-23T09:08:23Z</time>
      </trkpt>
      <trkpt lat="45.61351" lon="5.97134">
        <ele>1443</ele>
        <time>2022-07-23T09:08:40Z</time>
      </trkpt>
      <trkpt lat="45.6136" lon="5.97128">
        <ele>1446</ele>
        <time>2022-07-23T09:09:06Z</time>
      </trkpt>
      <trkpt lat="45.61371" lon="5.97116">
        <ele>1448</ele>
        <time>2022-07-23T09:09:17Z</time>
      </trkpt>
      <trkpt lat="45.61375" lon="5.97109">
        <ele>1448</ele>
        <time>2022-07-23T09:09:26Z</time>
      </trkpt>
      <trkpt lat="45.61383" lon="5.97103">
        <ele>1449</ele>
        <time>2022-07-23T09:09:31Z</time>
      </trkpt>
      <trkpt lat="45.6138" lon="5.97075">
        <ele>1451</ele>
        <time>2022-07-23T09:10:04Z</time>
      </trkpt>
      <trkpt lat="45.61381" lon="5.97066">
        <ele>1452</ele>
        <time>2022-07-23T09:10:12Z</time>
      </trkpt>
      <trkpt lat="45.61386" lon="5.97057">
        <ele>1453</ele>
        <time>2022-07-23T09:10:24Z</time>
      </trkpt>
      <trkpt lat="45.61378" lon="5.97045">
        <ele>1456</ele>
        <time>2022-07-23T09:10:54Z</time>
      </trkpt>
      <trkpt lat="45.61374" lon="5.97032">
        <ele>1460</ele>
        <time>2022-07-23T09:11:23Z</time>
      </trkpt>
      <trkpt lat="45.61371" lon="5.97023">
        <ele>1461</ele>
        <time>2022-07-23T09:11:28Z</time>
      </trkpt>
      <trkpt lat="45.61373" lon="5.97015">
        <ele>1461</ele>
        <time>2022-07-23T09:11:32Z</time>
      </trkpt>
      <trkpt lat="45.6137" lon="5.97007">
        <ele>1461</ele>
        <time>2022-07-23T09:11:37Z</time>
      </trkpt>
      <trkpt lat="45.61371" lon="5.96988">
        <ele>1465</ele>
        <time>2022-07-23T09:12:09Z</time>
      </trkpt>
      <trkpt lat="45.6138" lon="5.96981">
        <ele>1467</ele>
        <time>2022-07-23T09:12:27Z</time>
      </trkpt>
      <trkpt lat="45.61397" lon="5.96958">
        <ele>1472</ele>
        <time>2022-07-23T09:13:12Z</time>
      </trkpt>
      <trkpt lat="45.61397" lon="5.96953">
        <ele>1472</ele>
        <time>2022-07-23T09:13:15Z</time>
      </trkpt>
      <trkpt lat="45.61406" lon="5.96937">
        <ele>1479</ele>
        <time>2022-07-23T09:14:07Z</time>
      </trkpt>
      <trkpt lat="45.61415" lon="5.96925">
        <ele>1481</ele>
        <time>2022-07-23T09:14:21Z</time>
      </trkpt>
      <trkpt lat="45.6141" lon="5.96925">
        <ele>1482</ele>
        <time>2022-07-23T09:14:39Z</time>
      </trkpt>
      <trkpt lat="45.61405" lon="5.96928">
        <ele>1482</ele>
        <time>2022-07-23T09:14:49Z</time>
      </trkpt>
      <trkpt lat="45.61413" lon="5.96937">
        <ele>1482</ele>
        <time>2022-07-23T09:15:06Z</time>
      </trkpt>
      <trkpt lat="45.61417" lon="5.9693">
        <ele>1482</ele>
        <time>2022-07-23T09:15:46Z</time>
      </trkpt>
      <trkpt lat="45.61421" lon="5.96919">
        <ele>1484</ele>
        <time>2022-07-23T09:15:54Z</time>
      </trkpt>
      <trkpt lat="45.6142" lon="5.96914">
        <ele>1486</ele>
        <time>2022-07-23T09:16:07Z</time>
      </trkpt>
      <trkpt lat="45.61426" lon="5.96893">
        <ele>1489</ele>
        <time>2022-07-23T09:16:28Z</time>
      </trkpt>
      <trkpt lat="45.61416" lon="5.96894">
        <ele>1489</ele>
        <time>2022-07-23T09:16:32Z</time>
      </trkpt>
      <trkpt lat="45.6142" lon="5.96896">
        <ele>1490</ele>
        <time>2022-07-23T09:16:46Z</time>
      </trkpt>
      <trkpt lat="45.61406" lon="5.96897">
        <ele>1491</ele>
        <time>2022-07-23T09:16:54Z</time>
      </trkpt>
      <trkpt lat="45.61412" lon="5.9689">
        <ele>1492</ele>
        <time>2022-07-23T09:17:02Z</time>
      </trkpt>
      <trkpt lat="45.61412" lon="5.96883">
        <ele>1494</ele>
        <time>2022-07-23T09:17:17Z</time>
      </trkpt>
      <trkpt lat="45.61413" lon="5.96872">
        <ele>1496</ele>
        <time>2022-07-23T09:17:35Z</time>
      </trkpt>
      <trkpt lat="45.61409" lon="5.96859">
        <ele>1500</ele>
        <time>2022-07-23T09:18:03Z</time>
      </trkpt>
      <trkpt lat="45.61405" lon="5.96841">
        <ele>1503</ele>
        <time>2022-07-23T09:18:27Z</time>
      </trkpt>
      <trkpt lat="45.61394" lon="5.96823">
        <ele>1503</ele>
        <time>2022-07-23T09:18:50Z</time>
      </trkpt>
      <trkpt lat="45.61378" lon="5.96804">
        <ele>1503</ele>
        <time>2022-07-23T09:19:11Z</time>
      </trkpt>
      <trkpt lat="45.61385" lon="5.96786">
        <ele>1502</ele>
        <time>2022-07-23T09:19:27Z</time>
      </trkpt>
      <trkpt lat="45.61381" lon="5.96773">
        <ele>1504</ele>
        <time>2022-07-23T09:19:43Z</time>
      </trkpt>
      <trkpt lat="45.61388" lon="5.96775">
        <ele>1506</ele>
        <time>2022-07-23T09:20:01Z</time>
      </trkpt>
      <trkpt lat="45.61399" lon="5.96758">
        <ele>1508</ele>
        <time>2022-07-23T09:20:16Z</time>
      </trkpt>
      <trkpt lat="45.61386" lon="5.96745">
        <ele>1509</ele>
        <time>2022-07-23T09:20:36Z</time>
      </trkpt>
      <trkpt lat="45.61375" lon="5.96739">
        <ele>1510</ele>
        <time>2022-07-23T09:20:57Z</time>
      </trkpt>
      <trkpt lat="45.61374" lon="5.96729">
        <ele>1511</ele>
        <time>2022-07-23T09:21:09Z</time>
      </trkpt>
      <trkpt lat="45.61375" lon="5.96718">
        <ele>1512</ele>
        <time>2022-07-23T09:21:26Z</time>
      </trkpt>
      <trkpt lat="45.61378" lon="5.9671">
        <ele>1512</ele>
        <time>2022-07-23T09:21:30Z</time>
      </trkpt>
      <trkpt lat="45.61369" lon="5.96699">
        <ele>1513</ele>
        <time>2022-07-23T09:21:44Z</time>
      </trkpt>
      <trkpt lat="45.61364" lon="5.96696">
        <ele>1513</ele>
        <time>2022-07-23T09:21:47Z</time>
      </trkpt>
      <trkpt lat="45.61361" lon="5.96687">
        <ele>1514</ele>
        <time>2022-07-23T09:21:57Z</time>
      </trkpt>
      <trkpt lat="45.61356" lon="5.9668">
        <ele>1515</ele>
        <time>2022-07-23T09:22:09Z</time>
      </trkpt>
      <trkpt lat="45.61357" lon="5.96673">
        <ele>1516</ele>
        <time>2022-07-23T09:22:19Z</time>
      </trkpt>
      <trkpt lat="45.61358" lon="5.96666">
        <ele>1517</ele>
        <time>2022-07-23T09:22:24Z</time>
      </trkpt>
      <trkpt lat="45.61364" lon="5.96653">
        <ele>1520</ele>
        <time>2022-07-23T09:22:52Z</time>
      </trkpt>
      <trkpt lat="45.61368" lon="5.96646">
        <ele>1522</ele>
        <time>2022-07-23T09:23:08Z</time>
      </trkpt>
      <trkpt lat="45.61366" lon="5.96639">
        <ele>1523</ele>
        <time>2022-07-23T09:23:18Z</time>
      </trkpt>
      <trkpt lat="45.61365" lon="5.96631">
        <ele>1524</ele>
        <time>2022-07-23T09:23:28Z</time>
      </trkpt>
      <trkpt lat="45.61363" lon="5.96624">
        <ele>1525</ele>
        <time>2022-07-23T09:23:38Z</time>
      </trkpt>
      <trkpt lat="45.61358" lon="5.96617">
        <ele>1526</ele>
        <time>2022-07-23T09:23:48Z</time>
      </trkpt>
      <trkpt lat="45.61354" lon="5.966">
        <ele>1529</ele>
        <time>2022-07-23T09:24:09Z</time>
      </trkpt>
      <trkpt lat="45.61352" lon="5.96593">
        <ele>1531</ele>
        <time>2022-07-23T09:24:19Z</time>
      </trkpt>
      <trkpt lat="45.61356" lon="5.96587">
        <ele>1532</ele>
        <time>2022-07-23T09:24:34Z</time>
      </trkpt>
      <trkpt lat="45.61356" lon="5.96579">
        <ele>1534</ele>
        <time>2022-07-23T09:24:49Z</time>
      </trkpt>
      <trkpt lat="45.61359" lon="5.96572">
        <ele>1537</ele>
        <time>2022-07-23T09:25:04Z</time>
      </trkpt>
      <trkpt lat="45.6136" lon="5.9655">
        <ele>1542</ele>
        <time>2022-07-23T09:25:39Z</time>
      </trkpt>
      <trkpt lat="45.61359" lon="5.9655">
        <ele>1545</ele>
        <time>2022-07-23T09:33:21Z</time>
      </trkpt>
      <trkpt lat="45.61356" lon="5.96555">
        <ele>1548</ele>
        <time>2022-07-23T09:37:41Z</time>
      </trkpt>
      <trkpt lat="45.6136" lon="5.96559">
        <ele>1547</ele>
        <time>2022-07-23T09:38:26Z</time>
      </trkpt>
      <trkpt lat="45.61362" lon="5.96568">
        <ele>1545</ele>
        <time>2022-07-23T09:38:41Z</time>
      </trkpt>
      <trkpt lat="45.61358" lon="5.96576">
        <ele>1543</ele>
        <time>2022-07-23T09:38:56Z</time>
      </trkpt>
      <trkpt lat="45.61355" lon="5.96579">
        <ele>1542</ele>
        <time>2022-07-23T09:39:04Z</time>
      </trkpt>
      <trkpt lat="45.61355" lon="5.96589">
        <ele>1540</ele>
        <time>2022-07-23T09:39:14Z</time>
      </trkpt>
      <trkpt lat="45.61351" lon="5.96595">
        <ele>1538</ele>
        <time>2022-07-23T09:39:24Z</time>
      </trkpt>
      <trkpt lat="45.61355" lon="5.96616">
        <ele>1534</ele>
        <time>2022-07-23T09:39:42Z</time>
      </trkpt>
      <trkpt lat="45.61361" lon="5.9663">
        <ele>1531</ele>
        <time>2022-07-23T09:39:58Z</time>
      </trkpt>
      <trkpt lat="45.61364" lon="5.96635">
        <ele>1530</ele>
        <time>2022-07-23T09:40:03Z</time>
      </trkpt>
      <trkpt lat="45.61366" lon="5.96644">
        <ele>1527</ele>
        <time>2022-07-23T09:40:15Z</time>
      </trkpt>
      <trkpt lat="45.61364" lon="5.96653">
        <ele>1526</ele>
        <time>2022-07-23T09:40:19Z</time>
      </trkpt>
      <trkpt lat="45.6136" lon="5.96661">
        <ele>1525</ele>
        <time>2022-07-23T09:40:22Z</time>
      </trkpt>
      <trkpt lat="45.61359" lon="5.96668">
        <ele>1523</ele>
        <time>2022-07-23T09:40:26Z</time>
      </trkpt>
      <trkpt lat="45.61357" lon="5.96676">
        <ele>1521</ele>
        <time>2022-07-23T09:40:30Z</time>
      </trkpt>
      <trkpt lat="45.61363" lon="5.96686">
        <ele>1519</ele>
        <time>2022-07-23T09:40:34Z</time>
      </trkpt>
      <trkpt lat="45.61366" lon="5.96693">
        <ele>1519</ele>
        <time>2022-07-23T09:40:36Z</time>
      </trkpt>
      <trkpt lat="45.61367" lon="5.967">
        <ele>1518</ele>
        <time>2022-07-23T09:40:40Z</time>
      </trkpt>
      <trkpt lat="45.61371" lon="5.96706">
        <ele>1517</ele>
        <time>2022-07-23T09:40:46Z</time>
      </trkpt>
      <trkpt lat="45.61373" lon="5.96713">
        <ele>1515</ele>
        <time>2022-07-23T09:41:18Z</time>
      </trkpt>
      <trkpt lat="45.6137" lon="5.96723">
        <ele>1515</ele>
        <time>2022-07-23T09:41:24Z</time>
      </trkpt>
      <trkpt lat="45.61369" lon="5.96734">
        <ele>1514</ele>
        <time>2022-07-23T09:41:27Z</time>
      </trkpt>
      <trkpt lat="45.61372" lon="5.96741">
        <ele>1514</ele>
        <time>2022-07-23T09:41:30Z</time>
      </trkpt>
      <trkpt lat="45.61389" lon="5.96763">
        <ele>1511</ele>
        <time>2022-07-23T09:41:45Z</time>
      </trkpt>
      <trkpt lat="45.61395" lon="5.96767">
        <ele>1510</ele>
        <time>2022-07-23T09:41:49Z</time>
      </trkpt>
      <trkpt lat="45.61387" lon="5.96775">
        <ele>1506</ele>
        <time>2022-07-23T09:42:01Z</time>
      </trkpt>
      <trkpt lat="45.61382" lon="5.96782">
        <ele>1506</ele>
        <time>2022-07-23T09:42:04Z</time>
      </trkpt>
      <trkpt lat="45.61377" lon="5.96805">
        <ele>1504</ele>
        <time>2022-07-23T09:42:09Z</time>
      </trkpt>
      <trkpt lat="45.61375" lon="5.96838">
        <ele>1504</ele>
        <time>2022-07-23T09:42:19Z</time>
      </trkpt>
      <trkpt lat="45.61384" lon="5.96842">
        <ele>1503</ele>
        <time>2022-07-23T09:42:26Z</time>
      </trkpt>
      <trkpt lat="45.61391" lon="5.96844">
        <ele>1503</ele>
        <time>2022-07-23T09:42:31Z</time>
      </trkpt>
      <trkpt lat="45.61393" lon="5.9685">
        <ele>1503</ele>
        <time>2022-07-23T09:42:43Z</time>
      </trkpt>
      <trkpt lat="45.61402" lon="5.96853">
        <ele>1503</ele>
        <time>2022-07-23T09:42:52Z</time>
      </trkpt>
      <trkpt lat="45.6141" lon="5.96869">
        <ele>1500</ele>
        <time>2022-07-23T09:43:14Z</time>
      </trkpt>
      <trkpt lat="45.61406" lon="5.96891">
        <ele>1492</ele>
        <time>2022-07-23T09:43:46Z</time>
      </trkpt>
      <trkpt lat="45.61414" lon="5.96911">
        <ele>1487</ele>
        <time>2022-07-23T09:44:06Z</time>
      </trkpt>
      <trkpt lat="45.61415" lon="5.96922">
        <ele>1484</ele>
        <time>2022-07-23T09:44:12Z</time>
      </trkpt>
      <trkpt lat="45.61412" lon="5.96928">
        <ele>1483</ele>
        <time>2022-07-23T09:44:16Z</time>
      </trkpt>
      <trkpt lat="45.61408" lon="5.96934">
        <ele>1481</ele>
        <time>2022-07-23T09:44:19Z</time>
      </trkpt>
      <trkpt lat="45.61399" lon="5.96935">
        <ele>1479</ele>
        <time>2022-07-23T09:44:24Z</time>
      </trkpt>
      <trkpt lat="45.61394" lon="5.96939">
        <ele>1476</ele>
        <time>2022-07-23T09:44:47Z</time>
      </trkpt>
      <trkpt lat="45.61389" lon="5.96952">
        <ele>1473</ele>
        <time>2022-07-23T09:44:57Z</time>
      </trkpt>
      <trkpt lat="45.61374" lon="5.96963">
        <ele>1469</ele>
        <time>2022-07-23T09:45:06Z</time>
      </trkpt>
      <trkpt lat="45.61375" lon="5.96982">
        <ele>1467</ele>
        <time>2022-07-23T09:45:20Z</time>
      </trkpt>
      <trkpt lat="45.61372" lon="5.96982">
        <ele>1467</ele>
        <time>2022-07-23T09:47:09Z</time>
      </trkpt>
      <trkpt lat="45.61369" lon="5.96999">
        <ele>1466</ele>
        <time>2022-07-23T09:47:31Z</time>
      </trkpt>
      <trkpt lat="45.61364" lon="5.97015">
        <ele>1464</ele>
        <time>2022-07-23T09:47:36Z</time>
      </trkpt>
      <trkpt lat="45.61363" lon="5.97024">
        <ele>1464</ele>
        <time>2022-07-23T09:47:38Z</time>
      </trkpt>
      <trkpt lat="45.61371" lon="5.9705">
        <ele>1462</ele>
        <time>2022-07-23T09:47:52Z</time>
      </trkpt>
      <trkpt lat="45.61375" lon="5.97053">
        <ele>1460</ele>
        <time>2022-07-23T09:47:55Z</time>
      </trkpt>
      <trkpt lat="45.61378" lon="5.97062">
        <ele>1459</ele>
        <time>2022-07-23T09:47:58Z</time>
      </trkpt>
      <trkpt lat="45.61382" lon="5.97067">
        <ele>1458</ele>
        <time>2022-07-23T09:48:00Z</time>
      </trkpt>
      <trkpt lat="45.61381" lon="5.97074">
        <ele>1457</ele>
        <time>2022-07-23T09:48:03Z</time>
      </trkpt>
      <trkpt lat="45.61377" lon="5.97084">
        <ele>1456</ele>
        <time>2022-07-23T09:48:07Z</time>
      </trkpt>
      <trkpt lat="45.61372" lon="5.97091">
        <ele>1455</ele>
        <time>2022-07-23T09:48:12Z</time>
      </trkpt>
      <trkpt lat="45.61369" lon="5.97097">
        <ele>1454</ele>
        <time>2022-07-23T09:48:13Z</time>
      </trkpt>
      <trkpt lat="45.61364" lon="5.9712">
        <ele>1453</ele>
        <time>2022-07-23T09:48:20Z</time>
      </trkpt>
      <trkpt lat="45.61361" lon="5.97127">
        <ele>1453</ele>
        <time>2022-07-23T09:48:23Z</time>
      </trkpt>
      <trkpt lat="45.61355" lon="5.97132">
        <ele>1452</ele>
        <time>2022-07-23T09:48:26Z</time>
      </trkpt>
      <trkpt lat="45.61359" lon="5.97138">
        <ele>1451</ele>
        <time>2022-07-23T09:48:29Z</time>
      </trkpt>
      <trkpt lat="45.61347" lon="5.97134">
        <ele>1448</ele>
        <time>2022-07-23T09:48:40Z</time>
      </trkpt>
      <trkpt lat="45.61343" lon="5.9714">
        <ele>1445</ele>
        <time>2022-07-23T09:48:50Z</time>
      </trkpt>
      <trkpt lat="45.61347" lon="5.97148">
        <ele>1443</ele>
        <time>2022-07-23T09:48:57Z</time>
      </trkpt>
      <trkpt lat="45.61343" lon="5.97159">
        <ele>1442</ele>
        <time>2022-07-23T09:49:01Z</time>
      </trkpt>
      <trkpt lat="45.61346" lon="5.97176">
        <ele>1436</ele>
        <time>2022-07-23T09:49:29Z</time>
      </trkpt>
      <trkpt lat="45.61346" lon="5.97183">
        <ele>1435</ele>
        <time>2022-07-23T09:49:34Z</time>
      </trkpt>
      <trkpt lat="45.61339" lon="5.97191">
        <ele>1431</ele>
        <time>2022-07-23T09:49:49Z</time>
      </trkpt>
      <trkpt lat="45.61339" lon="5.97204">
        <ele>1431</ele>
        <time>2022-07-23T09:49:51Z</time>
      </trkpt>
      <trkpt lat="45.61344" lon="5.97214">
        <ele>1430</ele>
        <time>2022-07-23T09:49:59Z</time>
      </trkpt>
      <trkpt lat="45.61339" lon="5.9723">
        <ele>1426</ele>
        <time>2022-07-23T09:50:09Z</time>
      </trkpt>
      <trkpt lat="45.61342" lon="5.97239">
        <ele>1425</ele>
        <time>2022-07-23T09:50:14Z</time>
      </trkpt>
      <trkpt lat="45.61342" lon="5.97251">
        <ele>1422</ele>
        <time>2022-07-23T09:50:21Z</time>
      </trkpt>
      <trkpt lat="45.61343" lon="5.9726">
        <ele>1421</ele>
        <time>2022-07-23T09:50:27Z</time>
      </trkpt>
      <trkpt lat="45.61346" lon="5.97266">
        <ele>1419</ele>
        <time>2022-07-23T09:50:34Z</time>
      </trkpt>
      <trkpt lat="45.61345" lon="5.97294">
        <ele>1413</ele>
        <time>2022-07-23T09:50:53Z</time>
      </trkpt>
      <trkpt lat="45.61342" lon="5.97301">
        <ele>1411</ele>
        <time>2022-07-23T09:51:01Z</time>
      </trkpt>
      <trkpt lat="45.61335" lon="5.97307">
        <ele>1406</ele>
        <time>2022-07-23T09:51:19Z</time>
      </trkpt>
      <trkpt lat="45.6132" lon="5.97311">
        <ele>1402</ele>
        <time>2022-07-23T09:51:37Z</time>
      </trkpt>
      <trkpt lat="45.6132" lon="5.97316">
        <ele>1401</ele>
        <time>2022-07-23T09:51:40Z</time>
      </trkpt>
      <trkpt lat="45.61315" lon="5.97318">
        <ele>1398</ele>
        <time>2022-07-23T09:51:51Z</time>
      </trkpt>
      <trkpt lat="45.61311" lon="5.97323">
        <ele>1397</ele>
        <time>2022-07-23T09:51:56Z</time>
      </trkpt>
      <trkpt lat="45.61306" lon="5.97326">
        <ele>1395</ele>
        <time>2022-07-23T09:52:02Z</time>
      </trkpt>
      <trkpt lat="45.61301" lon="5.97335">
        <ele>1391</ele>
        <time>2022-07-23T09:52:17Z</time>
      </trkpt>
      <trkpt lat="45.61298" lon="5.9734">
        <ele>1389</ele>
        <time>2022-07-23T09:52:24Z</time>
      </trkpt>
      <trkpt lat="45.61289" lon="5.9734">
        <ele>1387</ele>
        <time>2022-07-23T09:52:31Z</time>
      </trkpt>
      <trkpt lat="45.61284" lon="5.97345">
        <ele>1386</ele>
        <time>2022-07-23T09:52:35Z</time>
      </trkpt>
      <trkpt lat="45.61278" lon="5.97345">
        <ele>1385</ele>
        <time>2022-07-23T09:52:38Z</time>
      </trkpt>
      <trkpt lat="45.61283" lon="5.97352">
        <ele>1384</ele>
        <time>2022-07-23T09:52:42Z</time>
      </trkpt>
      <trkpt lat="45.61277" lon="5.97357">
        <ele>1383</ele>
        <time>2022-07-23T09:52:46Z</time>
      </trkpt>
      <trkpt lat="45.61275" lon="5.97364">
        <ele>1381</ele>
        <time>2022-07-23T09:52:54Z</time>
      </trkpt>
      <trkpt lat="45.6127" lon="5.97374">
        <ele>1378</ele>
        <time>2022-07-23T09:53:06Z</time>
      </trkpt>
      <trkpt lat="45.61274" lon="5.97388">
        <ele>1376</ele>
        <time>2022-07-23T09:53:15Z</time>
      </trkpt>
      <trkpt lat="45.61266" lon="5.97388">
        <ele>1372</ele>
        <time>2022-07-23T09:53:28Z</time>
      </trkpt>
      <trkpt lat="45.61259" lon="5.97395">
        <ele>1370</ele>
        <time>2022-07-23T09:53:32Z</time>
      </trkpt>
      <trkpt lat="45.61252" lon="5.97396">
        <ele>1368</ele>
        <time>2022-07-23T09:53:39Z</time>
      </trkpt>
      <trkpt lat="45.61245" lon="5.97406">
        <ele>1367</ele>
        <time>2022-07-23T09:53:57Z</time>
      </trkpt>
      <trkpt lat="45.61238" lon="5.97421">
        <ele>1364</ele>
        <time>2022-07-23T09:54:08Z</time>
      </trkpt>
      <trkpt lat="45.61237" lon="5.97425">
        <ele>1363</ele>
        <time>2022-07-23T09:54:12Z</time>
      </trkpt>
      <trkpt lat="45.61214" lon="5.97446">
        <ele>1353</ele>
        <time>2022-07-23T09:54:50Z</time>
      </trkpt>
      <trkpt lat="45.61208" lon="5.97449">
        <ele>1352</ele>
        <time>2022-07-23T09:54:56Z</time>
      </trkpt>
      <trkpt lat="45.61203" lon="5.97454">
        <ele>1350</ele>
        <time>2022-07-23T09:55:00Z</time>
      </trkpt>
      <trkpt lat="45.61203" lon="5.9746">
        <ele>1349</ele>
        <time>2022-07-23T09:55:05Z</time>
      </trkpt>
      <trkpt lat="45.61192" lon="5.97468">
        <ele>1345</ele>
        <time>2022-07-23T09:55:19Z</time>
      </trkpt>
      <trkpt lat="45.6118" lon="5.97468">
        <ele>1342</ele>
        <time>2022-07-23T09:55:32Z</time>
      </trkpt>
      <trkpt lat="45.61175" lon="5.97477">
        <ele>1337</ele>
        <time>2022-07-23T09:55:49Z</time>
      </trkpt>
      <trkpt lat="45.61167" lon="5.97484">
        <ele>1335</ele>
        <time>2022-07-23T09:55:59Z</time>
      </trkpt>
      <trkpt lat="45.61158" lon="5.97497">
        <ele>1331</ele>
        <time>2022-07-23T09:56:15Z</time>
      </trkpt>
      <trkpt lat="45.61153" lon="5.97514">
        <ele>1327</ele>
        <time>2022-07-23T09:56:33Z</time>
      </trkpt>
      <trkpt lat="45.61131" lon="5.97523">
        <ele>1320</ele>
        <time>2022-07-23T09:57:05Z</time>
      </trkpt>
      <trkpt lat="45.61124" lon="5.97527">
        <ele>1315</ele>
        <time>2022-07-23T09:57:24Z</time>
      </trkpt>
      <trkpt lat="45.61111" lon="5.97531">
        <ele>1311</ele>
        <time>2022-07-23T09:57:40Z</time>
      </trkpt>
      <trkpt lat="45.61107" lon="5.97537">
        <ele>1311</ele>
        <time>2022-07-23T09:57:43Z</time>
      </trkpt>
      <trkpt lat="45.61101" lon="5.97538">
        <ele>1310</ele>
        <time>2022-07-23T09:57:45Z</time>
      </trkpt>
      <trkpt lat="45.61097" lon="5.97538">
        <ele>1309</ele>
        <time>2022-07-23T09:57:50Z</time>
      </trkpt>
      <trkpt lat="45.61093" lon="5.97542">
        <ele>1308</ele>
        <time>2022-07-23T09:57:53Z</time>
      </trkpt>
      <trkpt lat="45.6109" lon="5.97556">
        <ele>1305</ele>
        <time>2022-07-23T09:58:02Z</time>
      </trkpt>
      <trkpt lat="45.61095" lon="5.97579">
        <ele>1302</ele>
        <time>2022-07-23T09:58:19Z</time>
      </trkpt>
      <trkpt lat="45.61098" lon="5.97584">
        <ele>1300</ele>
        <time>2022-07-23T09:58:26Z</time>
      </trkpt>
      <trkpt lat="45.61102" lon="5.97593">
        <ele>1298</ele>
        <time>2022-07-23T09:58:35Z</time>
      </trkpt>
      <trkpt lat="45.61109" lon="5.97616">
        <ele>1294</ele>
        <time>2022-07-23T09:58:49Z</time>
      </trkpt>
      <trkpt lat="45.61115" lon="5.97618">
        <ele>1293</ele>
        <time>2022-07-23T09:58:54Z</time>
      </trkpt>
      <trkpt lat="45.61119" lon="5.9762">
        <ele>1293</ele>
        <time>2022-07-23T09:59:05Z</time>
      </trkpt>
      <trkpt lat="45.61126" lon="5.9763">
        <ele>1292</ele>
        <time>2022-07-23T09:59:29Z</time>
      </trkpt>
      <trkpt lat="45.61127" lon="5.97645">
        <ele>1290</ele>
        <time>2022-07-23T09:59:40Z</time>
      </trkpt>
      <trkpt lat="45.61135" lon="5.97656">
        <ele>1288</ele>
        <time>2022-07-23T09:59:51Z</time>
      </trkpt>
      <trkpt lat="45.61133" lon="5.97673">
        <ele>1284</ele>
        <time>2022-07-23T10:00:07Z</time>
      </trkpt>
      <trkpt lat="45.61139" lon="5.97685">
        <ele>1282</ele>
        <time>2022-07-23T10:00:15Z</time>
      </trkpt>
      <trkpt lat="45.6116" lon="5.97695">
        <ele>1279</ele>
        <time>2022-07-23T10:00:30Z</time>
      </trkpt>
      <trkpt lat="45.6116" lon="5.97712">
        <ele>1278</ele>
        <time>2022-07-23T10:00:32Z</time>
      </trkpt>
      <trkpt lat="45.61166" lon="5.97726">
        <ele>1278</ele>
        <time>2022-07-23T10:00:37Z</time>
      </trkpt>
      <trkpt lat="45.61171" lon="5.97747">
        <ele>1276</ele>
        <time>2022-07-23T10:00:47Z</time>
      </trkpt>
      <trkpt lat="45.6117" lon="5.97759">
        <ele>1274</ele>
        <time>2022-07-23T10:00:56Z</time>
      </trkpt>
      <trkpt lat="45.61167" lon="5.97769">
        <ele>1272</ele>
        <time>2022-07-23T10:01:04Z</time>
      </trkpt>
      <trkpt lat="45.61161" lon="5.97778">
        <ele>1269</ele>
        <time>2022-07-23T10:01:15Z</time>
      </trkpt>
      <trkpt lat="45.61156" lon="5.97778">
        <ele>1267</ele>
        <time>2022-07-23T10:01:18Z</time>
      </trkpt>
      <trkpt lat="45.61149" lon="5.97785">
        <ele>1265</ele>
        <time>2022-07-23T10:01:25Z</time>
      </trkpt>
      <trkpt lat="45.61135" lon="5.97794">
        <ele>1261</ele>
        <time>2022-07-23T10:01:41Z</time>
      </trkpt>
      <trkpt lat="45.61125" lon="5.97794">
        <ele>1260</ele>
        <time>2022-07-23T10:01:47Z</time>
      </trkpt>
      <trkpt lat="45.61124" lon="5.9781">
        <ele>1256</ele>
        <time>2022-07-23T10:01:59Z</time>
      </trkpt>
      <trkpt lat="45.61128" lon="5.97821">
        <ele>1255</ele>
        <time>2022-07-23T10:02:03Z</time>
      </trkpt>
      <trkpt lat="45.61129" lon="5.97844">
        <ele>1250</ele>
        <time>2022-07-23T10:02:19Z</time>
      </trkpt>
      <trkpt lat="45.61107" lon="5.9788">
        <ele>1242</ele>
        <time>2022-07-23T10:02:51Z</time>
      </trkpt>
      <trkpt lat="45.61112" lon="5.97895">
        <ele>1241</ele>
        <time>2022-07-23T10:02:52Z</time>
      </trkpt>
      <trkpt lat="45.61108" lon="5.97895">
        <ele>1241</ele>
        <time>2022-07-23T10:03:00Z</time>
      </trkpt>
      <trkpt lat="45.61105" lon="5.97888">
        <ele>1240</ele>
        <time>2022-07-23T10:03:15Z</time>
      </trkpt>
      <trkpt lat="45.61109" lon="5.97883">
        <ele>1241</ele>
        <time>2022-07-23T10:03:25Z</time>
      </trkpt>
      <trkpt lat="45.61114" lon="5.97884">
        <ele>1240</ele>
        <time>2022-07-23T10:03:50Z</time>
      </trkpt>
      <trkpt lat="45.61118" lon="5.97875">
        <ele>1242</ele>
        <time>2022-07-23T10:04:01Z</time>
      </trkpt>
      <trkpt lat="45.61123" lon="5.97866">
        <ele>1244</ele>
        <time>2022-07-23T10:04:25Z</time>
      </trkpt>
      <trkpt lat="45.61126" lon="5.97858">
        <ele>1245</ele>
        <time>2022-07-23T10:04:40Z</time>
      </trkpt>
      <trkpt lat="45.61132" lon="5.97849">
        <ele>1247</ele>
        <time>2022-07-23T10:04:55Z</time>
      </trkpt>
      <trkpt lat="45.61133" lon="5.97841">
        <ele>1249</ele>
        <time>2022-07-23T10:05:11Z</time>
      </trkpt>
      <trkpt lat="45.61135" lon="5.97832">
        <ele>1249</ele>
        <time>2022-07-23T10:05:16Z</time>
      </trkpt>
      <trkpt lat="45.6113" lon="5.9782">
        <ele>1251</ele>
        <time>2022-07-23T10:05:36Z</time>
      </trkpt>
      <trkpt lat="45.61126" lon="5.97834">
        <ele>1251</ele>
        <time>2022-07-23T10:05:45Z</time>
      </trkpt>
      <trkpt lat="45.61126" lon="5.97845">
        <ele>1247</ele>
        <time>2022-07-23T10:06:05Z</time>
      </trkpt>
      <trkpt lat="45.61114" lon="5.97864">
        <ele>1242</ele>
        <time>2022-07-23T10:06:26Z</time>
      </trkpt>
      <trkpt lat="45.61114" lon="5.97871">
        <ele>1240</ele>
        <time>2022-07-23T10:06:42Z</time>
      </trkpt>
      <trkpt lat="45.61105" lon="5.97884">
        <ele>1239</ele>
        <time>2022-07-23T10:06:53Z</time>
      </trkpt>
      <trkpt lat="45.61106" lon="5.97892">
        <ele>1238</ele>
        <time>2022-07-23T10:06:57Z</time>
      </trkpt>
      <trkpt lat="45.611" lon="5.97909">
        <ele>1235</ele>
        <time>2022-07-23T10:07:08Z</time>
      </trkpt>
      <trkpt lat="45.61099" lon="5.97917">
        <ele>1234</ele>
        <time>2022-07-23T10:07:12Z</time>
      </trkpt>
      <trkpt lat="45.61091" lon="5.97929">
        <ele>1232</ele>
        <time>2022-07-23T10:07:19Z</time>
      </trkpt>
      <trkpt lat="45.61093" lon="5.97936">
        <ele>1231</ele>
        <time>2022-07-23T10:07:22Z</time>
      </trkpt>
      <trkpt lat="45.61093" lon="5.97963">
        <ele>1229</ele>
        <time>2022-07-23T10:07:28Z</time>
      </trkpt>
      <trkpt lat="45.61096" lon="5.9798">
        <ele>1228</ele>
        <time>2022-07-23T10:07:33Z</time>
      </trkpt>
      <trkpt lat="45.61089" lon="5.97997">
        <ele>1227</ele>
        <time>2022-07-23T10:07:39Z</time>
      </trkpt>
      <trkpt lat="45.61088" lon="5.98004">
        <ele>1226</ele>
        <time>2022-07-23T10:07:42Z</time>
      </trkpt>
      <trkpt lat="45.61083" lon="5.98017">
        <ele>1226</ele>
        <time>2022-07-23T10:07:47Z</time>
      </trkpt>
      <trkpt lat="45.6108" lon="5.98024">
        <ele>1225</ele>
        <time>2022-07-23T10:07:56Z</time>
      </trkpt>
      <trkpt lat="45.61076" lon="5.98029">
        <ele>1224</ele>
        <time>2022-07-23T10:08:00Z</time>
      </trkpt>
      <trkpt lat="45.61073" lon="5.98039">
        <ele>1224</ele>
        <time>2022-07-23T10:08:03Z</time>
      </trkpt>
      <trkpt lat="45.6107" lon="5.98045">
        <ele>1224</ele>
        <time>2022-07-23T10:08:06Z</time>
      </trkpt>
      <trkpt lat="45.61072" lon="5.98071">
        <ele>1222</ele>
        <time>2022-07-23T10:08:14Z</time>
      </trkpt>
      <trkpt lat="45.61081" lon="5.9809">
        <ele>1222</ele>
        <time>2022-07-23T10:08:19Z</time>
      </trkpt>
      <trkpt lat="45.61088" lon="5.98097">
        <ele>1222</ele>
        <time>2022-07-23T10:08:24Z</time>
      </trkpt>
      <trkpt lat="45.61097" lon="5.98127">
        <ele>1221</ele>
        <time>2022-07-23T10:08:35Z</time>
      </trkpt>
      <trkpt lat="45.61099" lon="5.98139">
        <ele>1220</ele>
        <time>2022-07-23T10:08:40Z</time>
      </trkpt>
      <trkpt lat="45.61102" lon="5.98152">
        <ele>1219</ele>
        <time>2022-07-23T10:08:44Z</time>
      </trkpt>
      <trkpt lat="45.61105" lon="5.9816">
        <ele>1218</ele>
        <time>2022-07-23T10:08:48Z</time>
      </trkpt>
      <trkpt lat="45.61112" lon="5.98166">
        <ele>1218</ele>
        <time>2022-07-23T10:08:51Z</time>
      </trkpt>
      <trkpt lat="45.6112" lon="5.98188">
        <ele>1217</ele>
        <time>2022-07-23T10:09:00Z</time>
      </trkpt>
      <trkpt lat="45.61126" lon="5.98187">
        <ele>1217</ele>
        <time>2022-07-23T10:09:02Z</time>
      </trkpt>
      <trkpt lat="45.61136" lon="5.98199">
        <ele>1216</ele>
        <time>2022-07-23T10:09:10Z</time>
      </trkpt>
      <trkpt lat="45.61142" lon="5.98206">
        <ele>1216</ele>
        <time>2022-07-23T10:09:13Z</time>
      </trkpt>
      <trkpt lat="45.61142" lon="5.98216">
        <ele>1215</ele>
        <time>2022-07-23T10:09:16Z</time>
      </trkpt>
      <trkpt lat="45.61145" lon="5.98222">
        <ele>1214</ele>
        <time>2022-07-23T10:09:19Z</time>
      </trkpt>
      <trkpt lat="45.61148" lon="5.9824">
        <ele>1214</ele>
        <time>2022-07-23T10:09:25Z</time>
      </trkpt>
      <trkpt lat="45.61152" lon="5.98244">
        <ele>1213</ele>
        <time>2022-07-23T10:09:29Z</time>
      </trkpt>
      <trkpt lat="45.61157" lon="5.98261">
        <ele>1213</ele>
        <time>2022-07-23T10:09:42Z</time>
      </trkpt>
      <trkpt lat="45.61159" lon="5.98265">
        <ele>1213</ele>
        <time>2022-07-23T10:09:55Z</time>
      </trkpt>
      <trkpt lat="45.6116" lon="5.98275">
        <ele>1213</ele>
        <time>2022-07-23T10:10:05Z</time>
      </trkpt>
      <trkpt lat="45.6116" lon="5.98295">
        <ele>1213</ele>
        <time>2022-07-23T10:10:16Z</time>
      </trkpt>
      <trkpt lat="45.61161" lon="5.98312">
        <ele>1212</ele>
        <time>2022-07-23T10:10:25Z</time>
      </trkpt>
      <trkpt lat="45.61172" lon="5.9833">
        <ele>1210</ele>
        <time>2022-07-23T10:10:31Z</time>
      </trkpt>
      <trkpt lat="45.61173" lon="5.98343">
        <ele>1209</ele>
        <time>2022-07-23T10:10:38Z</time>
      </trkpt>
      <trkpt lat="45.61173" lon="5.98363">
        <ele>1207</ele>
        <time>2022-07-23T10:10:48Z</time>
      </trkpt>
      <trkpt lat="45.61172" lon="5.98371">
        <ele>1206</ele>
        <time>2022-07-23T10:10:50Z</time>
      </trkpt>
      <trkpt lat="45.61171" lon="5.98385">
        <ele>1205</ele>
        <time>2022-07-23T10:10:56Z</time>
      </trkpt>
      <trkpt lat="45.61174" lon="5.98393">
        <ele>1204</ele>
        <time>2022-07-23T10:11:00Z</time>
      </trkpt>
      <trkpt lat="45.61175" lon="5.984">
        <ele>1204</ele>
        <time>2022-07-23T10:11:02Z</time>
      </trkpt>
      <trkpt lat="45.61186" lon="5.9842">
        <ele>1203</ele>
        <time>2022-07-23T10:11:11Z</time>
      </trkpt>
      <trkpt lat="45.61191" lon="5.98428">
        <ele>1203</ele>
        <time>2022-07-23T10:11:16Z</time>
      </trkpt>
      <trkpt lat="45.61196" lon="5.9843">
        <ele>1203</ele>
        <time>2022-07-23T10:11:19Z</time>
      </trkpt>
      <trkpt lat="45.61199" lon="5.9844">
        <ele>1203</ele>
        <time>2022-07-23T10:11:23Z</time>
      </trkpt>
      <trkpt lat="45.61205" lon="5.98445">
        <ele>1203</ele>
        <time>2022-07-23T10:11:26Z</time>
      </trkpt>
      <trkpt lat="45.61196" lon="5.98452">
        <ele>1203</ele>
        <time>2022-07-23T10:11:30Z</time>
      </trkpt>
      <trkpt lat="45.61199" lon="5.98462">
        <ele>1204</ele>
        <time>2022-07-23T10:11:42Z</time>
      </trkpt>
      <trkpt lat="45.61198" lon="5.98471">
        <ele>1203</ele>
        <time>2022-07-23T10:11:47Z</time>
      </trkpt>
      <trkpt lat="45.61196" lon="5.98477">
        <ele>1203</ele>
        <time>2022-07-23T10:11:50Z</time>
      </trkpt>
      <trkpt lat="45.61193" lon="5.98483">
        <ele>1202</ele>
        <time>2022-07-23T10:11:55Z</time>
      </trkpt>
      <trkpt lat="45.6119" lon="5.98488">
        <ele>1202</ele>
        <time>2022-07-23T10:11:59Z</time>
      </trkpt>
      <trkpt lat="45.61181" lon="5.98496">
        <ele>1202</ele>
        <time>2022-07-23T10:12:06Z</time>
      </trkpt>
      <trkpt lat="45.6118" lon="5.98504">
        <ele>1202</ele>
        <time>2022-07-23T10:12:10Z</time>
      </trkpt>
      <trkpt lat="45.61179" lon="5.9851">
        <ele>1201</ele>
        <time>2022-07-23T10:12:15Z</time>
      </trkpt>
      <trkpt lat="45.61171" lon="5.98519">
        <ele>1200</ele>
        <time>2022-07-23T10:12:26Z</time>
      </trkpt>
      <trkpt lat="45.61161" lon="5.98541">
        <ele>1199</ele>
        <time>2022-07-23T10:12:41Z</time>
      </trkpt>
      <trkpt lat="45.61153" lon="5.98551">
        <ele>1197</ele>
        <time>2022-07-23T10:12:48Z</time>
      </trkpt>
      <trkpt lat="45.6115" lon="5.98559">
        <ele>1197</ele>
        <time>2022-07-23T10:12:52Z</time>
      </trkpt>
      <trkpt lat="45.61152" lon="5.98568">
        <ele>1195</ele>
        <time>2022-07-23T10:12:57Z</time>
      </trkpt>
      <trkpt lat="45.61152" lon="5.9858">
        <ele>1193</ele>
        <time>2022-07-23T10:13:01Z</time>
      </trkpt>
      <trkpt lat="45.61146" lon="5.98598">
        <ele>1190</ele>
        <time>2022-07-23T10:13:14Z</time>
      </trkpt>
      <trkpt lat="45.61144" lon="5.98613">
        <ele>1188</ele>
        <time>2022-07-23T10:13:23Z</time>
      </trkpt>
      <trkpt lat="45.61142" lon="5.98621">
        <ele>1188</ele>
        <time>2022-07-23T10:13:28Z</time>
      </trkpt>
      <trkpt lat="45.61135" lon="5.98637">
        <ele>1187</ele>
        <time>2022-07-23T10:13:32Z</time>
      </trkpt>
      <trkpt lat="45.61119" lon="5.98672">
        <ele>1183</ele>
        <time>2022-07-23T10:13:58Z</time>
      </trkpt>
      <trkpt lat="45.61117" lon="5.98687">
        <ele>1181</ele>
        <time>2022-07-23T10:14:06Z</time>
      </trkpt>
      <trkpt lat="45.61113" lon="5.98695">
        <ele>1180</ele>
        <time>2022-07-23T10:14:15Z</time>
      </trkpt>
      <trkpt lat="45.61115" lon="5.98703">
        <ele>1179</ele>
        <time>2022-07-23T10:14:17Z</time>
      </trkpt>
      <trkpt lat="45.61118" lon="5.98708">
        <ele>1179</ele>
        <time>2022-07-23T10:14:20Z</time>
      </trkpt>
      <trkpt lat="45.61122" lon="5.98732">
        <ele>1175</ele>
        <time>2022-07-23T10:14:53Z</time>
      </trkpt>
      <trkpt lat="45.61115" lon="5.98757">
        <ele>1172</ele>
        <time>2022-07-23T10:15:11Z</time>
      </trkpt>
      <trkpt lat="45.61117" lon="5.98765">
        <ele>1171</ele>
        <time>2022-07-23T10:15:15Z</time>
      </trkpt>
      <trkpt lat="45.61117" lon="5.98773">
        <ele>1171</ele>
        <time>2022-07-23T10:15:18Z</time>
      </trkpt>
      <trkpt lat="45.61118" lon="5.98796">
        <ele>1168</ele>
        <time>2022-07-23T10:15:35Z</time>
      </trkpt>
      <trkpt lat="45.61118" lon="5.98802">
        <ele>1168</ele>
        <time>2022-07-23T10:15:40Z</time>
      </trkpt>
      <trkpt lat="45.61114" lon="5.98808">
        <ele>1167</ele>
        <time>2022-07-23T10:15:45Z</time>
      </trkpt>
      <trkpt lat="45.6111" lon="5.98811">
        <ele>1167</ele>
        <time>2022-07-23T10:15:48Z</time>
      </trkpt>
      <trkpt lat="45.61095" lon="5.9882">
        <ele>1165</ele>
        <time>2022-07-23T10:16:00Z</time>
      </trkpt>
      <trkpt lat="45.61092" lon="5.98824">
        <ele>1165</ele>
        <time>2022-07-23T10:16:04Z</time>
      </trkpt>
      <trkpt lat="45.61088" lon="5.98837">
        <ele>1164</ele>
        <time>2022-07-23T10:16:12Z</time>
      </trkpt>
      <trkpt lat="45.61092" lon="5.98856">
        <ele>1164</ele>
        <time>2022-07-23T10:16:22Z</time>
      </trkpt>
      <trkpt lat="45.61099" lon="5.98883">
        <ele>1163</ele>
        <time>2022-07-23T10:16:41Z</time>
      </trkpt>
      <trkpt lat="45.61103" lon="5.98906">
        <ele>1161</ele>
        <time>2022-07-23T10:16:59Z</time>
      </trkpt>
      <trkpt lat="45.6109" lon="5.98937">
        <ele>1160</ele>
        <time>2022-07-23T10:17:24Z</time>
      </trkpt>
      <trkpt lat="45.61087" lon="5.98951">
        <ele>1160</ele>
        <time>2022-07-23T10:17:33Z</time>
      </trkpt>
      <trkpt lat="45.6108" lon="5.98971">
        <ele>1157</ele>
        <time>2022-07-23T10:17:49Z</time>
      </trkpt>
      <trkpt lat="45.61075" lon="5.98975">
        <ele>1156</ele>
        <time>2022-07-23T10:17:54Z</time>
      </trkpt>
      <trkpt lat="45.61077" lon="5.98978">
        <ele>1155</ele>
        <time>2022-07-23T10:18:09Z</time>
      </trkpt>
      <trkpt lat="45.61071" lon="5.98979">
        <ele>1155</ele>
        <time>2022-07-23T10:18:13Z</time>
      </trkpt>
      <trkpt lat="45.61069" lon="5.9899">
        <ele>1154</ele>
        <time>2022-07-23T10:18:24Z</time>
      </trkpt>
      <trkpt lat="45.61062" lon="5.9902">
        <ele>1149</ele>
        <time>2022-07-23T10:18:46Z</time>
      </trkpt>
      <trkpt lat="45.61059" lon="5.99026">
        <ele>1148</ele>
        <time>2022-07-23T10:18:50Z</time>
      </trkpt>
      <trkpt lat="45.61059" lon="5.99033">
        <ele>1147</ele>
        <time>2022-07-23T10:18:55Z</time>
      </trkpt>
      <trkpt lat="45.61053" lon="5.99051">
        <ele>1144</ele>
        <time>2022-07-23T10:19:07Z</time>
      </trkpt>
      <trkpt lat="45.61053" lon="5.99057">
        <ele>1144</ele>
        <time>2022-07-23T10:19:11Z</time>
      </trkpt>
      <trkpt lat="45.61054" lon="5.99063">
        <ele>1143</ele>
        <time>2022-07-23T10:19:16Z</time>
      </trkpt>
      <trkpt lat="45.61059" lon="5.99076">
        <ele>1142</ele>
        <time>2022-07-23T10:19:30Z</time>
      </trkpt>
      <trkpt lat="45.61061" lon="5.99069">
        <ele>1142</ele>
        <time>2022-07-23T10:19:52Z</time>
      </trkpt>
      <trkpt lat="45.61064" lon="5.99076">
        <ele>1141</ele>
        <time>2022-07-23T10:20:29Z</time>
      </trkpt>
      <trkpt lat="45.61072" lon="5.99091">
        <ele>1140</ele>
        <time>2022-07-23T10:20:41Z</time>
      </trkpt>
      <trkpt lat="45.6109" lon="5.99118">
        <ele>1136</ele>
        <time>2022-07-23T10:21:06Z</time>
      </trkpt>
      <trkpt lat="45.61119" lon="5.99148">
        <ele>1131</ele>
        <time>2022-07-23T10:21:40Z</time>
      </trkpt>
      <trkpt lat="45.61131" lon="5.99159">
        <ele>1129</ele>
        <time>2022-07-23T10:22:11Z</time>
      </trkpt>
      <trkpt lat="45.61143" lon="5.99171">
        <ele>1127</ele>
        <time>2022-07-23T10:22:24Z</time>
      </trkpt>
      <trkpt lat="45.61147" lon="5.99176">
        <ele>1126</ele>
        <time>2022-07-23T10:22:29Z</time>
      </trkpt>
      <trkpt lat="45.61154" lon="5.9921">
        <ele>1122</ele>
        <time>2022-07-23T10:22:52Z</time>
      </trkpt>
      <trkpt lat="45.61156" lon="5.99253">
        <ele>1117</ele>
        <time>2022-07-23T10:23:22Z</time>
      </trkpt>
      <trkpt lat="45.61155" lon="5.99289">
        <ele>1114</ele>
        <time>2022-07-23T10:23:52Z</time>
      </trkpt>
      <trkpt lat="45.61153" lon="5.99335">
        <ele>1111</ele>
        <time>2022-07-23T10:24:28Z</time>
      </trkpt>
      <trkpt lat="45.61153" lon="5.99341">
        <ele>1111</ele>
        <time>2022-07-23T10:24:33Z</time>
      </trkpt>
      <trkpt lat="45.61155" lon="5.99344">
        <ele>1111</ele>
        <time>2022-07-23T10:25:07Z</time>
      </trkpt>
      <trkpt lat="45.61157" lon="5.99349">
        <ele>1111</ele>
        <time>2022-07-23T10:28:53Z</time>
      </trkpt>
      <trkpt lat="45.61163" lon="5.9937">
        <ele>1111</ele>
        <time>2022-07-23T10:28:57Z</time>
      </trkpt>
      <trkpt lat="45.61168" lon="5.99375">
        <ele>1111</ele>
        <time>2022-07-23T10:28:59Z</time>
      </trkpt>
      <trkpt lat="45.61178" lon="5.99378">
        <ele>1111</ele>
        <time>2022-07-23T10:29:01Z</time>
      </trkpt>
      <trkpt lat="45.61198" lon="5.99378">
        <ele>1110</ele>
        <time>2022-07-23T10:29:04Z</time>
      </trkpt>
      <trkpt lat="45.6121" lon="5.99373">
        <ele>1109</ele>
        <time>2022-07-23T10:29:06Z</time>
      </trkpt>
      <trkpt lat="45.61232" lon="5.99362">
        <ele>1106</ele>
        <time>2022-07-23T10:29:10Z</time>
      </trkpt>
      <trkpt lat="45.61243" lon="5.99364">
        <ele>1104</ele>
        <time>2022-07-23T10:29:12Z</time>
      </trkpt>
      <trkpt lat="45.61251" lon="5.99372">
        <ele>1104</ele>
        <time>2022-07-23T10:29:13Z</time>
      </trkpt>
      <trkpt lat="45.61263" lon="5.99389">
        <ele>1102</ele>
        <time>2022-07-23T10:29:15Z</time>
      </trkpt>
      <trkpt lat="45.61413" lon="5.995">
        <ele>1088</ele>
        <time>2022-07-23T10:29:30Z</time>
      </trkpt>
      <trkpt lat="45.6145" lon="5.9953">
        <ele>1086</ele>
        <time>2022-07-23T10:29:34Z</time>
      </trkpt>
      <trkpt lat="45.61534" lon="5.99619">
        <ele>1080</ele>
        <time>2022-07-23T10:29:44Z</time>
      </trkpt>
      <trkpt lat="45.6159" lon="5.9963">
        <ele>1076</ele>
        <time>2022-07-23T10:29:50Z</time>
      </trkpt>
      <trkpt lat="45.61608" lon="5.99652">
        <ele>1075</ele>
        <time>2022-07-23T10:29:53Z</time>
      </trkpt>
      <trkpt lat="45.6162" lon="5.99668">
        <ele>1074</ele>
        <time>2022-07-23T10:29:55Z</time>
      </trkpt>
      <trkpt lat="45.61625" lon="5.99678">
        <ele>1074</ele>
        <time>2022-07-23T10:29:56Z</time>
      </trkpt>
      <trkpt lat="45.61631" lon="5.99686">
        <ele>1073</ele>
        <time>2022-07-23T10:29:57Z</time>
      </trkpt>
      <trkpt lat="45.61639" lon="5.99689">
        <ele>1073</ele>
        <time>2022-07-23T10:29:58Z</time>
      </trkpt>
      <trkpt lat="45.61654" lon="5.99697">
        <ele>1070</ele>
        <time>2022-07-23T10:30:02Z</time>
      </trkpt>
      <trkpt lat="45.61656" lon="5.99706">
        <ele>1069</ele>
        <time>2022-07-23T10:30:03Z</time>
      </trkpt>
      <trkpt lat="45.61744" lon="5.99765">
        <ele>1065</ele>
        <time>2022-07-23T10:30:13Z</time>
      </trkpt>
      <trkpt lat="45.61839" lon="5.9979">
        <ele>1060</ele>
        <time>2022-07-23T10:30:22Z</time>
      </trkpt>
      <trkpt lat="45.61853" lon="5.99807">
        <ele>1059</ele>
        <time>2022-07-23T10:30:24Z</time>
      </trkpt>
      <trkpt lat="45.6186" lon="5.99819">
        <ele>1059</ele>
        <time>2022-07-23T10:30:25Z</time>
      </trkpt>
      <trkpt lat="45.61875" lon="5.99837">
        <ele>1058</ele>
        <time>2022-07-23T10:30:27Z</time>
      </trkpt>
      <trkpt lat="45.61921" lon="5.9988">
        <ele>1056</ele>
        <time>2022-07-23T10:30:32Z</time>
      </trkpt>
      <trkpt lat="45.61938" lon="5.99904">
        <ele>1055</ele>
        <time>2022-07-23T10:30:34Z</time>
      </trkpt>
      <trkpt lat="45.55221" lon="5.93767">
        <ele>374</ele>
        <time>2022-07-23T19:18:20Z</time>
      </trkpt>
      <trkpt lat="45.55221" lon="5.93767">
        <ele>374</ele>
        <time>2022-07-23T19:18:29Z</time>
      </trkpt>
      <trkpt lat="45.55215" lon="5.93763">
        <ele>377</ele>
        <time>2022-07-23T20:56:32Z</time>
      </trkpt>
      <trkpt lat="45.54667" lon="5.98088">
        <ele>318</ele>
        <time>2022-07-24T08:40:34Z</time>
      </trkpt>
      <trkpt lat="45.54424" lon="5.97886">
        <ele>319</ele>
        <time>2022-07-24T08:41:29Z</time>
      </trkpt>
      <trkpt lat="45.54422" lon="5.97883">
        <ele>314</ele>
        <time>2022-07-24T08:41:31Z</time>
      </trkpt>
      <trkpt lat="45.54421" lon="5.97882">
        <ele>311</ele>
        <time>2022-07-24T08:41:49Z</time>
      </trkpt>
      <trkpt lat="45.54417" lon="5.97876">
        <ele>311</ele>
        <time>2022-07-24T08:41:51Z</time>
      </trkpt>
      <trkpt lat="45.54414" lon="5.97866">
        <ele>311</ele>
        <time>2022-07-24T08:41:53Z</time>
      </trkpt>
      <trkpt lat="45.54419" lon="5.97859">
        <ele>311</ele>
        <time>2022-07-24T08:41:54Z</time>
      </trkpt>
      <trkpt lat="45.54536" lon="5.97531">
        <ele>311</ele>
        <time>2022-07-24T08:42:21Z</time>
      </trkpt>
      <trkpt lat="45.54543" lon="5.97527">
        <ele>309</ele>
        <time>2022-07-24T08:42:25Z</time>
      </trkpt>
      <trkpt lat="45.54552" lon="5.97522">
        <ele>309</ele>
        <time>2022-07-24T08:42:27Z</time>
      </trkpt>
      <trkpt lat="45.54555" lon="5.97515">
        <ele>309</ele>
        <time>2022-07-24T08:42:28Z</time>
      </trkpt>
      <trkpt lat="45.54557" lon="5.97507">
        <ele>309</ele>
        <time>2022-07-24T08:42:29Z</time>
      </trkpt>
      <trkpt lat="45.54555" lon="5.97498">
        <ele>309</ele>
        <time>2022-07-24T08:42:30Z</time>
      </trkpt>
      <trkpt lat="45.54551" lon="5.97493">
        <ele>309</ele>
        <time>2022-07-24T08:42:31Z</time>
      </trkpt>
      <trkpt lat="45.54547" lon="5.97492">
        <ele>309</ele>
        <time>2022-07-24T08:42:32Z</time>
      </trkpt>
      <trkpt lat="45.54542" lon="5.97488">
        <ele>309</ele>
        <time>2022-07-24T08:42:33Z</time>
      </trkpt>
      <trkpt lat="45.54536" lon="5.9749">
        <ele>309</ele>
        <time>2022-07-24T08:42:34Z</time>
      </trkpt>
      <trkpt lat="45.54528" lon="5.97484">
        <ele>309</ele>
        <time>2022-07-24T08:42:36Z</time>
      </trkpt>
      <trkpt lat="45.54481" lon="5.97425">
        <ele>309</ele>
        <time>2022-07-24T08:42:46Z</time>
      </trkpt>
      <trkpt lat="45.54347" lon="5.97158">
        <ele>316</ele>
        <time>2022-07-24T08:43:16Z</time>
      </trkpt>
      <trkpt lat="45.54292" lon="5.97064">
        <ele>317</ele>
        <time>2022-07-24T08:43:23Z</time>
      </trkpt>
      <trkpt lat="45.54263" lon="5.97032">
        <ele>319</ele>
        <time>2022-07-24T08:43:26Z</time>
      </trkpt>
      <trkpt lat="45.5423" lon="5.9701">
        <ele>320</ele>
        <time>2022-07-24T08:43:29Z</time>
      </trkpt>
      <trkpt lat="45.54201" lon="5.96976">
        <ele>320</ele>
        <time>2022-07-24T08:43:32Z</time>
      </trkpt>
      <trkpt lat="45.54147" lon="5.96895">
        <ele>321</ele>
        <time>2022-07-24T08:43:38Z</time>
      </trkpt>
      <trkpt lat="45.5407" lon="5.9685">
        <ele>320</ele>
        <time>2022-07-24T08:43:44Z</time>
      </trkpt>
      <trkpt lat="45.53987" lon="5.96826">
        <ele>322</ele>
        <time>2022-07-24T08:43:50Z</time>
      </trkpt>
      <trkpt lat="45.53863" lon="5.96822">
        <ele>322</ele>
        <time>2022-07-24T08:43:59Z</time>
      </trkpt>
      <trkpt lat="45.53795" lon="5.9684">
        <ele>318</ele>
        <time>2022-07-24T08:44:05Z</time>
      </trkpt>
      <trkpt lat="45.5378" lon="5.96836">
        <ele>315</ele>
        <time>2022-07-24T08:44:08Z</time>
      </trkpt>
      <trkpt lat="45.53773" lon="5.96819">
        <ele>313</ele>
        <time>2022-07-24T08:44:12Z</time>
      </trkpt>
      <trkpt lat="45.53769" lon="5.96809">
        <ele>313</ele>
        <time>2022-07-24T08:44:13Z</time>
      </trkpt>
      <trkpt lat="45.53739" lon="5.96778">
        <ele>313</ele>
        <time>2022-07-24T08:44:17Z</time>
      </trkpt>
      <trkpt lat="45.5366" lon="5.96608">
        <ele>310</ele>
        <time>2022-07-24T08:44:31Z</time>
      </trkpt>
      <trkpt lat="45.53649" lon="5.96555">
        <ele>309</ele>
        <time>2022-07-24T08:44:35Z</time>
      </trkpt>
      <trkpt lat="45.53625" lon="5.96038">
        <ele>300</ele>
        <time>2022-07-24T08:45:05Z</time>
      </trkpt>
      <trkpt lat="45.53626" lon="5.96004">
        <ele>300</ele>
        <time>2022-07-24T08:45:08Z</time>
      </trkpt>
      <trkpt lat="45.53633" lon="5.95988">
        <ele>300</ele>
        <time>2022-07-24T08:45:11Z</time>
      </trkpt>
      <trkpt lat="45.53637" lon="5.95979">
        <ele>300</ele>
        <time>2022-07-24T08:45:12Z</time>
      </trkpt>
      <trkpt lat="45.53638" lon="5.95969">
        <ele>300</ele>
        <time>2022-07-24T08:45:13Z</time>
      </trkpt>
      <trkpt lat="45.53625" lon="5.95945">
        <ele>301</ele>
        <time>2022-07-24T08:45:16Z</time>
      </trkpt>
      <trkpt lat="45.53623" lon="5.95719">
        <ele>312</ele>
        <time>2022-07-24T08:45:33Z</time>
      </trkpt>
      <trkpt lat="45.53624" lon="5.95711">
        <ele>313</ele>
        <time>2022-07-24T08:45:36Z</time>
      </trkpt>
      <trkpt lat="45.53624" lon="5.95703">
        <ele>313</ele>
        <time>2022-07-24T08:45:37Z</time>
      </trkpt>
      <trkpt lat="45.53605" lon="5.95647">
        <ele>312</ele>
        <time>2022-07-24T08:45:43Z</time>
      </trkpt>
      <trkpt lat="45.53601" lon="5.95641">
        <ele>312</ele>
        <time>2022-07-24T08:45:44Z</time>
      </trkpt>
      <trkpt lat="45.53595" lon="5.95639">
        <ele>312</ele>
        <time>2022-07-24T08:45:45Z</time>
      </trkpt>
      <trkpt lat="45.53324" lon="5.95611">
        <ele>311</ele>
        <time>2022-07-24T08:46:11Z</time>
      </trkpt>
      <trkpt lat="45.53321" lon="5.95607">
        <ele>311</ele>
        <time>2022-07-24T08:46:13Z</time>
      </trkpt>
      <trkpt lat="45.53317" lon="5.95601">
        <ele>311</ele>
        <time>2022-07-24T08:46:16Z</time>
      </trkpt>
      <trkpt lat="45.53312" lon="5.95589">
        <ele>311</ele>
        <time>2022-07-24T08:46:18Z</time>
      </trkpt>
      <trkpt lat="45.53306" lon="5.95586">
        <ele>311</ele>
        <time>2022-07-24T08:46:19Z</time>
      </trkpt>
      <trkpt lat="45.53301" lon="5.95588">
        <ele>311</ele>
        <time>2022-07-24T08:46:20Z</time>
      </trkpt>
      <trkpt lat="45.53296" lon="5.95594">
        <ele>311</ele>
        <time>2022-07-24T08:46:21Z</time>
      </trkpt>
      <trkpt lat="45.53288" lon="5.95608">
        <ele>311</ele>
        <time>2022-07-24T08:46:23Z</time>
      </trkpt>
      <trkpt lat="45.53124" lon="5.95599">
        <ele>309</ele>
        <time>2022-07-24T08:46:41Z</time>
      </trkpt>
      <trkpt lat="45.53007" lon="5.95559">
        <ele>308</ele>
        <time>2022-07-24T08:46:54Z</time>
      </trkpt>
      <trkpt lat="45.52994" lon="5.95544">
        <ele>307</ele>
        <time>2022-07-24T08:46:57Z</time>
      </trkpt>
      <trkpt lat="45.52988" lon="5.95542">
        <ele>307</ele>
        <time>2022-07-24T08:46:58Z</time>
      </trkpt>
      <trkpt lat="45.52968" lon="5.95546">
        <ele>306</ele>
        <time>2022-07-24T08:47:01Z</time>
      </trkpt>
      <trkpt lat="45.52865" lon="5.95515">
        <ele>308</ele>
        <time>2022-07-24T08:47:11Z</time>
      </trkpt>
      <trkpt lat="45.52517" lon="5.95521">
        <ele>314</ele>
        <time>2022-07-24T08:47:41Z</time>
      </trkpt>
      <trkpt lat="45.52406" lon="5.9553">
        <ele>316</ele>
        <time>2022-07-24T08:47:50Z</time>
      </trkpt>
      <trkpt lat="45.52351" lon="5.95519">
        <ele>317</ele>
        <time>2022-07-24T08:47:55Z</time>
      </trkpt>
      <trkpt lat="45.52106" lon="5.95554">
        <ele>315</ele>
        <time>2022-07-24T08:48:12Z</time>
      </trkpt>
      <trkpt lat="45.5194" lon="5.95655">
        <ele>317</ele>
        <time>2022-07-24T08:48:25Z</time>
      </trkpt>
      <trkpt lat="45.51843" lon="5.95749">
        <ele>319</ele>
        <time>2022-07-24T08:48:34Z</time>
      </trkpt>
      <trkpt lat="45.51571" lon="5.95859">
        <ele>324</ele>
        <time>2022-07-24T08:48:58Z</time>
      </trkpt>
      <trkpt lat="45.51414" lon="5.95871">
        <ele>328</ele>
        <time>2022-07-24T08:49:11Z</time>
      </trkpt>
      <trkpt lat="45.51322" lon="5.95852">
        <ele>328</ele>
        <time>2022-07-24T08:49:20Z</time>
      </trkpt>
      <trkpt lat="45.51314" lon="5.95852">
        <ele>329</ele>
        <time>2022-07-24T08:49:21Z</time>
      </trkpt>
      <trkpt lat="45.51307" lon="5.95852">
        <ele>329</ele>
        <time>2022-07-24T08:49:22Z</time>
      </trkpt>
      <trkpt lat="45.51301" lon="5.95848">
        <ele>328</ele>
        <time>2022-07-24T08:49:23Z</time>
      </trkpt>
      <trkpt lat="45.5099" lon="5.95931">
        <ele>333</ele>
        <time>2022-07-24T08:49:53Z</time>
      </trkpt>
      <trkpt lat="45.50636" lon="5.96034">
        <ele>339</ele>
        <time>2022-07-24T08:50:22Z</time>
      </trkpt>
      <trkpt lat="45.50601" lon="5.96058">
        <ele>339</ele>
        <time>2022-07-24T08:50:25Z</time>
      </trkpt>
      <trkpt lat="45.50565" lon="5.96107">
        <ele>337</ele>
        <time>2022-07-24T08:50:32Z</time>
      </trkpt>
      <trkpt lat="45.50453" lon="5.96278">
        <ele>341</ele>
        <time>2022-07-24T08:50:46Z</time>
      </trkpt>
      <trkpt lat="45.50434" lon="5.96349">
        <ele>342</ele>
        <time>2022-07-24T08:50:50Z</time>
      </trkpt>
      <trkpt lat="45.50417" lon="5.96428">
        <ele>343</ele>
        <time>2022-07-24T08:50:54Z</time>
      </trkpt>
      <trkpt lat="45.50394" lon="5.9648">
        <ele>343</ele>
        <time>2022-07-24T08:50:57Z</time>
      </trkpt>
      <trkpt lat="45.50363" lon="5.9652">
        <ele>343</ele>
        <time>2022-07-24T08:51:00Z</time>
      </trkpt>
      <trkpt lat="45.50324" lon="5.96546">
        <ele>344</ele>
        <time>2022-07-24T08:51:03Z</time>
      </trkpt>
      <trkpt lat="45.50067" lon="5.96661">
        <ele>358</ele>
        <time>2022-07-24T08:51:21Z</time>
      </trkpt>
      <trkpt lat="45.50051" lon="5.96662">
        <ele>359</ele>
        <time>2022-07-24T08:51:22Z</time>
      </trkpt>
      <trkpt lat="45.50035" lon="5.96663">
        <ele>359</ele>
        <time>2022-07-24T08:51:23Z</time>
      </trkpt>
      <trkpt lat="45.49974" lon="5.96669">
        <ele>362</ele>
        <time>2022-07-24T08:51:27Z</time>
      </trkpt>
      <trkpt lat="45.49933" lon="5.96688">
        <ele>364</ele>
        <time>2022-07-24T08:51:30Z</time>
      </trkpt>
      <trkpt lat="45.49898" lon="5.96719">
        <ele>367</ele>
        <time>2022-07-24T08:51:33Z</time>
      </trkpt>
      <trkpt lat="45.49861" lon="5.96776">
        <ele>368</ele>
        <time>2022-07-24T08:51:37Z</time>
      </trkpt>
      <trkpt lat="45.49715" lon="5.97093">
        <ele>372</ele>
        <time>2022-07-24T08:51:55Z</time>
      </trkpt>
      <trkpt lat="45.49665" lon="5.97165">
        <ele>374</ele>
        <time>2022-07-24T08:52:00Z</time>
      </trkpt>
      <trkpt lat="45.49617" lon="5.97206">
        <ele>377</ele>
        <time>2022-07-24T08:52:04Z</time>
      </trkpt>
      <trkpt lat="45.49604" lon="5.97215">
        <ele>378</ele>
        <time>2022-07-24T08:52:05Z</time>
      </trkpt>
      <trkpt lat="45.4959" lon="5.97223">
        <ele>378</ele>
        <time>2022-07-24T08:52:06Z</time>
      </trkpt>
      <trkpt lat="45.49523" lon="5.97263">
        <ele>382</ele>
        <time>2022-07-24T08:52:11Z</time>
      </trkpt>
      <trkpt lat="45.49195" lon="5.97595">
        <ele>373</ele>
        <time>2022-07-24T08:52:41Z</time>
      </trkpt>
      <trkpt lat="45.49158" lon="5.97632">
        <ele>370</ele>
        <time>2022-07-24T08:52:46Z</time>
      </trkpt>
      <trkpt lat="45.49151" lon="5.97633">
        <ele>369</ele>
        <time>2022-07-24T08:52:48Z</time>
      </trkpt>
      <trkpt lat="45.49139" lon="5.97629">
        <ele>368</ele>
        <time>2022-07-24T08:52:51Z</time>
      </trkpt>
      <trkpt lat="45.49134" lon="5.97632">
        <ele>368</ele>
        <time>2022-07-24T08:52:52Z</time>
      </trkpt>
      <trkpt lat="45.4913" lon="5.97636">
        <ele>368</ele>
        <time>2022-07-24T08:52:53Z</time>
      </trkpt>
      <trkpt lat="45.49129" lon="5.97646">
        <ele>368</ele>
        <time>2022-07-24T08:52:54Z</time>
      </trkpt>
      <trkpt lat="45.4913" lon="5.97661">
        <ele>368</ele>
        <time>2022-07-24T08:52:56Z</time>
      </trkpt>
      <trkpt lat="45.49122" lon="5.97711">
        <ele>369</ele>
        <time>2022-07-24T08:53:01Z</time>
      </trkpt>
      <trkpt lat="45.49119" lon="5.97722">
        <ele>369</ele>
        <time>2022-07-24T08:53:02Z</time>
      </trkpt>
      <trkpt lat="45.49097" lon="5.97762">
        <ele>369</ele>
        <time>2022-07-24T08:53:06Z</time>
      </trkpt>
      <trkpt lat="45.49059" lon="5.97822">
        <ele>367</ele>
        <time>2022-07-24T08:53:13Z</time>
      </trkpt>
      <trkpt lat="45.49054" lon="5.97845">
        <ele>366</ele>
        <time>2022-07-24T08:53:15Z</time>
      </trkpt>
      <trkpt lat="45.49052" lon="5.97858">
        <ele>366</ele>
        <time>2022-07-24T08:53:16Z</time>
      </trkpt>
      <trkpt lat="45.49053" lon="5.97886">
        <ele>365</ele>
        <time>2022-07-24T08:53:18Z</time>
      </trkpt>
      <trkpt lat="45.49093" lon="5.97974">
        <ele>361</ele>
        <time>2022-07-24T08:53:25Z</time>
      </trkpt>
      <trkpt lat="45.49115" lon="5.98007">
        <ele>358</ele>
        <time>2022-07-24T08:53:28Z</time>
      </trkpt>
      <trkpt lat="45.49118" lon="5.98019">
        <ele>357</ele>
        <time>2022-07-24T08:53:29Z</time>
      </trkpt>
      <trkpt lat="45.49119" lon="5.98031">
        <ele>356</ele>
        <time>2022-07-24T08:53:30Z</time>
      </trkpt>
      <trkpt lat="45.49117" lon="5.98043">
        <ele>355</ele>
        <time>2022-07-24T08:53:31Z</time>
      </trkpt>
      <trkpt lat="45.49116" lon="5.98054">
        <ele>355</ele>
        <time>2022-07-24T08:53:32Z</time>
      </trkpt>
      <trkpt lat="45.49114" lon="5.98067">
        <ele>354</ele>
        <time>2022-07-24T08:53:33Z</time>
      </trkpt>
      <trkpt lat="45.49115" lon="5.98079">
        <ele>353</ele>
        <time>2022-07-24T08:53:34Z</time>
      </trkpt>
      <trkpt lat="45.49116" lon="5.98091">
        <ele>352</ele>
        <time>2022-07-24T08:53:35Z</time>
      </trkpt>
      <trkpt lat="45.49122" lon="5.981">
        <ele>351</ele>
        <time>2022-07-24T08:53:36Z</time>
      </trkpt>
      <trkpt lat="45.49227" lon="5.98168">
        <ele>343</ele>
        <time>2022-07-24T08:53:48Z</time>
      </trkpt>
      <trkpt lat="45.49323" lon="5.98315">
        <ele>329</ele>
        <time>2022-07-24T08:54:02Z</time>
      </trkpt>
      <trkpt lat="45.4933" lon="5.98319">
        <ele>328</ele>
        <time>2022-07-24T08:54:03Z</time>
      </trkpt>
      <trkpt lat="45.49337" lon="5.98324">
        <ele>327</ele>
        <time>2022-07-24T08:54:04Z</time>
      </trkpt>
      <trkpt lat="45.49356" lon="5.98323">
        <ele>324</ele>
        <time>2022-07-24T08:54:07Z</time>
      </trkpt>
      <trkpt lat="45.4936" lon="5.98321">
        <ele>323</ele>
        <time>2022-07-24T08:54:08Z</time>
      </trkpt>
      <trkpt lat="45.49362" lon="5.98334">
        <ele>322</ele>
        <time>2022-07-24T08:54:10Z</time>
      </trkpt>
      <trkpt lat="45.49359" lon="5.98339">
        <ele>321</ele>
        <time>2022-07-24T08:54:11Z</time>
      </trkpt>
      <trkpt lat="45.49352" lon="5.98342">
        <ele>321</ele>
        <time>2022-07-24T08:54:12Z</time>
      </trkpt>
      <trkpt lat="45.49344" lon="5.98343">
        <ele>320</ele>
        <time>2022-07-24T08:54:13Z</time>
      </trkpt>
      <trkpt lat="45.49337" lon="5.98345">
        <ele>320</ele>
        <time>2022-07-24T08:54:14Z</time>
      </trkpt>
      <trkpt lat="45.49243" lon="5.98363">
        <ele>315</ele>
        <time>2022-07-24T08:54:23Z</time>
      </trkpt>
      <trkpt lat="45.49176" lon="5.98356">
        <ele>312</ele>
        <time>2022-07-24T08:54:29Z</time>
      </trkpt>
      <trkpt lat="45.49166" lon="5.98359">
        <ele>311</ele>
        <time>2022-07-24T08:54:30Z</time>
      </trkpt>
      <trkpt lat="45.49156" lon="5.98366">
        <ele>310</ele>
        <time>2022-07-24T08:54:31Z</time>
      </trkpt>
      <trkpt lat="45.4915" lon="5.98377">
        <ele>309</ele>
        <time>2022-07-24T08:54:32Z</time>
      </trkpt>
      <trkpt lat="45.49145" lon="5.98391">
        <ele>308</ele>
        <time>2022-07-24T08:54:33Z</time>
      </trkpt>
      <trkpt lat="45.49144" lon="5.9842">
        <ele>307</ele>
        <time>2022-07-24T08:54:35Z</time>
      </trkpt>
      <trkpt lat="45.49153" lon="5.98515">
        <ele>307</ele>
        <time>2022-07-24T08:54:41Z</time>
      </trkpt>
      <trkpt lat="45.49161" lon="5.98546">
        <ele>307</ele>
        <time>2022-07-24T08:54:43Z</time>
      </trkpt>
      <trkpt lat="45.49381" lon="5.98867">
        <ele>300</ele>
        <time>2022-07-24T08:55:13Z</time>
      </trkpt>
      <trkpt lat="45.49401" lon="5.98894">
        <ele>300</ele>
        <time>2022-07-24T08:55:17Z</time>
      </trkpt>
      <trkpt lat="45.49405" lon="5.98895">
        <ele>300</ele>
        <time>2022-07-24T08:55:18Z</time>
      </trkpt>
      <trkpt lat="45.49414" lon="5.98881">
        <ele>299</ele>
        <time>2022-07-24T08:55:21Z</time>
      </trkpt>
      <trkpt lat="45.49411" lon="5.98876">
        <ele>299</ele>
        <time>2022-07-24T08:55:22Z</time>
      </trkpt>
      <trkpt lat="45.49407" lon="5.9887">
        <ele>299</ele>
        <time>2022-07-24T08:55:24Z</time>
      </trkpt>
      <trkpt lat="45.4939" lon="5.98856">
        <ele>299</ele>
        <time>2022-07-24T08:55:28Z</time>
      </trkpt>
      <trkpt lat="45.49308" lon="5.98738">
        <ele>299</ele>
        <time>2022-07-24T08:55:59Z</time>
      </trkpt>
      <trkpt lat="45.49276" lon="5.98688">
        <ele>299</ele>
        <time>2022-07-24T08:56:12Z</time>
      </trkpt>
      <trkpt lat="45.49271" lon="5.9869">
        <ele>299</ele>
        <time>2022-07-24T08:56:22Z</time>
      </trkpt>
      <trkpt lat="45.49273" lon="5.98685">
        <ele>300</ele>
        <time>2022-07-24T08:57:02Z</time>
      </trkpt>
      <trkpt lat="45.49278" lon="5.98687">
        <ele>300</ele>
        <time>2022-07-24T08:57:22Z</time>
      </trkpt>
      <trkpt lat="45.49285" lon="5.98693">
        <ele>299</ele>
        <time>2022-07-24T08:57:37Z</time>
      </trkpt>
      <trkpt lat="45.49289" lon="5.98697">
        <ele>299</ele>
        <time>2022-07-24T08:57:41Z</time>
      </trkpt>
      <trkpt lat="45.49295" lon="5.98706">
        <ele>299</ele>
        <time>2022-07-24T08:57:51Z</time>
      </trkpt>
      <trkpt lat="45.49299" lon="5.98709">
        <ele>299</ele>
        <time>2022-07-24T08:57:55Z</time>
      </trkpt>
      <trkpt lat="45.49321" lon="5.98741">
        <ele>298</ele>
        <time>2022-07-24T08:58:28Z</time>
      </trkpt>
      <trkpt lat="45.49324" lon="5.98746">
        <ele>298</ele>
        <time>2022-07-24T08:58:33Z</time>
      </trkpt>
      <trkpt lat="45.49333" lon="5.98756">
        <ele>298</ele>
        <time>2022-07-24T08:58:45Z</time>
      </trkpt>
      <trkpt lat="45.49343" lon="5.98778">
        <ele>298</ele>
        <time>2022-07-24T08:59:06Z</time>
      </trkpt>
      <trkpt lat="45.49346" lon="5.98785">
        <ele>298</ele>
        <time>2022-07-24T08:59:16Z</time>
      </trkpt>
      <trkpt lat="45.49354" lon="5.98794">
        <ele>298</ele>
        <time>2022-07-24T08:59:31Z</time>
      </trkpt>
      <trkpt lat="45.49357" lon="5.98799">
        <ele>298</ele>
        <time>2022-07-24T08:59:36Z</time>
      </trkpt>
      <trkpt lat="45.49363" lon="5.98808">
        <ele>298</ele>
        <time>2022-07-24T08:59:56Z</time>
      </trkpt>
      <trkpt lat="45.49369" lon="5.98806">
        <ele>298</ele>
        <time>2022-07-24T09:00:06Z</time>
      </trkpt>
      <trkpt lat="45.49376" lon="5.98805">
        <ele>298</ele>
        <time>2022-07-24T09:00:32Z</time>
      </trkpt>
      <trkpt lat="45.49388" lon="5.98808">
        <ele>301</ele>
        <time>2022-07-24T09:00:54Z</time>
      </trkpt>
      <trkpt lat="45.49393" lon="5.9881">
        <ele>301</ele>
        <time>2022-07-24T09:01:04Z</time>
      </trkpt>
      <trkpt lat="45.49397" lon="5.98815">
        <ele>300</ele>
        <time>2022-07-24T09:01:14Z</time>
      </trkpt>
      <trkpt lat="45.49401" lon="5.98821">
        <ele>300</ele>
        <time>2022-07-24T09:01:24Z</time>
      </trkpt>
      <trkpt lat="45.49412" lon="5.98827">
        <ele>298</ele>
        <time>2022-07-24T09:01:45Z</time>
      </trkpt>
      <trkpt lat="45.49417" lon="5.98832">
        <ele>297</ele>
        <time>2022-07-24T09:01:55Z</time>
      </trkpt>
      <trkpt lat="45.49422" lon="5.98835">
        <ele>298</ele>
        <time>2022-07-24T09:02:15Z</time>
      </trkpt>
      <trkpt lat="45.49421" lon="5.98828">
        <ele>301</ele>
        <time>2022-07-24T10:00:21Z</time>
      </trkpt>
      <trkpt lat="45.49417" lon="5.98834">
        <ele>300</ele>
        <time>2022-07-24T10:01:53Z</time>
      </trkpt>
      <trkpt lat="45.49413" lon="5.9883">
        <ele>300</ele>
        <time>2022-07-24T10:02:31Z</time>
      </trkpt>
      <trkpt lat="45.49409" lon="5.98834">
        <ele>300</ele>
        <time>2022-07-24T10:02:35Z</time>
      </trkpt>
      <trkpt lat="45.49404" lon="5.98846">
        <ele>301</ele>
        <time>2022-07-24T10:02:43Z</time>
      </trkpt>
      <trkpt lat="45.494" lon="5.98848">
        <ele>301</ele>
        <time>2022-07-24T10:02:47Z</time>
      </trkpt>
      <trkpt lat="45.49391" lon="5.98843">
        <ele>301</ele>
        <time>2022-07-24T10:02:55Z</time>
      </trkpt>
      <trkpt lat="45.49382" lon="5.98834">
        <ele>301</ele>
        <time>2022-07-24T10:03:04Z</time>
      </trkpt>
      <trkpt lat="45.49374" lon="5.98817">
        <ele>300</ele>
        <time>2022-07-24T10:03:16Z</time>
      </trkpt>
      <trkpt lat="45.49369" lon="5.98813">
        <ele>300</ele>
        <time>2022-07-24T10:03:20Z</time>
      </trkpt>
      <trkpt lat="45.4936" lon="5.98798">
        <ele>300</ele>
        <time>2022-07-24T10:03:32Z</time>
      </trkpt>
      <trkpt lat="45.49356" lon="5.98796">
        <ele>300</ele>
        <time>2022-07-24T10:03:35Z</time>
      </trkpt>
      <trkpt lat="45.49352" lon="5.98791">
        <ele>299</ele>
        <time>2022-07-24T10:03:39Z</time>
      </trkpt>
      <trkpt lat="45.4935" lon="5.98784">
        <ele>299</ele>
        <time>2022-07-24T10:03:43Z</time>
      </trkpt>
      <trkpt lat="45.49345" lon="5.9878">
        <ele>299</ele>
        <time>2022-07-24T10:03:47Z</time>
      </trkpt>
      <trkpt lat="45.49341" lon="5.98779">
        <ele>299</ele>
        <time>2022-07-24T10:03:51Z</time>
      </trkpt>
      <trkpt lat="45.49334" lon="5.98767">
        <ele>300</ele>
        <time>2022-07-24T10:04:00Z</time>
      </trkpt>
      <trkpt lat="45.49319" lon="5.98757">
        <ele>300</ele>
        <time>2022-07-24T10:04:15Z</time>
      </trkpt>
      <trkpt lat="45.49295" lon="5.9872">
        <ele>300</ele>
        <time>2022-07-24T10:04:49Z</time>
      </trkpt>
      <trkpt lat="45.49244" lon="5.98641">
        <ele>301</ele>
        <time>2022-07-24T10:05:02Z</time>
      </trkpt>
      <trkpt lat="45.49218" lon="5.98632">
        <ele>301</ele>
        <time>2022-07-24T10:05:06Z</time>
      </trkpt>
      <trkpt lat="45.4921" lon="5.98623">
        <ele>301</ele>
        <time>2022-07-24T10:05:12Z</time>
      </trkpt>
      <trkpt lat="45.49161" lon="5.98536">
        <ele>304</ele>
        <time>2022-07-24T10:05:21Z</time>
      </trkpt>
      <trkpt lat="45.49142" lon="5.98462">
        <ele>305</ele>
        <time>2022-07-24T10:05:27Z</time>
      </trkpt>
      <trkpt lat="45.49148" lon="5.98404">
        <ele>307</ele>
        <time>2022-07-24T10:05:31Z</time>
      </trkpt>
      <trkpt lat="45.49156" lon="5.98372">
        <ele>307</ele>
        <time>2022-07-24T10:05:33Z</time>
      </trkpt>
      <trkpt lat="45.49172" lon="5.98363">
        <ele>308</ele>
        <time>2022-07-24T10:05:35Z</time>
      </trkpt>
      <trkpt lat="45.4929" lon="5.98365">
        <ele>316</ele>
        <time>2022-07-24T10:05:47Z</time>
      </trkpt>
      <trkpt lat="45.49354" lon="5.98348">
        <ele>319</ele>
        <time>2022-07-24T10:05:54Z</time>
      </trkpt>
      <trkpt lat="45.4936" lon="5.98347">
        <ele>320</ele>
        <time>2022-07-24T10:05:55Z</time>
      </trkpt>
      <trkpt lat="45.49366" lon="5.9834">
        <ele>320</ele>
        <time>2022-07-24T10:05:56Z</time>
      </trkpt>
      <trkpt lat="45.49368" lon="5.98325">
        <ele>320</ele>
        <time>2022-07-24T10:05:58Z</time>
      </trkpt>
      <trkpt lat="45.49365" lon="5.98319">
        <ele>320</ele>
        <time>2022-07-24T10:05:59Z</time>
      </trkpt>
      <trkpt lat="45.4936" lon="5.98317">
        <ele>320</ele>
        <time>2022-07-24T10:06:00Z</time>
      </trkpt>
      <trkpt lat="45.49336" lon="5.98321">
        <ele>321</ele>
        <time>2022-07-24T10:06:04Z</time>
      </trkpt>
      <trkpt lat="45.49327" lon="5.98314">
        <ele>321</ele>
        <time>2022-07-24T10:06:05Z</time>
      </trkpt>
      <trkpt lat="45.49307" lon="5.98285">
        <ele>324</ele>
        <time>2022-07-24T10:06:09Z</time>
      </trkpt>
      <trkpt lat="45.49304" lon="5.98277">
        <ele>324</ele>
        <time>2022-07-24T10:06:10Z</time>
      </trkpt>
      <trkpt lat="45.49298" lon="5.98256">
        <ele>325</ele>
        <time>2022-07-24T10:06:13Z</time>
      </trkpt>
      <trkpt lat="45.49215" lon="5.98152">
        <ele>336</ele>
        <time>2022-07-24T10:06:26Z</time>
      </trkpt>
      <trkpt lat="45.49124" lon="5.98094">
        <ele>345</ele>
        <time>2022-07-24T10:06:38Z</time>
      </trkpt>
      <trkpt lat="45.4912" lon="5.98086">
        <ele>345</ele>
        <time>2022-07-24T10:06:39Z</time>
      </trkpt>
      <trkpt lat="45.49118" lon="5.98076">
        <ele>345</ele>
        <time>2022-07-24T10:06:40Z</time>
      </trkpt>
      <trkpt lat="45.49116" lon="5.98065">
        <ele>346</ele>
        <time>2022-07-24T10:06:41Z</time>
      </trkpt>
      <trkpt lat="45.49123" lon="5.98025">
        <ele>349</ele>
        <time>2022-07-24T10:06:45Z</time>
      </trkpt>
      <trkpt lat="45.49118" lon="5.98003">
        <ele>351</ele>
        <time>2022-07-24T10:06:47Z</time>
      </trkpt>
      <trkpt lat="45.49088" lon="5.97951">
        <ele>355</ele>
        <time>2022-07-24T10:06:52Z</time>
      </trkpt>
      <trkpt lat="45.49083" lon="5.97941">
        <ele>355</ele>
        <time>2022-07-24T10:06:53Z</time>
      </trkpt>
      <trkpt lat="45.49055" lon="5.97881">
        <ele>359</ele>
        <time>2022-07-24T10:06:58Z</time>
      </trkpt>
      <trkpt lat="45.49055" lon="5.97856">
        <ele>361</ele>
        <time>2022-07-24T10:07:00Z</time>
      </trkpt>
      <trkpt lat="45.49059" lon="5.97832">
        <ele>363</ele>
        <time>2022-07-24T10:07:02Z</time>
      </trkpt>
      <trkpt lat="45.49082" lon="5.97792">
        <ele>366</ele>
        <time>2022-07-24T10:07:07Z</time>
      </trkpt>
      <trkpt lat="45.49118" lon="5.97734">
        <ele>368</ele>
        <time>2022-07-24T10:07:14Z</time>
      </trkpt>
      <trkpt lat="45.4913" lon="5.97702">
        <ele>369</ele>
        <time>2022-07-24T10:07:17Z</time>
      </trkpt>
      <trkpt lat="45.49138" lon="5.97659">
        <ele>370</ele>
        <time>2022-07-24T10:07:21Z</time>
      </trkpt>
      <trkpt lat="45.49147" lon="5.97643">
        <ele>370</ele>
        <time>2022-07-24T10:07:23Z</time>
      </trkpt>
      <trkpt lat="45.49178" lon="5.97617">
        <ele>370</ele>
        <time>2022-07-24T10:07:27Z</time>
      </trkpt>
      <trkpt lat="45.49468" lon="5.9732">
        <ele>389</ele>
        <time>2022-07-24T10:07:58Z</time>
      </trkpt>
      <trkpt lat="45.49536" lon="5.97258">
        <ele>390</ele>
        <time>2022-07-24T10:08:04Z</time>
      </trkpt>
      <trkpt lat="45.49645" lon="5.97193">
        <ele>386</ele>
        <time>2022-07-24T10:08:12Z</time>
      </trkpt>
      <trkpt lat="45.49693" lon="5.97135">
        <ele>382</ele>
        <time>2022-07-24T10:08:16Z</time>
      </trkpt>
      <trkpt lat="45.49712" lon="5.97104">
        <ele>380</ele>
        <time>2022-07-24T10:08:18Z</time>
      </trkpt>
      <trkpt lat="45.49792" lon="5.96968">
        <ele>377</ele>
        <time>2022-07-24T10:08:26Z</time>
      </trkpt>
      <trkpt lat="45.49872" lon="5.96763">
        <ele>372</ele>
        <time>2022-07-24T10:08:37Z</time>
      </trkpt>
      <trkpt lat="45.49903" lon="5.96719">
        <ele>373</ele>
        <time>2022-07-24T10:08:40Z</time>
      </trkpt>
      <trkpt lat="45.49943" lon="5.9669">
        <ele>374</ele>
        <time>2022-07-24T10:08:43Z</time>
      </trkpt>
      <trkpt lat="45.49971" lon="5.96677">
        <ele>374</ele>
        <time>2022-07-24T10:08:45Z</time>
      </trkpt>
      <trkpt lat="45.49985" lon="5.96673">
        <ele>374</ele>
        <time>2022-07-24T10:08:46Z</time>
      </trkpt>
      <trkpt lat="45.5" lon="5.9667">
        <ele>374</ele>
        <time>2022-07-24T10:08:47Z</time>
      </trkpt>
      <trkpt lat="45.50013" lon="5.9667">
        <ele>374</ele>
        <time>2022-07-24T10:08:48Z</time>
      </trkpt>
      <trkpt lat="45.50086" lon="5.96661">
        <ele>368</ele>
        <time>2022-07-24T10:08:53Z</time>
      </trkpt>
      <trkpt lat="45.50178" lon="5.96621">
        <ele>364</ele>
        <time>2022-07-24T10:08:59Z</time>
      </trkpt>
      <trkpt lat="45.50361" lon="5.96528">
        <ele>353</ele>
        <time>2022-07-24T10:09:12Z</time>
      </trkpt>
      <trkpt lat="45.50386" lon="5.96498">
        <ele>352</ele>
        <time>2022-07-24T10:09:14Z</time>
      </trkpt>
      <trkpt lat="45.50405" lon="5.96465">
        <ele>350</ele>
        <time>2022-07-24T10:09:16Z</time>
      </trkpt>
      <trkpt lat="45.50421" lon="5.96425">
        <ele>350</ele>
        <time>2022-07-24T10:09:18Z</time>
      </trkpt>
      <trkpt lat="45.5045" lon="5.96299">
        <ele>349</ele>
        <time>2022-07-24T10:09:24Z</time>
      </trkpt>
      <trkpt lat="45.50464" lon="5.96266">
        <ele>348</ele>
        <time>2022-07-24T10:09:26Z</time>
      </trkpt>
      <trkpt lat="45.50609" lon="5.96059">
        <ele>340</ele>
        <time>2022-07-24T10:09:44Z</time>
      </trkpt>
      <trkpt lat="45.50651" lon="5.96036">
        <ele>340</ele>
        <time>2022-07-24T10:09:48Z</time>
      </trkpt>
      <trkpt lat="45.51004" lon="5.95934">
        <ele>337</ele>
        <time>2022-07-24T10:10:18Z</time>
      </trkpt>
      <trkpt lat="45.51056" lon="5.95924">
        <ele>333</ele>
        <time>2022-07-24T10:10:25Z</time>
      </trkpt>
      <trkpt lat="45.51264" lon="5.95877">
        <ele>331</ele>
        <time>2022-07-24T10:10:46Z</time>
      </trkpt>
      <trkpt lat="45.51304" lon="5.9588">
        <ele>329</ele>
        <time>2022-07-24T10:10:52Z</time>
      </trkpt>
      <trkpt lat="45.51317" lon="5.95866">
        <ele>328</ele>
        <time>2022-07-24T10:10:54Z</time>
      </trkpt>
      <trkpt lat="45.51332" lon="5.95862">
        <ele>329</ele>
        <time>2022-07-24T10:10:56Z</time>
      </trkpt>
      <trkpt lat="45.51393" lon="5.95881">
        <ele>331</ele>
        <time>2022-07-24T10:11:02Z</time>
      </trkpt>
      <trkpt lat="45.51554" lon="5.95871">
        <ele>331</ele>
        <time>2022-07-24T10:11:13Z</time>
      </trkpt>
      <trkpt lat="45.51632" lon="5.95837">
        <ele>327</ele>
        <time>2022-07-24T10:11:20Z</time>
      </trkpt>
      <trkpt lat="45.51659" lon="5.95825">
        <ele>323</ele>
        <time>2022-07-24T10:11:24Z</time>
      </trkpt>
      <trkpt lat="45.51847" lon="5.95754">
        <ele>317</ele>
        <time>2022-07-24T10:11:51Z</time>
      </trkpt>
      <trkpt lat="45.51888" lon="5.95718">
        <ele>317</ele>
        <time>2022-07-24T10:11:57Z</time>
      </trkpt>
      <trkpt lat="45.51958" lon="5.95646">
        <ele>320</ele>
        <time>2022-07-24T10:12:04Z</time>
      </trkpt>
      <trkpt lat="45.52122" lon="5.95552">
        <ele>321</ele>
        <time>2022-07-24T10:12:15Z</time>
      </trkpt>
      <trkpt lat="45.52351" lon="5.95526">
        <ele>320</ele>
        <time>2022-07-24T10:12:30Z</time>
      </trkpt>
      <trkpt lat="45.52494" lon="5.95527">
        <ele>320</ele>
        <time>2022-07-24T10:12:41Z</time>
      </trkpt>
      <trkpt lat="45.52577" lon="5.95525">
        <ele>319</ele>
        <time>2022-07-24T10:12:47Z</time>
      </trkpt>
      <trkpt lat="45.52621" lon="5.95527">
        <ele>315</ele>
        <time>2022-07-24T10:12:50Z</time>
      </trkpt>
      <trkpt lat="45.52635" lon="5.95526">
        <ele>315</ele>
        <time>2022-07-24T10:12:51Z</time>
      </trkpt>
      <trkpt lat="45.52891" lon="5.95525">
        <ele>311</ele>
        <time>2022-07-24T10:13:10Z</time>
      </trkpt>
      <trkpt lat="45.52973" lon="5.95551">
        <ele>308</ele>
        <time>2022-07-24T10:13:18Z</time>
      </trkpt>
      <trkpt lat="45.52978" lon="5.95557">
        <ele>307</ele>
        <time>2022-07-24T10:13:19Z</time>
      </trkpt>
      <trkpt lat="45.52982" lon="5.95562">
        <ele>307</ele>
        <time>2022-07-24T10:13:20Z</time>
      </trkpt>
      <trkpt lat="45.5299" lon="5.95563">
        <ele>306</ele>
        <time>2022-07-24T10:13:21Z</time>
      </trkpt>
      <trkpt lat="45.53005" lon="5.95562">
        <ele>304</ele>
        <time>2022-07-24T10:13:23Z</time>
      </trkpt>
      <trkpt lat="45.53022" lon="5.9557">
        <ele>304</ele>
        <time>2022-07-24T10:13:25Z</time>
      </trkpt>
      <trkpt lat="45.53157" lon="5.95604">
        <ele>307</ele>
        <time>2022-07-24T10:13:39Z</time>
      </trkpt>
      <trkpt lat="45.53294" lon="5.95606">
        <ele>309</ele>
        <time>2022-07-24T10:13:55Z</time>
      </trkpt>
      <trkpt lat="45.533" lon="5.95603">
        <ele>309</ele>
        <time>2022-07-24T10:13:56Z</time>
      </trkpt>
      <trkpt lat="45.53309" lon="5.95608">
        <ele>309</ele>
        <time>2022-07-24T10:13:58Z</time>
      </trkpt>
      <trkpt lat="45.53317" lon="5.95604">
        <ele>309</ele>
        <time>2022-07-24T10:14:00Z</time>
      </trkpt>
      <trkpt lat="45.53334" lon="5.95559">
        <ele>309</ele>
        <time>2022-07-24T10:14:05Z</time>
      </trkpt>
      <trkpt lat="45.53342" lon="5.95553">
        <ele>310</ele>
        <time>2022-07-24T10:14:06Z</time>
      </trkpt>
      <trkpt lat="45.53503" lon="5.95324">
        <ele>318</ele>
        <time>2022-07-24T10:14:29Z</time>
      </trkpt>
      <trkpt lat="45.53515" lon="5.95295">
        <ele>318</ele>
        <time>2022-07-24T10:14:32Z</time>
      </trkpt>
      <trkpt lat="45.53537" lon="5.95274">
        <ele>320</ele>
        <time>2022-07-24T10:14:35Z</time>
      </trkpt>
      <trkpt lat="45.53542" lon="5.95265">
        <ele>320</ele>
        <time>2022-07-24T10:14:36Z</time>
      </trkpt>
      <trkpt lat="45.53554" lon="5.95227">
        <ele>322</ele>
        <time>2022-07-24T10:14:39Z</time>
      </trkpt>
      <trkpt lat="45.53559" lon="5.95215">
        <ele>322</ele>
        <time>2022-07-24T10:14:40Z</time>
      </trkpt>
      <trkpt lat="45.5359" lon="5.95175">
        <ele>326</ele>
        <time>2022-07-24T10:14:44Z</time>
      </trkpt>
      <trkpt lat="45.53598" lon="5.95166">
        <ele>326</ele>
        <time>2022-07-24T10:14:45Z</time>
      </trkpt>
      <trkpt lat="45.53625" lon="5.9512">
        <ele>330</ele>
        <time>2022-07-24T10:14:50Z</time>
      </trkpt>
      <trkpt lat="45.53636" lon="5.95079">
        <ele>332</ele>
        <time>2022-07-24T10:14:54Z</time>
      </trkpt>
      <trkpt lat="45.53641" lon="5.95071">
        <ele>333</ele>
        <time>2022-07-24T10:14:55Z</time>
      </trkpt>
      <trkpt lat="45.5366" lon="5.95055">
        <ele>335</ele>
        <time>2022-07-24T10:14:58Z</time>
      </trkpt>
      <trkpt lat="45.53669" lon="5.95055">
        <ele>336</ele>
        <time>2022-07-24T10:14:59Z</time>
      </trkpt>
      <trkpt lat="45.53677" lon="5.95049">
        <ele>336</ele>
        <time>2022-07-24T10:15:00Z</time>
      </trkpt>
      <trkpt lat="45.53703" lon="5.95032">
        <ele>339</ele>
        <time>2022-07-24T10:15:03Z</time>
      </trkpt>
      <trkpt lat="45.5374" lon="5.95025">
        <ele>345</ele>
        <time>2022-07-24T10:15:08Z</time>
      </trkpt>
      <trkpt lat="45.53756" lon="5.95022">
        <ele>347</ele>
        <time>2022-07-24T10:15:11Z</time>
      </trkpt>
      <trkpt lat="45.53769" lon="5.95031">
        <ele>349</ele>
        <time>2022-07-24T10:15:13Z</time>
      </trkpt>
      <trkpt lat="45.53807" lon="5.95">
        <ele>352</ele>
        <time>2022-07-24T10:15:19Z</time>
      </trkpt>
      <trkpt lat="45.5381" lon="5.94989">
        <ele>353</ele>
        <time>2022-07-24T10:15:20Z</time>
      </trkpt>
      <trkpt lat="45.53825" lon="5.94977">
        <ele>354</ele>
        <time>2022-07-24T10:15:22Z</time>
      </trkpt>
      <trkpt lat="45.53869" lon="5.9495">
        <ele>361</ele>
        <time>2022-07-24T10:15:27Z</time>
      </trkpt>
      <trkpt lat="45.53879" lon="5.94945">
        <ele>361</ele>
        <time>2022-07-24T10:15:28Z</time>
      </trkpt>
      <trkpt lat="45.53988" lon="5.94893">
        <ele>373</ele>
        <time>2022-07-24T10:15:39Z</time>
      </trkpt>
      <trkpt lat="45.54002" lon="5.94887">
        <ele>374</ele>
        <time>2022-07-24T10:15:41Z</time>
      </trkpt>
      <trkpt lat="45.54014" lon="5.94884">
        <ele>374</ele>
        <time>2022-07-24T10:15:42Z</time>
      </trkpt>
      <trkpt lat="45.5405" lon="5.94875">
        <ele>376</ele>
        <time>2022-07-24T10:15:46Z</time>
      </trkpt>
      <trkpt lat="45.54067" lon="5.94862">
        <ele>377</ele>
        <time>2022-07-24T10:15:48Z</time>
      </trkpt>
      <trkpt lat="45.54095" lon="5.94818">
        <ele>379</ele>
        <time>2022-07-24T10:15:52Z</time>
      </trkpt>
      <trkpt lat="45.54107" lon="5.94778">
        <ele>381</ele>
        <time>2022-07-24T10:15:56Z</time>
      </trkpt>
      <trkpt lat="45.54109" lon="5.94762">
        <ele>381</ele>
        <time>2022-07-24T10:15:58Z</time>
      </trkpt>
      <trkpt lat="45.54271" lon="5.94755">
        <ele>388</ele>
        <time>2022-07-24T10:16:13Z</time>
      </trkpt>
      <trkpt lat="45.54504" lon="5.94731">
        <ele>381</ele>
        <time>2022-07-24T10:16:30Z</time>
      </trkpt>
      <trkpt lat="45.54611" lon="5.94739">
        <ele>379</ele>
        <time>2022-07-24T10:16:38Z</time>
      </trkpt>
      <trkpt lat="45.54624" lon="5.94736">
        <ele>380</ele>
        <time>2022-07-24T10:16:39Z</time>
      </trkpt>
      <trkpt lat="45.54639" lon="5.94733">
        <ele>380</ele>
        <time>2022-07-24T10:16:40Z</time>
      </trkpt>
      <trkpt lat="45.5492" lon="5.94642">
        <ele>378</ele>
        <time>2022-07-24T10:17:05Z</time>
      </trkpt>
      <trkpt lat="45.54929" lon="5.94643">
        <ele>377</ele>
        <time>2022-07-24T10:17:06Z</time>
      </trkpt>
      <trkpt lat="45.54962" lon="5.94654">
        <ele>375</ele>
        <time>2022-07-24T10:17:10Z</time>
      </trkpt>
      <trkpt lat="45.5497" lon="5.94666">
        <ele>373</ele>
        <time>2022-07-24T10:17:12Z</time>
      </trkpt>
      <trkpt lat="45.5511" lon="5.94634">
        <ele>366</ele>
        <time>2022-07-24T10:17:25Z</time>
      </trkpt>
      <trkpt lat="45.5512" lon="5.94629">
        <ele>365</ele>
        <time>2022-07-24T10:17:26Z</time>
      </trkpt>
      <trkpt lat="45.55136" lon="5.94591">
        <ele>363</ele>
        <time>2022-07-24T10:17:29Z</time>
      </trkpt>
      <trkpt lat="45.5515" lon="5.94549">
        <ele>361</ele>
        <time>2022-07-24T10:17:32Z</time>
      </trkpt>
      <trkpt lat="45.55157" lon="5.94502">
        <ele>359</ele>
        <time>2022-07-24T10:17:35Z</time>
      </trkpt>
      <trkpt lat="45.55158" lon="5.94484">
        <ele>359</ele>
        <time>2022-07-24T10:17:36Z</time>
      </trkpt>
      <trkpt lat="45.55155" lon="5.94376">
        <ele>354</ele>
        <time>2022-07-24T10:17:43Z</time>
      </trkpt>
      <trkpt lat="45.55134" lon="5.94285">
        <ele>347</ele>
        <time>2022-07-24T10:17:50Z</time>
      </trkpt>
      <trkpt lat="45.55113" lon="5.94192">
        <ele>344</ele>
        <time>2022-07-24T10:17:57Z</time>
      </trkpt>
      <trkpt lat="45.55112" lon="5.94178">
        <ele>343</ele>
        <time>2022-07-24T10:17:58Z</time>
      </trkpt>
      <trkpt lat="45.55114" lon="5.94164">
        <ele>343</ele>
        <time>2022-07-24T10:17:59Z</time>
      </trkpt>
      <trkpt lat="45.55117" lon="5.94151">
        <ele>342</ele>
        <time>2022-07-24T10:18:00Z</time>
      </trkpt>
      <trkpt lat="45.55123" lon="5.94141">
        <ele>341</ele>
        <time>2022-07-24T10:18:01Z</time>
      </trkpt>
      <trkpt lat="45.55131" lon="5.94137">
        <ele>341</ele>
        <time>2022-07-24T10:18:02Z</time>
      </trkpt>
      <trkpt lat="45.55139" lon="5.94134">
        <ele>340</ele>
        <time>2022-07-24T10:18:03Z</time>
      </trkpt>
      <trkpt lat="45.55147" lon="5.94134">
        <ele>339</ele>
        <time>2022-07-24T10:18:04Z</time>
      </trkpt>
      <trkpt lat="45.55231" lon="5.94132">
        <ele>334</ele>
        <time>2022-07-24T10:18:15Z</time>
      </trkpt>
      <trkpt lat="45.55237" lon="5.94112">
        <ele>333</ele>
        <time>2022-07-24T10:18:18Z</time>
      </trkpt>
      <trkpt lat="45.55233" lon="5.94095">
        <ele>333</ele>
        <time>2022-07-24T10:18:20Z</time>
      </trkpt>
      <trkpt lat="45.55224" lon="5.9408">
        <ele>333</ele>
        <time>2022-07-24T10:18:22Z</time>
      </trkpt>
      <trkpt lat="45.55188" lon="5.93948">
        <ele>351</ele>
        <time>2022-07-24T10:18:37Z</time>
      </trkpt>
      <trkpt lat="45.55186" lon="5.93927">
        <ele>355</ele>
        <time>2022-07-24T10:18:40Z</time>
      </trkpt>
      <trkpt lat="45.55187" lon="5.93915">
        <ele>357</ele>
        <time>2022-07-24T10:18:42Z</time>
      </trkpt>
      <trkpt lat="45.55199" lon="5.93874">
        <ele>361</ele>
        <time>2022-07-24T10:18:47Z</time>
      </trkpt>
      <trkpt lat="45.55202" lon="5.93865">
        <ele>361</ele>
        <time>2022-07-24T10:18:48Z</time>
      </trkpt>
      <trkpt lat="45.5521" lon="5.93828">
        <ele>366</ele>
        <time>2022-07-24T10:18:52Z</time>
      </trkpt>
      <trkpt lat="45.55212" lon="5.93819">
        <ele>367</ele>
        <time>2022-07-24T10:18:53Z</time>
      </trkpt>
      <trkpt lat="45.55213" lon="5.93784">
        <ele>371</ele>
        <time>2022-07-24T10:18:58Z</time>
      </trkpt>
      <trkpt lat="45.55215" lon="5.93786">
        <ele>374</ele>
        <time>2022-07-24T10:19:08Z</time>
      </trkpt>
      <trkpt lat="45.55212" lon="5.93801">
        <ele>374</ele>
        <time>2022-07-24T10:19:40Z</time>
      </trkpt>
      <trkpt lat="45.55194" lon="5.9389">
        <ele>370</ele>
        <time>2022-07-24T10:19:49Z</time>
      </trkpt>
      <trkpt lat="45.5519" lon="5.93903">
        <ele>367</ele>
        <time>2022-07-24T10:19:51Z</time>
      </trkpt>
      <trkpt lat="45.55193" lon="5.93914">
        <ele>364</ele>
        <time>2022-07-24T10:19:53Z</time>
      </trkpt>
      <trkpt lat="45.55224" lon="5.93916">
        <ele>360</ele>
        <time>2022-07-24T10:19:58Z</time>
      </trkpt>
      <trkpt lat="45.55518" lon="5.93872">
        <ele>351</ele>
        <time>2022-07-24T10:20:26Z</time>
      </trkpt>
      <trkpt lat="45.55531" lon="5.93876">
        <ele>350</ele>
        <time>2022-07-24T10:20:28Z</time>
      </trkpt>
      <trkpt lat="45.55545" lon="5.9389">
        <ele>348</ele>
        <time>2022-07-24T10:20:30Z</time>
      </trkpt>
      <trkpt lat="45.55554" lon="5.93941">
        <ele>343</ele>
        <time>2022-07-24T10:20:35Z</time>
      </trkpt>
      <trkpt lat="45.55559" lon="5.93947">
        <ele>342</ele>
        <time>2022-07-24T10:20:36Z</time>
      </trkpt>
      <trkpt lat="45.55565" lon="5.93951">
        <ele>341</ele>
        <time>2022-07-24T10:20:37Z</time>
      </trkpt>
      <trkpt lat="45.556" lon="5.93955">
        <ele>338</ele>
        <time>2022-07-24T10:20:41Z</time>
      </trkpt>
      <trkpt lat="45.5561" lon="5.93952">
        <ele>338</ele>
        <time>2022-07-24T10:20:42Z</time>
      </trkpt>
      <trkpt lat="45.55681" lon="5.93948">
        <ele>331</ele>
        <time>2022-07-24T10:20:50Z</time>
      </trkpt>
      <trkpt lat="45.55693" lon="5.93954">
        <ele>329</ele>
        <time>2022-07-24T10:20:52Z</time>
      </trkpt>
      <trkpt lat="45.55698" lon="5.93972">
        <ele>327</ele>
        <time>2022-07-24T10:20:54Z</time>
      </trkpt>
      <trkpt lat="45.55695" lon="5.93981">
        <ele>326</ele>
        <time>2022-07-24T10:20:55Z</time>
      </trkpt>
      <trkpt lat="45.55688" lon="5.93987">
        <ele>326</ele>
        <time>2022-07-24T10:20:56Z</time>
      </trkpt>
      <trkpt lat="45.55677" lon="5.94">
        <ele>325</ele>
        <time>2022-07-24T10:20:58Z</time>
      </trkpt>
      <trkpt lat="45.5567" lon="5.94015">
        <ele>325</ele>
        <time>2022-07-24T10:21:00Z</time>
      </trkpt>
      <trkpt lat="45.55666" lon="5.9403">
        <ele>324</ele>
        <time>2022-07-24T10:21:02Z</time>
      </trkpt>
      <trkpt lat="45.55666" lon="5.94045">
        <ele>323</ele>
        <time>2022-07-24T10:21:05Z</time>
      </trkpt>
      <trkpt lat="45.55676" lon="5.94049">
        <ele>322</ele>
        <time>2022-07-24T10:21:07Z</time>
      </trkpt>
      <trkpt lat="45.55725" lon="5.94027">
        <ele>322</ele>
        <time>2022-07-24T10:21:13Z</time>
      </trkpt>
      <trkpt lat="45.55785" lon="5.93983">
        <ele>319</ele>
        <time>2022-07-24T10:21:21Z</time>
      </trkpt>
      <trkpt lat="45.55791" lon="5.93983">
        <ele>318</ele>
        <time>2022-07-24T10:21:22Z</time>
      </trkpt>
      <trkpt lat="45.55797" lon="5.93986">
        <ele>317</ele>
        <time>2022-07-24T10:21:23Z</time>
      </trkpt>
      <trkpt lat="45.55801" lon="5.93995">
        <ele>317</ele>
        <time>2022-07-24T10:21:24Z</time>
      </trkpt>
      <trkpt lat="45.55804" lon="5.94005">
        <ele>317</ele>
        <time>2022-07-24T10:21:25Z</time>
      </trkpt>
      <trkpt lat="45.55836" lon="5.94096">
        <ele>312</ele>
        <time>2022-07-24T10:21:32Z</time>
      </trkpt>
      <trkpt lat="45.5584" lon="5.9411">
        <ele>311</ele>
        <time>2022-07-24T10:21:33Z</time>
      </trkpt>
      <trkpt lat="45.55849" lon="5.94121">
        <ele>310</ele>
        <time>2022-07-24T10:21:34Z</time>
      </trkpt>
      <trkpt lat="45.55869" lon="5.94135">
        <ele>308</ele>
        <time>2022-07-24T10:21:36Z</time>
      </trkpt>
      <trkpt lat="45.55889" lon="5.94137">
        <ele>306</ele>
        <time>2022-07-24T10:21:38Z</time>
      </trkpt>
      <trkpt lat="45.559" lon="5.94137">
        <ele>306</ele>
        <time>2022-07-24T10:21:39Z</time>
      </trkpt>
      <trkpt lat="45.5595" lon="5.94139">
        <ele>300</ele>
        <time>2022-07-24T10:21:44Z</time>
      </trkpt>
      <trkpt lat="45.55959" lon="5.94142">
        <ele>300</ele>
        <time>2022-07-24T10:21:45Z</time>
      </trkpt>
      <trkpt lat="45.55964" lon="5.94148">
        <ele>299</ele>
        <time>2022-07-24T10:21:46Z</time>
      </trkpt>
      <trkpt lat="45.55998" lon="5.94196">
        <ele>296</ele>
        <time>2022-07-24T10:21:51Z</time>
      </trkpt>
      <trkpt lat="45.56006" lon="5.94203">
        <ele>294</ele>
        <time>2022-07-24T10:21:52Z</time>
      </trkpt>
      <trkpt lat="45.56017" lon="5.94215">
        <ele>294</ele>
        <time>2022-07-24T10:21:53Z</time>
      </trkpt>
      <trkpt lat="45.56049" lon="5.94236">
        <ele>289</ele>
        <time>2022-07-24T10:21:57Z</time>
      </trkpt>
      <trkpt lat="45.56059" lon="5.94235">
        <ele>288</ele>
        <time>2022-07-24T10:21:58Z</time>
      </trkpt>
      <trkpt lat="45.56077" lon="5.94229">
        <ele>286</ele>
        <time>2022-07-24T10:22:00Z</time>
      </trkpt>
      <trkpt lat="45.56093" lon="5.94215">
        <ele>284</ele>
        <time>2022-07-24T10:22:02Z</time>
      </trkpt>
      <trkpt lat="45.56121" lon="5.94189">
        <ele>283</ele>
        <time>2022-07-24T10:22:06Z</time>
      </trkpt>
      <trkpt lat="45.56129" lon="5.94184">
        <ele>283</ele>
        <time>2022-07-24T10:22:07Z</time>
      </trkpt>
      <trkpt lat="45.56158" lon="5.94177">
        <ele>282</ele>
        <time>2022-07-24T10:22:10Z</time>
      </trkpt>
      <trkpt lat="45.56176" lon="5.94182">
        <ele>282</ele>
        <time>2022-07-24T10:22:12Z</time>
      </trkpt>
      <trkpt lat="45.56322" lon="5.94305">
        <ele>282</ele>
        <time>2022-07-24T10:22:28Z</time>
      </trkpt>
      <trkpt lat="45.56414" lon="5.94393">
        <ele>282</ele>
        <time>2022-07-24T10:22:40Z</time>
      </trkpt>
      <trkpt lat="45.56421" lon="5.94404">
        <ele>281</ele>
        <time>2022-07-24T10:22:42Z</time>
      </trkpt>
      <trkpt lat="45.56426" lon="5.94408">
        <ele>281</ele>
        <time>2022-07-24T10:22:44Z</time>
      </trkpt>
      <trkpt lat="45.56432" lon="5.94402">
        <ele>280</ele>
        <time>2022-07-24T10:22:46Z</time>
      </trkpt>
      <trkpt lat="45.56433" lon="5.94387">
        <ele>280</ele>
        <time>2022-07-24T10:22:48Z</time>
      </trkpt>
      <trkpt lat="45.56442" lon="5.94363">
        <ele>281</ele>
        <time>2022-07-24T10:22:52Z</time>
      </trkpt>
      <trkpt lat="45.56444" lon="5.94356">
        <ele>281</ele>
        <time>2022-07-24T10:22:54Z</time>
      </trkpt>
      <trkpt lat="45.56447" lon="5.94351">
        <ele>280</ele>
        <time>2022-07-24T10:23:06Z</time>
      </trkpt>
      <trkpt lat="45.5645" lon="5.94345">
        <ele>280</ele>
        <time>2022-07-24T10:23:10Z</time>
      </trkpt>
      <trkpt lat="45.5645" lon="5.94338">
        <ele>280</ele>
        <time>2022-07-24T10:23:12Z</time>
      </trkpt>
      <trkpt lat="45.56432" lon="5.94356">
        <ele>281</ele>
        <time>2022-07-24T10:25:49Z</time>
      </trkpt>
      <trkpt lat="45.56436" lon="5.94346">
        <ele>281</ele>
        <time>2022-07-24T10:25:54Z</time>
      </trkpt>
      <trkpt lat="45.56442" lon="5.94349">
        <ele>280</ele>
        <time>2022-07-24T10:26:14Z</time>
      </trkpt>
      <trkpt lat="45.56425" lon="5.94386">
        <ele>281</ele>
        <time>2022-07-24T10:26:32Z</time>
      </trkpt>
      <trkpt lat="45.5642" lon="5.94387">
        <ele>282</ele>
        <time>2022-07-24T10:26:33Z</time>
      </trkpt>
      <trkpt lat="45.56398" lon="5.94367">
        <ele>282</ele>
        <time>2022-07-24T10:26:37Z</time>
      </trkpt>
      <trkpt lat="45.56188" lon="5.94176">
        <ele>282</ele>
        <time>2022-07-24T10:27:06Z</time>
      </trkpt>
      <trkpt lat="45.56164" lon="5.94167">
        <ele>282</ele>
        <time>2022-07-24T10:27:09Z</time>
      </trkpt>
      <trkpt lat="45.56138" lon="5.9417">
        <ele>282</ele>
        <time>2022-07-24T10:27:12Z</time>
      </trkpt>
      <trkpt lat="45.56124" lon="5.94174">
        <ele>282</ele>
        <time>2022-07-24T10:27:14Z</time>
      </trkpt>
      <trkpt lat="45.56074" lon="5.94219">
        <ele>282</ele>
        <time>2022-07-24T10:27:21Z</time>
      </trkpt>
      <trkpt lat="45.56056" lon="5.94223">
        <ele>282</ele>
        <time>2022-07-24T10:27:23Z</time>
      </trkpt>
      <trkpt lat="45.56047" lon="5.94222">
        <ele>283</ele>
        <time>2022-07-24T10:27:24Z</time>
      </trkpt>
      <trkpt lat="45.56018" lon="5.94208">
        <ele>285</ele>
        <time>2022-07-24T10:27:27Z</time>
      </trkpt>
      <trkpt lat="45.55986" lon="5.94166">
        <ele>290</ele>
        <time>2022-07-24T10:27:32Z</time>
      </trkpt>
      <trkpt lat="45.55973" lon="5.94146">
        <ele>292</ele>
        <time>2022-07-24T10:27:34Z</time>
      </trkpt>
      <trkpt lat="45.55967" lon="5.94136">
        <ele>292</ele>
        <time>2022-07-24T10:27:35Z</time>
      </trkpt>
      <trkpt lat="45.55959" lon="5.94131">
        <ele>293</ele>
        <time>2022-07-24T10:27:36Z</time>
      </trkpt>
      <trkpt lat="45.55861" lon="5.94124">
        <ele>300</ele>
        <time>2022-07-24T10:27:46Z</time>
      </trkpt>
      <trkpt lat="45.55852" lon="5.94118">
        <ele>301</ele>
        <time>2022-07-24T10:27:47Z</time>
      </trkpt>
      <trkpt lat="45.55845" lon="5.9411">
        <ele>302</ele>
        <time>2022-07-24T10:27:48Z</time>
      </trkpt>
      <trkpt lat="45.55839" lon="5.941">
        <ele>302</ele>
        <time>2022-07-24T10:27:49Z</time>
      </trkpt>
      <trkpt lat="45.55803" lon="5.93982">
        <ele>313</ele>
        <time>2022-07-24T10:28:00Z</time>
      </trkpt>
      <trkpt lat="45.55797" lon="5.93978">
        <ele>313</ele>
        <time>2022-07-24T10:28:01Z</time>
      </trkpt>
      <trkpt lat="45.55791" lon="5.93976">
        <ele>313</ele>
        <time>2022-07-24T10:28:02Z</time>
      </trkpt>
      <trkpt lat="45.55785" lon="5.93976">
        <ele>313</ele>
        <time>2022-07-24T10:28:03Z</time>
      </trkpt>
      <trkpt lat="45.55695" lon="5.94032">
        <ele>319</ele>
        <time>2022-07-24T10:28:14Z</time>
      </trkpt>
      <trkpt lat="45.55672" lon="5.94041">
        <ele>320</ele>
        <time>2022-07-24T10:28:18Z</time>
      </trkpt>
      <trkpt lat="45.5567" lon="5.94023">
        <ele>321</ele>
        <time>2022-07-24T10:28:21Z</time>
      </trkpt>
      <trkpt lat="45.55672" lon="5.94017">
        <ele>322</ele>
        <time>2022-07-24T10:28:22Z</time>
      </trkpt>
      <trkpt lat="45.55674" lon="5.94009">
        <ele>322</ele>
        <time>2022-07-24T10:28:23Z</time>
      </trkpt>
      <trkpt lat="45.55684" lon="5.93998">
        <ele>323</ele>
        <time>2022-07-24T10:28:25Z</time>
      </trkpt>
      <trkpt lat="45.55696" lon="5.93989">
        <ele>324</ele>
        <time>2022-07-24T10:28:27Z</time>
      </trkpt>
      <trkpt lat="45.55701" lon="5.93982">
        <ele>324</ele>
        <time>2022-07-24T10:28:28Z</time>
      </trkpt>
      <trkpt lat="45.55703" lon="5.93974">
        <ele>324</ele>
        <time>2022-07-24T10:28:29Z</time>
      </trkpt>
      <trkpt lat="45.55703" lon="5.93964">
        <ele>324</ele>
        <time>2022-07-24T10:28:30Z</time>
      </trkpt>
      <trkpt lat="45.55702" lon="5.93954">
        <ele>324</ele>
        <time>2022-07-24T10:28:31Z</time>
      </trkpt>
      <trkpt lat="45.55697" lon="5.93946">
        <ele>324</ele>
        <time>2022-07-24T10:28:32Z</time>
      </trkpt>
      <trkpt lat="45.5569" lon="5.93942">
        <ele>324</ele>
        <time>2022-07-24T10:28:33Z</time>
      </trkpt>
      <trkpt lat="45.55565" lon="5.93944">
        <ele>335</ele>
        <time>2022-07-24T10:28:48Z</time>
      </trkpt>
      <trkpt lat="45.55557" lon="5.93936">
        <ele>336</ele>
        <time>2022-07-24T10:28:50Z</time>
      </trkpt>
      <trkpt lat="45.5555" lon="5.93891">
        <ele>339</ele>
        <time>2022-07-24T10:28:55Z</time>
      </trkpt>
      <trkpt lat="45.55548" lon="5.93881">
        <ele>340</ele>
        <time>2022-07-24T10:28:56Z</time>
      </trkpt>
      <trkpt lat="45.55539" lon="5.93868">
        <ele>341</ele>
        <time>2022-07-24T10:28:58Z</time>
      </trkpt>
      <trkpt lat="45.55532" lon="5.93865">
        <ele>342</ele>
        <time>2022-07-24T10:28:59Z</time>
      </trkpt>
      <trkpt lat="45.55523" lon="5.93864">
        <ele>343</ele>
        <time>2022-07-24T10:29:00Z</time>
      </trkpt>
      <trkpt lat="45.55513" lon="5.93864">
        <ele>343</ele>
        <time>2022-07-24T10:29:01Z</time>
      </trkpt>
      <trkpt lat="45.55219" lon="5.93899">
        <ele>359</ele>
        <time>2022-07-24T10:29:32Z</time>
      </trkpt>
      <trkpt lat="45.55201" lon="5.93904">
        <ele>359</ele>
        <time>2022-07-24T10:29:36Z</time>
      </trkpt>
      <trkpt lat="45.55193" lon="5.939">
        <ele>360</ele>
        <time>2022-07-24T10:29:38Z</time>
      </trkpt>
      <trkpt lat="45.55194" lon="5.93885">
        <ele>361</ele>
        <time>2022-07-24T10:29:40Z</time>
      </trkpt>
      <trkpt lat="45.552" lon="5.93872">
        <ele>362</ele>
        <time>2022-07-24T10:29:42Z</time>
      </trkpt>
      <trkpt lat="45.55201" lon="5.93865">
        <ele>362</ele>
        <time>2022-07-24T10:29:43Z</time>
      </trkpt>
      <trkpt lat="45.55213" lon="5.93788">
        <ele>372</ele>
        <time>2022-07-24T10:29:53Z</time>
      </trkpt>
      <trkpt lat="45.55215" lon="5.93784">
        <ele>375</ele>
        <time>2022-07-24T10:30:19Z</time>
      </trkpt>
      <trkpt lat="45.55219" lon="5.93782">
        <ele>376</ele>
        <time>2022-07-24T10:30:54Z</time>
      </trkpt>
      <trkpt lat="45.55224" lon="5.93781">
        <ele>376</ele>
        <time>2022-07-24T10:31:00Z</time>
      </trkpt>
      <trkpt lat="45.55229" lon="5.93771">
        <ele>379</ele>
        <time>2022-07-24T11:11:07Z</time>
      </trkpt>
      <trkpt lat="45.55221" lon="5.93767">
        <ele>386</ele>
        <time>2022-07-24T12:45:41Z</time>
      </trkpt>
    </trkseg>
  </trk>
  <trk>
    <name><![CDATA[21 juil. 2022 à 06:30:27]]></name>
    <cmt><![CDATA[21 juil. 2022 à 06:30:27]]></cmt>
    <trkseg>
      <trkpt lat="45.99699" lon="6.83419">
        <ele>1943</ele>
        <time>2022-07-21T04:30:28Z</time>
      </trkpt>
      <trkpt lat="45.99699" lon="6.83419">
        <ele>1943</ele>
        <time>2022-07-21T04:30:29Z</time>
      </trkpt>
      <trkpt lat="45.99707" lon="6.83407">
        <ele>1939</ele>
        <time>2022-07-21T04:30:56Z</time>
      </trkpt>
      <trkpt lat="45.9971" lon="6.834">
        <ele>1945</ele>
        <time>2022-07-21T04:31:04Z</time>
      </trkpt>
      <trkpt lat="45.99714" lon="6.83397">
        <ele>1943</ele>
        <time>2022-07-21T04:31:09Z</time>
      </trkpt>
      <trkpt lat="45.99719" lon="6.83391">
        <ele>1943</ele>
        <time>2022-07-21T04:31:15Z</time>
      </trkpt>
      <trkpt lat="45.99719" lon="6.83382">
        <ele>1944</ele>
        <time>2022-07-21T04:31:24Z</time>
      </trkpt>
      <trkpt lat="45.99725" lon="6.83378">
        <ele>1944</ele>
        <time>2022-07-21T04:31:33Z</time>
      </trkpt>
      <trkpt lat="45.99731" lon="6.83378">
        <ele>1944</ele>
        <time>2022-07-21T04:31:35Z</time>
      </trkpt>
      <trkpt lat="45.99732" lon="6.83371">
        <ele>1945</ele>
        <time>2022-07-21T04:31:39Z</time>
      </trkpt>
      <trkpt lat="45.99736" lon="6.83367">
        <ele>1945</ele>
        <time>2022-07-21T04:31:42Z</time>
      </trkpt>
      <trkpt lat="45.99743" lon="6.83367">
        <ele>1945</ele>
        <time>2022-07-21T04:31:48Z</time>
      </trkpt>
      <trkpt lat="45.99747" lon="6.83369">
        <ele>1944</ele>
        <time>2022-07-21T04:31:51Z</time>
      </trkpt>
      <trkpt lat="45.99758" lon="6.83367">
        <ele>1943</ele>
        <time>2022-07-21T04:31:58Z</time>
      </trkpt>
      <trkpt lat="45.99767" lon="6.83366">
        <ele>1944</ele>
        <time>2022-07-21T04:32:07Z</time>
      </trkpt>
      <trkpt lat="45.99768" lon="6.83364">
        <ele>1942</ele>
        <time>2022-07-21T04:32:55Z</time>
      </trkpt>
      <trkpt lat="45.99762" lon="6.83364">
        <ele>1943</ele>
        <time>2022-07-21T04:33:02Z</time>
      </trkpt>
      <trkpt lat="45.99757" lon="6.83364">
        <ele>1943</ele>
        <time>2022-07-21T04:33:06Z</time>
      </trkpt>
      <trkpt lat="45.99749" lon="6.83368">
        <ele>1943</ele>
        <time>2022-07-21T04:33:13Z</time>
      </trkpt>
      <trkpt lat="45.99736" lon="6.83365">
        <ele>1944</ele>
        <time>2022-07-21T04:33:24Z</time>
      </trkpt>
      <trkpt lat="45.99732" lon="6.83367">
        <ele>1944</ele>
        <time>2022-07-21T04:33:28Z</time>
      </trkpt>
      <trkpt lat="45.99726" lon="6.83379">
        <ele>1944</ele>
        <time>2022-07-21T04:33:40Z</time>
      </trkpt>
      <trkpt lat="45.99723" lon="6.8339">
        <ele>1944</ele>
        <time>2022-07-21T04:33:50Z</time>
      </trkpt>
      <trkpt lat="45.99719" lon="6.83396">
        <ele>1943</ele>
        <time>2022-07-21T04:33:56Z</time>
      </trkpt>
      <trkpt lat="45.99714" lon="6.83401">
        <ele>1942</ele>
        <time>2022-07-21T04:34:02Z</time>
      </trkpt>
      <trkpt lat="45.9971" lon="6.83406">
        <ele>1942</ele>
        <time>2022-07-21T04:34:06Z</time>
      </trkpt>
      <trkpt lat="45.99705" lon="6.83408">
        <ele>1942</ele>
        <time>2022-07-21T04:34:11Z</time>
      </trkpt>
      <trkpt lat="45.99702" lon="6.83417">
        <ele>1941</ele>
        <time>2022-07-21T04:34:19Z</time>
      </trkpt>
      <trkpt lat="45.99707" lon="6.83421">
        <ele>1940</ele>
        <time>2022-07-21T04:38:03Z</time>
      </trkpt>
      <trkpt lat="45.99719" lon="6.83422">
        <ele>1941</ele>
        <time>2022-07-21T04:38:15Z</time>
      </trkpt>
      <trkpt lat="45.99733" lon="6.83412">
        <ele>1942</ele>
        <time>2022-07-21T04:38:31Z</time>
      </trkpt>
      <trkpt lat="45.99738" lon="6.83411">
        <ele>1942</ele>
        <time>2022-07-21T04:38:35Z</time>
      </trkpt>
      <trkpt lat="45.99745" lon="6.83412">
        <ele>1941</ele>
        <time>2022-07-21T04:38:42Z</time>
      </trkpt>
      <trkpt lat="45.9975" lon="6.8341">
        <ele>1942</ele>
        <time>2022-07-21T04:38:47Z</time>
      </trkpt>
      <trkpt lat="45.99767" lon="6.83408">
        <ele>1943</ele>
        <time>2022-07-21T04:39:05Z</time>
      </trkpt>
      <trkpt lat="45.99771" lon="6.83409">
        <ele>1943</ele>
        <time>2022-07-21T04:39:08Z</time>
      </trkpt>
      <trkpt lat="45.99776" lon="6.83409">
        <ele>1944</ele>
        <time>2022-07-21T04:39:13Z</time>
      </trkpt>
      <trkpt lat="45.9978" lon="6.83406">
        <ele>1944</ele>
        <time>2022-07-21T04:39:16Z</time>
      </trkpt>
      <trkpt lat="45.99791" lon="6.83407">
        <ele>1946</ele>
        <time>2022-07-21T04:39:28Z</time>
      </trkpt>
      <trkpt lat="45.99793" lon="6.83413">
        <ele>1946</ele>
        <time>2022-07-21T04:39:33Z</time>
      </trkpt>
      <trkpt lat="45.99798" lon="6.83418">
        <ele>1948</ele>
        <time>2022-07-21T04:39:40Z</time>
      </trkpt>
      <trkpt lat="45.99808" lon="6.83424">
        <ele>1950</ele>
        <time>2022-07-21T04:39:54Z</time>
      </trkpt>
      <trkpt lat="45.99813" lon="6.83424">
        <ele>1950</ele>
        <time>2022-07-21T04:39:59Z</time>
      </trkpt>
      <trkpt lat="45.99818" lon="6.83424">
        <ele>1951</ele>
        <time>2022-07-21T04:40:06Z</time>
      </trkpt>
      <trkpt lat="45.99822" lon="6.83427">
        <ele>1952</ele>
        <time>2022-07-21T04:40:11Z</time>
      </trkpt>
      <trkpt lat="45.99831" lon="6.83429">
        <ele>1953</ele>
        <time>2022-07-21T04:40:19Z</time>
      </trkpt>
      <trkpt lat="45.99861" lon="6.83424">
        <ele>1957</ele>
        <time>2022-07-21T04:40:57Z</time>
      </trkpt>
      <trkpt lat="45.99866" lon="6.83422">
        <ele>1959</ele>
        <time>2022-07-21T04:41:05Z</time>
      </trkpt>
      <trkpt lat="45.99871" lon="6.83423">
        <ele>1959</ele>
        <time>2022-07-21T04:41:10Z</time>
      </trkpt>
      <trkpt lat="45.99875" lon="6.83421">
        <ele>1960</ele>
        <time>2022-07-21T04:41:15Z</time>
      </trkpt>
      <trkpt lat="45.99879" lon="6.83421">
        <ele>1961</ele>
        <time>2022-07-21T04:41:20Z</time>
      </trkpt>
      <trkpt lat="45.99883" lon="6.83421">
        <ele>1962</ele>
        <time>2022-07-21T04:41:27Z</time>
      </trkpt>
      <trkpt lat="45.99891" lon="6.8343">
        <ele>1964</ele>
        <time>2022-07-21T04:41:36Z</time>
      </trkpt>
      <trkpt lat="45.999" lon="6.83436">
        <ele>1965</ele>
        <time>2022-07-21T04:41:46Z</time>
      </trkpt>
      <trkpt lat="45.99905" lon="6.83442">
        <ele>1966</ele>
        <time>2022-07-21T04:41:54Z</time>
      </trkpt>
      <trkpt lat="45.99916" lon="6.83451">
        <ele>1969</ele>
        <time>2022-07-21T04:42:12Z</time>
      </trkpt>
      <trkpt lat="45.99916" lon="6.83457">
        <ele>1970</ele>
        <time>2022-07-21T04:42:17Z</time>
      </trkpt>
      <trkpt lat="45.99925" lon="6.83464">
        <ele>1972</ele>
        <time>2022-07-21T04:42:29Z</time>
      </trkpt>
      <trkpt lat="45.99935" lon="6.8348">
        <ele>1975</ele>
        <time>2022-07-21T04:42:48Z</time>
      </trkpt>
      <trkpt lat="45.9998" lon="6.83529">
        <ele>1988</ele>
        <time>2022-07-21T04:44:22Z</time>
      </trkpt>
      <trkpt lat="45.99979" lon="6.83535">
        <ele>1988</ele>
        <time>2022-07-21T04:44:24Z</time>
      </trkpt>
      <trkpt lat="45.99979" lon="6.83539">
        <ele>1989</ele>
        <time>2022-07-21T04:44:27Z</time>
      </trkpt>
      <trkpt lat="45.99986" lon="6.83556">
        <ele>1992</ele>
        <time>2022-07-21T04:44:50Z</time>
      </trkpt>
      <trkpt lat="45.99991" lon="6.83565">
        <ele>1994</ele>
        <time>2022-07-21T04:45:00Z</time>
      </trkpt>
      <trkpt lat="46.00001" lon="6.83576">
        <ele>1997</ele>
        <time>2022-07-21T04:45:20Z</time>
      </trkpt>
      <trkpt lat="46.00011" lon="6.83587">
        <ele>2000</ele>
        <time>2022-07-21T04:45:36Z</time>
      </trkpt>
      <trkpt lat="46.00013" lon="6.83597">
        <ele>2001</ele>
        <time>2022-07-21T04:45:46Z</time>
      </trkpt>
      <trkpt lat="46.00015" lon="6.83602">
        <ele>2002</ele>
        <time>2022-07-21T04:45:52Z</time>
      </trkpt>
      <trkpt lat="46.00021" lon="6.83608">
        <ele>2004</ele>
        <time>2022-07-21T04:46:02Z</time>
      </trkpt>
      <trkpt lat="46.00027" lon="6.83614">
        <ele>2006</ele>
        <time>2022-07-21T04:46:13Z</time>
      </trkpt>
      <trkpt lat="46.00044" lon="6.83635">
        <ele>2009</ele>
        <time>2022-07-21T04:46:38Z</time>
      </trkpt>
      <trkpt lat="46.00048" lon="6.83637">
        <ele>2009</ele>
        <time>2022-07-21T04:46:42Z</time>
      </trkpt>
      <trkpt lat="46.00053" lon="6.8364">
        <ele>2009</ele>
        <time>2022-07-21T04:47:05Z</time>
      </trkpt>
      <trkpt lat="46.00057" lon="6.83643">
        <ele>2010</ele>
        <time>2022-07-21T04:47:15Z</time>
      </trkpt>
      <trkpt lat="46.00064" lon="6.8365">
        <ele>2011</ele>
        <time>2022-07-21T04:47:24Z</time>
      </trkpt>
      <trkpt lat="46.00083" lon="6.83666">
        <ele>2014</ele>
        <time>2022-07-21T04:47:44Z</time>
      </trkpt>
      <trkpt lat="46.00089" lon="6.83674">
        <ele>2014</ele>
        <time>2022-07-21T04:47:52Z</time>
      </trkpt>
      <trkpt lat="46.00099" lon="6.83686">
        <ele>2015</ele>
        <time>2022-07-21T04:48:08Z</time>
      </trkpt>
      <trkpt lat="46.00107" lon="6.83692">
        <ele>2016</ele>
        <time>2022-07-21T04:48:17Z</time>
      </trkpt>
      <trkpt lat="46.0011" lon="6.83697">
        <ele>2016</ele>
        <time>2022-07-21T04:48:21Z</time>
      </trkpt>
      <trkpt lat="46.00112" lon="6.83703">
        <ele>2016</ele>
        <time>2022-07-21T04:48:25Z</time>
      </trkpt>
      <trkpt lat="46.00115" lon="6.8371">
        <ele>2017</ele>
        <time>2022-07-21T04:48:32Z</time>
      </trkpt>
      <trkpt lat="46.00117" lon="6.83717">
        <ele>2018</ele>
        <time>2022-07-21T04:48:38Z</time>
      </trkpt>
      <trkpt lat="46.00119" lon="6.83723">
        <ele>2018</ele>
        <time>2022-07-21T04:48:42Z</time>
      </trkpt>
      <trkpt lat="46.00124" lon="6.83726">
        <ele>2018</ele>
        <time>2022-07-21T04:48:46Z</time>
      </trkpt>
      <trkpt lat="46.00128" lon="6.83727">
        <ele>2018</ele>
        <time>2022-07-21T04:48:50Z</time>
      </trkpt>
      <trkpt lat="46.00133" lon="6.83725">
        <ele>2018</ele>
        <time>2022-07-21T04:48:54Z</time>
      </trkpt>
      <trkpt lat="46.00137" lon="6.83729">
        <ele>2018</ele>
        <time>2022-07-21T04:48:58Z</time>
      </trkpt>
      <trkpt lat="46.00141" lon="6.83733">
        <ele>2018</ele>
        <time>2022-07-21T04:49:02Z</time>
      </trkpt>
      <trkpt lat="46.00153" lon="6.83745">
        <ele>2018</ele>
        <time>2022-07-21T04:49:14Z</time>
      </trkpt>
      <trkpt lat="46.00154" lon="6.83751">
        <ele>2018</ele>
        <time>2022-07-21T04:49:18Z</time>
      </trkpt>
      <trkpt lat="46.00154" lon="6.83758">
        <ele>2018</ele>
        <time>2022-07-21T04:49:22Z</time>
      </trkpt>
      <trkpt lat="46.00159" lon="6.83755">
        <ele>2019</ele>
        <time>2022-07-21T04:50:07Z</time>
      </trkpt>
      <trkpt lat="46.00166" lon="6.83756">
        <ele>2019</ele>
        <time>2022-07-21T04:50:17Z</time>
      </trkpt>
      <trkpt lat="46.00176" lon="6.83766">
        <ele>2021</ele>
        <time>2022-07-21T04:50:34Z</time>
      </trkpt>
      <trkpt lat="46.00196" lon="6.83779">
        <ele>2024</ele>
        <time>2022-07-21T04:51:09Z</time>
      </trkpt>
      <trkpt lat="46.002" lon="6.83786">
        <ele>2025</ele>
        <time>2022-07-21T04:51:16Z</time>
      </trkpt>
      <trkpt lat="46.00208" lon="6.83792">
        <ele>2027</ele>
        <time>2022-07-21T04:51:26Z</time>
      </trkpt>
      <trkpt lat="46.00219" lon="6.83797">
        <ele>2029</ele>
        <time>2022-07-21T04:51:44Z</time>
      </trkpt>
      <trkpt lat="46.00223" lon="6.83804">
        <ele>2031</ele>
        <time>2022-07-21T04:51:54Z</time>
      </trkpt>
      <trkpt lat="46.00228" lon="6.83815">
        <ele>2034</ele>
        <time>2022-07-21T04:52:09Z</time>
      </trkpt>
      <trkpt lat="46.0024" lon="6.8382">
        <ele>2037</ele>
        <time>2022-07-21T04:52:27Z</time>
      </trkpt>
      <trkpt lat="46.00244" lon="6.83829">
        <ele>2038</ele>
        <time>2022-07-21T04:52:39Z</time>
      </trkpt>
      <trkpt lat="46.00247" lon="6.83835">
        <ele>2040</ele>
        <time>2022-07-21T04:52:51Z</time>
      </trkpt>
      <trkpt lat="46.00251" lon="6.8384">
        <ele>2042</ele>
        <time>2022-07-21T04:52:57Z</time>
      </trkpt>
      <trkpt lat="46.00251" lon="6.83851">
        <ele>2044</ele>
        <time>2022-07-21T04:53:09Z</time>
      </trkpt>
      <trkpt lat="46.00251" lon="6.83857">
        <ele>2045</ele>
        <time>2022-07-21T04:53:15Z</time>
      </trkpt>
      <trkpt lat="46.00255" lon="6.83864">
        <ele>2046</ele>
        <time>2022-07-21T04:53:23Z</time>
      </trkpt>
      <trkpt lat="46.00259" lon="6.83875">
        <ele>2047</ele>
        <time>2022-07-21T04:53:32Z</time>
      </trkpt>
      <trkpt lat="46.00267" lon="6.83888">
        <ele>2050</ele>
        <time>2022-07-21T04:53:51Z</time>
      </trkpt>
      <trkpt lat="46.00268" lon="6.83896">
        <ele>2052</ele>
        <time>2022-07-21T04:54:03Z</time>
      </trkpt>
      <trkpt lat="46.00277" lon="6.83902">
        <ele>2056</ele>
        <time>2022-07-21T04:54:24Z</time>
      </trkpt>
      <trkpt lat="46.00285" lon="6.83912">
        <ele>2060</ele>
        <time>2022-07-21T04:54:44Z</time>
      </trkpt>
      <trkpt lat="46.00287" lon="6.83918">
        <ele>2061</ele>
        <time>2022-07-21T04:54:54Z</time>
      </trkpt>
      <trkpt lat="46.00291" lon="6.83924">
        <ele>2063</ele>
        <time>2022-07-21T04:55:05Z</time>
      </trkpt>
      <trkpt lat="46.00297" lon="6.83928">
        <ele>2064</ele>
        <time>2022-07-21T04:55:16Z</time>
      </trkpt>
      <trkpt lat="46.00303" lon="6.83925">
        <ele>2066</ele>
        <time>2022-07-21T04:55:26Z</time>
      </trkpt>
      <trkpt lat="46.00308" lon="6.83925">
        <ele>2066</ele>
        <time>2022-07-21T04:55:30Z</time>
      </trkpt>
      <trkpt lat="46.00315" lon="6.83927">
        <ele>2068</ele>
        <time>2022-07-21T04:55:42Z</time>
      </trkpt>
      <trkpt lat="46.00319" lon="6.83932">
        <ele>2070</ele>
        <time>2022-07-21T04:55:52Z</time>
      </trkpt>
      <trkpt lat="46.00328" lon="6.8393">
        <ele>2074</ele>
        <time>2022-07-21T04:56:12Z</time>
      </trkpt>
      <trkpt lat="46.00334" lon="6.8393">
        <ele>2076</ele>
        <time>2022-07-21T04:56:22Z</time>
      </trkpt>
      <trkpt lat="46.00337" lon="6.83921">
        <ele>2077</ele>
        <time>2022-07-21T04:56:32Z</time>
      </trkpt>
      <trkpt lat="46.00341" lon="6.83918">
        <ele>2079</ele>
        <time>2022-07-21T04:56:42Z</time>
      </trkpt>
      <trkpt lat="46.00346" lon="6.83916">
        <ele>2081</ele>
        <time>2022-07-21T04:56:52Z</time>
      </trkpt>
      <trkpt lat="46.00364" lon="6.83917">
        <ele>2085</ele>
        <time>2022-07-21T04:57:19Z</time>
      </trkpt>
      <trkpt lat="46.00384" lon="6.83926">
        <ele>2088</ele>
        <time>2022-07-21T04:57:42Z</time>
      </trkpt>
      <trkpt lat="46.00388" lon="6.83931">
        <ele>2089</ele>
        <time>2022-07-21T04:57:50Z</time>
      </trkpt>
      <trkpt lat="46.00403" lon="6.83938">
        <ele>2092</ele>
        <time>2022-07-21T04:58:09Z</time>
      </trkpt>
      <trkpt lat="46.00409" lon="6.83943">
        <ele>2094</ele>
        <time>2022-07-21T04:58:19Z</time>
      </trkpt>
      <trkpt lat="46.0042" lon="6.83952">
        <ele>2097</ele>
        <time>2022-07-21T04:58:39Z</time>
      </trkpt>
      <trkpt lat="46.00424" lon="6.83956">
        <ele>2099</ele>
        <time>2022-07-21T04:58:45Z</time>
      </trkpt>
      <trkpt lat="46.00431" lon="6.83973">
        <ele>2101</ele>
        <time>2022-07-21T04:59:02Z</time>
      </trkpt>
      <trkpt lat="46.00438" lon="6.83981">
        <ele>2102</ele>
        <time>2022-07-21T04:59:12Z</time>
      </trkpt>
      <trkpt lat="46.00444" lon="6.83984">
        <ele>2104</ele>
        <time>2022-07-21T04:59:20Z</time>
      </trkpt>
      <trkpt lat="46.00455" lon="6.83997">
        <ele>2105</ele>
        <time>2022-07-21T04:59:34Z</time>
      </trkpt>
      <trkpt lat="46.00482" lon="6.84012">
        <ele>2109</ele>
        <time>2022-07-21T05:00:06Z</time>
      </trkpt>
      <trkpt lat="46.00486" lon="6.84014">
        <ele>2110</ele>
        <time>2022-07-21T05:00:11Z</time>
      </trkpt>
      <trkpt lat="46.00491" lon="6.84013">
        <ele>2110</ele>
        <time>2022-07-21T05:00:16Z</time>
      </trkpt>
      <trkpt lat="46.00497" lon="6.84009">
        <ele>2111</ele>
        <time>2022-07-21T05:00:24Z</time>
      </trkpt>
      <trkpt lat="46.00503" lon="6.84007">
        <ele>2111</ele>
        <time>2022-07-21T05:00:30Z</time>
      </trkpt>
      <trkpt lat="46.0052" lon="6.84009">
        <ele>2113</ele>
        <time>2022-07-21T05:00:50Z</time>
      </trkpt>
      <trkpt lat="46.00547" lon="6.84031">
        <ele>2119</ele>
        <time>2022-07-21T05:01:29Z</time>
      </trkpt>
      <trkpt lat="46.0056" lon="6.84039">
        <ele>2121</ele>
        <time>2022-07-21T05:01:46Z</time>
      </trkpt>
      <trkpt lat="46.00564" lon="6.84044">
        <ele>2122</ele>
        <time>2022-07-21T05:01:56Z</time>
      </trkpt>
      <trkpt lat="46.0057" lon="6.84048">
        <ele>2123</ele>
        <time>2022-07-21T05:02:06Z</time>
      </trkpt>
      <trkpt lat="46.00577" lon="6.84059">
        <ele>2127</ele>
        <time>2022-07-21T05:02:26Z</time>
      </trkpt>
      <trkpt lat="46.00579" lon="6.84067">
        <ele>2128</ele>
        <time>2022-07-21T05:02:36Z</time>
      </trkpt>
      <trkpt lat="46.00584" lon="6.8407">
        <ele>2130</ele>
        <time>2022-07-21T05:02:46Z</time>
      </trkpt>
      <trkpt lat="46.00589" lon="6.84073">
        <ele>2131</ele>
        <time>2022-07-21T05:02:56Z</time>
      </trkpt>
      <trkpt lat="46.00594" lon="6.84076">
        <ele>2133</ele>
        <time>2022-07-21T05:03:06Z</time>
      </trkpt>
      <trkpt lat="46.0061" lon="6.84087">
        <ele>2136</ele>
        <time>2022-07-21T05:03:29Z</time>
      </trkpt>
      <trkpt lat="46.00616" lon="6.84093">
        <ele>2138</ele>
        <time>2022-07-21T05:03:41Z</time>
      </trkpt>
      <trkpt lat="46.00627" lon="6.84102">
        <ele>2141</ele>
        <time>2022-07-21T05:04:01Z</time>
      </trkpt>
      <trkpt lat="46.00636" lon="6.84114">
        <ele>2144</ele>
        <time>2022-07-21T05:04:21Z</time>
      </trkpt>
      <trkpt lat="46.00642" lon="6.84118">
        <ele>2145</ele>
        <time>2022-07-21T05:04:32Z</time>
      </trkpt>
      <trkpt lat="46.00641" lon="6.84125">
        <ele>2148</ele>
        <time>2022-07-21T05:04:47Z</time>
      </trkpt>
      <trkpt lat="46.00645" lon="6.84128">
        <ele>2150</ele>
        <time>2022-07-21T05:04:57Z</time>
      </trkpt>
      <trkpt lat="46.00647" lon="6.84135">
        <ele>2153</ele>
        <time>2022-07-21T05:05:12Z</time>
      </trkpt>
      <trkpt lat="46.00648" lon="6.84142">
        <ele>2154</ele>
        <time>2022-07-21T05:05:22Z</time>
      </trkpt>
      <trkpt lat="46.00652" lon="6.84151">
        <ele>2156</ele>
        <time>2022-07-21T05:05:34Z</time>
      </trkpt>
      <trkpt lat="46.00654" lon="6.84157">
        <ele>2158</ele>
        <time>2022-07-21T05:05:45Z</time>
      </trkpt>
      <trkpt lat="46.00656" lon="6.84164">
        <ele>2160</ele>
        <time>2022-07-21T05:05:55Z</time>
      </trkpt>
      <trkpt lat="46.00659" lon="6.84169">
        <ele>2160</ele>
        <time>2022-07-21T05:06:00Z</time>
      </trkpt>
      <trkpt lat="46.00663" lon="6.84177">
        <ele>2162</ele>
        <time>2022-07-21T05:06:27Z</time>
      </trkpt>
      <trkpt lat="46.00666" lon="6.84182">
        <ele>2162</ele>
        <time>2022-07-21T05:06:32Z</time>
      </trkpt>
      <trkpt lat="46.00669" lon="6.84185">
        <ele>2163</ele>
        <time>2022-07-21T05:06:37Z</time>
      </trkpt>
      <trkpt lat="46.00678" lon="6.84215">
        <ele>2168</ele>
        <time>2022-07-21T05:07:08Z</time>
      </trkpt>
      <trkpt lat="46.0069" lon="6.84242">
        <ele>2171</ele>
        <time>2022-07-21T05:07:37Z</time>
      </trkpt>
      <trkpt lat="46.00694" lon="6.84253">
        <ele>2172</ele>
        <time>2022-07-21T05:07:48Z</time>
      </trkpt>
      <trkpt lat="46.00691" lon="6.84263">
        <ele>2174</ele>
        <time>2022-07-21T05:07:59Z</time>
      </trkpt>
      <trkpt lat="46.00687" lon="6.84267">
        <ele>2175</ele>
        <time>2022-07-21T05:08:04Z</time>
      </trkpt>
      <trkpt lat="46.00682" lon="6.8427">
        <ele>2176</ele>
        <time>2022-07-21T05:08:12Z</time>
      </trkpt>
      <trkpt lat="46.00672" lon="6.8428">
        <ele>2178</ele>
        <time>2022-07-21T05:08:30Z</time>
      </trkpt>
      <trkpt lat="46.00668" lon="6.84286">
        <ele>2180</ele>
        <time>2022-07-21T05:08:40Z</time>
      </trkpt>
      <trkpt lat="46.00664" lon="6.8429">
        <ele>2182</ele>
        <time>2022-07-21T05:08:50Z</time>
      </trkpt>
      <trkpt lat="46.00659" lon="6.84292">
        <ele>2184</ele>
        <time>2022-07-21T05:09:05Z</time>
      </trkpt>
      <trkpt lat="46.00654" lon="6.84297">
        <ele>2187</ele>
        <time>2022-07-21T05:09:15Z</time>
      </trkpt>
      <trkpt lat="46.00651" lon="6.84306">
        <ele>2188</ele>
        <time>2022-07-21T05:09:25Z</time>
      </trkpt>
      <trkpt lat="46.00646" lon="6.84322">
        <ele>2191</ele>
        <time>2022-07-21T05:09:46Z</time>
      </trkpt>
      <trkpt lat="46.00651" lon="6.84328">
        <ele>2192</ele>
        <time>2022-07-21T05:09:57Z</time>
      </trkpt>
      <trkpt lat="46.00647" lon="6.84333">
        <ele>2194</ele>
        <time>2022-07-21T05:10:07Z</time>
      </trkpt>
      <trkpt lat="46.00646" lon="6.8434">
        <ele>2195</ele>
        <time>2022-07-21T05:10:17Z</time>
      </trkpt>
      <trkpt lat="46.0065" lon="6.84341">
        <ele>2197</ele>
        <time>2022-07-21T05:10:27Z</time>
      </trkpt>
      <trkpt lat="46.00656" lon="6.84339">
        <ele>2198</ele>
        <time>2022-07-21T05:10:37Z</time>
      </trkpt>
      <trkpt lat="46.00661" lon="6.84338">
        <ele>2200</ele>
        <time>2022-07-21T05:10:47Z</time>
      </trkpt>
      <trkpt lat="46.00664" lon="6.84343">
        <ele>2203</ele>
        <time>2022-07-21T05:11:02Z</time>
      </trkpt>
      <trkpt lat="46.00673" lon="6.84345">
        <ele>2208</ele>
        <time>2022-07-21T05:11:27Z</time>
      </trkpt>
      <trkpt lat="46.0068" lon="6.84355">
        <ele>2213</ele>
        <time>2022-07-21T05:12:00Z</time>
      </trkpt>
      <trkpt lat="46.00681" lon="6.84362">
        <ele>2214</ele>
        <time>2022-07-21T05:12:10Z</time>
      </trkpt>
      <trkpt lat="46.00685" lon="6.84363">
        <ele>2215</ele>
        <time>2022-07-21T05:12:15Z</time>
      </trkpt>
      <trkpt lat="46.0069" lon="6.84369">
        <ele>2216</ele>
        <time>2022-07-21T05:12:24Z</time>
      </trkpt>
      <trkpt lat="46.00695" lon="6.8437">
        <ele>2217</ele>
        <time>2022-07-21T05:12:34Z</time>
      </trkpt>
      <trkpt lat="46.00711" lon="6.84378">
        <ele>2223</ele>
        <time>2022-07-21T05:13:06Z</time>
      </trkpt>
      <trkpt lat="46.00718" lon="6.84381">
        <ele>2225</ele>
        <time>2022-07-21T05:13:21Z</time>
      </trkpt>
      <trkpt lat="46.00724" lon="6.84382">
        <ele>2227</ele>
        <time>2022-07-21T05:13:31Z</time>
      </trkpt>
      <trkpt lat="46.00728" lon="6.84387">
        <ele>2229</ele>
        <time>2022-07-21T05:13:46Z</time>
      </trkpt>
      <trkpt lat="46.0073" lon="6.84394">
        <ele>2231</ele>
        <time>2022-07-21T05:13:58Z</time>
      </trkpt>
      <trkpt lat="46.00724" lon="6.84398">
        <ele>2233</ele>
        <time>2022-07-21T05:14:09Z</time>
      </trkpt>
      <trkpt lat="46.00719" lon="6.84404">
        <ele>2235</ele>
        <time>2022-07-21T05:14:19Z</time>
      </trkpt>
      <trkpt lat="46.0072" lon="6.8441">
        <ele>2236</ele>
        <time>2022-07-21T05:14:29Z</time>
      </trkpt>
      <trkpt lat="46.00717" lon="6.84416">
        <ele>2239</ele>
        <time>2022-07-21T05:14:44Z</time>
      </trkpt>
      <trkpt lat="46.00709" lon="6.84424">
        <ele>2243</ele>
        <time>2022-07-21T05:15:04Z</time>
      </trkpt>
      <trkpt lat="46.00703" lon="6.84423">
        <ele>2244</ele>
        <time>2022-07-21T05:15:14Z</time>
      </trkpt>
      <trkpt lat="46.00699" lon="6.84429">
        <ele>2246</ele>
        <time>2022-07-21T05:15:29Z</time>
      </trkpt>
      <trkpt lat="46.00706" lon="6.84434">
        <ele>2248</ele>
        <time>2022-07-21T05:15:39Z</time>
      </trkpt>
      <trkpt lat="46.00715" lon="6.84441">
        <ele>2250</ele>
        <time>2022-07-21T05:15:58Z</time>
      </trkpt>
      <trkpt lat="46.00709" lon="6.84443">
        <ele>2252</ele>
        <time>2022-07-21T05:16:10Z</time>
      </trkpt>
      <trkpt lat="46.00708" lon="6.84449">
        <ele>2254</ele>
        <time>2022-07-21T05:16:20Z</time>
      </trkpt>
      <trkpt lat="46.00716" lon="6.84459">
        <ele>2258</ele>
        <time>2022-07-21T05:16:45Z</time>
      </trkpt>
      <trkpt lat="46.00715" lon="6.84465">
        <ele>2260</ele>
        <time>2022-07-21T05:17:00Z</time>
      </trkpt>
      <trkpt lat="46.00711" lon="6.84467">
        <ele>2262</ele>
        <time>2022-07-21T05:17:10Z</time>
      </trkpt>
      <trkpt lat="46.00706" lon="6.84472">
        <ele>2263</ele>
        <time>2022-07-21T05:17:20Z</time>
      </trkpt>
      <trkpt lat="46.00711" lon="6.84475">
        <ele>2265</ele>
        <time>2022-07-21T05:17:30Z</time>
      </trkpt>
      <trkpt lat="46.0071" lon="6.84481">
        <ele>2267</ele>
        <time>2022-07-21T05:17:45Z</time>
      </trkpt>
      <trkpt lat="46.00706" lon="6.84486">
        <ele>2270</ele>
        <time>2022-07-21T05:18:00Z</time>
      </trkpt>
      <trkpt lat="46.00711" lon="6.84489">
        <ele>2272</ele>
        <time>2022-07-21T05:18:12Z</time>
      </trkpt>
      <trkpt lat="46.00713" lon="6.84494">
        <ele>2274</ele>
        <time>2022-07-21T05:18:23Z</time>
      </trkpt>
      <trkpt lat="46.00711" lon="6.84501">
        <ele>2278</ele>
        <time>2022-07-21T05:18:43Z</time>
      </trkpt>
      <trkpt lat="46.00709" lon="6.84507">
        <ele>2279</ele>
        <time>2022-07-21T05:18:53Z</time>
      </trkpt>
      <trkpt lat="46.00707" lon="6.84515">
        <ele>2281</ele>
        <time>2022-07-21T05:19:08Z</time>
      </trkpt>
      <trkpt lat="46.00712" lon="6.84527">
        <ele>2284</ele>
        <time>2022-07-21T05:19:28Z</time>
      </trkpt>
      <trkpt lat="46.00714" lon="6.84534">
        <ele>2285</ele>
        <time>2022-07-21T05:19:38Z</time>
      </trkpt>
      <trkpt lat="46.00716" lon="6.84539">
        <ele>2287</ele>
        <time>2022-07-21T05:19:48Z</time>
      </trkpt>
      <trkpt lat="46.00721" lon="6.84545">
        <ele>2289</ele>
        <time>2022-07-21T05:19:58Z</time>
      </trkpt>
      <trkpt lat="46.00723" lon="6.84552">
        <ele>2290</ele>
        <time>2022-07-21T05:20:09Z</time>
      </trkpt>
      <trkpt lat="46.00724" lon="6.8456">
        <ele>2292</ele>
        <time>2022-07-21T05:20:20Z</time>
      </trkpt>
      <trkpt lat="46.00728" lon="6.84565">
        <ele>2294</ele>
        <time>2022-07-21T05:20:31Z</time>
      </trkpt>
      <trkpt lat="46.00698" lon="6.84564">
        <ele>2298</ele>
        <time>2022-07-21T05:21:05Z</time>
      </trkpt>
      <trkpt lat="46.0069" lon="6.84571">
        <ele>2299</ele>
        <time>2022-07-21T05:21:15Z</time>
      </trkpt>
      <trkpt lat="46.00677" lon="6.84573">
        <ele>2300</ele>
        <time>2022-07-21T05:21:29Z</time>
      </trkpt>
      <trkpt lat="46.00659" lon="6.84585">
        <ele>2306</ele>
        <time>2022-07-21T05:22:01Z</time>
      </trkpt>
      <trkpt lat="46.00655" lon="6.8459">
        <ele>2306</ele>
        <time>2022-07-21T05:22:06Z</time>
      </trkpt>
      <trkpt lat="46.00651" lon="6.84604">
        <ele>2309</ele>
        <time>2022-07-21T05:22:26Z</time>
      </trkpt>
      <trkpt lat="46.00645" lon="6.84602">
        <ele>2310</ele>
        <time>2022-07-21T05:22:37Z</time>
      </trkpt>
      <trkpt lat="46.00641" lon="6.84598">
        <ele>2310</ele>
        <time>2022-07-21T05:22:42Z</time>
      </trkpt>
      <trkpt lat="46.00638" lon="6.84602">
        <ele>2311</ele>
        <time>2022-07-21T05:22:50Z</time>
      </trkpt>
      <trkpt lat="46.00635" lon="6.84614">
        <ele>2312</ele>
        <time>2022-07-21T05:23:00Z</time>
      </trkpt>
      <trkpt lat="46.00636" lon="6.84623">
        <ele>2313</ele>
        <time>2022-07-21T05:23:10Z</time>
      </trkpt>
      <trkpt lat="46.00636" lon="6.84631">
        <ele>2315</ele>
        <time>2022-07-21T05:23:20Z</time>
      </trkpt>
      <trkpt lat="46.00637" lon="6.84644">
        <ele>2318</ele>
        <time>2022-07-21T05:23:40Z</time>
      </trkpt>
      <trkpt lat="46.00638" lon="6.84653">
        <ele>2321</ele>
        <time>2022-07-21T05:23:55Z</time>
      </trkpt>
      <trkpt lat="46.00637" lon="6.84659">
        <ele>2323</ele>
        <time>2022-07-21T05:24:05Z</time>
      </trkpt>
      <trkpt lat="46.00633" lon="6.84674">
        <ele>2326</ele>
        <time>2022-07-21T05:24:26Z</time>
      </trkpt>
      <trkpt lat="46.00633" lon="6.84681">
        <ele>2328</ele>
        <time>2022-07-21T05:24:36Z</time>
      </trkpt>
      <trkpt lat="46.00635" lon="6.84686">
        <ele>2330</ele>
        <time>2022-07-21T05:24:46Z</time>
      </trkpt>
      <trkpt lat="46.00635" lon="6.84693">
        <ele>2331</ele>
        <time>2022-07-21T05:24:56Z</time>
      </trkpt>
      <trkpt lat="46.00638" lon="6.84701">
        <ele>2333</ele>
        <time>2022-07-21T05:25:11Z</time>
      </trkpt>
      <trkpt lat="46.00635" lon="6.84708">
        <ele>2336</ele>
        <time>2022-07-21T05:25:26Z</time>
      </trkpt>
      <trkpt lat="46.00636" lon="6.84714">
        <ele>2338</ele>
        <time>2022-07-21T05:25:36Z</time>
      </trkpt>
      <trkpt lat="46.00631" lon="6.84733">
        <ele>2341</ele>
        <time>2022-07-21T05:25:57Z</time>
      </trkpt>
      <trkpt lat="46.00633" lon="6.84738">
        <ele>2341</ele>
        <time>2022-07-21T05:26:02Z</time>
      </trkpt>
      <trkpt lat="46.00633" lon="6.84747">
        <ele>2343</ele>
        <time>2022-07-21T05:26:12Z</time>
      </trkpt>
      <trkpt lat="46.00632" lon="6.84753">
        <ele>2343</ele>
        <time>2022-07-21T05:26:18Z</time>
      </trkpt>
      <trkpt lat="46.00634" lon="6.84766">
        <ele>2344</ele>
        <time>2022-07-21T05:26:28Z</time>
      </trkpt>
      <trkpt lat="46.00635" lon="6.84776">
        <ele>2345</ele>
        <time>2022-07-21T05:26:38Z</time>
      </trkpt>
      <trkpt lat="46.00633" lon="6.84782">
        <ele>2345</ele>
        <time>2022-07-21T05:26:44Z</time>
      </trkpt>
      <trkpt lat="46.00634" lon="6.84807">
        <ele>2349</ele>
        <time>2022-07-21T05:27:14Z</time>
      </trkpt>
      <trkpt lat="46.00629" lon="6.84816">
        <ele>2350</ele>
        <time>2022-07-21T05:27:24Z</time>
      </trkpt>
      <trkpt lat="46.00626" lon="6.84824">
        <ele>2351</ele>
        <time>2022-07-21T05:27:34Z</time>
      </trkpt>
      <trkpt lat="46.00622" lon="6.84833">
        <ele>2352</ele>
        <time>2022-07-21T05:27:44Z</time>
      </trkpt>
      <trkpt lat="46.00626" lon="6.84841">
        <ele>2353</ele>
        <time>2022-07-21T05:27:54Z</time>
      </trkpt>
      <trkpt lat="46.00628" lon="6.8485">
        <ele>2355</ele>
        <time>2022-07-21T05:28:04Z</time>
      </trkpt>
      <trkpt lat="46.0063" lon="6.84856">
        <ele>2357</ele>
        <time>2022-07-21T05:28:15Z</time>
      </trkpt>
      <trkpt lat="46.00633" lon="6.84864">
        <ele>2358</ele>
        <time>2022-07-21T05:28:25Z</time>
      </trkpt>
      <trkpt lat="46.00631" lon="6.84872">
        <ele>2359</ele>
        <time>2022-07-21T05:28:36Z</time>
      </trkpt>
      <trkpt lat="46.00632" lon="6.84881">
        <ele>2360</ele>
        <time>2022-07-21T05:28:48Z</time>
      </trkpt>
      <trkpt lat="46.00633" lon="6.8489">
        <ele>2362</ele>
        <time>2022-07-21T05:28:58Z</time>
      </trkpt>
      <trkpt lat="46.00636" lon="6.84906">
        <ele>2364</ele>
        <time>2022-07-21T05:29:18Z</time>
      </trkpt>
      <trkpt lat="46.00637" lon="6.84935">
        <ele>2367</ele>
        <time>2022-07-21T05:29:48Z</time>
      </trkpt>
      <trkpt lat="46.00636" lon="6.84947">
        <ele>2368</ele>
        <time>2022-07-21T05:29:58Z</time>
      </trkpt>
      <trkpt lat="46.00633" lon="6.84954">
        <ele>2368</ele>
        <time>2022-07-21T05:30:05Z</time>
      </trkpt>
      <trkpt lat="46.0063" lon="6.84963">
        <ele>2370</ele>
        <time>2022-07-21T05:30:17Z</time>
      </trkpt>
      <trkpt lat="46.00629" lon="6.84982">
        <ele>2373</ele>
        <time>2022-07-21T05:30:38Z</time>
      </trkpt>
      <trkpt lat="46.00631" lon="6.84993">
        <ele>2375</ele>
        <time>2022-07-21T05:30:50Z</time>
      </trkpt>
      <trkpt lat="46.00631" lon="6.85">
        <ele>2376</ele>
        <time>2022-07-21T05:30:56Z</time>
      </trkpt>
      <trkpt lat="46.00632" lon="6.85008">
        <ele>2377</ele>
        <time>2022-07-21T05:31:06Z</time>
      </trkpt>
      <trkpt lat="46.00635" lon="6.85013">
        <ele>2378</ele>
        <time>2022-07-21T05:31:11Z</time>
      </trkpt>
      <trkpt lat="46.00636" lon="6.85019">
        <ele>2379</ele>
        <time>2022-07-21T05:31:18Z</time>
      </trkpt>
      <trkpt lat="46.00636" lon="6.85027">
        <ele>2379</ele>
        <time>2022-07-21T05:31:28Z</time>
      </trkpt>
      <trkpt lat="46.00635" lon="6.85033">
        <ele>2381</ele>
        <time>2022-07-21T05:31:38Z</time>
      </trkpt>
      <trkpt lat="46.00632" lon="6.85041">
        <ele>2382</ele>
        <time>2022-07-21T05:31:48Z</time>
      </trkpt>
      <trkpt lat="46.00629" lon="6.85061">
        <ele>2387</ele>
        <time>2022-07-21T05:32:18Z</time>
      </trkpt>
      <trkpt lat="46.00628" lon="6.85074">
        <ele>2390</ele>
        <time>2022-07-21T05:32:38Z</time>
      </trkpt>
      <trkpt lat="46.00626" lon="6.85082">
        <ele>2391</ele>
        <time>2022-07-21T05:32:50Z</time>
      </trkpt>
      <trkpt lat="46.0063" lon="6.85087">
        <ele>2394</ele>
        <time>2022-07-21T05:33:07Z</time>
      </trkpt>
      <trkpt lat="46.00632" lon="6.85094">
        <ele>2396</ele>
        <time>2022-07-21T05:33:27Z</time>
      </trkpt>
      <trkpt lat="46.00634" lon="6.851">
        <ele>2398</ele>
        <time>2022-07-21T05:33:42Z</time>
      </trkpt>
      <trkpt lat="46.00633" lon="6.85109">
        <ele>2401</ele>
        <time>2022-07-21T05:33:57Z</time>
      </trkpt>
      <trkpt lat="46.00638" lon="6.85111">
        <ele>2403</ele>
        <time>2022-07-21T05:34:07Z</time>
      </trkpt>
      <trkpt lat="46.00641" lon="6.85118">
        <ele>2406</ele>
        <time>2022-07-21T05:34:27Z</time>
      </trkpt>
      <trkpt lat="46.00639" lon="6.85128">
        <ele>2408</ele>
        <time>2022-07-21T05:34:42Z</time>
      </trkpt>
      <trkpt lat="46.00645" lon="6.85129">
        <ele>2410</ele>
        <time>2022-07-21T05:34:53Z</time>
      </trkpt>
      <trkpt lat="46.00645" lon="6.85136">
        <ele>2413</ele>
        <time>2022-07-21T05:35:14Z</time>
      </trkpt>
      <trkpt lat="46.00648" lon="6.85143">
        <ele>2415</ele>
        <time>2022-07-21T05:35:29Z</time>
      </trkpt>
      <trkpt lat="46.00648" lon="6.85149">
        <ele>2417</ele>
        <time>2022-07-21T05:35:39Z</time>
      </trkpt>
      <trkpt lat="46.00649" lon="6.85157">
        <ele>2418</ele>
        <time>2022-07-21T05:35:49Z</time>
      </trkpt>
      <trkpt lat="46.00648" lon="6.85181">
        <ele>2424</ele>
        <time>2022-07-21T05:36:24Z</time>
      </trkpt>
      <trkpt lat="46.00649" lon="6.85186">
        <ele>2426</ele>
        <time>2022-07-21T05:36:34Z</time>
      </trkpt>
      <trkpt lat="46.00653" lon="6.8519">
        <ele>2427</ele>
        <time>2022-07-21T05:36:44Z</time>
      </trkpt>
      <trkpt lat="46.00653" lon="6.85197">
        <ele>2430</ele>
        <time>2022-07-21T05:37:00Z</time>
      </trkpt>
      <trkpt lat="46.00655" lon="6.85205">
        <ele>2432</ele>
        <time>2022-07-21T05:37:17Z</time>
      </trkpt>
      <trkpt lat="46.0066" lon="6.85207">
        <ele>2433</ele>
        <time>2022-07-21T05:37:27Z</time>
      </trkpt>
      <trkpt lat="46.00659" lon="6.85214">
        <ele>2435</ele>
        <time>2022-07-21T05:37:42Z</time>
      </trkpt>
      <trkpt lat="46.0066" lon="6.8522">
        <ele>2438</ele>
        <time>2022-07-21T05:37:58Z</time>
      </trkpt>
      <trkpt lat="46.00661" lon="6.85228">
        <ele>2440</ele>
        <time>2022-07-21T05:38:13Z</time>
      </trkpt>
      <trkpt lat="46.0066" lon="6.85237">
        <ele>2442</ele>
        <time>2022-07-21T05:38:28Z</time>
      </trkpt>
      <trkpt lat="46.00663" lon="6.85241">
        <ele>2443</ele>
        <time>2022-07-21T05:38:38Z</time>
      </trkpt>
      <trkpt lat="46.00665" lon="6.85249">
        <ele>2446</ele>
        <time>2022-07-21T05:38:53Z</time>
      </trkpt>
      <trkpt lat="46.00667" lon="6.85254">
        <ele>2448</ele>
        <time>2022-07-21T05:39:04Z</time>
      </trkpt>
      <trkpt lat="46.00669" lon="6.85267">
        <ele>2452</ele>
        <time>2022-07-21T05:39:26Z</time>
      </trkpt>
      <trkpt lat="46.00671" lon="6.85274">
        <ele>2455</ele>
        <time>2022-07-21T05:39:41Z</time>
      </trkpt>
      <trkpt lat="46.00673" lon="6.85281">
        <ele>2457</ele>
        <time>2022-07-21T05:39:56Z</time>
      </trkpt>
      <trkpt lat="46.00676" lon="6.85286">
        <ele>2459</ele>
        <time>2022-07-21T05:40:11Z</time>
      </trkpt>
      <trkpt lat="46.00675" lon="6.85294">
        <ele>2461</ele>
        <time>2022-07-21T05:40:22Z</time>
      </trkpt>
      <trkpt lat="46.00675" lon="6.85302">
        <ele>2462</ele>
        <time>2022-07-21T05:40:32Z</time>
      </trkpt>
      <trkpt lat="46.00673" lon="6.85311">
        <ele>2464</ele>
        <time>2022-07-21T05:40:47Z</time>
      </trkpt>
      <trkpt lat="46.00676" lon="6.85316">
        <ele>2466</ele>
        <time>2022-07-21T05:40:57Z</time>
      </trkpt>
      <trkpt lat="46.00679" lon="6.85324">
        <ele>2468</ele>
        <time>2022-07-21T05:41:08Z</time>
      </trkpt>
      <trkpt lat="46.00677" lon="6.85342">
        <ele>2472</ele>
        <time>2022-07-21T05:41:31Z</time>
      </trkpt>
      <trkpt lat="46.0068" lon="6.85348">
        <ele>2473</ele>
        <time>2022-07-21T05:41:41Z</time>
      </trkpt>
      <trkpt lat="46.0068" lon="6.85356">
        <ele>2476</ele>
        <time>2022-07-21T05:41:56Z</time>
      </trkpt>
      <trkpt lat="46.00682" lon="6.85363">
        <ele>2477</ele>
        <time>2022-07-21T05:42:06Z</time>
      </trkpt>
      <trkpt lat="46.00681" lon="6.85369">
        <ele>2478</ele>
        <time>2022-07-21T05:42:16Z</time>
      </trkpt>
      <trkpt lat="46.00679" lon="6.85375">
        <ele>2480</ele>
        <time>2022-07-21T05:42:26Z</time>
      </trkpt>
      <trkpt lat="46.0068" lon="6.85382">
        <ele>2482</ele>
        <time>2022-07-21T05:42:36Z</time>
      </trkpt>
      <trkpt lat="46.00682" lon="6.85388">
        <ele>2483</ele>
        <time>2022-07-21T05:42:46Z</time>
      </trkpt>
      <trkpt lat="46.00682" lon="6.85395">
        <ele>2485</ele>
        <time>2022-07-21T05:42:56Z</time>
      </trkpt>
      <trkpt lat="46.00681" lon="6.85401">
        <ele>2487</ele>
        <time>2022-07-21T05:43:06Z</time>
      </trkpt>
      <trkpt lat="46.00686" lon="6.85405">
        <ele>2490</ele>
        <time>2022-07-21T05:43:18Z</time>
      </trkpt>
      <trkpt lat="46.0069" lon="6.85418">
        <ele>2494</ele>
        <time>2022-07-21T05:43:46Z</time>
      </trkpt>
      <trkpt lat="46.00692" lon="6.85425">
        <ele>2496</ele>
        <time>2022-07-21T05:43:56Z</time>
      </trkpt>
      <trkpt lat="46.00694" lon="6.85431">
        <ele>2498</ele>
        <time>2022-07-21T05:44:07Z</time>
      </trkpt>
      <trkpt lat="46.00698" lon="6.85434">
        <ele>2500</ele>
        <time>2022-07-21T05:44:19Z</time>
      </trkpt>
      <trkpt lat="46.00695" lon="6.8544">
        <ele>2502</ele>
        <time>2022-07-21T05:44:30Z</time>
      </trkpt>
      <trkpt lat="46.00699" lon="6.85444">
        <ele>2504</ele>
        <time>2022-07-21T05:44:45Z</time>
      </trkpt>
      <trkpt lat="46.00699" lon="6.85451">
        <ele>2506</ele>
        <time>2022-07-21T05:45:00Z</time>
      </trkpt>
      <trkpt lat="46.00698" lon="6.85458">
        <ele>2508</ele>
        <time>2022-07-21T05:45:10Z</time>
      </trkpt>
      <trkpt lat="46.007" lon="6.85465">
        <ele>2511</ele>
        <time>2022-07-21T05:45:26Z</time>
      </trkpt>
      <trkpt lat="46.00703" lon="6.85478">
        <ele>2515</ele>
        <time>2022-07-21T05:45:56Z</time>
      </trkpt>
      <trkpt lat="46.00703" lon="6.85484">
        <ele>2517</ele>
        <time>2022-07-21T05:46:06Z</time>
      </trkpt>
      <trkpt lat="46.00706" lon="6.855">
        <ele>2522</ele>
        <time>2022-07-21T05:46:31Z</time>
      </trkpt>
      <trkpt lat="46.00712" lon="6.85513">
        <ele>2526</ele>
        <time>2022-07-21T05:46:56Z</time>
      </trkpt>
      <trkpt lat="46.00716" lon="6.85517">
        <ele>2528</ele>
        <time>2022-07-21T05:47:06Z</time>
      </trkpt>
      <trkpt lat="46.00719" lon="6.85524">
        <ele>2530</ele>
        <time>2022-07-21T05:47:21Z</time>
      </trkpt>
      <trkpt lat="46.00724" lon="6.85528">
        <ele>2532</ele>
        <time>2022-07-21T05:47:32Z</time>
      </trkpt>
      <trkpt lat="46.00726" lon="6.85538">
        <ele>2533</ele>
        <time>2022-07-21T05:47:45Z</time>
      </trkpt>
      <trkpt lat="46.00729" lon="6.85534">
        <ele>2533</ele>
        <time>2022-07-21T05:48:32Z</time>
      </trkpt>
      <trkpt lat="46.00726" lon="6.85528">
        <ele>2533</ele>
        <time>2022-07-21T05:51:45Z</time>
      </trkpt>
      <trkpt lat="46.00728" lon="6.85536">
        <ele>2529</ele>
        <time>2022-07-21T05:54:27Z</time>
      </trkpt>
      <trkpt lat="46.00733" lon="6.85533">
        <ele>2527</ele>
        <time>2022-07-21T05:55:02Z</time>
      </trkpt>
      <trkpt lat="46.00739" lon="6.85525">
        <ele>2524</ele>
        <time>2022-07-21T05:55:13Z</time>
      </trkpt>
      <trkpt lat="46.00746" lon="6.85519">
        <ele>2523</ele>
        <time>2022-07-21T05:55:25Z</time>
      </trkpt>
      <trkpt lat="46.00751" lon="6.85518">
        <ele>2522</ele>
        <time>2022-07-21T05:55:45Z</time>
      </trkpt>
      <trkpt lat="46.00755" lon="6.85519">
        <ele>2521</ele>
        <time>2022-07-21T05:55:50Z</time>
      </trkpt>
      <trkpt lat="46.00759" lon="6.85521">
        <ele>2520</ele>
        <time>2022-07-21T05:55:54Z</time>
      </trkpt>
      <trkpt lat="46.00765" lon="6.85521">
        <ele>2518</ele>
        <time>2022-07-21T05:56:08Z</time>
      </trkpt>
      <trkpt lat="46.00769" lon="6.85527">
        <ele>2519</ele>
        <time>2022-07-21T05:58:33Z</time>
      </trkpt>
      <trkpt lat="46.00774" lon="6.85533">
        <ele>2518</ele>
        <time>2022-07-21T05:58:39Z</time>
      </trkpt>
      <trkpt lat="46.00775" lon="6.85538">
        <ele>2518</ele>
        <time>2022-07-21T05:58:44Z</time>
      </trkpt>
      <trkpt lat="46.00787" lon="6.85568">
        <ele>2511</ele>
        <time>2022-07-21T05:59:16Z</time>
      </trkpt>
      <trkpt lat="46.00791" lon="6.85571">
        <ele>2510</ele>
        <time>2022-07-21T05:59:20Z</time>
      </trkpt>
      <trkpt lat="46.00796" lon="6.85574">
        <ele>2510</ele>
        <time>2022-07-21T05:59:26Z</time>
      </trkpt>
      <trkpt lat="46.008" lon="6.85577">
        <ele>2509</ele>
        <time>2022-07-21T05:59:33Z</time>
      </trkpt>
      <trkpt lat="46.00803" lon="6.85582">
        <ele>2508</ele>
        <time>2022-07-21T05:59:37Z</time>
      </trkpt>
      <trkpt lat="46.00809" lon="6.85587">
        <ele>2506</ele>
        <time>2022-07-21T05:59:46Z</time>
      </trkpt>
      <trkpt lat="46.00817" lon="6.85599">
        <ele>2504</ele>
        <time>2022-07-21T06:00:01Z</time>
      </trkpt>
      <trkpt lat="46.00826" lon="6.85601">
        <ele>2502</ele>
        <time>2022-07-21T06:00:20Z</time>
      </trkpt>
      <trkpt lat="46.00833" lon="6.85602">
        <ele>2501</ele>
        <time>2022-07-21T06:00:30Z</time>
      </trkpt>
      <trkpt lat="46.00841" lon="6.85606">
        <ele>2499</ele>
        <time>2022-07-21T06:00:41Z</time>
      </trkpt>
      <trkpt lat="46.00849" lon="6.85613">
        <ele>2497</ele>
        <time>2022-07-21T06:00:52Z</time>
      </trkpt>
      <trkpt lat="46.00853" lon="6.85616">
        <ele>2497</ele>
        <time>2022-07-21T06:00:56Z</time>
      </trkpt>
      <trkpt lat="46.00859" lon="6.85619">
        <ele>2497</ele>
        <time>2022-07-21T06:01:04Z</time>
      </trkpt>
      <trkpt lat="46.00863" lon="6.85621">
        <ele>2497</ele>
        <time>2022-07-21T06:01:31Z</time>
      </trkpt>
      <trkpt lat="46.00868" lon="6.85624">
        <ele>2496</ele>
        <time>2022-07-21T06:01:51Z</time>
      </trkpt>
      <trkpt lat="46.00876" lon="6.85625">
        <ele>2495</ele>
        <time>2022-07-21T06:02:18Z</time>
      </trkpt>
      <trkpt lat="46.0088" lon="6.85628">
        <ele>2494</ele>
        <time>2022-07-21T06:02:23Z</time>
      </trkpt>
      <trkpt lat="46.00883" lon="6.85633">
        <ele>2493</ele>
        <time>2022-07-21T06:02:28Z</time>
      </trkpt>
      <trkpt lat="46.00888" lon="6.85632">
        <ele>2491</ele>
        <time>2022-07-21T06:02:32Z</time>
      </trkpt>
      <trkpt lat="46.00893" lon="6.85633">
        <ele>2491</ele>
        <time>2022-07-21T06:02:39Z</time>
      </trkpt>
      <trkpt lat="46.00898" lon="6.85635">
        <ele>2491</ele>
        <time>2022-07-21T06:02:43Z</time>
      </trkpt>
      <trkpt lat="46.00902" lon="6.85633">
        <ele>2491</ele>
        <time>2022-07-21T06:02:47Z</time>
      </trkpt>
      <trkpt lat="46.0091" lon="6.85629">
        <ele>2491</ele>
        <time>2022-07-21T06:02:56Z</time>
      </trkpt>
      <trkpt lat="46.00915" lon="6.85624">
        <ele>2491</ele>
        <time>2022-07-21T06:03:02Z</time>
      </trkpt>
      <trkpt lat="46.00925" lon="6.85621">
        <ele>2491</ele>
        <time>2022-07-21T06:03:14Z</time>
      </trkpt>
      <trkpt lat="46.00931" lon="6.85618">
        <ele>2492</ele>
        <time>2022-07-21T06:03:25Z</time>
      </trkpt>
      <trkpt lat="46.00941" lon="6.85615">
        <ele>2490</ele>
        <time>2022-07-21T06:03:36Z</time>
      </trkpt>
      <trkpt lat="46.00945" lon="6.85611">
        <ele>2490</ele>
        <time>2022-07-21T06:03:40Z</time>
      </trkpt>
      <trkpt lat="46.00951" lon="6.85608">
        <ele>2490</ele>
        <time>2022-07-21T06:03:48Z</time>
      </trkpt>
      <trkpt lat="46.00955" lon="6.8561">
        <ele>2491</ele>
        <time>2022-07-21T06:03:55Z</time>
      </trkpt>
      <trkpt lat="46.0096" lon="6.85609">
        <ele>2490</ele>
        <time>2022-07-21T06:04:00Z</time>
      </trkpt>
      <trkpt lat="46.00964" lon="6.85608">
        <ele>2491</ele>
        <time>2022-07-21T06:04:05Z</time>
      </trkpt>
      <trkpt lat="46.00969" lon="6.85608">
        <ele>2491</ele>
        <time>2022-07-21T06:04:09Z</time>
      </trkpt>
      <trkpt lat="46.00975" lon="6.85611">
        <ele>2492</ele>
        <time>2022-07-21T06:04:18Z</time>
      </trkpt>
      <trkpt lat="46.00982" lon="6.85611">
        <ele>2493</ele>
        <time>2022-07-21T06:04:28Z</time>
      </trkpt>
      <trkpt lat="46.00988" lon="6.85613">
        <ele>2495</ele>
        <time>2022-07-21T06:04:38Z</time>
      </trkpt>
      <trkpt lat="46.00995" lon="6.8561">
        <ele>2496</ele>
        <time>2022-07-21T06:04:53Z</time>
      </trkpt>
      <trkpt lat="46.01002" lon="6.85609">
        <ele>2497</ele>
        <time>2022-07-21T06:05:03Z</time>
      </trkpt>
      <trkpt lat="46.01007" lon="6.85606">
        <ele>2499</ele>
        <time>2022-07-21T06:05:13Z</time>
      </trkpt>
      <trkpt lat="46.01015" lon="6.85606">
        <ele>2500</ele>
        <time>2022-07-21T06:05:23Z</time>
      </trkpt>
      <trkpt lat="46.01024" lon="6.8561">
        <ele>2500</ele>
        <time>2022-07-21T06:05:33Z</time>
      </trkpt>
      <trkpt lat="46.01029" lon="6.85609">
        <ele>2501</ele>
        <time>2022-07-21T06:05:40Z</time>
      </trkpt>
      <trkpt lat="46.01033" lon="6.85605">
        <ele>2503</ele>
        <time>2022-07-21T06:05:50Z</time>
      </trkpt>
      <trkpt lat="46.01041" lon="6.85603">
        <ele>2505</ele>
        <time>2022-07-21T06:06:01Z</time>
      </trkpt>
      <trkpt lat="46.01061" lon="6.85601">
        <ele>2505</ele>
        <time>2022-07-21T06:06:22Z</time>
      </trkpt>
      <trkpt lat="46.01074" lon="6.8559">
        <ele>2510</ele>
        <time>2022-07-21T06:06:54Z</time>
      </trkpt>
      <trkpt lat="46.01072" lon="6.85584">
        <ele>2511</ele>
        <time>2022-07-21T06:07:04Z</time>
      </trkpt>
      <trkpt lat="46.01077" lon="6.8557">
        <ele>2514</ele>
        <time>2022-07-21T06:07:24Z</time>
      </trkpt>
      <trkpt lat="46.01081" lon="6.85561">
        <ele>2515</ele>
        <time>2022-07-21T06:07:34Z</time>
      </trkpt>
      <trkpt lat="46.01081" lon="6.85555">
        <ele>2516</ele>
        <time>2022-07-21T06:07:39Z</time>
      </trkpt>
      <trkpt lat="46.01082" lon="6.85547">
        <ele>2516</ele>
        <time>2022-07-21T06:07:44Z</time>
      </trkpt>
      <trkpt lat="46.01086" lon="6.8553">
        <ele>2516</ele>
        <time>2022-07-21T06:07:57Z</time>
      </trkpt>
      <trkpt lat="46.01087" lon="6.85509">
        <ele>2517</ele>
        <time>2022-07-21T06:08:14Z</time>
      </trkpt>
      <trkpt lat="46.01084" lon="6.85499">
        <ele>2518</ele>
        <time>2022-07-21T06:08:23Z</time>
      </trkpt>
      <trkpt lat="46.01084" lon="6.85492">
        <ele>2518</ele>
        <time>2022-07-21T06:08:30Z</time>
      </trkpt>
      <trkpt lat="46.01085" lon="6.85478">
        <ele>2521</ele>
        <time>2022-07-21T06:08:50Z</time>
      </trkpt>
      <trkpt lat="46.01084" lon="6.85471">
        <ele>2522</ele>
        <time>2022-07-21T06:08:55Z</time>
      </trkpt>
      <trkpt lat="46.01086" lon="6.85459">
        <ele>2522</ele>
        <time>2022-07-21T06:09:04Z</time>
      </trkpt>
      <trkpt lat="46.01089" lon="6.85453">
        <ele>2521</ele>
        <time>2022-07-21T06:09:09Z</time>
      </trkpt>
      <trkpt lat="46.01092" lon="6.85443">
        <ele>2521</ele>
        <time>2022-07-21T06:09:18Z</time>
      </trkpt>
      <trkpt lat="46.01093" lon="6.85435">
        <ele>2522</ele>
        <time>2022-07-21T06:09:26Z</time>
      </trkpt>
      <trkpt lat="46.01097" lon="6.85421">
        <ele>2522</ele>
        <time>2022-07-21T06:09:38Z</time>
      </trkpt>
      <trkpt lat="46.01101" lon="6.85413">
        <ele>2522</ele>
        <time>2022-07-21T06:09:47Z</time>
      </trkpt>
      <trkpt lat="46.0111" lon="6.85391">
        <ele>2526</ele>
        <time>2022-07-21T06:10:12Z</time>
      </trkpt>
      <trkpt lat="46.0112" lon="6.85378">
        <ele>2527</ele>
        <time>2022-07-21T06:10:27Z</time>
      </trkpt>
      <trkpt lat="46.01122" lon="6.85371">
        <ele>2528</ele>
        <time>2022-07-21T06:10:35Z</time>
      </trkpt>
      <trkpt lat="46.01129" lon="6.85358">
        <ele>2532</ele>
        <time>2022-07-21T06:11:06Z</time>
      </trkpt>
      <trkpt lat="46.01131" lon="6.85351">
        <ele>2535</ele>
        <time>2022-07-21T06:17:29Z</time>
      </trkpt>
      <trkpt lat="46.01135" lon="6.85346">
        <ele>2535</ele>
        <time>2022-07-21T06:17:35Z</time>
      </trkpt>
      <trkpt lat="46.01139" lon="6.85345">
        <ele>2535</ele>
        <time>2022-07-21T06:17:39Z</time>
      </trkpt>
      <trkpt lat="46.01145" lon="6.85343">
        <ele>2536</ele>
        <time>2022-07-21T06:17:47Z</time>
      </trkpt>
      <trkpt lat="46.01147" lon="6.85337">
        <ele>2538</ele>
        <time>2022-07-21T06:17:58Z</time>
      </trkpt>
      <trkpt lat="46.01154" lon="6.85326">
        <ele>2543</ele>
        <time>2022-07-21T06:18:23Z</time>
      </trkpt>
      <trkpt lat="46.01161" lon="6.85322">
        <ele>2546</ele>
        <time>2022-07-21T06:18:37Z</time>
      </trkpt>
      <trkpt lat="46.0116" lon="6.85316">
        <ele>2547</ele>
        <time>2022-07-21T06:18:49Z</time>
      </trkpt>
      <trkpt lat="46.01169" lon="6.85302">
        <ele>2551</ele>
        <time>2022-07-21T06:19:14Z</time>
      </trkpt>
      <trkpt lat="46.01174" lon="6.85296">
        <ele>2553</ele>
        <time>2022-07-21T06:19:25Z</time>
      </trkpt>
      <trkpt lat="46.01179" lon="6.8529">
        <ele>2554</ele>
        <time>2022-07-21T06:19:35Z</time>
      </trkpt>
      <trkpt lat="46.01192" lon="6.85276">
        <ele>2556</ele>
        <time>2022-07-21T06:19:54Z</time>
      </trkpt>
      <trkpt lat="46.01201" lon="6.85263">
        <ele>2559</ele>
        <time>2022-07-21T06:20:15Z</time>
      </trkpt>
      <trkpt lat="46.01204" lon="6.8526">
        <ele>2559</ele>
        <time>2022-07-21T06:20:19Z</time>
      </trkpt>
      <trkpt lat="46.01207" lon="6.85254">
        <ele>2559</ele>
        <time>2022-07-21T06:20:26Z</time>
      </trkpt>
      <trkpt lat="46.01216" lon="6.8524">
        <ele>2562</ele>
        <time>2022-07-21T06:20:46Z</time>
      </trkpt>
      <trkpt lat="46.01217" lon="6.85234">
        <ele>2564</ele>
        <time>2022-07-21T06:20:56Z</time>
      </trkpt>
      <trkpt lat="46.01217" lon="6.85226">
        <ele>2565</ele>
        <time>2022-07-21T06:21:07Z</time>
      </trkpt>
      <trkpt lat="46.01218" lon="6.85218">
        <ele>2567</ele>
        <time>2022-07-21T06:21:22Z</time>
      </trkpt>
      <trkpt lat="46.0122" lon="6.85212">
        <ele>2569</ele>
        <time>2022-07-21T06:21:32Z</time>
      </trkpt>
      <trkpt lat="46.01225" lon="6.85205">
        <ele>2571</ele>
        <time>2022-07-21T06:21:42Z</time>
      </trkpt>
      <trkpt lat="46.01231" lon="6.85192">
        <ele>2574</ele>
        <time>2022-07-21T06:22:07Z</time>
      </trkpt>
      <trkpt lat="46.01236" lon="6.85184">
        <ele>2577</ele>
        <time>2022-07-21T06:22:22Z</time>
      </trkpt>
      <trkpt lat="46.0124" lon="6.85171">
        <ele>2580</ele>
        <time>2022-07-21T06:22:42Z</time>
      </trkpt>
      <trkpt lat="46.01245" lon="6.85165">
        <ele>2582</ele>
        <time>2022-07-21T06:22:57Z</time>
      </trkpt>
      <trkpt lat="46.01254" lon="6.85146">
        <ele>2587</ele>
        <time>2022-07-21T06:23:31Z</time>
      </trkpt>
      <trkpt lat="46.01258" lon="6.85141">
        <ele>2588</ele>
        <time>2022-07-21T06:23:41Z</time>
      </trkpt>
      <trkpt lat="46.0126" lon="6.85135">
        <ele>2590</ele>
        <time>2022-07-21T06:23:51Z</time>
      </trkpt>
      <trkpt lat="46.01266" lon="6.85124">
        <ele>2593</ele>
        <time>2022-07-21T06:24:12Z</time>
      </trkpt>
      <trkpt lat="46.01269" lon="6.85118">
        <ele>2595</ele>
        <time>2022-07-21T06:24:22Z</time>
      </trkpt>
      <trkpt lat="46.01275" lon="6.85118">
        <ele>2596</ele>
        <time>2022-07-21T06:24:37Z</time>
      </trkpt>
      <trkpt lat="46.01279" lon="6.85109">
        <ele>2598</ele>
        <time>2022-07-21T06:24:48Z</time>
      </trkpt>
      <trkpt lat="46.01283" lon="6.85107">
        <ele>2600</ele>
        <time>2022-07-21T06:24:58Z</time>
      </trkpt>
      <trkpt lat="46.01288" lon="6.85105">
        <ele>2601</ele>
        <time>2022-07-21T06:25:08Z</time>
      </trkpt>
      <trkpt lat="46.01301" lon="6.85099">
        <ele>2604</ele>
        <time>2022-07-21T06:25:25Z</time>
      </trkpt>
      <trkpt lat="46.01308" lon="6.85087">
        <ele>2607</ele>
        <time>2022-07-21T06:25:43Z</time>
      </trkpt>
      <trkpt lat="46.01314" lon="6.85083">
        <ele>2609</ele>
        <time>2022-07-21T06:26:03Z</time>
      </trkpt>
      <trkpt lat="46.01319" lon="6.85084">
        <ele>2610</ele>
        <time>2022-07-21T06:26:13Z</time>
      </trkpt>
      <trkpt lat="46.01324" lon="6.85082">
        <ele>2612</ele>
        <time>2022-07-21T06:26:23Z</time>
      </trkpt>
      <trkpt lat="46.01331" lon="6.85069">
        <ele>2616</ele>
        <time>2022-07-21T06:26:53Z</time>
      </trkpt>
      <trkpt lat="46.01341" lon="6.85061">
        <ele>2619</ele>
        <time>2022-07-21T06:27:13Z</time>
      </trkpt>
      <trkpt lat="46.01344" lon="6.85056">
        <ele>2621</ele>
        <time>2022-07-21T06:27:24Z</time>
      </trkpt>
      <trkpt lat="46.01349" lon="6.85052">
        <ele>2622</ele>
        <time>2022-07-21T06:27:36Z</time>
      </trkpt>
      <trkpt lat="46.01353" lon="6.85048">
        <ele>2624</ele>
        <time>2022-07-21T06:27:47Z</time>
      </trkpt>
      <trkpt lat="46.01357" lon="6.85041">
        <ele>2627</ele>
        <time>2022-07-21T06:28:02Z</time>
      </trkpt>
      <trkpt lat="46.01362" lon="6.85038">
        <ele>2628</ele>
        <time>2022-07-21T06:28:12Z</time>
      </trkpt>
      <trkpt lat="46.01371" lon="6.85033">
        <ele>2632</ele>
        <time>2022-07-21T06:28:42Z</time>
      </trkpt>
      <trkpt lat="46.0137" lon="6.85027">
        <ele>2633</ele>
        <time>2022-07-21T06:28:52Z</time>
      </trkpt>
      <trkpt lat="46.01379" lon="6.85016">
        <ele>2638</ele>
        <time>2022-07-21T06:29:17Z</time>
      </trkpt>
      <trkpt lat="46.01391" lon="6.85007">
        <ele>2642</ele>
        <time>2022-07-21T06:29:45Z</time>
      </trkpt>
      <trkpt lat="46.014" lon="6.84996">
        <ele>2646</ele>
        <time>2022-07-21T06:30:15Z</time>
      </trkpt>
      <trkpt lat="46.01406" lon="6.84992">
        <ele>2648</ele>
        <time>2022-07-21T06:30:30Z</time>
      </trkpt>
      <trkpt lat="46.01411" lon="6.84989">
        <ele>2649</ele>
        <time>2022-07-21T06:30:40Z</time>
      </trkpt>
      <trkpt lat="46.01421" lon="6.84987">
        <ele>2653</ele>
        <time>2022-07-21T06:31:05Z</time>
      </trkpt>
      <trkpt lat="46.01432" lon="6.84992">
        <ele>2655</ele>
        <time>2022-07-21T06:31:25Z</time>
      </trkpt>
      <trkpt lat="46.01437" lon="6.84992">
        <ele>2657</ele>
        <time>2022-07-21T06:31:36Z</time>
      </trkpt>
      <trkpt lat="46.0145" lon="6.84983">
        <ele>2661</ele>
        <time>2022-07-21T06:32:01Z</time>
      </trkpt>
      <trkpt lat="46.01461" lon="6.84983">
        <ele>2664</ele>
        <time>2022-07-21T06:32:26Z</time>
      </trkpt>
      <trkpt lat="46.01464" lon="6.84987">
        <ele>2665</ele>
        <time>2022-07-21T06:32:36Z</time>
      </trkpt>
      <trkpt lat="46.01469" lon="6.84991">
        <ele>2667</ele>
        <time>2022-07-21T06:32:51Z</time>
      </trkpt>
      <trkpt lat="46.01483" lon="6.85003">
        <ele>2672</ele>
        <time>2022-07-21T06:33:26Z</time>
      </trkpt>
      <trkpt lat="46.01494" lon="6.8501">
        <ele>2675</ele>
        <time>2022-07-21T06:33:49Z</time>
      </trkpt>
      <trkpt lat="46.01497" lon="6.85015">
        <ele>2677</ele>
        <time>2022-07-21T06:34:04Z</time>
      </trkpt>
      <trkpt lat="46.01506" lon="6.85023">
        <ele>2680</ele>
        <time>2022-07-21T06:34:24Z</time>
      </trkpt>
      <trkpt lat="46.01516" lon="6.85026">
        <ele>2682</ele>
        <time>2022-07-21T06:34:39Z</time>
      </trkpt>
      <trkpt lat="46.01533" lon="6.85036">
        <ele>2687</ele>
        <time>2022-07-21T06:35:16Z</time>
      </trkpt>
      <trkpt lat="46.01536" lon="6.8504">
        <ele>2688</ele>
        <time>2022-07-21T06:35:26Z</time>
      </trkpt>
      <trkpt lat="46.01541" lon="6.85046">
        <ele>2691</ele>
        <time>2022-07-21T06:35:41Z</time>
      </trkpt>
      <trkpt lat="46.01552" lon="6.85055">
        <ele>2693</ele>
        <time>2022-07-21T06:36:03Z</time>
      </trkpt>
      <trkpt lat="46.01561" lon="6.85062">
        <ele>2696</ele>
        <time>2022-07-21T06:36:23Z</time>
      </trkpt>
      <trkpt lat="46.01574" lon="6.85062">
        <ele>2699</ele>
        <time>2022-07-21T06:36:43Z</time>
      </trkpt>
      <trkpt lat="46.01578" lon="6.85063">
        <ele>2700</ele>
        <time>2022-07-21T06:36:53Z</time>
      </trkpt>
      <trkpt lat="46.01582" lon="6.85068">
        <ele>2702</ele>
        <time>2022-07-21T06:37:08Z</time>
      </trkpt>
      <trkpt lat="46.01586" lon="6.85069">
        <ele>2703</ele>
        <time>2022-07-21T06:37:18Z</time>
      </trkpt>
      <trkpt lat="46.01599" lon="6.85084">
        <ele>2708</ele>
        <time>2022-07-21T06:37:54Z</time>
      </trkpt>
      <trkpt lat="46.01603" lon="6.8509">
        <ele>2709</ele>
        <time>2022-07-21T06:38:06Z</time>
      </trkpt>
      <trkpt lat="46.01607" lon="6.85095">
        <ele>2710</ele>
        <time>2022-07-21T06:38:16Z</time>
      </trkpt>
      <trkpt lat="46.0161" lon="6.85102">
        <ele>2712</ele>
        <time>2022-07-21T06:38:31Z</time>
      </trkpt>
      <trkpt lat="46.01615" lon="6.85102">
        <ele>2714</ele>
        <time>2022-07-21T06:38:41Z</time>
      </trkpt>
      <trkpt lat="46.01619" lon="6.85108">
        <ele>2716</ele>
        <time>2022-07-21T06:38:56Z</time>
      </trkpt>
      <trkpt lat="46.01628" lon="6.85115">
        <ele>2718</ele>
        <time>2022-07-21T06:39:16Z</time>
      </trkpt>
      <trkpt lat="46.01632" lon="6.85118">
        <ele>2720</ele>
        <time>2022-07-21T06:39:26Z</time>
      </trkpt>
      <trkpt lat="46.01636" lon="6.85122">
        <ele>2721</ele>
        <time>2022-07-21T06:39:41Z</time>
      </trkpt>
      <trkpt lat="46.0164" lon="6.85125">
        <ele>2723</ele>
        <time>2022-07-21T06:39:51Z</time>
      </trkpt>
      <trkpt lat="46.01647" lon="6.85126">
        <ele>2724</ele>
        <time>2022-07-21T06:40:03Z</time>
      </trkpt>
      <trkpt lat="46.01665" lon="6.85143">
        <ele>2729</ele>
        <time>2022-07-21T06:40:38Z</time>
      </trkpt>
      <trkpt lat="46.0167" lon="6.85144">
        <ele>2730</ele>
        <time>2022-07-21T06:40:44Z</time>
      </trkpt>
      <trkpt lat="46.01675" lon="6.85146">
        <ele>2730</ele>
        <time>2022-07-21T06:40:51Z</time>
      </trkpt>
      <trkpt lat="46.01687" lon="6.85154">
        <ele>2732</ele>
        <time>2022-07-21T06:41:11Z</time>
      </trkpt>
      <trkpt lat="46.01689" lon="6.85161">
        <ele>2734</ele>
        <time>2022-07-21T06:41:21Z</time>
      </trkpt>
      <trkpt lat="46.01691" lon="6.8517">
        <ele>2736</ele>
        <time>2022-07-21T06:41:31Z</time>
      </trkpt>
      <trkpt lat="46.01702" lon="6.85166">
        <ele>2739</ele>
        <time>2022-07-21T06:41:56Z</time>
      </trkpt>
      <trkpt lat="46.01708" lon="6.85162">
        <ele>2741</ele>
        <time>2022-07-21T06:42:08Z</time>
      </trkpt>
      <trkpt lat="46.0171" lon="6.8517">
        <ele>2743</ele>
        <time>2022-07-21T06:42:25Z</time>
      </trkpt>
      <trkpt lat="46.01715" lon="6.85171">
        <ele>2745</ele>
        <time>2022-07-21T06:42:35Z</time>
      </trkpt>
      <trkpt lat="46.01719" lon="6.85178">
        <ele>2748</ele>
        <time>2022-07-21T06:42:50Z</time>
      </trkpt>
      <trkpt lat="46.01728" lon="6.85182">
        <ele>2752</ele>
        <time>2022-07-21T06:43:20Z</time>
      </trkpt>
      <trkpt lat="46.01738" lon="6.85175">
        <ele>2756</ele>
        <time>2022-07-21T06:43:50Z</time>
      </trkpt>
      <trkpt lat="46.01742" lon="6.85175">
        <ele>2758</ele>
        <time>2022-07-21T06:44:05Z</time>
      </trkpt>
      <trkpt lat="46.01746" lon="6.85173">
        <ele>2760</ele>
        <time>2022-07-21T06:44:17Z</time>
      </trkpt>
      <trkpt lat="46.01746" lon="6.8518">
        <ele>2761</ele>
        <time>2022-07-21T06:44:22Z</time>
      </trkpt>
      <trkpt lat="46.01749" lon="6.85185">
        <ele>2762</ele>
        <time>2022-07-21T06:44:29Z</time>
      </trkpt>
      <trkpt lat="46.01752" lon="6.8518">
        <ele>2763</ele>
        <time>2022-07-21T06:44:34Z</time>
      </trkpt>
      <trkpt lat="46.01756" lon="6.85186">
        <ele>2765</ele>
        <time>2022-07-21T06:44:46Z</time>
      </trkpt>
      <trkpt lat="46.01759" lon="6.85182">
        <ele>2766</ele>
        <time>2022-07-21T06:44:51Z</time>
      </trkpt>
      <trkpt lat="46.01762" lon="6.85189">
        <ele>2769</ele>
        <time>2022-07-21T06:45:07Z</time>
      </trkpt>
      <trkpt lat="46.01768" lon="6.85188">
        <ele>2772</ele>
        <time>2022-07-21T06:45:17Z</time>
      </trkpt>
      <trkpt lat="46.01773" lon="6.85183">
        <ele>2774</ele>
        <time>2022-07-21T06:45:27Z</time>
      </trkpt>
      <trkpt lat="46.01776" lon="6.85188">
        <ele>2776</ele>
        <time>2022-07-21T06:45:42Z</time>
      </trkpt>
      <trkpt lat="46.0178" lon="6.85185">
        <ele>2779</ele>
        <time>2022-07-21T06:45:52Z</time>
      </trkpt>
      <trkpt lat="46.01783" lon="6.85191">
        <ele>2782</ele>
        <time>2022-07-21T06:46:12Z</time>
      </trkpt>
      <trkpt lat="46.01792" lon="6.85208">
        <ele>2789</ele>
        <time>2022-07-21T06:46:45Z</time>
      </trkpt>
      <trkpt lat="46.01797" lon="6.85207">
        <ele>2791</ele>
        <time>2022-07-21T06:46:55Z</time>
      </trkpt>
      <trkpt lat="46.01803" lon="6.85219">
        <ele>2797</ele>
        <time>2022-07-21T06:47:20Z</time>
      </trkpt>
      <trkpt lat="46.01807" lon="6.85217">
        <ele>2798</ele>
        <time>2022-07-21T06:47:30Z</time>
      </trkpt>
      <trkpt lat="46.01812" lon="6.85222">
        <ele>2801</ele>
        <time>2022-07-21T06:48:00Z</time>
      </trkpt>
      <trkpt lat="46.01819" lon="6.8521">
        <ele>2808</ele>
        <time>2022-07-21T06:48:38Z</time>
      </trkpt>
      <trkpt lat="46.01825" lon="6.85205">
        <ele>2811</ele>
        <time>2022-07-21T06:49:03Z</time>
      </trkpt>
      <trkpt lat="46.01833" lon="6.85197">
        <ele>2816</ele>
        <time>2022-07-21T06:49:38Z</time>
      </trkpt>
      <trkpt lat="46.01838" lon="6.852">
        <ele>2821</ele>
        <time>2022-07-21T06:50:13Z</time>
      </trkpt>
      <trkpt lat="46.01847" lon="6.85203">
        <ele>2827</ele>
        <time>2022-07-21T06:50:55Z</time>
      </trkpt>
      <trkpt lat="46.01851" lon="6.85206">
        <ele>2831</ele>
        <time>2022-07-21T06:51:20Z</time>
      </trkpt>
      <trkpt lat="46.01856" lon="6.852">
        <ele>2832</ele>
        <time>2022-07-21T06:51:30Z</time>
      </trkpt>
      <trkpt lat="46.0186" lon="6.85202">
        <ele>2836</ele>
        <time>2022-07-21T06:52:00Z</time>
      </trkpt>
      <trkpt lat="46.01866" lon="6.85201">
        <ele>2838</ele>
        <time>2022-07-21T06:52:20Z</time>
      </trkpt>
      <trkpt lat="46.01869" lon="6.85196">
        <ele>2841</ele>
        <time>2022-07-21T06:52:30Z</time>
      </trkpt>
      <trkpt lat="46.01874" lon="6.85189">
        <ele>2843</ele>
        <time>2022-07-21T06:52:48Z</time>
      </trkpt>
      <trkpt lat="46.01878" lon="6.85191">
        <ele>2849</ele>
        <time>2022-07-21T06:53:23Z</time>
      </trkpt>
      <trkpt lat="46.01882" lon="6.85194">
        <ele>2851</ele>
        <time>2022-07-21T06:53:38Z</time>
      </trkpt>
      <trkpt lat="46.01887" lon="6.8519">
        <ele>2852</ele>
        <time>2022-07-21T06:53:54Z</time>
      </trkpt>
      <trkpt lat="46.0189" lon="6.85186">
        <ele>2856</ele>
        <time>2022-07-21T06:54:09Z</time>
      </trkpt>
      <trkpt lat="46.01896" lon="6.85183">
        <ele>2859</ele>
        <time>2022-07-21T06:54:40Z</time>
      </trkpt>
      <trkpt lat="46.01903" lon="6.85164">
        <ele>2865</ele>
        <time>2022-07-21T06:55:28Z</time>
      </trkpt>
      <trkpt lat="46.01907" lon="6.85167">
        <ele>2871</ele>
        <time>2022-07-21T06:55:58Z</time>
      </trkpt>
      <trkpt lat="46.0191" lon="6.85172">
        <ele>2872</ele>
        <time>2022-07-21T06:56:08Z</time>
      </trkpt>
      <trkpt lat="46.01914" lon="6.85176">
        <ele>2874</ele>
        <time>2022-07-21T06:56:18Z</time>
      </trkpt>
      <trkpt lat="46.0192" lon="6.85174">
        <ele>2875</ele>
        <time>2022-07-21T06:56:28Z</time>
      </trkpt>
      <trkpt lat="46.01926" lon="6.85164">
        <ele>2878</ele>
        <time>2022-07-21T06:56:56Z</time>
      </trkpt>
      <trkpt lat="46.01927" lon="6.85156">
        <ele>2881</ele>
        <time>2022-07-21T06:57:17Z</time>
      </trkpt>
      <trkpt lat="46.01932" lon="6.85162">
        <ele>2885</ele>
        <time>2022-07-21T06:57:52Z</time>
      </trkpt>
      <trkpt lat="46.01936" lon="6.85162">
        <ele>2887</ele>
        <time>2022-07-21T06:58:07Z</time>
      </trkpt>
      <trkpt lat="46.0194" lon="6.85158">
        <ele>2889</ele>
        <time>2022-07-21T06:58:17Z</time>
      </trkpt>
      <trkpt lat="46.01941" lon="6.85148">
        <ele>2891</ele>
        <time>2022-07-21T06:58:53Z</time>
      </trkpt>
      <trkpt lat="46.01945" lon="6.85148">
        <ele>2895</ele>
        <time>2022-07-21T06:59:14Z</time>
      </trkpt>
      <trkpt lat="46.01951" lon="6.85135">
        <ele>2899</ele>
        <time>2022-07-21T06:59:39Z</time>
      </trkpt>
      <trkpt lat="46.01953" lon="6.8514">
        <ele>2902</ele>
        <time>2022-07-21T07:00:04Z</time>
      </trkpt>
      <trkpt lat="46.01957" lon="6.85144">
        <ele>2904</ele>
        <time>2022-07-21T07:00:19Z</time>
      </trkpt>
      <trkpt lat="46.0196" lon="6.85151">
        <ele>2905</ele>
        <time>2022-07-21T07:00:29Z</time>
      </trkpt>
      <trkpt lat="46.01964" lon="6.85156">
        <ele>2906</ele>
        <time>2022-07-21T07:00:39Z</time>
      </trkpt>
      <trkpt lat="46.01968" lon="6.85156">
        <ele>2908</ele>
        <time>2022-07-21T07:00:54Z</time>
      </trkpt>
      <trkpt lat="46.01975" lon="6.85155">
        <ele>2911</ele>
        <time>2022-07-21T07:01:17Z</time>
      </trkpt>
      <trkpt lat="46.01981" lon="6.85158">
        <ele>2912</ele>
        <time>2022-07-21T07:01:27Z</time>
      </trkpt>
      <trkpt lat="46.01984" lon="6.85151">
        <ele>2913</ele>
        <time>2022-07-21T07:01:37Z</time>
      </trkpt>
      <trkpt lat="46.01983" lon="6.85144">
        <ele>2915</ele>
        <time>2022-07-21T07:01:47Z</time>
      </trkpt>
      <trkpt lat="46.01983" lon="6.85121">
        <ele>2917</ele>
        <time>2022-07-21T07:02:08Z</time>
      </trkpt>
      <trkpt lat="46.01985" lon="6.85116">
        <ele>2917</ele>
        <time>2022-07-21T07:02:15Z</time>
      </trkpt>
      <trkpt lat="46.01986" lon="6.85107">
        <ele>2919</ele>
        <time>2022-07-21T07:02:25Z</time>
      </trkpt>
      <trkpt lat="46.01986" lon="6.85098">
        <ele>2920</ele>
        <time>2022-07-21T07:02:35Z</time>
      </trkpt>
      <trkpt lat="46.01995" lon="6.85078">
        <ele>2925</ele>
        <time>2022-07-21T07:03:06Z</time>
      </trkpt>
      <trkpt lat="46.01995" lon="6.85071">
        <ele>2925</ele>
        <time>2022-07-21T07:03:12Z</time>
      </trkpt>
      <trkpt lat="46.01998" lon="6.85066">
        <ele>2925</ele>
        <time>2022-07-21T07:03:18Z</time>
      </trkpt>
      <trkpt lat="46.02" lon="6.85057">
        <ele>2925</ele>
        <time>2022-07-21T07:03:28Z</time>
      </trkpt>
      <trkpt lat="46.02003" lon="6.85052">
        <ele>2927</ele>
        <time>2022-07-21T07:03:38Z</time>
      </trkpt>
      <trkpt lat="46.02003" lon="6.85045">
        <ele>2928</ele>
        <time>2022-07-21T07:03:48Z</time>
      </trkpt>
      <trkpt lat="46.02004" lon="6.85031">
        <ele>2931</ele>
        <time>2022-07-21T07:04:08Z</time>
      </trkpt>
      <trkpt lat="46.02005" lon="6.85025">
        <ele>2932</ele>
        <time>2022-07-21T07:04:18Z</time>
      </trkpt>
      <trkpt lat="46.02006" lon="6.85016">
        <ele>2934</ele>
        <time>2022-07-21T07:04:33Z</time>
      </trkpt>
      <trkpt lat="46.02008" lon="6.8501">
        <ele>2935</ele>
        <time>2022-07-21T07:04:43Z</time>
      </trkpt>
      <trkpt lat="46.02008" lon="6.85002">
        <ele>2937</ele>
        <time>2022-07-21T07:04:58Z</time>
      </trkpt>
      <trkpt lat="46.02018" lon="6.85002">
        <ele>2943</ele>
        <time>2022-07-21T07:05:41Z</time>
      </trkpt>
      <trkpt lat="46.02021" lon="6.85006">
        <ele>2946</ele>
        <time>2022-07-21T07:05:56Z</time>
      </trkpt>
      <trkpt lat="46.02026" lon="6.85009">
        <ele>2948</ele>
        <time>2022-07-21T07:06:11Z</time>
      </trkpt>
      <trkpt lat="46.02031" lon="6.85009">
        <ele>2950</ele>
        <time>2022-07-21T07:06:26Z</time>
      </trkpt>
      <trkpt lat="46.02035" lon="6.85007">
        <ele>2952</ele>
        <time>2022-07-21T07:06:41Z</time>
      </trkpt>
      <trkpt lat="46.02035" lon="6.84999">
        <ele>2954</ele>
        <time>2022-07-21T07:06:56Z</time>
      </trkpt>
      <trkpt lat="46.0204" lon="6.85001">
        <ele>2958</ele>
        <time>2022-07-21T07:07:17Z</time>
      </trkpt>
      <trkpt lat="46.0205" lon="6.85006">
        <ele>2961</ele>
        <time>2022-07-21T07:07:48Z</time>
      </trkpt>
      <trkpt lat="46.02055" lon="6.85004">
        <ele>2964</ele>
        <time>2022-07-21T07:08:03Z</time>
      </trkpt>
      <trkpt lat="46.0206" lon="6.85005">
        <ele>2967</ele>
        <time>2022-07-21T07:08:23Z</time>
      </trkpt>
      <trkpt lat="46.02065" lon="6.85004">
        <ele>2969</ele>
        <time>2022-07-21T07:08:38Z</time>
      </trkpt>
      <trkpt lat="46.02064" lon="6.84995">
        <ele>2971</ele>
        <time>2022-07-21T07:08:53Z</time>
      </trkpt>
      <trkpt lat="46.0207" lon="6.84993">
        <ele>2975</ele>
        <time>2022-07-21T07:09:18Z</time>
      </trkpt>
      <trkpt lat="46.02073" lon="6.84987">
        <ele>2977</ele>
        <time>2022-07-21T07:09:36Z</time>
      </trkpt>
      <trkpt lat="46.02078" lon="6.84985">
        <ele>2982</ele>
        <time>2022-07-21T07:10:01Z</time>
      </trkpt>
      <trkpt lat="46.02087" lon="6.84987">
        <ele>2985</ele>
        <time>2022-07-21T07:10:36Z</time>
      </trkpt>
      <trkpt lat="46.02092" lon="6.8499">
        <ele>2987</ele>
        <time>2022-07-21T07:10:51Z</time>
      </trkpt>
      <trkpt lat="46.02098" lon="6.84987">
        <ele>2989</ele>
        <time>2022-07-21T07:11:06Z</time>
      </trkpt>
      <trkpt lat="46.02099" lon="6.8498">
        <ele>2991</ele>
        <time>2022-07-21T07:11:21Z</time>
      </trkpt>
      <trkpt lat="46.02105" lon="6.8498">
        <ele>2995</ele>
        <time>2022-07-21T07:11:44Z</time>
      </trkpt>
      <trkpt lat="46.02111" lon="6.84978">
        <ele>2996</ele>
        <time>2022-07-21T07:11:59Z</time>
      </trkpt>
      <trkpt lat="46.02116" lon="6.84977">
        <ele>2998</ele>
        <time>2022-07-21T07:12:14Z</time>
      </trkpt>
      <trkpt lat="46.02119" lon="6.84972">
        <ele>3001</ele>
        <time>2022-07-21T07:12:34Z</time>
      </trkpt>
      <trkpt lat="46.02123" lon="6.84968">
        <ele>3003</ele>
        <time>2022-07-21T07:12:49Z</time>
      </trkpt>
      <trkpt lat="46.02124" lon="6.84961">
        <ele>3007</ele>
        <time>2022-07-21T07:13:09Z</time>
      </trkpt>
      <trkpt lat="46.02123" lon="6.84954">
        <ele>3009</ele>
        <time>2022-07-21T07:13:24Z</time>
      </trkpt>
      <trkpt lat="46.02121" lon="6.84948">
        <ele>3010</ele>
        <time>2022-07-21T07:13:35Z</time>
      </trkpt>
      <trkpt lat="46.02123" lon="6.84933">
        <ele>3015</ele>
        <time>2022-07-21T07:13:56Z</time>
      </trkpt>
      <trkpt lat="46.02124" lon="6.84925">
        <ele>3015</ele>
        <time>2022-07-21T07:14:11Z</time>
      </trkpt>
      <trkpt lat="46.02127" lon="6.84918">
        <ele>3017</ele>
        <time>2022-07-21T07:14:26Z</time>
      </trkpt>
      <trkpt lat="46.02131" lon="6.84919">
        <ele>3022</ele>
        <time>2022-07-21T07:14:46Z</time>
      </trkpt>
      <trkpt lat="46.02136" lon="6.84924">
        <ele>3023</ele>
        <time>2022-07-21T07:14:56Z</time>
      </trkpt>
      <trkpt lat="46.02141" lon="6.84929">
        <ele>3023</ele>
        <time>2022-07-21T07:15:06Z</time>
      </trkpt>
      <trkpt lat="46.02143" lon="6.84935">
        <ele>3024</ele>
        <time>2022-07-21T07:15:12Z</time>
      </trkpt>
      <trkpt lat="46.02153" lon="6.84939">
        <ele>3027</ele>
        <time>2022-07-21T07:15:28Z</time>
      </trkpt>
      <trkpt lat="46.0216" lon="6.84945">
        <ele>3026</ele>
        <time>2022-07-21T07:15:39Z</time>
      </trkpt>
      <trkpt lat="46.02164" lon="6.84948">
        <ele>3027</ele>
        <time>2022-07-21T07:15:51Z</time>
      </trkpt>
      <trkpt lat="46.0217" lon="6.84953">
        <ele>3025</ele>
        <time>2022-07-21T07:16:11Z</time>
      </trkpt>
      <trkpt lat="46.0218" lon="6.84962">
        <ele>3026</ele>
        <time>2022-07-21T07:16:25Z</time>
      </trkpt>
      <trkpt lat="46.02183" lon="6.84968">
        <ele>3027</ele>
        <time>2022-07-21T07:16:33Z</time>
      </trkpt>
      <trkpt lat="46.02188" lon="6.84968">
        <ele>3027</ele>
        <time>2022-07-21T07:16:38Z</time>
      </trkpt>
      <trkpt lat="46.02193" lon="6.84971">
        <ele>3026</ele>
        <time>2022-07-21T07:16:44Z</time>
      </trkpt>
      <trkpt lat="46.02199" lon="6.84973">
        <ele>3026</ele>
        <time>2022-07-21T07:16:53Z</time>
      </trkpt>
      <trkpt lat="46.02203" lon="6.84973">
        <ele>3026</ele>
        <time>2022-07-21T07:17:03Z</time>
      </trkpt>
      <trkpt lat="46.02208" lon="6.84977">
        <ele>3026</ele>
        <time>2022-07-21T07:17:13Z</time>
      </trkpt>
      <trkpt lat="46.02213" lon="6.84982">
        <ele>3028</ele>
        <time>2022-07-21T07:17:28Z</time>
      </trkpt>
      <trkpt lat="46.02215" lon="6.84988">
        <ele>3029</ele>
        <time>2022-07-21T07:17:44Z</time>
      </trkpt>
      <trkpt lat="46.0222" lon="6.84994">
        <ele>3032</ele>
        <time>2022-07-21T07:17:54Z</time>
      </trkpt>
      <trkpt lat="46.02227" lon="6.84995">
        <ele>3034</ele>
        <time>2022-07-21T07:18:05Z</time>
      </trkpt>
      <trkpt lat="46.0223" lon="6.85">
        <ele>3037</ele>
        <time>2022-07-21T07:18:15Z</time>
      </trkpt>
      <trkpt lat="46.02236" lon="6.84996">
        <ele>3037</ele>
        <time>2022-07-21T07:18:25Z</time>
      </trkpt>
      <trkpt lat="46.02244" lon="6.84995">
        <ele>3038</ele>
        <time>2022-07-21T07:18:35Z</time>
      </trkpt>
      <trkpt lat="46.02246" lon="6.85005">
        <ele>3038</ele>
        <time>2022-07-21T07:18:45Z</time>
      </trkpt>
      <trkpt lat="46.02252" lon="6.85009">
        <ele>3037</ele>
        <time>2022-07-21T07:24:06Z</time>
      </trkpt>
      <trkpt lat="46.02256" lon="6.8501">
        <ele>3038</ele>
        <time>2022-07-21T07:24:11Z</time>
      </trkpt>
      <trkpt lat="46.02262" lon="6.8501">
        <ele>3039</ele>
        <time>2022-07-21T07:24:18Z</time>
      </trkpt>
      <trkpt lat="46.0228" lon="6.85013">
        <ele>3040</ele>
        <time>2022-07-21T07:24:40Z</time>
      </trkpt>
      <trkpt lat="46.02286" lon="6.85023">
        <ele>3041</ele>
        <time>2022-07-21T07:24:50Z</time>
      </trkpt>
      <trkpt lat="46.02291" lon="6.85027">
        <ele>3042</ele>
        <time>2022-07-21T07:24:57Z</time>
      </trkpt>
      <trkpt lat="46.02296" lon="6.85028">
        <ele>3042</ele>
        <time>2022-07-21T07:25:04Z</time>
      </trkpt>
      <trkpt lat="46.02305" lon="6.8503">
        <ele>3044</ele>
        <time>2022-07-21T07:25:15Z</time>
      </trkpt>
      <trkpt lat="46.02308" lon="6.85034">
        <ele>3044</ele>
        <time>2022-07-21T07:25:20Z</time>
      </trkpt>
      <trkpt lat="46.02315" lon="6.8504">
        <ele>3044</ele>
        <time>2022-07-21T07:25:30Z</time>
      </trkpt>
      <trkpt lat="46.02321" lon="6.85046">
        <ele>3045</ele>
        <time>2022-07-21T07:25:38Z</time>
      </trkpt>
      <trkpt lat="46.02327" lon="6.85047">
        <ele>3045</ele>
        <time>2022-07-21T07:25:45Z</time>
      </trkpt>
      <trkpt lat="46.02341" lon="6.85063">
        <ele>3048</ele>
        <time>2022-07-21T07:26:08Z</time>
      </trkpt>
      <trkpt lat="46.02344" lon="6.85069">
        <ele>3049</ele>
        <time>2022-07-21T07:26:14Z</time>
      </trkpt>
      <trkpt lat="46.02348" lon="6.85079">
        <ele>3050</ele>
        <time>2022-07-21T07:26:25Z</time>
      </trkpt>
      <trkpt lat="46.02351" lon="6.85086">
        <ele>3051</ele>
        <time>2022-07-21T07:26:33Z</time>
      </trkpt>
      <trkpt lat="46.02353" lon="6.85093">
        <ele>3052</ele>
        <time>2022-07-21T07:26:39Z</time>
      </trkpt>
      <trkpt lat="46.02357" lon="6.851">
        <ele>3053</ele>
        <time>2022-07-21T07:26:49Z</time>
      </trkpt>
      <trkpt lat="46.02362" lon="6.85106">
        <ele>3053</ele>
        <time>2022-07-21T07:26:59Z</time>
      </trkpt>
      <trkpt lat="46.02368" lon="6.85124">
        <ele>3055</ele>
        <time>2022-07-21T07:27:17Z</time>
      </trkpt>
      <trkpt lat="46.02373" lon="6.85129">
        <ele>3057</ele>
        <time>2022-07-21T07:27:27Z</time>
      </trkpt>
      <trkpt lat="46.02379" lon="6.85134">
        <ele>3058</ele>
        <time>2022-07-21T07:27:37Z</time>
      </trkpt>
      <trkpt lat="46.02383" lon="6.85142">
        <ele>3060</ele>
        <time>2022-07-21T07:27:47Z</time>
      </trkpt>
      <trkpt lat="46.0239" lon="6.85143">
        <ele>3062</ele>
        <time>2022-07-21T07:27:57Z</time>
      </trkpt>
      <trkpt lat="46.02395" lon="6.85147">
        <ele>3063</ele>
        <time>2022-07-21T07:28:07Z</time>
      </trkpt>
      <trkpt lat="46.02401" lon="6.85147">
        <ele>3065</ele>
        <time>2022-07-21T07:28:18Z</time>
      </trkpt>
      <trkpt lat="46.02411" lon="6.85155">
        <ele>3068</ele>
        <time>2022-07-21T07:28:40Z</time>
      </trkpt>
      <trkpt lat="46.02413" lon="6.85161">
        <ele>3069</ele>
        <time>2022-07-21T07:28:50Z</time>
      </trkpt>
      <trkpt lat="46.02414" lon="6.85167">
        <ele>3070</ele>
        <time>2022-07-21T07:29:15Z</time>
      </trkpt>
      <trkpt lat="46.02422" lon="6.8518">
        <ele>3073</ele>
        <time>2022-07-21T07:29:50Z</time>
      </trkpt>
      <trkpt lat="46.02423" lon="6.85187">
        <ele>3074</ele>
        <time>2022-07-21T07:30:00Z</time>
      </trkpt>
      <trkpt lat="46.02427" lon="6.85192">
        <ele>3075</ele>
        <time>2022-07-21T07:30:15Z</time>
      </trkpt>
      <trkpt lat="46.02432" lon="6.85201">
        <ele>3077</ele>
        <time>2022-07-21T07:30:26Z</time>
      </trkpt>
      <trkpt lat="46.02437" lon="6.85201">
        <ele>3079</ele>
        <time>2022-07-21T07:30:38Z</time>
      </trkpt>
      <trkpt lat="46.02441" lon="6.85203">
        <ele>3080</ele>
        <time>2022-07-21T07:30:48Z</time>
      </trkpt>
      <trkpt lat="46.02446" lon="6.85204">
        <ele>3080</ele>
        <time>2022-07-21T07:31:28Z</time>
      </trkpt>
      <trkpt lat="46.02452" lon="6.85208">
        <ele>3082</ele>
        <time>2022-07-21T07:31:38Z</time>
      </trkpt>
      <trkpt lat="46.02459" lon="6.85211">
        <ele>3084</ele>
        <time>2022-07-21T07:31:48Z</time>
      </trkpt>
      <trkpt lat="46.02467" lon="6.85221">
        <ele>3087</ele>
        <time>2022-07-21T07:32:18Z</time>
      </trkpt>
      <trkpt lat="46.02471" lon="6.85235">
        <ele>3090</ele>
        <time>2022-07-21T07:32:40Z</time>
      </trkpt>
      <trkpt lat="46.02475" lon="6.8524">
        <ele>3091</ele>
        <time>2022-07-21T07:32:50Z</time>
      </trkpt>
      <trkpt lat="46.02477" lon="6.85245">
        <ele>3093</ele>
        <time>2022-07-21T07:33:00Z</time>
      </trkpt>
      <trkpt lat="46.02481" lon="6.85247">
        <ele>3094</ele>
        <time>2022-07-21T07:33:10Z</time>
      </trkpt>
      <trkpt lat="46.02482" lon="6.85257">
        <ele>3095</ele>
        <time>2022-07-21T07:34:20Z</time>
      </trkpt>
      <trkpt lat="46.02481" lon="6.85252">
        <ele>3095</ele>
        <time>2022-07-21T07:37:01Z</time>
      </trkpt>
      <trkpt lat="46.02479" lon="6.85258">
        <ele>3094</ele>
        <time>2022-07-21T07:40:53Z</time>
      </trkpt>
      <trkpt lat="46.02476" lon="6.85264">
        <ele>3094</ele>
        <time>2022-07-21T07:40:58Z</time>
      </trkpt>
      <trkpt lat="46.02473" lon="6.85272">
        <ele>3094</ele>
        <time>2022-07-21T07:41:05Z</time>
      </trkpt>
      <trkpt lat="46.02467" lon="6.85293">
        <ele>3092</ele>
        <time>2022-07-21T07:41:22Z</time>
      </trkpt>
      <trkpt lat="46.02465" lon="6.85306">
        <ele>3091</ele>
        <time>2022-07-21T07:41:31Z</time>
      </trkpt>
      <trkpt lat="46.02464" lon="6.85313">
        <ele>3091</ele>
        <time>2022-07-21T07:41:36Z</time>
      </trkpt>
      <trkpt lat="46.02461" lon="6.85321">
        <ele>3091</ele>
        <time>2022-07-21T07:41:44Z</time>
      </trkpt>
      <trkpt lat="46.02447" lon="6.85349">
        <ele>3083</ele>
        <time>2022-07-21T07:42:14Z</time>
      </trkpt>
      <trkpt lat="46.02442" lon="6.8536">
        <ele>3082</ele>
        <time>2022-07-21T07:42:22Z</time>
      </trkpt>
      <trkpt lat="46.02436" lon="6.85373">
        <ele>3081</ele>
        <time>2022-07-21T07:42:31Z</time>
      </trkpt>
      <trkpt lat="46.02433" lon="6.85377">
        <ele>3081</ele>
        <time>2022-07-21T07:42:35Z</time>
      </trkpt>
      <trkpt lat="46.0243" lon="6.85383">
        <ele>3082</ele>
        <time>2022-07-21T07:42:40Z</time>
      </trkpt>
      <trkpt lat="46.0243" lon="6.85392">
        <ele>3082</ele>
        <time>2022-07-21T07:42:47Z</time>
      </trkpt>
      <trkpt lat="46.02428" lon="6.85399">
        <ele>3081</ele>
        <time>2022-07-21T07:42:54Z</time>
      </trkpt>
      <trkpt lat="46.02426" lon="6.85406">
        <ele>3079</ele>
        <time>2022-07-21T07:43:00Z</time>
      </trkpt>
      <trkpt lat="46.02426" lon="6.85412">
        <ele>3078</ele>
        <time>2022-07-21T07:43:04Z</time>
      </trkpt>
      <trkpt lat="46.02423" lon="6.85439">
        <ele>3075</ele>
        <time>2022-07-21T07:43:26Z</time>
      </trkpt>
      <trkpt lat="46.02421" lon="6.85443">
        <ele>3075</ele>
        <time>2022-07-21T07:46:37Z</time>
      </trkpt>
      <trkpt lat="46.02421" lon="6.85442">
        <ele>3073</ele>
        <time>2022-07-21T08:08:48Z</time>
      </trkpt>
      <trkpt lat="46.02425" lon="6.85447">
        <ele>3073</ele>
        <time>2022-07-21T08:34:46Z</time>
      </trkpt>
      <trkpt lat="46.02422" lon="6.85452">
        <ele>3069</ele>
        <time>2022-07-21T08:42:40Z</time>
      </trkpt>
      <trkpt lat="46.02421" lon="6.85444">
        <ele>3070</ele>
        <time>2022-07-21T08:42:50Z</time>
      </trkpt>
      <trkpt lat="46.02424" lon="6.8544">
        <ele>3071</ele>
        <time>2022-07-21T08:59:26Z</time>
      </trkpt>
      <trkpt lat="46.0242" lon="6.85435">
        <ele>3071</ele>
        <time>2022-07-21T08:59:56Z</time>
      </trkpt>
      <trkpt lat="46.02421" lon="6.85428">
        <ele>3074</ele>
        <time>2022-07-21T09:04:27Z</time>
      </trkpt>
      <trkpt lat="46.02423" lon="6.85421">
        <ele>3075</ele>
        <time>2022-07-21T09:04:37Z</time>
      </trkpt>
      <trkpt lat="46.02426" lon="6.85414">
        <ele>3076</ele>
        <time>2022-07-21T09:04:47Z</time>
      </trkpt>
      <trkpt lat="46.02427" lon="6.85405">
        <ele>3077</ele>
        <time>2022-07-21T09:04:59Z</time>
      </trkpt>
      <trkpt lat="46.02429" lon="6.85396">
        <ele>3079</ele>
        <time>2022-07-21T09:05:09Z</time>
      </trkpt>
      <trkpt lat="46.0243" lon="6.85387">
        <ele>3081</ele>
        <time>2022-07-21T09:05:19Z</time>
      </trkpt>
      <trkpt lat="46.02427" lon="6.85377">
        <ele>3080</ele>
        <time>2022-07-21T09:05:29Z</time>
      </trkpt>
      <trkpt lat="46.02414" lon="6.85354">
        <ele>3075</ele>
        <time>2022-07-21T09:06:00Z</time>
      </trkpt>
      <trkpt lat="46.02399" lon="6.85328">
        <ele>3070</ele>
        <time>2022-07-21T09:06:31Z</time>
      </trkpt>
      <trkpt lat="46.02392" lon="6.85312">
        <ele>3067</ele>
        <time>2022-07-21T09:06:49Z</time>
      </trkpt>
      <trkpt lat="46.02391" lon="6.85306">
        <ele>3067</ele>
        <time>2022-07-21T09:06:53Z</time>
      </trkpt>
      <trkpt lat="46.02386" lon="6.853">
        <ele>3065</ele>
        <time>2022-07-21T09:07:00Z</time>
      </trkpt>
      <trkpt lat="46.02384" lon="6.85292">
        <ele>3064</ele>
        <time>2022-07-21T09:07:07Z</time>
      </trkpt>
      <trkpt lat="46.02379" lon="6.85282">
        <ele>3063</ele>
        <time>2022-07-21T09:07:18Z</time>
      </trkpt>
      <trkpt lat="46.02374" lon="6.85265">
        <ele>3061</ele>
        <time>2022-07-21T09:07:31Z</time>
      </trkpt>
      <trkpt lat="46.02368" lon="6.85251">
        <ele>3058</ele>
        <time>2022-07-21T09:07:44Z</time>
      </trkpt>
      <trkpt lat="46.02364" lon="6.85215">
        <ele>3056</ele>
        <time>2022-07-21T09:08:09Z</time>
      </trkpt>
      <trkpt lat="46.02362" lon="6.85206">
        <ele>3056</ele>
        <time>2022-07-21T09:08:16Z</time>
      </trkpt>
      <trkpt lat="46.02362" lon="6.85197">
        <ele>3056</ele>
        <time>2022-07-21T09:08:23Z</time>
      </trkpt>
      <trkpt lat="46.0236" lon="6.85184">
        <ele>3057</ele>
        <time>2022-07-21T09:08:31Z</time>
      </trkpt>
      <trkpt lat="46.02358" lon="6.8517">
        <ele>3056</ele>
        <time>2022-07-21T09:08:39Z</time>
      </trkpt>
      <trkpt lat="46.02357" lon="6.85164">
        <ele>3056</ele>
        <time>2022-07-21T09:08:43Z</time>
      </trkpt>
      <trkpt lat="46.02345" lon="6.8514">
        <ele>3052</ele>
        <time>2022-07-21T09:08:57Z</time>
      </trkpt>
      <trkpt lat="46.02335" lon="6.85124">
        <ele>3050</ele>
        <time>2022-07-21T09:09:05Z</time>
      </trkpt>
      <trkpt lat="46.02327" lon="6.85109">
        <ele>3048</ele>
        <time>2022-07-21T09:09:15Z</time>
      </trkpt>
      <trkpt lat="46.02322" lon="6.85101">
        <ele>3047</ele>
        <time>2022-07-21T09:09:22Z</time>
      </trkpt>
      <trkpt lat="46.02317" lon="6.85091">
        <ele>3045</ele>
        <time>2022-07-21T09:09:32Z</time>
      </trkpt>
      <trkpt lat="46.0231" lon="6.8508">
        <ele>3044</ele>
        <time>2022-07-21T09:09:39Z</time>
      </trkpt>
      <trkpt lat="46.02288" lon="6.85051">
        <ele>3040</ele>
        <time>2022-07-21T09:10:03Z</time>
      </trkpt>
      <trkpt lat="46.02279" lon="6.85031">
        <ele>3041</ele>
        <time>2022-07-21T09:10:19Z</time>
      </trkpt>
      <trkpt lat="46.02274" lon="6.85027">
        <ele>3042</ele>
        <time>2022-07-21T09:10:24Z</time>
      </trkpt>
      <trkpt lat="46.0227" lon="6.85022">
        <ele>3042</ele>
        <time>2022-07-21T09:10:28Z</time>
      </trkpt>
      <trkpt lat="46.02267" lon="6.85018">
        <ele>3040</ele>
        <time>2022-07-21T09:10:32Z</time>
      </trkpt>
      <trkpt lat="46.02263" lon="6.85015">
        <ele>3040</ele>
        <time>2022-07-21T09:10:36Z</time>
      </trkpt>
      <trkpt lat="46.02254" lon="6.85009">
        <ele>3040</ele>
        <time>2022-07-21T09:10:45Z</time>
      </trkpt>
      <trkpt lat="46.02249" lon="6.85009">
        <ele>3040</ele>
        <time>2022-07-21T09:10:49Z</time>
      </trkpt>
      <trkpt lat="46.0224" lon="6.85004">
        <ele>3039</ele>
        <time>2022-07-21T09:10:57Z</time>
      </trkpt>
      <trkpt lat="46.02234" lon="6.85005">
        <ele>3038</ele>
        <time>2022-07-21T09:11:04Z</time>
      </trkpt>
      <trkpt lat="46.0223" lon="6.85002">
        <ele>3037</ele>
        <time>2022-07-21T09:11:09Z</time>
      </trkpt>
      <trkpt lat="46.02227" lon="6.84997">
        <ele>3037</ele>
        <time>2022-07-21T09:11:14Z</time>
      </trkpt>
      <trkpt lat="46.0221" lon="6.84981">
        <ele>3031</ele>
        <time>2022-07-21T09:11:35Z</time>
      </trkpt>
      <trkpt lat="46.02205" lon="6.84973">
        <ele>3028</ele>
        <time>2022-07-21T09:11:43Z</time>
      </trkpt>
      <trkpt lat="46.02201" lon="6.84972">
        <ele>3028</ele>
        <time>2022-07-21T09:11:47Z</time>
      </trkpt>
      <trkpt lat="46.02197" lon="6.84972">
        <ele>3027</ele>
        <time>2022-07-21T09:11:52Z</time>
      </trkpt>
      <trkpt lat="46.02192" lon="6.84969">
        <ele>3027</ele>
        <time>2022-07-21T09:11:57Z</time>
      </trkpt>
      <trkpt lat="46.02185" lon="6.84965">
        <ele>3027</ele>
        <time>2022-07-21T09:12:04Z</time>
      </trkpt>
      <trkpt lat="46.02179" lon="6.8496">
        <ele>3028</ele>
        <time>2022-07-21T09:12:13Z</time>
      </trkpt>
      <trkpt lat="46.02174" lon="6.84958">
        <ele>3027</ele>
        <time>2022-07-21T09:12:23Z</time>
      </trkpt>
      <trkpt lat="46.02156" lon="6.8495">
        <ele>3021</ele>
        <time>2022-07-21T09:12:48Z</time>
      </trkpt>
      <trkpt lat="46.02151" lon="6.8495">
        <ele>3020</ele>
        <time>2022-07-21T09:12:52Z</time>
      </trkpt>
      <trkpt lat="46.02147" lon="6.84948">
        <ele>3019</ele>
        <time>2022-07-21T09:12:56Z</time>
      </trkpt>
      <trkpt lat="46.02136" lon="6.84947">
        <ele>3018</ele>
        <time>2022-07-21T09:13:06Z</time>
      </trkpt>
      <trkpt lat="46.02132" lon="6.84947">
        <ele>3018</ele>
        <time>2022-07-21T09:13:09Z</time>
      </trkpt>
      <trkpt lat="46.02125" lon="6.84949">
        <ele>3016</ele>
        <time>2022-07-21T09:13:18Z</time>
      </trkpt>
      <trkpt lat="46.0212" lon="6.84949">
        <ele>3014</ele>
        <time>2022-07-21T09:13:23Z</time>
      </trkpt>
      <trkpt lat="46.02123" lon="6.84965">
        <ele>3010</ele>
        <time>2022-07-21T09:13:39Z</time>
      </trkpt>
      <trkpt lat="46.02118" lon="6.84978">
        <ele>3004</ele>
        <time>2022-07-21T09:13:54Z</time>
      </trkpt>
      <trkpt lat="46.02102" lon="6.84979">
        <ele>2999</ele>
        <time>2022-07-21T09:14:10Z</time>
      </trkpt>
      <trkpt lat="46.02097" lon="6.84979">
        <ele>2997</ele>
        <time>2022-07-21T09:14:17Z</time>
      </trkpt>
      <trkpt lat="46.02097" lon="6.84986">
        <ele>2995</ele>
        <time>2022-07-21T09:14:21Z</time>
      </trkpt>
      <trkpt lat="46.02083" lon="6.84986">
        <ele>2989</ele>
        <time>2022-07-21T09:14:40Z</time>
      </trkpt>
      <trkpt lat="46.02078" lon="6.84984">
        <ele>2987</ele>
        <time>2022-07-21T09:14:46Z</time>
      </trkpt>
      <trkpt lat="46.02073" lon="6.84985">
        <ele>2983</ele>
        <time>2022-07-21T09:14:53Z</time>
      </trkpt>
      <trkpt lat="46.0207" lon="6.84994">
        <ele>2980</ele>
        <time>2022-07-21T09:15:03Z</time>
      </trkpt>
      <trkpt lat="46.02065" lon="6.84993">
        <ele>2977</ele>
        <time>2022-07-21T09:15:10Z</time>
      </trkpt>
      <trkpt lat="46.02063" lon="6.85002">
        <ele>2974</ele>
        <time>2022-07-21T09:15:18Z</time>
      </trkpt>
      <trkpt lat="46.02058" lon="6.85003">
        <ele>2971</ele>
        <time>2022-07-21T09:15:26Z</time>
      </trkpt>
      <trkpt lat="46.02053" lon="6.85006">
        <ele>2967</ele>
        <time>2022-07-21T09:15:34Z</time>
      </trkpt>
      <trkpt lat="46.02049" lon="6.85004">
        <ele>2965</ele>
        <time>2022-07-21T09:15:39Z</time>
      </trkpt>
      <trkpt lat="46.02044" lon="6.85">
        <ele>2963</ele>
        <time>2022-07-21T09:15:43Z</time>
      </trkpt>
      <trkpt lat="46.02034" lon="6.84996">
        <ele>2959</ele>
        <time>2022-07-21T09:15:53Z</time>
      </trkpt>
      <trkpt lat="46.02033" lon="6.85004">
        <ele>2957</ele>
        <time>2022-07-21T09:15:57Z</time>
      </trkpt>
      <trkpt lat="46.02028" lon="6.85008">
        <ele>2953</ele>
        <time>2022-07-21T09:16:06Z</time>
      </trkpt>
      <trkpt lat="46.02022" lon="6.85004">
        <ele>2951</ele>
        <time>2022-07-21T09:16:13Z</time>
      </trkpt>
      <trkpt lat="46.02017" lon="6.85005">
        <ele>2948</ele>
        <time>2022-07-21T09:16:20Z</time>
      </trkpt>
      <trkpt lat="46.02011" lon="6.85002">
        <ele>2945</ele>
        <time>2022-07-21T09:16:30Z</time>
      </trkpt>
      <trkpt lat="46.02007" lon="6.85004">
        <ele>2942</ele>
        <time>2022-07-21T09:16:35Z</time>
      </trkpt>
      <trkpt lat="46.02005" lon="6.8501">
        <ele>2940</ele>
        <time>2022-07-21T09:16:39Z</time>
      </trkpt>
      <trkpt lat="46.02005" lon="6.85018">
        <ele>2938</ele>
        <time>2022-07-21T09:16:46Z</time>
      </trkpt>
      <trkpt lat="46.02002" lon="6.85025">
        <ele>2937</ele>
        <time>2022-07-21T09:16:53Z</time>
      </trkpt>
      <trkpt lat="46.02" lon="6.85032">
        <ele>2935</ele>
        <time>2022-07-21T09:16:57Z</time>
      </trkpt>
      <trkpt lat="46.02001" lon="6.85039">
        <ele>2934</ele>
        <time>2022-07-21T09:17:01Z</time>
      </trkpt>
      <trkpt lat="46.01999" lon="6.85052">
        <ele>2932</ele>
        <time>2022-07-21T09:17:09Z</time>
      </trkpt>
      <trkpt lat="46.01996" lon="6.85058">
        <ele>2930</ele>
        <time>2022-07-21T09:17:14Z</time>
      </trkpt>
      <trkpt lat="46.01992" lon="6.85071">
        <ele>2928</ele>
        <time>2022-07-21T09:17:22Z</time>
      </trkpt>
      <trkpt lat="46.01992" lon="6.85078">
        <ele>2928</ele>
        <time>2022-07-21T09:17:31Z</time>
      </trkpt>
      <trkpt lat="46.01985" lon="6.85094">
        <ele>2925</ele>
        <time>2022-07-21T09:17:46Z</time>
      </trkpt>
      <trkpt lat="46.0198" lon="6.85135">
        <ele>2920</ele>
        <time>2022-07-21T09:18:09Z</time>
      </trkpt>
      <trkpt lat="46.01981" lon="6.85142">
        <ele>2919</ele>
        <time>2022-07-21T09:18:13Z</time>
      </trkpt>
      <trkpt lat="46.01983" lon="6.85149">
        <ele>2918</ele>
        <time>2022-07-21T09:18:20Z</time>
      </trkpt>
      <trkpt lat="46.01981" lon="6.85156">
        <ele>2918</ele>
        <time>2022-07-21T09:18:24Z</time>
      </trkpt>
      <trkpt lat="46.0197" lon="6.85152">
        <ele>2915</ele>
        <time>2022-07-21T09:18:35Z</time>
      </trkpt>
      <trkpt lat="46.01963" lon="6.8514">
        <ele>2912</ele>
        <time>2022-07-21T09:18:47Z</time>
      </trkpt>
      <trkpt lat="46.01961" lon="6.85146">
        <ele>2910</ele>
        <time>2022-07-21T09:18:54Z</time>
      </trkpt>
      <trkpt lat="46.01957" lon="6.85143">
        <ele>2907</ele>
        <time>2022-07-21T09:19:09Z</time>
      </trkpt>
      <trkpt lat="46.01952" lon="6.85137">
        <ele>2905</ele>
        <time>2022-07-21T09:19:19Z</time>
      </trkpt>
      <trkpt lat="46.01949" lon="6.85132">
        <ele>2903</ele>
        <time>2022-07-21T09:19:24Z</time>
      </trkpt>
      <trkpt lat="46.01945" lon="6.85138">
        <ele>2901</ele>
        <time>2022-07-21T09:19:32Z</time>
      </trkpt>
      <trkpt lat="46.01943" lon="6.85147">
        <ele>2898</ele>
        <time>2022-07-21T09:19:39Z</time>
      </trkpt>
      <trkpt lat="46.01938" lon="6.85145">
        <ele>2896</ele>
        <time>2022-07-21T09:21:17Z</time>
      </trkpt>
      <trkpt lat="46.01935" lon="6.85155">
        <ele>2894</ele>
        <time>2022-07-21T09:21:38Z</time>
      </trkpt>
      <trkpt lat="46.01933" lon="6.85163">
        <ele>2891</ele>
        <time>2022-07-21T09:21:50Z</time>
      </trkpt>
      <trkpt lat="46.0193" lon="6.85156">
        <ele>2888</ele>
        <time>2022-07-21T09:22:01Z</time>
      </trkpt>
      <trkpt lat="46.01925" lon="6.85155">
        <ele>2886</ele>
        <time>2022-07-21T09:22:11Z</time>
      </trkpt>
      <trkpt lat="46.01922" lon="6.85161">
        <ele>2884</ele>
        <time>2022-07-21T09:22:21Z</time>
      </trkpt>
      <trkpt lat="46.01917" lon="6.85175">
        <ele>2879</ele>
        <time>2022-07-21T09:22:41Z</time>
      </trkpt>
      <trkpt lat="46.01903" lon="6.85161">
        <ele>2871</ele>
        <time>2022-07-21T09:23:03Z</time>
      </trkpt>
      <trkpt lat="46.019" lon="6.85166">
        <ele>2869</ele>
        <time>2022-07-21T09:23:07Z</time>
      </trkpt>
      <trkpt lat="46.01895" lon="6.85182">
        <ele>2865</ele>
        <time>2022-07-21T09:23:19Z</time>
      </trkpt>
      <trkpt lat="46.01891" lon="6.85181">
        <ele>2862</ele>
        <time>2022-07-21T09:23:27Z</time>
      </trkpt>
      <trkpt lat="46.01887" lon="6.85186">
        <ele>2859</ele>
        <time>2022-07-21T09:23:32Z</time>
      </trkpt>
      <trkpt lat="46.01886" lon="6.85193">
        <ele>2858</ele>
        <time>2022-07-21T09:23:36Z</time>
      </trkpt>
      <trkpt lat="46.01876" lon="6.8519">
        <ele>2852</ele>
        <time>2022-07-21T09:23:49Z</time>
      </trkpt>
      <trkpt lat="46.01869" lon="6.85192">
        <ele>2848</ele>
        <time>2022-07-21T09:23:57Z</time>
      </trkpt>
      <trkpt lat="46.01864" lon="6.85203">
        <ele>2844</ele>
        <time>2022-07-21T09:24:07Z</time>
      </trkpt>
      <trkpt lat="46.01858" lon="6.85202">
        <ele>2840</ele>
        <time>2022-07-21T09:24:18Z</time>
      </trkpt>
      <trkpt lat="46.01853" lon="6.85206">
        <ele>2836</ele>
        <time>2022-07-21T09:24:27Z</time>
      </trkpt>
      <trkpt lat="46.0184" lon="6.85203">
        <ele>2828</ele>
        <time>2022-07-21T09:24:50Z</time>
      </trkpt>
      <trkpt lat="46.01837" lon="6.85197">
        <ele>2826</ele>
        <time>2022-07-21T09:24:56Z</time>
      </trkpt>
      <trkpt lat="46.01832" lon="6.85191">
        <ele>2824</ele>
        <time>2022-07-21T09:25:01Z</time>
      </trkpt>
      <trkpt lat="46.01827" lon="6.85204">
        <ele>2820</ele>
        <time>2022-07-21T09:25:11Z</time>
      </trkpt>
      <trkpt lat="46.01822" lon="6.85208">
        <ele>2816</ele>
        <time>2022-07-21T09:25:20Z</time>
      </trkpt>
      <trkpt lat="46.01818" lon="6.8521">
        <ele>2812</ele>
        <time>2022-07-21T09:25:26Z</time>
      </trkpt>
      <trkpt lat="46.01812" lon="6.85216">
        <ele>2809</ele>
        <time>2022-07-21T09:25:36Z</time>
      </trkpt>
      <trkpt lat="46.01808" lon="6.85214">
        <ele>2805</ele>
        <time>2022-07-21T09:25:46Z</time>
      </trkpt>
      <trkpt lat="46.01805" lon="6.8522">
        <ele>2803</ele>
        <time>2022-07-21T09:25:51Z</time>
      </trkpt>
      <trkpt lat="46.018" lon="6.85207">
        <ele>2799</ele>
        <time>2022-07-21T09:26:02Z</time>
      </trkpt>
      <trkpt lat="46.01793" lon="6.85203">
        <ele>2794</ele>
        <time>2022-07-21T09:26:12Z</time>
      </trkpt>
      <trkpt lat="46.01787" lon="6.85198">
        <ele>2792</ele>
        <time>2022-07-21T09:26:21Z</time>
      </trkpt>
      <trkpt lat="46.01778" lon="6.85182">
        <ele>2786</ele>
        <time>2022-07-21T09:26:31Z</time>
      </trkpt>
      <trkpt lat="46.01775" lon="6.85188">
        <ele>2784</ele>
        <time>2022-07-21T09:26:34Z</time>
      </trkpt>
      <trkpt lat="46.01773" lon="6.85182">
        <ele>2781</ele>
        <time>2022-07-21T09:26:40Z</time>
      </trkpt>
      <trkpt lat="46.01769" lon="6.85188">
        <ele>2778</ele>
        <time>2022-07-21T09:26:44Z</time>
      </trkpt>
      <trkpt lat="46.01765" lon="6.85191">
        <ele>2777</ele>
        <time>2022-07-21T09:26:48Z</time>
      </trkpt>
      <trkpt lat="46.0176" lon="6.85176">
        <ele>2773</ele>
        <time>2022-07-21T09:26:56Z</time>
      </trkpt>
      <trkpt lat="46.01757" lon="6.85183">
        <ele>2772</ele>
        <time>2022-07-21T09:26:59Z</time>
      </trkpt>
      <trkpt lat="46.01754" lon="6.85187">
        <ele>2771</ele>
        <time>2022-07-21T09:27:02Z</time>
      </trkpt>
      <trkpt lat="46.01753" lon="6.85179">
        <ele>2769</ele>
        <time>2022-07-21T09:27:05Z</time>
      </trkpt>
      <trkpt lat="46.01745" lon="6.85183">
        <ele>2766</ele>
        <time>2022-07-21T09:27:12Z</time>
      </trkpt>
      <trkpt lat="46.01744" lon="6.85175">
        <ele>2765</ele>
        <time>2022-07-21T09:27:15Z</time>
      </trkpt>
      <trkpt lat="46.01737" lon="6.85175">
        <ele>2762</ele>
        <time>2022-07-21T09:27:25Z</time>
      </trkpt>
      <trkpt lat="46.01727" lon="6.85183">
        <ele>2757</ele>
        <time>2022-07-21T09:27:36Z</time>
      </trkpt>
      <trkpt lat="46.0172" lon="6.8518">
        <ele>2754</ele>
        <time>2022-07-21T09:27:44Z</time>
      </trkpt>
      <trkpt lat="46.01714" lon="6.8517">
        <ele>2751</ele>
        <time>2022-07-21T09:27:51Z</time>
      </trkpt>
      <trkpt lat="46.01709" lon="6.85166">
        <ele>2748</ele>
        <time>2022-07-21T09:27:58Z</time>
      </trkpt>
      <trkpt lat="46.01703" lon="6.85165">
        <ele>2745</ele>
        <time>2022-07-21T09:28:05Z</time>
      </trkpt>
      <trkpt lat="46.01694" lon="6.85166">
        <ele>2742</ele>
        <time>2022-07-21T09:28:23Z</time>
      </trkpt>
      <trkpt lat="46.01689" lon="6.85171">
        <ele>2740</ele>
        <time>2022-07-21T09:28:28Z</time>
      </trkpt>
      <trkpt lat="46.0168" lon="6.85174">
        <ele>2738</ele>
        <time>2022-07-21T09:28:37Z</time>
      </trkpt>
      <trkpt lat="46.01676" lon="6.85172">
        <ele>2738</ele>
        <time>2022-07-21T09:28:40Z</time>
      </trkpt>
      <trkpt lat="46.0167" lon="6.85173">
        <ele>2739</ele>
        <time>2022-07-21T09:28:49Z</time>
      </trkpt>
      <trkpt lat="46.01664" lon="6.85171">
        <ele>2739</ele>
        <time>2022-07-21T09:28:59Z</time>
      </trkpt>
      <trkpt lat="46.01655" lon="6.85165">
        <ele>2737</ele>
        <time>2022-07-21T09:29:09Z</time>
      </trkpt>
      <trkpt lat="46.0165" lon="6.85163">
        <ele>2737</ele>
        <time>2022-07-21T09:29:13Z</time>
      </trkpt>
      <trkpt lat="46.01644" lon="6.85161">
        <ele>2737</ele>
        <time>2022-07-21T09:29:20Z</time>
      </trkpt>
      <trkpt lat="46.01638" lon="6.85155">
        <ele>2736</ele>
        <time>2022-07-21T09:29:28Z</time>
      </trkpt>
      <trkpt lat="46.01632" lon="6.85154">
        <ele>2735</ele>
        <time>2022-07-21T09:29:33Z</time>
      </trkpt>
      <trkpt lat="46.01628" lon="6.85152">
        <ele>2733</ele>
        <time>2022-07-21T09:29:38Z</time>
      </trkpt>
      <trkpt lat="46.01624" lon="6.85147">
        <ele>2733</ele>
        <time>2022-07-21T09:29:42Z</time>
      </trkpt>
      <trkpt lat="46.01618" lon="6.85144">
        <ele>2731</ele>
        <time>2022-07-21T09:29:49Z</time>
      </trkpt>
      <trkpt lat="46.0161" lon="6.85132">
        <ele>2728</ele>
        <time>2022-07-21T09:30:01Z</time>
      </trkpt>
      <trkpt lat="46.01604" lon="6.85132">
        <ele>2727</ele>
        <time>2022-07-21T09:30:07Z</time>
      </trkpt>
      <trkpt lat="46.016" lon="6.8513">
        <ele>2726</ele>
        <time>2022-07-21T09:30:11Z</time>
      </trkpt>
      <trkpt lat="46.01592" lon="6.85119">
        <ele>2721</ele>
        <time>2022-07-21T09:30:29Z</time>
      </trkpt>
      <trkpt lat="46.01575" lon="6.85102">
        <ele>2713</ele>
        <time>2022-07-21T09:30:54Z</time>
      </trkpt>
      <trkpt lat="46.01571" lon="6.85097">
        <ele>2711</ele>
        <time>2022-07-21T09:30:59Z</time>
      </trkpt>
      <trkpt lat="46.01558" lon="6.85087">
        <ele>2709</ele>
        <time>2022-07-21T09:31:11Z</time>
      </trkpt>
      <trkpt lat="46.01554" lon="6.85087">
        <ele>2709</ele>
        <time>2022-07-21T09:31:15Z</time>
      </trkpt>
      <trkpt lat="46.01546" lon="6.85083">
        <ele>2709</ele>
        <time>2022-07-21T09:31:23Z</time>
      </trkpt>
      <trkpt lat="46.01541" lon="6.85081">
        <ele>2709</ele>
        <time>2022-07-21T09:31:26Z</time>
      </trkpt>
      <trkpt lat="46.01525" lon="6.85072">
        <ele>2708</ele>
        <time>2022-07-21T09:31:40Z</time>
      </trkpt>
      <trkpt lat="46.01521" lon="6.8507">
        <ele>2707</ele>
        <time>2022-07-21T09:31:44Z</time>
      </trkpt>
      <trkpt lat="46.01516" lon="6.85069">
        <ele>2707</ele>
        <time>2022-07-21T09:31:49Z</time>
      </trkpt>
      <trkpt lat="46.01509" lon="6.85064">
        <ele>2706</ele>
        <time>2022-07-21T09:31:59Z</time>
      </trkpt>
      <trkpt lat="46.01504" lon="6.85061">
        <ele>2704</ele>
        <time>2022-07-21T09:32:06Z</time>
      </trkpt>
      <trkpt lat="46.01499" lon="6.85051">
        <ele>2701</ele>
        <time>2022-07-21T09:32:17Z</time>
      </trkpt>
      <trkpt lat="46.01494" lon="6.85049">
        <ele>2699</ele>
        <time>2022-07-21T09:32:22Z</time>
      </trkpt>
      <trkpt lat="46.01494" lon="6.85038">
        <ele>2696</ele>
        <time>2022-07-21T09:32:33Z</time>
      </trkpt>
      <trkpt lat="46.0149" lon="6.85035">
        <ele>2693</ele>
        <time>2022-07-21T09:32:40Z</time>
      </trkpt>
      <trkpt lat="46.01487" lon="6.85026">
        <ele>2690</ele>
        <time>2022-07-21T09:32:50Z</time>
      </trkpt>
      <trkpt lat="46.01484" lon="6.85021">
        <ele>2689</ele>
        <time>2022-07-21T09:32:55Z</time>
      </trkpt>
      <trkpt lat="46.01478" lon="6.85016">
        <ele>2686</ele>
        <time>2022-07-21T09:33:03Z</time>
      </trkpt>
      <trkpt lat="46.01474" lon="6.85011">
        <ele>2684</ele>
        <time>2022-07-21T09:33:10Z</time>
      </trkpt>
      <trkpt lat="46.01476" lon="6.85006">
        <ele>2680</ele>
        <time>2022-07-21T09:33:22Z</time>
      </trkpt>
      <trkpt lat="46.01473" lon="6.85001">
        <ele>2678</ele>
        <time>2022-07-21T09:33:27Z</time>
      </trkpt>
      <trkpt lat="46.01475" lon="6.84995">
        <ele>2676</ele>
        <time>2022-07-21T09:33:34Z</time>
      </trkpt>
      <trkpt lat="46.01463" lon="6.84984">
        <ele>2671</ele>
        <time>2022-07-21T09:33:49Z</time>
      </trkpt>
      <trkpt lat="46.01453" lon="6.84979">
        <ele>2667</ele>
        <time>2022-07-21T09:33:59Z</time>
      </trkpt>
      <trkpt lat="46.01446" lon="6.84986">
        <ele>2665</ele>
        <time>2022-07-21T09:34:07Z</time>
      </trkpt>
      <trkpt lat="46.01441" lon="6.84988">
        <ele>2664</ele>
        <time>2022-07-21T09:34:12Z</time>
      </trkpt>
      <trkpt lat="46.01436" lon="6.84994">
        <ele>2661</ele>
        <time>2022-07-21T09:34:28Z</time>
      </trkpt>
      <trkpt lat="46.01429" lon="6.8499">
        <ele>2660</ele>
        <time>2022-07-21T09:34:38Z</time>
      </trkpt>
      <trkpt lat="46.01424" lon="6.84989">
        <ele>2659</ele>
        <time>2022-07-21T09:34:42Z</time>
      </trkpt>
      <trkpt lat="46.01421" lon="6.84986">
        <ele>2658</ele>
        <time>2022-07-21T09:34:47Z</time>
      </trkpt>
      <trkpt lat="46.01416" lon="6.84988">
        <ele>2656</ele>
        <time>2022-07-21T09:34:52Z</time>
      </trkpt>
      <trkpt lat="46.01406" lon="6.84988">
        <ele>2654</ele>
        <time>2022-07-21T09:35:00Z</time>
      </trkpt>
      <trkpt lat="46.01379" lon="6.85013">
        <ele>2644</ele>
        <time>2022-07-21T09:35:30Z</time>
      </trkpt>
      <trkpt lat="46.01374" lon="6.85016">
        <ele>2643</ele>
        <time>2022-07-21T09:35:33Z</time>
      </trkpt>
      <trkpt lat="46.01367" lon="6.85027">
        <ele>2640</ele>
        <time>2022-07-21T09:35:39Z</time>
      </trkpt>
      <trkpt lat="46.01369" lon="6.85033">
        <ele>2638</ele>
        <time>2022-07-21T09:35:42Z</time>
      </trkpt>
      <trkpt lat="46.01362" lon="6.85036">
        <ele>2635</ele>
        <time>2022-07-21T09:35:48Z</time>
      </trkpt>
      <trkpt lat="46.01351" lon="6.85046">
        <ele>2631</ele>
        <time>2022-07-21T09:35:58Z</time>
      </trkpt>
      <trkpt lat="46.01348" lon="6.85051">
        <ele>2629</ele>
        <time>2022-07-21T09:36:02Z</time>
      </trkpt>
      <trkpt lat="46.01343" lon="6.85052">
        <ele>2627</ele>
        <time>2022-07-21T09:36:06Z</time>
      </trkpt>
      <trkpt lat="46.0134" lon="6.85058">
        <ele>2625</ele>
        <time>2022-07-21T09:36:10Z</time>
      </trkpt>
      <trkpt lat="46.01328" lon="6.85069">
        <ele>2622</ele>
        <time>2022-07-21T09:36:19Z</time>
      </trkpt>
      <trkpt lat="46.0132" lon="6.85079">
        <ele>2619</ele>
        <time>2022-07-21T09:36:27Z</time>
      </trkpt>
      <trkpt lat="46.0131" lon="6.85084">
        <ele>2615</ele>
        <time>2022-07-21T09:36:36Z</time>
      </trkpt>
      <trkpt lat="46.01303" lon="6.85083">
        <ele>2613</ele>
        <time>2022-07-21T09:36:40Z</time>
      </trkpt>
      <trkpt lat="46.01299" lon="6.85089">
        <ele>2613</ele>
        <time>2022-07-21T09:36:43Z</time>
      </trkpt>
      <trkpt lat="46.01295" lon="6.85101">
        <ele>2611</ele>
        <time>2022-07-21T09:36:49Z</time>
      </trkpt>
      <trkpt lat="46.0129" lon="6.85104">
        <ele>2609</ele>
        <time>2022-07-21T09:36:53Z</time>
      </trkpt>
      <trkpt lat="46.01276" lon="6.85111">
        <ele>2604</ele>
        <time>2022-07-21T09:37:04Z</time>
      </trkpt>
      <trkpt lat="46.01275" lon="6.85117">
        <ele>2603</ele>
        <time>2022-07-21T09:37:08Z</time>
      </trkpt>
      <trkpt lat="46.01268" lon="6.85116">
        <ele>2602</ele>
        <time>2022-07-21T09:37:12Z</time>
      </trkpt>
      <trkpt lat="46.01265" lon="6.85121">
        <ele>2601</ele>
        <time>2022-07-21T09:37:16Z</time>
      </trkpt>
      <trkpt lat="46.01263" lon="6.85128">
        <ele>2599</ele>
        <time>2022-07-21T09:37:19Z</time>
      </trkpt>
      <trkpt lat="46.01261" lon="6.85132">
        <ele>2598</ele>
        <time>2022-07-21T09:37:23Z</time>
      </trkpt>
      <trkpt lat="46.01256" lon="6.85137">
        <ele>2596</ele>
        <time>2022-07-21T09:37:27Z</time>
      </trkpt>
      <trkpt lat="46.01254" lon="6.85143">
        <ele>2595</ele>
        <time>2022-07-21T09:37:31Z</time>
      </trkpt>
      <trkpt lat="46.01251" lon="6.85147">
        <ele>2593</ele>
        <time>2022-07-21T09:37:35Z</time>
      </trkpt>
      <trkpt lat="46.01249" lon="6.85154">
        <ele>2591</ele>
        <time>2022-07-21T09:37:40Z</time>
      </trkpt>
      <trkpt lat="46.01236" lon="6.85176">
        <ele>2586</ele>
        <time>2022-07-21T09:37:56Z</time>
      </trkpt>
      <trkpt lat="46.01231" lon="6.85188">
        <ele>2583</ele>
        <time>2022-07-21T09:38:04Z</time>
      </trkpt>
      <trkpt lat="46.01224" lon="6.85199">
        <ele>2580</ele>
        <time>2022-07-21T09:38:11Z</time>
      </trkpt>
      <trkpt lat="46.01218" lon="6.85213">
        <ele>2576</ele>
        <time>2022-07-21T09:38:22Z</time>
      </trkpt>
      <trkpt lat="46.01215" lon="6.85217">
        <ele>2575</ele>
        <time>2022-07-21T09:38:25Z</time>
      </trkpt>
      <trkpt lat="46.01216" lon="6.85225">
        <ele>2573</ele>
        <time>2022-07-21T09:38:30Z</time>
      </trkpt>
      <trkpt lat="46.01209" lon="6.85248">
        <ele>2567</ele>
        <time>2022-07-21T09:38:44Z</time>
      </trkpt>
      <trkpt lat="46.01195" lon="6.8527">
        <ele>2563</ele>
        <time>2022-07-21T09:38:59Z</time>
      </trkpt>
      <trkpt lat="46.01191" lon="6.85272">
        <ele>2562</ele>
        <time>2022-07-21T09:39:03Z</time>
      </trkpt>
      <trkpt lat="46.01189" lon="6.85279">
        <ele>2561</ele>
        <time>2022-07-21T09:39:08Z</time>
      </trkpt>
      <trkpt lat="46.01186" lon="6.85283">
        <ele>2559</ele>
        <time>2022-07-21T09:39:12Z</time>
      </trkpt>
      <trkpt lat="46.01182" lon="6.85288">
        <ele>2559</ele>
        <time>2022-07-21T09:39:15Z</time>
      </trkpt>
      <trkpt lat="46.01174" lon="6.85295">
        <ele>2558</ele>
        <time>2022-07-21T09:39:21Z</time>
      </trkpt>
      <trkpt lat="46.01171" lon="6.85298">
        <ele>2558</ele>
        <time>2022-07-21T09:39:24Z</time>
      </trkpt>
      <trkpt lat="46.01167" lon="6.853">
        <ele>2557</ele>
        <time>2022-07-21T09:39:27Z</time>
      </trkpt>
      <trkpt lat="46.01163" lon="6.85305">
        <ele>2555</ele>
        <time>2022-07-21T09:39:31Z</time>
      </trkpt>
      <trkpt lat="46.01162" lon="6.85312">
        <ele>2554</ele>
        <time>2022-07-21T09:39:34Z</time>
      </trkpt>
      <trkpt lat="46.01158" lon="6.85316">
        <ele>2553</ele>
        <time>2022-07-21T09:39:38Z</time>
      </trkpt>
      <trkpt lat="46.01157" lon="6.85324">
        <ele>2550</ele>
        <time>2022-07-21T09:39:46Z</time>
      </trkpt>
      <trkpt lat="46.01152" lon="6.85325">
        <ele>2548</ele>
        <time>2022-07-21T09:39:50Z</time>
      </trkpt>
      <trkpt lat="46.0114" lon="6.85345">
        <ele>2541</ele>
        <time>2022-07-21T09:40:07Z</time>
      </trkpt>
      <trkpt lat="46.01129" lon="6.85352">
        <ele>2539</ele>
        <time>2022-07-21T09:40:14Z</time>
      </trkpt>
      <trkpt lat="46.01119" lon="6.85371">
        <ele>2536</ele>
        <time>2022-07-21T09:40:28Z</time>
      </trkpt>
      <trkpt lat="46.01118" lon="6.85377">
        <ele>2535</ele>
        <time>2022-07-21T09:40:31Z</time>
      </trkpt>
      <trkpt lat="46.01115" lon="6.85382">
        <ele>2534</ele>
        <time>2022-07-21T09:40:35Z</time>
      </trkpt>
      <trkpt lat="46.01104" lon="6.85396">
        <ele>2532</ele>
        <time>2022-07-21T09:40:45Z</time>
      </trkpt>
      <trkpt lat="46.01102" lon="6.85402">
        <ele>2531</ele>
        <time>2022-07-21T09:40:49Z</time>
      </trkpt>
      <trkpt lat="46.01101" lon="6.85408">
        <ele>2531</ele>
        <time>2022-07-21T09:40:52Z</time>
      </trkpt>
      <trkpt lat="46.01096" lon="6.8542">
        <ele>2529</ele>
        <time>2022-07-21T09:40:58Z</time>
      </trkpt>
      <trkpt lat="46.01095" lon="6.85425">
        <ele>2528</ele>
        <time>2022-07-21T09:41:02Z</time>
      </trkpt>
      <trkpt lat="46.01091" lon="6.85439">
        <ele>2528</ele>
        <time>2022-07-21T09:41:09Z</time>
      </trkpt>
      <trkpt lat="46.01091" lon="6.85446">
        <ele>2528</ele>
        <time>2022-07-21T09:41:13Z</time>
      </trkpt>
      <trkpt lat="46.01086" lon="6.85459">
        <ele>2527</ele>
        <time>2022-07-21T09:41:22Z</time>
      </trkpt>
      <trkpt lat="46.01084" lon="6.85471">
        <ele>2527</ele>
        <time>2022-07-21T09:41:30Z</time>
      </trkpt>
      <trkpt lat="46.01084" lon="6.85478">
        <ele>2527</ele>
        <time>2022-07-21T09:41:34Z</time>
      </trkpt>
      <trkpt lat="46.01085" lon="6.85501">
        <ele>2524</ele>
        <time>2022-07-21T09:41:47Z</time>
      </trkpt>
      <trkpt lat="46.01086" lon="6.85508">
        <ele>2523</ele>
        <time>2022-07-21T09:41:51Z</time>
      </trkpt>
      <trkpt lat="46.01083" lon="6.85537">
        <ele>2520</ele>
        <time>2022-07-21T09:42:07Z</time>
      </trkpt>
      <trkpt lat="46.0108" lon="6.8555">
        <ele>2520</ele>
        <time>2022-07-21T09:42:14Z</time>
      </trkpt>
      <trkpt lat="46.0108" lon="6.85557">
        <ele>2520</ele>
        <time>2022-07-21T09:42:18Z</time>
      </trkpt>
      <trkpt lat="46.0108" lon="6.85564">
        <ele>2520</ele>
        <time>2022-07-21T09:42:22Z</time>
      </trkpt>
      <trkpt lat="46.01077" lon="6.8557">
        <ele>2520</ele>
        <time>2022-07-21T09:42:26Z</time>
      </trkpt>
      <trkpt lat="46.01073" lon="6.85574">
        <ele>2519</ele>
        <time>2022-07-21T09:42:30Z</time>
      </trkpt>
      <trkpt lat="46.01072" lon="6.85587">
        <ele>2516</ele>
        <time>2022-07-21T09:42:39Z</time>
      </trkpt>
      <trkpt lat="46.01064" lon="6.85595">
        <ele>2512</ele>
        <time>2022-07-21T09:42:50Z</time>
      </trkpt>
      <trkpt lat="46.01061" lon="6.85601">
        <ele>2511</ele>
        <time>2022-07-21T09:42:54Z</time>
      </trkpt>
      <trkpt lat="46.01056" lon="6.85603">
        <ele>2509</ele>
        <time>2022-07-21T09:42:58Z</time>
      </trkpt>
      <trkpt lat="46.01051" lon="6.85602">
        <ele>2509</ele>
        <time>2022-07-21T09:43:02Z</time>
      </trkpt>
      <trkpt lat="46.01047" lon="6.85602">
        <ele>2509</ele>
        <time>2022-07-21T09:43:06Z</time>
      </trkpt>
      <trkpt lat="46.01033" lon="6.85602">
        <ele>2509</ele>
        <time>2022-07-21T09:43:17Z</time>
      </trkpt>
      <trkpt lat="46.01027" lon="6.85607">
        <ele>2507</ele>
        <time>2022-07-21T09:43:24Z</time>
      </trkpt>
      <trkpt lat="46.01022" lon="6.85608">
        <ele>2506</ele>
        <time>2022-07-21T09:43:29Z</time>
      </trkpt>
      <trkpt lat="46.01018" lon="6.85607">
        <ele>2505</ele>
        <time>2022-07-21T09:43:33Z</time>
      </trkpt>
      <trkpt lat="46.01014" lon="6.85603">
        <ele>2505</ele>
        <time>2022-07-21T09:43:37Z</time>
      </trkpt>
      <trkpt lat="46.01009" lon="6.85603">
        <ele>2504</ele>
        <time>2022-07-21T09:43:41Z</time>
      </trkpt>
      <trkpt lat="46.01" lon="6.85607">
        <ele>2502</ele>
        <time>2022-07-21T09:43:51Z</time>
      </trkpt>
      <trkpt lat="46.00995" lon="6.85607">
        <ele>2502</ele>
        <time>2022-07-21T09:43:55Z</time>
      </trkpt>
      <trkpt lat="46.0099" lon="6.8561">
        <ele>2501</ele>
        <time>2022-07-21T09:44:00Z</time>
      </trkpt>
      <trkpt lat="46.00986" lon="6.8561">
        <ele>2500</ele>
        <time>2022-07-21T09:44:05Z</time>
      </trkpt>
      <trkpt lat="46.00967" lon="6.85606">
        <ele>2496</ele>
        <time>2022-07-21T09:44:22Z</time>
      </trkpt>
      <trkpt lat="46.00963" lon="6.85605">
        <ele>2496</ele>
        <time>2022-07-21T09:44:25Z</time>
      </trkpt>
      <trkpt lat="46.00955" lon="6.85607">
        <ele>2496</ele>
        <time>2022-07-21T09:44:32Z</time>
      </trkpt>
      <trkpt lat="46.00951" lon="6.85609">
        <ele>2495</ele>
        <time>2022-07-21T09:44:36Z</time>
      </trkpt>
      <trkpt lat="46.00944" lon="6.85611">
        <ele>2495</ele>
        <time>2022-07-21T09:44:45Z</time>
      </trkpt>
      <trkpt lat="46.00937" lon="6.85618">
        <ele>2494</ele>
        <time>2022-07-21T09:44:53Z</time>
      </trkpt>
      <trkpt lat="46.00923" lon="6.85618">
        <ele>2496</ele>
        <time>2022-07-21T09:45:12Z</time>
      </trkpt>
      <trkpt lat="46.00919" lon="6.85621">
        <ele>2495</ele>
        <time>2022-07-21T09:45:16Z</time>
      </trkpt>
      <trkpt lat="46.00914" lon="6.85623">
        <ele>2494</ele>
        <time>2022-07-21T09:45:20Z</time>
      </trkpt>
      <trkpt lat="46.0091" lon="6.85626">
        <ele>2494</ele>
        <time>2022-07-21T09:45:24Z</time>
      </trkpt>
      <trkpt lat="46.00901" lon="6.85633">
        <ele>2494</ele>
        <time>2022-07-21T09:45:35Z</time>
      </trkpt>
      <trkpt lat="46.00897" lon="6.85636">
        <ele>2494</ele>
        <time>2022-07-21T09:45:39Z</time>
      </trkpt>
      <trkpt lat="46.00892" lon="6.85633">
        <ele>2494</ele>
        <time>2022-07-21T09:45:43Z</time>
      </trkpt>
      <trkpt lat="46.00888" lon="6.85632">
        <ele>2494</ele>
        <time>2022-07-21T09:45:48Z</time>
      </trkpt>
      <trkpt lat="46.00882" lon="6.85632">
        <ele>2494</ele>
        <time>2022-07-21T09:45:53Z</time>
      </trkpt>
      <trkpt lat="46.00879" lon="6.85626">
        <ele>2495</ele>
        <time>2022-07-21T09:46:01Z</time>
      </trkpt>
      <trkpt lat="46.00875" lon="6.85623">
        <ele>2497</ele>
        <time>2022-07-21T09:46:12Z</time>
      </trkpt>
      <trkpt lat="46.00867" lon="6.85621">
        <ele>2498</ele>
        <time>2022-07-21T09:46:22Z</time>
      </trkpt>
      <trkpt lat="46.00857" lon="6.85616">
        <ele>2500</ele>
        <time>2022-07-21T09:46:33Z</time>
      </trkpt>
      <trkpt lat="46.00853" lon="6.85614">
        <ele>2499</ele>
        <time>2022-07-21T09:46:36Z</time>
      </trkpt>
      <trkpt lat="46.00846" lon="6.8561">
        <ele>2498</ele>
        <time>2022-07-21T09:46:44Z</time>
      </trkpt>
      <trkpt lat="46.00842" lon="6.85605">
        <ele>2498</ele>
        <time>2022-07-21T09:46:49Z</time>
      </trkpt>
      <trkpt lat="46.00833" lon="6.856">
        <ele>2501</ele>
        <time>2022-07-21T09:47:08Z</time>
      </trkpt>
      <trkpt lat="46.0082" lon="6.85599">
        <ele>2503</ele>
        <time>2022-07-21T09:47:25Z</time>
      </trkpt>
      <trkpt lat="46.00816" lon="6.85596">
        <ele>2504</ele>
        <time>2022-07-21T09:47:30Z</time>
      </trkpt>
      <trkpt lat="46.00808" lon="6.85585">
        <ele>2506</ele>
        <time>2022-07-21T09:47:50Z</time>
      </trkpt>
      <trkpt lat="46.00802" lon="6.85581">
        <ele>2507</ele>
        <time>2022-07-21T09:48:00Z</time>
      </trkpt>
      <trkpt lat="46.008" lon="6.85574">
        <ele>2509</ele>
        <time>2022-07-21T09:48:09Z</time>
      </trkpt>
      <trkpt lat="46.00786" lon="6.85567">
        <ele>2510</ele>
        <time>2022-07-21T09:48:23Z</time>
      </trkpt>
      <trkpt lat="46.00785" lon="6.85561">
        <ele>2510</ele>
        <time>2022-07-21T09:48:31Z</time>
      </trkpt>
      <trkpt lat="46.00785" lon="6.85554">
        <ele>2512</ele>
        <time>2022-07-21T09:48:46Z</time>
      </trkpt>
      <trkpt lat="46.00772" lon="6.85527">
        <ele>2518</ele>
        <time>2022-07-21T09:49:22Z</time>
      </trkpt>
      <trkpt lat="46.00766" lon="6.85524">
        <ele>2519</ele>
        <time>2022-07-21T09:49:32Z</time>
      </trkpt>
      <trkpt lat="46.00759" lon="6.85521">
        <ele>2518</ele>
        <time>2022-07-21T09:49:36Z</time>
      </trkpt>
      <trkpt lat="46.00754" lon="6.85519">
        <ele>2521</ele>
        <time>2022-07-21T09:49:43Z</time>
      </trkpt>
      <trkpt lat="46.00749" lon="6.85519">
        <ele>2520</ele>
        <time>2022-07-21T09:49:48Z</time>
      </trkpt>
      <trkpt lat="46.00745" lon="6.8552">
        <ele>2522</ele>
        <time>2022-07-21T09:49:56Z</time>
      </trkpt>
      <trkpt lat="46.00739" lon="6.85525">
        <ele>2523</ele>
        <time>2022-07-21T09:50:07Z</time>
      </trkpt>
      <trkpt lat="46.00732" lon="6.85537">
        <ele>2525</ele>
        <time>2022-07-21T09:50:27Z</time>
      </trkpt>
      <trkpt lat="46.00727" lon="6.85535">
        <ele>2527</ele>
        <time>2022-07-21T09:50:42Z</time>
      </trkpt>
      <trkpt lat="46.00722" lon="6.85528">
        <ele>2528</ele>
        <time>2022-07-21T09:50:52Z</time>
      </trkpt>
      <trkpt lat="46.00719" lon="6.85521">
        <ele>2525</ele>
        <time>2022-07-21T09:55:50Z</time>
      </trkpt>
      <trkpt lat="46.00711" lon="6.85511">
        <ele>2521</ele>
        <time>2022-07-21T09:55:59Z</time>
      </trkpt>
      <trkpt lat="46.00704" lon="6.85489">
        <ele>2514</ele>
        <time>2022-07-21T09:56:15Z</time>
      </trkpt>
      <trkpt lat="46.00693" lon="6.85468">
        <ele>2508</ele>
        <time>2022-07-21T09:56:33Z</time>
      </trkpt>
      <trkpt lat="46.00689" lon="6.85465">
        <ele>2506</ele>
        <time>2022-07-21T09:56:37Z</time>
      </trkpt>
      <trkpt lat="46.00681" lon="6.85448">
        <ele>2501</ele>
        <time>2022-07-21T09:56:49Z</time>
      </trkpt>
      <trkpt lat="46.0068" lon="6.85442">
        <ele>2499</ele>
        <time>2022-07-21T09:56:54Z</time>
      </trkpt>
      <trkpt lat="46.00677" lon="6.85437">
        <ele>2497</ele>
        <time>2022-07-21T09:56:58Z</time>
      </trkpt>
      <trkpt lat="46.00673" lon="6.85435">
        <ele>2495</ele>
        <time>2022-07-21T09:57:02Z</time>
      </trkpt>
      <trkpt lat="46.00671" lon="6.85429">
        <ele>2494</ele>
        <time>2022-07-21T09:57:06Z</time>
      </trkpt>
      <trkpt lat="46.00671" lon="6.85422">
        <ele>2492</ele>
        <time>2022-07-21T09:57:10Z</time>
      </trkpt>
      <trkpt lat="46.00668" lon="6.85404">
        <ele>2487</ele>
        <time>2022-07-21T09:57:28Z</time>
      </trkpt>
      <trkpt lat="46.00665" lon="6.85399">
        <ele>2484</ele>
        <time>2022-07-21T09:57:33Z</time>
      </trkpt>
      <trkpt lat="46.00669" lon="6.85389">
        <ele>2481</ele>
        <time>2022-07-21T09:57:44Z</time>
      </trkpt>
      <trkpt lat="46.00674" lon="6.85385">
        <ele>2480</ele>
        <time>2022-07-21T09:57:48Z</time>
      </trkpt>
      <trkpt lat="46.00672" lon="6.85378">
        <ele>2478</ele>
        <time>2022-07-21T09:57:52Z</time>
      </trkpt>
      <trkpt lat="46.00676" lon="6.8537">
        <ele>2476</ele>
        <time>2022-07-21T09:57:59Z</time>
      </trkpt>
      <trkpt lat="46.00678" lon="6.85364">
        <ele>2475</ele>
        <time>2022-07-21T09:58:03Z</time>
      </trkpt>
      <trkpt lat="46.00681" lon="6.85358">
        <ele>2474</ele>
        <time>2022-07-21T09:58:07Z</time>
      </trkpt>
      <trkpt lat="46.00681" lon="6.85351">
        <ele>2472</ele>
        <time>2022-07-21T09:58:12Z</time>
      </trkpt>
      <trkpt lat="46.00679" lon="6.85344">
        <ele>2470</ele>
        <time>2022-07-21T09:58:17Z</time>
      </trkpt>
      <trkpt lat="46.00677" lon="6.85334">
        <ele>2467</ele>
        <time>2022-07-21T09:58:25Z</time>
      </trkpt>
      <trkpt lat="46.00679" lon="6.85326">
        <ele>2466</ele>
        <time>2022-07-21T09:58:30Z</time>
      </trkpt>
      <trkpt lat="46.00678" lon="6.85314">
        <ele>2463</ele>
        <time>2022-07-21T09:58:38Z</time>
      </trkpt>
      <trkpt lat="46.00677" lon="6.85304">
        <ele>2461</ele>
        <time>2022-07-21T09:58:46Z</time>
      </trkpt>
      <trkpt lat="46.00676" lon="6.8529">
        <ele>2458</ele>
        <time>2022-07-21T09:58:55Z</time>
      </trkpt>
      <trkpt lat="46.00676" lon="6.85284">
        <ele>2456</ele>
        <time>2022-07-21T09:59:00Z</time>
      </trkpt>
      <trkpt lat="46.00672" lon="6.85279">
        <ele>2454</ele>
        <time>2022-07-21T09:59:07Z</time>
      </trkpt>
      <trkpt lat="46.00672" lon="6.85271">
        <ele>2452</ele>
        <time>2022-07-21T09:59:13Z</time>
      </trkpt>
      <trkpt lat="46.00669" lon="6.85264">
        <ele>2449</ele>
        <time>2022-07-21T09:59:22Z</time>
      </trkpt>
      <trkpt lat="46.00664" lon="6.85244">
        <ele>2443</ele>
        <time>2022-07-21T09:59:38Z</time>
      </trkpt>
      <trkpt lat="46.0066" lon="6.85241">
        <ele>2440</ele>
        <time>2022-07-21T09:59:47Z</time>
      </trkpt>
      <trkpt lat="46.00663" lon="6.85226">
        <ele>2437</ele>
        <time>2022-07-21T09:59:56Z</time>
      </trkpt>
      <trkpt lat="46.00662" lon="6.8522">
        <ele>2436</ele>
        <time>2022-07-21T10:00:01Z</time>
      </trkpt>
      <trkpt lat="46.0066" lon="6.85209">
        <ele>2432</ele>
        <time>2022-07-21T10:00:10Z</time>
      </trkpt>
      <trkpt lat="46.00655" lon="6.85206">
        <ele>2430</ele>
        <time>2022-07-21T10:00:17Z</time>
      </trkpt>
      <trkpt lat="46.00656" lon="6.85198">
        <ele>2428</ele>
        <time>2022-07-21T10:00:23Z</time>
      </trkpt>
      <trkpt lat="46.00653" lon="6.85193">
        <ele>2426</ele>
        <time>2022-07-21T10:00:27Z</time>
      </trkpt>
      <trkpt lat="46.00648" lon="6.85179">
        <ele>2422</ele>
        <time>2022-07-21T10:00:39Z</time>
      </trkpt>
      <trkpt lat="46.0065" lon="6.85157">
        <ele>2417</ele>
        <time>2022-07-21T10:00:52Z</time>
      </trkpt>
      <trkpt lat="46.00649" lon="6.85145">
        <ele>2414</ele>
        <time>2022-07-21T10:01:01Z</time>
      </trkpt>
      <trkpt lat="46.00649" lon="6.85135">
        <ele>2412</ele>
        <time>2022-07-21T10:01:08Z</time>
      </trkpt>
      <trkpt lat="46.00644" lon="6.85136">
        <ele>2410</ele>
        <time>2022-07-21T10:01:12Z</time>
      </trkpt>
      <trkpt lat="46.0064" lon="6.8513">
        <ele>2407</ele>
        <time>2022-07-21T10:01:24Z</time>
      </trkpt>
      <trkpt lat="46.00639" lon="6.85122">
        <ele>2405</ele>
        <time>2022-07-21T10:01:32Z</time>
      </trkpt>
      <trkpt lat="46.00637" lon="6.85116">
        <ele>2403</ele>
        <time>2022-07-21T10:01:38Z</time>
      </trkpt>
      <trkpt lat="46.00633" lon="6.85111">
        <ele>2400</ele>
        <time>2022-07-21T10:01:48Z</time>
      </trkpt>
      <trkpt lat="46.00635" lon="6.85104">
        <ele>2399</ele>
        <time>2022-07-21T10:01:52Z</time>
      </trkpt>
      <trkpt lat="46.00631" lon="6.85096">
        <ele>2396</ele>
        <time>2022-07-21T10:01:59Z</time>
      </trkpt>
      <trkpt lat="46.00631" lon="6.85087">
        <ele>2393</ele>
        <time>2022-07-21T10:02:07Z</time>
      </trkpt>
      <trkpt lat="46.00625" lon="6.8508">
        <ele>2390</ele>
        <time>2022-07-21T10:02:17Z</time>
      </trkpt>
      <trkpt lat="46.00628" lon="6.85075">
        <ele>2389</ele>
        <time>2022-07-21T10:02:21Z</time>
      </trkpt>
      <trkpt lat="46.0063" lon="6.85052">
        <ele>2384</ele>
        <time>2022-07-21T10:02:39Z</time>
      </trkpt>
      <trkpt lat="46.00633" lon="6.85046">
        <ele>2383</ele>
        <time>2022-07-21T10:02:43Z</time>
      </trkpt>
      <trkpt lat="46.00635" lon="6.85037">
        <ele>2381</ele>
        <time>2022-07-21T10:02:49Z</time>
      </trkpt>
      <trkpt lat="46.00638" lon="6.85033">
        <ele>2380</ele>
        <time>2022-07-21T10:02:54Z</time>
      </trkpt>
      <trkpt lat="46.00637" lon="6.85026">
        <ele>2379</ele>
        <time>2022-07-21T10:03:01Z</time>
      </trkpt>
      <trkpt lat="46.00638" lon="6.8502">
        <ele>2377</ele>
        <time>2022-07-21T10:03:06Z</time>
      </trkpt>
      <trkpt lat="46.00637" lon="6.85013">
        <ele>2377</ele>
        <time>2022-07-21T10:03:10Z</time>
      </trkpt>
      <trkpt lat="46.00631" lon="6.85">
        <ele>2375</ele>
        <time>2022-07-21T10:03:20Z</time>
      </trkpt>
      <trkpt lat="46.00631" lon="6.84987">
        <ele>2374</ele>
        <time>2022-07-21T10:03:28Z</time>
      </trkpt>
      <trkpt lat="46.00629" lon="6.84981">
        <ele>2373</ele>
        <time>2022-07-21T10:03:32Z</time>
      </trkpt>
      <trkpt lat="46.00632" lon="6.84961">
        <ele>2370</ele>
        <time>2022-07-21T10:03:45Z</time>
      </trkpt>
      <trkpt lat="46.00637" lon="6.84939">
        <ele>2366</ele>
        <time>2022-07-21T10:04:00Z</time>
      </trkpt>
      <trkpt lat="46.00638" lon="6.84933">
        <ele>2366</ele>
        <time>2022-07-21T10:04:05Z</time>
      </trkpt>
      <trkpt lat="46.00637" lon="6.84926">
        <ele>2366</ele>
        <time>2022-07-21T10:04:09Z</time>
      </trkpt>
      <trkpt lat="46.00639" lon="6.84919">
        <ele>2365</ele>
        <time>2022-07-21T10:04:13Z</time>
      </trkpt>
      <trkpt lat="46.00633" lon="6.84872">
        <ele>2359</ele>
        <time>2022-07-21T10:04:51Z</time>
      </trkpt>
      <trkpt lat="46.00633" lon="6.84865">
        <ele>2358</ele>
        <time>2022-07-21T10:04:55Z</time>
      </trkpt>
      <trkpt lat="46.0063" lon="6.84851">
        <ele>2357</ele>
        <time>2022-07-21T10:05:04Z</time>
      </trkpt>
      <trkpt lat="46.00627" lon="6.84845">
        <ele>2355</ele>
        <time>2022-07-21T10:05:11Z</time>
      </trkpt>
      <trkpt lat="46.00625" lon="6.84837">
        <ele>2354</ele>
        <time>2022-07-21T10:05:18Z</time>
      </trkpt>
      <trkpt lat="46.00622" lon="6.84831">
        <ele>2352</ele>
        <time>2022-07-21T10:05:24Z</time>
      </trkpt>
      <trkpt lat="46.00627" lon="6.84824">
        <ele>2351</ele>
        <time>2022-07-21T10:05:30Z</time>
      </trkpt>
      <trkpt lat="46.0063" lon="6.84818">
        <ele>2350</ele>
        <time>2022-07-21T10:05:35Z</time>
      </trkpt>
      <trkpt lat="46.00631" lon="6.84811">
        <ele>2349</ele>
        <time>2022-07-21T10:05:39Z</time>
      </trkpt>
      <trkpt lat="46.00633" lon="6.84806">
        <ele>2349</ele>
        <time>2022-07-21T10:05:43Z</time>
      </trkpt>
      <trkpt lat="46.00635" lon="6.848">
        <ele>2349</ele>
        <time>2022-07-21T10:05:47Z</time>
      </trkpt>
      <trkpt lat="46.00634" lon="6.84793">
        <ele>2348</ele>
        <time>2022-07-21T10:05:51Z</time>
      </trkpt>
      <trkpt lat="46.00636" lon="6.84786">
        <ele>2347</ele>
        <time>2022-07-21T10:05:55Z</time>
      </trkpt>
      <trkpt lat="46.00634" lon="6.84778">
        <ele>2346</ele>
        <time>2022-07-21T10:06:00Z</time>
      </trkpt>
      <trkpt lat="46.00635" lon="6.84772">
        <ele>2345</ele>
        <time>2022-07-21T10:06:04Z</time>
      </trkpt>
      <trkpt lat="46.00634" lon="6.84759">
        <ele>2343</ele>
        <time>2022-07-21T10:06:13Z</time>
      </trkpt>
      <trkpt lat="46.00632" lon="6.84753">
        <ele>2343</ele>
        <time>2022-07-21T10:06:17Z</time>
      </trkpt>
      <trkpt lat="46.00633" lon="6.8474">
        <ele>2342</ele>
        <time>2022-07-21T10:06:27Z</time>
      </trkpt>
      <trkpt lat="46.00632" lon="6.84733">
        <ele>2341</ele>
        <time>2022-07-21T10:06:31Z</time>
      </trkpt>
      <trkpt lat="46.00633" lon="6.84726">
        <ele>2340</ele>
        <time>2022-07-21T10:06:36Z</time>
      </trkpt>
      <trkpt lat="46.00637" lon="6.84715">
        <ele>2339</ele>
        <time>2022-07-21T10:06:45Z</time>
      </trkpt>
      <trkpt lat="46.00639" lon="6.8469">
        <ele>2333</ele>
        <time>2022-07-21T10:07:05Z</time>
      </trkpt>
      <trkpt lat="46.00637" lon="6.84679">
        <ele>2332</ele>
        <time>2022-07-21T10:07:14Z</time>
      </trkpt>
      <trkpt lat="46.00635" lon="6.84665">
        <ele>2326</ele>
        <time>2022-07-21T10:07:24Z</time>
      </trkpt>
      <trkpt lat="46.00638" lon="6.84661">
        <ele>2325</ele>
        <time>2022-07-21T10:07:28Z</time>
      </trkpt>
      <trkpt lat="46.00639" lon="6.84652">
        <ele>2323</ele>
        <time>2022-07-21T10:07:35Z</time>
      </trkpt>
      <trkpt lat="46.00635" lon="6.84615">
        <ele>2314</ele>
        <time>2022-07-21T10:08:00Z</time>
      </trkpt>
      <trkpt lat="46.00636" lon="6.84608">
        <ele>2312</ele>
        <time>2022-07-21T10:08:04Z</time>
      </trkpt>
      <trkpt lat="46.00638" lon="6.84601">
        <ele>2312</ele>
        <time>2022-07-21T10:08:12Z</time>
      </trkpt>
      <trkpt lat="46.00646" lon="6.84605">
        <ele>2311</ele>
        <time>2022-07-21T10:08:42Z</time>
      </trkpt>
      <trkpt lat="46.0065" lon="6.84605">
        <ele>2311</ele>
        <time>2022-07-21T10:08:45Z</time>
      </trkpt>
      <trkpt lat="46.00655" lon="6.84601">
        <ele>2311</ele>
        <time>2022-07-21T10:08:52Z</time>
      </trkpt>
      <trkpt lat="46.00655" lon="6.84592">
        <ele>2310</ele>
        <time>2022-07-21T10:08:59Z</time>
      </trkpt>
      <trkpt lat="46.00658" lon="6.84585">
        <ele>2308</ele>
        <time>2022-07-21T10:09:05Z</time>
      </trkpt>
      <trkpt lat="46.00662" lon="6.84581">
        <ele>2307</ele>
        <time>2022-07-21T10:09:09Z</time>
      </trkpt>
      <trkpt lat="46.00677" lon="6.84575">
        <ele>2304</ele>
        <time>2022-07-21T10:09:23Z</time>
      </trkpt>
      <trkpt lat="46.00691" lon="6.84572">
        <ele>2302</ele>
        <time>2022-07-21T10:09:33Z</time>
      </trkpt>
      <trkpt lat="46.007" lon="6.84566">
        <ele>2301</ele>
        <time>2022-07-21T10:09:42Z</time>
      </trkpt>
      <trkpt lat="46.00706" lon="6.84561">
        <ele>2299</ele>
        <time>2022-07-21T10:10:00Z</time>
      </trkpt>
      <trkpt lat="46.00711" lon="6.84559">
        <ele>2298</ele>
        <time>2022-07-21T10:10:04Z</time>
      </trkpt>
      <trkpt lat="46.00715" lon="6.84555">
        <ele>2297</ele>
        <time>2022-07-21T10:10:08Z</time>
      </trkpt>
      <trkpt lat="46.00719" lon="6.8455">
        <ele>2294</ele>
        <time>2022-07-21T10:10:20Z</time>
      </trkpt>
      <trkpt lat="46.00719" lon="6.84538">
        <ele>2292</ele>
        <time>2022-07-21T10:10:29Z</time>
      </trkpt>
      <trkpt lat="46.00715" lon="6.84533">
        <ele>2290</ele>
        <time>2022-07-21T10:10:32Z</time>
      </trkpt>
      <trkpt lat="46.00711" lon="6.8453">
        <ele>2289</ele>
        <time>2022-07-21T10:10:35Z</time>
      </trkpt>
      <trkpt lat="46.00712" lon="6.84523">
        <ele>2287</ele>
        <time>2022-07-21T10:10:42Z</time>
      </trkpt>
      <trkpt lat="46.00708" lon="6.8452">
        <ele>2286</ele>
        <time>2022-07-21T10:10:47Z</time>
      </trkpt>
      <trkpt lat="46.00707" lon="6.84513">
        <ele>2285</ele>
        <time>2022-07-21T10:10:54Z</time>
      </trkpt>
      <trkpt lat="46.00712" lon="6.84503">
        <ele>2282</ele>
        <time>2022-07-21T10:11:04Z</time>
      </trkpt>
      <trkpt lat="46.00715" lon="6.84495">
        <ele>2280</ele>
        <time>2022-07-21T10:11:12Z</time>
      </trkpt>
      <trkpt lat="46.00712" lon="6.8449">
        <ele>2277</ele>
        <time>2022-07-21T10:11:17Z</time>
      </trkpt>
      <trkpt lat="46.00706" lon="6.84486">
        <ele>2275</ele>
        <time>2022-07-21T10:11:24Z</time>
      </trkpt>
      <trkpt lat="46.00712" lon="6.84477">
        <ele>2271</ele>
        <time>2022-07-21T10:11:37Z</time>
      </trkpt>
      <trkpt lat="46.00708" lon="6.84473">
        <ele>2269</ele>
        <time>2022-07-21T10:11:41Z</time>
      </trkpt>
      <trkpt lat="46.00716" lon="6.84465">
        <ele>2265</ele>
        <time>2022-07-21T10:11:55Z</time>
      </trkpt>
      <trkpt lat="46.00718" lon="6.84458">
        <ele>2263</ele>
        <time>2022-07-21T10:12:00Z</time>
      </trkpt>
      <trkpt lat="46.00707" lon="6.84448">
        <ele>2258</ele>
        <time>2022-07-21T10:12:14Z</time>
      </trkpt>
      <trkpt lat="46.00713" lon="6.84442">
        <ele>2256</ele>
        <time>2022-07-21T10:12:22Z</time>
      </trkpt>
      <trkpt lat="46.00708" lon="6.84434">
        <ele>2253</ele>
        <time>2022-07-21T10:12:34Z</time>
      </trkpt>
      <trkpt lat="46.00703" lon="6.84434">
        <ele>2252</ele>
        <time>2022-07-21T10:12:38Z</time>
      </trkpt>
      <trkpt lat="46.00699" lon="6.84428">
        <ele>2251</ele>
        <time>2022-07-21T10:12:45Z</time>
      </trkpt>
      <trkpt lat="46.00705" lon="6.84425">
        <ele>2248</ele>
        <time>2022-07-21T10:12:55Z</time>
      </trkpt>
      <trkpt lat="46.0071" lon="6.84425">
        <ele>2247</ele>
        <time>2022-07-21T10:12:59Z</time>
      </trkpt>
      <trkpt lat="46.00717" lon="6.84417">
        <ele>2245</ele>
        <time>2022-07-21T10:13:10Z</time>
      </trkpt>
      <trkpt lat="46.00721" lon="6.8441">
        <ele>2242</ele>
        <time>2022-07-21T10:13:20Z</time>
      </trkpt>
      <trkpt lat="46.00722" lon="6.84402">
        <ele>2239</ele>
        <time>2022-07-21T10:13:30Z</time>
      </trkpt>
      <trkpt lat="46.00725" lon="6.84397">
        <ele>2238</ele>
        <time>2022-07-21T10:13:35Z</time>
      </trkpt>
      <trkpt lat="46.00731" lon="6.84392">
        <ele>2236</ele>
        <time>2022-07-21T10:13:43Z</time>
      </trkpt>
      <trkpt lat="46.00725" lon="6.84385">
        <ele>2233</ele>
        <time>2022-07-21T10:13:53Z</time>
      </trkpt>
      <trkpt lat="46.00718" lon="6.8438">
        <ele>2231</ele>
        <time>2022-07-21T10:14:02Z</time>
      </trkpt>
      <trkpt lat="46.00707" lon="6.84378">
        <ele>2228</ele>
        <time>2022-07-21T10:14:16Z</time>
      </trkpt>
      <trkpt lat="46.00701" lon="6.84373">
        <ele>2226</ele>
        <time>2022-07-21T10:14:24Z</time>
      </trkpt>
      <trkpt lat="46.00697" lon="6.84371">
        <ele>2225</ele>
        <time>2022-07-21T10:14:27Z</time>
      </trkpt>
      <trkpt lat="46.00691" lon="6.84367">
        <ele>2223</ele>
        <time>2022-07-21T10:14:35Z</time>
      </trkpt>
      <trkpt lat="46.00687" lon="6.84366">
        <ele>2222</ele>
        <time>2022-07-21T10:14:38Z</time>
      </trkpt>
      <trkpt lat="46.00675" lon="6.84349">
        <ele>2217</ele>
        <time>2022-07-21T10:14:59Z</time>
      </trkpt>
      <trkpt lat="46.0067" lon="6.84344">
        <ele>2213</ele>
        <time>2022-07-21T10:15:09Z</time>
      </trkpt>
      <trkpt lat="46.00664" lon="6.84342">
        <ele>2210</ele>
        <time>2022-07-21T10:15:16Z</time>
      </trkpt>
      <trkpt lat="46.00658" lon="6.84336">
        <ele>2206</ele>
        <time>2022-07-21T10:15:28Z</time>
      </trkpt>
      <trkpt lat="46.00649" lon="6.8434">
        <ele>2203</ele>
        <time>2022-07-21T10:15:39Z</time>
      </trkpt>
      <trkpt lat="46.00648" lon="6.84334">
        <ele>2200</ele>
        <time>2022-07-21T10:15:49Z</time>
      </trkpt>
      <trkpt lat="46.00651" lon="6.84329">
        <ele>2199</ele>
        <time>2022-07-21T10:15:54Z</time>
      </trkpt>
      <trkpt lat="46.00646" lon="6.84324">
        <ele>2197</ele>
        <time>2022-07-21T10:15:58Z</time>
      </trkpt>
      <trkpt lat="46.00655" lon="6.84298">
        <ele>2193</ele>
        <time>2022-07-21T10:16:17Z</time>
      </trkpt>
      <trkpt lat="46.00659" lon="6.84294">
        <ele>2192</ele>
        <time>2022-07-21T10:16:21Z</time>
      </trkpt>
      <trkpt lat="46.00664" lon="6.84293">
        <ele>2191</ele>
        <time>2022-07-21T10:16:27Z</time>
      </trkpt>
      <trkpt lat="46.00687" lon="6.84269">
        <ele>2182</ele>
        <time>2022-07-21T10:16:56Z</time>
      </trkpt>
      <trkpt lat="46.00692" lon="6.84257">
        <ele>2180</ele>
        <time>2022-07-21T10:17:05Z</time>
      </trkpt>
      <trkpt lat="46.00692" lon="6.84244">
        <ele>2178</ele>
        <time>2022-07-21T10:17:13Z</time>
      </trkpt>
      <trkpt lat="46.00688" lon="6.84239">
        <ele>2177</ele>
        <time>2022-07-21T10:17:17Z</time>
      </trkpt>
      <trkpt lat="46.00673" lon="6.84201">
        <ele>2171</ele>
        <time>2022-07-21T10:17:48Z</time>
      </trkpt>
      <trkpt lat="46.00669" lon="6.84189">
        <ele>2169</ele>
        <time>2022-07-21T10:17:55Z</time>
      </trkpt>
      <trkpt lat="46.00667" lon="6.84185">
        <ele>2169</ele>
        <time>2022-07-21T10:17:59Z</time>
      </trkpt>
      <trkpt lat="46.00663" lon="6.84181">
        <ele>2168</ele>
        <time>2022-07-21T10:18:03Z</time>
      </trkpt>
      <trkpt lat="46.00661" lon="6.84174">
        <ele>2167</ele>
        <time>2022-07-21T10:18:09Z</time>
      </trkpt>
      <trkpt lat="46.00657" lon="6.84169">
        <ele>2166</ele>
        <time>2022-07-21T10:18:13Z</time>
      </trkpt>
      <trkpt lat="46.00655" lon="6.84163">
        <ele>2166</ele>
        <time>2022-07-21T10:18:18Z</time>
      </trkpt>
      <trkpt lat="46.00649" lon="6.84155">
        <ele>2164</ele>
        <time>2022-07-21T10:18:27Z</time>
      </trkpt>
      <trkpt lat="46.00646" lon="6.84131">
        <ele>2159</ele>
        <time>2022-07-21T10:18:49Z</time>
      </trkpt>
      <trkpt lat="46.0064" lon="6.84126">
        <ele>2155</ele>
        <time>2022-07-21T10:18:59Z</time>
      </trkpt>
      <trkpt lat="46.00639" lon="6.84118">
        <ele>2152</ele>
        <time>2022-07-21T10:19:09Z</time>
      </trkpt>
      <trkpt lat="46.00635" lon="6.84116">
        <ele>2151</ele>
        <time>2022-07-21T10:19:13Z</time>
      </trkpt>
      <trkpt lat="46.00625" lon="6.84105">
        <ele>2147</ele>
        <time>2022-07-21T10:19:25Z</time>
      </trkpt>
      <trkpt lat="46.00621" lon="6.84103">
        <ele>2146</ele>
        <time>2022-07-21T10:19:29Z</time>
      </trkpt>
      <trkpt lat="46.00611" lon="6.84091">
        <ele>2142</ele>
        <time>2022-07-21T10:19:42Z</time>
      </trkpt>
      <trkpt lat="46.00604" lon="6.84086">
        <ele>2141</ele>
        <time>2022-07-21T10:19:50Z</time>
      </trkpt>
      <trkpt lat="46.00598" lon="6.84083">
        <ele>2139</ele>
        <time>2022-07-21T10:19:56Z</time>
      </trkpt>
      <trkpt lat="46.00594" lon="6.8408">
        <ele>2138</ele>
        <time>2022-07-21T10:20:01Z</time>
      </trkpt>
      <trkpt lat="46.0059" lon="6.84078">
        <ele>2137</ele>
        <time>2022-07-21T10:20:06Z</time>
      </trkpt>
      <trkpt lat="46.00586" lon="6.84073">
        <ele>2135</ele>
        <time>2022-07-21T10:20:11Z</time>
      </trkpt>
      <trkpt lat="46.00581" lon="6.84071">
        <ele>2135</ele>
        <time>2022-07-21T10:20:16Z</time>
      </trkpt>
      <trkpt lat="46.00578" lon="6.84067">
        <ele>2133</ele>
        <time>2022-07-21T10:20:21Z</time>
      </trkpt>
      <trkpt lat="46.00573" lon="6.8405">
        <ele>2130</ele>
        <time>2022-07-21T10:20:34Z</time>
      </trkpt>
      <trkpt lat="46.00564" lon="6.84047">
        <ele>2128</ele>
        <time>2022-07-21T10:20:42Z</time>
      </trkpt>
      <trkpt lat="46.00554" lon="6.84036">
        <ele>2125</ele>
        <time>2022-07-21T10:20:55Z</time>
      </trkpt>
      <trkpt lat="46.00541" lon="6.84029">
        <ele>2123</ele>
        <time>2022-07-21T10:21:06Z</time>
      </trkpt>
      <trkpt lat="46.00537" lon="6.84022">
        <ele>2122</ele>
        <time>2022-07-21T10:21:13Z</time>
      </trkpt>
      <trkpt lat="46.00515" lon="6.8401">
        <ele>2118</ele>
        <time>2022-07-21T10:21:33Z</time>
      </trkpt>
      <trkpt lat="46.00505" lon="6.84007">
        <ele>2117</ele>
        <time>2022-07-21T10:21:41Z</time>
      </trkpt>
      <trkpt lat="46.00487" lon="6.84014">
        <ele>2114</ele>
        <time>2022-07-21T10:21:57Z</time>
      </trkpt>
      <trkpt lat="46.00482" lon="6.84013">
        <ele>2113</ele>
        <time>2022-07-21T10:22:02Z</time>
      </trkpt>
      <trkpt lat="46.00463" lon="6.84004">
        <ele>2110</ele>
        <time>2022-07-21T10:22:20Z</time>
      </trkpt>
      <trkpt lat="46.00454" lon="6.83997">
        <ele>2108</ele>
        <time>2022-07-21T10:22:28Z</time>
      </trkpt>
      <trkpt lat="46.00449" lon="6.83995">
        <ele>2107</ele>
        <time>2022-07-21T10:22:33Z</time>
      </trkpt>
      <trkpt lat="46.00442" lon="6.83984">
        <ele>2107</ele>
        <time>2022-07-21T10:22:40Z</time>
      </trkpt>
      <trkpt lat="46.00432" lon="6.8398">
        <ele>2105</ele>
        <time>2022-07-21T10:22:49Z</time>
      </trkpt>
      <trkpt lat="46.00427" lon="6.83972">
        <ele>2104</ele>
        <time>2022-07-21T10:22:55Z</time>
      </trkpt>
      <trkpt lat="46.00423" lon="6.83959">
        <ele>2103</ele>
        <time>2022-07-21T10:23:04Z</time>
      </trkpt>
      <trkpt lat="46.00393" lon="6.83934">
        <ele>2094</ele>
        <time>2022-07-21T10:23:36Z</time>
      </trkpt>
      <trkpt lat="46.00388" lon="6.83932">
        <ele>2093</ele>
        <time>2022-07-21T10:23:41Z</time>
      </trkpt>
      <trkpt lat="46.00381" lon="6.83927">
        <ele>2091</ele>
        <time>2022-07-21T10:23:48Z</time>
      </trkpt>
      <trkpt lat="46.00358" lon="6.83917">
        <ele>2088</ele>
        <time>2022-07-21T10:24:09Z</time>
      </trkpt>
      <trkpt lat="46.00353" lon="6.83918">
        <ele>2087</ele>
        <time>2022-07-21T10:24:13Z</time>
      </trkpt>
      <trkpt lat="46.00349" lon="6.83917">
        <ele>2086</ele>
        <time>2022-07-21T10:24:17Z</time>
      </trkpt>
      <trkpt lat="46.00338" lon="6.83918">
        <ele>2082</ele>
        <time>2022-07-21T10:24:30Z</time>
      </trkpt>
      <trkpt lat="46.00333" lon="6.83925">
        <ele>2080</ele>
        <time>2022-07-21T10:24:38Z</time>
      </trkpt>
      <trkpt lat="46.00327" lon="6.83929">
        <ele>2077</ele>
        <time>2022-07-21T10:24:49Z</time>
      </trkpt>
      <trkpt lat="46.00321" lon="6.83931">
        <ele>2075</ele>
        <time>2022-07-21T10:24:57Z</time>
      </trkpt>
      <trkpt lat="46.00315" lon="6.8393">
        <ele>2072</ele>
        <time>2022-07-21T10:25:07Z</time>
      </trkpt>
      <trkpt lat="46.00311" lon="6.83926">
        <ele>2071</ele>
        <time>2022-07-21T10:25:11Z</time>
      </trkpt>
      <trkpt lat="46.00305" lon="6.83926">
        <ele>2070</ele>
        <time>2022-07-21T10:25:17Z</time>
      </trkpt>
      <trkpt lat="46.00301" lon="6.83926">
        <ele>2069</ele>
        <time>2022-07-21T10:25:21Z</time>
      </trkpt>
      <trkpt lat="46.00296" lon="6.83928">
        <ele>2068</ele>
        <time>2022-07-21T10:25:26Z</time>
      </trkpt>
      <trkpt lat="46.00291" lon="6.83926">
        <ele>2067</ele>
        <time>2022-07-21T10:25:31Z</time>
      </trkpt>
      <trkpt lat="46.00271" lon="6.83897">
        <ele>2057</ele>
        <time>2022-07-21T10:26:08Z</time>
      </trkpt>
      <trkpt lat="46.00266" lon="6.83889">
        <ele>2054</ele>
        <time>2022-07-21T10:26:18Z</time>
      </trkpt>
      <trkpt lat="46.00264" lon="6.83883">
        <ele>2052</ele>
        <time>2022-07-21T10:26:23Z</time>
      </trkpt>
      <trkpt lat="46.00258" lon="6.83875">
        <ele>2050</ele>
        <time>2022-07-21T10:26:31Z</time>
      </trkpt>
      <trkpt lat="46.00253" lon="6.83862">
        <ele>2049</ele>
        <time>2022-07-21T10:26:40Z</time>
      </trkpt>
      <trkpt lat="46.0025" lon="6.83844">
        <ele>2046</ele>
        <time>2022-07-21T10:26:53Z</time>
      </trkpt>
      <trkpt lat="46.00241" lon="6.83822">
        <ele>2040</ele>
        <time>2022-07-21T10:27:14Z</time>
      </trkpt>
      <trkpt lat="46.00237" lon="6.83819">
        <ele>2039</ele>
        <time>2022-07-21T10:27:18Z</time>
      </trkpt>
      <trkpt lat="46.00232" lon="6.83818">
        <ele>2038</ele>
        <time>2022-07-21T10:27:23Z</time>
      </trkpt>
      <trkpt lat="46.00229" lon="6.83814">
        <ele>2038</ele>
        <time>2022-07-21T10:27:27Z</time>
      </trkpt>
      <trkpt lat="46.00225" lon="6.83806">
        <ele>2036</ele>
        <time>2022-07-21T10:27:35Z</time>
      </trkpt>
      <trkpt lat="46.00215" lon="6.83795">
        <ele>2031</ele>
        <time>2022-07-21T10:27:52Z</time>
      </trkpt>
      <trkpt lat="46.00211" lon="6.83793">
        <ele>2031</ele>
        <time>2022-07-21T10:27:56Z</time>
      </trkpt>
      <trkpt lat="46.00198" lon="6.83783">
        <ele>2028</ele>
        <time>2022-07-21T10:28:10Z</time>
      </trkpt>
      <trkpt lat="46.00189" lon="6.83773">
        <ele>2026</ele>
        <time>2022-07-21T10:28:21Z</time>
      </trkpt>
      <trkpt lat="46.00177" lon="6.83768">
        <ele>2024</ele>
        <time>2022-07-21T10:28:33Z</time>
      </trkpt>
      <trkpt lat="46.00152" lon="6.83744">
        <ele>2020</ele>
        <time>2022-07-21T10:29:00Z</time>
      </trkpt>
      <trkpt lat="46.00148" lon="6.83742">
        <ele>2019</ele>
        <time>2022-07-21T10:29:04Z</time>
      </trkpt>
      <trkpt lat="46.00141" lon="6.83734">
        <ele>2019</ele>
        <time>2022-07-21T10:29:11Z</time>
      </trkpt>
      <trkpt lat="46.00132" lon="6.83727">
        <ele>2020</ele>
        <time>2022-07-21T10:29:21Z</time>
      </trkpt>
      <trkpt lat="46.00124" lon="6.83718">
        <ele>2019</ele>
        <time>2022-07-21T10:29:30Z</time>
      </trkpt>
      <trkpt lat="46.0012" lon="6.83712">
        <ele>2019</ele>
        <time>2022-07-21T10:29:34Z</time>
      </trkpt>
      <trkpt lat="46.00115" lon="6.83709">
        <ele>2019</ele>
        <time>2022-07-21T10:29:41Z</time>
      </trkpt>
      <trkpt lat="46.00109" lon="6.83697">
        <ele>2018</ele>
        <time>2022-07-21T10:29:50Z</time>
      </trkpt>
      <trkpt lat="46.00105" lon="6.83691">
        <ele>2017</ele>
        <time>2022-07-21T10:29:54Z</time>
      </trkpt>
      <trkpt lat="46.00098" lon="6.83686">
        <ele>2017</ele>
        <time>2022-07-21T10:30:01Z</time>
      </trkpt>
      <trkpt lat="46.00094" lon="6.83683">
        <ele>2016</ele>
        <time>2022-07-21T10:30:06Z</time>
      </trkpt>
      <trkpt lat="46.00079" lon="6.83664">
        <ele>2015</ele>
        <time>2022-07-21T10:30:24Z</time>
      </trkpt>
      <trkpt lat="46.00073" lon="6.83659">
        <ele>2014</ele>
        <time>2022-07-21T10:30:30Z</time>
      </trkpt>
      <trkpt lat="46.00048" lon="6.83636">
        <ele>2011</ele>
        <time>2022-07-21T10:30:55Z</time>
      </trkpt>
      <trkpt lat="46.0004" lon="6.83633">
        <ele>2010</ele>
        <time>2022-07-21T10:31:04Z</time>
      </trkpt>
      <trkpt lat="46.00037" lon="6.83628">
        <ele>2010</ele>
        <time>2022-07-21T10:31:08Z</time>
      </trkpt>
      <trkpt lat="46.00033" lon="6.83622">
        <ele>2009</ele>
        <time>2022-07-21T10:31:13Z</time>
      </trkpt>
      <trkpt lat="46.00027" lon="6.83615">
        <ele>2008</ele>
        <time>2022-07-21T10:31:21Z</time>
      </trkpt>
      <trkpt lat="46.00017" lon="6.83603">
        <ele>2005</ele>
        <time>2022-07-21T10:31:37Z</time>
      </trkpt>
      <trkpt lat="46.00013" lon="6.836">
        <ele>2004</ele>
        <time>2022-07-21T10:31:40Z</time>
      </trkpt>
      <trkpt lat="46.00012" lon="6.83595">
        <ele>2003</ele>
        <time>2022-07-21T10:31:44Z</time>
      </trkpt>
      <trkpt lat="46.00011" lon="6.83588">
        <ele>2002</ele>
        <time>2022-07-21T10:31:49Z</time>
      </trkpt>
      <trkpt lat="46.00007" lon="6.83584">
        <ele>2001</ele>
        <time>2022-07-21T10:31:53Z</time>
      </trkpt>
      <trkpt lat="46.00004" lon="6.83579">
        <ele>2001</ele>
        <time>2022-07-21T10:31:57Z</time>
      </trkpt>
      <trkpt lat="45.99987" lon="6.83561">
        <ele>1997</ele>
        <time>2022-07-21T10:32:18Z</time>
      </trkpt>
      <trkpt lat="45.99975" lon="6.83536">
        <ele>1991</ele>
        <time>2022-07-21T10:32:42Z</time>
      </trkpt>
      <trkpt lat="45.99973" lon="6.83526">
        <ele>1989</ele>
        <time>2022-07-21T10:32:51Z</time>
      </trkpt>
      <trkpt lat="45.99969" lon="6.83524">
        <ele>1988</ele>
        <time>2022-07-21T10:32:55Z</time>
      </trkpt>
      <trkpt lat="45.99964" lon="6.83519">
        <ele>1986</ele>
        <time>2022-07-21T10:33:04Z</time>
      </trkpt>
      <trkpt lat="45.99963" lon="6.83512">
        <ele>1985</ele>
        <time>2022-07-21T10:33:09Z</time>
      </trkpt>
      <trkpt lat="45.99954" lon="6.83511">
        <ele>1984</ele>
        <time>2022-07-21T10:33:16Z</time>
      </trkpt>
      <trkpt lat="45.99949" lon="6.83508">
        <ele>1983</ele>
        <time>2022-07-21T10:33:23Z</time>
      </trkpt>
      <trkpt lat="45.99938" lon="6.8349">
        <ele>1978</ele>
        <time>2022-07-21T10:33:44Z</time>
      </trkpt>
      <trkpt lat="45.99933" lon="6.83475">
        <ele>1976</ele>
        <time>2022-07-21T10:33:56Z</time>
      </trkpt>
      <trkpt lat="45.99928" lon="6.83472">
        <ele>1975</ele>
        <time>2022-07-21T10:34:02Z</time>
      </trkpt>
      <trkpt lat="45.99925" lon="6.83467">
        <ele>1975</ele>
        <time>2022-07-21T10:34:06Z</time>
      </trkpt>
      <trkpt lat="45.99919" lon="6.83461">
        <ele>1973</ele>
        <time>2022-07-21T10:34:14Z</time>
      </trkpt>
      <trkpt lat="45.99915" lon="6.83456">
        <ele>1972</ele>
        <time>2022-07-21T10:34:21Z</time>
      </trkpt>
      <trkpt lat="45.99914" lon="6.8345">
        <ele>1971</ele>
        <time>2022-07-21T10:34:27Z</time>
      </trkpt>
      <trkpt lat="45.99891" lon="6.8343">
        <ele>1966</ele>
        <time>2022-07-21T10:34:51Z</time>
      </trkpt>
      <trkpt lat="45.99888" lon="6.83425">
        <ele>1966</ele>
        <time>2022-07-21T10:34:55Z</time>
      </trkpt>
      <trkpt lat="45.99884" lon="6.83422">
        <ele>1965</ele>
        <time>2022-07-21T10:35:00Z</time>
      </trkpt>
      <trkpt lat="45.99881" lon="6.83417">
        <ele>1964</ele>
        <time>2022-07-21T10:35:04Z</time>
      </trkpt>
      <trkpt lat="45.99874" lon="6.83412">
        <ele>1963</ele>
        <time>2022-07-21T10:35:11Z</time>
      </trkpt>
      <trkpt lat="45.99864" lon="6.83399">
        <ele>1960</ele>
        <time>2022-07-21T10:35:27Z</time>
      </trkpt>
      <trkpt lat="45.9986" lon="6.83396">
        <ele>1960</ele>
        <time>2022-07-21T10:35:31Z</time>
      </trkpt>
      <trkpt lat="45.99838" lon="6.83379">
        <ele>1954</ele>
        <time>2022-07-21T10:36:01Z</time>
      </trkpt>
      <trkpt lat="45.99834" lon="6.83376">
        <ele>1954</ele>
        <time>2022-07-21T10:36:04Z</time>
      </trkpt>
      <trkpt lat="45.99828" lon="6.8337">
        <ele>1952</ele>
        <time>2022-07-21T10:36:11Z</time>
      </trkpt>
      <trkpt lat="45.99814" lon="6.83378">
        <ele>1950</ele>
        <time>2022-07-21T10:36:24Z</time>
      </trkpt>
      <trkpt lat="45.9981" lon="6.83377">
        <ele>1949</ele>
        <time>2022-07-21T10:36:27Z</time>
      </trkpt>
      <trkpt lat="45.99805" lon="6.8338">
        <ele>1949</ele>
        <time>2022-07-21T10:36:35Z</time>
      </trkpt>
      <trkpt lat="45.998" lon="6.8338">
        <ele>1948</ele>
        <time>2022-07-21T10:36:41Z</time>
      </trkpt>
      <trkpt lat="45.99795" lon="6.83382">
        <ele>1948</ele>
        <time>2022-07-21T10:36:46Z</time>
      </trkpt>
      <trkpt lat="45.99775" lon="6.83391">
        <ele>1946</ele>
        <time>2022-07-21T10:37:07Z</time>
      </trkpt>
      <trkpt lat="45.99767" lon="6.83387">
        <ele>1945</ele>
        <time>2022-07-21T10:37:16Z</time>
      </trkpt>
      <trkpt lat="45.99763" lon="6.83386">
        <ele>1946</ele>
        <time>2022-07-21T10:37:20Z</time>
      </trkpt>
      <trkpt lat="45.99753" lon="6.83387">
        <ele>1945</ele>
        <time>2022-07-21T10:37:28Z</time>
      </trkpt>
      <trkpt lat="45.99737" lon="6.83393">
        <ele>1945</ele>
        <time>2022-07-21T10:37:45Z</time>
      </trkpt>
      <trkpt lat="45.99733" lon="6.83395">
        <ele>1944</ele>
        <time>2022-07-21T10:37:49Z</time>
      </trkpt>
      <trkpt lat="45.99725" lon="6.83401">
        <ele>1943</ele>
        <time>2022-07-21T10:37:58Z</time>
      </trkpt>
      <trkpt lat="45.9972" lon="6.83402">
        <ele>1943</ele>
        <time>2022-07-21T10:38:02Z</time>
      </trkpt>
      <trkpt lat="45.99719" lon="6.83395">
        <ele>1942</ele>
        <time>2022-07-21T10:38:09Z</time>
      </trkpt>
      <trkpt lat="45.99712" lon="6.83387">
        <ele>1943</ele>
        <time>2022-07-21T10:38:18Z</time>
      </trkpt>
      <trkpt lat="45.99711" lon="6.83381">
        <ele>1943</ele>
        <time>2022-07-21T10:38:23Z</time>
      </trkpt>
      <trkpt lat="45.99708" lon="6.83394">
        <ele>1942</ele>
        <time>2022-07-21T10:39:28Z</time>
      </trkpt>
      <trkpt lat="45.99704" lon="6.83403">
        <ele>1941</ele>
        <time>2022-07-21T10:39:38Z</time>
      </trkpt>
      <trkpt lat="45.99699" lon="6.83406">
        <ele>1940</ele>
        <time>2022-07-21T10:39:42Z</time>
      </trkpt>
      <trkpt lat="45.99696" lon="6.83409">
        <ele>1939</ele>
        <time>2022-07-21T10:40:25Z</time>
      </trkpt>
      <trkpt lat="45.99694" lon="6.83417">
        <ele>1939</ele>
        <time>2022-07-21T10:40:57Z</time>
      </trkpt>
      <trkpt lat="45.9969" lon="6.83421">
        <ele>1938</ele>
        <time>2022-07-21T10:41:01Z</time>
      </trkpt>
      <trkpt lat="45.99685" lon="6.83436">
        <ele>1939</ele>
        <time>2022-07-21T10:41:13Z</time>
      </trkpt>
      <trkpt lat="45.99684" lon="6.83444">
        <ele>1938</ele>
        <time>2022-07-21T10:41:19Z</time>
      </trkpt>
      <trkpt lat="45.9968" lon="6.83451">
        <ele>1937</ele>
        <time>2022-07-21T10:41:27Z</time>
      </trkpt>
      <trkpt lat="45.99682" lon="6.83451">
        <ele>1935</ele>
        <time>2022-07-21T10:41:59Z</time>
      </trkpt>
      <trkpt lat="45.99685" lon="6.83446">
        <ele>1936</ele>
        <time>2022-07-21T10:42:09Z</time>
      </trkpt>
      <trkpt lat="45.99686" lon="6.8344">
        <ele>1937</ele>
        <time>2022-07-21T10:42:15Z</time>
      </trkpt>
      <trkpt lat="45.99687" lon="6.83431">
        <ele>1938</ele>
        <time>2022-07-21T10:42:24Z</time>
      </trkpt>
      <trkpt lat="45.99689" lon="6.83426">
        <ele>1938</ele>
        <time>2022-07-21T10:42:29Z</time>
      </trkpt>
      <trkpt lat="45.99693" lon="6.83421">
        <ele>1938</ele>
        <time>2022-07-21T10:42:33Z</time>
      </trkpt>
      <trkpt lat="45.99695" lon="6.83415">
        <ele>1938</ele>
        <time>2022-07-21T10:42:38Z</time>
      </trkpt>
      <trkpt lat="45.99698" lon="6.83408">
        <ele>1938</ele>
        <time>2022-07-21T10:42:46Z</time>
      </trkpt>
      <trkpt lat="45.99698" lon="6.8341">
        <ele>1936</ele>
        <time>2022-07-21T11:01:26Z</time>
      </trkpt>
      <trkpt lat="45.99697" lon="6.8341">
        <ele>1937</ele>
        <time>2022-07-21T11:21:17Z</time>
      </trkpt>
      <trkpt lat="45.9969" lon="6.83405">
        <ele>1938</ele>
        <time>2022-07-21T11:28:11Z</time>
      </trkpt>
      <trkpt lat="45.99684" lon="6.83401">
        <ele>1937</ele>
        <time>2022-07-21T11:28:37Z</time>
      </trkpt>
      <trkpt lat="45.9968" lon="6.83397">
        <ele>1937</ele>
        <time>2022-07-21T11:28:47Z</time>
      </trkpt>
      <trkpt lat="45.99679" lon="6.8339">
        <ele>1938</ele>
        <time>2022-07-21T11:28:57Z</time>
      </trkpt>
      <trkpt lat="45.99679" lon="6.83379">
        <ele>1937</ele>
        <time>2022-07-21T11:29:27Z</time>
      </trkpt>
      <trkpt lat="45.99674" lon="6.83378">
        <ele>1938</ele>
        <time>2022-07-21T11:29:37Z</time>
      </trkpt>
      <trkpt lat="45.99668" lon="6.83382">
        <ele>1938</ele>
        <time>2022-07-21T11:29:48Z</time>
      </trkpt>
      <trkpt lat="45.99672" lon="6.83392">
        <ele>1938</ele>
        <time>2022-07-21T11:30:00Z</time>
      </trkpt>
      <trkpt lat="45.99678" lon="6.83395">
        <ele>1939</ele>
        <time>2022-07-21T11:30:10Z</time>
      </trkpt>
      <trkpt lat="45.99683" lon="6.83399">
        <ele>1938</ele>
        <time>2022-07-21T11:30:20Z</time>
      </trkpt>
      <trkpt lat="45.9969" lon="6.83401">
        <ele>1938</ele>
        <time>2022-07-21T11:30:30Z</time>
      </trkpt>
      <trkpt lat="45.99692" lon="6.83407">
        <ele>1938</ele>
        <time>2022-07-21T11:30:40Z</time>
      </trkpt>
      <trkpt lat="45.99696" lon="6.83411">
        <ele>1938</ele>
        <time>2022-07-21T11:32:58Z</time>
      </trkpt>
      <trkpt lat="45.99703" lon="6.83411">
        <ele>1938</ele>
        <time>2022-07-21T11:33:33Z</time>
      </trkpt>
      <trkpt lat="45.9973" lon="6.83398">
        <ele>1939</ele>
        <time>2022-07-21T11:34:08Z</time>
      </trkpt>
      <trkpt lat="45.99746" lon="6.8339">
        <ele>1941</ele>
        <time>2022-07-21T11:34:27Z</time>
      </trkpt>
      <trkpt lat="45.99753" lon="6.83388">
        <ele>1941</ele>
        <time>2022-07-21T11:34:35Z</time>
      </trkpt>
      <trkpt lat="45.99757" lon="6.83383">
        <ele>1941</ele>
        <time>2022-07-21T11:34:41Z</time>
      </trkpt>
      <trkpt lat="45.99762" lon="6.83378">
        <ele>1940</ele>
        <time>2022-07-21T11:34:49Z</time>
      </trkpt>
      <trkpt lat="45.99766" lon="6.83373">
        <ele>1940</ele>
        <time>2022-07-21T11:34:56Z</time>
      </trkpt>
      <trkpt lat="45.9977" lon="6.83368">
        <ele>1939</ele>
        <time>2022-07-21T11:35:06Z</time>
      </trkpt>
      <trkpt lat="45.99776" lon="6.83366">
        <ele>1939</ele>
        <time>2022-07-21T11:35:16Z</time>
      </trkpt>
      <trkpt lat="45.99781" lon="6.83362">
        <ele>1939</ele>
        <time>2022-07-21T11:35:24Z</time>
      </trkpt>
      <trkpt lat="45.99779" lon="6.83352">
        <ele>1940</ele>
        <time>2022-07-21T11:35:34Z</time>
      </trkpt>
      <trkpt lat="45.99775" lon="6.83349">
        <ele>1940</ele>
        <time>2022-07-21T11:35:37Z</time>
      </trkpt>
      <trkpt lat="45.99774" lon="6.83337">
        <ele>1939</ele>
        <time>2022-07-21T11:35:49Z</time>
      </trkpt>
      <trkpt lat="45.99769" lon="6.83327">
        <ele>1939</ele>
        <time>2022-07-21T11:35:58Z</time>
      </trkpt>
      <trkpt lat="45.99767" lon="6.83318">
        <ele>1939</ele>
        <time>2022-07-21T11:36:06Z</time>
      </trkpt>
      <trkpt lat="45.99758" lon="6.83293">
        <ele>1942</ele>
        <time>2022-07-21T11:36:38Z</time>
      </trkpt>
      <trkpt lat="45.99757" lon="6.83285">
        <ele>1945</ele>
        <time>2022-07-21T11:36:53Z</time>
      </trkpt>
      <trkpt lat="45.99755" lon="6.83277">
        <ele>1947</ele>
        <time>2022-07-21T11:37:33Z</time>
      </trkpt>
      <trkpt lat="45.99755" lon="6.83261">
        <ele>1951</ele>
        <time>2022-07-21T11:38:03Z</time>
      </trkpt>
      <trkpt lat="45.99751" lon="6.8325">
        <ele>1953</ele>
        <time>2022-07-21T11:38:20Z</time>
      </trkpt>
      <trkpt lat="45.99742" lon="6.83244">
        <ele>1954</ele>
        <time>2022-07-21T11:38:31Z</time>
      </trkpt>
      <trkpt lat="45.99736" lon="6.8323">
        <ele>1956</ele>
        <time>2022-07-21T11:38:48Z</time>
      </trkpt>
      <trkpt lat="45.99732" lon="6.83225">
        <ele>1956</ele>
        <time>2022-07-21T11:38:53Z</time>
      </trkpt>
      <trkpt lat="45.99727" lon="6.83217">
        <ele>1958</ele>
        <time>2022-07-21T11:39:04Z</time>
      </trkpt>
      <trkpt lat="45.99724" lon="6.83213">
        <ele>1958</ele>
        <time>2022-07-21T11:39:08Z</time>
      </trkpt>
      <trkpt lat="45.99721" lon="6.83205">
        <ele>1959</ele>
        <time>2022-07-21T11:39:19Z</time>
      </trkpt>
      <trkpt lat="45.99719" lon="6.832">
        <ele>1960</ele>
        <time>2022-07-21T11:39:25Z</time>
      </trkpt>
      <trkpt lat="45.99723" lon="6.83194">
        <ele>1958</ele>
        <time>2022-07-21T11:39:35Z</time>
      </trkpt>
      <trkpt lat="45.99724" lon="6.83184">
        <ele>1956</ele>
        <time>2022-07-21T11:39:45Z</time>
      </trkpt>
      <trkpt lat="45.9972" lon="6.83181">
        <ele>1957</ele>
        <time>2022-07-21T11:39:50Z</time>
      </trkpt>
      <trkpt lat="45.99705" lon="6.83186">
        <ele>1954</ele>
        <time>2022-07-21T11:40:09Z</time>
      </trkpt>
      <trkpt lat="45.99699" lon="6.8319">
        <ele>1954</ele>
        <time>2022-07-21T11:40:17Z</time>
      </trkpt>
      <trkpt lat="45.99691" lon="6.83194">
        <ele>1956</ele>
        <time>2022-07-21T11:40:30Z</time>
      </trkpt>
      <trkpt lat="45.99687" lon="6.83195">
        <ele>1955</ele>
        <time>2022-07-21T11:40:35Z</time>
      </trkpt>
      <trkpt lat="45.9968" lon="6.83196">
        <ele>1953</ele>
        <time>2022-07-21T11:40:43Z</time>
      </trkpt>
      <trkpt lat="45.99646" lon="6.83187">
        <ele>1949</ele>
        <time>2022-07-21T11:41:17Z</time>
      </trkpt>
      <trkpt lat="45.99642" lon="6.83186">
        <ele>1949</ele>
        <time>2022-07-21T11:41:21Z</time>
      </trkpt>
      <trkpt lat="45.99638" lon="6.8318">
        <ele>1948</ele>
        <time>2022-07-21T11:41:26Z</time>
      </trkpt>
      <trkpt lat="45.99629" lon="6.83171">
        <ele>1946</ele>
        <time>2022-07-21T11:41:39Z</time>
      </trkpt>
      <trkpt lat="45.99623" lon="6.83169">
        <ele>1946</ele>
        <time>2022-07-21T11:41:46Z</time>
      </trkpt>
      <trkpt lat="45.99619" lon="6.83167">
        <ele>1947</ele>
        <time>2022-07-21T11:41:58Z</time>
      </trkpt>
      <trkpt lat="45.99614" lon="6.83165">
        <ele>1947</ele>
        <time>2022-07-21T11:42:13Z</time>
      </trkpt>
      <trkpt lat="45.99609" lon="6.83152">
        <ele>1950</ele>
        <time>2022-07-21T11:42:32Z</time>
      </trkpt>
      <trkpt lat="45.99607" lon="6.83144">
        <ele>1950</ele>
        <time>2022-07-21T11:42:41Z</time>
      </trkpt>
      <trkpt lat="45.996" lon="6.8313">
        <ele>1951</ele>
        <time>2022-07-21T11:42:56Z</time>
      </trkpt>
      <trkpt lat="45.99597" lon="6.83123">
        <ele>1952</ele>
        <time>2022-07-21T11:43:05Z</time>
      </trkpt>
      <trkpt lat="45.99592" lon="6.83122">
        <ele>1952</ele>
        <time>2022-07-21T11:43:18Z</time>
      </trkpt>
      <trkpt lat="45.9959" lon="6.83118">
        <ele>1952</ele>
        <time>2022-07-21T11:43:24Z</time>
      </trkpt>
      <trkpt lat="45.99585" lon="6.83111">
        <ele>1956</ele>
        <time>2022-07-21T11:43:44Z</time>
      </trkpt>
      <trkpt lat="45.99585" lon="6.83103">
        <ele>1957</ele>
        <time>2022-07-21T11:43:54Z</time>
      </trkpt>
      <trkpt lat="45.99577" lon="6.83083">
        <ele>1962</ele>
        <time>2022-07-21T11:44:36Z</time>
      </trkpt>
      <trkpt lat="45.99577" lon="6.83078">
        <ele>1964</ele>
        <time>2022-07-21T11:44:52Z</time>
      </trkpt>
      <trkpt lat="45.99574" lon="6.83069">
        <ele>1965</ele>
        <time>2022-07-21T11:45:03Z</time>
      </trkpt>
      <trkpt lat="45.99568" lon="6.83063">
        <ele>1966</ele>
        <time>2022-07-21T11:45:13Z</time>
      </trkpt>
      <trkpt lat="45.99564" lon="6.8306">
        <ele>1967</ele>
        <time>2022-07-21T11:45:17Z</time>
      </trkpt>
      <trkpt lat="45.99562" lon="6.83054">
        <ele>1968</ele>
        <time>2022-07-21T11:45:30Z</time>
      </trkpt>
      <trkpt lat="45.99559" lon="6.83046">
        <ele>1969</ele>
        <time>2022-07-21T11:45:45Z</time>
      </trkpt>
      <trkpt lat="45.99555" lon="6.83044">
        <ele>1970</ele>
        <time>2022-07-21T11:45:50Z</time>
      </trkpt>
      <trkpt lat="45.99552" lon="6.83039">
        <ele>1971</ele>
        <time>2022-07-21T11:46:00Z</time>
      </trkpt>
      <trkpt lat="45.99552" lon="6.83033">
        <ele>1973</ele>
        <time>2022-07-21T11:46:15Z</time>
      </trkpt>
      <trkpt lat="45.99549" lon="6.83028">
        <ele>1974</ele>
        <time>2022-07-21T11:46:22Z</time>
      </trkpt>
      <trkpt lat="45.99545" lon="6.83025">
        <ele>1976</ele>
        <time>2022-07-21T11:46:40Z</time>
      </trkpt>
      <trkpt lat="45.9954" lon="6.83022">
        <ele>1977</ele>
        <time>2022-07-21T11:46:46Z</time>
      </trkpt>
      <trkpt lat="45.99535" lon="6.83017">
        <ele>1979</ele>
        <time>2022-07-21T11:47:02Z</time>
      </trkpt>
      <trkpt lat="45.99531" lon="6.83016">
        <ele>1980</ele>
        <time>2022-07-21T11:47:12Z</time>
      </trkpt>
      <trkpt lat="45.99516" lon="6.83006">
        <ele>1983</ele>
        <time>2022-07-21T11:47:39Z</time>
      </trkpt>
      <trkpt lat="45.9951" lon="6.83001">
        <ele>1984</ele>
        <time>2022-07-21T11:47:49Z</time>
      </trkpt>
      <trkpt lat="45.99506" lon="6.82998">
        <ele>1984</ele>
        <time>2022-07-21T11:47:55Z</time>
      </trkpt>
      <trkpt lat="45.995" lon="6.82995">
        <ele>1985</ele>
        <time>2022-07-21T11:48:04Z</time>
      </trkpt>
      <trkpt lat="45.99495" lon="6.82991">
        <ele>1985</ele>
        <time>2022-07-21T11:48:10Z</time>
      </trkpt>
      <trkpt lat="45.99474" lon="6.82979">
        <ele>1988</ele>
        <time>2022-07-21T11:48:39Z</time>
      </trkpt>
      <trkpt lat="45.9947" lon="6.82975">
        <ele>1988</ele>
        <time>2022-07-21T11:48:46Z</time>
      </trkpt>
      <trkpt lat="45.99466" lon="6.82972">
        <ele>1988</ele>
        <time>2022-07-21T11:48:50Z</time>
      </trkpt>
      <trkpt lat="45.9946" lon="6.82966">
        <ele>1989</ele>
        <time>2022-07-21T11:48:59Z</time>
      </trkpt>
      <trkpt lat="45.99456" lon="6.82963">
        <ele>1989</ele>
        <time>2022-07-21T11:49:03Z</time>
      </trkpt>
      <trkpt lat="45.99437" lon="6.82941">
        <ele>1992</ele>
        <time>2022-07-21T11:49:37Z</time>
      </trkpt>
      <trkpt lat="45.99425" lon="6.82929">
        <ele>1993</ele>
        <time>2022-07-21T11:49:56Z</time>
      </trkpt>
      <trkpt lat="45.99416" lon="6.82927">
        <ele>1994</ele>
        <time>2022-07-21T11:50:07Z</time>
      </trkpt>
      <trkpt lat="45.99412" lon="6.82924">
        <ele>1995</ele>
        <time>2022-07-21T11:50:12Z</time>
      </trkpt>
      <trkpt lat="45.99407" lon="6.8292">
        <ele>1997</ele>
        <time>2022-07-21T11:50:23Z</time>
      </trkpt>
      <trkpt lat="45.99395" lon="6.82915">
        <ele>2000</ele>
        <time>2022-07-21T11:50:44Z</time>
      </trkpt>
      <trkpt lat="45.99383" lon="6.82904">
        <ele>2001</ele>
        <time>2022-07-21T11:51:04Z</time>
      </trkpt>
      <trkpt lat="45.9938" lon="6.82899">
        <ele>2002</ele>
        <time>2022-07-21T11:51:10Z</time>
      </trkpt>
      <trkpt lat="45.99376" lon="6.82896">
        <ele>2002</ele>
        <time>2022-07-21T11:51:14Z</time>
      </trkpt>
      <trkpt lat="45.99364" lon="6.82889">
        <ele>2003</ele>
        <time>2022-07-21T11:51:30Z</time>
      </trkpt>
      <trkpt lat="45.99352" lon="6.82877">
        <ele>2003</ele>
        <time>2022-07-21T11:51:45Z</time>
      </trkpt>
      <trkpt lat="45.99348" lon="6.82875">
        <ele>2005</ele>
        <time>2022-07-21T11:51:52Z</time>
      </trkpt>
      <trkpt lat="45.99346" lon="6.82866">
        <ele>2005</ele>
        <time>2022-07-21T11:52:02Z</time>
      </trkpt>
      <trkpt lat="45.9935" lon="6.82856">
        <ele>2003</ele>
        <time>2022-07-21T11:52:11Z</time>
      </trkpt>
      <trkpt lat="45.99348" lon="6.82851">
        <ele>2002</ele>
        <time>2022-07-21T11:52:15Z</time>
      </trkpt>
      <trkpt lat="45.99345" lon="6.82846">
        <ele>2001</ele>
        <time>2022-07-21T11:52:20Z</time>
      </trkpt>
      <trkpt lat="45.99341" lon="6.82843">
        <ele>2001</ele>
        <time>2022-07-21T11:52:23Z</time>
      </trkpt>
      <trkpt lat="45.99336" lon="6.82845">
        <ele>2001</ele>
        <time>2022-07-21T11:52:28Z</time>
      </trkpt>
      <trkpt lat="45.9933" lon="6.82846">
        <ele>2001</ele>
        <time>2022-07-21T11:52:36Z</time>
      </trkpt>
      <trkpt lat="45.99325" lon="6.82844">
        <ele>2001</ele>
        <time>2022-07-21T11:52:40Z</time>
      </trkpt>
      <trkpt lat="45.99318" lon="6.82843">
        <ele>2002</ele>
        <time>2022-07-21T11:52:49Z</time>
      </trkpt>
      <trkpt lat="45.9931" lon="6.82845">
        <ele>2003</ele>
        <time>2022-07-21T11:53:00Z</time>
      </trkpt>
      <trkpt lat="45.99303" lon="6.82836">
        <ele>2004</ele>
        <time>2022-07-21T11:53:10Z</time>
      </trkpt>
      <trkpt lat="45.99298" lon="6.82829">
        <ele>2005</ele>
        <time>2022-07-21T11:53:21Z</time>
      </trkpt>
      <trkpt lat="45.99295" lon="6.82823">
        <ele>2005</ele>
        <time>2022-07-21T11:53:25Z</time>
      </trkpt>
      <trkpt lat="45.99292" lon="6.82817">
        <ele>2006</ele>
        <time>2022-07-21T11:53:33Z</time>
      </trkpt>
      <trkpt lat="45.99289" lon="6.82805">
        <ele>2004</ele>
        <time>2022-07-21T11:53:43Z</time>
      </trkpt>
      <trkpt lat="45.99286" lon="6.82797">
        <ele>2003</ele>
        <time>2022-07-21T11:53:49Z</time>
      </trkpt>
      <trkpt lat="45.99282" lon="6.82794">
        <ele>2003</ele>
        <time>2022-07-21T11:53:54Z</time>
      </trkpt>
      <trkpt lat="45.99278" lon="6.82791">
        <ele>2005</ele>
        <time>2022-07-21T11:54:04Z</time>
      </trkpt>
      <trkpt lat="45.99274" lon="6.82791">
        <ele>2005</ele>
        <time>2022-07-21T11:54:09Z</time>
      </trkpt>
      <trkpt lat="45.99266" lon="6.82783">
        <ele>2006</ele>
        <time>2022-07-21T11:54:21Z</time>
      </trkpt>
      <trkpt lat="45.99256" lon="6.82771">
        <ele>2006</ele>
        <time>2022-07-21T11:54:37Z</time>
      </trkpt>
      <trkpt lat="45.99255" lon="6.82763">
        <ele>2006</ele>
        <time>2022-07-21T11:54:44Z</time>
      </trkpt>
      <trkpt lat="45.99252" lon="6.82758">
        <ele>2005</ele>
        <time>2022-07-21T11:54:49Z</time>
      </trkpt>
      <trkpt lat="45.99248" lon="6.82757">
        <ele>2005</ele>
        <time>2022-07-21T11:54:53Z</time>
      </trkpt>
      <trkpt lat="45.99243" lon="6.82754">
        <ele>2005</ele>
        <time>2022-07-21T11:54:58Z</time>
      </trkpt>
      <trkpt lat="45.99238" lon="6.82757">
        <ele>2005</ele>
        <time>2022-07-21T11:55:10Z</time>
      </trkpt>
      <trkpt lat="45.99233" lon="6.82757">
        <ele>2007</ele>
        <time>2022-07-21T11:55:20Z</time>
      </trkpt>
      <trkpt lat="45.9923" lon="6.8276">
        <ele>2008</ele>
        <time>2022-07-21T11:55:30Z</time>
      </trkpt>
      <trkpt lat="45.99225" lon="6.82759">
        <ele>2009</ele>
        <time>2022-07-21T11:55:35Z</time>
      </trkpt>
      <trkpt lat="45.9922" lon="6.82755">
        <ele>2009</ele>
        <time>2022-07-21T11:55:41Z</time>
      </trkpt>
      <trkpt lat="45.99212" lon="6.82752">
        <ele>2009</ele>
        <time>2022-07-21T11:55:50Z</time>
      </trkpt>
      <trkpt lat="45.99186" lon="6.82734">
        <ele>2012</ele>
        <time>2022-07-21T11:56:27Z</time>
      </trkpt>
      <trkpt lat="45.99178" lon="6.82731">
        <ele>2014</ele>
        <time>2022-07-21T11:56:41Z</time>
      </trkpt>
      <trkpt lat="45.99162" lon="6.82723">
        <ele>2016</ele>
        <time>2022-07-21T11:57:01Z</time>
      </trkpt>
      <trkpt lat="45.99155" lon="6.82717">
        <ele>2016</ele>
        <time>2022-07-21T11:57:12Z</time>
      </trkpt>
      <trkpt lat="45.99153" lon="6.82709">
        <ele>2017</ele>
        <time>2022-07-21T11:57:23Z</time>
      </trkpt>
      <trkpt lat="45.99146" lon="6.82704">
        <ele>2018</ele>
        <time>2022-07-21T11:57:33Z</time>
      </trkpt>
      <trkpt lat="45.9914" lon="6.82706">
        <ele>2019</ele>
        <time>2022-07-21T11:57:42Z</time>
      </trkpt>
      <trkpt lat="45.99128" lon="6.827">
        <ele>2021</ele>
        <time>2022-07-21T11:58:01Z</time>
      </trkpt>
      <trkpt lat="45.99122" lon="6.82695">
        <ele>2021</ele>
        <time>2022-07-21T11:58:09Z</time>
      </trkpt>
      <trkpt lat="45.99118" lon="6.82696">
        <ele>2021</ele>
        <time>2022-07-21T11:58:14Z</time>
      </trkpt>
      <trkpt lat="45.99096" lon="6.82693">
        <ele>2025</ele>
        <time>2022-07-21T11:58:47Z</time>
      </trkpt>
      <trkpt lat="45.99078" lon="6.82682">
        <ele>2027</ele>
        <time>2022-07-21T11:59:11Z</time>
      </trkpt>
      <trkpt lat="45.99072" lon="6.82681">
        <ele>2028</ele>
        <time>2022-07-21T11:59:22Z</time>
      </trkpt>
      <trkpt lat="45.99068" lon="6.82683">
        <ele>2028</ele>
        <time>2022-07-21T11:59:27Z</time>
      </trkpt>
      <trkpt lat="45.99062" lon="6.82682">
        <ele>2029</ele>
        <time>2022-07-21T11:59:35Z</time>
      </trkpt>
      <trkpt lat="45.99056" lon="6.82681">
        <ele>2031</ele>
        <time>2022-07-21T11:59:46Z</time>
      </trkpt>
      <trkpt lat="45.99049" lon="6.82678">
        <ele>2032</ele>
        <time>2022-07-21T11:59:57Z</time>
      </trkpt>
      <trkpt lat="45.99043" lon="6.82679">
        <ele>2033</ele>
        <time>2022-07-21T12:00:07Z</time>
      </trkpt>
      <trkpt lat="45.99024" lon="6.82674">
        <ele>2038</ele>
        <time>2022-07-21T12:00:44Z</time>
      </trkpt>
      <trkpt lat="45.99019" lon="6.82672">
        <ele>2039</ele>
        <time>2022-07-21T12:00:49Z</time>
      </trkpt>
      <trkpt lat="45.99008" lon="6.82671">
        <ele>2039</ele>
        <time>2022-07-21T12:01:06Z</time>
      </trkpt>
      <trkpt lat="45.99004" lon="6.8267">
        <ele>2040</ele>
        <time>2022-07-21T12:01:14Z</time>
      </trkpt>
      <trkpt lat="45.99" lon="6.82667">
        <ele>2040</ele>
        <time>2022-07-21T12:01:19Z</time>
      </trkpt>
      <trkpt lat="45.98995" lon="6.82664">
        <ele>2042</ele>
        <time>2022-07-21T12:01:29Z</time>
      </trkpt>
      <trkpt lat="45.98991" lon="6.82661">
        <ele>2042</ele>
        <time>2022-07-21T12:01:35Z</time>
      </trkpt>
      <trkpt lat="45.98983" lon="6.82657">
        <ele>2042</ele>
        <time>2022-07-21T12:01:44Z</time>
      </trkpt>
      <trkpt lat="45.98959" lon="6.82633">
        <ele>2042</ele>
        <time>2022-07-21T12:02:16Z</time>
      </trkpt>
      <trkpt lat="45.98954" lon="6.8263">
        <ele>2042</ele>
        <time>2022-07-21T12:02:21Z</time>
      </trkpt>
      <trkpt lat="45.9894" lon="6.82622">
        <ele>2044</ele>
        <time>2022-07-21T12:02:41Z</time>
      </trkpt>
      <trkpt lat="45.98935" lon="6.82615">
        <ele>2045</ele>
        <time>2022-07-21T12:02:50Z</time>
      </trkpt>
      <trkpt lat="45.98922" lon="6.82596">
        <ele>2043</ele>
        <time>2022-07-21T12:03:14Z</time>
      </trkpt>
      <trkpt lat="45.98917" lon="6.82595">
        <ele>2043</ele>
        <time>2022-07-21T12:03:26Z</time>
      </trkpt>
      <trkpt lat="45.98911" lon="6.82591">
        <ele>2044</ele>
        <time>2022-07-21T12:03:37Z</time>
      </trkpt>
      <trkpt lat="45.98905" lon="6.82591">
        <ele>2045</ele>
        <time>2022-07-21T12:06:11Z</time>
      </trkpt>
      <trkpt lat="45.98891" lon="6.82584">
        <ele>2046</ele>
        <time>2022-07-21T12:06:28Z</time>
      </trkpt>
      <trkpt lat="45.98879" lon="6.82583">
        <ele>2047</ele>
        <time>2022-07-21T12:06:41Z</time>
      </trkpt>
      <trkpt lat="45.98874" lon="6.82581">
        <ele>2047</ele>
        <time>2022-07-21T12:06:44Z</time>
      </trkpt>
      <trkpt lat="45.98867" lon="6.8258">
        <ele>2048</ele>
        <time>2022-07-21T12:06:56Z</time>
      </trkpt>
      <trkpt lat="45.98858" lon="6.82581">
        <ele>2049</ele>
        <time>2022-07-21T12:07:06Z</time>
      </trkpt>
      <trkpt lat="45.98852" lon="6.82578">
        <ele>2049</ele>
        <time>2022-07-21T12:07:14Z</time>
      </trkpt>
      <trkpt lat="45.98849" lon="6.82575">
        <ele>2050</ele>
        <time>2022-07-21T12:07:22Z</time>
      </trkpt>
      <trkpt lat="45.98843" lon="6.8257">
        <ele>2051</ele>
        <time>2022-07-21T12:07:31Z</time>
      </trkpt>
      <trkpt lat="45.98828" lon="6.82568">
        <ele>2053</ele>
        <time>2022-07-21T12:07:50Z</time>
      </trkpt>
      <trkpt lat="45.98818" lon="6.82566">
        <ele>2052</ele>
        <time>2022-07-21T12:08:00Z</time>
      </trkpt>
      <trkpt lat="45.9881" lon="6.82574">
        <ele>2054</ele>
        <time>2022-07-21T12:08:27Z</time>
      </trkpt>
      <trkpt lat="45.98803" lon="6.82575">
        <ele>2056</ele>
        <time>2022-07-21T12:08:48Z</time>
      </trkpt>
      <trkpt lat="45.98797" lon="6.82575">
        <ele>2058</ele>
        <time>2022-07-21T12:09:03Z</time>
      </trkpt>
      <trkpt lat="45.9879" lon="6.82576">
        <ele>2059</ele>
        <time>2022-07-21T12:09:13Z</time>
      </trkpt>
      <trkpt lat="45.98784" lon="6.82574">
        <ele>2060</ele>
        <time>2022-07-21T12:09:23Z</time>
      </trkpt>
      <trkpt lat="45.98779" lon="6.82565">
        <ele>2061</ele>
        <time>2022-07-21T12:09:33Z</time>
      </trkpt>
      <trkpt lat="45.98774" lon="6.8255">
        <ele>2061</ele>
        <time>2022-07-21T12:09:46Z</time>
      </trkpt>
      <trkpt lat="45.98769" lon="6.82543">
        <ele>2060</ele>
        <time>2022-07-21T12:09:53Z</time>
      </trkpt>
      <trkpt lat="45.98768" lon="6.82535">
        <ele>2059</ele>
        <time>2022-07-21T12:10:00Z</time>
      </trkpt>
      <trkpt lat="45.98766" lon="6.82529">
        <ele>2059</ele>
        <time>2022-07-21T12:10:04Z</time>
      </trkpt>
      <trkpt lat="45.98758" lon="6.82522">
        <ele>2059</ele>
        <time>2022-07-21T12:10:12Z</time>
      </trkpt>
      <trkpt lat="45.98753" lon="6.82517">
        <ele>2059</ele>
        <time>2022-07-21T12:10:19Z</time>
      </trkpt>
      <trkpt lat="45.98747" lon="6.82498">
        <ele>2059</ele>
        <time>2022-07-21T12:10:38Z</time>
      </trkpt>
      <trkpt lat="45.98741" lon="6.82494">
        <ele>2059</ele>
        <time>2022-07-21T12:10:48Z</time>
      </trkpt>
      <trkpt lat="45.98719" lon="6.82482">
        <ele>2063</ele>
        <time>2022-07-21T12:11:21Z</time>
      </trkpt>
      <trkpt lat="45.98696" lon="6.82476">
        <ele>2067</ele>
        <time>2022-07-21T12:11:56Z</time>
      </trkpt>
      <trkpt lat="45.98682" lon="6.82473">
        <ele>2070</ele>
        <time>2022-07-21T12:12:17Z</time>
      </trkpt>
      <trkpt lat="45.98677" lon="6.82472">
        <ele>2070</ele>
        <time>2022-07-21T12:12:27Z</time>
      </trkpt>
      <trkpt lat="45.98671" lon="6.82464">
        <ele>2071</ele>
        <time>2022-07-21T12:12:37Z</time>
      </trkpt>
      <trkpt lat="45.98667" lon="6.82462">
        <ele>2071</ele>
        <time>2022-07-21T12:12:42Z</time>
      </trkpt>
      <trkpt lat="45.98662" lon="6.82461">
        <ele>2070</ele>
        <time>2022-07-21T12:12:46Z</time>
      </trkpt>
      <trkpt lat="45.98653" lon="6.82456">
        <ele>2073</ele>
        <time>2022-07-21T12:13:05Z</time>
      </trkpt>
      <trkpt lat="45.98636" lon="6.82448">
        <ele>2075</ele>
        <time>2022-07-21T12:13:28Z</time>
      </trkpt>
      <trkpt lat="45.98633" lon="6.82444">
        <ele>2076</ele>
        <time>2022-07-21T12:13:34Z</time>
      </trkpt>
      <trkpt lat="45.98626" lon="6.82436">
        <ele>2076</ele>
        <time>2022-07-21T12:13:44Z</time>
      </trkpt>
      <trkpt lat="45.98621" lon="6.82434">
        <ele>2075</ele>
        <time>2022-07-21T12:13:48Z</time>
      </trkpt>
      <trkpt lat="45.98612" lon="6.82432">
        <ele>2076</ele>
        <time>2022-07-21T12:13:58Z</time>
      </trkpt>
      <trkpt lat="45.98607" lon="6.82432">
        <ele>2076</ele>
        <time>2022-07-21T12:14:03Z</time>
      </trkpt>
      <trkpt lat="45.986" lon="6.82422">
        <ele>2076</ele>
        <time>2022-07-21T12:14:15Z</time>
      </trkpt>
      <trkpt lat="45.98595" lon="6.82419">
        <ele>2076</ele>
        <time>2022-07-21T12:14:19Z</time>
      </trkpt>
      <trkpt lat="45.98591" lon="6.82417">
        <ele>2077</ele>
        <time>2022-07-21T12:14:26Z</time>
      </trkpt>
      <trkpt lat="45.98583" lon="6.8242">
        <ele>2079</ele>
        <time>2022-07-21T12:14:36Z</time>
      </trkpt>
      <trkpt lat="45.98576" lon="6.82421">
        <ele>2079</ele>
        <time>2022-07-21T12:14:45Z</time>
      </trkpt>
      <trkpt lat="45.98564" lon="6.8241">
        <ele>2081</ele>
        <time>2022-07-21T12:15:03Z</time>
      </trkpt>
      <trkpt lat="45.98556" lon="6.82406">
        <ele>2082</ele>
        <time>2022-07-21T12:15:13Z</time>
      </trkpt>
      <trkpt lat="45.98526" lon="6.82388">
        <ele>2086</ele>
        <time>2022-07-21T12:15:54Z</time>
      </trkpt>
      <trkpt lat="45.98517" lon="6.82384">
        <ele>2087</ele>
        <time>2022-07-21T12:16:04Z</time>
      </trkpt>
      <trkpt lat="45.98511" lon="6.82383">
        <ele>2087</ele>
        <time>2022-07-21T12:16:11Z</time>
      </trkpt>
      <trkpt lat="45.98501" lon="6.82373">
        <ele>2087</ele>
        <time>2022-07-21T12:16:23Z</time>
      </trkpt>
      <trkpt lat="45.98484" lon="6.8235">
        <ele>2091</ele>
        <time>2022-07-21T12:16:54Z</time>
      </trkpt>
      <trkpt lat="45.9848" lon="6.82346">
        <ele>2092</ele>
        <time>2022-07-21T12:17:01Z</time>
      </trkpt>
      <trkpt lat="45.98476" lon="6.82343">
        <ele>2092</ele>
        <time>2022-07-21T12:17:06Z</time>
      </trkpt>
      <trkpt lat="45.9847" lon="6.82338">
        <ele>2092</ele>
        <time>2022-07-21T12:17:13Z</time>
      </trkpt>
      <trkpt lat="45.98457" lon="6.82331">
        <ele>2091</ele>
        <time>2022-07-21T12:17:25Z</time>
      </trkpt>
      <trkpt lat="45.9845" lon="6.82323">
        <ele>2091</ele>
        <time>2022-07-21T12:17:33Z</time>
      </trkpt>
      <trkpt lat="45.98439" lon="6.82312">
        <ele>2091</ele>
        <time>2022-07-21T12:17:45Z</time>
      </trkpt>
      <trkpt lat="45.98435" lon="6.8231">
        <ele>2091</ele>
        <time>2022-07-21T12:17:49Z</time>
      </trkpt>
      <trkpt lat="45.9843" lon="6.82305">
        <ele>2091</ele>
        <time>2022-07-21T12:17:55Z</time>
      </trkpt>
      <trkpt lat="45.98421" lon="6.82295">
        <ele>2092</ele>
        <time>2022-07-21T12:18:08Z</time>
      </trkpt>
      <trkpt lat="45.98419" lon="6.82291">
        <ele>2092</ele>
        <time>2022-07-21T12:18:12Z</time>
      </trkpt>
      <trkpt lat="45.98407" lon="6.82278">
        <ele>2094</ele>
        <time>2022-07-21T12:18:29Z</time>
      </trkpt>
      <trkpt lat="45.98402" lon="6.82278">
        <ele>2094</ele>
        <time>2022-07-21T12:18:36Z</time>
      </trkpt>
      <trkpt lat="45.98398" lon="6.82276">
        <ele>2095</ele>
        <time>2022-07-21T12:18:41Z</time>
      </trkpt>
      <trkpt lat="45.98389" lon="6.82266">
        <ele>2094</ele>
        <time>2022-07-21T12:18:52Z</time>
      </trkpt>
      <trkpt lat="45.98385" lon="6.82255">
        <ele>2095</ele>
        <time>2022-07-21T12:19:02Z</time>
      </trkpt>
      <trkpt lat="45.9838" lon="6.82247">
        <ele>2096</ele>
        <time>2022-07-21T12:19:12Z</time>
      </trkpt>
      <trkpt lat="45.98376" lon="6.82244">
        <ele>2096</ele>
        <time>2022-07-21T12:19:17Z</time>
      </trkpt>
      <trkpt lat="45.98376" lon="6.82231">
        <ele>2096</ele>
        <time>2022-07-21T12:19:27Z</time>
      </trkpt>
      <trkpt lat="45.98374" lon="6.82226">
        <ele>2096</ele>
        <time>2022-07-21T12:19:31Z</time>
      </trkpt>
      <trkpt lat="45.98373" lon="6.82206">
        <ele>2097</ele>
        <time>2022-07-21T12:19:47Z</time>
      </trkpt>
      <trkpt lat="45.98375" lon="6.82196">
        <ele>2098</ele>
        <time>2022-07-21T12:19:57Z</time>
      </trkpt>
      <trkpt lat="45.98375" lon="6.82184">
        <ele>2100</ele>
        <time>2022-07-21T12:20:07Z</time>
      </trkpt>
      <trkpt lat="45.98374" lon="6.82171">
        <ele>2099</ele>
        <time>2022-07-21T12:20:16Z</time>
      </trkpt>
      <trkpt lat="45.9837" lon="6.82165">
        <ele>2098</ele>
        <time>2022-07-21T12:20:21Z</time>
      </trkpt>
      <trkpt lat="45.98359" lon="6.8215">
        <ele>2098</ele>
        <time>2022-07-21T12:20:35Z</time>
      </trkpt>
      <trkpt lat="45.98349" lon="6.82144">
        <ele>2097</ele>
        <time>2022-07-21T12:20:46Z</time>
      </trkpt>
      <trkpt lat="45.98341" lon="6.82133">
        <ele>2097</ele>
        <time>2022-07-21T12:20:56Z</time>
      </trkpt>
      <trkpt lat="45.98337" lon="6.82117">
        <ele>2097</ele>
        <time>2022-07-21T12:21:09Z</time>
      </trkpt>
      <trkpt lat="45.98337" lon="6.8211">
        <ele>2097</ele>
        <time>2022-07-21T12:21:14Z</time>
      </trkpt>
      <trkpt lat="45.98325" lon="6.82073">
        <ele>2098</ele>
        <time>2022-07-21T12:21:43Z</time>
      </trkpt>
      <trkpt lat="45.98317" lon="6.82062">
        <ele>2098</ele>
        <time>2022-07-21T12:21:53Z</time>
      </trkpt>
      <trkpt lat="45.98312" lon="6.82055">
        <ele>2098</ele>
        <time>2022-07-21T12:22:00Z</time>
      </trkpt>
      <trkpt lat="45.9831" lon="6.8205">
        <ele>2097</ele>
        <time>2022-07-21T12:22:04Z</time>
      </trkpt>
      <trkpt lat="45.98303" lon="6.82035">
        <ele>2097</ele>
        <time>2022-07-21T12:22:18Z</time>
      </trkpt>
      <trkpt lat="45.98301" lon="6.82029">
        <ele>2097</ele>
        <time>2022-07-21T12:22:24Z</time>
      </trkpt>
      <trkpt lat="45.98294" lon="6.82017">
        <ele>2097</ele>
        <time>2022-07-21T12:22:42Z</time>
      </trkpt>
      <trkpt lat="45.98293" lon="6.8201">
        <ele>2098</ele>
        <time>2022-07-21T12:23:18Z</time>
      </trkpt>
      <trkpt lat="45.9829" lon="6.82005">
        <ele>2098</ele>
        <time>2022-07-21T12:23:22Z</time>
      </trkpt>
      <trkpt lat="45.98283" lon="6.81992">
        <ele>2099</ele>
        <time>2022-07-21T12:23:34Z</time>
      </trkpt>
      <trkpt lat="45.98279" lon="6.81989">
        <ele>2098</ele>
        <time>2022-07-21T12:23:38Z</time>
      </trkpt>
      <trkpt lat="45.98275" lon="6.81986">
        <ele>2098</ele>
        <time>2022-07-21T12:23:46Z</time>
      </trkpt>
      <trkpt lat="45.98267" lon="6.81982">
        <ele>2099</ele>
        <time>2022-07-21T12:23:56Z</time>
      </trkpt>
      <trkpt lat="45.98256" lon="6.81973">
        <ele>2100</ele>
        <time>2022-07-21T12:24:11Z</time>
      </trkpt>
      <trkpt lat="45.98243" lon="6.81951">
        <ele>2102</ele>
        <time>2022-07-21T12:24:35Z</time>
      </trkpt>
      <trkpt lat="45.9824" lon="6.81945">
        <ele>2103</ele>
        <time>2022-07-21T12:24:43Z</time>
      </trkpt>
      <trkpt lat="45.98231" lon="6.81934">
        <ele>2104</ele>
        <time>2022-07-21T12:25:04Z</time>
      </trkpt>
      <trkpt lat="45.98227" lon="6.81926">
        <ele>2105</ele>
        <time>2022-07-21T12:25:19Z</time>
      </trkpt>
      <trkpt lat="45.98223" lon="6.81916">
        <ele>2106</ele>
        <time>2022-07-21T12:25:29Z</time>
      </trkpt>
      <trkpt lat="45.98222" lon="6.81907">
        <ele>2107</ele>
        <time>2022-07-21T12:25:39Z</time>
      </trkpt>
      <trkpt lat="45.98218" lon="6.81903">
        <ele>2107</ele>
        <time>2022-07-21T12:25:45Z</time>
      </trkpt>
      <trkpt lat="45.98214" lon="6.81894">
        <ele>2108</ele>
        <time>2022-07-21T12:25:55Z</time>
      </trkpt>
      <trkpt lat="45.98211" lon="6.81887">
        <ele>2109</ele>
        <time>2022-07-21T12:26:05Z</time>
      </trkpt>
      <trkpt lat="45.98204" lon="6.81885">
        <ele>2110</ele>
        <time>2022-07-21T12:26:15Z</time>
      </trkpt>
      <trkpt lat="45.982" lon="6.81876">
        <ele>2111</ele>
        <time>2022-07-21T12:26:25Z</time>
      </trkpt>
      <trkpt lat="45.98196" lon="6.81873">
        <ele>2111</ele>
        <time>2022-07-21T12:26:36Z</time>
      </trkpt>
      <trkpt lat="45.98193" lon="6.81863">
        <ele>2113</ele>
        <time>2022-07-21T12:26:58Z</time>
      </trkpt>
      <trkpt lat="45.98182" lon="6.81846">
        <ele>2116</ele>
        <time>2022-07-21T12:27:28Z</time>
      </trkpt>
      <trkpt lat="45.98168" lon="6.81833">
        <ele>2121</ele>
        <time>2022-07-21T12:28:08Z</time>
      </trkpt>
      <trkpt lat="45.98156" lon="6.81822">
        <ele>2126</ele>
        <time>2022-07-21T12:28:51Z</time>
      </trkpt>
      <trkpt lat="45.9815" lon="6.81813">
        <ele>2129</ele>
        <time>2022-07-21T12:29:16Z</time>
      </trkpt>
      <trkpt lat="45.98146" lon="6.81807">
        <ele>2131</ele>
        <time>2022-07-21T12:29:31Z</time>
      </trkpt>
      <trkpt lat="45.98141" lon="6.81805">
        <ele>2133</ele>
        <time>2022-07-21T12:29:41Z</time>
      </trkpt>
      <trkpt lat="45.98134" lon="6.81799">
        <ele>2134</ele>
        <time>2022-07-21T12:30:43Z</time>
      </trkpt>
      <trkpt lat="45.98111" lon="6.81791">
        <ele>2140</ele>
        <time>2022-07-21T12:31:22Z</time>
      </trkpt>
      <trkpt lat="45.98102" lon="6.81784">
        <ele>2142</ele>
        <time>2022-07-21T12:31:42Z</time>
      </trkpt>
      <trkpt lat="45.98098" lon="6.81779">
        <ele>2143</ele>
        <time>2022-07-21T12:31:52Z</time>
      </trkpt>
      <trkpt lat="45.98087" lon="6.8177">
        <ele>2145</ele>
        <time>2022-07-21T12:32:12Z</time>
      </trkpt>
      <trkpt lat="45.98081" lon="6.81762">
        <ele>2146</ele>
        <time>2022-07-21T12:32:22Z</time>
      </trkpt>
      <trkpt lat="45.98073" lon="6.81752">
        <ele>2146</ele>
        <time>2022-07-21T12:32:34Z</time>
      </trkpt>
      <trkpt lat="45.98067" lon="6.81745">
        <ele>2147</ele>
        <time>2022-07-21T12:32:45Z</time>
      </trkpt>
      <trkpt lat="45.98064" lon="6.8174">
        <ele>2147</ele>
        <time>2022-07-21T12:32:50Z</time>
      </trkpt>
      <trkpt lat="45.98051" lon="6.81721">
        <ele>2150</ele>
        <time>2022-07-21T12:33:18Z</time>
      </trkpt>
      <trkpt lat="45.98036" lon="6.81711">
        <ele>2152</ele>
        <time>2022-07-21T12:33:37Z</time>
      </trkpt>
      <trkpt lat="45.98031" lon="6.81709">
        <ele>2152</ele>
        <time>2022-07-21T12:33:44Z</time>
      </trkpt>
      <trkpt lat="45.98028" lon="6.81702">
        <ele>2153</ele>
        <time>2022-07-21T12:33:54Z</time>
      </trkpt>
      <trkpt lat="45.98025" lon="6.81684">
        <ele>2156</ele>
        <time>2022-07-21T12:34:14Z</time>
      </trkpt>
      <trkpt lat="45.98022" lon="6.81676">
        <ele>2157</ele>
        <time>2022-07-21T12:34:24Z</time>
      </trkpt>
      <trkpt lat="45.98021" lon="6.81669">
        <ele>2158</ele>
        <time>2022-07-21T12:34:34Z</time>
      </trkpt>
      <trkpt lat="45.98015" lon="6.81664">
        <ele>2159</ele>
        <time>2022-07-21T12:34:44Z</time>
      </trkpt>
      <trkpt lat="45.98011" lon="6.81659">
        <ele>2159</ele>
        <time>2022-07-21T12:34:49Z</time>
      </trkpt>
      <trkpt lat="45.98007" lon="6.81657">
        <ele>2159</ele>
        <time>2022-07-21T12:34:53Z</time>
      </trkpt>
      <trkpt lat="45.98003" lon="6.81654">
        <ele>2159</ele>
        <time>2022-07-21T12:34:57Z</time>
      </trkpt>
      <trkpt lat="45.97998" lon="6.81653">
        <ele>2159</ele>
        <time>2022-07-21T12:35:02Z</time>
      </trkpt>
      <trkpt lat="45.97983" lon="6.81641">
        <ele>2159</ele>
        <time>2022-07-21T12:35:19Z</time>
      </trkpt>
      <trkpt lat="45.97978" lon="6.81637">
        <ele>2158</ele>
        <time>2022-07-21T12:35:25Z</time>
      </trkpt>
      <trkpt lat="45.97959" lon="6.8163">
        <ele>2156</ele>
        <time>2022-07-21T12:35:45Z</time>
      </trkpt>
      <trkpt lat="45.97951" lon="6.81618">
        <ele>2156</ele>
        <time>2022-07-21T12:35:57Z</time>
      </trkpt>
      <trkpt lat="45.97947" lon="6.81614">
        <ele>2156</ele>
        <time>2022-07-21T12:36:02Z</time>
      </trkpt>
      <trkpt lat="45.97943" lon="6.81606">
        <ele>2157</ele>
        <time>2022-07-21T12:36:12Z</time>
      </trkpt>
      <trkpt lat="45.97936" lon="6.81597">
        <ele>2158</ele>
        <time>2022-07-21T12:36:22Z</time>
      </trkpt>
      <trkpt lat="45.97931" lon="6.81582">
        <ele>2159</ele>
        <time>2022-07-21T12:36:35Z</time>
      </trkpt>
      <trkpt lat="45.97922" lon="6.8157">
        <ele>2160</ele>
        <time>2022-07-21T12:36:47Z</time>
      </trkpt>
      <trkpt lat="45.97914" lon="6.81563">
        <ele>2159</ele>
        <time>2022-07-21T12:36:56Z</time>
      </trkpt>
      <trkpt lat="45.97912" lon="6.81557">
        <ele>2160</ele>
        <time>2022-07-21T12:37:00Z</time>
      </trkpt>
      <trkpt lat="45.97908" lon="6.81549">
        <ele>2158</ele>
        <time>2022-07-21T12:37:08Z</time>
      </trkpt>
      <trkpt lat="45.97903" lon="6.81548">
        <ele>2158</ele>
        <time>2022-07-21T12:37:12Z</time>
      </trkpt>
      <trkpt lat="45.97899" lon="6.81546">
        <ele>2158</ele>
        <time>2022-07-21T12:37:17Z</time>
      </trkpt>
      <trkpt lat="45.97894" lon="6.81541">
        <ele>2158</ele>
        <time>2022-07-21T12:37:24Z</time>
      </trkpt>
      <trkpt lat="45.9789" lon="6.81529">
        <ele>2156</ele>
        <time>2022-07-21T12:37:34Z</time>
      </trkpt>
      <trkpt lat="45.97886" lon="6.81516">
        <ele>2156</ele>
        <time>2022-07-21T12:37:44Z</time>
      </trkpt>
      <trkpt lat="45.97885" lon="6.81509">
        <ele>2155</ele>
        <time>2022-07-21T12:37:51Z</time>
      </trkpt>
      <trkpt lat="45.97882" lon="6.815">
        <ele>2153</ele>
        <time>2022-07-21T12:38:01Z</time>
      </trkpt>
      <trkpt lat="45.97878" lon="6.81493">
        <ele>2152</ele>
        <time>2022-07-21T12:38:08Z</time>
      </trkpt>
      <trkpt lat="45.97873" lon="6.81493">
        <ele>2152</ele>
        <time>2022-07-21T12:38:18Z</time>
      </trkpt>
      <trkpt lat="45.97862" lon="6.8149">
        <ele>2155</ele>
        <time>2022-07-21T12:38:38Z</time>
      </trkpt>
      <trkpt lat="45.97858" lon="6.81487">
        <ele>2156</ele>
        <time>2022-07-21T12:38:48Z</time>
      </trkpt>
      <trkpt lat="45.97855" lon="6.81482">
        <ele>2157</ele>
        <time>2022-07-21T12:38:53Z</time>
      </trkpt>
      <trkpt lat="45.97839" lon="6.81462">
        <ele>2158</ele>
        <time>2022-07-21T12:39:16Z</time>
      </trkpt>
      <trkpt lat="45.97835" lon="6.81458">
        <ele>2158</ele>
        <time>2022-07-21T12:39:21Z</time>
      </trkpt>
      <trkpt lat="45.97821" lon="6.81451">
        <ele>2157</ele>
        <time>2022-07-21T12:39:37Z</time>
      </trkpt>
      <trkpt lat="45.97809" lon="6.8144">
        <ele>2155</ele>
        <time>2022-07-21T12:39:52Z</time>
      </trkpt>
      <trkpt lat="45.97799" lon="6.81425">
        <ele>2153</ele>
        <time>2022-07-21T12:40:08Z</time>
      </trkpt>
      <trkpt lat="45.97795" lon="6.81422">
        <ele>2152</ele>
        <time>2022-07-21T12:40:12Z</time>
      </trkpt>
      <trkpt lat="45.97789" lon="6.81414">
        <ele>2150</ele>
        <time>2022-07-21T12:40:24Z</time>
      </trkpt>
      <trkpt lat="45.97783" lon="6.81406">
        <ele>2148</ele>
        <time>2022-07-21T12:40:33Z</time>
      </trkpt>
      <trkpt lat="45.97778" lon="6.81407">
        <ele>2148</ele>
        <time>2022-07-21T12:40:38Z</time>
      </trkpt>
      <trkpt lat="45.97773" lon="6.81403">
        <ele>2149</ele>
        <time>2022-07-21T12:40:45Z</time>
      </trkpt>
      <trkpt lat="45.97769" lon="6.81397">
        <ele>2149</ele>
        <time>2022-07-21T12:40:52Z</time>
      </trkpt>
      <trkpt lat="45.9776" lon="6.8139">
        <ele>2149</ele>
        <time>2022-07-21T12:41:01Z</time>
      </trkpt>
      <trkpt lat="45.97756" lon="6.81389">
        <ele>2149</ele>
        <time>2022-07-21T12:41:05Z</time>
      </trkpt>
      <trkpt lat="45.97751" lon="6.81384">
        <ele>2149</ele>
        <time>2022-07-21T12:41:11Z</time>
      </trkpt>
      <trkpt lat="45.97744" lon="6.81376">
        <ele>2148</ele>
        <time>2022-07-21T12:41:21Z</time>
      </trkpt>
      <trkpt lat="45.97739" lon="6.81375">
        <ele>2148</ele>
        <time>2022-07-21T12:41:25Z</time>
      </trkpt>
      <trkpt lat="45.97734" lon="6.81368">
        <ele>2149</ele>
        <time>2022-07-21T12:41:32Z</time>
      </trkpt>
      <trkpt lat="45.97731" lon="6.81357">
        <ele>2149</ele>
        <time>2022-07-21T12:41:43Z</time>
      </trkpt>
      <trkpt lat="45.97729" lon="6.81351">
        <ele>2148</ele>
        <time>2022-07-21T12:41:48Z</time>
      </trkpt>
      <trkpt lat="45.97723" lon="6.81338">
        <ele>2149</ele>
        <time>2022-07-21T12:42:02Z</time>
      </trkpt>
      <trkpt lat="45.97718" lon="6.8133">
        <ele>2148</ele>
        <time>2022-07-21T12:42:13Z</time>
      </trkpt>
      <trkpt lat="45.97707" lon="6.81294">
        <ele>2143</ele>
        <time>2022-07-21T12:42:43Z</time>
      </trkpt>
      <trkpt lat="45.97699" lon="6.81266">
        <ele>2141</ele>
        <time>2022-07-21T12:43:04Z</time>
      </trkpt>
      <trkpt lat="45.97697" lon="6.8126">
        <ele>2141</ele>
        <time>2022-07-21T12:43:09Z</time>
      </trkpt>
      <trkpt lat="45.97694" lon="6.81254">
        <ele>2141</ele>
        <time>2022-07-21T12:43:14Z</time>
      </trkpt>
      <trkpt lat="45.97694" lon="6.81245">
        <ele>2141</ele>
        <time>2022-07-21T12:43:21Z</time>
      </trkpt>
      <trkpt lat="45.97695" lon="6.81238">
        <ele>2139</ele>
        <time>2022-07-21T12:43:26Z</time>
      </trkpt>
      <trkpt lat="45.97697" lon="6.81231">
        <ele>2139</ele>
        <time>2022-07-21T12:43:31Z</time>
      </trkpt>
      <trkpt lat="45.977" lon="6.81195">
        <ele>2133</ele>
        <time>2022-07-21T12:43:58Z</time>
      </trkpt>
      <trkpt lat="45.977" lon="6.81188">
        <ele>2132</ele>
        <time>2022-07-21T12:44:03Z</time>
      </trkpt>
      <trkpt lat="45.97701" lon="6.81179">
        <ele>2130</ele>
        <time>2022-07-21T12:44:09Z</time>
      </trkpt>
      <trkpt lat="45.977" lon="6.81171">
        <ele>2131</ele>
        <time>2022-07-21T12:44:15Z</time>
      </trkpt>
      <trkpt lat="45.977" lon="6.81164">
        <ele>2130</ele>
        <time>2022-07-21T12:44:20Z</time>
      </trkpt>
      <trkpt lat="45.97703" lon="6.81157">
        <ele>2128</ele>
        <time>2022-07-21T12:44:27Z</time>
      </trkpt>
      <trkpt lat="45.97705" lon="6.81129">
        <ele>2123</ele>
        <time>2022-07-21T12:44:51Z</time>
      </trkpt>
      <trkpt lat="45.97703" lon="6.81124">
        <ele>2123</ele>
        <time>2022-07-21T12:44:54Z</time>
      </trkpt>
      <trkpt lat="45.97701" lon="6.81115">
        <ele>2123</ele>
        <time>2022-07-21T12:45:02Z</time>
      </trkpt>
      <trkpt lat="45.97702" lon="6.81104">
        <ele>2123</ele>
        <time>2022-07-21T12:45:10Z</time>
      </trkpt>
      <trkpt lat="45.97702" lon="6.81098">
        <ele>2123</ele>
        <time>2022-07-21T12:45:17Z</time>
      </trkpt>
      <trkpt lat="45.97702" lon="6.81088">
        <ele>2122</ele>
        <time>2022-07-21T12:46:19Z</time>
      </trkpt>
      <trkpt lat="45.97701" lon="6.81078">
        <ele>2120</ele>
        <time>2022-07-21T12:46:29Z</time>
      </trkpt>
      <trkpt lat="45.97697" lon="6.8107">
        <ele>2119</ele>
        <time>2022-07-21T12:46:38Z</time>
      </trkpt>
      <trkpt lat="45.97693" lon="6.81064">
        <ele>2118</ele>
        <time>2022-07-21T12:46:46Z</time>
      </trkpt>
      <trkpt lat="45.97691" lon="6.81055">
        <ele>2117</ele>
        <time>2022-07-21T12:46:56Z</time>
      </trkpt>
      <trkpt lat="45.97687" lon="6.81048">
        <ele>2115</ele>
        <time>2022-07-21T12:47:06Z</time>
      </trkpt>
      <trkpt lat="45.97684" lon="6.81043">
        <ele>2113</ele>
        <time>2022-07-21T12:47:11Z</time>
      </trkpt>
      <trkpt lat="45.97682" lon="6.81033">
        <ele>2112</ele>
        <time>2022-07-21T12:47:21Z</time>
      </trkpt>
      <trkpt lat="45.97677" lon="6.81025">
        <ele>2110</ele>
        <time>2022-07-21T12:47:32Z</time>
      </trkpt>
      <trkpt lat="45.97674" lon="6.80996">
        <ele>2104</ele>
        <time>2022-07-21T12:48:00Z</time>
      </trkpt>
      <trkpt lat="45.97674" lon="6.80985">
        <ele>2102</ele>
        <time>2022-07-21T12:48:12Z</time>
      </trkpt>
      <trkpt lat="45.97672" lon="6.80977">
        <ele>2100</ele>
        <time>2022-07-21T12:48:22Z</time>
      </trkpt>
      <trkpt lat="45.97669" lon="6.80969">
        <ele>2097</ele>
        <time>2022-07-21T12:48:32Z</time>
      </trkpt>
      <trkpt lat="45.97664" lon="6.80962">
        <ele>2095</ele>
        <time>2022-07-21T12:48:42Z</time>
      </trkpt>
      <trkpt lat="45.9766" lon="6.80953">
        <ele>2092</ele>
        <time>2022-07-21T12:48:53Z</time>
      </trkpt>
      <trkpt lat="45.97649" lon="6.80929">
        <ele>2086</ele>
        <time>2022-07-21T12:49:21Z</time>
      </trkpt>
      <trkpt lat="45.97644" lon="6.8091">
        <ele>2081</ele>
        <time>2022-07-21T12:49:44Z</time>
      </trkpt>
      <trkpt lat="45.97639" lon="6.80903">
        <ele>2077</ele>
        <time>2022-07-21T12:49:55Z</time>
      </trkpt>
      <trkpt lat="45.97637" lon="6.80894">
        <ele>2075</ele>
        <time>2022-07-21T12:50:05Z</time>
      </trkpt>
      <trkpt lat="45.97634" lon="6.80885">
        <ele>2073</ele>
        <time>2022-07-21T12:50:15Z</time>
      </trkpt>
      <trkpt lat="45.97622" lon="6.80853">
        <ele>2066</ele>
        <time>2022-07-21T12:50:48Z</time>
      </trkpt>
      <trkpt lat="45.97621" lon="6.80847">
        <ele>2065</ele>
        <time>2022-07-21T12:50:53Z</time>
      </trkpt>
      <trkpt lat="45.97612" lon="6.80836">
        <ele>2061</ele>
        <time>2022-07-21T12:51:10Z</time>
      </trkpt>
      <trkpt lat="45.97612" lon="6.80829">
        <ele>2060</ele>
        <time>2022-07-21T12:51:15Z</time>
      </trkpt>
      <trkpt lat="45.97609" lon="6.80813">
        <ele>2057</ele>
        <time>2022-07-21T12:51:32Z</time>
      </trkpt>
      <trkpt lat="45.97605" lon="6.80804">
        <ele>2054</ele>
        <time>2022-07-21T12:51:44Z</time>
      </trkpt>
      <trkpt lat="45.97603" lon="6.80794">
        <ele>2051</ele>
        <time>2022-07-21T12:51:56Z</time>
      </trkpt>
      <trkpt lat="45.97599" lon="6.80788">
        <ele>2048</ele>
        <time>2022-07-21T12:52:06Z</time>
      </trkpt>
      <trkpt lat="45.97601" lon="6.80777">
        <ele>2046</ele>
        <time>2022-07-21T12:52:16Z</time>
      </trkpt>
      <trkpt lat="45.97601" lon="6.80766">
        <ele>2044</ele>
        <time>2022-07-21T12:52:26Z</time>
      </trkpt>
      <trkpt lat="45.97591" lon="6.80742">
        <ele>2038</ele>
        <time>2022-07-21T12:52:53Z</time>
      </trkpt>
      <trkpt lat="45.97595" lon="6.80733">
        <ele>2036</ele>
        <time>2022-07-21T12:53:03Z</time>
      </trkpt>
      <trkpt lat="45.97588" lon="6.80709">
        <ele>2032</ele>
        <time>2022-07-21T12:53:25Z</time>
      </trkpt>
      <trkpt lat="45.97587" lon="6.80692">
        <ele>2029</ele>
        <time>2022-07-21T12:53:40Z</time>
      </trkpt>
      <trkpt lat="45.97589" lon="6.80685">
        <ele>2027</ele>
        <time>2022-07-21T12:53:46Z</time>
      </trkpt>
      <trkpt lat="45.97583" lon="6.80669">
        <ele>2026</ele>
        <time>2022-07-21T12:53:58Z</time>
      </trkpt>
      <trkpt lat="45.97581" lon="6.80659">
        <ele>2025</ele>
        <time>2022-07-21T12:54:07Z</time>
      </trkpt>
      <trkpt lat="45.97579" lon="6.80643">
        <ele>2023</ele>
        <time>2022-07-21T12:54:22Z</time>
      </trkpt>
      <trkpt lat="45.97582" lon="6.80631">
        <ele>2021</ele>
        <time>2022-07-21T12:54:32Z</time>
      </trkpt>
      <trkpt lat="45.97584" lon="6.80626">
        <ele>2020</ele>
        <time>2022-07-21T12:54:36Z</time>
      </trkpt>
      <trkpt lat="45.97584" lon="6.80617">
        <ele>2020</ele>
        <time>2022-07-21T12:54:43Z</time>
      </trkpt>
      <trkpt lat="45.97585" lon="6.80611">
        <ele>2019</ele>
        <time>2022-07-21T12:54:50Z</time>
      </trkpt>
      <trkpt lat="45.97582" lon="6.80605">
        <ele>2018</ele>
        <time>2022-07-21T12:54:55Z</time>
      </trkpt>
      <trkpt lat="45.97577" lon="6.80602">
        <ele>2018</ele>
        <time>2022-07-21T12:55:01Z</time>
      </trkpt>
      <trkpt lat="45.97572" lon="6.80596">
        <ele>2018</ele>
        <time>2022-07-21T12:55:07Z</time>
      </trkpt>
      <trkpt lat="45.97573" lon="6.80587">
        <ele>2017</ele>
        <time>2022-07-21T12:55:15Z</time>
      </trkpt>
      <trkpt lat="45.97569" lon="6.80583">
        <ele>2016</ele>
        <time>2022-07-21T12:55:19Z</time>
      </trkpt>
      <trkpt lat="45.9756" lon="6.80576">
        <ele>2016</ele>
        <time>2022-07-21T12:55:27Z</time>
      </trkpt>
      <trkpt lat="45.97555" lon="6.8057">
        <ele>2015</ele>
        <time>2022-07-21T12:55:36Z</time>
      </trkpt>
      <trkpt lat="45.97543" lon="6.80532">
        <ele>2008</ele>
        <time>2022-07-21T12:56:15Z</time>
      </trkpt>
      <trkpt lat="45.97542" lon="6.80497">
        <ele>2003</ele>
        <time>2022-07-21T12:56:41Z</time>
      </trkpt>
      <trkpt lat="45.97543" lon="6.80491">
        <ele>2003</ele>
        <time>2022-07-21T12:56:46Z</time>
      </trkpt>
      <trkpt lat="45.97541" lon="6.80483">
        <ele>2002</ele>
        <time>2022-07-21T12:56:53Z</time>
      </trkpt>
      <trkpt lat="45.97537" lon="6.80474">
        <ele>2000</ele>
        <time>2022-07-21T12:57:03Z</time>
      </trkpt>
      <trkpt lat="45.97535" lon="6.80461">
        <ele>1998</ele>
        <time>2022-07-21T12:57:12Z</time>
      </trkpt>
      <trkpt lat="45.9753" lon="6.80458">
        <ele>1998</ele>
        <time>2022-07-21T12:57:17Z</time>
      </trkpt>
      <trkpt lat="45.97525" lon="6.80446">
        <ele>1996</ele>
        <time>2022-07-21T12:57:29Z</time>
      </trkpt>
      <trkpt lat="45.97525" lon="6.80424">
        <ele>1992</ele>
        <time>2022-07-21T12:57:46Z</time>
      </trkpt>
      <trkpt lat="45.9753" lon="6.80416">
        <ele>1990</ele>
        <time>2022-07-21T12:57:53Z</time>
      </trkpt>
      <trkpt lat="45.97535" lon="6.80403">
        <ele>1989</ele>
        <time>2022-07-21T12:58:03Z</time>
      </trkpt>
      <trkpt lat="45.97531" lon="6.80398">
        <ele>1989</ele>
        <time>2022-07-21T12:58:08Z</time>
      </trkpt>
      <trkpt lat="45.97523" lon="6.80393">
        <ele>1989</ele>
        <time>2022-07-21T12:58:15Z</time>
      </trkpt>
      <trkpt lat="45.97519" lon="6.80388">
        <ele>1990</ele>
        <time>2022-07-21T12:58:22Z</time>
      </trkpt>
      <trkpt lat="45.97515" lon="6.8038">
        <ele>1991</ele>
        <time>2022-07-21T12:58:32Z</time>
      </trkpt>
      <trkpt lat="45.97515" lon="6.80369">
        <ele>1991</ele>
        <time>2022-07-21T12:58:42Z</time>
      </trkpt>
      <trkpt lat="45.97515" lon="6.80354">
        <ele>1991</ele>
        <time>2022-07-21T12:58:52Z</time>
      </trkpt>
      <trkpt lat="45.97518" lon="6.80345">
        <ele>1991</ele>
        <time>2022-07-21T12:58:59Z</time>
      </trkpt>
      <trkpt lat="45.97519" lon="6.80337">
        <ele>1991</ele>
        <time>2022-07-21T12:59:05Z</time>
      </trkpt>
      <trkpt lat="45.9752" lon="6.80331">
        <ele>1991</ele>
        <time>2022-07-21T12:59:09Z</time>
      </trkpt>
      <trkpt lat="45.97524" lon="6.80319">
        <ele>1990</ele>
        <time>2022-07-21T12:59:18Z</time>
      </trkpt>
      <trkpt lat="45.9753" lon="6.8031">
        <ele>1991</ele>
        <time>2022-07-21T12:59:27Z</time>
      </trkpt>
      <trkpt lat="45.97549" lon="6.80293">
        <ele>1990</ele>
        <time>2022-07-21T12:59:48Z</time>
      </trkpt>
      <trkpt lat="45.97568" lon="6.80282">
        <ele>1989</ele>
        <time>2022-07-21T13:00:07Z</time>
      </trkpt>
      <trkpt lat="45.97577" lon="6.80282">
        <ele>1988</ele>
        <time>2022-07-21T13:00:15Z</time>
      </trkpt>
      <trkpt lat="45.97582" lon="6.80278">
        <ele>1988</ele>
        <time>2022-07-21T13:00:22Z</time>
      </trkpt>
      <trkpt lat="45.97584" lon="6.80272">
        <ele>1988</ele>
        <time>2022-07-21T13:00:27Z</time>
      </trkpt>
      <trkpt lat="45.97572" lon="6.80242">
        <ele>1991</ele>
        <time>2022-07-21T13:01:01Z</time>
      </trkpt>
      <trkpt lat="45.9757" lon="6.80236">
        <ele>1992</ele>
        <time>2022-07-21T13:01:05Z</time>
      </trkpt>
      <trkpt lat="45.97566" lon="6.8023">
        <ele>1992</ele>
        <time>2022-07-21T13:01:12Z</time>
      </trkpt>
      <trkpt lat="45.97562" lon="6.80225">
        <ele>1993</ele>
        <time>2022-07-21T13:01:22Z</time>
      </trkpt>
      <trkpt lat="45.9756" lon="6.80216">
        <ele>1994</ele>
        <time>2022-07-21T13:01:32Z</time>
      </trkpt>
      <trkpt lat="45.9756" lon="6.80209">
        <ele>1994</ele>
        <time>2022-07-21T13:01:37Z</time>
      </trkpt>
      <trkpt lat="45.97558" lon="6.80199">
        <ele>1994</ele>
        <time>2022-07-21T13:01:46Z</time>
      </trkpt>
      <trkpt lat="45.97549" lon="6.80186">
        <ele>1995</ele>
        <time>2022-07-21T13:02:00Z</time>
      </trkpt>
      <trkpt lat="45.97547" lon="6.80169">
        <ele>1996</ele>
        <time>2022-07-21T13:02:16Z</time>
      </trkpt>
      <trkpt lat="45.97543" lon="6.80153">
        <ele>1997</ele>
        <time>2022-07-21T13:02:30Z</time>
      </trkpt>
      <trkpt lat="45.97543" lon="6.80147">
        <ele>1998</ele>
        <time>2022-07-21T13:02:35Z</time>
      </trkpt>
      <trkpt lat="45.97538" lon="6.80129">
        <ele>1999</ele>
        <time>2022-07-21T13:02:52Z</time>
      </trkpt>
      <trkpt lat="45.97536" lon="6.80124">
        <ele>2000</ele>
        <time>2022-07-21T13:02:56Z</time>
      </trkpt>
      <trkpt lat="45.97534" lon="6.80118">
        <ele>2000</ele>
        <time>2022-07-21T13:03:01Z</time>
      </trkpt>
      <trkpt lat="45.97531" lon="6.8011">
        <ele>2000</ele>
        <time>2022-07-21T13:03:08Z</time>
      </trkpt>
      <trkpt lat="45.97529" lon="6.80103">
        <ele>2000</ele>
        <time>2022-07-21T13:03:13Z</time>
      </trkpt>
      <trkpt lat="45.97527" lon="6.80098">
        <ele>2000</ele>
        <time>2022-07-21T13:03:18Z</time>
      </trkpt>
      <trkpt lat="45.97522" lon="6.80094">
        <ele>2000</ele>
        <time>2022-07-21T13:03:23Z</time>
      </trkpt>
      <trkpt lat="45.97521" lon="6.80086">
        <ele>2000</ele>
        <time>2022-07-21T13:03:30Z</time>
      </trkpt>
      <trkpt lat="45.97518" lon="6.8008">
        <ele>2000</ele>
        <time>2022-07-21T13:03:35Z</time>
      </trkpt>
      <trkpt lat="45.97512" lon="6.80074">
        <ele>2000</ele>
        <time>2022-07-21T13:03:43Z</time>
      </trkpt>
      <trkpt lat="45.97513" lon="6.80068">
        <ele>1999</ele>
        <time>2022-07-21T13:04:09Z</time>
      </trkpt>
      <trkpt lat="45.97509" lon="6.80066">
        <ele>2000</ele>
        <time>2022-07-21T13:05:37Z</time>
      </trkpt>
      <trkpt lat="45.97513" lon="6.80061">
        <ele>2000</ele>
        <time>2022-07-21T13:05:57Z</time>
      </trkpt>
      <trkpt lat="45.97507" lon="6.80058">
        <ele>1999</ele>
        <time>2022-07-21T13:06:07Z</time>
      </trkpt>
      <trkpt lat="45.97499" lon="6.80052">
        <ele>1998</ele>
        <time>2022-07-21T13:06:19Z</time>
      </trkpt>
      <trkpt lat="45.9749" lon="6.80042">
        <ele>1996</ele>
        <time>2022-07-21T13:06:31Z</time>
      </trkpt>
      <trkpt lat="45.97463" lon="6.80031">
        <ele>1991</ele>
        <time>2022-07-21T13:07:00Z</time>
      </trkpt>
      <trkpt lat="45.97456" lon="6.8002">
        <ele>1990</ele>
        <time>2022-07-21T13:07:12Z</time>
      </trkpt>
      <trkpt lat="45.97447" lon="6.80018">
        <ele>1989</ele>
        <time>2022-07-21T13:07:20Z</time>
      </trkpt>
      <trkpt lat="45.97436" lon="6.80001">
        <ele>1987</ele>
        <time>2022-07-21T13:07:36Z</time>
      </trkpt>
      <trkpt lat="45.97411" lon="6.7998">
        <ele>1984</ele>
        <time>2022-07-21T13:08:03Z</time>
      </trkpt>
      <trkpt lat="45.97406" lon="6.79974">
        <ele>1984</ele>
        <time>2022-07-21T13:08:09Z</time>
      </trkpt>
      <trkpt lat="45.97398" lon="6.79972">
        <ele>1983</ele>
        <time>2022-07-21T13:08:19Z</time>
      </trkpt>
      <trkpt lat="45.97394" lon="6.79974">
        <ele>1982</ele>
        <time>2022-07-21T13:08:24Z</time>
      </trkpt>
      <trkpt lat="45.97385" lon="6.79974">
        <ele>1981</ele>
        <time>2022-07-21T13:08:33Z</time>
      </trkpt>
      <trkpt lat="45.9738" lon="6.79973">
        <ele>1981</ele>
        <time>2022-07-21T13:08:37Z</time>
      </trkpt>
      <trkpt lat="45.97371" lon="6.79966">
        <ele>1979</ele>
        <time>2022-07-21T13:08:48Z</time>
      </trkpt>
      <trkpt lat="45.97358" lon="6.79957">
        <ele>1979</ele>
        <time>2022-07-21T13:09:00Z</time>
      </trkpt>
      <trkpt lat="45.97355" lon="6.79952">
        <ele>1978</ele>
        <time>2022-07-21T13:09:05Z</time>
      </trkpt>
      <trkpt lat="45.9735" lon="6.79945">
        <ele>1977</ele>
        <time>2022-07-21T13:09:13Z</time>
      </trkpt>
      <trkpt lat="45.97342" lon="6.79939">
        <ele>1975</ele>
        <time>2022-07-21T13:09:21Z</time>
      </trkpt>
      <trkpt lat="45.97327" lon="6.79931">
        <ele>1973</ele>
        <time>2022-07-21T13:09:36Z</time>
      </trkpt>
      <trkpt lat="45.97319" lon="6.79922">
        <ele>1971</ele>
        <time>2022-07-21T13:09:46Z</time>
      </trkpt>
      <trkpt lat="45.97302" lon="6.79914">
        <ele>1969</ele>
        <time>2022-07-21T13:10:03Z</time>
      </trkpt>
      <trkpt lat="45.97271" lon="6.79888">
        <ele>1964</ele>
        <time>2022-07-21T13:10:37Z</time>
      </trkpt>
      <trkpt lat="45.97253" lon="6.79869">
        <ele>1962</ele>
        <time>2022-07-21T13:10:59Z</time>
      </trkpt>
      <trkpt lat="45.97247" lon="6.79862">
        <ele>1960</ele>
        <time>2022-07-21T13:11:08Z</time>
      </trkpt>
      <trkpt lat="45.97244" lon="6.79858">
        <ele>1960</ele>
        <time>2022-07-21T13:11:13Z</time>
      </trkpt>
      <trkpt lat="45.97211" lon="6.79846">
        <ele>1956</ele>
        <time>2022-07-21T13:11:47Z</time>
      </trkpt>
      <trkpt lat="45.97207" lon="6.79844">
        <ele>1955</ele>
        <time>2022-07-21T13:11:51Z</time>
      </trkpt>
      <trkpt lat="45.97203" lon="6.79841">
        <ele>1955</ele>
        <time>2022-07-21T13:11:56Z</time>
      </trkpt>
      <trkpt lat="45.97198" lon="6.7984">
        <ele>1955</ele>
        <time>2022-07-21T13:12:01Z</time>
      </trkpt>
      <trkpt lat="45.97188" lon="6.79832">
        <ele>1954</ele>
        <time>2022-07-21T13:12:12Z</time>
      </trkpt>
      <trkpt lat="45.9718" lon="6.79827">
        <ele>1954</ele>
        <time>2022-07-21T13:12:21Z</time>
      </trkpt>
      <trkpt lat="45.97172" lon="6.79818">
        <ele>1955</ele>
        <time>2022-07-21T13:12:38Z</time>
      </trkpt>
      <trkpt lat="45.97176" lon="6.79825">
        <ele>1955</ele>
        <time>2022-07-21T13:14:52Z</time>
      </trkpt>
      <trkpt lat="45.97174" lon="6.79823">
        <ele>1956</ele>
        <time>2022-07-21T13:15:13Z</time>
      </trkpt>
      <trkpt lat="45.97171" lon="6.79817">
        <ele>1956</ele>
        <time>2022-07-21T13:15:28Z</time>
      </trkpt>
      <trkpt lat="45.97155" lon="6.79823">
        <ele>1959</ele>
        <time>2022-07-21T13:48:14Z</time>
      </trkpt>
      <trkpt lat="45.97171" lon="6.79815">
        <ele>1959</ele>
        <time>2022-07-21T13:48:22Z</time>
      </trkpt>
      <trkpt lat="45.97176" lon="6.79823">
        <ele>1958</ele>
        <time>2022-07-21T13:49:49Z</time>
      </trkpt>
      <trkpt lat="45.9718" lon="6.79826">
        <ele>1957</ele>
        <time>2022-07-21T13:50:01Z</time>
      </trkpt>
      <trkpt lat="45.97185" lon="6.7983">
        <ele>1957</ele>
        <time>2022-07-21T13:50:25Z</time>
      </trkpt>
      <trkpt lat="45.97191" lon="6.79832">
        <ele>1957</ele>
        <time>2022-07-21T13:50:31Z</time>
      </trkpt>
      <trkpt lat="45.97195" lon="6.79835">
        <ele>1957</ele>
        <time>2022-07-21T13:50:35Z</time>
      </trkpt>
      <trkpt lat="45.97198" lon="6.7984">
        <ele>1957</ele>
        <time>2022-07-21T13:50:40Z</time>
      </trkpt>
      <trkpt lat="45.97206" lon="6.79846">
        <ele>1957</ele>
        <time>2022-07-21T13:50:49Z</time>
      </trkpt>
      <trkpt lat="45.97209" lon="6.79852">
        <ele>1957</ele>
        <time>2022-07-21T13:50:53Z</time>
      </trkpt>
      <trkpt lat="45.97212" lon="6.79861">
        <ele>1957</ele>
        <time>2022-07-21T13:51:00Z</time>
      </trkpt>
      <trkpt lat="45.97218" lon="6.79865">
        <ele>1957</ele>
        <time>2022-07-21T13:51:06Z</time>
      </trkpt>
      <trkpt lat="45.97219" lon="6.7987">
        <ele>1956</ele>
        <time>2022-07-21T13:52:12Z</time>
      </trkpt>
      <trkpt lat="45.97178" lon="6.7983">
        <ele>1949</ele>
        <time>2022-07-21T14:26:22Z</time>
      </trkpt>
      <trkpt lat="45.97178" lon="6.79829">
        <ele>1949</ele>
        <time>2022-07-21T14:26:23Z</time>
      </trkpt>
      <trkpt lat="45.9717" lon="6.7983">
        <ele>1949</ele>
        <time>2022-07-21T14:26:24Z</time>
      </trkpt>
      <trkpt lat="45.97152" lon="6.79817">
        <ele>1951</ele>
        <time>2022-07-21T14:29:32Z</time>
      </trkpt>
      <trkpt lat="45.97152" lon="6.79817">
        <ele>1951</ele>
        <time>2022-07-21T14:29:33Z</time>
      </trkpt>
      <trkpt lat="45.97147" lon="6.79807">
        <ele>1951</ele>
        <time>2022-07-21T14:29:46Z</time>
      </trkpt>
      <trkpt lat="45.97143" lon="6.79796">
        <ele>1952</ele>
        <time>2022-07-21T14:29:56Z</time>
      </trkpt>
      <trkpt lat="45.97137" lon="6.79779">
        <ele>1950</ele>
        <time>2022-07-21T14:30:36Z</time>
      </trkpt>
      <trkpt lat="45.9713" lon="6.79768">
        <ele>1949</ele>
        <time>2022-07-21T14:30:54Z</time>
      </trkpt>
      <trkpt lat="45.97119" lon="6.79747">
        <ele>1947</ele>
        <time>2022-07-21T14:31:12Z</time>
      </trkpt>
      <trkpt lat="45.9711" lon="6.7974">
        <ele>1947</ele>
        <time>2022-07-21T14:31:22Z</time>
      </trkpt>
      <trkpt lat="45.97088" lon="6.79706">
        <ele>1949</ele>
        <time>2022-07-21T14:31:58Z</time>
      </trkpt>
      <trkpt lat="45.97083" lon="6.79702">
        <ele>1950</ele>
        <time>2022-07-21T14:32:05Z</time>
      </trkpt>
      <trkpt lat="45.97072" lon="6.79686">
        <ele>1952</ele>
        <time>2022-07-21T14:32:25Z</time>
      </trkpt>
      <trkpt lat="45.97072" lon="6.79678">
        <ele>1953</ele>
        <time>2022-07-21T14:32:52Z</time>
      </trkpt>
      <trkpt lat="45.97065" lon="6.79678">
        <ele>1953</ele>
        <time>2022-07-21T14:33:14Z</time>
      </trkpt>
      <trkpt lat="45.97053" lon="6.7967">
        <ele>1955</ele>
        <time>2022-07-21T14:33:29Z</time>
      </trkpt>
      <trkpt lat="45.97024" lon="6.79657">
        <ele>1960</ele>
        <time>2022-07-21T14:34:03Z</time>
      </trkpt>
      <trkpt lat="45.97016" lon="6.79654">
        <ele>1960</ele>
        <time>2022-07-21T14:34:12Z</time>
      </trkpt>
      <trkpt lat="45.97012" lon="6.79655">
        <ele>1960</ele>
        <time>2022-07-21T14:34:15Z</time>
      </trkpt>
      <trkpt lat="45.97002" lon="6.79647">
        <ele>1960</ele>
        <time>2022-07-21T14:34:25Z</time>
      </trkpt>
      <trkpt lat="45.96992" lon="6.79637">
        <ele>1959</ele>
        <time>2022-07-21T14:34:35Z</time>
      </trkpt>
      <trkpt lat="45.96989" lon="6.79632">
        <ele>1959</ele>
        <time>2022-07-21T14:34:38Z</time>
      </trkpt>
      <trkpt lat="45.96986" lon="6.79629">
        <ele>1959</ele>
        <time>2022-07-21T14:34:41Z</time>
      </trkpt>
      <trkpt lat="45.96975" lon="6.79626">
        <ele>1959</ele>
        <time>2022-07-21T14:34:50Z</time>
      </trkpt>
      <trkpt lat="45.96971" lon="6.79627">
        <ele>1959</ele>
        <time>2022-07-21T14:34:53Z</time>
      </trkpt>
      <trkpt lat="45.96966" lon="6.79625">
        <ele>1960</ele>
        <time>2022-07-21T14:34:58Z</time>
      </trkpt>
      <trkpt lat="45.96958" lon="6.79625">
        <ele>1961</ele>
        <time>2022-07-21T14:35:06Z</time>
      </trkpt>
      <trkpt lat="45.96953" lon="6.79624">
        <ele>1962</ele>
        <time>2022-07-21T14:35:11Z</time>
      </trkpt>
      <trkpt lat="45.96943" lon="6.79625">
        <ele>1964</ele>
        <time>2022-07-21T14:35:23Z</time>
      </trkpt>
      <trkpt lat="45.96935" lon="6.79628">
        <ele>1965</ele>
        <time>2022-07-21T14:35:30Z</time>
      </trkpt>
      <trkpt lat="45.96931" lon="6.7963">
        <ele>1965</ele>
        <time>2022-07-21T14:35:34Z</time>
      </trkpt>
      <trkpt lat="45.96926" lon="6.79631">
        <ele>1966</ele>
        <time>2022-07-21T14:35:39Z</time>
      </trkpt>
      <trkpt lat="45.96921" lon="6.79634">
        <ele>1966</ele>
        <time>2022-07-21T14:35:45Z</time>
      </trkpt>
      <trkpt lat="45.96911" lon="6.79638">
        <ele>1966</ele>
        <time>2022-07-21T14:35:55Z</time>
      </trkpt>
      <trkpt lat="45.96903" lon="6.79638">
        <ele>1967</ele>
        <time>2022-07-21T14:36:04Z</time>
      </trkpt>
      <trkpt lat="45.96898" lon="6.79636">
        <ele>1967</ele>
        <time>2022-07-21T14:36:08Z</time>
      </trkpt>
      <trkpt lat="45.9688" lon="6.79639">
        <ele>1968</ele>
        <time>2022-07-21T14:36:24Z</time>
      </trkpt>
      <trkpt lat="45.96876" lon="6.79642">
        <ele>1968</ele>
        <time>2022-07-21T14:36:29Z</time>
      </trkpt>
      <trkpt lat="45.96872" lon="6.79647">
        <ele>1969</ele>
        <time>2022-07-21T14:36:34Z</time>
      </trkpt>
      <trkpt lat="45.96863" lon="6.79655">
        <ele>1971</ele>
        <time>2022-07-21T14:36:45Z</time>
      </trkpt>
      <trkpt lat="45.96858" lon="6.79656">
        <ele>1972</ele>
        <time>2022-07-21T14:36:50Z</time>
      </trkpt>
      <trkpt lat="45.96854" lon="6.79654">
        <ele>1972</ele>
        <time>2022-07-21T14:36:54Z</time>
      </trkpt>
      <trkpt lat="45.9685" lon="6.79652">
        <ele>1971</ele>
        <time>2022-07-21T14:36:57Z</time>
      </trkpt>
      <trkpt lat="45.96841" lon="6.79647">
        <ele>1971</ele>
        <time>2022-07-21T14:37:06Z</time>
      </trkpt>
      <trkpt lat="45.96837" lon="6.79644">
        <ele>1972</ele>
        <time>2022-07-21T14:37:10Z</time>
      </trkpt>
      <trkpt lat="45.96833" lon="6.7964">
        <ele>1972</ele>
        <time>2022-07-21T14:37:14Z</time>
      </trkpt>
      <trkpt lat="45.96824" lon="6.79633">
        <ele>1971</ele>
        <time>2022-07-21T14:37:22Z</time>
      </trkpt>
      <trkpt lat="45.96804" lon="6.79617">
        <ele>1968</ele>
        <time>2022-07-21T14:37:42Z</time>
      </trkpt>
      <trkpt lat="45.96799" lon="6.79616">
        <ele>1967</ele>
        <time>2022-07-21T14:37:46Z</time>
      </trkpt>
      <trkpt lat="45.96786" lon="6.79611">
        <ele>1965</ele>
        <time>2022-07-21T14:37:58Z</time>
      </trkpt>
      <trkpt lat="45.9678" lon="6.79612">
        <ele>1964</ele>
        <time>2022-07-21T14:38:02Z</time>
      </trkpt>
      <trkpt lat="45.96762" lon="6.79617">
        <ele>1964</ele>
        <time>2022-07-21T14:38:17Z</time>
      </trkpt>
      <trkpt lat="45.96758" lon="6.79617">
        <ele>1964</ele>
        <time>2022-07-21T14:38:21Z</time>
      </trkpt>
      <trkpt lat="45.96753" lon="6.79614">
        <ele>1963</ele>
        <time>2022-07-21T14:38:25Z</time>
      </trkpt>
      <trkpt lat="45.96745" lon="6.79599">
        <ele>1961</ele>
        <time>2022-07-21T14:38:35Z</time>
      </trkpt>
      <trkpt lat="45.96735" lon="6.79597">
        <ele>1961</ele>
        <time>2022-07-21T14:38:42Z</time>
      </trkpt>
      <trkpt lat="45.9673" lon="6.79595">
        <ele>1960</ele>
        <time>2022-07-21T14:38:46Z</time>
      </trkpt>
      <trkpt lat="45.96721" lon="6.79589">
        <ele>1959</ele>
        <time>2022-07-21T14:38:54Z</time>
      </trkpt>
      <trkpt lat="45.96713" lon="6.79583">
        <ele>1957</ele>
        <time>2022-07-21T14:39:02Z</time>
      </trkpt>
      <trkpt lat="45.96705" lon="6.79569">
        <ele>1952</ele>
        <time>2022-07-21T14:39:22Z</time>
      </trkpt>
      <trkpt lat="45.96697" lon="6.79545">
        <ele>1949</ele>
        <time>2022-07-21T14:39:38Z</time>
      </trkpt>
      <trkpt lat="45.96697" lon="6.79531">
        <ele>1947</ele>
        <time>2022-07-21T14:39:46Z</time>
      </trkpt>
      <trkpt lat="45.96695" lon="6.79526">
        <ele>1947</ele>
        <time>2022-07-21T14:39:50Z</time>
      </trkpt>
      <trkpt lat="45.96687" lon="6.79517">
        <ele>1946</ele>
        <time>2022-07-21T14:39:58Z</time>
      </trkpt>
      <trkpt lat="45.96682" lon="6.79514">
        <ele>1945</ele>
        <time>2022-07-21T14:40:02Z</time>
      </trkpt>
      <trkpt lat="45.96679" lon="6.79508">
        <ele>1945</ele>
        <time>2022-07-21T14:40:06Z</time>
      </trkpt>
      <trkpt lat="45.96674" lon="6.79505">
        <ele>1944</ele>
        <time>2022-07-21T14:40:11Z</time>
      </trkpt>
      <trkpt lat="45.96666" lon="6.79493">
        <ele>1941</ele>
        <time>2022-07-21T14:40:21Z</time>
      </trkpt>
      <trkpt lat="45.96661" lon="6.79491">
        <ele>1941</ele>
        <time>2022-07-21T14:40:25Z</time>
      </trkpt>
      <trkpt lat="45.96657" lon="6.79488">
        <ele>1940</ele>
        <time>2022-07-21T14:40:29Z</time>
      </trkpt>
      <trkpt lat="45.96653" lon="6.79482">
        <ele>1939</ele>
        <time>2022-07-21T14:40:33Z</time>
      </trkpt>
      <trkpt lat="45.96649" lon="6.79479">
        <ele>1938</ele>
        <time>2022-07-21T14:40:37Z</time>
      </trkpt>
      <trkpt lat="45.96642" lon="6.79468">
        <ele>1937</ele>
        <time>2022-07-21T14:40:45Z</time>
      </trkpt>
      <trkpt lat="45.96633" lon="6.79462">
        <ele>1937</ele>
        <time>2022-07-21T14:40:52Z</time>
      </trkpt>
      <trkpt lat="45.96632" lon="6.79456">
        <ele>1937</ele>
        <time>2022-07-21T14:40:56Z</time>
      </trkpt>
      <trkpt lat="45.9663" lon="6.7945">
        <ele>1937</ele>
        <time>2022-07-21T14:41:00Z</time>
      </trkpt>
      <trkpt lat="45.96626" lon="6.79447">
        <ele>1937</ele>
        <time>2022-07-21T14:41:04Z</time>
      </trkpt>
      <trkpt lat="45.96614" lon="6.79426">
        <ele>1935</ele>
        <time>2022-07-21T14:41:20Z</time>
      </trkpt>
      <trkpt lat="45.96606" lon="6.79413">
        <ele>1935</ele>
        <time>2022-07-21T14:41:30Z</time>
      </trkpt>
      <trkpt lat="45.96604" lon="6.79409">
        <ele>1934</ele>
        <time>2022-07-21T14:41:34Z</time>
      </trkpt>
      <trkpt lat="45.96599" lon="6.79405">
        <ele>1934</ele>
        <time>2022-07-21T14:41:39Z</time>
      </trkpt>
      <trkpt lat="45.96603" lon="6.79397">
        <ele>1934</ele>
        <time>2022-07-21T14:42:09Z</time>
      </trkpt>
      <trkpt lat="45.96603" lon="6.7939">
        <ele>1934</ele>
        <time>2022-07-21T14:42:14Z</time>
      </trkpt>
      <trkpt lat="45.96602" lon="6.79385">
        <ele>1934</ele>
        <time>2022-07-21T14:42:18Z</time>
      </trkpt>
      <trkpt lat="45.96602" lon="6.79379">
        <ele>1934</ele>
        <time>2022-07-21T14:42:21Z</time>
      </trkpt>
      <trkpt lat="45.966" lon="6.79371">
        <ele>1934</ele>
        <time>2022-07-21T14:42:26Z</time>
      </trkpt>
      <trkpt lat="45.96603" lon="6.79345">
        <ele>1933</ele>
        <time>2022-07-21T14:42:42Z</time>
      </trkpt>
      <trkpt lat="45.9661" lon="6.7932">
        <ele>1934</ele>
        <time>2022-07-21T14:43:00Z</time>
      </trkpt>
      <trkpt lat="45.96613" lon="6.79315">
        <ele>1934</ele>
        <time>2022-07-21T14:43:04Z</time>
      </trkpt>
      <trkpt lat="45.96616" lon="6.7931">
        <ele>1934</ele>
        <time>2022-07-21T14:43:08Z</time>
      </trkpt>
      <trkpt lat="45.9662" lon="6.79308">
        <ele>1933</ele>
        <time>2022-07-21T14:43:17Z</time>
      </trkpt>
      <trkpt lat="45.96632" lon="6.79307">
        <ele>1930</ele>
        <time>2022-07-21T14:43:34Z</time>
      </trkpt>
      <trkpt lat="45.96635" lon="6.79299">
        <ele>1928</ele>
        <time>2022-07-21T14:43:44Z</time>
      </trkpt>
      <trkpt lat="45.96642" lon="6.79298">
        <ele>1925</ele>
        <time>2022-07-21T14:43:54Z</time>
      </trkpt>
      <trkpt lat="45.96646" lon="6.793">
        <ele>1925</ele>
        <time>2022-07-21T14:43:59Z</time>
      </trkpt>
      <trkpt lat="45.96648" lon="6.79306">
        <ele>1924</ele>
        <time>2022-07-21T14:44:04Z</time>
      </trkpt>
      <trkpt lat="45.96655" lon="6.79305">
        <ele>1923</ele>
        <time>2022-07-21T14:44:13Z</time>
      </trkpt>
      <trkpt lat="45.96659" lon="6.79301">
        <ele>1922</ele>
        <time>2022-07-21T14:44:18Z</time>
      </trkpt>
      <trkpt lat="45.96663" lon="6.79294">
        <ele>1920</ele>
        <time>2022-07-21T14:44:25Z</time>
      </trkpt>
      <trkpt lat="45.96663" lon="6.79288">
        <ele>1919</ele>
        <time>2022-07-21T14:44:30Z</time>
      </trkpt>
      <trkpt lat="45.96665" lon="6.79282">
        <ele>1918</ele>
        <time>2022-07-21T14:44:37Z</time>
      </trkpt>
      <trkpt lat="45.96663" lon="6.79272">
        <ele>1917</ele>
        <time>2022-07-21T14:44:47Z</time>
      </trkpt>
      <trkpt lat="45.96666" lon="6.79255">
        <ele>1914</ele>
        <time>2022-07-21T14:45:02Z</time>
      </trkpt>
      <trkpt lat="45.96669" lon="6.7925">
        <ele>1912</ele>
        <time>2022-07-21T14:45:07Z</time>
      </trkpt>
      <trkpt lat="45.9668" lon="6.79244">
        <ele>1910</ele>
        <time>2022-07-21T14:45:20Z</time>
      </trkpt>
      <trkpt lat="45.96684" lon="6.79239">
        <ele>1909</ele>
        <time>2022-07-21T14:45:25Z</time>
      </trkpt>
      <trkpt lat="45.96685" lon="6.79234">
        <ele>1909</ele>
        <time>2022-07-21T14:45:30Z</time>
      </trkpt>
      <trkpt lat="45.96689" lon="6.79226">
        <ele>1906</ele>
        <time>2022-07-21T14:45:41Z</time>
      </trkpt>
      <trkpt lat="45.96693" lon="6.7922">
        <ele>1903</ele>
        <time>2022-07-21T14:45:51Z</time>
      </trkpt>
      <trkpt lat="45.96699" lon="6.79218">
        <ele>1902</ele>
        <time>2022-07-21T14:45:56Z</time>
      </trkpt>
      <trkpt lat="45.96711" lon="6.7921">
        <ele>1899</ele>
        <time>2022-07-21T14:46:13Z</time>
      </trkpt>
      <trkpt lat="45.96714" lon="6.79205">
        <ele>1898</ele>
        <time>2022-07-21T14:46:18Z</time>
      </trkpt>
      <trkpt lat="45.96714" lon="6.79195">
        <ele>1895</ele>
        <time>2022-07-21T14:46:28Z</time>
      </trkpt>
      <trkpt lat="45.9671" lon="6.79179">
        <ele>1891</ele>
        <time>2022-07-21T14:46:48Z</time>
      </trkpt>
      <trkpt lat="45.96708" lon="6.79167">
        <ele>1888</ele>
        <time>2022-07-21T14:47:00Z</time>
      </trkpt>
      <trkpt lat="45.96706" lon="6.79161">
        <ele>1887</ele>
        <time>2022-07-21T14:47:05Z</time>
      </trkpt>
      <trkpt lat="45.96707" lon="6.79153">
        <ele>1884</ele>
        <time>2022-07-21T14:47:17Z</time>
      </trkpt>
      <trkpt lat="45.96711" lon="6.79148">
        <ele>1880</ele>
        <time>2022-07-21T14:47:34Z</time>
      </trkpt>
      <trkpt lat="45.96725" lon="6.79154">
        <ele>1875</ele>
        <time>2022-07-21T14:47:56Z</time>
      </trkpt>
      <trkpt lat="45.96729" lon="6.79155">
        <ele>1874</ele>
        <time>2022-07-21T14:48:01Z</time>
      </trkpt>
      <trkpt lat="45.96734" lon="6.79151">
        <ele>1874</ele>
        <time>2022-07-21T14:48:11Z</time>
      </trkpt>
      <trkpt lat="45.9674" lon="6.79148">
        <ele>1871</ele>
        <time>2022-07-21T14:48:21Z</time>
      </trkpt>
      <trkpt lat="45.96741" lon="6.79141">
        <ele>1869</ele>
        <time>2022-07-21T14:48:31Z</time>
      </trkpt>
      <trkpt lat="45.96747" lon="6.79137">
        <ele>1866</ele>
        <time>2022-07-21T14:48:41Z</time>
      </trkpt>
      <trkpt lat="45.96755" lon="6.79138">
        <ele>1864</ele>
        <time>2022-07-21T14:48:51Z</time>
      </trkpt>
      <trkpt lat="45.9676" lon="6.79135">
        <ele>1862</ele>
        <time>2022-07-21T14:49:01Z</time>
      </trkpt>
      <trkpt lat="45.96765" lon="6.79132">
        <ele>1859</ele>
        <time>2022-07-21T14:49:11Z</time>
      </trkpt>
      <trkpt lat="45.96769" lon="6.79126">
        <ele>1857</ele>
        <time>2022-07-21T14:49:21Z</time>
      </trkpt>
      <trkpt lat="45.96758" lon="6.79114">
        <ele>1851</ele>
        <time>2022-07-21T14:49:42Z</time>
      </trkpt>
      <trkpt lat="45.96755" lon="6.79108">
        <ele>1850</ele>
        <time>2022-07-21T14:49:48Z</time>
      </trkpt>
      <trkpt lat="45.9677" lon="6.79095">
        <ele>1844</ele>
        <time>2022-07-21T14:50:13Z</time>
      </trkpt>
      <trkpt lat="45.96772" lon="6.79086">
        <ele>1842</ele>
        <time>2022-07-21T14:50:23Z</time>
      </trkpt>
      <trkpt lat="45.96769" lon="6.79078">
        <ele>1840</ele>
        <time>2022-07-21T14:50:33Z</time>
      </trkpt>
      <trkpt lat="45.96759" lon="6.79067">
        <ele>1836</ele>
        <time>2022-07-21T14:50:48Z</time>
      </trkpt>
      <trkpt lat="45.96754" lon="6.79067">
        <ele>1835</ele>
        <time>2022-07-21T14:50:53Z</time>
      </trkpt>
      <trkpt lat="45.9675" lon="6.79064">
        <ele>1834</ele>
        <time>2022-07-21T14:50:58Z</time>
      </trkpt>
      <trkpt lat="45.96742" lon="6.79057">
        <ele>1833</ele>
        <time>2022-07-21T14:51:07Z</time>
      </trkpt>
      <trkpt lat="45.9674" lon="6.79042">
        <ele>1830</ele>
        <time>2022-07-21T14:51:23Z</time>
      </trkpt>
      <trkpt lat="45.96733" lon="6.79027">
        <ele>1828</ele>
        <time>2022-07-21T14:51:38Z</time>
      </trkpt>
      <trkpt lat="45.96728" lon="6.79017">
        <ele>1828</ele>
        <time>2022-07-21T14:51:52Z</time>
      </trkpt>
      <trkpt lat="45.96726" lon="6.79011">
        <ele>1828</ele>
        <time>2022-07-21T14:51:57Z</time>
      </trkpt>
      <trkpt lat="45.96722" lon="6.79004">
        <ele>1827</ele>
        <time>2022-07-21T14:52:03Z</time>
      </trkpt>
      <trkpt lat="45.96709" lon="6.78986">
        <ele>1828</ele>
        <time>2022-07-21T14:52:21Z</time>
      </trkpt>
      <trkpt lat="45.96701" lon="6.78979">
        <ele>1827</ele>
        <time>2022-07-21T14:52:30Z</time>
      </trkpt>
      <trkpt lat="45.96696" lon="6.78978">
        <ele>1827</ele>
        <time>2022-07-21T14:52:35Z</time>
      </trkpt>
      <trkpt lat="45.96692" lon="6.78972">
        <ele>1828</ele>
        <time>2022-07-21T14:52:42Z</time>
      </trkpt>
      <trkpt lat="45.96688" lon="6.78962">
        <ele>1827</ele>
        <time>2022-07-21T14:52:53Z</time>
      </trkpt>
      <trkpt lat="45.96674" lon="6.78947">
        <ele>1825</ele>
        <time>2022-07-21T14:53:11Z</time>
      </trkpt>
      <trkpt lat="45.96671" lon="6.78945">
        <ele>1825</ele>
        <time>2022-07-21T14:53:15Z</time>
      </trkpt>
      <trkpt lat="45.96666" lon="6.78943">
        <ele>1826</ele>
        <time>2022-07-21T14:53:27Z</time>
      </trkpt>
      <trkpt lat="45.9666" lon="6.78941">
        <ele>1829</ele>
        <time>2022-07-21T14:53:48Z</time>
      </trkpt>
      <trkpt lat="45.96654" lon="6.78934">
        <ele>1830</ele>
        <time>2022-07-21T14:54:00Z</time>
      </trkpt>
      <trkpt lat="45.96651" lon="6.78929">
        <ele>1830</ele>
        <time>2022-07-21T14:54:08Z</time>
      </trkpt>
      <trkpt lat="45.96646" lon="6.78923">
        <ele>1830</ele>
        <time>2022-07-21T14:54:18Z</time>
      </trkpt>
      <trkpt lat="45.96642" lon="6.78917">
        <ele>1831</ele>
        <time>2022-07-21T14:54:28Z</time>
      </trkpt>
      <trkpt lat="45.96634" lon="6.78901">
        <ele>1828</ele>
        <time>2022-07-21T14:54:53Z</time>
      </trkpt>
      <trkpt lat="45.96613" lon="6.78871">
        <ele>1823</ele>
        <time>2022-07-21T14:55:28Z</time>
      </trkpt>
      <trkpt lat="45.96612" lon="6.78864">
        <ele>1822</ele>
        <time>2022-07-21T14:55:33Z</time>
      </trkpt>
      <trkpt lat="45.96607" lon="6.78861">
        <ele>1820</ele>
        <time>2022-07-21T14:55:43Z</time>
      </trkpt>
      <trkpt lat="45.96606" lon="6.78849">
        <ele>1816</ele>
        <time>2022-07-21T14:56:05Z</time>
      </trkpt>
      <trkpt lat="45.96594" lon="6.78824">
        <ele>1809</ele>
        <time>2022-07-21T14:56:31Z</time>
      </trkpt>
      <trkpt lat="45.96591" lon="6.78817">
        <ele>1809</ele>
        <time>2022-07-21T14:56:43Z</time>
      </trkpt>
      <trkpt lat="45.96587" lon="6.7881">
        <ele>1806</ele>
        <time>2022-07-21T14:56:53Z</time>
      </trkpt>
      <trkpt lat="45.96585" lon="6.78804">
        <ele>1806</ele>
        <time>2022-07-21T14:56:57Z</time>
      </trkpt>
      <trkpt lat="45.96581" lon="6.788">
        <ele>1805</ele>
        <time>2022-07-21T14:57:02Z</time>
      </trkpt>
      <trkpt lat="45.96578" lon="6.78794">
        <ele>1804</ele>
        <time>2022-07-21T14:57:10Z</time>
      </trkpt>
      <trkpt lat="45.9656" lon="6.7877">
        <ele>1799</ele>
        <time>2022-07-21T14:57:43Z</time>
      </trkpt>
      <trkpt lat="45.96557" lon="6.78766">
        <ele>1799</ele>
        <time>2022-07-21T14:57:49Z</time>
      </trkpt>
      <trkpt lat="45.96554" lon="6.78758">
        <ele>1797</ele>
        <time>2022-07-21T14:57:59Z</time>
      </trkpt>
      <trkpt lat="45.96544" lon="6.78745">
        <ele>1794</ele>
        <time>2022-07-21T14:58:15Z</time>
      </trkpt>
      <trkpt lat="45.96542" lon="6.78739">
        <ele>1793</ele>
        <time>2022-07-21T14:58:22Z</time>
      </trkpt>
      <trkpt lat="45.96535" lon="6.78732">
        <ele>1793</ele>
        <time>2022-07-21T14:58:32Z</time>
      </trkpt>
      <trkpt lat="45.96531" lon="6.78733">
        <ele>1794</ele>
        <time>2022-07-21T14:58:44Z</time>
      </trkpt>
      <trkpt lat="45.96527" lon="6.78731">
        <ele>1796</ele>
        <time>2022-07-21T14:58:55Z</time>
      </trkpt>
      <trkpt lat="45.96522" lon="6.78726">
        <ele>1797</ele>
        <time>2022-07-21T14:59:05Z</time>
      </trkpt>
      <trkpt lat="45.96518" lon="6.78718">
        <ele>1796</ele>
        <time>2022-07-21T14:59:15Z</time>
      </trkpt>
      <trkpt lat="45.96517" lon="6.78711">
        <ele>1795</ele>
        <time>2022-07-21T14:59:25Z</time>
      </trkpt>
      <trkpt lat="45.96513" lon="6.78704">
        <ele>1793</ele>
        <time>2022-07-21T14:59:35Z</time>
      </trkpt>
      <trkpt lat="45.9651" lon="6.78689">
        <ele>1790</ele>
        <time>2022-07-21T14:59:52Z</time>
      </trkpt>
      <trkpt lat="45.96509" lon="6.7868">
        <ele>1788</ele>
        <time>2022-07-21T15:00:02Z</time>
      </trkpt>
      <trkpt lat="45.96506" lon="6.78675">
        <ele>1786</ele>
        <time>2022-07-21T15:00:09Z</time>
      </trkpt>
      <trkpt lat="45.96504" lon="6.78665">
        <ele>1784</ele>
        <time>2022-07-21T15:00:19Z</time>
      </trkpt>
      <trkpt lat="45.96498" lon="6.78653">
        <ele>1782</ele>
        <time>2022-07-21T15:00:33Z</time>
      </trkpt>
      <trkpt lat="45.96498" lon="6.78645">
        <ele>1780</ele>
        <time>2022-07-21T15:00:43Z</time>
      </trkpt>
      <trkpt lat="45.96493" lon="6.78628">
        <ele>1776</ele>
        <time>2022-07-21T15:01:05Z</time>
      </trkpt>
      <trkpt lat="45.96488" lon="6.78629">
        <ele>1774</ele>
        <time>2022-07-21T15:01:15Z</time>
      </trkpt>
      <trkpt lat="45.96488" lon="6.78622">
        <ele>1770</ele>
        <time>2022-07-21T15:01:35Z</time>
      </trkpt>
      <trkpt lat="45.96477" lon="6.78619">
        <ele>1766</ele>
        <time>2022-07-21T15:01:55Z</time>
      </trkpt>
      <trkpt lat="45.96473" lon="6.78616">
        <ele>1766</ele>
        <time>2022-07-21T15:01:59Z</time>
      </trkpt>
      <trkpt lat="45.96469" lon="6.78613">
        <ele>1766</ele>
        <time>2022-07-21T15:02:02Z</time>
      </trkpt>
      <trkpt lat="45.96464" lon="6.78608">
        <ele>1766</ele>
        <time>2022-07-21T15:02:12Z</time>
      </trkpt>
      <trkpt lat="45.96454" lon="6.78597">
        <ele>1762</ele>
        <time>2022-07-21T15:02:36Z</time>
      </trkpt>
      <trkpt lat="45.96449" lon="6.78595">
        <ele>1761</ele>
        <time>2022-07-21T15:02:46Z</time>
      </trkpt>
      <trkpt lat="45.96445" lon="6.78594">
        <ele>1762</ele>
        <time>2022-07-21T15:02:52Z</time>
      </trkpt>
      <trkpt lat="45.96441" lon="6.78589">
        <ele>1759</ele>
        <time>2022-07-21T15:03:07Z</time>
      </trkpt>
      <trkpt lat="45.96436" lon="6.78587">
        <ele>1757</ele>
        <time>2022-07-21T15:03:17Z</time>
      </trkpt>
      <trkpt lat="45.96429" lon="6.78584">
        <ele>1755</ele>
        <time>2022-07-21T15:03:27Z</time>
      </trkpt>
      <trkpt lat="45.96425" lon="6.78588">
        <ele>1753</ele>
        <time>2022-07-21T15:03:39Z</time>
      </trkpt>
      <trkpt lat="45.9642" lon="6.7859">
        <ele>1751</ele>
        <time>2022-07-21T15:03:49Z</time>
      </trkpt>
      <trkpt lat="45.96421" lon="6.78587">
        <ele>1749</ele>
        <time>2022-07-21T15:07:03Z</time>
      </trkpt>
      <trkpt lat="45.96418" lon="6.78581">
        <ele>1748</ele>
        <time>2022-07-21T15:07:14Z</time>
      </trkpt>
      <trkpt lat="45.96415" lon="6.78575">
        <ele>1745</ele>
        <time>2022-07-21T15:07:29Z</time>
      </trkpt>
      <trkpt lat="45.96414" lon="6.78567">
        <ele>1743</ele>
        <time>2022-07-21T15:07:38Z</time>
      </trkpt>
      <trkpt lat="45.9641" lon="6.78564">
        <ele>1742</ele>
        <time>2022-07-21T15:07:50Z</time>
      </trkpt>
      <trkpt lat="45.96407" lon="6.78559">
        <ele>1739</ele>
        <time>2022-07-21T15:08:00Z</time>
      </trkpt>
      <trkpt lat="45.96406" lon="6.78553">
        <ele>1738</ele>
        <time>2022-07-21T15:08:10Z</time>
      </trkpt>
      <trkpt lat="45.96401" lon="6.78551">
        <ele>1737</ele>
        <time>2022-07-21T15:08:14Z</time>
      </trkpt>
      <trkpt lat="45.96397" lon="6.78546">
        <ele>1736</ele>
        <time>2022-07-21T15:08:21Z</time>
      </trkpt>
      <trkpt lat="45.96392" lon="6.78542">
        <ele>1736</ele>
        <time>2022-07-21T15:08:30Z</time>
      </trkpt>
      <trkpt lat="45.96391" lon="6.78536">
        <ele>1736</ele>
        <time>2022-07-21T15:08:33Z</time>
      </trkpt>
      <trkpt lat="45.96374" lon="6.78506">
        <ele>1731</ele>
        <time>2022-07-21T15:09:09Z</time>
      </trkpt>
      <trkpt lat="45.96363" lon="6.78483">
        <ele>1727</ele>
        <time>2022-07-21T15:09:33Z</time>
      </trkpt>
      <trkpt lat="45.96358" lon="6.78478">
        <ele>1726</ele>
        <time>2022-07-21T15:09:40Z</time>
      </trkpt>
      <trkpt lat="45.96356" lon="6.78472">
        <ele>1725</ele>
        <time>2022-07-21T15:09:51Z</time>
      </trkpt>
      <trkpt lat="45.96356" lon="6.78461">
        <ele>1722</ele>
        <time>2022-07-21T15:10:11Z</time>
      </trkpt>
      <trkpt lat="45.96352" lon="6.78456">
        <ele>1720</ele>
        <time>2022-07-21T15:10:21Z</time>
      </trkpt>
      <trkpt lat="45.96355" lon="6.7845">
        <ele>1717</ele>
        <time>2022-07-21T15:10:36Z</time>
      </trkpt>
      <trkpt lat="45.96353" lon="6.78445">
        <ele>1716</ele>
        <time>2022-07-21T15:10:47Z</time>
      </trkpt>
      <trkpt lat="45.9635" lon="6.78439">
        <ele>1714</ele>
        <time>2022-07-21T15:10:57Z</time>
      </trkpt>
      <trkpt lat="45.96347" lon="6.78432">
        <ele>1709</ele>
        <time>2022-07-21T15:11:13Z</time>
      </trkpt>
      <trkpt lat="45.96343" lon="6.78426">
        <ele>1706</ele>
        <time>2022-07-21T15:11:28Z</time>
      </trkpt>
      <trkpt lat="45.96338" lon="6.78423">
        <ele>1704</ele>
        <time>2022-07-21T15:11:38Z</time>
      </trkpt>
      <trkpt lat="45.96337" lon="6.78416">
        <ele>1702</ele>
        <time>2022-07-21T15:11:48Z</time>
      </trkpt>
      <trkpt lat="45.96333" lon="6.78412">
        <ele>1700</ele>
        <time>2022-07-21T15:11:58Z</time>
      </trkpt>
      <trkpt lat="45.96324" lon="6.78395">
        <ele>1697</ele>
        <time>2022-07-21T15:12:13Z</time>
      </trkpt>
      <trkpt lat="45.96321" lon="6.7839">
        <ele>1696</ele>
        <time>2022-07-21T15:12:21Z</time>
      </trkpt>
      <trkpt lat="45.96319" lon="6.78382">
        <ele>1695</ele>
        <time>2022-07-21T15:12:31Z</time>
      </trkpt>
      <trkpt lat="45.96313" lon="6.7838">
        <ele>1692</ele>
        <time>2022-07-21T15:12:47Z</time>
      </trkpt>
      <trkpt lat="45.96312" lon="6.78372">
        <ele>1689</ele>
        <time>2022-07-21T15:13:02Z</time>
      </trkpt>
      <trkpt lat="45.96297" lon="6.78367">
        <ele>1685</ele>
        <time>2022-07-21T15:13:23Z</time>
      </trkpt>
      <trkpt lat="45.96293" lon="6.78363">
        <ele>1684</ele>
        <time>2022-07-21T15:13:27Z</time>
      </trkpt>
      <trkpt lat="45.96289" lon="6.78358">
        <ele>1684</ele>
        <time>2022-07-21T15:13:35Z</time>
      </trkpt>
      <trkpt lat="45.96285" lon="6.78361">
        <ele>1682</ele>
        <time>2022-07-21T15:13:45Z</time>
      </trkpt>
      <trkpt lat="45.96281" lon="6.78356">
        <ele>1680</ele>
        <time>2022-07-21T15:14:00Z</time>
      </trkpt>
      <trkpt lat="45.96277" lon="6.78354">
        <ele>1679</ele>
        <time>2022-07-21T15:14:05Z</time>
      </trkpt>
      <trkpt lat="45.96272" lon="6.78356">
        <ele>1679</ele>
        <time>2022-07-21T15:14:12Z</time>
      </trkpt>
      <trkpt lat="45.96262" lon="6.78349">
        <ele>1679</ele>
        <time>2022-07-21T15:14:25Z</time>
      </trkpt>
      <trkpt lat="45.96258" lon="6.78345">
        <ele>1679</ele>
        <time>2022-07-21T15:14:30Z</time>
      </trkpt>
      <trkpt lat="45.96246" lon="6.78341">
        <ele>1676</ele>
        <time>2022-07-21T15:14:46Z</time>
      </trkpt>
      <trkpt lat="45.96242" lon="6.78342">
        <ele>1676</ele>
        <time>2022-07-21T15:14:51Z</time>
      </trkpt>
      <trkpt lat="45.96237" lon="6.78337">
        <ele>1676</ele>
        <time>2022-07-21T15:15:01Z</time>
      </trkpt>
      <trkpt lat="45.96232" lon="6.78329">
        <ele>1676</ele>
        <time>2022-07-21T15:15:11Z</time>
      </trkpt>
      <trkpt lat="45.96221" lon="6.78317">
        <ele>1674</ele>
        <time>2022-07-21T15:15:24Z</time>
      </trkpt>
      <trkpt lat="45.96216" lon="6.7832">
        <ele>1675</ele>
        <time>2022-07-21T15:15:31Z</time>
      </trkpt>
      <trkpt lat="45.9621" lon="6.78319">
        <ele>1675</ele>
        <time>2022-07-21T15:15:41Z</time>
      </trkpt>
      <trkpt lat="45.96207" lon="6.78314">
        <ele>1674</ele>
        <time>2022-07-21T15:15:47Z</time>
      </trkpt>
      <trkpt lat="45.96198" lon="6.78311">
        <ele>1672</ele>
        <time>2022-07-21T15:15:58Z</time>
      </trkpt>
      <trkpt lat="45.96191" lon="6.78306">
        <ele>1670</ele>
        <time>2022-07-21T15:16:10Z</time>
      </trkpt>
      <trkpt lat="45.96186" lon="6.78305">
        <ele>1669</ele>
        <time>2022-07-21T15:16:15Z</time>
      </trkpt>
      <trkpt lat="45.96182" lon="6.78301">
        <ele>1668</ele>
        <time>2022-07-21T15:16:24Z</time>
      </trkpt>
      <trkpt lat="45.96178" lon="6.78296">
        <ele>1668</ele>
        <time>2022-07-21T15:16:31Z</time>
      </trkpt>
      <trkpt lat="45.96174" lon="6.78295">
        <ele>1665</ele>
        <time>2022-07-21T15:16:46Z</time>
      </trkpt>
      <trkpt lat="45.96168" lon="6.7829">
        <ele>1666</ele>
        <time>2022-07-21T15:16:57Z</time>
      </trkpt>
      <trkpt lat="45.96162" lon="6.78286">
        <ele>1666</ele>
        <time>2022-07-21T15:17:07Z</time>
      </trkpt>
      <trkpt lat="45.96157" lon="6.78285">
        <ele>1664</ele>
        <time>2022-07-21T15:17:22Z</time>
      </trkpt>
      <trkpt lat="45.96155" lon="6.78281">
        <ele>1662</ele>
        <time>2022-07-21T15:17:37Z</time>
      </trkpt>
      <trkpt lat="45.96152" lon="6.78275">
        <ele>1658</ele>
        <time>2022-07-21T15:17:52Z</time>
      </trkpt>
      <trkpt lat="45.96148" lon="6.78271">
        <ele>1657</ele>
        <time>2022-07-21T15:18:02Z</time>
      </trkpt>
      <trkpt lat="45.96151" lon="6.78265">
        <ele>1652</ele>
        <time>2022-07-21T15:18:22Z</time>
      </trkpt>
      <trkpt lat="45.9615" lon="6.78259">
        <ele>1651</ele>
        <time>2022-07-21T15:18:28Z</time>
      </trkpt>
      <trkpt lat="45.96153" lon="6.78254">
        <ele>1648</ele>
        <time>2022-07-21T15:18:38Z</time>
      </trkpt>
      <trkpt lat="45.96149" lon="6.78246">
        <ele>1645</ele>
        <time>2022-07-21T15:18:59Z</time>
      </trkpt>
      <trkpt lat="45.96144" lon="6.7825">
        <ele>1644</ele>
        <time>2022-07-21T15:19:09Z</time>
      </trkpt>
      <trkpt lat="45.9614" lon="6.78249">
        <ele>1641</ele>
        <time>2022-07-21T15:19:39Z</time>
      </trkpt>
      <trkpt lat="45.96137" lon="6.78254">
        <ele>1639</ele>
        <time>2022-07-21T15:19:54Z</time>
      </trkpt>
      <trkpt lat="45.96132" lon="6.78251">
        <ele>1636</ele>
        <time>2022-07-21T15:20:09Z</time>
      </trkpt>
      <trkpt lat="45.96132" lon="6.78243">
        <ele>1633</ele>
        <time>2022-07-21T15:20:24Z</time>
      </trkpt>
      <trkpt lat="45.96128" lon="6.78242">
        <ele>1631</ele>
        <time>2022-07-21T15:20:34Z</time>
      </trkpt>
      <trkpt lat="45.96129" lon="6.78236">
        <ele>1628</ele>
        <time>2022-07-21T15:20:49Z</time>
      </trkpt>
      <trkpt lat="45.96134" lon="6.78237">
        <ele>1628</ele>
        <time>2022-07-21T15:20:53Z</time>
      </trkpt>
      <trkpt lat="45.96132" lon="6.78229">
        <ele>1625</ele>
        <time>2022-07-21T15:21:05Z</time>
      </trkpt>
      <trkpt lat="45.9613" lon="6.78223">
        <ele>1624</ele>
        <time>2022-07-21T15:21:10Z</time>
      </trkpt>
      <trkpt lat="45.96129" lon="6.78219">
        <ele>1620</ele>
        <time>2022-07-21T15:21:31Z</time>
      </trkpt>
      <trkpt lat="45.96124" lon="6.78212">
        <ele>1618</ele>
        <time>2022-07-21T15:21:41Z</time>
      </trkpt>
      <trkpt lat="45.96126" lon="6.78196">
        <ele>1612</ele>
        <time>2022-07-21T15:22:08Z</time>
      </trkpt>
      <trkpt lat="45.96123" lon="6.78187">
        <ele>1607</ele>
        <time>2022-07-21T15:22:28Z</time>
      </trkpt>
      <trkpt lat="45.96119" lon="6.78183">
        <ele>1602</ele>
        <time>2022-07-21T15:22:50Z</time>
      </trkpt>
      <trkpt lat="45.96114" lon="6.7819">
        <ele>1600</ele>
        <time>2022-07-21T15:22:59Z</time>
      </trkpt>
      <trkpt lat="45.96112" lon="6.78182">
        <ele>1598</ele>
        <time>2022-07-21T15:23:11Z</time>
      </trkpt>
      <trkpt lat="45.96113" lon="6.78173">
        <ele>1594</ele>
        <time>2022-07-21T15:23:46Z</time>
      </trkpt>
      <trkpt lat="45.96114" lon="6.78166">
        <ele>1592</ele>
        <time>2022-07-21T15:23:56Z</time>
      </trkpt>
      <trkpt lat="45.96112" lon="6.7816">
        <ele>1590</ele>
        <time>2022-07-21T15:24:06Z</time>
      </trkpt>
      <trkpt lat="45.96113" lon="6.78151">
        <ele>1588</ele>
        <time>2022-07-21T15:24:13Z</time>
      </trkpt>
      <trkpt lat="45.96108" lon="6.78155">
        <ele>1587</ele>
        <time>2022-07-21T15:24:22Z</time>
      </trkpt>
      <trkpt lat="45.96104" lon="6.7815">
        <ele>1584</ele>
        <time>2022-07-21T15:24:42Z</time>
      </trkpt>
      <trkpt lat="45.961" lon="6.78145">
        <ele>1582</ele>
        <time>2022-07-21T15:24:52Z</time>
      </trkpt>
      <trkpt lat="45.96105" lon="6.78139">
        <ele>1577</ele>
        <time>2022-07-21T15:25:17Z</time>
      </trkpt>
      <trkpt lat="45.96109" lon="6.78137">
        <ele>1576</ele>
        <time>2022-07-21T15:25:25Z</time>
      </trkpt>
      <trkpt lat="45.96107" lon="6.78131">
        <ele>1574</ele>
        <time>2022-07-21T15:25:31Z</time>
      </trkpt>
      <trkpt lat="45.96102" lon="6.78111">
        <ele>1570</ele>
        <time>2022-07-21T15:25:53Z</time>
      </trkpt>
      <trkpt lat="45.96099" lon="6.78105">
        <ele>1569</ele>
        <time>2022-07-21T15:25:57Z</time>
      </trkpt>
      <trkpt lat="45.96091" lon="6.78086">
        <ele>1567</ele>
        <time>2022-07-21T15:26:12Z</time>
      </trkpt>
      <trkpt lat="45.96093" lon="6.78074">
        <ele>1566</ele>
        <time>2022-07-21T15:26:25Z</time>
      </trkpt>
      <trkpt lat="45.96095" lon="6.78063">
        <ele>1564</ele>
        <time>2022-07-21T15:26:36Z</time>
      </trkpt>
      <trkpt lat="45.96093" lon="6.78056">
        <ele>1562</ele>
        <time>2022-07-21T15:26:46Z</time>
      </trkpt>
      <trkpt lat="45.96094" lon="6.7805">
        <ele>1561</ele>
        <time>2022-07-21T15:26:56Z</time>
      </trkpt>
      <trkpt lat="45.96092" lon="6.78042">
        <ele>1561</ele>
        <time>2022-07-21T15:27:07Z</time>
      </trkpt>
      <trkpt lat="45.96091" lon="6.78034">
        <ele>1562</ele>
        <time>2022-07-21T15:27:22Z</time>
      </trkpt>
      <trkpt lat="45.96092" lon="6.78023">
        <ele>1563</ele>
        <time>2022-07-21T15:27:34Z</time>
      </trkpt>
      <trkpt lat="45.96093" lon="6.78014">
        <ele>1564</ele>
        <time>2022-07-21T15:27:42Z</time>
      </trkpt>
      <trkpt lat="45.96095" lon="6.78006">
        <ele>1564</ele>
        <time>2022-07-21T15:27:52Z</time>
      </trkpt>
      <trkpt lat="45.96092" lon="6.78003">
        <ele>1565</ele>
        <time>2022-07-21T15:27:58Z</time>
      </trkpt>
      <trkpt lat="45.96093" lon="6.77993">
        <ele>1565</ele>
        <time>2022-07-21T15:28:08Z</time>
      </trkpt>
      <trkpt lat="45.96094" lon="6.77982">
        <ele>1565</ele>
        <time>2022-07-21T15:28:19Z</time>
      </trkpt>
      <trkpt lat="45.96092" lon="6.77977">
        <ele>1565</ele>
        <time>2022-07-21T15:28:25Z</time>
      </trkpt>
      <trkpt lat="45.9609" lon="6.7797">
        <ele>1564</ele>
        <time>2022-07-21T15:28:40Z</time>
      </trkpt>
      <trkpt lat="45.96086" lon="6.77966">
        <ele>1564</ele>
        <time>2022-07-21T15:28:45Z</time>
      </trkpt>
      <trkpt lat="45.96083" lon="6.77963">
        <ele>1564</ele>
        <time>2022-07-21T15:28:49Z</time>
      </trkpt>
      <trkpt lat="45.96075" lon="6.77944">
        <ele>1564</ele>
        <time>2022-07-21T15:29:04Z</time>
      </trkpt>
      <trkpt lat="45.96071" lon="6.77938">
        <ele>1565</ele>
        <time>2022-07-21T15:29:12Z</time>
      </trkpt>
      <trkpt lat="45.96066" lon="6.77935">
        <ele>1565</ele>
        <time>2022-07-21T15:29:17Z</time>
      </trkpt>
      <trkpt lat="45.96056" lon="6.77933">
        <ele>1565</ele>
        <time>2022-07-21T15:29:24Z</time>
      </trkpt>
      <trkpt lat="45.9604" lon="6.77923">
        <ele>1566</ele>
        <time>2022-07-21T15:29:42Z</time>
      </trkpt>
      <trkpt lat="45.96035" lon="6.77922">
        <ele>1566</ele>
        <time>2022-07-21T15:29:53Z</time>
      </trkpt>
      <trkpt lat="45.9603" lon="6.77914">
        <ele>1567</ele>
        <time>2022-07-21T15:30:04Z</time>
      </trkpt>
      <trkpt lat="45.96027" lon="6.7791">
        <ele>1567</ele>
        <time>2022-07-21T15:30:09Z</time>
      </trkpt>
      <trkpt lat="45.9602" lon="6.77898">
        <ele>1567</ele>
        <time>2022-07-21T15:30:20Z</time>
      </trkpt>
      <trkpt lat="45.96005" lon="6.77889">
        <ele>1568</ele>
        <time>2022-07-21T15:30:38Z</time>
      </trkpt>
      <trkpt lat="45.96001" lon="6.77886">
        <ele>1569</ele>
        <time>2022-07-21T15:30:45Z</time>
      </trkpt>
      <trkpt lat="45.95995" lon="6.77883">
        <ele>1571</ele>
        <time>2022-07-21T15:31:01Z</time>
      </trkpt>
      <trkpt lat="45.95991" lon="6.77881">
        <ele>1571</ele>
        <time>2022-07-21T15:31:07Z</time>
      </trkpt>
      <trkpt lat="45.95987" lon="6.77886">
        <ele>1572</ele>
        <time>2022-07-21T15:31:12Z</time>
      </trkpt>
      <trkpt lat="45.95983" lon="6.77886">
        <ele>1572</ele>
        <time>2022-07-21T15:31:19Z</time>
      </trkpt>
      <trkpt lat="45.9598" lon="6.77882">
        <ele>1572</ele>
        <time>2022-07-21T15:31:24Z</time>
      </trkpt>
      <trkpt lat="45.95965" lon="6.77876">
        <ele>1569</ele>
        <time>2022-07-21T15:31:40Z</time>
      </trkpt>
      <trkpt lat="45.95956" lon="6.77873">
        <ele>1568</ele>
        <time>2022-07-21T15:31:49Z</time>
      </trkpt>
      <trkpt lat="45.95943" lon="6.77871">
        <ele>1568</ele>
        <time>2022-07-21T15:32:01Z</time>
      </trkpt>
      <trkpt lat="45.95934" lon="6.77866">
        <ele>1567</ele>
        <time>2022-07-21T15:32:10Z</time>
      </trkpt>
      <trkpt lat="45.9593" lon="6.77868">
        <ele>1567</ele>
        <time>2022-07-21T15:32:14Z</time>
      </trkpt>
      <trkpt lat="45.95917" lon="6.77867">
        <ele>1567</ele>
        <time>2022-07-21T15:32:27Z</time>
      </trkpt>
      <trkpt lat="45.9591" lon="6.77867">
        <ele>1567</ele>
        <time>2022-07-21T15:32:33Z</time>
      </trkpt>
      <trkpt lat="45.95904" lon="6.77865">
        <ele>1566</ele>
        <time>2022-07-21T15:32:40Z</time>
      </trkpt>
      <trkpt lat="45.959" lon="6.77862">
        <ele>1565</ele>
        <time>2022-07-21T15:32:45Z</time>
      </trkpt>
      <trkpt lat="45.95897" lon="6.77858">
        <ele>1565</ele>
        <time>2022-07-21T15:32:49Z</time>
      </trkpt>
      <trkpt lat="45.95892" lon="6.77855">
        <ele>1565</ele>
        <time>2022-07-21T15:32:54Z</time>
      </trkpt>
      <trkpt lat="45.9589" lon="6.7784">
        <ele>1563</ele>
        <time>2022-07-21T15:33:05Z</time>
      </trkpt>
      <trkpt lat="45.95898" lon="6.77827">
        <ele>1559</ele>
        <time>2022-07-21T15:33:20Z</time>
      </trkpt>
      <trkpt lat="45.95901" lon="6.7782">
        <ele>1558</ele>
        <time>2022-07-21T15:33:27Z</time>
      </trkpt>
      <trkpt lat="45.95902" lon="6.77813">
        <ele>1557</ele>
        <time>2022-07-21T15:33:31Z</time>
      </trkpt>
      <trkpt lat="45.959" lon="6.77804">
        <ele>1557</ele>
        <time>2022-07-21T15:33:37Z</time>
      </trkpt>
      <trkpt lat="45.95891" lon="6.77798">
        <ele>1556</ele>
        <time>2022-07-21T15:33:45Z</time>
      </trkpt>
      <trkpt lat="45.95886" lon="6.77796">
        <ele>1555</ele>
        <time>2022-07-21T15:33:54Z</time>
      </trkpt>
      <trkpt lat="45.95877" lon="6.7779">
        <ele>1555</ele>
        <time>2022-07-21T15:34:04Z</time>
      </trkpt>
      <trkpt lat="45.95875" lon="6.77783">
        <ele>1554</ele>
        <time>2022-07-21T15:34:10Z</time>
      </trkpt>
      <trkpt lat="45.95871" lon="6.77777">
        <ele>1553</ele>
        <time>2022-07-21T15:34:16Z</time>
      </trkpt>
      <trkpt lat="45.95867" lon="6.77767">
        <ele>1552</ele>
        <time>2022-07-21T15:34:25Z</time>
      </trkpt>
      <trkpt lat="45.95862" lon="6.77764">
        <ele>1552</ele>
        <time>2022-07-21T15:34:30Z</time>
      </trkpt>
      <trkpt lat="45.9586" lon="6.77758">
        <ele>1551</ele>
        <time>2022-07-21T15:34:34Z</time>
      </trkpt>
      <trkpt lat="45.95858" lon="6.77752">
        <ele>1551</ele>
        <time>2022-07-21T15:34:39Z</time>
      </trkpt>
      <trkpt lat="45.95856" lon="6.77745">
        <ele>1550</ele>
        <time>2022-07-21T15:34:46Z</time>
      </trkpt>
      <trkpt lat="45.95858" lon="6.77724">
        <ele>1547</ele>
        <time>2022-07-21T15:35:03Z</time>
      </trkpt>
      <trkpt lat="45.95858" lon="6.77701">
        <ele>1545</ele>
        <time>2022-07-21T15:35:18Z</time>
      </trkpt>
      <trkpt lat="45.95859" lon="6.77694">
        <ele>1544</ele>
        <time>2022-07-21T15:35:25Z</time>
      </trkpt>
      <trkpt lat="45.95864" lon="6.77685">
        <ele>1542</ele>
        <time>2022-07-21T15:35:34Z</time>
      </trkpt>
      <trkpt lat="45.95867" lon="6.77679">
        <ele>1541</ele>
        <time>2022-07-21T15:35:39Z</time>
      </trkpt>
      <trkpt lat="45.95865" lon="6.7767">
        <ele>1541</ele>
        <time>2022-07-21T15:35:45Z</time>
      </trkpt>
      <trkpt lat="45.95863" lon="6.77665">
        <ele>1540</ele>
        <time>2022-07-21T15:35:50Z</time>
      </trkpt>
      <trkpt lat="45.95858" lon="6.77663">
        <ele>1539</ele>
        <time>2022-07-21T15:35:55Z</time>
      </trkpt>
      <trkpt lat="45.95833" lon="6.77686">
        <ele>1533</ele>
        <time>2022-07-21T15:36:31Z</time>
      </trkpt>
      <trkpt lat="45.95825" lon="6.77693">
        <ele>1531</ele>
        <time>2022-07-21T15:36:41Z</time>
      </trkpt>
      <trkpt lat="45.95812" lon="6.77692">
        <ele>1529</ele>
        <time>2022-07-21T15:36:56Z</time>
      </trkpt>
      <trkpt lat="45.95807" lon="6.7769">
        <ele>1529</ele>
        <time>2022-07-21T15:37:01Z</time>
      </trkpt>
      <trkpt lat="45.95804" lon="6.77683">
        <ele>1528</ele>
        <time>2022-07-21T15:37:07Z</time>
      </trkpt>
      <trkpt lat="45.95803" lon="6.77676">
        <ele>1526</ele>
        <time>2022-07-21T15:37:13Z</time>
      </trkpt>
      <trkpt lat="45.95803" lon="6.77668">
        <ele>1525</ele>
        <time>2022-07-21T15:37:20Z</time>
      </trkpt>
      <trkpt lat="45.95806" lon="6.7766">
        <ele>1523</ele>
        <time>2022-07-21T15:37:31Z</time>
      </trkpt>
      <trkpt lat="45.95796" lon="6.7765">
        <ele>1521</ele>
        <time>2022-07-21T15:37:45Z</time>
      </trkpt>
      <trkpt lat="45.95789" lon="6.77653">
        <ele>1520</ele>
        <time>2022-07-21T15:37:50Z</time>
      </trkpt>
      <trkpt lat="45.95781" lon="6.77619">
        <ele>1516</ele>
        <time>2022-07-21T15:38:16Z</time>
      </trkpt>
      <trkpt lat="45.95781" lon="6.77612">
        <ele>1516</ele>
        <time>2022-07-21T15:38:21Z</time>
      </trkpt>
      <trkpt lat="45.95781" lon="6.77605">
        <ele>1515</ele>
        <time>2022-07-21T15:38:27Z</time>
      </trkpt>
      <trkpt lat="45.95787" lon="6.77592">
        <ele>1513</ele>
        <time>2022-07-21T15:38:41Z</time>
      </trkpt>
      <trkpt lat="45.95792" lon="6.77585">
        <ele>1513</ele>
        <time>2022-07-21T15:38:44Z</time>
      </trkpt>
      <trkpt lat="45.95793" lon="6.77576">
        <ele>1513</ele>
        <time>2022-07-21T15:38:48Z</time>
      </trkpt>
      <trkpt lat="45.95794" lon="6.77568">
        <ele>1513</ele>
        <time>2022-07-21T15:38:54Z</time>
      </trkpt>
      <trkpt lat="45.95795" lon="6.77552">
        <ele>1513</ele>
        <time>2022-07-21T15:39:05Z</time>
      </trkpt>
      <trkpt lat="45.95793" lon="6.77541">
        <ele>1512</ele>
        <time>2022-07-21T15:39:10Z</time>
      </trkpt>
      <trkpt lat="45.95797" lon="6.77528">
        <ele>1511</ele>
        <time>2022-07-21T15:39:20Z</time>
      </trkpt>
      <trkpt lat="45.95795" lon="6.77517">
        <ele>1511</ele>
        <time>2022-07-21T15:39:27Z</time>
      </trkpt>
      <trkpt lat="45.9579" lon="6.77513">
        <ele>1511</ele>
        <time>2022-07-21T15:39:32Z</time>
      </trkpt>
      <trkpt lat="45.95783" lon="6.77494">
        <ele>1510</ele>
        <time>2022-07-21T15:39:43Z</time>
      </trkpt>
      <trkpt lat="45.95778" lon="6.77488">
        <ele>1509</ele>
        <time>2022-07-21T15:39:51Z</time>
      </trkpt>
      <trkpt lat="45.95773" lon="6.77474">
        <ele>1509</ele>
        <time>2022-07-21T15:40:01Z</time>
      </trkpt>
      <trkpt lat="45.95769" lon="6.77466">
        <ele>1508</ele>
        <time>2022-07-21T15:40:08Z</time>
      </trkpt>
      <trkpt lat="45.95769" lon="6.77459">
        <ele>1508</ele>
        <time>2022-07-21T15:40:13Z</time>
      </trkpt>
      <trkpt lat="45.95766" lon="6.77456">
        <ele>1508</ele>
        <time>2022-07-21T15:40:20Z</time>
      </trkpt>
      <trkpt lat="45.95755" lon="6.77437">
        <ele>1506</ele>
        <time>2022-07-21T15:40:36Z</time>
      </trkpt>
      <trkpt lat="45.95744" lon="6.77429">
        <ele>1506</ele>
        <time>2022-07-21T15:40:47Z</time>
      </trkpt>
      <trkpt lat="45.95734" lon="6.77427">
        <ele>1505</ele>
        <time>2022-07-21T15:40:58Z</time>
      </trkpt>
      <trkpt lat="45.95725" lon="6.77415">
        <ele>1503</ele>
        <time>2022-07-21T15:41:13Z</time>
      </trkpt>
      <trkpt lat="45.95716" lon="6.77418">
        <ele>1502</ele>
        <time>2022-07-21T15:41:19Z</time>
      </trkpt>
      <trkpt lat="45.95713" lon="6.77423">
        <ele>1501</ele>
        <time>2022-07-21T15:41:24Z</time>
      </trkpt>
      <trkpt lat="45.95704" lon="6.77429">
        <ele>1500</ele>
        <time>2022-07-21T15:41:38Z</time>
      </trkpt>
      <trkpt lat="45.95697" lon="6.77435">
        <ele>1498</ele>
        <time>2022-07-21T15:41:48Z</time>
      </trkpt>
      <trkpt lat="45.95684" lon="6.77428">
        <ele>1496</ele>
        <time>2022-07-21T15:42:01Z</time>
      </trkpt>
      <trkpt lat="45.95679" lon="6.77417">
        <ele>1495</ele>
        <time>2022-07-21T15:42:10Z</time>
      </trkpt>
      <trkpt lat="45.95671" lon="6.7741">
        <ele>1494</ele>
        <time>2022-07-21T15:42:19Z</time>
      </trkpt>
      <trkpt lat="45.95656" lon="6.77401">
        <ele>1491</ele>
        <time>2022-07-21T15:42:41Z</time>
      </trkpt>
      <trkpt lat="45.95646" lon="6.77393">
        <ele>1490</ele>
        <time>2022-07-21T15:42:53Z</time>
      </trkpt>
      <trkpt lat="45.95643" lon="6.77386">
        <ele>1488</ele>
        <time>2022-07-21T15:42:59Z</time>
      </trkpt>
      <trkpt lat="45.95642" lon="6.77379">
        <ele>1488</ele>
        <time>2022-07-21T15:43:03Z</time>
      </trkpt>
      <trkpt lat="45.95643" lon="6.77373">
        <ele>1487</ele>
        <time>2022-07-21T15:43:08Z</time>
      </trkpt>
      <trkpt lat="45.95642" lon="6.77366">
        <ele>1486</ele>
        <time>2022-07-21T15:43:15Z</time>
      </trkpt>
      <trkpt lat="45.95641" lon="6.77359">
        <ele>1484</ele>
        <time>2022-07-21T15:43:27Z</time>
      </trkpt>
      <trkpt lat="45.95642" lon="6.77351">
        <ele>1483</ele>
        <time>2022-07-21T15:43:31Z</time>
      </trkpt>
      <trkpt lat="45.95639" lon="6.77345">
        <ele>1483</ele>
        <time>2022-07-21T15:43:36Z</time>
      </trkpt>
      <trkpt lat="45.95641" lon="6.77339">
        <ele>1482</ele>
        <time>2022-07-21T15:43:42Z</time>
      </trkpt>
      <trkpt lat="45.9564" lon="6.77332">
        <ele>1481</ele>
        <time>2022-07-21T15:43:46Z</time>
      </trkpt>
      <trkpt lat="45.95638" lon="6.77328">
        <ele>1480</ele>
        <time>2022-07-21T15:43:51Z</time>
      </trkpt>
      <trkpt lat="45.95637" lon="6.77318">
        <ele>1479</ele>
        <time>2022-07-21T15:44:00Z</time>
      </trkpt>
      <trkpt lat="45.95634" lon="6.77311">
        <ele>1478</ele>
        <time>2022-07-21T15:44:07Z</time>
      </trkpt>
      <trkpt lat="45.95627" lon="6.77287">
        <ele>1475</ele>
        <time>2022-07-21T15:44:27Z</time>
      </trkpt>
      <trkpt lat="45.95627" lon="6.77279">
        <ele>1474</ele>
        <time>2022-07-21T15:44:32Z</time>
      </trkpt>
      <trkpt lat="45.95626" lon="6.77266">
        <ele>1473</ele>
        <time>2022-07-21T15:44:41Z</time>
      </trkpt>
      <trkpt lat="45.95624" lon="6.7726">
        <ele>1473</ele>
        <time>2022-07-21T15:44:43Z</time>
      </trkpt>
      <trkpt lat="45.95623" lon="6.77251">
        <ele>1472</ele>
        <time>2022-07-21T15:44:47Z</time>
      </trkpt>
      <trkpt lat="45.95621" lon="6.77246">
        <ele>1472</ele>
        <time>2022-07-21T15:44:52Z</time>
      </trkpt>
      <trkpt lat="45.95621" lon="6.77238">
        <ele>1472</ele>
        <time>2022-07-21T15:45:03Z</time>
      </trkpt>
      <trkpt lat="45.95623" lon="6.7723">
        <ele>1472</ele>
        <time>2022-07-21T15:45:06Z</time>
      </trkpt>
      <trkpt lat="45.95623" lon="6.77222">
        <ele>1471</ele>
        <time>2022-07-21T15:45:14Z</time>
      </trkpt>
      <trkpt lat="45.95621" lon="6.77215">
        <ele>1471</ele>
        <time>2022-07-21T15:45:18Z</time>
      </trkpt>
      <trkpt lat="45.95612" lon="6.77203">
        <ele>1469</ele>
        <time>2022-07-21T15:45:31Z</time>
      </trkpt>
      <trkpt lat="45.95607" lon="6.77188">
        <ele>1468</ele>
        <time>2022-07-21T15:45:40Z</time>
      </trkpt>
      <trkpt lat="45.95606" lon="6.77178">
        <ele>1467</ele>
        <time>2022-07-21T15:45:49Z</time>
      </trkpt>
      <trkpt lat="45.95609" lon="6.77167">
        <ele>1467</ele>
        <time>2022-07-21T15:45:57Z</time>
      </trkpt>
      <trkpt lat="45.95606" lon="6.77149">
        <ele>1465</ele>
        <time>2022-07-21T15:46:10Z</time>
      </trkpt>
      <trkpt lat="45.95597" lon="6.77145">
        <ele>1463</ele>
        <time>2022-07-21T15:46:19Z</time>
      </trkpt>
      <trkpt lat="45.95593" lon="6.77142">
        <ele>1463</ele>
        <time>2022-07-21T15:46:22Z</time>
      </trkpt>
      <trkpt lat="45.95587" lon="6.7714">
        <ele>1463</ele>
        <time>2022-07-21T15:46:30Z</time>
      </trkpt>
      <trkpt lat="45.95584" lon="6.77135">
        <ele>1462</ele>
        <time>2022-07-21T15:46:34Z</time>
      </trkpt>
      <trkpt lat="45.95575" lon="6.77129">
        <ele>1462</ele>
        <time>2022-07-21T15:46:43Z</time>
      </trkpt>
      <trkpt lat="45.95571" lon="6.77124">
        <ele>1461</ele>
        <time>2022-07-21T15:46:51Z</time>
      </trkpt>
      <trkpt lat="45.9557" lon="6.77117">
        <ele>1460</ele>
        <time>2022-07-21T15:46:54Z</time>
      </trkpt>
      <trkpt lat="45.95566" lon="6.77113">
        <ele>1460</ele>
        <time>2022-07-21T15:46:57Z</time>
      </trkpt>
      <trkpt lat="45.95562" lon="6.77107">
        <ele>1459</ele>
        <time>2022-07-21T15:47:04Z</time>
      </trkpt>
      <trkpt lat="45.95556" lon="6.77103">
        <ele>1458</ele>
        <time>2022-07-21T15:47:10Z</time>
      </trkpt>
      <trkpt lat="45.95549" lon="6.77102">
        <ele>1457</ele>
        <time>2022-07-21T15:47:16Z</time>
      </trkpt>
      <trkpt lat="45.95545" lon="6.77106">
        <ele>1457</ele>
        <time>2022-07-21T15:47:21Z</time>
      </trkpt>
      <trkpt lat="45.95541" lon="6.77102">
        <ele>1456</ele>
        <time>2022-07-21T15:47:29Z</time>
      </trkpt>
      <trkpt lat="45.95538" lon="6.77092">
        <ele>1454</ele>
        <time>2022-07-21T15:47:40Z</time>
      </trkpt>
      <trkpt lat="45.9554" lon="6.77084">
        <ele>1453</ele>
        <time>2022-07-21T15:47:47Z</time>
      </trkpt>
      <trkpt lat="45.95538" lon="6.77074">
        <ele>1452</ele>
        <time>2022-07-21T15:47:57Z</time>
      </trkpt>
      <trkpt lat="45.95528" lon="6.7706">
        <ele>1450</ele>
        <time>2022-07-21T15:48:10Z</time>
      </trkpt>
      <trkpt lat="45.95526" lon="6.77054">
        <ele>1449</ele>
        <time>2022-07-21T15:48:17Z</time>
      </trkpt>
      <trkpt lat="45.95522" lon="6.77049">
        <ele>1448</ele>
        <time>2022-07-21T15:48:23Z</time>
      </trkpt>
      <trkpt lat="45.9552" lon="6.77043">
        <ele>1447</ele>
        <time>2022-07-21T15:48:28Z</time>
      </trkpt>
      <trkpt lat="45.95513" lon="6.77034">
        <ele>1446</ele>
        <time>2022-07-21T15:48:37Z</time>
      </trkpt>
      <trkpt lat="45.95503" lon="6.77026">
        <ele>1445</ele>
        <time>2022-07-21T15:48:49Z</time>
      </trkpt>
      <trkpt lat="45.95496" lon="6.77026">
        <ele>1443</ele>
        <time>2022-07-21T15:48:59Z</time>
      </trkpt>
      <trkpt lat="45.95478" lon="6.77019">
        <ele>1441</ele>
        <time>2022-07-21T15:49:18Z</time>
      </trkpt>
      <trkpt lat="45.95467" lon="6.77013">
        <ele>1439</ele>
        <time>2022-07-21T15:49:31Z</time>
      </trkpt>
      <trkpt lat="45.95458" lon="6.77008">
        <ele>1437</ele>
        <time>2022-07-21T15:49:44Z</time>
      </trkpt>
      <trkpt lat="45.95454" lon="6.77011">
        <ele>1436</ele>
        <time>2022-07-21T15:49:50Z</time>
      </trkpt>
      <trkpt lat="45.95431" lon="6.77013">
        <ele>1434</ele>
        <time>2022-07-21T15:50:12Z</time>
      </trkpt>
      <trkpt lat="45.95426" lon="6.77011">
        <ele>1433</ele>
        <time>2022-07-21T15:50:19Z</time>
      </trkpt>
      <trkpt lat="45.95421" lon="6.77007">
        <ele>1433</ele>
        <time>2022-07-21T15:50:25Z</time>
      </trkpt>
      <trkpt lat="45.95416" lon="6.77004">
        <ele>1432</ele>
        <time>2022-07-21T15:50:32Z</time>
      </trkpt>
      <trkpt lat="45.95408" lon="6.77003">
        <ele>1430</ele>
        <time>2022-07-21T15:50:42Z</time>
      </trkpt>
      <trkpt lat="45.95404" lon="6.77001">
        <ele>1430</ele>
        <time>2022-07-21T15:50:47Z</time>
      </trkpt>
      <trkpt lat="45.95398" lon="6.77002">
        <ele>1429</ele>
        <time>2022-07-21T15:50:54Z</time>
      </trkpt>
      <trkpt lat="45.95394" lon="6.76996">
        <ele>1426</ele>
        <time>2022-07-21T15:51:05Z</time>
      </trkpt>
      <trkpt lat="45.95391" lon="6.76979">
        <ele>1424</ele>
        <time>2022-07-21T15:51:19Z</time>
      </trkpt>
      <trkpt lat="45.95389" lon="6.76973">
        <ele>1424</ele>
        <time>2022-07-21T15:51:24Z</time>
      </trkpt>
      <trkpt lat="45.95387" lon="6.7696">
        <ele>1423</ele>
        <time>2022-07-21T15:51:32Z</time>
      </trkpt>
      <trkpt lat="45.95381" lon="6.76941">
        <ele>1422</ele>
        <time>2022-07-21T15:51:45Z</time>
      </trkpt>
      <trkpt lat="45.95377" lon="6.76938">
        <ele>1422</ele>
        <time>2022-07-21T15:51:49Z</time>
      </trkpt>
      <trkpt lat="45.95371" lon="6.76911">
        <ele>1422</ele>
        <time>2022-07-21T15:52:09Z</time>
      </trkpt>
      <trkpt lat="45.95373" lon="6.76902">
        <ele>1421</ele>
        <time>2022-07-21T15:52:16Z</time>
      </trkpt>
      <trkpt lat="45.9537" lon="6.76893">
        <ele>1420</ele>
        <time>2022-07-21T15:52:22Z</time>
      </trkpt>
      <trkpt lat="45.95368" lon="6.76879">
        <ele>1418</ele>
        <time>2022-07-21T15:52:34Z</time>
      </trkpt>
      <trkpt lat="45.95366" lon="6.76873">
        <ele>1418</ele>
        <time>2022-07-21T15:52:37Z</time>
      </trkpt>
      <trkpt lat="45.95362" lon="6.7686">
        <ele>1417</ele>
        <time>2022-07-21T15:52:46Z</time>
      </trkpt>
      <trkpt lat="45.95358" lon="6.76854">
        <ele>1417</ele>
        <time>2022-07-21T15:52:51Z</time>
      </trkpt>
      <trkpt lat="45.95356" lon="6.76845">
        <ele>1417</ele>
        <time>2022-07-21T15:53:00Z</time>
      </trkpt>
      <trkpt lat="45.95355" lon="6.76838">
        <ele>1417</ele>
        <time>2022-07-21T15:53:05Z</time>
      </trkpt>
      <trkpt lat="45.95356" lon="6.76823">
        <ele>1415</ele>
        <time>2022-07-21T15:53:17Z</time>
      </trkpt>
      <trkpt lat="45.95351" lon="6.76817">
        <ele>1415</ele>
        <time>2022-07-21T15:53:20Z</time>
      </trkpt>
      <trkpt lat="45.95347" lon="6.76812">
        <ele>1414</ele>
        <time>2022-07-21T15:53:28Z</time>
      </trkpt>
      <trkpt lat="45.95344" lon="6.76805">
        <ele>1414</ele>
        <time>2022-07-21T15:53:33Z</time>
      </trkpt>
      <trkpt lat="45.95345" lon="6.76796">
        <ele>1413</ele>
        <time>2022-07-21T15:53:37Z</time>
      </trkpt>
      <trkpt lat="45.95343" lon="6.7679">
        <ele>1413</ele>
        <time>2022-07-21T15:53:41Z</time>
      </trkpt>
      <trkpt lat="45.95332" lon="6.76775">
        <ele>1412</ele>
        <time>2022-07-21T15:53:56Z</time>
      </trkpt>
      <trkpt lat="45.95326" lon="6.76772">
        <ele>1411</ele>
        <time>2022-07-21T15:54:02Z</time>
      </trkpt>
      <trkpt lat="45.95329" lon="6.76763">
        <ele>1411</ele>
        <time>2022-07-21T15:54:05Z</time>
      </trkpt>
      <trkpt lat="45.95326" lon="6.76746">
        <ele>1411</ele>
        <time>2022-07-21T15:54:17Z</time>
      </trkpt>
      <trkpt lat="45.9532" lon="6.76738">
        <ele>1411</ele>
        <time>2022-07-21T15:54:24Z</time>
      </trkpt>
      <trkpt lat="45.95317" lon="6.76731">
        <ele>1411</ele>
        <time>2022-07-21T15:54:29Z</time>
      </trkpt>
      <trkpt lat="45.9531" lon="6.76726">
        <ele>1411</ele>
        <time>2022-07-21T15:54:35Z</time>
      </trkpt>
      <trkpt lat="45.95308" lon="6.76713">
        <ele>1411</ele>
        <time>2022-07-21T15:54:44Z</time>
      </trkpt>
      <trkpt lat="45.95302" lon="6.76703">
        <ele>1412</ele>
        <time>2022-07-21T15:54:55Z</time>
      </trkpt>
      <trkpt lat="45.95295" lon="6.76697">
        <ele>1412</ele>
        <time>2022-07-21T15:55:03Z</time>
      </trkpt>
      <trkpt lat="45.95291" lon="6.76694">
        <ele>1412</ele>
        <time>2022-07-21T15:55:11Z</time>
      </trkpt>
      <trkpt lat="45.95276" lon="6.76679">
        <ele>1413</ele>
        <time>2022-07-21T15:55:31Z</time>
      </trkpt>
      <trkpt lat="45.95273" lon="6.76672">
        <ele>1414</ele>
        <time>2022-07-21T15:55:42Z</time>
      </trkpt>
      <trkpt lat="45.9527" lon="6.76658">
        <ele>1415</ele>
        <time>2022-07-21T15:55:54Z</time>
      </trkpt>
      <trkpt lat="45.95259" lon="6.76651">
        <ele>1415</ele>
        <time>2022-07-21T15:56:06Z</time>
      </trkpt>
      <trkpt lat="45.95257" lon="6.76636">
        <ele>1416</ele>
        <time>2022-07-21T15:56:14Z</time>
      </trkpt>
      <trkpt lat="45.95247" lon="6.76627">
        <ele>1416</ele>
        <time>2022-07-21T15:56:26Z</time>
      </trkpt>
      <trkpt lat="45.95245" lon="6.76619">
        <ele>1416</ele>
        <time>2022-07-21T15:56:35Z</time>
      </trkpt>
      <trkpt lat="45.95239" lon="6.76602">
        <ele>1416</ele>
        <time>2022-07-21T15:56:49Z</time>
      </trkpt>
      <trkpt lat="45.95229" lon="6.76588">
        <ele>1416</ele>
        <time>2022-07-21T15:57:03Z</time>
      </trkpt>
      <trkpt lat="45.95218" lon="6.76582">
        <ele>1417</ele>
        <time>2022-07-21T15:57:15Z</time>
      </trkpt>
      <trkpt lat="45.95217" lon="6.76575">
        <ele>1417</ele>
        <time>2022-07-21T15:57:23Z</time>
      </trkpt>
      <trkpt lat="45.95212" lon="6.76568">
        <ele>1418</ele>
        <time>2022-07-21T15:57:33Z</time>
      </trkpt>
      <trkpt lat="45.95212" lon="6.76561">
        <ele>1419</ele>
        <time>2022-07-21T15:57:40Z</time>
      </trkpt>
      <trkpt lat="45.95207" lon="6.7655">
        <ele>1419</ele>
        <time>2022-07-21T15:57:50Z</time>
      </trkpt>
      <trkpt lat="45.95205" lon="6.76542">
        <ele>1420</ele>
        <time>2022-07-21T15:57:58Z</time>
      </trkpt>
      <trkpt lat="45.952" lon="6.76536">
        <ele>1420</ele>
        <time>2022-07-21T15:58:08Z</time>
      </trkpt>
      <trkpt lat="45.95197" lon="6.76527">
        <ele>1421</ele>
        <time>2022-07-21T15:58:13Z</time>
      </trkpt>
      <trkpt lat="45.95193" lon="6.76522">
        <ele>1421</ele>
        <time>2022-07-21T15:58:17Z</time>
      </trkpt>
      <trkpt lat="45.95193" lon="6.76514">
        <ele>1421</ele>
        <time>2022-07-21T15:58:26Z</time>
      </trkpt>
      <trkpt lat="45.95189" lon="6.76501">
        <ele>1421</ele>
        <time>2022-07-21T15:58:35Z</time>
      </trkpt>
      <trkpt lat="45.95183" lon="6.76491">
        <ele>1421</ele>
        <time>2022-07-21T15:58:43Z</time>
      </trkpt>
      <trkpt lat="45.95178" lon="6.76487">
        <ele>1421</ele>
        <time>2022-07-21T15:58:49Z</time>
      </trkpt>
      <trkpt lat="45.95176" lon="6.76481">
        <ele>1421</ele>
        <time>2022-07-21T15:58:54Z</time>
      </trkpt>
      <trkpt lat="45.95166" lon="6.76471">
        <ele>1421</ele>
        <time>2022-07-21T15:59:05Z</time>
      </trkpt>
      <trkpt lat="45.9516" lon="6.76466">
        <ele>1422</ele>
        <time>2022-07-21T15:59:12Z</time>
      </trkpt>
      <trkpt lat="45.95157" lon="6.76459">
        <ele>1422</ele>
        <time>2022-07-21T15:59:19Z</time>
      </trkpt>
      <trkpt lat="45.95149" lon="6.76435">
        <ele>1422</ele>
        <time>2022-07-21T15:59:40Z</time>
      </trkpt>
      <trkpt lat="45.95148" lon="6.76428">
        <ele>1422</ele>
        <time>2022-07-21T15:59:45Z</time>
      </trkpt>
      <trkpt lat="45.95146" lon="6.76422">
        <ele>1421</ele>
        <time>2022-07-21T15:59:49Z</time>
      </trkpt>
      <trkpt lat="45.95144" lon="6.76417">
        <ele>1421</ele>
        <time>2022-07-21T15:59:53Z</time>
      </trkpt>
      <trkpt lat="45.95139" lon="6.7641">
        <ele>1421</ele>
        <time>2022-07-21T15:59:59Z</time>
      </trkpt>
      <trkpt lat="45.95137" lon="6.76401">
        <ele>1420</ele>
        <time>2022-07-21T16:00:06Z</time>
      </trkpt>
      <trkpt lat="45.9514" lon="6.76394">
        <ele>1420</ele>
        <time>2022-07-21T16:00:11Z</time>
      </trkpt>
      <trkpt lat="45.95141" lon="6.76385">
        <ele>1421</ele>
        <time>2022-07-21T16:00:19Z</time>
      </trkpt>
      <trkpt lat="45.95138" lon="6.76381">
        <ele>1421</ele>
        <time>2022-07-21T16:00:42Z</time>
      </trkpt>
      <trkpt lat="45.95135" lon="6.76376">
        <ele>1420</ele>
        <time>2022-07-21T16:00:47Z</time>
      </trkpt>
      <trkpt lat="45.95138" lon="6.7638">
        <ele>1419</ele>
        <time>2022-07-21T16:03:18Z</time>
      </trkpt>
      <trkpt lat="45.95144" lon="6.7638">
        <ele>1419</ele>
        <time>2022-07-21T16:03:28Z</time>
      </trkpt>
      <trkpt lat="45.95147" lon="6.76383">
        <ele>1417</ele>
        <time>2022-07-21T16:07:53Z</time>
      </trkpt>
      <trkpt lat="45.95147" lon="6.76375">
        <ele>1417</ele>
        <time>2022-07-21T16:09:34Z</time>
      </trkpt>
      <trkpt lat="45.9514" lon="6.76383">
        <ele>1417</ele>
        <time>2022-07-21T16:13:11Z</time>
      </trkpt>
      <trkpt lat="45.95136" lon="6.76379">
        <ele>1416</ele>
        <time>2022-07-21T16:13:38Z</time>
      </trkpt>
      <trkpt lat="45.95134" lon="6.76384">
        <ele>1416</ele>
        <time>2022-07-21T16:13:42Z</time>
      </trkpt>
      <trkpt lat="45.9513" lon="6.76376">
        <ele>1416</ele>
        <time>2022-07-21T16:13:48Z</time>
      </trkpt>
      <trkpt lat="45.95129" lon="6.7637">
        <ele>1416</ele>
        <time>2022-07-21T16:13:52Z</time>
      </trkpt>
      <trkpt lat="45.95123" lon="6.76359">
        <ele>1416</ele>
        <time>2022-07-21T16:14:01Z</time>
      </trkpt>
      <trkpt lat="45.95121" lon="6.76353">
        <ele>1416</ele>
        <time>2022-07-21T16:14:06Z</time>
      </trkpt>
      <trkpt lat="45.95112" lon="6.76348">
        <ele>1415</ele>
        <time>2022-07-21T16:14:18Z</time>
      </trkpt>
      <trkpt lat="45.95108" lon="6.76343">
        <ele>1414</ele>
        <time>2022-07-21T16:14:25Z</time>
      </trkpt>
      <trkpt lat="45.95093" lon="6.76301">
        <ele>1412</ele>
        <time>2022-07-21T16:14:56Z</time>
      </trkpt>
      <trkpt lat="45.95091" lon="6.76288">
        <ele>1411</ele>
        <time>2022-07-21T16:15:05Z</time>
      </trkpt>
      <trkpt lat="45.9509" lon="6.76271">
        <ele>1409</ele>
        <time>2022-07-21T16:15:20Z</time>
      </trkpt>
      <trkpt lat="45.95089" lon="6.76264">
        <ele>1409</ele>
        <time>2022-07-21T16:15:24Z</time>
      </trkpt>
      <trkpt lat="45.95087" lon="6.76258">
        <ele>1409</ele>
        <time>2022-07-21T16:15:28Z</time>
      </trkpt>
      <trkpt lat="45.95086" lon="6.76234">
        <ele>1408</ele>
        <time>2022-07-21T16:15:44Z</time>
      </trkpt>
      <trkpt lat="45.95083" lon="6.76226">
        <ele>1408</ele>
        <time>2022-07-21T16:15:50Z</time>
      </trkpt>
      <trkpt lat="45.95069" lon="6.76205">
        <ele>1407</ele>
        <time>2022-07-21T16:16:09Z</time>
      </trkpt>
      <trkpt lat="45.95057" lon="6.76194">
        <ele>1405</ele>
        <time>2022-07-21T16:16:22Z</time>
      </trkpt>
      <trkpt lat="45.95054" lon="6.7619">
        <ele>1405</ele>
        <time>2022-07-21T16:16:26Z</time>
      </trkpt>
      <trkpt lat="45.95051" lon="6.76184">
        <ele>1405</ele>
        <time>2022-07-21T16:16:31Z</time>
      </trkpt>
      <trkpt lat="45.95043" lon="6.76158">
        <ele>1404</ele>
        <time>2022-07-21T16:16:50Z</time>
      </trkpt>
      <trkpt lat="45.95031" lon="6.76129">
        <ele>1402</ele>
        <time>2022-07-21T16:17:14Z</time>
      </trkpt>
      <trkpt lat="45.95023" lon="6.76102">
        <ele>1399</ele>
        <time>2022-07-21T16:17:34Z</time>
      </trkpt>
      <trkpt lat="45.95023" lon="6.76095">
        <ele>1399</ele>
        <time>2022-07-21T16:17:40Z</time>
      </trkpt>
      <trkpt lat="45.95025" lon="6.76087">
        <ele>1399</ele>
        <time>2022-07-21T16:17:45Z</time>
      </trkpt>
      <trkpt lat="45.95034" lon="6.76065">
        <ele>1397</ele>
        <time>2022-07-21T16:18:03Z</time>
      </trkpt>
      <trkpt lat="45.95035" lon="6.76052">
        <ele>1396</ele>
        <time>2022-07-21T16:18:11Z</time>
      </trkpt>
      <trkpt lat="45.95054" lon="6.76026">
        <ele>1394</ele>
        <time>2022-07-21T16:18:35Z</time>
      </trkpt>
      <trkpt lat="45.95057" lon="6.76018">
        <ele>1394</ele>
        <time>2022-07-21T16:18:41Z</time>
      </trkpt>
      <trkpt lat="45.95059" lon="6.76">
        <ele>1393</ele>
        <time>2022-07-21T16:18:53Z</time>
      </trkpt>
      <trkpt lat="45.95058" lon="6.7599">
        <ele>1392</ele>
        <time>2022-07-21T16:19:01Z</time>
      </trkpt>
      <trkpt lat="45.95059" lon="6.75983">
        <ele>1392</ele>
        <time>2022-07-21T16:19:06Z</time>
      </trkpt>
      <trkpt lat="45.9506" lon="6.75967">
        <ele>1391</ele>
        <time>2022-07-21T16:19:17Z</time>
      </trkpt>
      <trkpt lat="45.95063" lon="6.7595">
        <ele>1390</ele>
        <time>2022-07-21T16:19:29Z</time>
      </trkpt>
      <trkpt lat="45.95075" lon="6.75927">
        <ele>1388</ele>
        <time>2022-07-21T16:19:50Z</time>
      </trkpt>
      <trkpt lat="45.95078" lon="6.75921">
        <ele>1388</ele>
        <time>2022-07-21T16:19:55Z</time>
      </trkpt>
      <trkpt lat="45.95087" lon="6.75914">
        <ele>1387</ele>
        <time>2022-07-21T16:20:07Z</time>
      </trkpt>
      <trkpt lat="45.9509" lon="6.75909">
        <ele>1386</ele>
        <time>2022-07-21T16:20:11Z</time>
      </trkpt>
      <trkpt lat="45.95097" lon="6.759">
        <ele>1386</ele>
        <time>2022-07-21T16:20:19Z</time>
      </trkpt>
      <trkpt lat="45.951" lon="6.75895">
        <ele>1385</ele>
        <time>2022-07-21T16:20:23Z</time>
      </trkpt>
      <trkpt lat="45.9511" lon="6.75888">
        <ele>1384</ele>
        <time>2022-07-21T16:20:36Z</time>
      </trkpt>
      <trkpt lat="45.95114" lon="6.75878">
        <ele>1383</ele>
        <time>2022-07-21T16:20:44Z</time>
      </trkpt>
      <trkpt lat="45.95128" lon="6.75846">
        <ele>1381</ele>
        <time>2022-07-21T16:21:09Z</time>
      </trkpt>
      <trkpt lat="45.95135" lon="6.75842">
        <ele>1381</ele>
        <time>2022-07-21T16:21:13Z</time>
      </trkpt>
      <trkpt lat="45.95144" lon="6.75828">
        <ele>1380</ele>
        <time>2022-07-21T16:21:22Z</time>
      </trkpt>
      <trkpt lat="45.95153" lon="6.75807">
        <ele>1378</ele>
        <time>2022-07-21T16:21:44Z</time>
      </trkpt>
      <trkpt lat="45.95159" lon="6.75805">
        <ele>1378</ele>
        <time>2022-07-21T16:21:51Z</time>
      </trkpt>
      <trkpt lat="45.95164" lon="6.75806">
        <ele>1377</ele>
        <time>2022-07-21T16:21:56Z</time>
      </trkpt>
      <trkpt lat="45.95172" lon="6.75804">
        <ele>1377</ele>
        <time>2022-07-21T16:22:04Z</time>
      </trkpt>
      <trkpt lat="45.95176" lon="6.75801">
        <ele>1377</ele>
        <time>2022-07-21T16:22:07Z</time>
      </trkpt>
      <trkpt lat="45.95184" lon="6.75789">
        <ele>1374</ele>
        <time>2022-07-21T16:22:21Z</time>
      </trkpt>
      <trkpt lat="45.95186" lon="6.7578">
        <ele>1373</ele>
        <time>2022-07-21T16:22:27Z</time>
      </trkpt>
      <trkpt lat="45.95185" lon="6.75773">
        <ele>1371</ele>
        <time>2022-07-21T16:22:40Z</time>
      </trkpt>
      <trkpt lat="45.95189" lon="6.75768">
        <ele>1370</ele>
        <time>2022-07-21T16:22:46Z</time>
      </trkpt>
      <trkpt lat="45.95191" lon="6.75757">
        <ele>1368</ele>
        <time>2022-07-21T16:22:57Z</time>
      </trkpt>
      <trkpt lat="45.95195" lon="6.75747">
        <ele>1366</ele>
        <time>2022-07-21T16:23:08Z</time>
      </trkpt>
      <trkpt lat="45.95198" lon="6.75741">
        <ele>1366</ele>
        <time>2022-07-21T16:23:11Z</time>
      </trkpt>
      <trkpt lat="45.95195" lon="6.75735">
        <ele>1366</ele>
        <time>2022-07-21T16:23:15Z</time>
      </trkpt>
      <trkpt lat="45.95202" lon="6.75729">
        <ele>1365</ele>
        <time>2022-07-21T16:23:26Z</time>
      </trkpt>
      <trkpt lat="45.95206" lon="6.75723">
        <ele>1365</ele>
        <time>2022-07-21T16:23:30Z</time>
      </trkpt>
      <trkpt lat="45.95212" lon="6.75716">
        <ele>1365</ele>
        <time>2022-07-21T16:23:38Z</time>
      </trkpt>
      <trkpt lat="45.95211" lon="6.75708">
        <ele>1365</ele>
        <time>2022-07-21T16:23:45Z</time>
      </trkpt>
      <trkpt lat="45.95213" lon="6.75697">
        <ele>1365</ele>
        <time>2022-07-21T16:23:51Z</time>
      </trkpt>
      <trkpt lat="45.95214" lon="6.75691">
        <ele>1365</ele>
        <time>2022-07-21T16:23:55Z</time>
      </trkpt>
      <trkpt lat="45.95214" lon="6.75683">
        <ele>1365</ele>
        <time>2022-07-21T16:24:00Z</time>
      </trkpt>
      <trkpt lat="45.95211" lon="6.75664">
        <ele>1365</ele>
        <time>2022-07-21T16:24:14Z</time>
      </trkpt>
      <trkpt lat="45.95211" lon="6.75646">
        <ele>1365</ele>
        <time>2022-07-21T16:24:25Z</time>
      </trkpt>
      <trkpt lat="45.95209" lon="6.7564">
        <ele>1365</ele>
        <time>2022-07-21T16:24:29Z</time>
      </trkpt>
      <trkpt lat="45.95211" lon="6.75629">
        <ele>1365</ele>
        <time>2022-07-21T16:24:40Z</time>
      </trkpt>
      <trkpt lat="45.95207" lon="6.75615">
        <ele>1365</ele>
        <time>2022-07-21T16:24:52Z</time>
      </trkpt>
      <trkpt lat="45.95207" lon="6.75608">
        <ele>1366</ele>
        <time>2022-07-21T16:24:56Z</time>
      </trkpt>
      <trkpt lat="45.95206" lon="6.75601">
        <ele>1366</ele>
        <time>2022-07-21T16:25:01Z</time>
      </trkpt>
      <trkpt lat="45.95213" lon="6.75578">
        <ele>1366</ele>
        <time>2022-07-21T16:25:20Z</time>
      </trkpt>
      <trkpt lat="45.95218" lon="6.75568">
        <ele>1366</ele>
        <time>2022-07-21T16:25:29Z</time>
      </trkpt>
      <trkpt lat="45.95224" lon="6.75565">
        <ele>1365</ele>
        <time>2022-07-21T16:25:34Z</time>
      </trkpt>
      <trkpt lat="45.95226" lon="6.7556">
        <ele>1365</ele>
        <time>2022-07-21T16:25:38Z</time>
      </trkpt>
      <trkpt lat="45.9523" lon="6.75554">
        <ele>1365</ele>
        <time>2022-07-21T16:25:43Z</time>
      </trkpt>
      <trkpt lat="45.95231" lon="6.75547">
        <ele>1365</ele>
        <time>2022-07-21T16:25:47Z</time>
      </trkpt>
      <trkpt lat="45.95235" lon="6.75534">
        <ele>1365</ele>
        <time>2022-07-21T16:25:57Z</time>
      </trkpt>
      <trkpt lat="45.9524" lon="6.7551">
        <ele>1365</ele>
        <time>2022-07-21T16:26:13Z</time>
      </trkpt>
      <trkpt lat="45.95238" lon="6.75501">
        <ele>1365</ele>
        <time>2022-07-21T16:26:20Z</time>
      </trkpt>
      <trkpt lat="45.95239" lon="6.7549">
        <ele>1365</ele>
        <time>2022-07-21T16:26:28Z</time>
      </trkpt>
      <trkpt lat="45.95237" lon="6.75484">
        <ele>1365</ele>
        <time>2022-07-21T16:26:35Z</time>
      </trkpt>
      <trkpt lat="45.95239" lon="6.75478">
        <ele>1365</ele>
        <time>2022-07-21T16:26:40Z</time>
      </trkpt>
      <trkpt lat="45.95239" lon="6.75472">
        <ele>1365</ele>
        <time>2022-07-21T16:26:44Z</time>
      </trkpt>
      <trkpt lat="45.9524" lon="6.75463">
        <ele>1365</ele>
        <time>2022-07-21T16:26:50Z</time>
      </trkpt>
      <trkpt lat="45.95241" lon="6.75441">
        <ele>1365</ele>
        <time>2022-07-21T16:27:07Z</time>
      </trkpt>
      <trkpt lat="45.95255" lon="6.75393">
        <ele>1365</ele>
        <time>2022-07-21T16:27:39Z</time>
      </trkpt>
      <trkpt lat="45.95254" lon="6.75387">
        <ele>1365</ele>
        <time>2022-07-21T16:27:44Z</time>
      </trkpt>
      <trkpt lat="45.9525" lon="6.75374">
        <ele>1364</ele>
        <time>2022-07-21T16:27:53Z</time>
      </trkpt>
      <trkpt lat="45.95252" lon="6.75368">
        <ele>1364</ele>
        <time>2022-07-21T16:27:56Z</time>
      </trkpt>
      <trkpt lat="45.95251" lon="6.75355">
        <ele>1364</ele>
        <time>2022-07-21T16:28:06Z</time>
      </trkpt>
      <trkpt lat="45.95255" lon="6.75335">
        <ele>1363</ele>
        <time>2022-07-21T16:28:22Z</time>
      </trkpt>
      <trkpt lat="45.95258" lon="6.75329">
        <ele>1363</ele>
        <time>2022-07-21T16:28:26Z</time>
      </trkpt>
      <trkpt lat="45.95275" lon="6.75312">
        <ele>1363</ele>
        <time>2022-07-21T16:28:41Z</time>
      </trkpt>
      <trkpt lat="45.95268" lon="6.7531">
        <ele>1363</ele>
        <time>2022-07-21T16:28:42Z</time>
      </trkpt>
      <trkpt lat="45.95269" lon="6.75302">
        <ele>1363</ele>
        <time>2022-07-21T16:28:47Z</time>
      </trkpt>
      <trkpt lat="45.95275" lon="6.75296">
        <ele>1362</ele>
        <time>2022-07-21T16:28:51Z</time>
      </trkpt>
      <trkpt lat="45.95276" lon="6.75289">
        <ele>1362</ele>
        <time>2022-07-21T16:28:56Z</time>
      </trkpt>
      <trkpt lat="45.95276" lon="6.75274">
        <ele>1361</ele>
        <time>2022-07-21T16:29:06Z</time>
      </trkpt>
      <trkpt lat="45.95274" lon="6.75265">
        <ele>1361</ele>
        <time>2022-07-21T16:29:13Z</time>
      </trkpt>
      <trkpt lat="45.95275" lon="6.75259">
        <ele>1361</ele>
        <time>2022-07-21T16:29:18Z</time>
      </trkpt>
      <trkpt lat="45.95265" lon="6.75221">
        <ele>1361</ele>
        <time>2022-07-21T16:29:46Z</time>
      </trkpt>
      <trkpt lat="45.95236" lon="6.75183">
        <ele>1360</ele>
        <time>2022-07-21T16:30:19Z</time>
      </trkpt>
      <trkpt lat="45.95223" lon="6.75169">
        <ele>1360</ele>
        <time>2022-07-21T16:30:34Z</time>
      </trkpt>
      <trkpt lat="45.95203" lon="6.75157">
        <ele>1359</ele>
        <time>2022-07-21T16:30:54Z</time>
      </trkpt>
      <trkpt lat="45.95193" lon="6.75146">
        <ele>1359</ele>
        <time>2022-07-21T16:31:06Z</time>
      </trkpt>
      <trkpt lat="45.95188" lon="6.75145">
        <ele>1359</ele>
        <time>2022-07-21T16:31:11Z</time>
      </trkpt>
      <trkpt lat="45.95174" lon="6.75133">
        <ele>1358</ele>
        <time>2022-07-21T16:31:28Z</time>
      </trkpt>
      <trkpt lat="45.9517" lon="6.75127">
        <ele>1358</ele>
        <time>2022-07-21T16:31:32Z</time>
      </trkpt>
      <trkpt lat="45.95158" lon="6.75112">
        <ele>1356</ele>
        <time>2022-07-21T16:31:50Z</time>
      </trkpt>
      <trkpt lat="45.95155" lon="6.75103">
        <ele>1355</ele>
        <time>2022-07-21T16:31:58Z</time>
      </trkpt>
      <trkpt lat="45.9515" lon="6.75099">
        <ele>1355</ele>
        <time>2022-07-21T16:32:02Z</time>
      </trkpt>
      <trkpt lat="45.95149" lon="6.75093">
        <ele>1354</ele>
        <time>2022-07-21T16:32:06Z</time>
      </trkpt>
      <trkpt lat="45.9514" lon="6.75085">
        <ele>1353</ele>
        <time>2022-07-21T16:32:14Z</time>
      </trkpt>
      <trkpt lat="45.95136" lon="6.75078">
        <ele>1353</ele>
        <time>2022-07-21T16:32:21Z</time>
      </trkpt>
      <trkpt lat="45.9511" lon="6.75051">
        <ele>1351</ele>
        <time>2022-07-21T16:32:51Z</time>
      </trkpt>
      <trkpt lat="45.9511" lon="6.75045">
        <ele>1351</ele>
        <time>2022-07-21T16:32:54Z</time>
      </trkpt>
      <trkpt lat="45.95101" lon="6.75034">
        <ele>1350</ele>
        <time>2022-07-21T16:33:06Z</time>
      </trkpt>
      <trkpt lat="45.95094" lon="6.7502">
        <ele>1350</ele>
        <time>2022-07-21T16:33:18Z</time>
      </trkpt>
      <trkpt lat="45.95092" lon="6.75012">
        <ele>1350</ele>
        <time>2022-07-21T16:33:23Z</time>
      </trkpt>
      <trkpt lat="45.95081" lon="6.74979">
        <ele>1349</ele>
        <time>2022-07-21T16:33:49Z</time>
      </trkpt>
      <trkpt lat="45.95082" lon="6.74972">
        <ele>1349</ele>
        <time>2022-07-21T16:33:54Z</time>
      </trkpt>
      <trkpt lat="45.9508" lon="6.74955">
        <ele>1349</ele>
        <time>2022-07-21T16:34:07Z</time>
      </trkpt>
      <trkpt lat="45.95081" lon="6.74948">
        <ele>1349</ele>
        <time>2022-07-21T16:34:12Z</time>
      </trkpt>
      <trkpt lat="45.95081" lon="6.7494">
        <ele>1349</ele>
        <time>2022-07-21T16:34:16Z</time>
      </trkpt>
      <trkpt lat="45.95083" lon="6.74931">
        <ele>1349</ele>
        <time>2022-07-21T16:34:23Z</time>
      </trkpt>
      <trkpt lat="45.95084" lon="6.74925">
        <ele>1349</ele>
        <time>2022-07-21T16:34:27Z</time>
      </trkpt>
      <trkpt lat="45.9508" lon="6.74912">
        <ele>1349</ele>
        <time>2022-07-21T16:34:36Z</time>
      </trkpt>
      <trkpt lat="45.95078" lon="6.74906">
        <ele>1349</ele>
        <time>2022-07-21T16:34:41Z</time>
      </trkpt>
      <trkpt lat="45.95074" lon="6.749">
        <ele>1349</ele>
        <time>2022-07-21T16:34:45Z</time>
      </trkpt>
      <trkpt lat="45.95073" lon="6.74894">
        <ele>1349</ele>
        <time>2022-07-21T16:34:49Z</time>
      </trkpt>
      <trkpt lat="45.95073" lon="6.74887">
        <ele>1349</ele>
        <time>2022-07-21T16:34:53Z</time>
      </trkpt>
      <trkpt lat="45.95067" lon="6.74862">
        <ele>1350</ele>
        <time>2022-07-21T16:35:12Z</time>
      </trkpt>
      <trkpt lat="45.95065" lon="6.7484">
        <ele>1350</ele>
        <time>2022-07-21T16:35:29Z</time>
      </trkpt>
      <trkpt lat="45.95065" lon="6.74832">
        <ele>1350</ele>
        <time>2022-07-21T16:35:35Z</time>
      </trkpt>
      <trkpt lat="45.95067" lon="6.74824">
        <ele>1350</ele>
        <time>2022-07-21T16:35:42Z</time>
      </trkpt>
      <trkpt lat="45.9506" lon="6.74811">
        <ele>1351</ele>
        <time>2022-07-21T16:35:52Z</time>
      </trkpt>
      <trkpt lat="45.95062" lon="6.74803">
        <ele>1351</ele>
        <time>2022-07-21T16:35:56Z</time>
      </trkpt>
      <trkpt lat="45.95065" lon="6.74797">
        <ele>1351</ele>
        <time>2022-07-21T16:36:01Z</time>
      </trkpt>
      <trkpt lat="45.95065" lon="6.74787">
        <ele>1352</ele>
        <time>2022-07-21T16:36:09Z</time>
      </trkpt>
      <trkpt lat="45.95063" lon="6.7478">
        <ele>1352</ele>
        <time>2022-07-21T16:36:15Z</time>
      </trkpt>
      <trkpt lat="45.95048" lon="6.74758">
        <ele>1353</ele>
        <time>2022-07-21T16:36:35Z</time>
      </trkpt>
      <trkpt lat="45.95041" lon="6.74752">
        <ele>1354</ele>
        <time>2022-07-21T16:36:43Z</time>
      </trkpt>
      <trkpt lat="45.95035" lon="6.7475">
        <ele>1354</ele>
        <time>2022-07-21T16:36:48Z</time>
      </trkpt>
      <trkpt lat="45.95031" lon="6.7474">
        <ele>1355</ele>
        <time>2022-07-21T16:36:59Z</time>
      </trkpt>
      <trkpt lat="45.95027" lon="6.74729">
        <ele>1355</ele>
        <time>2022-07-21T16:37:07Z</time>
      </trkpt>
      <trkpt lat="45.95022" lon="6.74722">
        <ele>1355</ele>
        <time>2022-07-21T16:37:17Z</time>
      </trkpt>
      <trkpt lat="45.94984" lon="6.74722">
        <ele>1356</ele>
        <time>2022-07-21T16:37:45Z</time>
      </trkpt>
      <trkpt lat="45.9498" lon="6.74731">
        <ele>1357</ele>
        <time>2022-07-21T16:37:56Z</time>
      </trkpt>
      <trkpt lat="45.94973" lon="6.74735">
        <ele>1357</ele>
        <time>2022-07-21T16:38:01Z</time>
      </trkpt>
      <trkpt lat="45.94969" lon="6.74742">
        <ele>1357</ele>
        <time>2022-07-21T16:38:07Z</time>
      </trkpt>
      <trkpt lat="45.94964" lon="6.74745">
        <ele>1358</ele>
        <time>2022-07-21T16:38:12Z</time>
      </trkpt>
      <trkpt lat="45.94957" lon="6.74721">
        <ele>1357</ele>
        <time>2022-07-21T16:38:42Z</time>
      </trkpt>
      <trkpt lat="45.9496" lon="6.74714">
        <ele>1357</ele>
        <time>2022-07-21T16:38:47Z</time>
      </trkpt>
      <trkpt lat="45.94955" lon="6.74693">
        <ele>1357</ele>
        <time>2022-07-21T16:39:03Z</time>
      </trkpt>
      <trkpt lat="45.9496" lon="6.74667">
        <ele>1357</ele>
        <time>2022-07-21T16:39:19Z</time>
      </trkpt>
      <trkpt lat="45.94962" lon="6.74648">
        <ele>1357</ele>
        <time>2022-07-21T16:39:28Z</time>
      </trkpt>
      <trkpt lat="45.94975" lon="6.7463">
        <ele>1357</ele>
        <time>2022-07-21T16:39:51Z</time>
      </trkpt>
      <trkpt lat="45.9498" lon="6.74607">
        <ele>1358</ele>
        <time>2022-07-21T16:40:11Z</time>
      </trkpt>
      <trkpt lat="45.94972" lon="6.74585">
        <ele>1359</ele>
        <time>2022-07-21T16:40:21Z</time>
      </trkpt>
      <trkpt lat="45.94967" lon="6.74575">
        <ele>1359</ele>
        <time>2022-07-21T16:40:28Z</time>
      </trkpt>
      <trkpt lat="45.94974" lon="6.74563">
        <ele>1359</ele>
        <time>2022-07-21T16:40:39Z</time>
      </trkpt>
      <trkpt lat="45.94977" lon="6.74543">
        <ele>1360</ele>
        <time>2022-07-21T16:40:54Z</time>
      </trkpt>
      <trkpt lat="45.94981" lon="6.74526">
        <ele>1361</ele>
        <time>2022-07-21T16:41:10Z</time>
      </trkpt>
      <trkpt lat="45.94977" lon="6.74511">
        <ele>1362</ele>
        <time>2022-07-21T16:41:22Z</time>
      </trkpt>
      <trkpt lat="45.94972" lon="6.74505">
        <ele>1362</ele>
        <time>2022-07-21T16:41:26Z</time>
      </trkpt>
      <trkpt lat="45.94968" lon="6.74495">
        <ele>1362</ele>
        <time>2022-07-21T16:41:35Z</time>
      </trkpt>
      <trkpt lat="45.94978" lon="6.74473">
        <ele>1363</ele>
        <time>2022-07-21T16:41:50Z</time>
      </trkpt>
      <trkpt lat="45.94978" lon="6.74454">
        <ele>1363</ele>
        <time>2022-07-21T16:42:05Z</time>
      </trkpt>
      <trkpt lat="45.9498" lon="6.74447">
        <ele>1364</ele>
        <time>2022-07-21T16:42:09Z</time>
      </trkpt>
      <trkpt lat="45.9498" lon="6.7443">
        <ele>1364</ele>
        <time>2022-07-21T16:42:23Z</time>
      </trkpt>
      <trkpt lat="45.94985" lon="6.74413">
        <ele>1365</ele>
        <time>2022-07-21T16:42:36Z</time>
      </trkpt>
      <trkpt lat="45.94983" lon="6.74404">
        <ele>1365</ele>
        <time>2022-07-21T16:42:42Z</time>
      </trkpt>
      <trkpt lat="45.94986" lon="6.74398">
        <ele>1365</ele>
        <time>2022-07-21T16:42:46Z</time>
      </trkpt>
      <trkpt lat="45.94986" lon="6.74391">
        <ele>1366</ele>
        <time>2022-07-21T16:42:52Z</time>
      </trkpt>
      <trkpt lat="45.94994" lon="6.74379">
        <ele>1366</ele>
        <time>2022-07-21T16:43:01Z</time>
      </trkpt>
      <trkpt lat="45.94999" lon="6.74365">
        <ele>1366</ele>
        <time>2022-07-21T16:43:13Z</time>
      </trkpt>
      <trkpt lat="45.95001" lon="6.74356">
        <ele>1366</ele>
        <time>2022-07-21T16:43:22Z</time>
      </trkpt>
      <trkpt lat="45.95007" lon="6.74345">
        <ele>1366</ele>
        <time>2022-07-21T16:43:32Z</time>
      </trkpt>
      <trkpt lat="45.95009" lon="6.74339">
        <ele>1366</ele>
        <time>2022-07-21T16:43:37Z</time>
      </trkpt>
      <trkpt lat="45.95013" lon="6.74332">
        <ele>1366</ele>
        <time>2022-07-21T16:43:42Z</time>
      </trkpt>
      <trkpt lat="45.95014" lon="6.74325">
        <ele>1367</ele>
        <time>2022-07-21T16:43:50Z</time>
      </trkpt>
      <trkpt lat="45.95018" lon="6.74313">
        <ele>1367</ele>
        <time>2022-07-21T16:43:59Z</time>
      </trkpt>
      <trkpt lat="45.95022" lon="6.74306">
        <ele>1367</ele>
        <time>2022-07-21T16:44:05Z</time>
      </trkpt>
      <trkpt lat="45.95023" lon="6.74297">
        <ele>1367</ele>
        <time>2022-07-21T16:44:13Z</time>
      </trkpt>
      <trkpt lat="45.95025" lon="6.7429">
        <ele>1367</ele>
        <time>2022-07-21T16:44:19Z</time>
      </trkpt>
      <trkpt lat="45.95029" lon="6.74285">
        <ele>1366</ele>
        <time>2022-07-21T16:44:26Z</time>
      </trkpt>
      <trkpt lat="45.95032" lon="6.74279">
        <ele>1366</ele>
        <time>2022-07-21T16:44:31Z</time>
      </trkpt>
      <trkpt lat="45.95036" lon="6.74274">
        <ele>1366</ele>
        <time>2022-07-21T16:44:36Z</time>
      </trkpt>
      <trkpt lat="45.95052" lon="6.74235">
        <ele>1365</ele>
        <time>2022-07-21T16:45:10Z</time>
      </trkpt>
      <trkpt lat="45.95054" lon="6.74228">
        <ele>1365</ele>
        <time>2022-07-21T16:45:16Z</time>
      </trkpt>
      <trkpt lat="45.95055" lon="6.74222">
        <ele>1365</ele>
        <time>2022-07-21T16:45:20Z</time>
      </trkpt>
      <trkpt lat="45.95057" lon="6.74217">
        <ele>1365</ele>
        <time>2022-07-21T16:45:25Z</time>
      </trkpt>
      <trkpt lat="45.95063" lon="6.74179">
        <ele>1364</ele>
        <time>2022-07-21T16:45:52Z</time>
      </trkpt>
      <trkpt lat="45.95065" lon="6.74173">
        <ele>1363</ele>
        <time>2022-07-21T16:45:57Z</time>
      </trkpt>
      <trkpt lat="45.95071" lon="6.74145">
        <ele>1363</ele>
        <time>2022-07-21T16:46:16Z</time>
      </trkpt>
      <trkpt lat="45.95071" lon="6.74135">
        <ele>1362</ele>
        <time>2022-07-21T16:46:23Z</time>
      </trkpt>
      <trkpt lat="45.95076" lon="6.74123">
        <ele>1362</ele>
        <time>2022-07-21T16:46:32Z</time>
      </trkpt>
      <trkpt lat="45.95077" lon="6.74116">
        <ele>1362</ele>
        <time>2022-07-21T16:46:36Z</time>
      </trkpt>
      <trkpt lat="45.95079" lon="6.74093">
        <ele>1360</ele>
        <time>2022-07-21T16:46:53Z</time>
      </trkpt>
      <trkpt lat="45.95078" lon="6.74086">
        <ele>1360</ele>
        <time>2022-07-21T16:46:58Z</time>
      </trkpt>
      <trkpt lat="45.95081" lon="6.74079">
        <ele>1360</ele>
        <time>2022-07-21T16:47:02Z</time>
      </trkpt>
      <trkpt lat="45.9508" lon="6.74072">
        <ele>1360</ele>
        <time>2022-07-21T16:47:06Z</time>
      </trkpt>
      <trkpt lat="45.95086" lon="6.7406">
        <ele>1359</ele>
        <time>2022-07-21T16:47:14Z</time>
      </trkpt>
      <trkpt lat="45.95088" lon="6.74054">
        <ele>1359</ele>
        <time>2022-07-21T16:47:19Z</time>
      </trkpt>
      <trkpt lat="45.95093" lon="6.7404">
        <ele>1358</ele>
        <time>2022-07-21T16:47:29Z</time>
      </trkpt>
      <trkpt lat="45.95088" lon="6.74035">
        <ele>1358</ele>
        <time>2022-07-21T16:47:34Z</time>
      </trkpt>
      <trkpt lat="45.95092" lon="6.74025">
        <ele>1358</ele>
        <time>2022-07-21T16:47:38Z</time>
      </trkpt>
      <trkpt lat="45.95088" lon="6.7402">
        <ele>1357</ele>
        <time>2022-07-21T16:47:42Z</time>
      </trkpt>
      <trkpt lat="45.95097" lon="6.74011">
        <ele>1357</ele>
        <time>2022-07-21T16:47:48Z</time>
      </trkpt>
      <trkpt lat="45.95101" lon="6.74011">
        <ele>1357</ele>
        <time>2022-07-21T16:47:50Z</time>
      </trkpt>
      <trkpt lat="45.95103" lon="6.74001">
        <ele>1357</ele>
        <time>2022-07-21T16:47:58Z</time>
      </trkpt>
      <trkpt lat="45.95099" lon="6.73995">
        <ele>1356</ele>
        <time>2022-07-21T16:48:01Z</time>
      </trkpt>
      <trkpt lat="45.95098" lon="6.73988">
        <ele>1356</ele>
        <time>2022-07-21T16:48:06Z</time>
      </trkpt>
      <trkpt lat="45.95103" lon="6.73957">
        <ele>1355</ele>
        <time>2022-07-21T16:48:25Z</time>
      </trkpt>
      <trkpt lat="45.95103" lon="6.73951">
        <ele>1354</ele>
        <time>2022-07-21T16:48:29Z</time>
      </trkpt>
      <trkpt lat="45.95104" lon="6.73944">
        <ele>1354</ele>
        <time>2022-07-21T16:48:33Z</time>
      </trkpt>
      <trkpt lat="45.95103" lon="6.73936">
        <ele>1353</ele>
        <time>2022-07-21T16:48:38Z</time>
      </trkpt>
      <trkpt lat="45.95103" lon="6.7393">
        <ele>1353</ele>
        <time>2022-07-21T16:48:42Z</time>
      </trkpt>
      <trkpt lat="45.95102" lon="6.73922">
        <ele>1353</ele>
        <time>2022-07-21T16:48:47Z</time>
      </trkpt>
      <trkpt lat="45.951" lon="6.73916">
        <ele>1353</ele>
        <time>2022-07-21T16:48:51Z</time>
      </trkpt>
      <trkpt lat="45.95099" lon="6.73905">
        <ele>1352</ele>
        <time>2022-07-21T16:48:59Z</time>
      </trkpt>
      <trkpt lat="45.95102" lon="6.739">
        <ele>1352</ele>
        <time>2022-07-21T16:49:04Z</time>
      </trkpt>
      <trkpt lat="45.95104" lon="6.73893">
        <ele>1352</ele>
        <time>2022-07-21T16:49:08Z</time>
      </trkpt>
      <trkpt lat="45.951" lon="6.73887">
        <ele>1351</ele>
        <time>2022-07-21T16:49:11Z</time>
      </trkpt>
      <trkpt lat="45.951" lon="6.73881">
        <ele>1351</ele>
        <time>2022-07-21T16:49:15Z</time>
      </trkpt>
      <trkpt lat="45.95093" lon="6.7387">
        <ele>1350</ele>
        <time>2022-07-21T16:49:23Z</time>
      </trkpt>
      <trkpt lat="45.95091" lon="6.73859">
        <ele>1350</ele>
        <time>2022-07-21T16:49:33Z</time>
      </trkpt>
      <trkpt lat="45.95087" lon="6.73856">
        <ele>1349</ele>
        <time>2022-07-21T16:50:14Z</time>
      </trkpt>
      <trkpt lat="45.9509" lon="6.73853">
        <ele>1349</ele>
        <time>2022-07-21T16:53:44Z</time>
      </trkpt>
      <trkpt lat="45.95093" lon="6.73845">
        <ele>1349</ele>
        <time>2022-07-21T16:55:17Z</time>
      </trkpt>
      <trkpt lat="45.95095" lon="6.73836">
        <ele>1349</ele>
        <time>2022-07-21T16:55:21Z</time>
      </trkpt>
      <trkpt lat="45.95092" lon="6.73805">
        <ele>1349</ele>
        <time>2022-07-21T16:55:27Z</time>
      </trkpt>
      <trkpt lat="45.95052" lon="6.73641">
        <ele>1342</ele>
        <time>2022-07-21T16:55:45Z</time>
      </trkpt>
      <trkpt lat="45.95051" lon="6.73613">
        <ele>1341</ele>
        <time>2022-07-21T16:55:47Z</time>
      </trkpt>
      <trkpt lat="45.95052" lon="6.73598">
        <ele>1341</ele>
        <time>2022-07-21T16:55:48Z</time>
      </trkpt>
      <trkpt lat="45.95055" lon="6.73553">
        <ele>1339</ele>
        <time>2022-07-21T16:55:51Z</time>
      </trkpt>
      <trkpt lat="45.95038" lon="6.73433">
        <ele>1330</ele>
        <time>2022-07-21T16:55:59Z</time>
      </trkpt>
      <trkpt lat="45.95039" lon="6.73418">
        <ele>1328</ele>
        <time>2022-07-21T16:56:00Z</time>
      </trkpt>
      <trkpt lat="45.95043" lon="6.73405">
        <ele>1326</ele>
        <time>2022-07-21T16:56:01Z</time>
      </trkpt>
      <trkpt lat="45.9505" lon="6.73396">
        <ele>1326</ele>
        <time>2022-07-21T16:56:03Z</time>
      </trkpt>
      <trkpt lat="45.95065" lon="6.73387">
        <ele>1323</ele>
        <time>2022-07-21T16:56:05Z</time>
      </trkpt>
      <trkpt lat="45.95091" lon="6.73381">
        <ele>1320</ele>
        <time>2022-07-21T16:56:08Z</time>
      </trkpt>
      <trkpt lat="45.95122" lon="6.7336">
        <ele>1318</ele>
        <time>2022-07-21T16:56:12Z</time>
      </trkpt>
      <trkpt lat="45.95149" lon="6.73329">
        <ele>1315</ele>
        <time>2022-07-21T16:56:16Z</time>
      </trkpt>
      <trkpt lat="45.95155" lon="6.7332">
        <ele>1315</ele>
        <time>2022-07-21T16:56:17Z</time>
      </trkpt>
      <trkpt lat="45.95198" lon="6.73258">
        <ele>1311</ele>
        <time>2022-07-21T16:56:25Z</time>
      </trkpt>
      <trkpt lat="45.95204" lon="6.73242">
        <ele>1310</ele>
        <time>2022-07-21T16:56:27Z</time>
      </trkpt>
      <trkpt lat="45.95208" lon="6.73211">
        <ele>1309</ele>
        <time>2022-07-21T16:56:31Z</time>
      </trkpt>
      <trkpt lat="45.95209" lon="6.73187">
        <ele>1309</ele>
        <time>2022-07-21T16:56:34Z</time>
      </trkpt>
      <trkpt lat="45.95205" lon="6.7317">
        <ele>1309</ele>
        <time>2022-07-21T16:56:36Z</time>
      </trkpt>
      <trkpt lat="45.95197" lon="6.73153">
        <ele>1308</ele>
        <time>2022-07-21T16:56:38Z</time>
      </trkpt>
      <trkpt lat="45.95104" lon="6.73034">
        <ele>1304</ele>
        <time>2022-07-21T16:56:52Z</time>
      </trkpt>
      <trkpt lat="45.95086" lon="6.73002">
        <ele>1302</ele>
        <time>2022-07-21T16:56:55Z</time>
      </trkpt>
      <trkpt lat="45.95078" lon="6.72996">
        <ele>1301</ele>
        <time>2022-07-21T16:56:56Z</time>
      </trkpt>
      <trkpt lat="45.95051" lon="6.72988">
        <ele>1299</ele>
        <time>2022-07-21T16:56:59Z</time>
      </trkpt>
      <trkpt lat="45.9504" lon="6.72986">
        <ele>1299</ele>
        <time>2022-07-21T16:57:00Z</time>
      </trkpt>
      <trkpt lat="45.94998" lon="6.72976">
        <ele>1296</ele>
        <time>2022-07-21T16:57:04Z</time>
      </trkpt>
      <trkpt lat="45.94979" lon="6.72964">
        <ele>1295</ele>
        <time>2022-07-21T16:57:06Z</time>
      </trkpt>
      <trkpt lat="45.94947" lon="6.72912">
        <ele>1291</ele>
        <time>2022-07-21T16:57:11Z</time>
      </trkpt>
      <trkpt lat="45.94939" lon="6.72904">
        <ele>1290</ele>
        <time>2022-07-21T16:57:12Z</time>
      </trkpt>
      <trkpt lat="45.9493" lon="6.72898">
        <ele>1289</ele>
        <time>2022-07-21T16:57:13Z</time>
      </trkpt>
      <trkpt lat="45.94921" lon="6.72894">
        <ele>1289</ele>
        <time>2022-07-21T16:57:14Z</time>
      </trkpt>
      <trkpt lat="45.94902" lon="6.72889">
        <ele>1288</ele>
        <time>2022-07-21T16:57:16Z</time>
      </trkpt>
      <trkpt lat="45.94894" lon="6.72884">
        <ele>1287</ele>
        <time>2022-07-21T16:57:17Z</time>
      </trkpt>
      <trkpt lat="45.9488" lon="6.72865">
        <ele>1285</ele>
        <time>2022-07-21T16:57:19Z</time>
      </trkpt>
      <trkpt lat="45.94867" lon="6.72831">
        <ele>1283</ele>
        <time>2022-07-21T16:57:22Z</time>
      </trkpt>
      <trkpt lat="45.9486" lon="6.72825">
        <ele>1282</ele>
        <time>2022-07-21T16:57:23Z</time>
      </trkpt>
      <trkpt lat="45.94853" lon="6.72823">
        <ele>1282</ele>
        <time>2022-07-21T16:57:24Z</time>
      </trkpt>
      <trkpt lat="45.94846" lon="6.72824">
        <ele>1281</ele>
        <time>2022-07-21T16:57:25Z</time>
      </trkpt>
      <trkpt lat="45.94841" lon="6.72834">
        <ele>1281</ele>
        <time>2022-07-21T16:57:26Z</time>
      </trkpt>
      <trkpt lat="45.9484" lon="6.72846">
        <ele>1280</ele>
        <time>2022-07-21T16:57:27Z</time>
      </trkpt>
      <trkpt lat="45.94867" lon="6.7293">
        <ele>1278</ele>
        <time>2022-07-21T16:57:34Z</time>
      </trkpt>
      <trkpt lat="45.94869" lon="6.7302">
        <ele>1273</ele>
        <time>2022-07-21T16:57:40Z</time>
      </trkpt>
      <trkpt lat="45.94869" lon="6.73035">
        <ele>1272</ele>
        <time>2022-07-21T16:57:41Z</time>
      </trkpt>
      <trkpt lat="45.94867" lon="6.73051">
        <ele>1272</ele>
        <time>2022-07-21T16:57:42Z</time>
      </trkpt>
      <trkpt lat="45.94861" lon="6.73127">
        <ele>1268</ele>
        <time>2022-07-21T16:57:47Z</time>
      </trkpt>
      <trkpt lat="45.94857" lon="6.73141">
        <ele>1267</ele>
        <time>2022-07-21T16:57:48Z</time>
      </trkpt>
      <trkpt lat="45.94839" lon="6.73173">
        <ele>1265</ele>
        <time>2022-07-21T16:57:50Z</time>
      </trkpt>
      <trkpt lat="45.94835" lon="6.73186">
        <ele>1265</ele>
        <time>2022-07-21T16:57:51Z</time>
      </trkpt>
      <trkpt lat="45.94831" lon="6.73235">
        <ele>1263</ele>
        <time>2022-07-21T16:57:55Z</time>
      </trkpt>
      <trkpt lat="45.94827" lon="6.73243">
        <ele>1263</ele>
        <time>2022-07-21T16:57:56Z</time>
      </trkpt>
      <trkpt lat="45.94823" lon="6.73248">
        <ele>1262</ele>
        <time>2022-07-21T16:57:57Z</time>
      </trkpt>
      <trkpt lat="45.94818" lon="6.73249">
        <ele>1262</ele>
        <time>2022-07-21T16:57:59Z</time>
      </trkpt>
      <trkpt lat="45.94813" lon="6.73244">
        <ele>1261</ele>
        <time>2022-07-21T16:57:59Z</time>
      </trkpt>
      <trkpt lat="45.94811" lon="6.73234">
        <ele>1261</ele>
        <time>2022-07-21T16:58:01Z</time>
      </trkpt>
      <trkpt lat="45.9481" lon="6.7318">
        <ele>1258</ele>
        <time>2022-07-21T16:58:06Z</time>
      </trkpt>
      <trkpt lat="45.94823" lon="6.73099">
        <ele>1256</ele>
        <time>2022-07-21T16:58:12Z</time>
      </trkpt>
      <trkpt lat="45.94821" lon="6.7307">
        <ele>1254</ele>
        <time>2022-07-21T16:58:14Z</time>
      </trkpt>
      <trkpt lat="45.94777" lon="6.72903">
        <ele>1245</ele>
        <time>2022-07-21T16:58:25Z</time>
      </trkpt>
      <trkpt lat="45.94755" lon="6.72859">
        <ele>1242</ele>
        <time>2022-07-21T16:58:28Z</time>
      </trkpt>
      <trkpt lat="45.94741" lon="6.72829">
        <ele>1240</ele>
        <time>2022-07-21T16:58:30Z</time>
      </trkpt>
      <trkpt lat="45.94685" lon="6.72732">
        <ele>1233</ele>
        <time>2022-07-21T16:58:38Z</time>
      </trkpt>
      <trkpt lat="45.9468" lon="6.7272">
        <ele>1233</ele>
        <time>2022-07-21T16:58:39Z</time>
      </trkpt>
      <trkpt lat="45.94675" lon="6.72692">
        <ele>1232</ele>
        <time>2022-07-21T16:58:41Z</time>
      </trkpt>
      <trkpt lat="45.94674" lon="6.72651">
        <ele>1230</ele>
        <time>2022-07-21T16:58:44Z</time>
      </trkpt>
      <trkpt lat="45.94678" lon="6.72629">
        <ele>1228</ele>
        <time>2022-07-21T16:58:46Z</time>
      </trkpt>
      <trkpt lat="45.94692" lon="6.72596">
        <ele>1226</ele>
        <time>2022-07-21T16:58:49Z</time>
      </trkpt>
      <trkpt lat="45.94694" lon="6.72583">
        <ele>1225</ele>
        <time>2022-07-21T16:58:50Z</time>
      </trkpt>
      <trkpt lat="45.94693" lon="6.7257">
        <ele>1224</ele>
        <time>2022-07-21T16:58:51Z</time>
      </trkpt>
      <trkpt lat="45.9469" lon="6.72557">
        <ele>1224</ele>
        <time>2022-07-21T16:58:52Z</time>
      </trkpt>
      <trkpt lat="45.94685" lon="6.72546">
        <ele>1224</ele>
        <time>2022-07-21T16:58:53Z</time>
      </trkpt>
      <trkpt lat="45.94642" lon="6.72486">
        <ele>1222</ele>
        <time>2022-07-21T16:59:00Z</time>
      </trkpt>
      <trkpt lat="45.94636" lon="6.72466">
        <ele>1221</ele>
        <time>2022-07-21T16:59:02Z</time>
      </trkpt>
      <trkpt lat="45.94633" lon="6.72456">
        <ele>1220</ele>
        <time>2022-07-21T16:59:03Z</time>
      </trkpt>
      <trkpt lat="45.94621" lon="6.7244">
        <ele>1218</ele>
        <time>2022-07-21T16:59:05Z</time>
      </trkpt>
      <trkpt lat="45.94614" lon="6.72433">
        <ele>1218</ele>
        <time>2022-07-21T16:59:06Z</time>
      </trkpt>
      <trkpt lat="45.94605" lon="6.72427">
        <ele>1218</ele>
        <time>2022-07-21T16:59:07Z</time>
      </trkpt>
      <trkpt lat="45.94578" lon="6.72416">
        <ele>1216</ele>
        <time>2022-07-21T16:59:10Z</time>
      </trkpt>
      <trkpt lat="45.94552" lon="6.72412">
        <ele>1214</ele>
        <time>2022-07-21T16:59:13Z</time>
      </trkpt>
      <trkpt lat="45.94537" lon="6.72405">
        <ele>1212</ele>
        <time>2022-07-21T16:59:15Z</time>
      </trkpt>
      <trkpt lat="45.94518" lon="6.724">
        <ele>1210</ele>
        <time>2022-07-21T16:59:18Z</time>
      </trkpt>
      <trkpt lat="45.94514" lon="6.72394">
        <ele>1209</ele>
        <time>2022-07-21T16:59:19Z</time>
      </trkpt>
      <trkpt lat="45.94512" lon="6.72386">
        <ele>1209</ele>
        <time>2022-07-21T16:59:20Z</time>
      </trkpt>
      <trkpt lat="45.94513" lon="6.72375">
        <ele>1209</ele>
        <time>2022-07-21T16:59:21Z</time>
      </trkpt>
      <trkpt lat="45.94514" lon="6.72365">
        <ele>1208</ele>
        <time>2022-07-21T16:59:22Z</time>
      </trkpt>
      <trkpt lat="45.94513" lon="6.72354">
        <ele>1207</ele>
        <time>2022-07-21T16:59:23Z</time>
      </trkpt>
      <trkpt lat="45.9451" lon="6.72345">
        <ele>1207</ele>
        <time>2022-07-21T16:59:24Z</time>
      </trkpt>
      <trkpt lat="45.94489" lon="6.7232">
        <ele>1204</ele>
        <time>2022-07-21T16:59:28Z</time>
      </trkpt>
      <trkpt lat="45.94487" lon="6.72312">
        <ele>1204</ele>
        <time>2022-07-21T16:59:29Z</time>
      </trkpt>
      <trkpt lat="45.94487" lon="6.72304">
        <ele>1203</ele>
        <time>2022-07-21T16:59:30Z</time>
      </trkpt>
      <trkpt lat="45.94488" lon="6.72296">
        <ele>1202</ele>
        <time>2022-07-21T16:59:31Z</time>
      </trkpt>
      <trkpt lat="45.94494" lon="6.7229">
        <ele>1202</ele>
        <time>2022-07-21T16:59:32Z</time>
      </trkpt>
      <trkpt lat="45.94507" lon="6.72282">
        <ele>1201</ele>
        <time>2022-07-21T16:59:34Z</time>
      </trkpt>
      <trkpt lat="45.94514" lon="6.72278">
        <ele>1201</ele>
        <time>2022-07-21T16:59:35Z</time>
      </trkpt>
      <trkpt lat="45.94637" lon="6.72172">
        <ele>1192</ele>
        <time>2022-07-21T16:59:50Z</time>
      </trkpt>
      <trkpt lat="45.94648" lon="6.72158">
        <ele>1190</ele>
        <time>2022-07-21T16:59:52Z</time>
      </trkpt>
      <trkpt lat="45.94652" lon="6.7215">
        <ele>1189</ele>
        <time>2022-07-21T16:59:53Z</time>
      </trkpt>
      <trkpt lat="45.94653" lon="6.72135">
        <ele>1187</ele>
        <time>2022-07-21T16:59:55Z</time>
      </trkpt>
      <trkpt lat="45.9465" lon="6.72128">
        <ele>1186</ele>
        <time>2022-07-21T16:59:56Z</time>
      </trkpt>
      <trkpt lat="45.94645" lon="6.72123">
        <ele>1185</ele>
        <time>2022-07-21T16:59:57Z</time>
      </trkpt>
      <trkpt lat="45.94638" lon="6.72122">
        <ele>1185</ele>
        <time>2022-07-21T16:59:58Z</time>
      </trkpt>
      <trkpt lat="45.94625" lon="6.72129">
        <ele>1184</ele>
        <time>2022-07-21T17:00:00Z</time>
      </trkpt>
      <trkpt lat="45.94569" lon="6.72175">
        <ele>1181</ele>
        <time>2022-07-21T17:00:08Z</time>
      </trkpt>
      <trkpt lat="45.94563" lon="6.7218">
        <ele>1180</ele>
        <time>2022-07-21T17:00:09Z</time>
      </trkpt>
      <trkpt lat="45.94555" lon="6.72178">
        <ele>1179</ele>
        <time>2022-07-21T17:00:10Z</time>
      </trkpt>
      <trkpt lat="45.94549" lon="6.72174">
        <ele>1178</ele>
        <time>2022-07-21T17:00:11Z</time>
      </trkpt>
      <trkpt lat="45.94544" lon="6.72165">
        <ele>1178</ele>
        <time>2022-07-21T17:00:12Z</time>
      </trkpt>
      <trkpt lat="45.94541" lon="6.72155">
        <ele>1177</ele>
        <time>2022-07-21T17:00:13Z</time>
      </trkpt>
      <trkpt lat="45.94547" lon="6.7211">
        <ele>1174</ele>
        <time>2022-07-21T17:00:17Z</time>
      </trkpt>
      <trkpt lat="45.9455" lon="6.72098">
        <ele>1174</ele>
        <time>2022-07-21T17:00:18Z</time>
      </trkpt>
      <trkpt lat="45.94551" lon="6.72085">
        <ele>1174</ele>
        <time>2022-07-21T17:00:19Z</time>
      </trkpt>
      <trkpt lat="45.9455" lon="6.72073">
        <ele>1173</ele>
        <time>2022-07-21T17:00:20Z</time>
      </trkpt>
      <trkpt lat="45.94546" lon="6.72061">
        <ele>1172</ele>
        <time>2022-07-21T17:00:21Z</time>
      </trkpt>
      <trkpt lat="45.94496" lon="6.72004">
        <ele>1168</ele>
        <time>2022-07-21T17:00:28Z</time>
      </trkpt>
      <trkpt lat="45.9448" lon="6.71989">
        <ele>1166</ele>
        <time>2022-07-21T17:00:30Z</time>
      </trkpt>
      <trkpt lat="45.94472" lon="6.71984">
        <ele>1166</ele>
        <time>2022-07-21T17:00:31Z</time>
      </trkpt>
      <trkpt lat="45.94463" lon="6.71981">
        <ele>1165</ele>
        <time>2022-07-21T17:00:32Z</time>
      </trkpt>
      <trkpt lat="45.94444" lon="6.71982">
        <ele>1164</ele>
        <time>2022-07-21T17:00:34Z</time>
      </trkpt>
      <trkpt lat="45.94437" lon="6.71984">
        <ele>1163</ele>
        <time>2022-07-21T17:00:35Z</time>
      </trkpt>
      <trkpt lat="45.94408" lon="6.72011">
        <ele>1158</ele>
        <time>2022-07-21T17:00:40Z</time>
      </trkpt>
      <trkpt lat="45.94403" lon="6.72012">
        <ele>1158</ele>
        <time>2022-07-21T17:00:41Z</time>
      </trkpt>
      <trkpt lat="45.94398" lon="6.7201">
        <ele>1157</ele>
        <time>2022-07-21T17:00:42Z</time>
      </trkpt>
      <trkpt lat="45.94394" lon="6.72005">
        <ele>1156</ele>
        <time>2022-07-21T17:00:43Z</time>
      </trkpt>
      <trkpt lat="45.94392" lon="6.71996">
        <ele>1156</ele>
        <time>2022-07-21T17:00:44Z</time>
      </trkpt>
      <trkpt lat="45.94394" lon="6.71987">
        <ele>1155</ele>
        <time>2022-07-21T17:00:45Z</time>
      </trkpt>
      <trkpt lat="45.944" lon="6.7198">
        <ele>1155</ele>
        <time>2022-07-21T17:00:46Z</time>
      </trkpt>
      <trkpt lat="45.94442" lon="6.71945">
        <ele>1153</ele>
        <time>2022-07-21T17:00:52Z</time>
      </trkpt>
      <trkpt lat="45.94483" lon="6.71906">
        <ele>1150</ele>
        <time>2022-07-21T17:00:57Z</time>
      </trkpt>
      <trkpt lat="45.9449" lon="6.71896">
        <ele>1149</ele>
        <time>2022-07-21T17:00:58Z</time>
      </trkpt>
      <trkpt lat="45.94494" lon="6.71883">
        <ele>1148</ele>
        <time>2022-07-21T17:00:59Z</time>
      </trkpt>
      <trkpt lat="45.94496" lon="6.7187">
        <ele>1148</ele>
        <time>2022-07-21T17:01:00Z</time>
      </trkpt>
      <trkpt lat="45.94497" lon="6.71805">
        <ele>1144</ele>
        <time>2022-07-21T17:01:05Z</time>
      </trkpt>
      <trkpt lat="45.94495" lon="6.71795">
        <ele>1143</ele>
        <time>2022-07-21T17:01:06Z</time>
      </trkpt>
      <trkpt lat="45.94491" lon="6.71787">
        <ele>1142</ele>
        <time>2022-07-21T17:01:07Z</time>
      </trkpt>
      <trkpt lat="45.94485" lon="6.71782">
        <ele>1141</ele>
        <time>2022-07-21T17:01:08Z</time>
      </trkpt>
      <trkpt lat="45.94479" lon="6.71783">
        <ele>1141</ele>
        <time>2022-07-21T17:01:09Z</time>
      </trkpt>
      <trkpt lat="45.94471" lon="6.71784">
        <ele>1140</ele>
        <time>2022-07-21T17:01:10Z</time>
      </trkpt>
      <trkpt lat="45.94466" lon="6.71792">
        <ele>1139</ele>
        <time>2022-07-21T17:01:11Z</time>
      </trkpt>
      <trkpt lat="45.94466" lon="6.71816">
        <ele>1139</ele>
        <time>2022-07-21T17:01:13Z</time>
      </trkpt>
      <trkpt lat="45.94465" lon="6.71827">
        <ele>1138</ele>
        <time>2022-07-21T17:01:14Z</time>
      </trkpt>
      <trkpt lat="45.94464" lon="6.71839">
        <ele>1138</ele>
        <time>2022-07-21T17:01:15Z</time>
      </trkpt>
      <trkpt lat="45.94459" lon="6.7185">
        <ele>1138</ele>
        <time>2022-07-21T17:01:16Z</time>
      </trkpt>
      <trkpt lat="45.94443" lon="6.71867">
        <ele>1137</ele>
        <time>2022-07-21T17:01:18Z</time>
      </trkpt>
      <trkpt lat="45.94432" lon="6.71872">
        <ele>1137</ele>
        <time>2022-07-21T17:01:19Z</time>
      </trkpt>
      <trkpt lat="45.94335" lon="6.71872">
        <ele>1132</ele>
        <time>2022-07-21T17:01:27Z</time>
      </trkpt>
      <trkpt lat="45.94326" lon="6.71878">
        <ele>1132</ele>
        <time>2022-07-21T17:01:28Z</time>
      </trkpt>
      <trkpt lat="45.9432" lon="6.71888">
        <ele>1131</ele>
        <time>2022-07-21T17:01:29Z</time>
      </trkpt>
      <trkpt lat="45.94313" lon="6.71892">
        <ele>1130</ele>
        <time>2022-07-21T17:01:30Z</time>
      </trkpt>
      <trkpt lat="45.94306" lon="6.71891">
        <ele>1129</ele>
        <time>2022-07-21T17:01:31Z</time>
      </trkpt>
      <trkpt lat="45.94301" lon="6.71884">
        <ele>1127</ele>
        <time>2022-07-21T17:01:32Z</time>
      </trkpt>
      <trkpt lat="45.94299" lon="6.71874">
        <ele>1126</ele>
        <time>2022-07-21T17:01:33Z</time>
      </trkpt>
      <trkpt lat="45.94301" lon="6.71864">
        <ele>1125</ele>
        <time>2022-07-21T17:01:34Z</time>
      </trkpt>
      <trkpt lat="45.94307" lon="6.71857">
        <ele>1125</ele>
        <time>2022-07-21T17:01:35Z</time>
      </trkpt>
      <trkpt lat="45.94365" lon="6.71832">
        <ele>1121</ele>
        <time>2022-07-21T17:01:41Z</time>
      </trkpt>
      <trkpt lat="45.94374" lon="6.71822">
        <ele>1121</ele>
        <time>2022-07-21T17:01:42Z</time>
      </trkpt>
      <trkpt lat="45.94381" lon="6.7181">
        <ele>1121</ele>
        <time>2022-07-21T17:01:43Z</time>
      </trkpt>
      <trkpt lat="45.94394" lon="6.71765">
        <ele>1119</ele>
        <time>2022-07-21T17:01:46Z</time>
      </trkpt>
      <trkpt lat="45.94396" lon="6.71751">
        <ele>1118</ele>
        <time>2022-07-21T17:01:47Z</time>
      </trkpt>
      <trkpt lat="45.94395" lon="6.71737">
        <ele>1117</ele>
        <time>2022-07-21T17:01:48Z</time>
      </trkpt>
      <trkpt lat="45.94384" lon="6.71709">
        <ele>1115</ele>
        <time>2022-07-21T17:01:50Z</time>
      </trkpt>
      <trkpt lat="45.9435" lon="6.71638">
        <ele>1111</ele>
        <time>2022-07-21T17:01:55Z</time>
      </trkpt>
      <trkpt lat="45.94347" lon="6.71625">
        <ele>1110</ele>
        <time>2022-07-21T17:01:56Z</time>
      </trkpt>
      <trkpt lat="45.94346" lon="6.7161">
        <ele>1110</ele>
        <time>2022-07-21T17:01:57Z</time>
      </trkpt>
      <trkpt lat="45.94344" lon="6.71598">
        <ele>1109</ele>
        <time>2022-07-21T17:01:58Z</time>
      </trkpt>
      <trkpt lat="45.9434" lon="6.71589">
        <ele>1108</ele>
        <time>2022-07-21T17:01:59Z</time>
      </trkpt>
      <trkpt lat="45.94334" lon="6.71585">
        <ele>1106</ele>
        <time>2022-07-21T17:02:00Z</time>
      </trkpt>
      <trkpt lat="45.94327" lon="6.71584">
        <ele>1105</ele>
        <time>2022-07-21T17:02:01Z</time>
      </trkpt>
      <trkpt lat="45.9432" lon="6.71587">
        <ele>1104</ele>
        <time>2022-07-21T17:02:02Z</time>
      </trkpt>
      <trkpt lat="45.94314" lon="6.71595">
        <ele>1103</ele>
        <time>2022-07-21T17:02:03Z</time>
      </trkpt>
      <trkpt lat="45.94314" lon="6.71608">
        <ele>1102</ele>
        <time>2022-07-21T17:02:04Z</time>
      </trkpt>
      <trkpt lat="45.94322" lon="6.71633">
        <ele>1101</ele>
        <time>2022-07-21T17:02:06Z</time>
      </trkpt>
      <trkpt lat="45.9434" lon="6.71666">
        <ele>1100</ele>
        <time>2022-07-21T17:02:09Z</time>
      </trkpt>
      <trkpt lat="45.94344" lon="6.71678">
        <ele>1100</ele>
        <time>2022-07-21T17:02:10Z</time>
      </trkpt>
      <trkpt lat="45.94346" lon="6.71692">
        <ele>1100</ele>
        <time>2022-07-21T17:02:11Z</time>
      </trkpt>
      <trkpt lat="45.94345" lon="6.71705">
        <ele>1099</ele>
        <time>2022-07-21T17:02:12Z</time>
      </trkpt>
      <trkpt lat="45.94341" lon="6.71719">
        <ele>1098</ele>
        <time>2022-07-21T17:02:13Z</time>
      </trkpt>
      <trkpt lat="45.94334" lon="6.7173">
        <ele>1097</ele>
        <time>2022-07-21T17:02:14Z</time>
      </trkpt>
      <trkpt lat="45.94326" lon="6.71736">
        <ele>1097</ele>
        <time>2022-07-21T17:02:15Z</time>
      </trkpt>
      <trkpt lat="45.94318" lon="6.71735">
        <ele>1096</ele>
        <time>2022-07-21T17:02:16Z</time>
      </trkpt>
      <trkpt lat="45.94313" lon="6.71728">
        <ele>1095</ele>
        <time>2022-07-21T17:02:17Z</time>
      </trkpt>
      <trkpt lat="45.94311" lon="6.71717">
        <ele>1094</ele>
        <time>2022-07-21T17:02:18Z</time>
      </trkpt>
      <trkpt lat="45.94312" lon="6.7168">
        <ele>1091</ele>
        <time>2022-07-21T17:02:21Z</time>
      </trkpt>
      <trkpt lat="45.94308" lon="6.71668">
        <ele>1091</ele>
        <time>2022-07-21T17:02:22Z</time>
      </trkpt>
      <trkpt lat="45.94291" lon="6.71649">
        <ele>1090</ele>
        <time>2022-07-21T17:02:24Z</time>
      </trkpt>
      <trkpt lat="45.94282" lon="6.71642">
        <ele>1090</ele>
        <time>2022-07-21T17:02:25Z</time>
      </trkpt>
      <trkpt lat="45.94273" lon="6.71631">
        <ele>1089</ele>
        <time>2022-07-21T17:02:26Z</time>
      </trkpt>
      <trkpt lat="45.9426" lon="6.71606">
        <ele>1088</ele>
        <time>2022-07-21T17:02:28Z</time>
      </trkpt>
      <trkpt lat="45.94247" lon="6.71588">
        <ele>1087</ele>
        <time>2022-07-21T17:02:30Z</time>
      </trkpt>
      <trkpt lat="45.94243" lon="6.71579">
        <ele>1086</ele>
        <time>2022-07-21T17:02:31Z</time>
      </trkpt>
      <trkpt lat="45.94243" lon="6.71568">
        <ele>1084</ele>
        <time>2022-07-21T17:02:32Z</time>
      </trkpt>
      <trkpt lat="45.94246" lon="6.71556">
        <ele>1083</ele>
        <time>2022-07-21T17:02:33Z</time>
      </trkpt>
      <trkpt lat="45.94283" lon="6.7151">
        <ele>1079</ele>
        <time>2022-07-21T17:02:38Z</time>
      </trkpt>
      <trkpt lat="45.94292" lon="6.715">
        <ele>1079</ele>
        <time>2022-07-21T17:02:39Z</time>
      </trkpt>
      <trkpt lat="45.94333" lon="6.71476">
        <ele>1076</ele>
        <time>2022-07-21T17:02:43Z</time>
      </trkpt>
      <trkpt lat="45.94368" lon="6.71427">
        <ele>1071</ele>
        <time>2022-07-21T17:02:48Z</time>
      </trkpt>
      <trkpt lat="45.94371" lon="6.71416">
        <ele>1070</ele>
        <time>2022-07-21T17:02:49Z</time>
      </trkpt>
      <trkpt lat="45.9437" lon="6.71404">
        <ele>1069</ele>
        <time>2022-07-21T17:02:50Z</time>
      </trkpt>
      <trkpt lat="45.94368" lon="6.71394">
        <ele>1069</ele>
        <time>2022-07-21T17:02:51Z</time>
      </trkpt>
      <trkpt lat="45.94363" lon="6.71385">
        <ele>1068</ele>
        <time>2022-07-21T17:02:52Z</time>
      </trkpt>
      <trkpt lat="45.94356" lon="6.71376">
        <ele>1068</ele>
        <time>2022-07-21T17:02:53Z</time>
      </trkpt>
      <trkpt lat="45.94337" lon="6.71373">
        <ele>1067</ele>
        <time>2022-07-21T17:02:55Z</time>
      </trkpt>
      <trkpt lat="45.94329" lon="6.71365">
        <ele>1067</ele>
        <time>2022-07-21T17:02:56Z</time>
      </trkpt>
      <trkpt lat="45.94312" lon="6.71332">
        <ele>1067</ele>
        <time>2022-07-21T17:02:59Z</time>
      </trkpt>
      <trkpt lat="45.94267" lon="6.71203">
        <ele>1063</ele>
        <time>2022-07-21T17:03:08Z</time>
      </trkpt>
      <trkpt lat="45.9425" lon="6.7119">
        <ele>1061</ele>
        <time>2022-07-21T17:03:10Z</time>
      </trkpt>
      <trkpt lat="45.94153" lon="6.71164">
        <ele>1054</ele>
        <time>2022-07-21T17:03:19Z</time>
      </trkpt>
      <trkpt lat="45.94133" lon="6.71151">
        <ele>1052</ele>
        <time>2022-07-21T17:03:21Z</time>
      </trkpt>
      <trkpt lat="45.94124" lon="6.71143">
        <ele>1052</ele>
        <time>2022-07-21T17:03:22Z</time>
      </trkpt>
      <trkpt lat="45.9406" lon="6.71077">
        <ele>1046</ele>
        <time>2022-07-21T17:03:29Z</time>
      </trkpt>
      <trkpt lat="45.94049" lon="6.71051">
        <ele>1044</ele>
        <time>2022-07-21T17:03:31Z</time>
      </trkpt>
      <trkpt lat="45.94035" lon="6.70993">
        <ele>1041</ele>
        <time>2022-07-21T17:03:35Z</time>
      </trkpt>
      <trkpt lat="45.94031" lon="6.7098">
        <ele>1041</ele>
        <time>2022-07-21T17:03:36Z</time>
      </trkpt>
      <trkpt lat="45.94023" lon="6.70955">
        <ele>1039</ele>
        <time>2022-07-21T17:03:38Z</time>
      </trkpt>
      <trkpt lat="45.94016" lon="6.70946">
        <ele>1038</ele>
        <time>2022-07-21T17:03:39Z</time>
      </trkpt>
      <trkpt lat="45.93975" lon="6.70916">
        <ele>1034</ele>
        <time>2022-07-21T17:03:44Z</time>
      </trkpt>
      <trkpt lat="45.93969" lon="6.70907">
        <ele>1033</ele>
        <time>2022-07-21T17:03:45Z</time>
      </trkpt>
      <trkpt lat="45.93965" lon="6.70897">
        <ele>1033</ele>
        <time>2022-07-21T17:03:46Z</time>
      </trkpt>
      <trkpt lat="45.93962" lon="6.70886">
        <ele>1032</ele>
        <time>2022-07-21T17:03:47Z</time>
      </trkpt>
      <trkpt lat="45.93959" lon="6.70863">
        <ele>1031</ele>
        <time>2022-07-21T17:03:49Z</time>
      </trkpt>
      <trkpt lat="45.93953" lon="6.70757">
        <ele>1030</ele>
        <time>2022-07-21T17:03:58Z</time>
      </trkpt>
      <trkpt lat="45.93951" lon="6.70731">
        <ele>1028</ele>
        <time>2022-07-21T17:04:03Z</time>
      </trkpt>
      <trkpt lat="45.93945" lon="6.70708">
        <ele>1028</ele>
        <time>2022-07-21T17:04:06Z</time>
      </trkpt>
      <trkpt lat="45.93941" lon="6.70699">
        <ele>1028</ele>
        <time>2022-07-21T17:04:07Z</time>
      </trkpt>
      <trkpt lat="45.93928" lon="6.70686">
        <ele>1028</ele>
        <time>2022-07-21T17:04:09Z</time>
      </trkpt>
      <trkpt lat="45.93781" lon="6.70586">
        <ele>1034</ele>
        <time>2022-07-21T17:04:25Z</time>
      </trkpt>
      <trkpt lat="45.93726" lon="6.70493">
        <ele>1038</ele>
        <time>2022-07-21T17:04:33Z</time>
      </trkpt>
      <trkpt lat="45.93637" lon="6.70233">
        <ele>1049</ele>
        <time>2022-07-21T17:04:50Z</time>
      </trkpt>
      <trkpt lat="45.9361" lon="6.70017">
        <ele>1049</ele>
        <time>2022-07-21T17:05:03Z</time>
      </trkpt>
      <trkpt lat="45.93632" lon="6.69446">
        <ele>1045</ele>
        <time>2022-07-21T17:05:33Z</time>
      </trkpt>
      <trkpt lat="45.93634" lon="6.69411">
        <ele>1045</ele>
        <time>2022-07-21T17:05:35Z</time>
      </trkpt>
      <trkpt lat="45.93648" lon="6.69353">
        <ele>1044</ele>
        <time>2022-07-21T17:05:39Z</time>
      </trkpt>
      <trkpt lat="45.93648" lon="6.69341">
        <ele>1044</ele>
        <time>2022-07-21T17:05:40Z</time>
      </trkpt>
      <trkpt lat="45.93645" lon="6.6933">
        <ele>1043</ele>
        <time>2022-07-21T17:05:41Z</time>
      </trkpt>
      <trkpt lat="45.93602" lon="6.69266">
        <ele>1041</ele>
        <time>2022-07-21T17:05:47Z</time>
      </trkpt>
      <trkpt lat="45.93584" lon="6.69249">
        <ele>1040</ele>
        <time>2022-07-21T17:05:49Z</time>
      </trkpt>
      <trkpt lat="45.93549" lon="6.69222">
        <ele>1036</ele>
        <time>2022-07-21T17:05:53Z</time>
      </trkpt>
      <trkpt lat="45.93541" lon="6.69213">
        <ele>1035</ele>
        <time>2022-07-21T17:05:54Z</time>
      </trkpt>
      <trkpt lat="45.93531" lon="6.69186">
        <ele>1033</ele>
        <time>2022-07-21T17:05:56Z</time>
      </trkpt>
      <trkpt lat="45.93527" lon="6.69172">
        <ele>1033</ele>
        <time>2022-07-21T17:05:57Z</time>
      </trkpt>
      <trkpt lat="45.93481" lon="6.68987">
        <ele>1025</ele>
        <time>2022-07-21T17:06:08Z</time>
      </trkpt>
      <trkpt lat="45.9348" lon="6.68953">
        <ele>1023</ele>
        <time>2022-07-21T17:06:10Z</time>
      </trkpt>
      <trkpt lat="45.9348" lon="6.68936">
        <ele>1023</ele>
        <time>2022-07-21T17:06:11Z</time>
      </trkpt>
      <trkpt lat="45.93473" lon="6.68904">
        <ele>1022</ele>
        <time>2022-07-21T17:06:13Z</time>
      </trkpt>
      <trkpt lat="45.93433" lon="6.68793">
        <ele>1017</ele>
        <time>2022-07-21T17:06:20Z</time>
      </trkpt>
      <trkpt lat="45.93424" lon="6.68749">
        <ele>1015</ele>
        <time>2022-07-21T17:06:23Z</time>
      </trkpt>
      <trkpt lat="45.93418" lon="6.68737">
        <ele>1014</ele>
        <time>2022-07-21T17:06:24Z</time>
      </trkpt>
      <trkpt lat="45.9341" lon="6.68728">
        <ele>1013</ele>
        <time>2022-07-21T17:06:25Z</time>
      </trkpt>
      <trkpt lat="45.93401" lon="6.6872">
        <ele>1013</ele>
        <time>2022-07-21T17:06:26Z</time>
      </trkpt>
      <trkpt lat="45.93315" lon="6.68658">
        <ele>1009</ele>
        <time>2022-07-21T17:06:35Z</time>
      </trkpt>
      <trkpt lat="45.93309" lon="6.68651">
        <ele>1009</ele>
        <time>2022-07-21T17:06:36Z</time>
      </trkpt>
      <trkpt lat="45.93305" lon="6.68641">
        <ele>1009</ele>
        <time>2022-07-21T17:06:37Z</time>
      </trkpt>
      <trkpt lat="45.93303" lon="6.68631">
        <ele>1008</ele>
        <time>2022-07-21T17:06:38Z</time>
      </trkpt>
      <trkpt lat="45.93314" lon="6.68471">
        <ele>1003</ele>
        <time>2022-07-21T17:06:50Z</time>
      </trkpt>
      <trkpt lat="45.93319" lon="6.68461">
        <ele>1002</ele>
        <time>2022-07-21T17:06:51Z</time>
      </trkpt>
      <trkpt lat="45.93326" lon="6.68455">
        <ele>1001</ele>
        <time>2022-07-21T17:06:52Z</time>
      </trkpt>
      <trkpt lat="45.93335" lon="6.68453">
        <ele>1001</ele>
        <time>2022-07-21T17:06:53Z</time>
      </trkpt>
      <trkpt lat="45.93354" lon="6.68459">
        <ele>1000</ele>
        <time>2022-07-21T17:06:55Z</time>
      </trkpt>
      <trkpt lat="45.93363" lon="6.68459">
        <ele>1000</ele>
        <time>2022-07-21T17:06:56Z</time>
      </trkpt>
      <trkpt lat="45.93372" lon="6.68455">
        <ele>1000</ele>
        <time>2022-07-21T17:06:57Z</time>
      </trkpt>
      <trkpt lat="45.93395" lon="6.68428">
        <ele>998</ele>
        <time>2022-07-21T17:07:00Z</time>
      </trkpt>
      <trkpt lat="45.93406" lon="6.68406">
        <ele>997</ele>
        <time>2022-07-21T17:07:02Z</time>
      </trkpt>
      <trkpt lat="45.93409" lon="6.68392">
        <ele>997</ele>
        <time>2022-07-21T17:07:03Z</time>
      </trkpt>
      <trkpt lat="45.93409" lon="6.68348">
        <ele>996</ele>
        <time>2022-07-21T17:07:06Z</time>
      </trkpt>
      <trkpt lat="45.93399" lon="6.68289">
        <ele>995</ele>
        <time>2022-07-21T17:07:10Z</time>
      </trkpt>
      <trkpt lat="45.93389" lon="6.68261">
        <ele>994</ele>
        <time>2022-07-21T17:07:12Z</time>
      </trkpt>
      <trkpt lat="45.93234" lon="6.68017">
        <ele>988</ele>
        <time>2022-07-21T17:07:31Z</time>
      </trkpt>
      <trkpt lat="45.93231" lon="6.68002">
        <ele>987</ele>
        <time>2022-07-21T17:07:32Z</time>
      </trkpt>
      <trkpt lat="45.93228" lon="6.6795">
        <ele>985</ele>
        <time>2022-07-21T17:07:35Z</time>
      </trkpt>
      <trkpt lat="45.93227" lon="6.67935">
        <ele>985</ele>
        <time>2022-07-21T17:07:36Z</time>
      </trkpt>
      <trkpt lat="45.93222" lon="6.67903">
        <ele>983</ele>
        <time>2022-07-21T17:07:38Z</time>
      </trkpt>
      <trkpt lat="45.932" lon="6.67845">
        <ele>980</ele>
        <time>2022-07-21T17:07:42Z</time>
      </trkpt>
      <trkpt lat="45.9319" lon="6.67827">
        <ele>978</ele>
        <time>2022-07-21T17:07:44Z</time>
      </trkpt>
      <trkpt lat="45.93183" lon="6.67821">
        <ele>977</ele>
        <time>2022-07-21T17:07:45Z</time>
      </trkpt>
      <trkpt lat="45.93167" lon="6.67817">
        <ele>976</ele>
        <time>2022-07-21T17:07:47Z</time>
      </trkpt>
      <trkpt lat="45.93148" lon="6.67816">
        <ele>974</ele>
        <time>2022-07-21T17:07:49Z</time>
      </trkpt>
      <trkpt lat="45.93139" lon="6.67815">
        <ele>974</ele>
        <time>2022-07-21T17:07:50Z</time>
      </trkpt>
      <trkpt lat="45.93113" lon="6.67811">
        <ele>972</ele>
        <time>2022-07-21T17:07:53Z</time>
      </trkpt>
      <trkpt lat="45.93106" lon="6.67814">
        <ele>971</ele>
        <time>2022-07-21T17:07:54Z</time>
      </trkpt>
      <trkpt lat="45.93099" lon="6.6782">
        <ele>970</ele>
        <time>2022-07-21T17:07:55Z</time>
      </trkpt>
      <trkpt lat="45.93094" lon="6.67828">
        <ele>970</ele>
        <time>2022-07-21T17:07:56Z</time>
      </trkpt>
      <trkpt lat="45.93089" lon="6.67839">
        <ele>969</ele>
        <time>2022-07-21T17:07:57Z</time>
      </trkpt>
      <trkpt lat="45.931" lon="6.6791">
        <ele>965</ele>
        <time>2022-07-21T17:08:02Z</time>
      </trkpt>
      <trkpt lat="45.93109" lon="6.67942">
        <ele>964</ele>
        <time>2022-07-21T17:08:04Z</time>
      </trkpt>
      <trkpt lat="45.93113" lon="6.67958">
        <ele>964</ele>
        <time>2022-07-21T17:08:05Z</time>
      </trkpt>
      <trkpt lat="45.93145" lon="6.68086">
        <ele>955</ele>
        <time>2022-07-21T17:08:14Z</time>
      </trkpt>
      <trkpt lat="45.93152" lon="6.68097">
        <ele>954</ele>
        <time>2022-07-21T17:08:15Z</time>
      </trkpt>
      <trkpt lat="45.93178" lon="6.6812">
        <ele>951</ele>
        <time>2022-07-21T17:08:18Z</time>
      </trkpt>
      <trkpt lat="45.93187" lon="6.68129">
        <ele>951</ele>
        <time>2022-07-21T17:08:19Z</time>
      </trkpt>
      <trkpt lat="45.93226" lon="6.68212">
        <ele>948</ele>
        <time>2022-07-21T17:08:26Z</time>
      </trkpt>
      <trkpt lat="45.93227" lon="6.68222">
        <ele>947</ele>
        <time>2022-07-21T17:08:27Z</time>
      </trkpt>
      <trkpt lat="45.93226" lon="6.68231">
        <ele>946</ele>
        <time>2022-07-21T17:08:28Z</time>
      </trkpt>
      <trkpt lat="45.93217" lon="6.68242">
        <ele>944</ele>
        <time>2022-07-21T17:08:30Z</time>
      </trkpt>
      <trkpt lat="45.93208" lon="6.68235">
        <ele>943</ele>
        <time>2022-07-21T17:08:31Z</time>
      </trkpt>
      <trkpt lat="45.93204" lon="6.68225">
        <ele>943</ele>
        <time>2022-07-21T17:08:32Z</time>
      </trkpt>
      <trkpt lat="45.93199" lon="6.68214">
        <ele>943</ele>
        <time>2022-07-21T17:08:33Z</time>
      </trkpt>
      <trkpt lat="45.93181" lon="6.68185">
        <ele>941</ele>
        <time>2022-07-21T17:08:36Z</time>
      </trkpt>
      <trkpt lat="45.93175" lon="6.6818">
        <ele>940</ele>
        <time>2022-07-21T17:08:37Z</time>
      </trkpt>
      <trkpt lat="45.93159" lon="6.68176">
        <ele>939</ele>
        <time>2022-07-21T17:08:39Z</time>
      </trkpt>
      <trkpt lat="45.9307" lon="6.68181">
        <ele>935</ele>
        <time>2022-07-21T17:08:47Z</time>
      </trkpt>
      <trkpt lat="45.93019" lon="6.68204">
        <ele>927</ele>
        <time>2022-07-21T17:08:52Z</time>
      </trkpt>
      <trkpt lat="45.93009" lon="6.68204">
        <ele>926</ele>
        <time>2022-07-21T17:08:53Z</time>
      </trkpt>
      <trkpt lat="45.93" lon="6.68201">
        <ele>925</ele>
        <time>2022-07-21T17:08:54Z</time>
      </trkpt>
      <trkpt lat="45.92991" lon="6.68193">
        <ele>924</ele>
        <time>2022-07-21T17:08:55Z</time>
      </trkpt>
      <trkpt lat="45.92978" lon="6.68169">
        <ele>922</ele>
        <time>2022-07-21T17:08:57Z</time>
      </trkpt>
      <trkpt lat="45.92962" lon="6.68128">
        <ele>919</ele>
        <time>2022-07-21T17:09:00Z</time>
      </trkpt>
      <trkpt lat="45.92955" lon="6.68114">
        <ele>919</ele>
        <time>2022-07-21T17:09:01Z</time>
      </trkpt>
      <trkpt lat="45.92941" lon="6.68086">
        <ele>917</ele>
        <time>2022-07-21T17:09:03Z</time>
      </trkpt>
      <trkpt lat="45.92867" lon="6.67991">
        <ele>909</ele>
        <time>2022-07-21T17:09:11Z</time>
      </trkpt>
      <trkpt lat="45.9285" lon="6.67954">
        <ele>906</ele>
        <time>2022-07-21T17:09:14Z</time>
      </trkpt>
      <trkpt lat="45.92846" lon="6.67943">
        <ele>906</ele>
        <time>2022-07-21T17:09:15Z</time>
      </trkpt>
      <trkpt lat="45.92842" lon="6.67934">
        <ele>905</ele>
        <time>2022-07-21T17:09:16Z</time>
      </trkpt>
      <trkpt lat="45.92838" lon="6.67925">
        <ele>904</ele>
        <time>2022-07-21T17:09:17Z</time>
      </trkpt>
      <trkpt lat="45.92831" lon="6.67921">
        <ele>903</ele>
        <time>2022-07-21T17:09:18Z</time>
      </trkpt>
      <trkpt lat="45.92824" lon="6.67922">
        <ele>902</ele>
        <time>2022-07-21T17:09:19Z</time>
      </trkpt>
      <trkpt lat="45.92816" lon="6.67927">
        <ele>901</ele>
        <time>2022-07-21T17:09:20Z</time>
      </trkpt>
      <trkpt lat="45.9281" lon="6.67935">
        <ele>900</ele>
        <time>2022-07-21T17:09:21Z</time>
      </trkpt>
      <trkpt lat="45.92807" lon="6.67946">
        <ele>899</ele>
        <time>2022-07-21T17:09:22Z</time>
      </trkpt>
      <trkpt lat="45.92806" lon="6.67958">
        <ele>899</ele>
        <time>2022-07-21T17:09:23Z</time>
      </trkpt>
      <trkpt lat="45.92813" lon="6.67981">
        <ele>898</ele>
        <time>2022-07-21T17:09:25Z</time>
      </trkpt>
      <trkpt lat="45.92841" lon="6.68057">
        <ele>895</ele>
        <time>2022-07-21T17:09:31Z</time>
      </trkpt>
      <trkpt lat="45.92849" lon="6.68117">
        <ele>893</ele>
        <time>2022-07-21T17:09:35Z</time>
      </trkpt>
      <trkpt lat="45.92847" lon="6.6815">
        <ele>892</ele>
        <time>2022-07-21T17:09:37Z</time>
      </trkpt>
      <trkpt lat="45.9284" lon="6.6824">
        <ele>887</ele>
        <time>2022-07-21T17:09:43Z</time>
      </trkpt>
      <trkpt lat="45.92842" lon="6.68252">
        <ele>887</ele>
        <time>2022-07-21T17:09:44Z</time>
      </trkpt>
      <trkpt lat="45.92847" lon="6.68264">
        <ele>886</ele>
        <time>2022-07-21T17:09:45Z</time>
      </trkpt>
      <trkpt lat="45.92854" lon="6.68273">
        <ele>885</ele>
        <time>2022-07-21T17:09:46Z</time>
      </trkpt>
      <trkpt lat="45.92938" lon="6.68354">
        <ele>879</ele>
        <time>2022-07-21T17:09:55Z</time>
      </trkpt>
      <trkpt lat="45.92953" lon="6.6838">
        <ele>877</ele>
        <time>2022-07-21T17:09:57Z</time>
      </trkpt>
      <trkpt lat="45.92959" lon="6.68394">
        <ele>877</ele>
        <time>2022-07-21T17:09:58Z</time>
      </trkpt>
      <trkpt lat="45.92963" lon="6.68409">
        <ele>877</ele>
        <time>2022-07-21T17:09:59Z</time>
      </trkpt>
      <trkpt lat="45.92965" lon="6.68425">
        <ele>876</ele>
        <time>2022-07-21T17:10:00Z</time>
      </trkpt>
      <trkpt lat="45.92929" lon="6.68647">
        <ele>867</ele>
        <time>2022-07-21T17:10:13Z</time>
      </trkpt>
      <trkpt lat="45.92924" lon="6.68658">
        <ele>866</ele>
        <time>2022-07-21T17:10:14Z</time>
      </trkpt>
      <trkpt lat="45.92917" lon="6.68664">
        <ele>865</ele>
        <time>2022-07-21T17:10:15Z</time>
      </trkpt>
      <trkpt lat="45.92908" lon="6.68666">
        <ele>865</ele>
        <time>2022-07-21T17:10:16Z</time>
      </trkpt>
      <trkpt lat="45.929" lon="6.68662">
        <ele>864</ele>
        <time>2022-07-21T17:10:17Z</time>
      </trkpt>
      <trkpt lat="45.92895" lon="6.68651">
        <ele>863</ele>
        <time>2022-07-21T17:10:18Z</time>
      </trkpt>
      <trkpt lat="45.92892" lon="6.68639">
        <ele>862</ele>
        <time>2022-07-21T17:10:19Z</time>
      </trkpt>
      <trkpt lat="45.92893" lon="6.68585">
        <ele>859</ele>
        <time>2022-07-21T17:10:23Z</time>
      </trkpt>
      <trkpt lat="45.9289" lon="6.68573">
        <ele>859</ele>
        <time>2022-07-21T17:10:24Z</time>
      </trkpt>
      <trkpt lat="45.92883" lon="6.68561">
        <ele>858</ele>
        <time>2022-07-21T17:10:25Z</time>
      </trkpt>
      <trkpt lat="45.92875" lon="6.68554">
        <ele>858</ele>
        <time>2022-07-21T17:10:26Z</time>
      </trkpt>
      <trkpt lat="45.92805" lon="6.68498">
        <ele>853</ele>
        <time>2022-07-21T17:10:33Z</time>
      </trkpt>
      <trkpt lat="45.92791" lon="6.68475">
        <ele>851</ele>
        <time>2022-07-21T17:10:35Z</time>
      </trkpt>
      <trkpt lat="45.9277" lon="6.68398">
        <ele>846</ele>
        <time>2022-07-21T17:10:40Z</time>
      </trkpt>
      <trkpt lat="45.92764" lon="6.68382">
        <ele>846</ele>
        <time>2022-07-21T17:10:41Z</time>
      </trkpt>
      <trkpt lat="45.92738" lon="6.68344">
        <ele>843</ele>
        <time>2022-07-21T17:10:44Z</time>
      </trkpt>
      <trkpt lat="45.92669" lon="6.68265">
        <ele>835</ele>
        <time>2022-07-21T17:10:51Z</time>
      </trkpt>
      <trkpt lat="45.92647" lon="6.6822">
        <ele>832</ele>
        <time>2022-07-21T17:10:54Z</time>
      </trkpt>
      <trkpt lat="45.92642" lon="6.68203">
        <ele>832</ele>
        <time>2022-07-21T17:10:55Z</time>
      </trkpt>
      <trkpt lat="45.92596" lon="6.6801">
        <ele>822</ele>
        <time>2022-07-21T17:11:06Z</time>
      </trkpt>
      <trkpt lat="45.9258" lon="6.6798">
        <ele>820</ele>
        <time>2022-07-21T17:11:08Z</time>
      </trkpt>
      <trkpt lat="45.92572" lon="6.67966">
        <ele>820</ele>
        <time>2022-07-21T17:11:09Z</time>
      </trkpt>
      <trkpt lat="45.92558" lon="6.67939">
        <ele>818</ele>
        <time>2022-07-21T17:11:11Z</time>
      </trkpt>
      <trkpt lat="45.92536" lon="6.67884">
        <ele>813</ele>
        <time>2022-07-21T17:11:16Z</time>
      </trkpt>
      <trkpt lat="45.9253" lon="6.67876">
        <ele>812</ele>
        <time>2022-07-21T17:11:17Z</time>
      </trkpt>
      <trkpt lat="45.92523" lon="6.67872">
        <ele>811</ele>
        <time>2022-07-21T17:11:18Z</time>
      </trkpt>
      <trkpt lat="45.92515" lon="6.67873">
        <ele>811</ele>
        <time>2022-07-21T17:11:19Z</time>
      </trkpt>
      <trkpt lat="45.92508" lon="6.67878">
        <ele>810</ele>
        <time>2022-07-21T17:11:20Z</time>
      </trkpt>
      <trkpt lat="45.92502" lon="6.67887">
        <ele>810</ele>
        <time>2022-07-21T17:11:21Z</time>
      </trkpt>
      <trkpt lat="45.92499" lon="6.679">
        <ele>809</ele>
        <time>2022-07-21T17:11:22Z</time>
      </trkpt>
      <trkpt lat="45.92499" lon="6.67914">
        <ele>809</ele>
        <time>2022-07-21T17:11:23Z</time>
      </trkpt>
      <trkpt lat="45.92494" lon="6.68047">
        <ele>804</ele>
        <time>2022-07-21T17:11:31Z</time>
      </trkpt>
      <trkpt lat="45.9249" lon="6.68101">
        <ele>800</ele>
        <time>2022-07-21T17:11:34Z</time>
      </trkpt>
      <trkpt lat="45.92498" lon="6.68135">
        <ele>798</ele>
        <time>2022-07-21T17:11:36Z</time>
      </trkpt>
      <trkpt lat="45.92502" lon="6.68151">
        <ele>798</ele>
        <time>2022-07-21T17:11:37Z</time>
      </trkpt>
      <trkpt lat="45.92503" lon="6.68184">
        <ele>795</ele>
        <time>2022-07-21T17:11:39Z</time>
      </trkpt>
      <trkpt lat="45.925" lon="6.6824">
        <ele>792</ele>
        <time>2022-07-21T17:11:42Z</time>
      </trkpt>
      <trkpt lat="45.92504" lon="6.68278">
        <ele>790</ele>
        <time>2022-07-21T17:11:44Z</time>
      </trkpt>
      <trkpt lat="45.92517" lon="6.68334">
        <ele>787</ele>
        <time>2022-07-21T17:11:47Z</time>
      </trkpt>
      <trkpt lat="45.92522" lon="6.68401">
        <ele>782</ele>
        <time>2022-07-21T17:11:51Z</time>
      </trkpt>
      <trkpt lat="45.92526" lon="6.68416">
        <ele>782</ele>
        <time>2022-07-21T17:11:52Z</time>
      </trkpt>
      <trkpt lat="45.92565" lon="6.68493">
        <ele>776</ele>
        <time>2022-07-21T17:11:58Z</time>
      </trkpt>
      <trkpt lat="45.92572" lon="6.68519">
        <ele>774</ele>
        <time>2022-07-21T17:12:00Z</time>
      </trkpt>
      <trkpt lat="45.92574" lon="6.68548">
        <ele>772</ele>
        <time>2022-07-21T17:12:02Z</time>
      </trkpt>
      <trkpt lat="45.92571" lon="6.68576">
        <ele>770</ele>
        <time>2022-07-21T17:12:04Z</time>
      </trkpt>
      <trkpt lat="45.92567" lon="6.68588">
        <ele>769</ele>
        <time>2022-07-21T17:12:05Z</time>
      </trkpt>
      <trkpt lat="45.92564" lon="6.68601">
        <ele>769</ele>
        <time>2022-07-21T17:12:06Z</time>
      </trkpt>
      <trkpt lat="45.92568" lon="6.68713">
        <ele>763</ele>
        <time>2022-07-21T17:12:14Z</time>
      </trkpt>
      <trkpt lat="45.92559" lon="6.68736">
        <ele>762</ele>
        <time>2022-07-21T17:12:16Z</time>
      </trkpt>
      <trkpt lat="45.92543" lon="6.68762">
        <ele>760</ele>
        <time>2022-07-21T17:12:19Z</time>
      </trkpt>
      <trkpt lat="45.92537" lon="6.68768">
        <ele>760</ele>
        <time>2022-07-21T17:12:20Z</time>
      </trkpt>
      <trkpt lat="45.9253" lon="6.68771">
        <ele>759</ele>
        <time>2022-07-21T17:12:21Z</time>
      </trkpt>
      <trkpt lat="45.92522" lon="6.68771">
        <ele>759</ele>
        <time>2022-07-21T17:12:22Z</time>
      </trkpt>
      <trkpt lat="45.92515" lon="6.68767">
        <ele>758</ele>
        <time>2022-07-21T17:12:23Z</time>
      </trkpt>
      <trkpt lat="45.92509" lon="6.68759">
        <ele>758</ele>
        <time>2022-07-21T17:12:24Z</time>
      </trkpt>
      <trkpt lat="45.92505" lon="6.68749">
        <ele>757</ele>
        <time>2022-07-21T17:12:25Z</time>
      </trkpt>
      <trkpt lat="45.92483" lon="6.68583">
        <ele>750</ele>
        <time>2022-07-21T17:12:37Z</time>
      </trkpt>
      <trkpt lat="45.92478" lon="6.68576">
        <ele>749</ele>
        <time>2022-07-21T17:12:38Z</time>
      </trkpt>
      <trkpt lat="45.92472" lon="6.68571">
        <ele>748</ele>
        <time>2022-07-21T17:12:39Z</time>
      </trkpt>
      <trkpt lat="45.92466" lon="6.68569">
        <ele>747</ele>
        <time>2022-07-21T17:12:40Z</time>
      </trkpt>
      <trkpt lat="45.9246" lon="6.68571">
        <ele>746</ele>
        <time>2022-07-21T17:12:41Z</time>
      </trkpt>
      <trkpt lat="45.92454" lon="6.68577">
        <ele>746</ele>
        <time>2022-07-21T17:12:42Z</time>
      </trkpt>
      <trkpt lat="45.92449" lon="6.68585">
        <ele>745</ele>
        <time>2022-07-21T17:12:43Z</time>
      </trkpt>
      <trkpt lat="45.92438" lon="6.68704">
        <ele>741</ele>
        <time>2022-07-21T17:12:52Z</time>
      </trkpt>
      <trkpt lat="45.92436" lon="6.68714">
        <ele>741</ele>
        <time>2022-07-21T17:12:53Z</time>
      </trkpt>
      <trkpt lat="45.9243" lon="6.6872">
        <ele>740</ele>
        <time>2022-07-21T17:12:54Z</time>
      </trkpt>
      <trkpt lat="45.92422" lon="6.68721">
        <ele>740</ele>
        <time>2022-07-21T17:12:55Z</time>
      </trkpt>
      <trkpt lat="45.92415" lon="6.68718">
        <ele>739</ele>
        <time>2022-07-21T17:12:56Z</time>
      </trkpt>
      <trkpt lat="45.92409" lon="6.68709">
        <ele>739</ele>
        <time>2022-07-21T17:12:57Z</time>
      </trkpt>
      <trkpt lat="45.92407" lon="6.68683">
        <ele>738</ele>
        <time>2022-07-21T17:12:59Z</time>
      </trkpt>
      <trkpt lat="45.92407" lon="6.6864">
        <ele>736</ele>
        <time>2022-07-21T17:13:02Z</time>
      </trkpt>
      <trkpt lat="45.92407" lon="6.68628">
        <ele>736</ele>
        <time>2022-07-21T17:13:03Z</time>
      </trkpt>
      <trkpt lat="45.92404" lon="6.68607">
        <ele>734</ele>
        <time>2022-07-21T17:13:05Z</time>
      </trkpt>
      <trkpt lat="45.92399" lon="6.68598">
        <ele>733</ele>
        <time>2022-07-21T17:13:06Z</time>
      </trkpt>
      <trkpt lat="45.92386" lon="6.68591">
        <ele>732</ele>
        <time>2022-07-21T17:13:08Z</time>
      </trkpt>
      <trkpt lat="45.92378" lon="6.68592">
        <ele>731</ele>
        <time>2022-07-21T17:13:09Z</time>
      </trkpt>
      <trkpt lat="45.92367" lon="6.68596">
        <ele>730</ele>
        <time>2022-07-21T17:13:11Z</time>
      </trkpt>
      <trkpt lat="45.92358" lon="6.68599">
        <ele>727</ele>
        <time>2022-07-21T17:13:15Z</time>
      </trkpt>
      <trkpt lat="45.92351" lon="6.68593">
        <ele>727</ele>
        <time>2022-07-21T17:13:17Z</time>
      </trkpt>
      <trkpt lat="45.92314" lon="6.68524">
        <ele>725</ele>
        <time>2022-07-21T17:13:25Z</time>
      </trkpt>
      <trkpt lat="45.92281" lon="6.68373">
        <ele>724</ele>
        <time>2022-07-21T17:13:37Z</time>
      </trkpt>
      <trkpt lat="45.9228" lon="6.68341">
        <ele>723</ele>
        <time>2022-07-21T17:13:39Z</time>
      </trkpt>
      <trkpt lat="45.92286" lon="6.68299">
        <ele>721</ele>
        <time>2022-07-21T17:13:42Z</time>
      </trkpt>
      <trkpt lat="45.92292" lon="6.68277">
        <ele>719</ele>
        <time>2022-07-21T17:13:44Z</time>
      </trkpt>
      <trkpt lat="45.92298" lon="6.68269">
        <ele>719</ele>
        <time>2022-07-21T17:13:45Z</time>
      </trkpt>
      <trkpt lat="45.92312" lon="6.68254">
        <ele>718</ele>
        <time>2022-07-21T17:13:47Z</time>
      </trkpt>
      <trkpt lat="45.92317" lon="6.68244">
        <ele>717</ele>
        <time>2022-07-21T17:13:48Z</time>
      </trkpt>
      <trkpt lat="45.92319" lon="6.68231">
        <ele>717</ele>
        <time>2022-07-21T17:13:49Z</time>
      </trkpt>
      <trkpt lat="45.92321" lon="6.68201">
        <ele>716</ele>
        <time>2022-07-21T17:13:51Z</time>
      </trkpt>
      <trkpt lat="45.92302" lon="6.68085">
        <ele>713</ele>
        <time>2022-07-21T17:13:59Z</time>
      </trkpt>
      <trkpt lat="45.92303" lon="6.6807">
        <ele>713</ele>
        <time>2022-07-21T17:14:00Z</time>
      </trkpt>
      <trkpt lat="45.92326" lon="6.67983">
        <ele>709</ele>
        <time>2022-07-21T17:14:06Z</time>
      </trkpt>
      <trkpt lat="45.92332" lon="6.67917">
        <ele>707</ele>
        <time>2022-07-21T17:14:10Z</time>
      </trkpt>
      <trkpt lat="45.92351" lon="6.67861">
        <ele>705</ele>
        <time>2022-07-21T17:14:14Z</time>
      </trkpt>
      <trkpt lat="45.92355" lon="6.67846">
        <ele>705</ele>
        <time>2022-07-21T17:14:15Z</time>
      </trkpt>
      <trkpt lat="45.92355" lon="6.67815">
        <ele>703</ele>
        <time>2022-07-21T17:14:17Z</time>
      </trkpt>
      <trkpt lat="45.92371" lon="6.67758">
        <ele>700</ele>
        <time>2022-07-21T17:14:21Z</time>
      </trkpt>
      <trkpt lat="45.92374" lon="6.67743">
        <ele>699</ele>
        <time>2022-07-21T17:14:22Z</time>
      </trkpt>
      <trkpt lat="45.92364" lon="6.67664">
        <ele>695</ele>
        <time>2022-07-21T17:14:27Z</time>
      </trkpt>
      <trkpt lat="45.92361" lon="6.67648">
        <ele>695</ele>
        <time>2022-07-21T17:14:28Z</time>
      </trkpt>
      <trkpt lat="45.92346" lon="6.67568">
        <ele>692</ele>
        <time>2022-07-21T17:14:33Z</time>
      </trkpt>
      <trkpt lat="45.92346" lon="6.67536">
        <ele>691</ele>
        <time>2022-07-21T17:14:35Z</time>
      </trkpt>
      <trkpt lat="45.92366" lon="6.67463">
        <ele>690</ele>
        <time>2022-07-21T17:14:40Z</time>
      </trkpt>
      <trkpt lat="45.92366" lon="6.67448">
        <ele>689</ele>
        <time>2022-07-21T17:14:41Z</time>
      </trkpt>
      <trkpt lat="45.92332" lon="6.67337">
        <ele>686</ele>
        <time>2022-07-21T17:14:49Z</time>
      </trkpt>
      <trkpt lat="45.92331" lon="6.67323">
        <ele>685</ele>
        <time>2022-07-21T17:14:50Z</time>
      </trkpt>
      <trkpt lat="45.92335" lon="6.67309">
        <ele>684</ele>
        <time>2022-07-21T17:14:51Z</time>
      </trkpt>
      <trkpt lat="45.92363" lon="6.6726">
        <ele>682</ele>
        <time>2022-07-21T17:14:55Z</time>
      </trkpt>
      <trkpt lat="45.92382" lon="6.67183">
        <ele>681</ele>
        <time>2022-07-21T17:15:00Z</time>
      </trkpt>
      <trkpt lat="45.92401" lon="6.6715">
        <ele>678</ele>
        <time>2022-07-21T17:15:03Z</time>
      </trkpt>
      <trkpt lat="45.92425" lon="6.67025">
        <ele>673</ele>
        <time>2022-07-21T17:15:11Z</time>
      </trkpt>
      <trkpt lat="45.92443" lon="6.66982">
        <ele>670</ele>
        <time>2022-07-21T17:15:14Z</time>
      </trkpt>
      <trkpt lat="45.92465" lon="6.66842">
        <ele>663</ele>
        <time>2022-07-21T17:15:23Z</time>
      </trkpt>
      <trkpt lat="45.92471" lon="6.66829">
        <ele>662</ele>
        <time>2022-07-21T17:15:24Z</time>
      </trkpt>
      <trkpt lat="45.92478" lon="6.66816">
        <ele>662</ele>
        <time>2022-07-21T17:15:25Z</time>
      </trkpt>
      <trkpt lat="45.9254" lon="6.66694">
        <ele>655</ele>
        <time>2022-07-21T17:15:35Z</time>
      </trkpt>
      <trkpt lat="45.92547" lon="6.66686">
        <ele>655</ele>
        <time>2022-07-21T17:15:36Z</time>
      </trkpt>
      <trkpt lat="45.92566" lon="6.66676">
        <ele>653</ele>
        <time>2022-07-21T17:15:38Z</time>
      </trkpt>
      <trkpt lat="45.92576" lon="6.66672">
        <ele>653</ele>
        <time>2022-07-21T17:15:39Z</time>
      </trkpt>
      <trkpt lat="45.92617" lon="6.66649">
        <ele>651</ele>
        <time>2022-07-21T17:15:43Z</time>
      </trkpt>
      <trkpt lat="45.92635" lon="6.66631">
        <ele>650</ele>
        <time>2022-07-21T17:15:45Z</time>
      </trkpt>
      <trkpt lat="45.92648" lon="6.66609">
        <ele>648</ele>
        <time>2022-07-21T17:15:47Z</time>
      </trkpt>
      <trkpt lat="45.92652" lon="6.66597">
        <ele>647</ele>
        <time>2022-07-21T17:15:48Z</time>
      </trkpt>
      <trkpt lat="45.92654" lon="6.66584">
        <ele>647</ele>
        <time>2022-07-21T17:15:49Z</time>
      </trkpt>
      <trkpt lat="45.92653" lon="6.66572">
        <ele>646</ele>
        <time>2022-07-21T17:15:50Z</time>
      </trkpt>
      <trkpt lat="45.92649" lon="6.66559">
        <ele>645</ele>
        <time>2022-07-21T17:15:51Z</time>
      </trkpt>
      <trkpt lat="45.92643" lon="6.66549">
        <ele>645</ele>
        <time>2022-07-21T17:15:52Z</time>
      </trkpt>
      <trkpt lat="45.92637" lon="6.66539">
        <ele>645</ele>
        <time>2022-07-21T17:15:53Z</time>
      </trkpt>
      <trkpt lat="45.92625" lon="6.66517">
        <ele>644</ele>
        <time>2022-07-21T17:15:55Z</time>
      </trkpt>
      <trkpt lat="45.92614" lon="6.66459">
        <ele>642</ele>
        <time>2022-07-21T17:15:59Z</time>
      </trkpt>
      <trkpt lat="45.92612" lon="6.6643">
        <ele>641</ele>
        <time>2022-07-21T17:16:01Z</time>
      </trkpt>
      <trkpt lat="45.9262" lon="6.66402">
        <ele>640</ele>
        <time>2022-07-21T17:16:03Z</time>
      </trkpt>
      <trkpt lat="45.9267" lon="6.66296">
        <ele>635</ele>
        <time>2022-07-21T17:16:11Z</time>
      </trkpt>
      <trkpt lat="45.92677" lon="6.66267">
        <ele>634</ele>
        <time>2022-07-21T17:16:13Z</time>
      </trkpt>
      <trkpt lat="45.92684" lon="6.66067">
        <ele>627</ele>
        <time>2022-07-21T17:16:26Z</time>
      </trkpt>
      <trkpt lat="45.9278" lon="6.6588">
        <ele>621</ele>
        <time>2022-07-21T17:16:39Z</time>
      </trkpt>
      <trkpt lat="45.92878" lon="6.65771">
        <ele>615</ele>
        <time>2022-07-21T17:16:49Z</time>
      </trkpt>
      <trkpt lat="45.92885" lon="6.65759">
        <ele>615</ele>
        <time>2022-07-21T17:16:50Z</time>
      </trkpt>
      <trkpt lat="45.929" lon="6.65716">
        <ele>613</ele>
        <time>2022-07-21T17:16:53Z</time>
      </trkpt>
      <trkpt lat="45.92924" lon="6.65549">
        <ele>600</ele>
        <time>2022-07-21T17:17:06Z</time>
      </trkpt>
      <trkpt lat="45.92922" lon="6.65532">
        <ele>594</ele>
        <time>2022-07-21T17:17:18Z</time>
      </trkpt>
      <trkpt lat="45.92923" lon="6.65515">
        <ele>594</ele>
        <time>2022-07-21T17:17:21Z</time>
      </trkpt>
      <trkpt lat="45.92933" lon="6.6548">
        <ele>594</ele>
        <time>2022-07-21T17:17:25Z</time>
      </trkpt>
      <trkpt lat="45.92966" lon="6.65444">
        <ele>594</ele>
        <time>2022-07-21T17:17:29Z</time>
      </trkpt>
      <trkpt lat="45.9338" lon="6.65014">
        <ele>581</ele>
        <time>2022-07-21T17:17:59Z</time>
      </trkpt>
      <trkpt lat="45.93704" lon="6.64624">
        <ele>576</ele>
        <time>2022-07-21T17:18:29Z</time>
      </trkpt>
      <trkpt lat="45.93842" lon="6.64478">
        <ele>577</ele>
        <time>2022-07-21T17:18:43Z</time>
      </trkpt>
      <trkpt lat="45.93858" lon="6.64449">
        <ele>577</ele>
        <time>2022-07-21T17:18:45Z</time>
      </trkpt>
      <trkpt lat="45.93868" lon="6.64399">
        <ele>580</ele>
        <time>2022-07-21T17:18:48Z</time>
      </trkpt>
      <trkpt lat="45.9387" lon="6.64186">
        <ele>585</ele>
        <time>2022-07-21T17:19:01Z</time>
      </trkpt>
      <trkpt lat="45.93878" lon="6.64158">
        <ele>584</ele>
        <time>2022-07-21T17:19:03Z</time>
      </trkpt>
      <trkpt lat="45.93888" lon="6.64131">
        <ele>584</ele>
        <time>2022-07-21T17:19:05Z</time>
      </trkpt>
      <trkpt lat="45.93931" lon="6.64088">
        <ele>581</ele>
        <time>2022-07-21T17:19:10Z</time>
      </trkpt>
      <trkpt lat="45.93942" lon="6.64078">
        <ele>579</ele>
        <time>2022-07-21T17:19:12Z</time>
      </trkpt>
      <trkpt lat="45.93947" lon="6.64074">
        <ele>579</ele>
        <time>2022-07-21T17:19:13Z</time>
      </trkpt>
      <trkpt lat="45.93961" lon="6.64066">
        <ele>576</ele>
        <time>2022-07-21T17:19:16Z</time>
      </trkpt>
      <trkpt lat="45.93967" lon="6.64065">
        <ele>576</ele>
        <time>2022-07-21T17:19:17Z</time>
      </trkpt>
      <trkpt lat="45.93973" lon="6.64061">
        <ele>575</ele>
        <time>2022-07-21T17:19:18Z</time>
      </trkpt>
      <trkpt lat="45.93981" lon="6.64043">
        <ele>575</ele>
        <time>2022-07-21T17:19:20Z</time>
      </trkpt>
      <trkpt lat="45.93987" lon="6.64032">
        <ele>574</ele>
        <time>2022-07-21T17:19:25Z</time>
      </trkpt>
      <trkpt lat="45.93996" lon="6.64016">
        <ele>574</ele>
        <time>2022-07-21T17:19:28Z</time>
      </trkpt>
      <trkpt lat="45.94199" lon="6.63842">
        <ele>576</ele>
        <time>2022-07-21T17:19:47Z</time>
      </trkpt>
      <trkpt lat="45.94244" lon="6.63822">
        <ele>576</ele>
        <time>2022-07-21T17:19:50Z</time>
      </trkpt>
      <trkpt lat="45.94303" lon="6.63805">
        <ele>575</ele>
        <time>2022-07-21T17:19:54Z</time>
      </trkpt>
      <trkpt lat="45.94331" lon="6.63787">
        <ele>574</ele>
        <time>2022-07-21T17:19:56Z</time>
      </trkpt>
      <trkpt lat="45.94459" lon="6.63663">
        <ele>570</ele>
        <time>2022-07-21T17:20:08Z</time>
      </trkpt>
      <trkpt lat="45.94466" lon="6.63662">
        <ele>570</ele>
        <time>2022-07-21T17:20:09Z</time>
      </trkpt>
      <trkpt lat="45.94474" lon="6.63664">
        <ele>570</ele>
        <time>2022-07-21T17:20:10Z</time>
      </trkpt>
      <trkpt lat="45.94481" lon="6.63666">
        <ele>569</ele>
        <time>2022-07-21T17:20:11Z</time>
      </trkpt>
      <trkpt lat="45.94489" lon="6.63664">
        <ele>569</ele>
        <time>2022-07-21T17:20:12Z</time>
      </trkpt>
      <trkpt lat="45.94495" lon="6.63657">
        <ele>569</ele>
        <time>2022-07-21T17:20:13Z</time>
      </trkpt>
      <trkpt lat="45.94498" lon="6.63646">
        <ele>569</ele>
        <time>2022-07-21T17:20:14Z</time>
      </trkpt>
      <trkpt lat="45.945" lon="6.63635">
        <ele>569</ele>
        <time>2022-07-21T17:20:15Z</time>
      </trkpt>
      <trkpt lat="45.94777" lon="6.63573">
        <ele>570</ele>
        <time>2022-07-21T17:20:37Z</time>
      </trkpt>
    </trkseg>
  </trk>
  <trk>
    <name><![CDATA[20 juil. 2022 à 17:02:15]]></name>
    <cmt><![CDATA[20 juil. 2022 à 17:02:15]]></cmt>
    <trkseg>
      <trkpt lat="45.99446" lon="6.83289">
        <ele>1847</ele>
        <time>2022-07-20T15:02:16Z</time>
      </trkpt>
      <trkpt lat="45.99446" lon="6.83289">
        <ele>1847</ele>
        <time>2022-07-20T15:02:17Z</time>
      </trkpt>
      <trkpt lat="45.99444" lon="6.8328">
        <ele>1848</ele>
        <time>2022-07-20T15:02:25Z</time>
      </trkpt>
      <trkpt lat="45.99443" lon="6.83274">
        <ele>1847</ele>
        <time>2022-07-20T15:02:32Z</time>
      </trkpt>
      <trkpt lat="45.99435" lon="6.83263">
        <ele>1847</ele>
        <time>2022-07-20T15:02:46Z</time>
      </trkpt>
      <trkpt lat="45.99422" lon="6.83243">
        <ele>1848</ele>
        <time>2022-07-20T15:03:07Z</time>
      </trkpt>
      <trkpt lat="45.99416" lon="6.83237">
        <ele>1848</ele>
        <time>2022-07-20T15:03:15Z</time>
      </trkpt>
      <trkpt lat="45.99412" lon="6.83233">
        <ele>1847</ele>
        <time>2022-07-20T15:03:19Z</time>
      </trkpt>
      <trkpt lat="45.99402" lon="6.83219">
        <ele>1846</ele>
        <time>2022-07-20T15:03:33Z</time>
      </trkpt>
      <trkpt lat="45.99394" lon="6.83211">
        <ele>1846</ele>
        <time>2022-07-20T15:03:41Z</time>
      </trkpt>
      <trkpt lat="45.99389" lon="6.83209">
        <ele>1846</ele>
        <time>2022-07-20T15:03:48Z</time>
      </trkpt>
      <trkpt lat="45.99384" lon="6.83205">
        <ele>1846</ele>
        <time>2022-07-20T15:04:24Z</time>
      </trkpt>
      <trkpt lat="45.99383" lon="6.83196">
        <ele>1848</ele>
        <time>2022-07-20T15:04:37Z</time>
      </trkpt>
      <trkpt lat="45.99375" lon="6.83187">
        <ele>1849</ele>
        <time>2022-07-20T15:04:50Z</time>
      </trkpt>
      <trkpt lat="45.99372" lon="6.83182">
        <ele>1849</ele>
        <time>2022-07-20T15:04:54Z</time>
      </trkpt>
      <trkpt lat="45.99368" lon="6.83177">
        <ele>1850</ele>
        <time>2022-07-20T15:05:02Z</time>
      </trkpt>
      <trkpt lat="45.99362" lon="6.8317">
        <ele>1850</ele>
        <time>2022-07-20T15:05:14Z</time>
      </trkpt>
      <trkpt lat="45.99358" lon="6.83166">
        <ele>1851</ele>
        <time>2022-07-20T15:05:19Z</time>
      </trkpt>
      <trkpt lat="45.99354" lon="6.83163">
        <ele>1851</ele>
        <time>2022-07-20T15:05:24Z</time>
      </trkpt>
      <trkpt lat="45.99345" lon="6.8316">
        <ele>1851</ele>
        <time>2022-07-20T15:05:35Z</time>
      </trkpt>
      <trkpt lat="45.99341" lon="6.83159">
        <ele>1850</ele>
        <time>2022-07-20T15:05:40Z</time>
      </trkpt>
      <trkpt lat="45.9933" lon="6.83153">
        <ele>1850</ele>
        <time>2022-07-20T15:05:52Z</time>
      </trkpt>
      <trkpt lat="45.99326" lon="6.83152">
        <ele>1850</ele>
        <time>2022-07-20T15:05:56Z</time>
      </trkpt>
      <trkpt lat="45.99322" lon="6.83148">
        <ele>1851</ele>
        <time>2022-07-20T15:06:00Z</time>
      </trkpt>
      <trkpt lat="45.99313" lon="6.83142">
        <ele>1850</ele>
        <time>2022-07-20T15:06:09Z</time>
      </trkpt>
      <trkpt lat="45.99308" lon="6.83138">
        <ele>1851</ele>
        <time>2022-07-20T15:06:17Z</time>
      </trkpt>
      <trkpt lat="45.99307" lon="6.83131">
        <ele>1852</ele>
        <time>2022-07-20T15:06:28Z</time>
      </trkpt>
      <trkpt lat="45.99303" lon="6.83125">
        <ele>1853</ele>
        <time>2022-07-20T15:06:34Z</time>
      </trkpt>
      <trkpt lat="45.993" lon="6.83119">
        <ele>1852</ele>
        <time>2022-07-20T15:06:40Z</time>
      </trkpt>
      <trkpt lat="45.99293" lon="6.83116">
        <ele>1851</ele>
        <time>2022-07-20T15:06:47Z</time>
      </trkpt>
      <trkpt lat="45.99288" lon="6.83114">
        <ele>1852</ele>
        <time>2022-07-20T15:06:56Z</time>
      </trkpt>
      <trkpt lat="45.99283" lon="6.83112">
        <ele>1852</ele>
        <time>2022-07-20T15:07:01Z</time>
      </trkpt>
      <trkpt lat="45.99278" lon="6.83113">
        <ele>1852</ele>
        <time>2022-07-20T15:07:05Z</time>
      </trkpt>
      <trkpt lat="45.99272" lon="6.8311">
        <ele>1854</ele>
        <time>2022-07-20T15:07:17Z</time>
      </trkpt>
      <trkpt lat="45.99248" lon="6.83117">
        <ele>1850</ele>
        <time>2022-07-20T15:07:43Z</time>
      </trkpt>
      <trkpt lat="45.99242" lon="6.83114">
        <ele>1850</ele>
        <time>2022-07-20T15:07:49Z</time>
      </trkpt>
      <trkpt lat="45.99221" lon="6.83117">
        <ele>1847</ele>
        <time>2022-07-20T15:08:09Z</time>
      </trkpt>
      <trkpt lat="45.9921" lon="6.83112">
        <ele>1847</ele>
        <time>2022-07-20T15:08:21Z</time>
      </trkpt>
      <trkpt lat="45.99207" lon="6.83107">
        <ele>1847</ele>
        <time>2022-07-20T15:08:26Z</time>
      </trkpt>
      <trkpt lat="45.99203" lon="6.83108">
        <ele>1848</ele>
        <time>2022-07-20T15:09:49Z</time>
      </trkpt>
      <trkpt lat="45.99206" lon="6.83109">
        <ele>1851</ele>
        <time>2022-07-20T15:15:42Z</time>
      </trkpt>
      <trkpt lat="45.99217" lon="6.83118">
        <ele>1851</ele>
        <time>2022-07-20T15:16:06Z</time>
      </trkpt>
      <trkpt lat="45.99223" lon="6.83119">
        <ele>1851</ele>
        <time>2022-07-20T15:16:43Z</time>
      </trkpt>
      <trkpt lat="45.99223" lon="6.83119">
        <ele>1874</ele>
        <time>2022-07-20T15:55:17Z</time>
      </trkpt>
      <trkpt lat="45.99217" lon="6.83117">
        <ele>1883</ele>
        <time>2022-07-20T16:10:01Z</time>
      </trkpt>
      <trkpt lat="45.99211" lon="6.83113">
        <ele>1883</ele>
        <time>2022-07-20T16:10:11Z</time>
      </trkpt>
      <trkpt lat="45.99214" lon="6.83116">
        <ele>1883</ele>
        <time>2022-07-20T16:10:37Z</time>
      </trkpt>
      <trkpt lat="45.99218" lon="6.83119">
        <ele>1883</ele>
        <time>2022-07-20T16:10:39Z</time>
      </trkpt>
      <trkpt lat="45.99223" lon="6.83119">
        <ele>1883</ele>
        <time>2022-07-20T16:10:44Z</time>
      </trkpt>
      <trkpt lat="45.99218" lon="6.83118">
        <ele>1883</ele>
        <time>2022-07-20T16:12:10Z</time>
      </trkpt>
      <trkpt lat="45.99206" lon="6.83108">
        <ele>1884</ele>
        <time>2022-07-20T16:12:33Z</time>
      </trkpt>
      <trkpt lat="45.99203" lon="6.83112">
        <ele>1885</ele>
        <time>2022-07-20T16:13:24Z</time>
      </trkpt>
      <trkpt lat="45.99206" lon="6.83111">
        <ele>1887</ele>
        <time>2022-07-20T16:19:54Z</time>
      </trkpt>
      <trkpt lat="45.99211" lon="6.83114">
        <ele>1884</ele>
        <time>2022-07-20T16:20:09Z</time>
      </trkpt>
      <trkpt lat="45.99207" lon="6.83119">
        <ele>1887</ele>
        <time>2022-07-20T16:33:10Z</time>
      </trkpt>
      <trkpt lat="45.99203" lon="6.83117">
        <ele>1886</ele>
        <time>2022-07-20T16:40:07Z</time>
      </trkpt>
      <trkpt lat="45.99204" lon="6.83109">
        <ele>1886</ele>
        <time>2022-07-20T16:40:37Z</time>
      </trkpt>
      <trkpt lat="45.99199" lon="6.83112">
        <ele>1886</ele>
        <time>2022-07-20T16:53:13Z</time>
      </trkpt>
      <trkpt lat="45.99196" lon="6.83105">
        <ele>1888</ele>
        <time>2022-07-20T16:57:55Z</time>
      </trkpt>
      <trkpt lat="45.99197" lon="6.83098">
        <ele>1888</ele>
        <time>2022-07-20T16:58:00Z</time>
      </trkpt>
      <trkpt lat="45.99198" lon="6.83101">
        <ele>1888</ele>
        <time>2022-07-20T17:02:36Z</time>
      </trkpt>
      <trkpt lat="45.99198" lon="6.83104">
        <ele>1888</ele>
        <time>2022-07-20T17:03:29Z</time>
      </trkpt>
      <trkpt lat="45.99203" lon="6.83115">
        <ele>1889</ele>
        <time>2022-07-20T17:03:39Z</time>
      </trkpt>
      <trkpt lat="45.99202" lon="6.83111">
        <ele>1888</ele>
        <time>2022-07-20T17:04:13Z</time>
      </trkpt>
      <trkpt lat="45.99198" lon="6.83101">
        <ele>1888</ele>
        <time>2022-07-20T17:04:21Z</time>
      </trkpt>
      <trkpt lat="45.99199" lon="6.83105">
        <ele>1889</ele>
        <time>2022-07-20T17:05:51Z</time>
      </trkpt>
      <trkpt lat="45.99203" lon="6.83114">
        <ele>1890</ele>
        <time>2022-07-20T17:06:01Z</time>
      </trkpt>
      <trkpt lat="45.99202" lon="6.83113">
        <ele>1884</ele>
        <time>2022-07-20T17:15:05Z</time>
      </trkpt>
      <trkpt lat="45.99204" lon="6.83106">
        <ele>1884</ele>
        <time>2022-07-20T17:15:25Z</time>
      </trkpt>
      <trkpt lat="45.99198" lon="6.83104">
        <ele>1886</ele>
        <time>2022-07-20T17:20:49Z</time>
      </trkpt>
      <trkpt lat="45.992" lon="6.83108">
        <ele>1886</ele>
        <time>2022-07-20T17:45:54Z</time>
      </trkpt>
      <trkpt lat="45.99203" lon="6.83112">
        <ele>1885</ele>
        <time>2022-07-20T17:45:58Z</time>
      </trkpt>
      <trkpt lat="45.99207" lon="6.83114">
        <ele>1886</ele>
        <time>2022-07-20T17:46:31Z</time>
      </trkpt>
      <trkpt lat="45.99205" lon="6.83106">
        <ele>1886</ele>
        <time>2022-07-20T17:58:11Z</time>
      </trkpt>
      <trkpt lat="45.99202" lon="6.83101">
        <ele>1887</ele>
        <time>2022-07-20T17:58:41Z</time>
      </trkpt>
      <trkpt lat="45.992" lon="6.83106">
        <ele>1886</ele>
        <time>2022-07-20T18:03:27Z</time>
      </trkpt>
      <trkpt lat="45.99204" lon="6.83109">
        <ele>1886</ele>
        <time>2022-07-20T18:05:09Z</time>
      </trkpt>
      <trkpt lat="45.99214" lon="6.83115">
        <ele>1886</ele>
        <time>2022-07-20T18:05:22Z</time>
      </trkpt>
      <trkpt lat="45.99218" lon="6.83118">
        <ele>1886</ele>
        <time>2022-07-20T18:05:26Z</time>
      </trkpt>
      <trkpt lat="45.99222" lon="6.83118">
        <ele>1886</ele>
        <time>2022-07-20T18:05:31Z</time>
      </trkpt>
      <trkpt lat="45.99229" lon="6.83117">
        <ele>1886</ele>
        <time>2022-07-20T18:05:37Z</time>
      </trkpt>
      <trkpt lat="45.99233" lon="6.83115">
        <ele>1886</ele>
        <time>2022-07-20T18:05:41Z</time>
      </trkpt>
      <trkpt lat="45.99237" lon="6.83112">
        <ele>1887</ele>
        <time>2022-07-20T18:05:49Z</time>
      </trkpt>
      <trkpt lat="45.99252" lon="6.83115">
        <ele>1889</ele>
        <time>2022-07-20T18:06:11Z</time>
      </trkpt>
      <trkpt lat="45.99257" lon="6.83113">
        <ele>1889</ele>
        <time>2022-07-20T18:06:22Z</time>
      </trkpt>
      <trkpt lat="45.99264" lon="6.83111">
        <ele>1890</ele>
        <time>2022-07-20T18:06:32Z</time>
      </trkpt>
      <trkpt lat="45.99277" lon="6.83106">
        <ele>1892</ele>
        <time>2022-07-20T18:06:49Z</time>
      </trkpt>
      <trkpt lat="45.99287" lon="6.83106">
        <ele>1892</ele>
        <time>2022-07-20T18:06:57Z</time>
      </trkpt>
      <trkpt lat="45.9929" lon="6.83105">
        <ele>1893</ele>
        <time>2022-07-20T18:07:02Z</time>
      </trkpt>
      <trkpt lat="45.99295" lon="6.83105">
        <ele>1893</ele>
        <time>2022-07-20T18:07:07Z</time>
      </trkpt>
      <trkpt lat="45.99301" lon="6.83104">
        <ele>1894</ele>
        <time>2022-07-20T18:07:13Z</time>
      </trkpt>
      <trkpt lat="45.99315" lon="6.8311">
        <ele>1896</ele>
        <time>2022-07-20T18:07:32Z</time>
      </trkpt>
      <trkpt lat="45.99321" lon="6.83113">
        <ele>1897</ele>
        <time>2022-07-20T18:07:43Z</time>
      </trkpt>
      <trkpt lat="45.99328" lon="6.83113">
        <ele>1899</ele>
        <time>2022-07-20T18:07:54Z</time>
      </trkpt>
      <trkpt lat="45.99332" lon="6.83117">
        <ele>1900</ele>
        <time>2022-07-20T18:08:04Z</time>
      </trkpt>
      <trkpt lat="45.99337" lon="6.83114">
        <ele>1901</ele>
        <time>2022-07-20T18:08:10Z</time>
      </trkpt>
      <trkpt lat="45.99343" lon="6.83113">
        <ele>1902</ele>
        <time>2022-07-20T18:08:17Z</time>
      </trkpt>
      <trkpt lat="45.99347" lon="6.8311">
        <ele>1902</ele>
        <time>2022-07-20T18:08:21Z</time>
      </trkpt>
      <trkpt lat="45.99358" lon="6.83106">
        <ele>1903</ele>
        <time>2022-07-20T18:08:33Z</time>
      </trkpt>
      <trkpt lat="45.99363" lon="6.83107">
        <ele>1903</ele>
        <time>2022-07-20T18:08:37Z</time>
      </trkpt>
      <trkpt lat="45.99375" lon="6.83109">
        <ele>1904</ele>
        <time>2022-07-20T18:08:52Z</time>
      </trkpt>
      <trkpt lat="45.99384" lon="6.83107">
        <ele>1905</ele>
        <time>2022-07-20T18:09:01Z</time>
      </trkpt>
      <trkpt lat="45.99388" lon="6.8311">
        <ele>1906</ele>
        <time>2022-07-20T18:09:07Z</time>
      </trkpt>
      <trkpt lat="45.99399" lon="6.8311">
        <ele>1907</ele>
        <time>2022-07-20T18:09:18Z</time>
      </trkpt>
      <trkpt lat="45.99403" lon="6.83114">
        <ele>1907</ele>
        <time>2022-07-20T18:09:23Z</time>
      </trkpt>
      <trkpt lat="45.99408" lon="6.83115">
        <ele>1907</ele>
        <time>2022-07-20T18:09:27Z</time>
      </trkpt>
      <trkpt lat="45.99424" lon="6.83118">
        <ele>1910</ele>
        <time>2022-07-20T18:09:46Z</time>
      </trkpt>
      <trkpt lat="45.99429" lon="6.83122">
        <ele>1910</ele>
        <time>2022-07-20T18:09:53Z</time>
      </trkpt>
      <trkpt lat="45.99442" lon="6.83126">
        <ele>1913</ele>
        <time>2022-07-20T18:10:10Z</time>
      </trkpt>
      <trkpt lat="45.99446" lon="6.8313">
        <ele>1913</ele>
        <time>2022-07-20T18:10:14Z</time>
      </trkpt>
      <trkpt lat="45.99456" lon="6.83134">
        <ele>1915</ele>
        <time>2022-07-20T18:10:29Z</time>
      </trkpt>
      <trkpt lat="45.99462" lon="6.83132">
        <ele>1916</ele>
        <time>2022-07-20T18:10:36Z</time>
      </trkpt>
      <trkpt lat="45.99467" lon="6.83135">
        <ele>1918</ele>
        <time>2022-07-20T18:10:45Z</time>
      </trkpt>
      <trkpt lat="45.99472" lon="6.83139">
        <ele>1919</ele>
        <time>2022-07-20T18:10:56Z</time>
      </trkpt>
      <trkpt lat="45.99477" lon="6.8314">
        <ele>1919</ele>
        <time>2022-07-20T18:11:01Z</time>
      </trkpt>
      <trkpt lat="45.99485" lon="6.8314">
        <ele>1920</ele>
        <time>2022-07-20T18:11:10Z</time>
      </trkpt>
      <trkpt lat="45.9949" lon="6.8314">
        <ele>1921</ele>
        <time>2022-07-20T18:11:16Z</time>
      </trkpt>
      <trkpt lat="45.99494" lon="6.83144">
        <ele>1922</ele>
        <time>2022-07-20T18:11:21Z</time>
      </trkpt>
      <trkpt lat="45.99499" lon="6.83146">
        <ele>1922</ele>
        <time>2022-07-20T18:11:26Z</time>
      </trkpt>
      <trkpt lat="45.99506" lon="6.83149">
        <ele>1924</ele>
        <time>2022-07-20T18:11:38Z</time>
      </trkpt>
      <trkpt lat="45.99511" lon="6.83154">
        <ele>1925</ele>
        <time>2022-07-20T18:11:48Z</time>
      </trkpt>
      <trkpt lat="45.99515" lon="6.83153">
        <ele>1925</ele>
        <time>2022-07-20T18:11:53Z</time>
      </trkpt>
      <trkpt lat="45.99533" lon="6.83154">
        <ele>1930</ele>
        <time>2022-07-20T18:12:28Z</time>
      </trkpt>
      <trkpt lat="45.99539" lon="6.83156">
        <ele>1931</ele>
        <time>2022-07-20T18:12:39Z</time>
      </trkpt>
      <trkpt lat="45.99543" lon="6.83156">
        <ele>1932</ele>
        <time>2022-07-20T18:12:45Z</time>
      </trkpt>
      <trkpt lat="45.99554" lon="6.83155">
        <ele>1934</ele>
        <time>2022-07-20T18:13:01Z</time>
      </trkpt>
      <trkpt lat="45.99558" lon="6.83149">
        <ele>1935</ele>
        <time>2022-07-20T18:13:11Z</time>
      </trkpt>
      <trkpt lat="45.99564" lon="6.83148">
        <ele>1936</ele>
        <time>2022-07-20T18:13:21Z</time>
      </trkpt>
      <trkpt lat="45.99568" lon="6.83145">
        <ele>1937</ele>
        <time>2022-07-20T18:13:27Z</time>
      </trkpt>
      <trkpt lat="45.99573" lon="6.83149">
        <ele>1937</ele>
        <time>2022-07-20T18:13:35Z</time>
      </trkpt>
      <trkpt lat="45.99579" lon="6.83151">
        <ele>1937</ele>
        <time>2022-07-20T18:13:45Z</time>
      </trkpt>
      <trkpt lat="45.99583" lon="6.8316">
        <ele>1938</ele>
        <time>2022-07-20T18:13:55Z</time>
      </trkpt>
      <trkpt lat="45.99608" lon="6.83172">
        <ele>1941</ele>
        <time>2022-07-20T18:14:27Z</time>
      </trkpt>
      <trkpt lat="45.99619" lon="6.83175">
        <ele>1943</ele>
        <time>2022-07-20T18:14:40Z</time>
      </trkpt>
      <trkpt lat="45.99623" lon="6.83171">
        <ele>1944</ele>
        <time>2022-07-20T18:14:44Z</time>
      </trkpt>
      <trkpt lat="45.99625" lon="6.83167">
        <ele>1944</ele>
        <time>2022-07-20T18:14:49Z</time>
      </trkpt>
      <trkpt lat="45.99628" lon="6.83173">
        <ele>1944</ele>
        <time>2022-07-20T18:14:54Z</time>
      </trkpt>
      <trkpt lat="45.99636" lon="6.83179">
        <ele>1945</ele>
        <time>2022-07-20T18:15:04Z</time>
      </trkpt>
      <trkpt lat="45.99641" lon="6.83183">
        <ele>1946</ele>
        <time>2022-07-20T18:15:11Z</time>
      </trkpt>
      <trkpt lat="45.99646" lon="6.83186">
        <ele>1948</ele>
        <time>2022-07-20T18:15:22Z</time>
      </trkpt>
      <trkpt lat="45.99653" lon="6.83196">
        <ele>1948</ele>
        <time>2022-07-20T18:15:32Z</time>
      </trkpt>
      <trkpt lat="45.99659" lon="6.83195">
        <ele>1949</ele>
        <time>2022-07-20T18:15:38Z</time>
      </trkpt>
      <trkpt lat="45.99664" lon="6.83194">
        <ele>1949</ele>
        <time>2022-07-20T18:15:42Z</time>
      </trkpt>
      <trkpt lat="45.99668" lon="6.83195">
        <ele>1950</ele>
        <time>2022-07-20T18:15:46Z</time>
      </trkpt>
      <trkpt lat="45.99681" lon="6.83196">
        <ele>1951</ele>
        <time>2022-07-20T18:16:03Z</time>
      </trkpt>
      <trkpt lat="45.99695" lon="6.83193">
        <ele>1955</ele>
        <time>2022-07-20T18:16:24Z</time>
      </trkpt>
      <trkpt lat="45.99699" lon="6.8319">
        <ele>1955</ele>
        <time>2022-07-20T18:16:34Z</time>
      </trkpt>
      <trkpt lat="45.9971" lon="6.83187">
        <ele>1953</ele>
        <time>2022-07-20T18:16:49Z</time>
      </trkpt>
      <trkpt lat="45.99716" lon="6.83185">
        <ele>1953</ele>
        <time>2022-07-20T18:16:57Z</time>
      </trkpt>
      <trkpt lat="45.9972" lon="6.83183">
        <ele>1955</ele>
        <time>2022-07-20T18:17:04Z</time>
      </trkpt>
      <trkpt lat="45.99723" lon="6.83189">
        <ele>1956</ele>
        <time>2022-07-20T18:17:15Z</time>
      </trkpt>
      <trkpt lat="45.9972" lon="6.83198">
        <ele>1958</ele>
        <time>2022-07-20T18:17:30Z</time>
      </trkpt>
      <trkpt lat="45.99719" lon="6.83205">
        <ele>1958</ele>
        <time>2022-07-20T18:17:35Z</time>
      </trkpt>
      <trkpt lat="45.99722" lon="6.8321">
        <ele>1958</ele>
        <time>2022-07-20T18:17:39Z</time>
      </trkpt>
      <trkpt lat="45.99725" lon="6.83216">
        <ele>1958</ele>
        <time>2022-07-20T18:17:43Z</time>
      </trkpt>
      <trkpt lat="45.9974" lon="6.83234">
        <ele>1955</ele>
        <time>2022-07-20T18:18:00Z</time>
      </trkpt>
      <trkpt lat="45.99742" lon="6.83241">
        <ele>1954</ele>
        <time>2022-07-20T18:18:04Z</time>
      </trkpt>
      <trkpt lat="45.99755" lon="6.83252">
        <ele>1953</ele>
        <time>2022-07-20T18:18:17Z</time>
      </trkpt>
      <trkpt lat="45.99771" lon="6.83266">
        <ele>1952</ele>
        <time>2022-07-20T18:18:33Z</time>
      </trkpt>
      <trkpt lat="45.99776" lon="6.83266">
        <ele>1951</ele>
        <time>2022-07-20T18:18:38Z</time>
      </trkpt>
      <trkpt lat="45.9978" lon="6.83272">
        <ele>1950</ele>
        <time>2022-07-20T18:18:44Z</time>
      </trkpt>
      <trkpt lat="45.9978" lon="6.8328">
        <ele>1950</ele>
        <time>2022-07-20T18:18:49Z</time>
      </trkpt>
      <trkpt lat="45.99784" lon="6.83285">
        <ele>1950</ele>
        <time>2022-07-20T18:18:53Z</time>
      </trkpt>
      <trkpt lat="45.99787" lon="6.83298">
        <ele>1949</ele>
        <time>2022-07-20T18:19:01Z</time>
      </trkpt>
      <trkpt lat="45.99803" lon="6.83335">
        <ele>1946</ele>
        <time>2022-07-20T18:19:29Z</time>
      </trkpt>
      <trkpt lat="45.99807" lon="6.8334">
        <ele>1946</ele>
        <time>2022-07-20T18:19:33Z</time>
      </trkpt>
      <trkpt lat="45.9981" lon="6.83344">
        <ele>1946</ele>
        <time>2022-07-20T18:19:37Z</time>
      </trkpt>
      <trkpt lat="45.99813" lon="6.83351">
        <ele>1944</ele>
        <time>2022-07-20T18:19:45Z</time>
      </trkpt>
      <trkpt lat="45.99813" lon="6.83358">
        <ele>1944</ele>
        <time>2022-07-20T18:19:49Z</time>
      </trkpt>
      <trkpt lat="45.99811" lon="6.83365">
        <ele>1944</ele>
        <time>2022-07-20T18:19:55Z</time>
      </trkpt>
      <trkpt lat="45.99806" lon="6.8337">
        <ele>1945</ele>
        <time>2022-07-20T18:20:03Z</time>
      </trkpt>
      <trkpt lat="45.998" lon="6.83374">
        <ele>1945</ele>
        <time>2022-07-20T18:20:13Z</time>
      </trkpt>
      <trkpt lat="45.99796" lon="6.83376">
        <ele>1944</ele>
        <time>2022-07-20T18:20:18Z</time>
      </trkpt>
      <trkpt lat="45.99792" lon="6.83378">
        <ele>1945</ele>
        <time>2022-07-20T18:20:22Z</time>
      </trkpt>
      <trkpt lat="45.99788" lon="6.83379">
        <ele>1945</ele>
        <time>2022-07-20T18:20:26Z</time>
      </trkpt>
      <trkpt lat="45.99783" lon="6.83381">
        <ele>1944</ele>
        <time>2022-07-20T18:20:30Z</time>
      </trkpt>
      <trkpt lat="45.99779" lon="6.83385">
        <ele>1944</ele>
        <time>2022-07-20T18:20:35Z</time>
      </trkpt>
      <trkpt lat="45.99774" lon="6.83385">
        <ele>1944</ele>
        <time>2022-07-20T18:20:39Z</time>
      </trkpt>
      <trkpt lat="45.99758" lon="6.83386">
        <ele>1944</ele>
        <time>2022-07-20T18:20:56Z</time>
      </trkpt>
      <trkpt lat="45.99742" lon="6.83391">
        <ele>1944</ele>
        <time>2022-07-20T18:21:19Z</time>
      </trkpt>
      <trkpt lat="45.99714" lon="6.83404">
        <ele>1941</ele>
        <time>2022-07-20T18:21:51Z</time>
      </trkpt>
      <trkpt lat="45.99697" lon="6.83421">
        <ele>1939</ele>
        <time>2022-07-20T18:23:01Z</time>
      </trkpt>
      <trkpt lat="45.99699" lon="6.83421">
        <ele>1936</ele>
        <time>2022-07-20T18:26:36Z</time>
      </trkpt>
      <trkpt lat="45.99698" lon="6.83422">
        <ele>1936</ele>
        <time>2022-07-20T18:27:38Z</time>
      </trkpt>
      <trkpt lat="45.99696" lon="6.83427">
        <ele>1936</ele>
        <time>2022-07-20T18:27:44Z</time>
      </trkpt>
      <trkpt lat="45.99699" lon="6.8343">
        <ele>1938</ele>
        <time>2022-07-20T19:02:48Z</time>
      </trkpt>
      <trkpt lat="45.99699" lon="6.83431">
        <ele>1939</ele>
        <time>2022-07-20T19:18:04Z</time>
      </trkpt>
      <trkpt lat="45.99698" lon="6.83428">
        <ele>1939</ele>
        <time>2022-07-20T19:26:34Z</time>
      </trkpt>
      <trkpt lat="45.997" lon="6.83423">
        <ele>1939</ele>
        <time>2022-07-20T19:26:38Z</time>
      </trkpt>
      <trkpt lat="45.997" lon="6.83414">
        <ele>1939</ele>
        <time>2022-07-20T19:26:47Z</time>
      </trkpt>
      <trkpt lat="45.99699" lon="6.83408">
        <ele>1940</ele>
        <time>2022-07-20T19:26:50Z</time>
      </trkpt>
      <trkpt lat="45.99697" lon="6.83404">
        <ele>1940</ele>
        <time>2022-07-20T19:26:54Z</time>
      </trkpt>
      <trkpt lat="45.99687" lon="6.83395">
        <ele>1940</ele>
        <time>2022-07-20T19:27:05Z</time>
      </trkpt>
      <trkpt lat="45.99686" lon="6.83389">
        <ele>1940</ele>
        <time>2022-07-20T19:27:09Z</time>
      </trkpt>
      <trkpt lat="45.99686" lon="6.83382">
        <ele>1941</ele>
        <time>2022-07-20T19:27:13Z</time>
      </trkpt>
      <trkpt lat="45.99681" lon="6.83393">
        <ele>1940</ele>
        <time>2022-07-20T19:27:57Z</time>
      </trkpt>
      <trkpt lat="45.99685" lon="6.83398">
        <ele>1940</ele>
        <time>2022-07-20T19:27:59Z</time>
      </trkpt>
      <trkpt lat="45.9969" lon="6.834">
        <ele>1941</ele>
        <time>2022-07-20T19:28:01Z</time>
      </trkpt>
      <trkpt lat="45.99693" lon="6.8341">
        <ele>1940</ele>
        <time>2022-07-20T19:28:06Z</time>
      </trkpt>
      <trkpt lat="45.99696" lon="6.83416">
        <ele>1941</ele>
        <time>2022-07-20T19:28:10Z</time>
      </trkpt>
      <trkpt lat="45.99697" lon="6.83422">
        <ele>1940</ele>
        <time>2022-07-20T19:28:14Z</time>
      </trkpt>
      <trkpt lat="45.99696" lon="6.83431">
        <ele>1940</ele>
        <time>2022-07-20T19:28:20Z</time>
      </trkpt>
      <trkpt lat="45.99698" lon="6.8343">
        <ele>1939</ele>
        <time>2022-07-20T19:36:42Z</time>
      </trkpt>
      <trkpt lat="45.99701" lon="6.83424">
        <ele>1939</ele>
        <time>2022-07-20T19:36:46Z</time>
      </trkpt>
      <trkpt lat="45.99697" lon="6.83421">
        <ele>1942</ele>
        <time>2022-07-21T04:30:16Z</time>
      </trkpt>
      <trkpt lat="45.99698" lon="6.83421">
        <ele>1942</ele>
        <time>2022-07-21T04:30:17Z</time>
      </trkpt>
    </trkseg>
  </trk>
  <trk>
    <name><![CDATA[20 juil. 2022 à 11:50:19]]></name>
    <cmt><![CDATA[20 juil. 2022 à 11:50:19]]></cmt>
    <trkseg>
      <trkpt lat="45.9611" lon="6.76966">
        <ele>1603</ele>
        <time>2022-07-20T09:50:20Z</time>
      </trkpt>
    </trkseg>
  </trk>
  <trk>
    <name><![CDATA[17 juil. 2022 à 04:22:47]]></name>
    <cmt><![CDATA[17 juil. 2022 à 04:22:47]]></cmt>
    <trkseg>
      <trkpt lat="45.96331" lon="6.79568">
        <ele>1946</ele>
        <time>2022-07-17T02:22:48Z</time>
      </trkpt>
      <trkpt lat="45.96331" lon="6.79568">
        <ele>1946</ele>
        <time>2022-07-17T02:22:49Z</time>
      </trkpt>
      <trkpt lat="45.95792" lon="6.80055">
        <ele>2302</ele>
        <time>2022-07-17T03:33:48Z</time>
      </trkpt>
      <trkpt lat="45.95792" lon="6.80055">
        <ele>2302</ele>
        <time>2022-07-17T03:33:49Z</time>
      </trkpt>
      <trkpt lat="45.95792" lon="6.80055">
        <ele>2302</ele>
        <time>2022-07-17T03:33:57Z</time>
      </trkpt>
      <trkpt lat="45.95792" lon="6.80055">
        <ele>2302</ele>
        <time>2022-07-17T03:33:58Z</time>
      </trkpt>
      <trkpt lat="45.9579" lon="6.80053">
        <ele>2302</ele>
        <time>2022-07-17T03:36:27Z</time>
      </trkpt>
      <trkpt lat="45.95792" lon="6.80046">
        <ele>2301</ele>
        <time>2022-07-17T03:36:31Z</time>
      </trkpt>
      <trkpt lat="45.95796" lon="6.80051">
        <ele>2299</ele>
        <time>2022-07-17T03:36:40Z</time>
      </trkpt>
      <trkpt lat="45.95796" lon="6.80058">
        <ele>2299</ele>
        <time>2022-07-17T03:36:44Z</time>
      </trkpt>
      <trkpt lat="45.95797" lon="6.80071">
        <ele>2299</ele>
        <time>2022-07-17T03:36:55Z</time>
      </trkpt>
      <trkpt lat="45.95801" lon="6.80076">
        <ele>2298</ele>
        <time>2022-07-17T03:36:59Z</time>
      </trkpt>
      <trkpt lat="45.95804" lon="6.80083">
        <ele>2298</ele>
        <time>2022-07-17T03:37:06Z</time>
      </trkpt>
      <trkpt lat="45.95807" lon="6.80089">
        <ele>2298</ele>
        <time>2022-07-17T03:37:13Z</time>
      </trkpt>
      <trkpt lat="45.95813" lon="6.80092">
        <ele>2300</ele>
        <time>2022-07-17T03:37:23Z</time>
      </trkpt>
      <trkpt lat="45.95817" lon="6.80098">
        <ele>2302</ele>
        <time>2022-07-17T03:37:33Z</time>
      </trkpt>
      <trkpt lat="45.95824" lon="6.801">
        <ele>2304</ele>
        <time>2022-07-17T03:37:44Z</time>
      </trkpt>
      <trkpt lat="45.95829" lon="6.80104">
        <ele>2306</ele>
        <time>2022-07-17T03:37:55Z</time>
      </trkpt>
      <trkpt lat="45.95829" lon="6.80111">
        <ele>2308</ele>
        <time>2022-07-17T03:38:05Z</time>
      </trkpt>
      <trkpt lat="45.95827" lon="6.80108">
        <ele>2308</ele>
        <time>2022-07-17T03:41:39Z</time>
      </trkpt>
      <trkpt lat="45.95823" lon="6.80104">
        <ele>2306</ele>
        <time>2022-07-17T03:41:49Z</time>
      </trkpt>
      <trkpt lat="45.95813" lon="6.80093">
        <ele>2303</ele>
        <time>2022-07-17T03:42:10Z</time>
      </trkpt>
      <trkpt lat="45.95808" lon="6.80091">
        <ele>2302</ele>
        <time>2022-07-17T03:42:18Z</time>
      </trkpt>
      <trkpt lat="45.95799" lon="6.80075">
        <ele>2299</ele>
        <time>2022-07-17T03:42:35Z</time>
      </trkpt>
      <trkpt lat="45.95796" lon="6.8007">
        <ele>2299</ele>
        <time>2022-07-17T03:42:40Z</time>
      </trkpt>
      <trkpt lat="45.95795" lon="6.8006">
        <ele>2301</ele>
        <time>2022-07-17T03:42:51Z</time>
      </trkpt>
      <trkpt lat="45.95794" lon="6.80053">
        <ele>2301</ele>
        <time>2022-07-17T03:42:56Z</time>
      </trkpt>
      <trkpt lat="45.95794" lon="6.80046">
        <ele>2300</ele>
        <time>2022-07-17T03:43:01Z</time>
      </trkpt>
      <trkpt lat="45.95789" lon="6.80047">
        <ele>2302</ele>
        <time>2022-07-17T03:43:09Z</time>
      </trkpt>
      <trkpt lat="45.95784" lon="6.80051">
        <ele>2301</ele>
        <time>2022-07-17T03:43:19Z</time>
      </trkpt>
      <trkpt lat="45.95778" lon="6.80057">
        <ele>2300</ele>
        <time>2022-07-17T03:43:29Z</time>
      </trkpt>
      <trkpt lat="45.95778" lon="6.8006">
        <ele>2308</ele>
        <time>2022-07-17T04:16:57Z</time>
      </trkpt>
      <trkpt lat="45.95778" lon="6.80061">
        <ele>2308</ele>
        <time>2022-07-17T04:27:03Z</time>
      </trkpt>
      <trkpt lat="45.95782" lon="6.8006">
        <ele>2312</ele>
        <time>2022-07-17T04:33:22Z</time>
      </trkpt>
      <trkpt lat="45.95776" lon="6.80055">
        <ele>2310</ele>
        <time>2022-07-17T04:33:57Z</time>
      </trkpt>
      <trkpt lat="45.95776" lon="6.80048">
        <ele>2309</ele>
        <time>2022-07-17T04:34:03Z</time>
      </trkpt>
      <trkpt lat="45.95773" lon="6.80043">
        <ele>2308</ele>
        <time>2022-07-17T04:34:08Z</time>
      </trkpt>
      <trkpt lat="45.95769" lon="6.80036">
        <ele>2307</ele>
        <time>2022-07-17T04:34:17Z</time>
      </trkpt>
      <trkpt lat="45.95763" lon="6.80026">
        <ele>2305</ele>
        <time>2022-07-17T04:34:27Z</time>
      </trkpt>
      <trkpt lat="45.95758" lon="6.80022">
        <ele>2304</ele>
        <time>2022-07-17T04:34:31Z</time>
      </trkpt>
      <trkpt lat="45.95753" lon="6.80024">
        <ele>2304</ele>
        <time>2022-07-17T04:34:35Z</time>
      </trkpt>
      <trkpt lat="45.95746" lon="6.80022">
        <ele>2304</ele>
        <time>2022-07-17T04:34:45Z</time>
      </trkpt>
      <trkpt lat="45.95743" lon="6.80018">
        <ele>2304</ele>
        <time>2022-07-17T04:34:49Z</time>
      </trkpt>
      <trkpt lat="45.95738" lon="6.80016">
        <ele>2303</ele>
        <time>2022-07-17T04:34:56Z</time>
      </trkpt>
      <trkpt lat="45.95737" lon="6.8001">
        <ele>2302</ele>
        <time>2022-07-17T04:35:06Z</time>
      </trkpt>
      <trkpt lat="45.95741" lon="6.80002">
        <ele>2300</ele>
        <time>2022-07-17T04:35:16Z</time>
      </trkpt>
      <trkpt lat="45.9575" lon="6.79996">
        <ele>2299</ele>
        <time>2022-07-17T04:35:25Z</time>
      </trkpt>
      <trkpt lat="45.95768" lon="6.79977">
        <ele>2293</ele>
        <time>2022-07-17T04:35:51Z</time>
      </trkpt>
      <trkpt lat="45.9578" lon="6.79959">
        <ele>2289</ele>
        <time>2022-07-17T04:36:13Z</time>
      </trkpt>
      <trkpt lat="45.9577" lon="6.79948">
        <ele>2284</ele>
        <time>2022-07-17T04:36:34Z</time>
      </trkpt>
      <trkpt lat="45.95757" lon="6.79942">
        <ele>2278</ele>
        <time>2022-07-17T04:36:56Z</time>
      </trkpt>
      <trkpt lat="45.95753" lon="6.79939">
        <ele>2276</ele>
        <time>2022-07-17T04:37:06Z</time>
      </trkpt>
      <trkpt lat="45.95757" lon="6.79922">
        <ele>2270</ele>
        <time>2022-07-17T04:37:32Z</time>
      </trkpt>
      <trkpt lat="45.95746" lon="6.7992">
        <ele>2265</ele>
        <time>2022-07-17T04:38:07Z</time>
      </trkpt>
      <trkpt lat="45.9574" lon="6.7992">
        <ele>2262</ele>
        <time>2022-07-17T04:38:17Z</time>
      </trkpt>
      <trkpt lat="45.95729" lon="6.79918">
        <ele>2259</ele>
        <time>2022-07-17T04:38:30Z</time>
      </trkpt>
      <trkpt lat="45.95725" lon="6.7992">
        <ele>2258</ele>
        <time>2022-07-17T04:38:35Z</time>
      </trkpt>
      <trkpt lat="45.95721" lon="6.79921">
        <ele>2257</ele>
        <time>2022-07-17T04:38:40Z</time>
      </trkpt>
      <trkpt lat="45.95714" lon="6.79921">
        <ele>2254</ele>
        <time>2022-07-17T04:38:53Z</time>
      </trkpt>
      <trkpt lat="45.95712" lon="6.79914">
        <ele>2251</ele>
        <time>2022-07-17T04:39:05Z</time>
      </trkpt>
      <trkpt lat="45.95715" lon="6.79905">
        <ele>2250</ele>
        <time>2022-07-17T04:39:15Z</time>
      </trkpt>
      <trkpt lat="45.95714" lon="6.79894">
        <ele>2247</ele>
        <time>2022-07-17T04:39:25Z</time>
      </trkpt>
      <trkpt lat="45.95714" lon="6.79888">
        <ele>2246</ele>
        <time>2022-07-17T04:39:32Z</time>
      </trkpt>
      <trkpt lat="45.95713" lon="6.79881">
        <ele>2244</ele>
        <time>2022-07-17T04:39:42Z</time>
      </trkpt>
      <trkpt lat="45.95716" lon="6.79875">
        <ele>2243</ele>
        <time>2022-07-17T04:39:48Z</time>
      </trkpt>
      <trkpt lat="45.95718" lon="6.79865">
        <ele>2241</ele>
        <time>2022-07-17T04:39:58Z</time>
      </trkpt>
      <trkpt lat="45.95716" lon="6.79859">
        <ele>2240</ele>
        <time>2022-07-17T04:40:08Z</time>
      </trkpt>
      <trkpt lat="45.9571" lon="6.79864">
        <ele>2238</ele>
        <time>2022-07-17T04:40:18Z</time>
      </trkpt>
      <trkpt lat="45.95703" lon="6.79862">
        <ele>2236</ele>
        <time>2022-07-17T04:40:33Z</time>
      </trkpt>
      <trkpt lat="45.95693" lon="6.79871">
        <ele>2232</ele>
        <time>2022-07-17T04:40:53Z</time>
      </trkpt>
      <trkpt lat="45.95683" lon="6.7987">
        <ele>2230</ele>
        <time>2022-07-17T04:41:02Z</time>
      </trkpt>
      <trkpt lat="45.95677" lon="6.79865">
        <ele>2228</ele>
        <time>2022-07-17T04:41:15Z</time>
      </trkpt>
      <trkpt lat="45.95681" lon="6.79845">
        <ele>2223</ele>
        <time>2022-07-17T04:41:38Z</time>
      </trkpt>
      <trkpt lat="45.95682" lon="6.79838">
        <ele>2221</ele>
        <time>2022-07-17T04:41:48Z</time>
      </trkpt>
      <trkpt lat="45.95685" lon="6.79832">
        <ele>2219</ele>
        <time>2022-07-17T04:41:58Z</time>
      </trkpt>
      <trkpt lat="45.95693" lon="6.79826">
        <ele>2218</ele>
        <time>2022-07-17T04:42:07Z</time>
      </trkpt>
      <trkpt lat="45.95707" lon="6.79814">
        <ele>2213</ele>
        <time>2022-07-17T04:42:40Z</time>
      </trkpt>
      <trkpt lat="45.9572" lon="6.798">
        <ele>2209</ele>
        <time>2022-07-17T04:43:06Z</time>
      </trkpt>
      <trkpt lat="45.95724" lon="6.79798">
        <ele>2208</ele>
        <time>2022-07-17T04:43:10Z</time>
      </trkpt>
      <trkpt lat="45.95727" lon="6.79792">
        <ele>2207</ele>
        <time>2022-07-17T04:43:15Z</time>
      </trkpt>
      <trkpt lat="45.95735" lon="6.79793">
        <ele>2207</ele>
        <time>2022-07-17T04:43:24Z</time>
      </trkpt>
      <trkpt lat="45.9574" lon="6.79797">
        <ele>2207</ele>
        <time>2022-07-17T04:43:27Z</time>
      </trkpt>
      <trkpt lat="45.95743" lon="6.79799">
        <ele>2206</ele>
        <time>2022-07-17T04:43:31Z</time>
      </trkpt>
      <trkpt lat="45.95747" lon="6.79803">
        <ele>2207</ele>
        <time>2022-07-17T04:43:39Z</time>
      </trkpt>
      <trkpt lat="45.95758" lon="6.79805">
        <ele>2204</ele>
        <time>2022-07-17T04:43:49Z</time>
      </trkpt>
      <trkpt lat="45.9578" lon="6.79792">
        <ele>2201</ele>
        <time>2022-07-17T04:44:13Z</time>
      </trkpt>
      <trkpt lat="45.95785" lon="6.79789">
        <ele>2201</ele>
        <time>2022-07-17T04:44:17Z</time>
      </trkpt>
      <trkpt lat="45.95789" lon="6.79787">
        <ele>2201</ele>
        <time>2022-07-17T04:44:22Z</time>
      </trkpt>
      <trkpt lat="45.95793" lon="6.79786">
        <ele>2200</ele>
        <time>2022-07-17T04:44:26Z</time>
      </trkpt>
      <trkpt lat="45.958" lon="6.79785">
        <ele>2201</ele>
        <time>2022-07-17T04:44:33Z</time>
      </trkpt>
      <trkpt lat="45.95812" lon="6.79787">
        <ele>2200</ele>
        <time>2022-07-17T04:44:46Z</time>
      </trkpt>
      <trkpt lat="45.9582" lon="6.79785">
        <ele>2199</ele>
        <time>2022-07-17T04:44:54Z</time>
      </trkpt>
      <trkpt lat="45.95824" lon="6.79789">
        <ele>2198</ele>
        <time>2022-07-17T04:44:59Z</time>
      </trkpt>
      <trkpt lat="45.95829" lon="6.79789">
        <ele>2198</ele>
        <time>2022-07-17T04:45:04Z</time>
      </trkpt>
      <trkpt lat="45.95835" lon="6.79787">
        <ele>2197</ele>
        <time>2022-07-17T04:45:13Z</time>
      </trkpt>
      <trkpt lat="45.9584" lon="6.79788">
        <ele>2197</ele>
        <time>2022-07-17T04:45:18Z</time>
      </trkpt>
      <trkpt lat="45.95859" lon="6.79793">
        <ele>2192</ele>
        <time>2022-07-17T04:45:46Z</time>
      </trkpt>
      <trkpt lat="45.95864" lon="6.79791">
        <ele>2190</ele>
        <time>2022-07-17T04:45:51Z</time>
      </trkpt>
      <trkpt lat="45.95874" lon="6.79793">
        <ele>2189</ele>
        <time>2022-07-17T04:46:00Z</time>
      </trkpt>
      <trkpt lat="45.95884" lon="6.79794">
        <ele>2186</ele>
        <time>2022-07-17T04:46:11Z</time>
      </trkpt>
      <trkpt lat="45.95893" lon="6.79797">
        <ele>2185</ele>
        <time>2022-07-17T04:46:19Z</time>
      </trkpt>
      <trkpt lat="45.95898" lon="6.79804">
        <ele>2185</ele>
        <time>2022-07-17T04:46:27Z</time>
      </trkpt>
      <trkpt lat="45.95904" lon="6.79803">
        <ele>2184</ele>
        <time>2022-07-17T04:46:34Z</time>
      </trkpt>
      <trkpt lat="45.95908" lon="6.79806">
        <ele>2183</ele>
        <time>2022-07-17T04:46:39Z</time>
      </trkpt>
      <trkpt lat="45.9591" lon="6.79798">
        <ele>2182</ele>
        <time>2022-07-17T04:46:46Z</time>
      </trkpt>
      <trkpt lat="45.95912" lon="6.79792">
        <ele>2180</ele>
        <time>2022-07-17T04:46:59Z</time>
      </trkpt>
      <trkpt lat="45.95908" lon="6.79787">
        <ele>2180</ele>
        <time>2022-07-17T04:47:03Z</time>
      </trkpt>
      <trkpt lat="45.95903" lon="6.79784">
        <ele>2179</ele>
        <time>2022-07-17T04:47:10Z</time>
      </trkpt>
      <trkpt lat="45.959" lon="6.79779">
        <ele>2178</ele>
        <time>2022-07-17T04:47:14Z</time>
      </trkpt>
      <trkpt lat="45.95897" lon="6.7977">
        <ele>2177</ele>
        <time>2022-07-17T04:47:21Z</time>
      </trkpt>
      <trkpt lat="45.95893" lon="6.79764">
        <ele>2176</ele>
        <time>2022-07-17T04:47:27Z</time>
      </trkpt>
      <trkpt lat="45.95891" lon="6.79758">
        <ele>2175</ele>
        <time>2022-07-17T04:47:32Z</time>
      </trkpt>
      <trkpt lat="45.95889" lon="6.7975">
        <ele>2173</ele>
        <time>2022-07-17T04:47:44Z</time>
      </trkpt>
      <trkpt lat="45.95885" lon="6.79747">
        <ele>2172</ele>
        <time>2022-07-17T04:47:50Z</time>
      </trkpt>
      <trkpt lat="45.9588" lon="6.79745">
        <ele>2171</ele>
        <time>2022-07-17T04:47:55Z</time>
      </trkpt>
      <trkpt lat="45.95875" lon="6.79743">
        <ele>2171</ele>
        <time>2022-07-17T04:48:02Z</time>
      </trkpt>
      <trkpt lat="45.9587" lon="6.79733">
        <ele>2170</ele>
        <time>2022-07-17T04:48:10Z</time>
      </trkpt>
      <trkpt lat="45.95868" lon="6.79726">
        <ele>2170</ele>
        <time>2022-07-17T04:48:15Z</time>
      </trkpt>
      <trkpt lat="45.95866" lon="6.7972">
        <ele>2170</ele>
        <time>2022-07-17T04:48:19Z</time>
      </trkpt>
      <trkpt lat="45.95864" lon="6.79711">
        <ele>2170</ele>
        <time>2022-07-17T04:48:26Z</time>
      </trkpt>
      <trkpt lat="45.95862" lon="6.79705">
        <ele>2169</ele>
        <time>2022-07-17T04:48:31Z</time>
      </trkpt>
      <trkpt lat="45.9586" lon="6.79699">
        <ele>2170</ele>
        <time>2022-07-17T04:48:35Z</time>
      </trkpt>
      <trkpt lat="45.95862" lon="6.79688">
        <ele>2170</ele>
        <time>2022-07-17T04:48:42Z</time>
      </trkpt>
      <trkpt lat="45.9586" lon="6.79681">
        <ele>2170</ele>
        <time>2022-07-17T04:48:47Z</time>
      </trkpt>
      <trkpt lat="45.95858" lon="6.79675">
        <ele>2170</ele>
        <time>2022-07-17T04:48:51Z</time>
      </trkpt>
      <trkpt lat="45.95853" lon="6.79671">
        <ele>2170</ele>
        <time>2022-07-17T04:48:56Z</time>
      </trkpt>
      <trkpt lat="45.95849" lon="6.79664">
        <ele>2169</ele>
        <time>2022-07-17T04:49:04Z</time>
      </trkpt>
      <trkpt lat="45.95845" lon="6.79652">
        <ele>2167</ele>
        <time>2022-07-17T04:49:13Z</time>
      </trkpt>
      <trkpt lat="45.95837" lon="6.79646">
        <ele>2166</ele>
        <time>2022-07-17T04:49:21Z</time>
      </trkpt>
      <trkpt lat="45.95836" lon="6.7964">
        <ele>2166</ele>
        <time>2022-07-17T04:49:25Z</time>
      </trkpt>
      <trkpt lat="45.95832" lon="6.79636">
        <ele>2166</ele>
        <time>2022-07-17T04:49:30Z</time>
      </trkpt>
      <trkpt lat="45.9583" lon="6.79631">
        <ele>2165</ele>
        <time>2022-07-17T04:49:34Z</time>
      </trkpt>
      <trkpt lat="45.95825" lon="6.79628">
        <ele>2165</ele>
        <time>2022-07-17T04:49:39Z</time>
      </trkpt>
      <trkpt lat="45.95818" lon="6.79615">
        <ele>2163</ele>
        <time>2022-07-17T04:49:53Z</time>
      </trkpt>
      <trkpt lat="45.95817" lon="6.79609">
        <ele>2163</ele>
        <time>2022-07-17T04:49:57Z</time>
      </trkpt>
      <trkpt lat="45.95812" lon="6.79593">
        <ele>2161</ele>
        <time>2022-07-17T04:50:10Z</time>
      </trkpt>
      <trkpt lat="45.95808" lon="6.79587">
        <ele>2160</ele>
        <time>2022-07-17T04:50:14Z</time>
      </trkpt>
      <trkpt lat="45.95808" lon="6.79571">
        <ele>2160</ele>
        <time>2022-07-17T04:50:25Z</time>
      </trkpt>
      <trkpt lat="45.95805" lon="6.79566">
        <ele>2159</ele>
        <time>2022-07-17T04:50:34Z</time>
      </trkpt>
      <trkpt lat="45.95802" lon="6.79559">
        <ele>2158</ele>
        <time>2022-07-17T04:50:39Z</time>
      </trkpt>
      <trkpt lat="45.95797" lon="6.7955">
        <ele>2157</ele>
        <time>2022-07-17T04:50:48Z</time>
      </trkpt>
      <trkpt lat="45.95793" lon="6.79547">
        <ele>2156</ele>
        <time>2022-07-17T04:50:53Z</time>
      </trkpt>
      <trkpt lat="45.95783" lon="6.7953">
        <ele>2154</ele>
        <time>2022-07-17T04:51:10Z</time>
      </trkpt>
      <trkpt lat="45.95779" lon="6.79526">
        <ele>2153</ele>
        <time>2022-07-17T04:51:14Z</time>
      </trkpt>
      <trkpt lat="45.95774" lon="6.79519">
        <ele>2153</ele>
        <time>2022-07-17T04:51:21Z</time>
      </trkpt>
      <trkpt lat="45.95773" lon="6.79512">
        <ele>2154</ele>
        <time>2022-07-17T04:51:25Z</time>
      </trkpt>
      <trkpt lat="45.9577" lon="6.79505">
        <ele>2153</ele>
        <time>2022-07-17T04:51:33Z</time>
      </trkpt>
      <trkpt lat="45.95769" lon="6.79498">
        <ele>2151</ele>
        <time>2022-07-17T04:51:38Z</time>
      </trkpt>
      <trkpt lat="45.95771" lon="6.79488">
        <ele>2150</ele>
        <time>2022-07-17T04:51:46Z</time>
      </trkpt>
      <trkpt lat="45.95765" lon="6.79472">
        <ele>2147</ele>
        <time>2022-07-17T04:52:05Z</time>
      </trkpt>
      <trkpt lat="45.95763" lon="6.79465">
        <ele>2145</ele>
        <time>2022-07-17T04:52:20Z</time>
      </trkpt>
      <trkpt lat="45.95768" lon="6.79456">
        <ele>2139</ele>
        <time>2022-07-17T04:52:46Z</time>
      </trkpt>
      <trkpt lat="45.95786" lon="6.79445">
        <ele>2133</ele>
        <time>2022-07-17T04:53:18Z</time>
      </trkpt>
      <trkpt lat="45.95791" lon="6.79449">
        <ele>2132</ele>
        <time>2022-07-17T04:53:25Z</time>
      </trkpt>
      <trkpt lat="45.95795" lon="6.7944">
        <ele>2130</ele>
        <time>2022-07-17T04:53:34Z</time>
      </trkpt>
      <trkpt lat="45.95799" lon="6.79435">
        <ele>2128</ele>
        <time>2022-07-17T04:53:45Z</time>
      </trkpt>
      <trkpt lat="45.95803" lon="6.79433">
        <ele>2126</ele>
        <time>2022-07-17T04:53:55Z</time>
      </trkpt>
      <trkpt lat="45.95808" lon="6.79435">
        <ele>2125</ele>
        <time>2022-07-17T04:54:03Z</time>
      </trkpt>
      <trkpt lat="45.95812" lon="6.79437">
        <ele>2122</ele>
        <time>2022-07-17T04:54:18Z</time>
      </trkpt>
      <trkpt lat="45.9582" lon="6.79439">
        <ele>2119</ele>
        <time>2022-07-17T04:54:29Z</time>
      </trkpt>
      <trkpt lat="45.95817" lon="6.79422">
        <ele>2116</ele>
        <time>2022-07-17T04:54:42Z</time>
      </trkpt>
      <trkpt lat="45.95818" lon="6.79414">
        <ele>2113</ele>
        <time>2022-07-17T04:54:58Z</time>
      </trkpt>
      <trkpt lat="45.95816" lon="6.79408">
        <ele>2111</ele>
        <time>2022-07-17T04:55:08Z</time>
      </trkpt>
      <trkpt lat="45.9582" lon="6.79403">
        <ele>2108</ele>
        <time>2022-07-17T04:55:23Z</time>
      </trkpt>
      <trkpt lat="45.95819" lon="6.79392">
        <ele>2106</ele>
        <time>2022-07-17T04:55:34Z</time>
      </trkpt>
      <trkpt lat="45.95816" lon="6.79386">
        <ele>2106</ele>
        <time>2022-07-17T04:55:39Z</time>
      </trkpt>
      <trkpt lat="45.95812" lon="6.79385">
        <ele>2105</ele>
        <time>2022-07-17T04:55:44Z</time>
      </trkpt>
      <trkpt lat="45.95805" lon="6.7938">
        <ele>2103</ele>
        <time>2022-07-17T04:55:56Z</time>
      </trkpt>
      <trkpt lat="45.95803" lon="6.79371">
        <ele>2101</ele>
        <time>2022-07-17T04:56:07Z</time>
      </trkpt>
      <trkpt lat="45.95798" lon="6.79372">
        <ele>2100</ele>
        <time>2022-07-17T04:56:17Z</time>
      </trkpt>
      <trkpt lat="45.95793" lon="6.7937">
        <ele>2098</ele>
        <time>2022-07-17T04:56:28Z</time>
      </trkpt>
      <trkpt lat="45.95789" lon="6.79365">
        <ele>2095</ele>
        <time>2022-07-17T04:56:43Z</time>
      </trkpt>
      <trkpt lat="45.95786" lon="6.79358">
        <ele>2092</ele>
        <time>2022-07-17T04:56:58Z</time>
      </trkpt>
      <trkpt lat="45.95781" lon="6.79358">
        <ele>2090</ele>
        <time>2022-07-17T04:57:08Z</time>
      </trkpt>
      <trkpt lat="45.95777" lon="6.79354">
        <ele>2087</ele>
        <time>2022-07-17T04:57:23Z</time>
      </trkpt>
      <trkpt lat="45.95779" lon="6.79344">
        <ele>2085</ele>
        <time>2022-07-17T04:57:33Z</time>
      </trkpt>
      <trkpt lat="45.95789" lon="6.79337">
        <ele>2082</ele>
        <time>2022-07-17T04:57:50Z</time>
      </trkpt>
      <trkpt lat="45.95787" lon="6.79326">
        <ele>2079</ele>
        <time>2022-07-17T04:58:02Z</time>
      </trkpt>
      <trkpt lat="45.95782" lon="6.7932">
        <ele>2077</ele>
        <time>2022-07-17T04:58:11Z</time>
      </trkpt>
      <trkpt lat="45.95782" lon="6.79312">
        <ele>2076</ele>
        <time>2022-07-17T04:58:16Z</time>
      </trkpt>
      <trkpt lat="45.95779" lon="6.79305">
        <ele>2074</ele>
        <time>2022-07-17T04:58:24Z</time>
      </trkpt>
      <trkpt lat="45.95773" lon="6.79303">
        <ele>2073</ele>
        <time>2022-07-17T04:58:31Z</time>
      </trkpt>
      <trkpt lat="45.95771" lon="6.79297">
        <ele>2072</ele>
        <time>2022-07-17T04:58:38Z</time>
      </trkpt>
      <trkpt lat="45.95771" lon="6.79288">
        <ele>2071</ele>
        <time>2022-07-17T04:58:57Z</time>
      </trkpt>
      <trkpt lat="45.95772" lon="6.7928">
        <ele>2073</ele>
        <time>2022-07-17T04:59:06Z</time>
      </trkpt>
      <trkpt lat="45.95773" lon="6.79269">
        <ele>2074</ele>
        <time>2022-07-17T04:59:16Z</time>
      </trkpt>
      <trkpt lat="45.95776" lon="6.79257">
        <ele>2074</ele>
        <time>2022-07-17T04:59:26Z</time>
      </trkpt>
      <trkpt lat="45.9578" lon="6.79253">
        <ele>2074</ele>
        <time>2022-07-17T04:59:29Z</time>
      </trkpt>
      <trkpt lat="45.95785" lon="6.79251">
        <ele>2075</ele>
        <time>2022-07-17T04:59:34Z</time>
      </trkpt>
      <trkpt lat="45.95786" lon="6.79243">
        <ele>2075</ele>
        <time>2022-07-17T04:59:41Z</time>
      </trkpt>
      <trkpt lat="45.95792" lon="6.79236">
        <ele>2074</ele>
        <time>2022-07-17T04:59:54Z</time>
      </trkpt>
      <trkpt lat="45.95798" lon="6.79229">
        <ele>2073</ele>
        <time>2022-07-17T05:00:05Z</time>
      </trkpt>
      <trkpt lat="45.95802" lon="6.79226">
        <ele>2072</ele>
        <time>2022-07-17T05:00:12Z</time>
      </trkpt>
      <trkpt lat="45.95806" lon="6.79219">
        <ele>2071</ele>
        <time>2022-07-17T05:00:22Z</time>
      </trkpt>
      <trkpt lat="45.95815" lon="6.79215">
        <ele>2068</ele>
        <time>2022-07-17T05:00:34Z</time>
      </trkpt>
      <trkpt lat="45.9582" lon="6.79208">
        <ele>2065</ele>
        <time>2022-07-17T05:00:47Z</time>
      </trkpt>
      <trkpt lat="45.95824" lon="6.7921">
        <ele>2063</ele>
        <time>2022-07-17T05:00:57Z</time>
      </trkpt>
      <trkpt lat="45.95823" lon="6.79203">
        <ele>2061</ele>
        <time>2022-07-17T05:01:07Z</time>
      </trkpt>
      <trkpt lat="45.95822" lon="6.79197">
        <ele>2058</ele>
        <time>2022-07-17T05:01:17Z</time>
      </trkpt>
      <trkpt lat="45.95827" lon="6.79195">
        <ele>2057</ele>
        <time>2022-07-17T05:01:22Z</time>
      </trkpt>
      <trkpt lat="45.95832" lon="6.79201">
        <ele>2055</ele>
        <time>2022-07-17T05:01:31Z</time>
      </trkpt>
      <trkpt lat="45.95837" lon="6.79202">
        <ele>2054</ele>
        <time>2022-07-17T05:01:36Z</time>
      </trkpt>
      <trkpt lat="45.95845" lon="6.79201">
        <ele>2052</ele>
        <time>2022-07-17T05:01:46Z</time>
      </trkpt>
      <trkpt lat="45.95851" lon="6.79204">
        <ele>2050</ele>
        <time>2022-07-17T05:01:57Z</time>
      </trkpt>
      <trkpt lat="45.95861" lon="6.79204">
        <ele>2048</ele>
        <time>2022-07-17T05:02:06Z</time>
      </trkpt>
      <trkpt lat="45.95865" lon="6.79209">
        <ele>2047</ele>
        <time>2022-07-17T05:02:13Z</time>
      </trkpt>
      <trkpt lat="45.95877" lon="6.79205">
        <ele>2045</ele>
        <time>2022-07-17T05:02:27Z</time>
      </trkpt>
      <trkpt lat="45.95907" lon="6.79184">
        <ele>2040</ele>
        <time>2022-07-17T05:03:02Z</time>
      </trkpt>
      <trkpt lat="45.95916" lon="6.79181">
        <ele>2038</ele>
        <time>2022-07-17T05:03:11Z</time>
      </trkpt>
      <trkpt lat="45.95919" lon="6.79177">
        <ele>2038</ele>
        <time>2022-07-17T05:03:15Z</time>
      </trkpt>
      <trkpt lat="45.95925" lon="6.79174">
        <ele>2037</ele>
        <time>2022-07-17T05:03:22Z</time>
      </trkpt>
      <trkpt lat="45.9593" lon="6.79174">
        <ele>2037</ele>
        <time>2022-07-17T05:03:27Z</time>
      </trkpt>
      <trkpt lat="45.95937" lon="6.79171">
        <ele>2036</ele>
        <time>2022-07-17T05:03:36Z</time>
      </trkpt>
      <trkpt lat="45.95942" lon="6.79174">
        <ele>2035</ele>
        <time>2022-07-17T05:03:40Z</time>
      </trkpt>
      <trkpt lat="45.95954" lon="6.79164">
        <ele>2032</ele>
        <time>2022-07-17T05:03:58Z</time>
      </trkpt>
      <trkpt lat="45.95958" lon="6.79153">
        <ele>2031</ele>
        <time>2022-07-17T05:04:09Z</time>
      </trkpt>
      <trkpt lat="45.95962" lon="6.79152">
        <ele>2030</ele>
        <time>2022-07-17T05:04:14Z</time>
      </trkpt>
      <trkpt lat="45.95966" lon="6.79148">
        <ele>2029</ele>
        <time>2022-07-17T05:04:19Z</time>
      </trkpt>
      <trkpt lat="45.95968" lon="6.79141">
        <ele>2028</ele>
        <time>2022-07-17T05:04:23Z</time>
      </trkpt>
      <trkpt lat="45.95969" lon="6.79135">
        <ele>2028</ele>
        <time>2022-07-17T05:04:28Z</time>
      </trkpt>
      <trkpt lat="45.95966" lon="6.79129">
        <ele>2027</ele>
        <time>2022-07-17T05:04:35Z</time>
      </trkpt>
      <trkpt lat="45.95961" lon="6.7912">
        <ele>2026</ele>
        <time>2022-07-17T05:04:46Z</time>
      </trkpt>
      <trkpt lat="45.95963" lon="6.79113">
        <ele>2026</ele>
        <time>2022-07-17T05:04:53Z</time>
      </trkpt>
      <trkpt lat="45.95971" lon="6.79113">
        <ele>2026</ele>
        <time>2022-07-17T05:05:02Z</time>
      </trkpt>
      <trkpt lat="45.95976" lon="6.79115">
        <ele>2025</ele>
        <time>2022-07-17T05:05:09Z</time>
      </trkpt>
      <trkpt lat="45.95981" lon="6.79112">
        <ele>2024</ele>
        <time>2022-07-17T05:05:14Z</time>
      </trkpt>
      <trkpt lat="45.95987" lon="6.79111">
        <ele>2022</ele>
        <time>2022-07-17T05:05:26Z</time>
      </trkpt>
      <trkpt lat="45.95995" lon="6.79113">
        <ele>2019</ele>
        <time>2022-07-17T05:05:37Z</time>
      </trkpt>
      <trkpt lat="45.95999" lon="6.79115">
        <ele>2018</ele>
        <time>2022-07-17T05:05:43Z</time>
      </trkpt>
      <trkpt lat="45.96005" lon="6.79113">
        <ele>2015</ele>
        <time>2022-07-17T05:05:53Z</time>
      </trkpt>
      <trkpt lat="45.96008" lon="6.79107">
        <ele>2014</ele>
        <time>2022-07-17T05:05:58Z</time>
      </trkpt>
      <trkpt lat="45.96013" lon="6.79109">
        <ele>2013</ele>
        <time>2022-07-17T05:06:05Z</time>
      </trkpt>
      <trkpt lat="45.96016" lon="6.79114">
        <ele>2012</ele>
        <time>2022-07-17T05:06:10Z</time>
      </trkpt>
      <trkpt lat="45.96022" lon="6.79118">
        <ele>2009</ele>
        <time>2022-07-17T05:06:23Z</time>
      </trkpt>
      <trkpt lat="45.96026" lon="6.79116">
        <ele>2008</ele>
        <time>2022-07-17T05:06:28Z</time>
      </trkpt>
      <trkpt lat="45.96033" lon="6.79129">
        <ele>2005</ele>
        <time>2022-07-17T05:06:40Z</time>
      </trkpt>
      <trkpt lat="45.96036" lon="6.79147">
        <ele>2003</ele>
        <time>2022-07-17T05:06:57Z</time>
      </trkpt>
      <trkpt lat="45.9604" lon="6.79142">
        <ele>2001</ele>
        <time>2022-07-17T05:07:12Z</time>
      </trkpt>
      <trkpt lat="45.96045" lon="6.79144">
        <ele>1998</ele>
        <time>2022-07-17T05:07:27Z</time>
      </trkpt>
      <trkpt lat="45.9605" lon="6.7914">
        <ele>1996</ele>
        <time>2022-07-17T05:07:37Z</time>
      </trkpt>
      <trkpt lat="45.96055" lon="6.79137">
        <ele>1993</ele>
        <time>2022-07-17T05:08:07Z</time>
      </trkpt>
      <trkpt lat="45.96061" lon="6.79135">
        <ele>1990</ele>
        <time>2022-07-17T05:08:25Z</time>
      </trkpt>
      <trkpt lat="45.96065" lon="6.79132">
        <ele>1988</ele>
        <time>2022-07-17T05:08:36Z</time>
      </trkpt>
      <trkpt lat="45.9607" lon="6.79132">
        <ele>1987</ele>
        <time>2022-07-17T05:08:41Z</time>
      </trkpt>
      <trkpt lat="45.96072" lon="6.79142">
        <ele>1985</ele>
        <time>2022-07-17T05:08:47Z</time>
      </trkpt>
      <trkpt lat="45.96076" lon="6.79149">
        <ele>1983</ele>
        <time>2022-07-17T05:08:57Z</time>
      </trkpt>
      <trkpt lat="45.96082" lon="6.79151">
        <ele>1981</ele>
        <time>2022-07-17T05:09:07Z</time>
      </trkpt>
      <trkpt lat="45.96086" lon="6.79156">
        <ele>1980</ele>
        <time>2022-07-17T05:09:11Z</time>
      </trkpt>
      <trkpt lat="45.9609" lon="6.79158">
        <ele>1980</ele>
        <time>2022-07-17T05:09:18Z</time>
      </trkpt>
      <trkpt lat="45.96093" lon="6.79163">
        <ele>1979</ele>
        <time>2022-07-17T05:09:23Z</time>
      </trkpt>
      <trkpt lat="45.96098" lon="6.79162">
        <ele>1978</ele>
        <time>2022-07-17T05:09:28Z</time>
      </trkpt>
      <trkpt lat="45.96103" lon="6.79165">
        <ele>1977</ele>
        <time>2022-07-17T05:09:33Z</time>
      </trkpt>
      <trkpt lat="45.96108" lon="6.79165">
        <ele>1976</ele>
        <time>2022-07-17T05:09:41Z</time>
      </trkpt>
      <trkpt lat="45.96119" lon="6.79175">
        <ele>1972</ele>
        <time>2022-07-17T05:09:58Z</time>
      </trkpt>
      <trkpt lat="45.96123" lon="6.79179">
        <ele>1971</ele>
        <time>2022-07-17T05:10:04Z</time>
      </trkpt>
      <trkpt lat="45.96126" lon="6.79184">
        <ele>1970</ele>
        <time>2022-07-17T05:10:08Z</time>
      </trkpt>
      <trkpt lat="45.96131" lon="6.79186">
        <ele>1970</ele>
        <time>2022-07-17T05:10:15Z</time>
      </trkpt>
      <trkpt lat="45.96136" lon="6.79188">
        <ele>1969</ele>
        <time>2022-07-17T05:10:20Z</time>
      </trkpt>
      <trkpt lat="45.96147" lon="6.792">
        <ele>1969</ele>
        <time>2022-07-17T05:10:33Z</time>
      </trkpt>
      <trkpt lat="45.96149" lon="6.79206">
        <ele>1969</ele>
        <time>2022-07-17T05:10:37Z</time>
      </trkpt>
      <trkpt lat="45.96156" lon="6.79209">
        <ele>1967</ele>
        <time>2022-07-17T05:10:46Z</time>
      </trkpt>
      <trkpt lat="45.96163" lon="6.79211">
        <ele>1964</ele>
        <time>2022-07-17T05:10:58Z</time>
      </trkpt>
      <trkpt lat="45.96185" lon="6.79211">
        <ele>1959</ele>
        <time>2022-07-17T05:11:22Z</time>
      </trkpt>
      <trkpt lat="45.96197" lon="6.79208">
        <ele>1959</ele>
        <time>2022-07-17T05:11:36Z</time>
      </trkpt>
      <trkpt lat="45.96202" lon="6.79206">
        <ele>1958</ele>
        <time>2022-07-17T05:11:41Z</time>
      </trkpt>
      <trkpt lat="45.96207" lon="6.79206">
        <ele>1957</ele>
        <time>2022-07-17T05:11:46Z</time>
      </trkpt>
      <trkpt lat="45.96212" lon="6.79193">
        <ele>1955</ele>
        <time>2022-07-17T05:12:01Z</time>
      </trkpt>
      <trkpt lat="45.96217" lon="6.79184">
        <ele>1954</ele>
        <time>2022-07-17T05:12:10Z</time>
      </trkpt>
      <trkpt lat="45.96225" lon="6.7918">
        <ele>1952</ele>
        <time>2022-07-17T05:12:17Z</time>
      </trkpt>
      <trkpt lat="45.96228" lon="6.79186">
        <ele>1952</ele>
        <time>2022-07-17T05:12:22Z</time>
      </trkpt>
      <trkpt lat="45.96227" lon="6.79194">
        <ele>1952</ele>
        <time>2022-07-17T05:12:27Z</time>
      </trkpt>
      <trkpt lat="45.96232" lon="6.79199">
        <ele>1950</ele>
        <time>2022-07-17T05:14:30Z</time>
      </trkpt>
      <trkpt lat="45.96237" lon="6.79203">
        <ele>1951</ele>
        <time>2022-07-17T05:14:40Z</time>
      </trkpt>
      <trkpt lat="45.9624" lon="6.79214">
        <ele>1950</ele>
        <time>2022-07-17T05:14:51Z</time>
      </trkpt>
      <trkpt lat="45.96243" lon="6.79217">
        <ele>1949</ele>
        <time>2022-07-17T05:14:54Z</time>
      </trkpt>
      <trkpt lat="45.96247" lon="6.79222">
        <ele>1949</ele>
        <time>2022-07-17T05:14:58Z</time>
      </trkpt>
      <trkpt lat="45.96251" lon="6.79226">
        <ele>1950</ele>
        <time>2022-07-17T05:15:07Z</time>
      </trkpt>
      <trkpt lat="45.96254" lon="6.79234">
        <ele>1951</ele>
        <time>2022-07-17T05:15:17Z</time>
      </trkpt>
      <trkpt lat="45.96261" lon="6.79238">
        <ele>1953</ele>
        <time>2022-07-17T05:15:27Z</time>
      </trkpt>
      <trkpt lat="45.96266" lon="6.79239">
        <ele>1953</ele>
        <time>2022-07-17T05:15:31Z</time>
      </trkpt>
      <trkpt lat="45.96279" lon="6.79247">
        <ele>1951</ele>
        <time>2022-07-17T05:15:46Z</time>
      </trkpt>
      <trkpt lat="45.96281" lon="6.79255">
        <ele>1949</ele>
        <time>2022-07-17T05:16:22Z</time>
      </trkpt>
      <trkpt lat="45.96287" lon="6.79255">
        <ele>1946</ele>
        <time>2022-07-17T05:16:32Z</time>
      </trkpt>
      <trkpt lat="45.96291" lon="6.79253">
        <ele>1945</ele>
        <time>2022-07-17T05:16:38Z</time>
      </trkpt>
      <trkpt lat="45.96292" lon="6.79263">
        <ele>1946</ele>
        <time>2022-07-17T05:16:49Z</time>
      </trkpt>
      <trkpt lat="45.96296" lon="6.79266">
        <ele>1946</ele>
        <time>2022-07-17T05:16:53Z</time>
      </trkpt>
      <trkpt lat="45.96299" lon="6.79277">
        <ele>1949</ele>
        <time>2022-07-17T05:17:09Z</time>
      </trkpt>
      <trkpt lat="45.96302" lon="6.79282">
        <ele>1949</ele>
        <time>2022-07-17T05:17:14Z</time>
      </trkpt>
      <trkpt lat="45.96304" lon="6.79291">
        <ele>1951</ele>
        <time>2022-07-17T05:17:24Z</time>
      </trkpt>
      <trkpt lat="45.96302" lon="6.79299">
        <ele>1952</ele>
        <time>2022-07-17T05:17:34Z</time>
      </trkpt>
      <trkpt lat="45.96301" lon="6.79305">
        <ele>1954</ele>
        <time>2022-07-17T05:17:44Z</time>
      </trkpt>
      <trkpt lat="45.96294" lon="6.79317">
        <ele>1955</ele>
        <time>2022-07-17T05:17:56Z</time>
      </trkpt>
      <trkpt lat="45.96292" lon="6.79325">
        <ele>1956</ele>
        <time>2022-07-17T05:18:03Z</time>
      </trkpt>
      <trkpt lat="45.96293" lon="6.79331">
        <ele>1957</ele>
        <time>2022-07-17T05:18:08Z</time>
      </trkpt>
      <trkpt lat="45.96295" lon="6.79338">
        <ele>1957</ele>
        <time>2022-07-17T05:18:14Z</time>
      </trkpt>
      <trkpt lat="45.96298" lon="6.79343">
        <ele>1956</ele>
        <time>2022-07-17T05:18:18Z</time>
      </trkpt>
      <trkpt lat="45.96299" lon="6.7935">
        <ele>1956</ele>
        <time>2022-07-17T05:18:25Z</time>
      </trkpt>
      <trkpt lat="45.96301" lon="6.79356">
        <ele>1955</ele>
        <time>2022-07-17T05:18:29Z</time>
      </trkpt>
      <trkpt lat="45.96304" lon="6.79361">
        <ele>1954</ele>
        <time>2022-07-17T05:18:33Z</time>
      </trkpt>
      <trkpt lat="45.96308" lon="6.79366">
        <ele>1954</ele>
        <time>2022-07-17T05:18:37Z</time>
      </trkpt>
      <trkpt lat="45.96312" lon="6.79368">
        <ele>1954</ele>
        <time>2022-07-17T05:18:42Z</time>
      </trkpt>
      <trkpt lat="45.9632" lon="6.79385">
        <ele>1951</ele>
        <time>2022-07-17T05:18:59Z</time>
      </trkpt>
      <trkpt lat="45.96321" lon="6.79394">
        <ele>1949</ele>
        <time>2022-07-17T05:19:07Z</time>
      </trkpt>
      <trkpt lat="45.96324" lon="6.79407">
        <ele>1947</ele>
        <time>2022-07-17T05:19:16Z</time>
      </trkpt>
      <trkpt lat="45.96328" lon="6.79411">
        <ele>1947</ele>
        <time>2022-07-17T05:19:20Z</time>
      </trkpt>
      <trkpt lat="45.96332" lon="6.79415">
        <ele>1947</ele>
        <time>2022-07-17T05:19:24Z</time>
      </trkpt>
      <trkpt lat="45.96336" lon="6.79418">
        <ele>1948</ele>
        <time>2022-07-17T05:19:28Z</time>
      </trkpt>
      <trkpt lat="45.96345" lon="6.79421">
        <ele>1949</ele>
        <time>2022-07-17T05:19:38Z</time>
      </trkpt>
      <trkpt lat="45.9635" lon="6.79423">
        <ele>1949</ele>
        <time>2022-07-17T05:19:42Z</time>
      </trkpt>
      <trkpt lat="45.96355" lon="6.79423">
        <ele>1949</ele>
        <time>2022-07-17T05:19:47Z</time>
      </trkpt>
      <trkpt lat="45.96357" lon="6.7943">
        <ele>1948</ele>
        <time>2022-07-17T05:19:51Z</time>
      </trkpt>
      <trkpt lat="45.96357" lon="6.79437">
        <ele>1947</ele>
        <time>2022-07-17T05:19:55Z</time>
      </trkpt>
      <trkpt lat="45.96359" lon="6.79443">
        <ele>1947</ele>
        <time>2022-07-17T05:19:59Z</time>
      </trkpt>
      <trkpt lat="45.96365" lon="6.79453">
        <ele>1946</ele>
        <time>2022-07-17T05:20:07Z</time>
      </trkpt>
      <trkpt lat="45.96368" lon="6.79461">
        <ele>1946</ele>
        <time>2022-07-17T05:20:12Z</time>
      </trkpt>
      <trkpt lat="45.9637" lon="6.79466">
        <ele>1946</ele>
        <time>2022-07-17T05:20:16Z</time>
      </trkpt>
      <trkpt lat="45.96372" lon="6.79474">
        <ele>1946</ele>
        <time>2022-07-17T05:20:22Z</time>
      </trkpt>
      <trkpt lat="45.96371" lon="6.79481">
        <ele>1946</ele>
        <time>2022-07-17T05:20:26Z</time>
      </trkpt>
      <trkpt lat="45.96367" lon="6.79485">
        <ele>1946</ele>
        <time>2022-07-17T05:20:31Z</time>
      </trkpt>
      <trkpt lat="45.96363" lon="6.79487">
        <ele>1946</ele>
        <time>2022-07-17T05:20:35Z</time>
      </trkpt>
      <trkpt lat="45.96359" lon="6.79492">
        <ele>1945</ele>
        <time>2022-07-17T05:20:39Z</time>
      </trkpt>
      <trkpt lat="45.96339" lon="6.79509">
        <ele>1947</ele>
        <time>2022-07-17T05:21:03Z</time>
      </trkpt>
      <trkpt lat="45.96336" lon="6.79515">
        <ele>1947</ele>
        <time>2022-07-17T05:21:07Z</time>
      </trkpt>
      <trkpt lat="45.96335" lon="6.79521">
        <ele>1947</ele>
        <time>2022-07-17T05:21:11Z</time>
      </trkpt>
      <trkpt lat="45.96331" lon="6.79524">
        <ele>1947</ele>
        <time>2022-07-17T05:21:16Z</time>
      </trkpt>
      <trkpt lat="45.96327" lon="6.79528">
        <ele>1947</ele>
        <time>2022-07-17T05:21:21Z</time>
      </trkpt>
      <trkpt lat="45.96322" lon="6.7953">
        <ele>1947</ele>
        <time>2022-07-17T05:21:26Z</time>
      </trkpt>
      <trkpt lat="45.96318" lon="6.79528">
        <ele>1947</ele>
        <time>2022-07-17T05:21:31Z</time>
      </trkpt>
      <trkpt lat="45.96314" lon="6.79526">
        <ele>1946</ele>
        <time>2022-07-17T05:21:41Z</time>
      </trkpt>
      <trkpt lat="45.96314" lon="6.79533">
        <ele>1946</ele>
        <time>2022-07-17T05:22:21Z</time>
      </trkpt>
      <trkpt lat="45.96316" lon="6.79539">
        <ele>1949</ele>
        <time>2022-07-17T05:30:19Z</time>
      </trkpt>
      <trkpt lat="45.96318" lon="6.79538">
        <ele>1950</ele>
        <time>2022-07-17T05:36:16Z</time>
      </trkpt>
      <trkpt lat="45.96315" lon="6.79532">
        <ele>1950</ele>
        <time>2022-07-17T05:36:21Z</time>
      </trkpt>
      <trkpt lat="45.96315" lon="6.79529">
        <ele>1950</ele>
        <time>2022-07-17T05:39:54Z</time>
      </trkpt>
      <trkpt lat="45.96314" lon="6.79535">
        <ele>1948</ele>
        <time>2022-07-17T05:46:07Z</time>
      </trkpt>
      <trkpt lat="45.96319" lon="6.79538">
        <ele>1948</ele>
        <time>2022-07-17T05:46:19Z</time>
      </trkpt>
      <trkpt lat="45.96326" lon="6.79533">
        <ele>1948</ele>
        <time>2022-07-17T05:46:27Z</time>
      </trkpt>
      <trkpt lat="45.96329" lon="6.79529">
        <ele>1949</ele>
        <time>2022-07-17T05:46:31Z</time>
      </trkpt>
      <trkpt lat="45.96334" lon="6.79525">
        <ele>1949</ele>
        <time>2022-07-17T05:46:35Z</time>
      </trkpt>
      <trkpt lat="45.96337" lon="6.7952">
        <ele>1949</ele>
        <time>2022-07-17T05:46:39Z</time>
      </trkpt>
      <trkpt lat="45.96339" lon="6.79514">
        <ele>1948</ele>
        <time>2022-07-17T05:46:43Z</time>
      </trkpt>
      <trkpt lat="45.96343" lon="6.79509">
        <ele>1948</ele>
        <time>2022-07-17T05:46:47Z</time>
      </trkpt>
      <trkpt lat="45.96348" lon="6.79506">
        <ele>1948</ele>
        <time>2022-07-17T05:46:51Z</time>
      </trkpt>
      <trkpt lat="45.9636" lon="6.79495">
        <ele>1947</ele>
        <time>2022-07-17T05:47:03Z</time>
      </trkpt>
      <trkpt lat="45.96366" lon="6.79485">
        <ele>1947</ele>
        <time>2022-07-17T05:47:13Z</time>
      </trkpt>
      <trkpt lat="45.9637" lon="6.79482">
        <ele>1948</ele>
        <time>2022-07-17T05:47:18Z</time>
      </trkpt>
      <trkpt lat="45.96373" lon="6.79476">
        <ele>1948</ele>
        <time>2022-07-17T05:47:23Z</time>
      </trkpt>
      <trkpt lat="45.96371" lon="6.79462">
        <ele>1948</ele>
        <time>2022-07-17T05:47:33Z</time>
      </trkpt>
      <trkpt lat="45.96368" lon="6.79457">
        <ele>1948</ele>
        <time>2022-07-17T05:47:37Z</time>
      </trkpt>
      <trkpt lat="45.96378" lon="6.79443">
        <ele>1949</ele>
        <time>2022-07-17T05:47:52Z</time>
      </trkpt>
      <trkpt lat="45.96384" lon="6.79438">
        <ele>1951</ele>
        <time>2022-07-17T05:48:04Z</time>
      </trkpt>
      <trkpt lat="45.96386" lon="6.79423">
        <ele>1956</ele>
        <time>2022-07-17T05:48:25Z</time>
      </trkpt>
      <trkpt lat="45.96391" lon="6.79424">
        <ele>1957</ele>
        <time>2022-07-17T05:48:30Z</time>
      </trkpt>
      <trkpt lat="45.96395" lon="6.79422">
        <ele>1957</ele>
        <time>2022-07-17T05:48:37Z</time>
      </trkpt>
      <trkpt lat="45.96403" lon="6.79424">
        <ele>1958</ele>
        <time>2022-07-17T05:48:48Z</time>
      </trkpt>
      <trkpt lat="45.96411" lon="6.79422">
        <ele>1959</ele>
        <time>2022-07-17T05:48:58Z</time>
      </trkpt>
      <trkpt lat="45.96417" lon="6.79425">
        <ele>1960</ele>
        <time>2022-07-17T05:49:09Z</time>
      </trkpt>
      <trkpt lat="45.96423" lon="6.79417">
        <ele>1961</ele>
        <time>2022-07-17T05:49:19Z</time>
      </trkpt>
      <trkpt lat="45.96423" lon="6.7941">
        <ele>1961</ele>
        <time>2022-07-17T05:49:24Z</time>
      </trkpt>
      <trkpt lat="45.96428" lon="6.79407">
        <ele>1960</ele>
        <time>2022-07-17T05:49:28Z</time>
      </trkpt>
      <trkpt lat="45.9643" lon="6.794">
        <ele>1961</ele>
        <time>2022-07-17T05:49:36Z</time>
      </trkpt>
      <trkpt lat="45.96434" lon="6.79392">
        <ele>1963</ele>
        <time>2022-07-17T05:49:46Z</time>
      </trkpt>
      <trkpt lat="45.96439" lon="6.79389">
        <ele>1963</ele>
        <time>2022-07-17T05:49:51Z</time>
      </trkpt>
      <trkpt lat="45.96443" lon="6.79383">
        <ele>1964</ele>
        <time>2022-07-17T05:49:58Z</time>
      </trkpt>
      <trkpt lat="45.96448" lon="6.7938">
        <ele>1963</ele>
        <time>2022-07-17T05:50:03Z</time>
      </trkpt>
      <trkpt lat="45.96452" lon="6.79379">
        <ele>1962</ele>
        <time>2022-07-17T05:50:07Z</time>
      </trkpt>
      <trkpt lat="45.96456" lon="6.79379">
        <ele>1962</ele>
        <time>2022-07-17T05:50:11Z</time>
      </trkpt>
      <trkpt lat="45.9646" lon="6.79384">
        <ele>1962</ele>
        <time>2022-07-17T05:50:16Z</time>
      </trkpt>
      <trkpt lat="45.9647" lon="6.79388">
        <ele>1963</ele>
        <time>2022-07-17T05:50:26Z</time>
      </trkpt>
      <trkpt lat="45.96479" lon="6.79388">
        <ele>1961</ele>
        <time>2022-07-17T05:50:38Z</time>
      </trkpt>
      <trkpt lat="45.96483" lon="6.79391">
        <ele>1960</ele>
        <time>2022-07-17T05:50:45Z</time>
      </trkpt>
      <trkpt lat="45.96487" lon="6.79387">
        <ele>1958</ele>
        <time>2022-07-17T05:50:55Z</time>
      </trkpt>
      <trkpt lat="45.96494" lon="6.79394">
        <ele>1955</ele>
        <time>2022-07-17T05:51:05Z</time>
      </trkpt>
      <trkpt lat="45.96506" lon="6.79399">
        <ele>1950</ele>
        <time>2022-07-17T05:51:26Z</time>
      </trkpt>
      <trkpt lat="45.96512" lon="6.79397">
        <ele>1948</ele>
        <time>2022-07-17T05:51:36Z</time>
      </trkpt>
      <trkpt lat="45.96516" lon="6.794">
        <ele>1947</ele>
        <time>2022-07-17T05:51:39Z</time>
      </trkpt>
      <trkpt lat="45.96522" lon="6.79407">
        <ele>1946</ele>
        <time>2022-07-17T05:51:47Z</time>
      </trkpt>
      <trkpt lat="45.96541" lon="6.79417">
        <ele>1945</ele>
        <time>2022-07-17T05:52:06Z</time>
      </trkpt>
      <trkpt lat="45.96546" lon="6.79418">
        <ele>1944</ele>
        <time>2022-07-17T05:52:12Z</time>
      </trkpt>
      <trkpt lat="45.96551" lon="6.7942">
        <ele>1943</ele>
        <time>2022-07-17T05:52:17Z</time>
      </trkpt>
      <trkpt lat="45.9656" lon="6.79419">
        <ele>1941</ele>
        <time>2022-07-17T05:52:27Z</time>
      </trkpt>
      <trkpt lat="45.96565" lon="6.79419">
        <ele>1941</ele>
        <time>2022-07-17T05:52:31Z</time>
      </trkpt>
      <trkpt lat="45.9657" lon="6.79415">
        <ele>1940</ele>
        <time>2022-07-17T05:52:35Z</time>
      </trkpt>
      <trkpt lat="45.96574" lon="6.79415">
        <ele>1940</ele>
        <time>2022-07-17T05:52:40Z</time>
      </trkpt>
      <trkpt lat="45.96587" lon="6.79404">
        <ele>1936</ele>
        <time>2022-07-17T05:52:54Z</time>
      </trkpt>
      <trkpt lat="45.96592" lon="6.79406">
        <ele>1935</ele>
        <time>2022-07-17T05:52:59Z</time>
      </trkpt>
      <trkpt lat="45.96597" lon="6.79405">
        <ele>1934</ele>
        <time>2022-07-17T05:53:03Z</time>
      </trkpt>
      <trkpt lat="45.96601" lon="6.79401">
        <ele>1934</ele>
        <time>2022-07-17T05:53:08Z</time>
      </trkpt>
      <trkpt lat="45.96603" lon="6.79394">
        <ele>1933</ele>
        <time>2022-07-17T05:53:20Z</time>
      </trkpt>
      <trkpt lat="45.96601" lon="6.79384">
        <ele>1934</ele>
        <time>2022-07-17T05:53:26Z</time>
      </trkpt>
      <trkpt lat="45.96601" lon="6.79349">
        <ele>1933</ele>
        <time>2022-07-17T05:53:46Z</time>
      </trkpt>
      <trkpt lat="45.96602" lon="6.79342">
        <ele>1934</ele>
        <time>2022-07-17T05:53:50Z</time>
      </trkpt>
      <trkpt lat="45.96605" lon="6.79336">
        <ele>1933</ele>
        <time>2022-07-17T05:53:54Z</time>
      </trkpt>
      <trkpt lat="45.96605" lon="6.7933">
        <ele>1933</ele>
        <time>2022-07-17T05:53:57Z</time>
      </trkpt>
      <trkpt lat="45.96607" lon="6.79323">
        <ele>1934</ele>
        <time>2022-07-17T05:54:01Z</time>
      </trkpt>
      <trkpt lat="45.9661" lon="6.79318">
        <ele>1934</ele>
        <time>2022-07-17T05:54:05Z</time>
      </trkpt>
      <trkpt lat="45.96617" lon="6.79309">
        <ele>1934</ele>
        <time>2022-07-17T05:54:13Z</time>
      </trkpt>
      <trkpt lat="45.96623" lon="6.79311">
        <ele>1933</ele>
        <time>2022-07-17T05:54:21Z</time>
      </trkpt>
      <trkpt lat="45.96631" lon="6.79307">
        <ele>1930</ele>
        <time>2022-07-17T05:54:34Z</time>
      </trkpt>
      <trkpt lat="45.96633" lon="6.79302">
        <ele>1929</ele>
        <time>2022-07-17T05:54:41Z</time>
      </trkpt>
      <trkpt lat="45.96639" lon="6.79298">
        <ele>1926</ele>
        <time>2022-07-17T05:54:52Z</time>
      </trkpt>
      <trkpt lat="45.96644" lon="6.79299">
        <ele>1925</ele>
        <time>2022-07-17T05:54:56Z</time>
      </trkpt>
      <trkpt lat="45.9665" lon="6.79306">
        <ele>1924</ele>
        <time>2022-07-17T05:55:06Z</time>
      </trkpt>
      <trkpt lat="45.96655" lon="6.79304">
        <ele>1923</ele>
        <time>2022-07-17T05:55:11Z</time>
      </trkpt>
      <trkpt lat="45.96662" lon="6.79296">
        <ele>1920</ele>
        <time>2022-07-17T05:55:23Z</time>
      </trkpt>
      <trkpt lat="45.96664" lon="6.7928">
        <ele>1918</ele>
        <time>2022-07-17T05:55:36Z</time>
      </trkpt>
      <trkpt lat="45.96663" lon="6.79274">
        <ele>1917</ele>
        <time>2022-07-17T05:55:40Z</time>
      </trkpt>
      <trkpt lat="45.96665" lon="6.79262">
        <ele>1915</ele>
        <time>2022-07-17T05:55:49Z</time>
      </trkpt>
      <trkpt lat="45.96666" lon="6.79253">
        <ele>1913</ele>
        <time>2022-07-17T05:55:56Z</time>
      </trkpt>
      <trkpt lat="45.9667" lon="6.79248">
        <ele>1912</ele>
        <time>2022-07-17T05:56:01Z</time>
      </trkpt>
      <trkpt lat="45.9668" lon="6.79244">
        <ele>1910</ele>
        <time>2022-07-17T05:56:09Z</time>
      </trkpt>
      <trkpt lat="45.96683" lon="6.7924">
        <ele>1909</ele>
        <time>2022-07-17T05:56:13Z</time>
      </trkpt>
      <trkpt lat="45.96685" lon="6.79235">
        <ele>1908</ele>
        <time>2022-07-17T05:56:17Z</time>
      </trkpt>
      <trkpt lat="45.96685" lon="6.79226">
        <ele>1907</ele>
        <time>2022-07-17T05:56:24Z</time>
      </trkpt>
      <trkpt lat="45.9669" lon="6.79225">
        <ele>1906</ele>
        <time>2022-07-17T05:56:29Z</time>
      </trkpt>
      <trkpt lat="45.96692" lon="6.79217">
        <ele>1904</ele>
        <time>2022-07-17T05:56:37Z</time>
      </trkpt>
      <trkpt lat="45.96697" lon="6.79218">
        <ele>1902</ele>
        <time>2022-07-17T05:56:41Z</time>
      </trkpt>
      <trkpt lat="45.96702" lon="6.79215">
        <ele>1901</ele>
        <time>2022-07-17T05:56:48Z</time>
      </trkpt>
      <trkpt lat="45.96713" lon="6.79204">
        <ele>1897</ele>
        <time>2022-07-17T05:57:03Z</time>
      </trkpt>
      <trkpt lat="45.96715" lon="6.79194">
        <ele>1895</ele>
        <time>2022-07-17T05:57:12Z</time>
      </trkpt>
      <trkpt lat="45.96712" lon="6.79184">
        <ele>1893</ele>
        <time>2022-07-17T05:57:22Z</time>
      </trkpt>
      <trkpt lat="45.96709" lon="6.79176">
        <ele>1890</ele>
        <time>2022-07-17T05:57:32Z</time>
      </trkpt>
      <trkpt lat="45.96704" lon="6.79161">
        <ele>1886</ele>
        <time>2022-07-17T05:57:47Z</time>
      </trkpt>
      <trkpt lat="45.96706" lon="6.79154">
        <ele>1884</ele>
        <time>2022-07-17T05:57:54Z</time>
      </trkpt>
      <trkpt lat="45.96706" lon="6.79148">
        <ele>1882</ele>
        <time>2022-07-17T05:58:00Z</time>
      </trkpt>
      <trkpt lat="45.96713" lon="6.79147">
        <ele>1880</ele>
        <time>2022-07-17T05:58:10Z</time>
      </trkpt>
      <trkpt lat="45.96718" lon="6.79151">
        <ele>1877</ele>
        <time>2022-07-17T05:58:20Z</time>
      </trkpt>
      <trkpt lat="45.96722" lon="6.79153">
        <ele>1876</ele>
        <time>2022-07-17T05:58:25Z</time>
      </trkpt>
      <trkpt lat="45.96727" lon="6.79154">
        <ele>1874</ele>
        <time>2022-07-17T05:58:29Z</time>
      </trkpt>
      <trkpt lat="45.96732" lon="6.7915">
        <ele>1874</ele>
        <time>2022-07-17T05:58:36Z</time>
      </trkpt>
      <trkpt lat="45.96736" lon="6.79146">
        <ele>1872</ele>
        <time>2022-07-17T05:58:43Z</time>
      </trkpt>
      <trkpt lat="45.9674" lon="6.79139">
        <ele>1869</ele>
        <time>2022-07-17T05:58:54Z</time>
      </trkpt>
      <trkpt lat="45.96744" lon="6.79137">
        <ele>1867</ele>
        <time>2022-07-17T05:59:04Z</time>
      </trkpt>
      <trkpt lat="45.96759" lon="6.79137">
        <ele>1862</ele>
        <time>2022-07-17T05:59:24Z</time>
      </trkpt>
      <trkpt lat="45.96764" lon="6.79133">
        <ele>1859</ele>
        <time>2022-07-17T05:59:34Z</time>
      </trkpt>
      <trkpt lat="45.9677" lon="6.79127">
        <ele>1856</ele>
        <time>2022-07-17T05:59:44Z</time>
      </trkpt>
      <trkpt lat="45.96761" lon="6.79114">
        <ele>1852</ele>
        <time>2022-07-17T06:00:00Z</time>
      </trkpt>
      <trkpt lat="45.96757" lon="6.79111">
        <ele>1851</ele>
        <time>2022-07-17T06:00:07Z</time>
      </trkpt>
      <trkpt lat="45.96758" lon="6.79102">
        <ele>1847</ele>
        <time>2022-07-17T06:00:19Z</time>
      </trkpt>
      <trkpt lat="45.96769" lon="6.79095">
        <ele>1844</ele>
        <time>2022-07-17T06:00:34Z</time>
      </trkpt>
      <trkpt lat="45.96773" lon="6.79091">
        <ele>1842</ele>
        <time>2022-07-17T06:00:41Z</time>
      </trkpt>
      <trkpt lat="45.96773" lon="6.79084">
        <ele>1841</ele>
        <time>2022-07-17T06:00:47Z</time>
      </trkpt>
      <trkpt lat="45.96767" lon="6.79073">
        <ele>1838</ele>
        <time>2022-07-17T06:00:58Z</time>
      </trkpt>
      <trkpt lat="45.96758" lon="6.79065">
        <ele>1835</ele>
        <time>2022-07-17T06:01:09Z</time>
      </trkpt>
      <trkpt lat="45.96751" lon="6.79066">
        <ele>1834</ele>
        <time>2022-07-17T06:01:15Z</time>
      </trkpt>
      <trkpt lat="45.96747" lon="6.79059">
        <ele>1833</ele>
        <time>2022-07-17T06:01:21Z</time>
      </trkpt>
      <trkpt lat="45.96744" lon="6.79055">
        <ele>1833</ele>
        <time>2022-07-17T06:01:25Z</time>
      </trkpt>
      <trkpt lat="45.96742" lon="6.79049">
        <ele>1832</ele>
        <time>2022-07-17T06:01:34Z</time>
      </trkpt>
      <trkpt lat="45.96741" lon="6.79034">
        <ele>1829</ele>
        <time>2022-07-17T06:01:46Z</time>
      </trkpt>
      <trkpt lat="45.96734" lon="6.79029">
        <ele>1828</ele>
        <time>2022-07-17T06:01:56Z</time>
      </trkpt>
      <trkpt lat="45.96732" lon="6.79024">
        <ele>1827</ele>
        <time>2022-07-17T06:02:00Z</time>
      </trkpt>
      <trkpt lat="45.96731" lon="6.79016">
        <ele>1827</ele>
        <time>2022-07-17T06:02:08Z</time>
      </trkpt>
      <trkpt lat="45.96726" lon="6.79011">
        <ele>1827</ele>
        <time>2022-07-17T06:02:15Z</time>
      </trkpt>
      <trkpt lat="45.96723" lon="6.79005">
        <ele>1826</ele>
        <time>2022-07-17T06:02:20Z</time>
      </trkpt>
      <trkpt lat="45.96718" lon="6.78994">
        <ele>1826</ele>
        <time>2022-07-17T06:02:28Z</time>
      </trkpt>
      <trkpt lat="45.9671" lon="6.78984">
        <ele>1827</ele>
        <time>2022-07-17T06:02:36Z</time>
      </trkpt>
      <trkpt lat="45.96706" lon="6.78979">
        <ele>1827</ele>
        <time>2022-07-17T06:02:40Z</time>
      </trkpt>
      <trkpt lat="45.96698" lon="6.78975">
        <ele>1826</ele>
        <time>2022-07-17T06:02:48Z</time>
      </trkpt>
      <trkpt lat="45.96693" lon="6.78973">
        <ele>1827</ele>
        <time>2022-07-17T06:02:53Z</time>
      </trkpt>
      <trkpt lat="45.96689" lon="6.78965">
        <ele>1827</ele>
        <time>2022-07-17T06:03:01Z</time>
      </trkpt>
      <trkpt lat="45.96687" lon="6.78959">
        <ele>1826</ele>
        <time>2022-07-17T06:03:07Z</time>
      </trkpt>
      <trkpt lat="45.96675" lon="6.78943">
        <ele>1824</ele>
        <time>2022-07-17T06:03:23Z</time>
      </trkpt>
      <trkpt lat="45.96671" lon="6.78941">
        <ele>1824</ele>
        <time>2022-07-17T06:03:27Z</time>
      </trkpt>
      <trkpt lat="45.96667" lon="6.7894">
        <ele>1825</ele>
        <time>2022-07-17T06:03:35Z</time>
      </trkpt>
      <trkpt lat="45.96659" lon="6.78937">
        <ele>1828</ele>
        <time>2022-07-17T06:03:55Z</time>
      </trkpt>
      <trkpt lat="45.96653" lon="6.78929">
        <ele>1829</ele>
        <time>2022-07-17T06:04:04Z</time>
      </trkpt>
      <trkpt lat="45.96648" lon="6.7892">
        <ele>1829</ele>
        <time>2022-07-17T06:04:16Z</time>
      </trkpt>
      <trkpt lat="45.96642" lon="6.78913">
        <ele>1830</ele>
        <time>2022-07-17T06:04:27Z</time>
      </trkpt>
      <trkpt lat="45.96636" lon="6.78899">
        <ele>1827</ele>
        <time>2022-07-17T06:04:44Z</time>
      </trkpt>
      <trkpt lat="45.96617" lon="6.78873">
        <ele>1823</ele>
        <time>2022-07-17T06:05:09Z</time>
      </trkpt>
      <trkpt lat="45.96613" lon="6.78866">
        <ele>1822</ele>
        <time>2022-07-17T06:05:16Z</time>
      </trkpt>
      <trkpt lat="45.96607" lon="6.78858">
        <ele>1820</ele>
        <time>2022-07-17T06:05:26Z</time>
      </trkpt>
      <trkpt lat="45.96608" lon="6.7885">
        <ele>1816</ele>
        <time>2022-07-17T06:05:48Z</time>
      </trkpt>
      <trkpt lat="45.96601" lon="6.78834">
        <ele>1811</ele>
        <time>2022-07-17T06:06:07Z</time>
      </trkpt>
      <trkpt lat="45.96598" lon="6.7883">
        <ele>1810</ele>
        <time>2022-07-17T06:06:11Z</time>
      </trkpt>
      <trkpt lat="45.96594" lon="6.78819">
        <ele>1808</ele>
        <time>2022-07-17T06:06:19Z</time>
      </trkpt>
      <trkpt lat="45.96592" lon="6.78813">
        <ele>1809</ele>
        <time>2022-07-17T06:06:31Z</time>
      </trkpt>
      <trkpt lat="45.96586" lon="6.78802">
        <ele>1805</ele>
        <time>2022-07-17T06:06:45Z</time>
      </trkpt>
      <trkpt lat="45.96583" lon="6.78798">
        <ele>1805</ele>
        <time>2022-07-17T06:06:49Z</time>
      </trkpt>
      <trkpt lat="45.96579" lon="6.7879">
        <ele>1804</ele>
        <time>2022-07-17T06:06:56Z</time>
      </trkpt>
      <trkpt lat="45.96574" lon="6.78786">
        <ele>1803</ele>
        <time>2022-07-17T06:07:00Z</time>
      </trkpt>
      <trkpt lat="45.9657" lon="6.78778">
        <ele>1802</ele>
        <time>2022-07-17T06:07:08Z</time>
      </trkpt>
      <trkpt lat="45.96554" lon="6.7876">
        <ele>1798</ele>
        <time>2022-07-17T06:07:31Z</time>
      </trkpt>
      <trkpt lat="45.96552" lon="6.78754">
        <ele>1796</ele>
        <time>2022-07-17T06:07:39Z</time>
      </trkpt>
      <trkpt lat="45.96548" lon="6.7875">
        <ele>1795</ele>
        <time>2022-07-17T06:07:43Z</time>
      </trkpt>
      <trkpt lat="45.96542" lon="6.78736">
        <ele>1792</ele>
        <time>2022-07-17T06:07:56Z</time>
      </trkpt>
      <trkpt lat="45.96535" lon="6.7873">
        <ele>1792</ele>
        <time>2022-07-17T06:08:05Z</time>
      </trkpt>
      <trkpt lat="45.96531" lon="6.78729">
        <ele>1793</ele>
        <time>2022-07-17T06:08:14Z</time>
      </trkpt>
      <trkpt lat="45.96524" lon="6.78724">
        <ele>1796</ele>
        <time>2022-07-17T06:08:30Z</time>
      </trkpt>
      <trkpt lat="45.9652" lon="6.78715">
        <ele>1796</ele>
        <time>2022-07-17T06:08:40Z</time>
      </trkpt>
      <trkpt lat="45.96517" lon="6.7871">
        <ele>1795</ele>
        <time>2022-07-17T06:08:51Z</time>
      </trkpt>
      <trkpt lat="45.96514" lon="6.78702">
        <ele>1793</ele>
        <time>2022-07-17T06:09:00Z</time>
      </trkpt>
      <trkpt lat="45.96513" lon="6.78695">
        <ele>1791</ele>
        <time>2022-07-17T06:09:08Z</time>
      </trkpt>
      <trkpt lat="45.9651" lon="6.7869">
        <ele>1790</ele>
        <time>2022-07-17T06:09:13Z</time>
      </trkpt>
      <trkpt lat="45.9651" lon="6.78684">
        <ele>1789</ele>
        <time>2022-07-17T06:09:18Z</time>
      </trkpt>
      <trkpt lat="45.96505" lon="6.7867">
        <ele>1785</ele>
        <time>2022-07-17T06:09:33Z</time>
      </trkpt>
      <trkpt lat="45.96503" lon="6.78662">
        <ele>1783</ele>
        <time>2022-07-17T06:09:41Z</time>
      </trkpt>
      <trkpt lat="45.96498" lon="6.78647">
        <ele>1780</ele>
        <time>2022-07-17T06:09:57Z</time>
      </trkpt>
      <trkpt lat="45.96499" lon="6.78641">
        <ele>1778</ele>
        <time>2022-07-17T06:10:02Z</time>
      </trkpt>
      <trkpt lat="45.96499" lon="6.78635">
        <ele>1777</ele>
        <time>2022-07-17T06:10:07Z</time>
      </trkpt>
      <trkpt lat="45.96492" lon="6.78625">
        <ele>1774</ele>
        <time>2022-07-17T06:10:22Z</time>
      </trkpt>
      <trkpt lat="45.9649" lon="6.78619">
        <ele>1770</ele>
        <time>2022-07-17T06:10:47Z</time>
      </trkpt>
      <trkpt lat="45.96484" lon="6.78618">
        <ele>1768</ele>
        <time>2022-07-17T06:10:57Z</time>
      </trkpt>
      <trkpt lat="45.96476" lon="6.78615">
        <ele>1765</ele>
        <time>2022-07-17T06:11:06Z</time>
      </trkpt>
      <trkpt lat="45.96472" lon="6.78613">
        <ele>1765</ele>
        <time>2022-07-17T06:11:10Z</time>
      </trkpt>
      <trkpt lat="45.96468" lon="6.78609">
        <ele>1765</ele>
        <time>2022-07-17T06:11:13Z</time>
      </trkpt>
      <trkpt lat="45.96463" lon="6.78607">
        <ele>1765</ele>
        <time>2022-07-17T06:11:21Z</time>
      </trkpt>
      <trkpt lat="45.96459" lon="6.786">
        <ele>1764</ele>
        <time>2022-07-17T06:11:32Z</time>
      </trkpt>
      <trkpt lat="45.96453" lon="6.78596">
        <ele>1761</ele>
        <time>2022-07-17T06:11:42Z</time>
      </trkpt>
      <trkpt lat="45.96449" lon="6.78594">
        <ele>1760</ele>
        <time>2022-07-17T06:11:46Z</time>
      </trkpt>
      <trkpt lat="45.96444" lon="6.78592">
        <ele>1760</ele>
        <time>2022-07-17T06:11:54Z</time>
      </trkpt>
      <trkpt lat="45.96441" lon="6.78588">
        <ele>1759</ele>
        <time>2022-07-17T06:12:09Z</time>
      </trkpt>
      <trkpt lat="45.96436" lon="6.78588">
        <ele>1758</ele>
        <time>2022-07-17T06:12:14Z</time>
      </trkpt>
      <trkpt lat="45.96434" lon="6.78582">
        <ele>1756</ele>
        <time>2022-07-17T06:12:19Z</time>
      </trkpt>
      <trkpt lat="45.96428" lon="6.78581">
        <ele>1754</ele>
        <time>2022-07-17T06:12:27Z</time>
      </trkpt>
      <trkpt lat="45.96423" lon="6.78586">
        <ele>1752</ele>
        <time>2022-07-17T06:12:37Z</time>
      </trkpt>
      <trkpt lat="45.96418" lon="6.78584">
        <ele>1750</ele>
        <time>2022-07-17T06:12:49Z</time>
      </trkpt>
      <trkpt lat="45.96415" lon="6.78571">
        <ele>1747</ele>
        <time>2022-07-17T06:13:09Z</time>
      </trkpt>
      <trkpt lat="45.96411" lon="6.78564">
        <ele>1745</ele>
        <time>2022-07-17T06:13:25Z</time>
      </trkpt>
      <trkpt lat="45.96406" lon="6.78551">
        <ele>1740</ele>
        <time>2022-07-17T06:13:48Z</time>
      </trkpt>
      <trkpt lat="45.964" lon="6.7855">
        <ele>1739</ele>
        <time>2022-07-17T06:13:53Z</time>
      </trkpt>
      <trkpt lat="45.96397" lon="6.78544">
        <ele>1738</ele>
        <time>2022-07-17T06:13:59Z</time>
      </trkpt>
      <trkpt lat="45.96393" lon="6.78539">
        <ele>1738</ele>
        <time>2022-07-17T06:14:06Z</time>
      </trkpt>
      <trkpt lat="45.96391" lon="6.78532">
        <ele>1738</ele>
        <time>2022-07-17T06:14:11Z</time>
      </trkpt>
      <trkpt lat="45.96385" lon="6.78516">
        <ele>1735</ele>
        <time>2022-07-17T06:14:28Z</time>
      </trkpt>
      <trkpt lat="45.96381" lon="6.78512">
        <ele>1734</ele>
        <time>2022-07-17T06:14:32Z</time>
      </trkpt>
      <trkpt lat="45.96374" lon="6.78502">
        <ele>1733</ele>
        <time>2022-07-17T06:14:42Z</time>
      </trkpt>
      <trkpt lat="45.96367" lon="6.78489">
        <ele>1731</ele>
        <time>2022-07-17T06:14:56Z</time>
      </trkpt>
      <trkpt lat="45.96363" lon="6.7848">
        <ele>1729</ele>
        <time>2022-07-17T06:15:05Z</time>
      </trkpt>
      <trkpt lat="45.96356" lon="6.7847">
        <ele>1727</ele>
        <time>2022-07-17T06:15:21Z</time>
      </trkpt>
      <trkpt lat="45.9636" lon="6.78462">
        <ele>1725</ele>
        <time>2022-07-17T06:15:33Z</time>
      </trkpt>
      <trkpt lat="45.96353" lon="6.78453">
        <ele>1721</ele>
        <time>2022-07-17T06:15:49Z</time>
      </trkpt>
      <trkpt lat="45.96358" lon="6.78449">
        <ele>1719</ele>
        <time>2022-07-17T06:15:59Z</time>
      </trkpt>
      <trkpt lat="45.96353" lon="6.78446">
        <ele>1718</ele>
        <time>2022-07-17T06:16:04Z</time>
      </trkpt>
      <trkpt lat="45.96348" lon="6.78431">
        <ele>1712</ele>
        <time>2022-07-17T06:16:32Z</time>
      </trkpt>
      <trkpt lat="45.96344" lon="6.78425">
        <ele>1708</ele>
        <time>2022-07-17T06:16:47Z</time>
      </trkpt>
      <trkpt lat="45.96339" lon="6.7842">
        <ele>1706</ele>
        <time>2022-07-17T06:16:57Z</time>
      </trkpt>
      <trkpt lat="45.96338" lon="6.78414">
        <ele>1703</ele>
        <time>2022-07-17T06:17:07Z</time>
      </trkpt>
      <trkpt lat="45.96322" lon="6.78386">
        <ele>1697</ele>
        <time>2022-07-17T06:17:37Z</time>
      </trkpt>
      <trkpt lat="45.96317" lon="6.78378">
        <ele>1695</ele>
        <time>2022-07-17T06:17:49Z</time>
      </trkpt>
      <trkpt lat="45.96313" lon="6.78373">
        <ele>1693</ele>
        <time>2022-07-17T06:18:06Z</time>
      </trkpt>
      <trkpt lat="45.96311" lon="6.78367">
        <ele>1691</ele>
        <time>2022-07-17T06:18:16Z</time>
      </trkpt>
      <trkpt lat="45.96306" lon="6.78367">
        <ele>1689</ele>
        <time>2022-07-17T06:18:21Z</time>
      </trkpt>
      <trkpt lat="45.963" lon="6.78366">
        <ele>1688</ele>
        <time>2022-07-17T06:18:29Z</time>
      </trkpt>
      <trkpt lat="45.96296" lon="6.78363">
        <ele>1687</ele>
        <time>2022-07-17T06:18:33Z</time>
      </trkpt>
      <trkpt lat="45.96291" lon="6.78361">
        <ele>1686</ele>
        <time>2022-07-17T06:18:37Z</time>
      </trkpt>
      <trkpt lat="45.96287" lon="6.78355">
        <ele>1685</ele>
        <time>2022-07-17T06:18:44Z</time>
      </trkpt>
      <trkpt lat="45.9628" lon="6.78358">
        <ele>1682</ele>
        <time>2022-07-17T06:19:01Z</time>
      </trkpt>
      <trkpt lat="45.96276" lon="6.78354">
        <ele>1681</ele>
        <time>2022-07-17T06:19:05Z</time>
      </trkpt>
      <trkpt lat="45.96272" lon="6.78354">
        <ele>1680</ele>
        <time>2022-07-17T06:19:09Z</time>
      </trkpt>
      <trkpt lat="45.96263" lon="6.78348">
        <ele>1680</ele>
        <time>2022-07-17T06:19:17Z</time>
      </trkpt>
      <trkpt lat="45.96259" lon="6.78344">
        <ele>1681</ele>
        <time>2022-07-17T06:19:21Z</time>
      </trkpt>
      <trkpt lat="45.96255" lon="6.7834">
        <ele>1680</ele>
        <time>2022-07-17T06:19:25Z</time>
      </trkpt>
      <trkpt lat="45.96252" lon="6.78336">
        <ele>1680</ele>
        <time>2022-07-17T06:19:28Z</time>
      </trkpt>
      <trkpt lat="45.96248" lon="6.78335">
        <ele>1679</ele>
        <time>2022-07-17T06:19:35Z</time>
      </trkpt>
      <trkpt lat="45.96245" lon="6.7833">
        <ele>1678</ele>
        <time>2022-07-17T06:19:39Z</time>
      </trkpt>
      <trkpt lat="45.96241" lon="6.78334">
        <ele>1677</ele>
        <time>2022-07-17T06:19:43Z</time>
      </trkpt>
      <trkpt lat="45.96237" lon="6.78328">
        <ele>1678</ele>
        <time>2022-07-17T06:19:50Z</time>
      </trkpt>
      <trkpt lat="45.96228" lon="6.78317">
        <ele>1676</ele>
        <time>2022-07-17T06:20:04Z</time>
      </trkpt>
      <trkpt lat="45.96219" lon="6.78312">
        <ele>1675</ele>
        <time>2022-07-17T06:20:12Z</time>
      </trkpt>
      <trkpt lat="45.96213" lon="6.78309">
        <ele>1676</ele>
        <time>2022-07-17T06:20:19Z</time>
      </trkpt>
      <trkpt lat="45.96199" lon="6.78306">
        <ele>1674</ele>
        <time>2022-07-17T06:20:37Z</time>
      </trkpt>
      <trkpt lat="45.96194" lon="6.78305">
        <ele>1673</ele>
        <time>2022-07-17T06:20:42Z</time>
      </trkpt>
      <trkpt lat="45.9619" lon="6.783">
        <ele>1671</ele>
        <time>2022-07-17T06:20:49Z</time>
      </trkpt>
      <trkpt lat="45.96184" lon="6.78302">
        <ele>1670</ele>
        <time>2022-07-17T06:20:56Z</time>
      </trkpt>
      <trkpt lat="45.96181" lon="6.78297">
        <ele>1669</ele>
        <time>2022-07-17T06:21:01Z</time>
      </trkpt>
      <trkpt lat="45.96171" lon="6.78289">
        <ele>1667</ele>
        <time>2022-07-17T06:21:20Z</time>
      </trkpt>
      <trkpt lat="45.96161" lon="6.78283">
        <ele>1667</ele>
        <time>2022-07-17T06:21:32Z</time>
      </trkpt>
      <trkpt lat="45.96157" lon="6.7828">
        <ele>1666</ele>
        <time>2022-07-17T06:21:44Z</time>
      </trkpt>
      <trkpt lat="45.96153" lon="6.78278">
        <ele>1663</ele>
        <time>2022-07-17T06:21:55Z</time>
      </trkpt>
      <trkpt lat="45.9615" lon="6.78271">
        <ele>1659</ele>
        <time>2022-07-17T06:22:11Z</time>
      </trkpt>
      <trkpt lat="45.96151" lon="6.78264">
        <ele>1654</ele>
        <time>2022-07-17T06:22:31Z</time>
      </trkpt>
      <trkpt lat="45.9615" lon="6.78257">
        <ele>1651</ele>
        <time>2022-07-17T06:22:41Z</time>
      </trkpt>
      <trkpt lat="45.96153" lon="6.78248">
        <ele>1649</ele>
        <time>2022-07-17T06:22:51Z</time>
      </trkpt>
      <trkpt lat="45.96145" lon="6.78247">
        <ele>1646</ele>
        <time>2022-07-17T06:23:05Z</time>
      </trkpt>
      <trkpt lat="45.9614" lon="6.7825">
        <ele>1645</ele>
        <time>2022-07-17T06:23:10Z</time>
      </trkpt>
      <trkpt lat="45.96137" lon="6.78255">
        <ele>1642</ele>
        <time>2022-07-17T06:23:27Z</time>
      </trkpt>
      <trkpt lat="45.96132" lon="6.78254">
        <ele>1639</ele>
        <time>2022-07-17T06:23:42Z</time>
      </trkpt>
      <trkpt lat="45.96133" lon="6.78245">
        <ele>1635</ele>
        <time>2022-07-17T06:23:59Z</time>
      </trkpt>
      <trkpt lat="45.96128" lon="6.78244">
        <ele>1633</ele>
        <time>2022-07-17T06:24:05Z</time>
      </trkpt>
      <trkpt lat="45.96123" lon="6.78241">
        <ele>1630</ele>
        <time>2022-07-17T06:24:16Z</time>
      </trkpt>
      <trkpt lat="45.96128" lon="6.78237">
        <ele>1628</ele>
        <time>2022-07-17T06:24:26Z</time>
      </trkpt>
      <trkpt lat="45.9613" lon="6.78229">
        <ele>1625</ele>
        <time>2022-07-17T06:24:38Z</time>
      </trkpt>
      <trkpt lat="45.96125" lon="6.78227">
        <ele>1623</ele>
        <time>2022-07-17T06:24:48Z</time>
      </trkpt>
      <trkpt lat="45.96124" lon="6.78211">
        <ele>1615</ele>
        <time>2022-07-17T06:25:23Z</time>
      </trkpt>
      <trkpt lat="45.96125" lon="6.78203">
        <ele>1612</ele>
        <time>2022-07-17T06:25:34Z</time>
      </trkpt>
      <trkpt lat="45.96122" lon="6.78198">
        <ele>1610</ele>
        <time>2022-07-17T06:25:44Z</time>
      </trkpt>
      <trkpt lat="45.96122" lon="6.7819">
        <ele>1606</ele>
        <time>2022-07-17T06:26:02Z</time>
      </trkpt>
      <trkpt lat="45.96121" lon="6.78183">
        <ele>1603</ele>
        <time>2022-07-17T06:26:20Z</time>
      </trkpt>
      <trkpt lat="45.96114" lon="6.78188">
        <ele>1601</ele>
        <time>2022-07-17T06:26:30Z</time>
      </trkpt>
      <trkpt lat="45.9611" lon="6.78188">
        <ele>1598</ele>
        <time>2022-07-17T06:26:40Z</time>
      </trkpt>
      <trkpt lat="45.9611" lon="6.78182">
        <ele>1596</ele>
        <time>2022-07-17T06:26:50Z</time>
      </trkpt>
      <trkpt lat="45.96112" lon="6.78175">
        <ele>1593</ele>
        <time>2022-07-17T06:27:07Z</time>
      </trkpt>
      <trkpt lat="45.9611" lon="6.78169">
        <ele>1590</ele>
        <time>2022-07-17T06:27:22Z</time>
      </trkpt>
      <trkpt lat="45.96111" lon="6.78162">
        <ele>1587</ele>
        <time>2022-07-17T06:27:32Z</time>
      </trkpt>
      <trkpt lat="45.96104" lon="6.78161">
        <ele>1585</ele>
        <time>2022-07-17T06:27:42Z</time>
      </trkpt>
      <trkpt lat="45.961" lon="6.78157">
        <ele>1583</ele>
        <time>2022-07-17T06:27:52Z</time>
      </trkpt>
      <trkpt lat="45.96097" lon="6.78149">
        <ele>1581</ele>
        <time>2022-07-17T06:28:03Z</time>
      </trkpt>
      <trkpt lat="45.96097" lon="6.78143">
        <ele>1578</ele>
        <time>2022-07-17T06:28:15Z</time>
      </trkpt>
      <trkpt lat="45.96102" lon="6.78138">
        <ele>1575</ele>
        <time>2022-07-17T06:28:24Z</time>
      </trkpt>
      <trkpt lat="45.96106" lon="6.78136">
        <ele>1575</ele>
        <time>2022-07-17T06:28:28Z</time>
      </trkpt>
      <trkpt lat="45.96106" lon="6.78119">
        <ele>1570</ele>
        <time>2022-07-17T06:28:52Z</time>
      </trkpt>
      <trkpt lat="45.96094" lon="6.78103">
        <ele>1567</ele>
        <time>2022-07-17T06:29:10Z</time>
      </trkpt>
      <trkpt lat="45.96092" lon="6.78093">
        <ele>1566</ele>
        <time>2022-07-17T06:29:17Z</time>
      </trkpt>
      <trkpt lat="45.96089" lon="6.78088">
        <ele>1566</ele>
        <time>2022-07-17T06:29:21Z</time>
      </trkpt>
      <trkpt lat="45.9609" lon="6.78079">
        <ele>1565</ele>
        <time>2022-07-17T06:29:29Z</time>
      </trkpt>
      <trkpt lat="45.96091" lon="6.78069">
        <ele>1563</ele>
        <time>2022-07-17T06:29:39Z</time>
      </trkpt>
      <trkpt lat="45.96088" lon="6.78064">
        <ele>1563</ele>
        <time>2022-07-17T06:29:50Z</time>
      </trkpt>
      <trkpt lat="45.96091" lon="6.78058">
        <ele>1560</ele>
        <time>2022-07-17T06:30:11Z</time>
      </trkpt>
      <trkpt lat="45.96093" lon="6.78051">
        <ele>1559</ele>
        <time>2022-07-17T06:30:16Z</time>
      </trkpt>
      <trkpt lat="45.96089" lon="6.78044">
        <ele>1559</ele>
        <time>2022-07-17T06:30:28Z</time>
      </trkpt>
      <trkpt lat="45.96087" lon="6.78038">
        <ele>1559</ele>
        <time>2022-07-17T06:30:33Z</time>
      </trkpt>
      <trkpt lat="45.96087" lon="6.78027">
        <ele>1562</ele>
        <time>2022-07-17T06:30:49Z</time>
      </trkpt>
      <trkpt lat="45.96083" lon="6.78025">
        <ele>1563</ele>
        <time>2022-07-17T06:32:44Z</time>
      </trkpt>
      <trkpt lat="45.96086" lon="6.78018">
        <ele>1563</ele>
        <time>2022-07-17T06:32:53Z</time>
      </trkpt>
      <trkpt lat="45.96089" lon="6.78011">
        <ele>1563</ele>
        <time>2022-07-17T06:32:58Z</time>
      </trkpt>
      <trkpt lat="45.96089" lon="6.78005">
        <ele>1564</ele>
        <time>2022-07-17T06:33:03Z</time>
      </trkpt>
      <trkpt lat="45.96086" lon="6.78001">
        <ele>1565</ele>
        <time>2022-07-17T06:33:08Z</time>
      </trkpt>
      <trkpt lat="45.96088" lon="6.77995">
        <ele>1566</ele>
        <time>2022-07-17T06:33:13Z</time>
      </trkpt>
      <trkpt lat="45.96091" lon="6.77988">
        <ele>1566</ele>
        <time>2022-07-17T06:33:17Z</time>
      </trkpt>
      <trkpt lat="45.9609" lon="6.77982">
        <ele>1566</ele>
        <time>2022-07-17T06:33:21Z</time>
      </trkpt>
      <trkpt lat="45.96086" lon="6.77968">
        <ele>1564</ele>
        <time>2022-07-17T06:33:36Z</time>
      </trkpt>
      <trkpt lat="45.96082" lon="6.77965">
        <ele>1565</ele>
        <time>2022-07-17T06:33:40Z</time>
      </trkpt>
      <trkpt lat="45.9608" lon="6.77958">
        <ele>1565</ele>
        <time>2022-07-17T06:33:44Z</time>
      </trkpt>
      <trkpt lat="45.96074" lon="6.77946">
        <ele>1565</ele>
        <time>2022-07-17T06:33:52Z</time>
      </trkpt>
      <trkpt lat="45.96069" lon="6.77943">
        <ele>1565</ele>
        <time>2022-07-17T06:33:57Z</time>
      </trkpt>
      <trkpt lat="45.96057" lon="6.77932">
        <ele>1566</ele>
        <time>2022-07-17T06:34:08Z</time>
      </trkpt>
      <trkpt lat="45.96053" lon="6.77926">
        <ele>1566</ele>
        <time>2022-07-17T06:34:12Z</time>
      </trkpt>
      <trkpt lat="45.96044" lon="6.7792">
        <ele>1567</ele>
        <time>2022-07-17T06:34:20Z</time>
      </trkpt>
      <trkpt lat="45.9603" lon="6.77915">
        <ele>1568</ele>
        <time>2022-07-17T06:34:33Z</time>
      </trkpt>
      <trkpt lat="45.96026" lon="6.77912">
        <ele>1569</ele>
        <time>2022-07-17T06:34:36Z</time>
      </trkpt>
      <trkpt lat="45.96017" lon="6.77898">
        <ele>1569</ele>
        <time>2022-07-17T06:34:48Z</time>
      </trkpt>
      <trkpt lat="45.96009" lon="6.77891">
        <ele>1569</ele>
        <time>2022-07-17T06:34:56Z</time>
      </trkpt>
      <trkpt lat="45.9599" lon="6.77883">
        <ele>1573</ele>
        <time>2022-07-17T06:35:19Z</time>
      </trkpt>
      <trkpt lat="45.95985" lon="6.77886">
        <ele>1574</ele>
        <time>2022-07-17T06:35:23Z</time>
      </trkpt>
      <trkpt lat="45.95981" lon="6.77884">
        <ele>1574</ele>
        <time>2022-07-17T06:35:27Z</time>
      </trkpt>
      <trkpt lat="45.95977" lon="6.7788">
        <ele>1573</ele>
        <time>2022-07-17T06:35:32Z</time>
      </trkpt>
      <trkpt lat="45.95976" lon="6.77881">
        <ele>1571</ele>
        <time>2022-07-17T06:36:23Z</time>
      </trkpt>
      <trkpt lat="45.95971" lon="6.77882">
        <ele>1571</ele>
        <time>2022-07-17T06:37:14Z</time>
      </trkpt>
      <trkpt lat="45.95967" lon="6.7788">
        <ele>1570</ele>
        <time>2022-07-17T06:37:24Z</time>
      </trkpt>
      <trkpt lat="45.95962" lon="6.77876">
        <ele>1570</ele>
        <time>2022-07-17T06:38:04Z</time>
      </trkpt>
      <trkpt lat="45.95939" lon="6.77871">
        <ele>1569</ele>
        <time>2022-07-17T06:38:35Z</time>
      </trkpt>
      <trkpt lat="45.95921" lon="6.7787">
        <ele>1569</ele>
        <time>2022-07-17T06:38:55Z</time>
      </trkpt>
      <trkpt lat="45.95917" lon="6.77868">
        <ele>1569</ele>
        <time>2022-07-17T06:38:58Z</time>
      </trkpt>
      <trkpt lat="45.95912" lon="6.77868">
        <ele>1568</ele>
        <time>2022-07-17T06:39:02Z</time>
      </trkpt>
      <trkpt lat="45.95908" lon="6.77866">
        <ele>1568</ele>
        <time>2022-07-17T06:39:06Z</time>
      </trkpt>
      <trkpt lat="45.95904" lon="6.77863">
        <ele>1567</ele>
        <time>2022-07-17T06:39:09Z</time>
      </trkpt>
      <trkpt lat="45.95894" lon="6.77859">
        <ele>1566</ele>
        <time>2022-07-17T06:39:16Z</time>
      </trkpt>
      <trkpt lat="45.95891" lon="6.77856">
        <ele>1566</ele>
        <time>2022-07-17T06:39:20Z</time>
      </trkpt>
      <trkpt lat="45.95889" lon="6.7785">
        <ele>1565</ele>
        <time>2022-07-17T06:39:24Z</time>
      </trkpt>
      <trkpt lat="45.9589" lon="6.77842">
        <ele>1564</ele>
        <time>2022-07-17T06:39:28Z</time>
      </trkpt>
      <trkpt lat="45.95897" lon="6.77823">
        <ele>1560</ele>
        <time>2022-07-17T06:39:41Z</time>
      </trkpt>
      <trkpt lat="45.95899" lon="6.77817">
        <ele>1559</ele>
        <time>2022-07-17T06:39:45Z</time>
      </trkpt>
      <trkpt lat="45.95899" lon="6.7781">
        <ele>1558</ele>
        <time>2022-07-17T06:39:49Z</time>
      </trkpt>
      <trkpt lat="45.95895" lon="6.77805">
        <ele>1557</ele>
        <time>2022-07-17T06:39:52Z</time>
      </trkpt>
      <trkpt lat="45.95891" lon="6.77802">
        <ele>1557</ele>
        <time>2022-07-17T06:39:56Z</time>
      </trkpt>
      <trkpt lat="45.95882" lon="6.77798">
        <ele>1556</ele>
        <time>2022-07-17T06:40:03Z</time>
      </trkpt>
      <trkpt lat="45.95879" lon="6.77793">
        <ele>1555</ele>
        <time>2022-07-17T06:40:06Z</time>
      </trkpt>
      <trkpt lat="45.95871" lon="6.77776">
        <ele>1554</ele>
        <time>2022-07-17T06:40:15Z</time>
      </trkpt>
      <trkpt lat="45.9586" lon="6.77764">
        <ele>1552</ele>
        <time>2022-07-17T06:40:25Z</time>
      </trkpt>
      <trkpt lat="45.95857" lon="6.77757">
        <ele>1552</ele>
        <time>2022-07-17T06:40:29Z</time>
      </trkpt>
      <trkpt lat="45.95856" lon="6.77744">
        <ele>1551</ele>
        <time>2022-07-17T06:40:36Z</time>
      </trkpt>
      <trkpt lat="45.95856" lon="6.77737">
        <ele>1550</ele>
        <time>2022-07-17T06:40:40Z</time>
      </trkpt>
      <trkpt lat="45.95858" lon="6.7773">
        <ele>1549</ele>
        <time>2022-07-17T06:40:44Z</time>
      </trkpt>
      <trkpt lat="45.95855" lon="6.77725">
        <ele>1548</ele>
        <time>2022-07-17T06:40:48Z</time>
      </trkpt>
      <trkpt lat="45.95848" lon="6.77721">
        <ele>1546</ele>
        <time>2022-07-17T06:40:55Z</time>
      </trkpt>
      <trkpt lat="45.95843" lon="6.77719">
        <ele>1543</ele>
        <time>2022-07-17T06:41:00Z</time>
      </trkpt>
      <trkpt lat="45.95839" lon="6.77704">
        <ele>1539</ele>
        <time>2022-07-17T06:41:13Z</time>
      </trkpt>
      <trkpt lat="45.95832" lon="6.77698">
        <ele>1536</ele>
        <time>2022-07-17T06:41:20Z</time>
      </trkpt>
      <trkpt lat="45.95828" lon="6.77694">
        <ele>1535</ele>
        <time>2022-07-17T06:41:24Z</time>
      </trkpt>
      <trkpt lat="45.95822" lon="6.77697">
        <ele>1533</ele>
        <time>2022-07-17T06:41:31Z</time>
      </trkpt>
      <trkpt lat="45.95821" lon="6.77691">
        <ele>1531</ele>
        <time>2022-07-17T06:41:40Z</time>
      </trkpt>
      <trkpt lat="45.9582" lon="6.77693">
        <ele>1532</ele>
        <time>2022-07-17T06:43:03Z</time>
      </trkpt>
      <trkpt lat="45.95814" lon="6.77696">
        <ele>1531</ele>
        <time>2022-07-17T06:43:23Z</time>
      </trkpt>
      <trkpt lat="45.95808" lon="6.77692">
        <ele>1530</ele>
        <time>2022-07-17T06:43:33Z</time>
      </trkpt>
      <trkpt lat="45.95804" lon="6.77687">
        <ele>1529</ele>
        <time>2022-07-17T06:43:38Z</time>
      </trkpt>
      <trkpt lat="45.95802" lon="6.77681">
        <ele>1528</ele>
        <time>2022-07-17T06:43:45Z</time>
      </trkpt>
      <trkpt lat="45.95801" lon="6.7767">
        <ele>1527</ele>
        <time>2022-07-17T06:43:55Z</time>
      </trkpt>
      <trkpt lat="45.95805" lon="6.77658">
        <ele>1525</ele>
        <time>2022-07-17T06:44:07Z</time>
      </trkpt>
      <trkpt lat="45.95803" lon="6.77652">
        <ele>1524</ele>
        <time>2022-07-17T06:44:15Z</time>
      </trkpt>
      <trkpt lat="45.95793" lon="6.77647">
        <ele>1522</ele>
        <time>2022-07-17T06:44:25Z</time>
      </trkpt>
      <trkpt lat="45.95787" lon="6.77641">
        <ele>1520</ele>
        <time>2022-07-17T06:44:35Z</time>
      </trkpt>
      <trkpt lat="45.95782" lon="6.77621">
        <ele>1517</ele>
        <time>2022-07-17T06:44:52Z</time>
      </trkpt>
      <trkpt lat="45.95783" lon="6.77608">
        <ele>1516</ele>
        <time>2022-07-17T06:45:00Z</time>
      </trkpt>
      <trkpt lat="45.95791" lon="6.77589">
        <ele>1515</ele>
        <time>2022-07-17T06:45:15Z</time>
      </trkpt>
      <trkpt lat="45.95795" lon="6.77572">
        <ele>1514</ele>
        <time>2022-07-17T06:45:24Z</time>
      </trkpt>
      <trkpt lat="45.95794" lon="6.77557">
        <ele>1514</ele>
        <time>2022-07-17T06:45:34Z</time>
      </trkpt>
      <trkpt lat="45.95793" lon="6.7755">
        <ele>1514</ele>
        <time>2022-07-17T06:45:38Z</time>
      </trkpt>
      <trkpt lat="45.95793" lon="6.7754">
        <ele>1513</ele>
        <time>2022-07-17T06:45:45Z</time>
      </trkpt>
      <trkpt lat="45.95794" lon="6.77534">
        <ele>1513</ele>
        <time>2022-07-17T06:45:49Z</time>
      </trkpt>
      <trkpt lat="45.95795" lon="6.7752">
        <ele>1512</ele>
        <time>2022-07-17T06:45:59Z</time>
      </trkpt>
      <trkpt lat="45.95791" lon="6.77509">
        <ele>1512</ele>
        <time>2022-07-17T06:46:06Z</time>
      </trkpt>
      <trkpt lat="45.9578" lon="6.77496">
        <ele>1510</ele>
        <time>2022-07-17T06:46:19Z</time>
      </trkpt>
      <trkpt lat="45.95775" lon="6.77482">
        <ele>1510</ele>
        <time>2022-07-17T06:46:28Z</time>
      </trkpt>
      <trkpt lat="45.95771" lon="6.77466">
        <ele>1509</ele>
        <time>2022-07-17T06:46:39Z</time>
      </trkpt>
      <trkpt lat="45.95756" lon="6.7744">
        <ele>1507</ele>
        <time>2022-07-17T06:47:00Z</time>
      </trkpt>
      <trkpt lat="45.95752" lon="6.77436">
        <ele>1507</ele>
        <time>2022-07-17T06:47:04Z</time>
      </trkpt>
      <trkpt lat="45.95743" lon="6.77431">
        <ele>1506</ele>
        <time>2022-07-17T06:47:12Z</time>
      </trkpt>
      <trkpt lat="45.95739" lon="6.77428">
        <ele>1507</ele>
        <time>2022-07-17T06:47:17Z</time>
      </trkpt>
      <trkpt lat="45.95728" lon="6.77416">
        <ele>1504</ele>
        <time>2022-07-17T06:47:32Z</time>
      </trkpt>
      <trkpt lat="45.95724" lon="6.77414">
        <ele>1503</ele>
        <time>2022-07-17T06:47:37Z</time>
      </trkpt>
      <trkpt lat="45.95711" lon="6.77414">
        <ele>1501</ele>
        <time>2022-07-17T06:47:49Z</time>
      </trkpt>
      <trkpt lat="45.95704" lon="6.7742">
        <ele>1500</ele>
        <time>2022-07-17T06:47:57Z</time>
      </trkpt>
      <trkpt lat="45.957" lon="6.77422">
        <ele>1499</ele>
        <time>2022-07-17T06:48:01Z</time>
      </trkpt>
      <trkpt lat="45.95694" lon="6.77425">
        <ele>1498</ele>
        <time>2022-07-17T06:48:09Z</time>
      </trkpt>
      <trkpt lat="45.95689" lon="6.77422">
        <ele>1497</ele>
        <time>2022-07-17T06:48:13Z</time>
      </trkpt>
      <trkpt lat="45.95671" lon="6.77405">
        <ele>1494</ele>
        <time>2022-07-17T06:48:34Z</time>
      </trkpt>
      <trkpt lat="45.95659" lon="6.77403">
        <ele>1492</ele>
        <time>2022-07-17T06:48:47Z</time>
      </trkpt>
      <trkpt lat="45.95648" lon="6.77396">
        <ele>1490</ele>
        <time>2022-07-17T06:49:00Z</time>
      </trkpt>
      <trkpt lat="45.95643" lon="6.77387">
        <ele>1488</ele>
        <time>2022-07-17T06:49:07Z</time>
      </trkpt>
      <trkpt lat="45.95642" lon="6.77362">
        <ele>1484</ele>
        <time>2022-07-17T06:49:27Z</time>
      </trkpt>
      <trkpt lat="45.95642" lon="6.77353">
        <ele>1483</ele>
        <time>2022-07-17T06:49:34Z</time>
      </trkpt>
      <trkpt lat="45.9564" lon="6.77337">
        <ele>1481</ele>
        <time>2022-07-17T06:49:45Z</time>
      </trkpt>
      <trkpt lat="45.95626" lon="6.77296">
        <ele>1476</ele>
        <time>2022-07-17T06:50:17Z</time>
      </trkpt>
      <trkpt lat="45.95623" lon="6.77273">
        <ele>1473</ele>
        <time>2022-07-17T06:50:31Z</time>
      </trkpt>
      <trkpt lat="45.95623" lon="6.77261">
        <ele>1472</ele>
        <time>2022-07-17T06:50:40Z</time>
      </trkpt>
      <trkpt lat="45.95622" lon="6.77254">
        <ele>1472</ele>
        <time>2022-07-17T06:50:44Z</time>
      </trkpt>
      <trkpt lat="45.95622" lon="6.77227">
        <ele>1471</ele>
        <time>2022-07-17T06:51:00Z</time>
      </trkpt>
      <trkpt lat="45.95621" lon="6.7722">
        <ele>1471</ele>
        <time>2022-07-17T06:51:04Z</time>
      </trkpt>
      <trkpt lat="45.95613" lon="6.77207">
        <ele>1469</ele>
        <time>2022-07-17T06:51:17Z</time>
      </trkpt>
      <trkpt lat="45.95611" lon="6.772">
        <ele>1469</ele>
        <time>2022-07-17T06:51:22Z</time>
      </trkpt>
      <trkpt lat="45.9561" lon="6.77191">
        <ele>1468</ele>
        <time>2022-07-17T06:51:29Z</time>
      </trkpt>
      <trkpt lat="45.95608" lon="6.77185">
        <ele>1468</ele>
        <time>2022-07-17T06:51:32Z</time>
      </trkpt>
      <trkpt lat="45.95606" lon="6.77177">
        <ele>1467</ele>
        <time>2022-07-17T06:51:39Z</time>
      </trkpt>
      <trkpt lat="45.95603" lon="6.77166">
        <ele>1467</ele>
        <time>2022-07-17T06:51:48Z</time>
      </trkpt>
      <trkpt lat="45.956" lon="6.77151">
        <ele>1465</ele>
        <time>2022-07-17T06:52:01Z</time>
      </trkpt>
      <trkpt lat="45.95595" lon="6.77148">
        <ele>1464</ele>
        <time>2022-07-17T06:52:05Z</time>
      </trkpt>
      <trkpt lat="45.95588" lon="6.77146">
        <ele>1463</ele>
        <time>2022-07-17T06:52:13Z</time>
      </trkpt>
      <trkpt lat="45.9558" lon="6.77136">
        <ele>1462</ele>
        <time>2022-07-17T06:52:25Z</time>
      </trkpt>
      <trkpt lat="45.9557" lon="6.77131">
        <ele>1461</ele>
        <time>2022-07-17T06:52:37Z</time>
      </trkpt>
      <trkpt lat="45.95565" lon="6.77125">
        <ele>1461</ele>
        <time>2022-07-17T06:52:43Z</time>
      </trkpt>
      <trkpt lat="45.95563" lon="6.77118">
        <ele>1460</ele>
        <time>2022-07-17T06:52:50Z</time>
      </trkpt>
      <trkpt lat="45.95553" lon="6.77104">
        <ele>1458</ele>
        <time>2022-07-17T06:53:13Z</time>
      </trkpt>
      <trkpt lat="45.95543" lon="6.77098">
        <ele>1456</ele>
        <time>2022-07-17T06:53:31Z</time>
      </trkpt>
      <trkpt lat="45.95537" lon="6.77088">
        <ele>1453</ele>
        <time>2022-07-17T06:53:46Z</time>
      </trkpt>
      <trkpt lat="45.95534" lon="6.77075">
        <ele>1452</ele>
        <time>2022-07-17T06:54:01Z</time>
      </trkpt>
      <trkpt lat="45.95531" lon="6.77068">
        <ele>1450</ele>
        <time>2022-07-17T06:54:11Z</time>
      </trkpt>
      <trkpt lat="45.95528" lon="6.77064">
        <ele>1449</ele>
        <time>2022-07-17T06:54:17Z</time>
      </trkpt>
      <trkpt lat="45.95522" lon="6.77055">
        <ele>1447</ele>
        <time>2022-07-17T06:54:26Z</time>
      </trkpt>
      <trkpt lat="45.95519" lon="6.77041">
        <ele>1445</ele>
        <time>2022-07-17T06:54:34Z</time>
      </trkpt>
      <trkpt lat="45.95516" lon="6.77036">
        <ele>1445</ele>
        <time>2022-07-17T06:54:37Z</time>
      </trkpt>
      <trkpt lat="45.95502" lon="6.77026">
        <ele>1442</ele>
        <time>2022-07-17T06:54:48Z</time>
      </trkpt>
      <trkpt lat="45.95491" lon="6.77025">
        <ele>1441</ele>
        <time>2022-07-17T06:54:55Z</time>
      </trkpt>
      <trkpt lat="45.95478" lon="6.77018">
        <ele>1439</ele>
        <time>2022-07-17T06:55:03Z</time>
      </trkpt>
      <trkpt lat="45.95472" lon="6.77014">
        <ele>1438</ele>
        <time>2022-07-17T06:55:11Z</time>
      </trkpt>
      <trkpt lat="45.95457" lon="6.77014">
        <ele>1435</ele>
        <time>2022-07-17T06:55:23Z</time>
      </trkpt>
      <trkpt lat="45.95453" lon="6.77011">
        <ele>1434</ele>
        <time>2022-07-17T06:55:26Z</time>
      </trkpt>
      <trkpt lat="45.95439" lon="6.77012">
        <ele>1433</ele>
        <time>2022-07-17T06:55:35Z</time>
      </trkpt>
      <trkpt lat="45.95435" lon="6.77014">
        <ele>1432</ele>
        <time>2022-07-17T06:55:40Z</time>
      </trkpt>
      <trkpt lat="45.95431" lon="6.77011">
        <ele>1432</ele>
        <time>2022-07-17T06:55:44Z</time>
      </trkpt>
      <trkpt lat="45.95427" lon="6.77006">
        <ele>1432</ele>
        <time>2022-07-17T06:55:47Z</time>
      </trkpt>
      <trkpt lat="45.95417" lon="6.77001">
        <ele>1431</ele>
        <time>2022-07-17T06:55:57Z</time>
      </trkpt>
      <trkpt lat="45.95401" lon="6.77">
        <ele>1428</ele>
        <time>2022-07-17T06:56:11Z</time>
      </trkpt>
      <trkpt lat="45.95396" lon="6.77001">
        <ele>1427</ele>
        <time>2022-07-17T06:56:16Z</time>
      </trkpt>
      <trkpt lat="45.95394" lon="6.76993">
        <ele>1426</ele>
        <time>2022-07-17T06:56:21Z</time>
      </trkpt>
      <trkpt lat="45.95395" lon="6.76985">
        <ele>1424</ele>
        <time>2022-07-17T06:56:28Z</time>
      </trkpt>
      <trkpt lat="45.95393" lon="6.76977">
        <ele>1423</ele>
        <time>2022-07-17T06:56:34Z</time>
      </trkpt>
      <trkpt lat="45.95388" lon="6.76966">
        <ele>1422</ele>
        <time>2022-07-17T06:56:42Z</time>
      </trkpt>
      <trkpt lat="45.95386" lon="6.76959">
        <ele>1422</ele>
        <time>2022-07-17T06:56:46Z</time>
      </trkpt>
      <trkpt lat="45.95385" lon="6.76953">
        <ele>1421</ele>
        <time>2022-07-17T06:56:50Z</time>
      </trkpt>
      <trkpt lat="45.95384" lon="6.76946">
        <ele>1421</ele>
        <time>2022-07-17T06:56:55Z</time>
      </trkpt>
      <trkpt lat="45.95379" lon="6.76941">
        <ele>1421</ele>
        <time>2022-07-17T06:56:59Z</time>
      </trkpt>
      <trkpt lat="45.95377" lon="6.76935">
        <ele>1421</ele>
        <time>2022-07-17T06:57:03Z</time>
      </trkpt>
      <trkpt lat="45.95376" lon="6.76927">
        <ele>1421</ele>
        <time>2022-07-17T06:57:07Z</time>
      </trkpt>
      <trkpt lat="45.95376" lon="6.76912">
        <ele>1421</ele>
        <time>2022-07-17T06:57:15Z</time>
      </trkpt>
      <trkpt lat="45.95374" lon="6.76907">
        <ele>1420</ele>
        <time>2022-07-17T06:57:19Z</time>
      </trkpt>
      <trkpt lat="45.95375" lon="6.76892">
        <ele>1419</ele>
        <time>2022-07-17T06:57:28Z</time>
      </trkpt>
      <trkpt lat="45.95371" lon="6.76879">
        <ele>1418</ele>
        <time>2022-07-17T06:57:37Z</time>
      </trkpt>
      <trkpt lat="45.95369" lon="6.76873">
        <ele>1417</ele>
        <time>2022-07-17T06:57:41Z</time>
      </trkpt>
      <trkpt lat="45.95364" lon="6.76864">
        <ele>1417</ele>
        <time>2022-07-17T06:57:48Z</time>
      </trkpt>
      <trkpt lat="45.95359" lon="6.76849">
        <ele>1416</ele>
        <time>2022-07-17T06:57:59Z</time>
      </trkpt>
      <trkpt lat="45.95358" lon="6.76826">
        <ele>1415</ele>
        <time>2022-07-17T06:58:12Z</time>
      </trkpt>
      <trkpt lat="45.95358" lon="6.76819">
        <ele>1415</ele>
        <time>2022-07-17T06:58:16Z</time>
      </trkpt>
      <trkpt lat="45.95354" lon="6.76815">
        <ele>1414</ele>
        <time>2022-07-17T06:58:20Z</time>
      </trkpt>
      <trkpt lat="45.95352" lon="6.76809">
        <ele>1414</ele>
        <time>2022-07-17T06:58:24Z</time>
      </trkpt>
      <trkpt lat="45.95348" lon="6.76796">
        <ele>1413</ele>
        <time>2022-07-17T06:58:32Z</time>
      </trkpt>
      <trkpt lat="45.95344" lon="6.7679">
        <ele>1412</ele>
        <time>2022-07-17T06:58:36Z</time>
      </trkpt>
      <trkpt lat="45.95341" lon="6.76787">
        <ele>1412</ele>
        <time>2022-07-17T06:58:39Z</time>
      </trkpt>
      <trkpt lat="45.9533" lon="6.76765">
        <ele>1411</ele>
        <time>2022-07-17T06:58:56Z</time>
      </trkpt>
      <trkpt lat="45.95319" lon="6.76729">
        <ele>1411</ele>
        <time>2022-07-17T06:59:19Z</time>
      </trkpt>
      <trkpt lat="45.95306" lon="6.76708">
        <ele>1411</ele>
        <time>2022-07-17T06:59:34Z</time>
      </trkpt>
      <trkpt lat="45.95302" lon="6.76704">
        <ele>1411</ele>
        <time>2022-07-17T06:59:38Z</time>
      </trkpt>
      <trkpt lat="45.95298" lon="6.76702">
        <ele>1411</ele>
        <time>2022-07-17T06:59:41Z</time>
      </trkpt>
      <trkpt lat="45.95289" lon="6.76694">
        <ele>1412</ele>
        <time>2022-07-17T06:59:49Z</time>
      </trkpt>
      <trkpt lat="45.95276" lon="6.76677">
        <ele>1412</ele>
        <time>2022-07-17T07:00:04Z</time>
      </trkpt>
      <trkpt lat="45.95271" lon="6.76667">
        <ele>1414</ele>
        <time>2022-07-17T07:00:15Z</time>
      </trkpt>
      <trkpt lat="45.95266" lon="6.76654">
        <ele>1414</ele>
        <time>2022-07-17T07:00:23Z</time>
      </trkpt>
      <trkpt lat="45.95263" lon="6.7665">
        <ele>1414</ele>
        <time>2022-07-17T07:00:27Z</time>
      </trkpt>
      <trkpt lat="45.95256" lon="6.76642">
        <ele>1415</ele>
        <time>2022-07-17T07:00:34Z</time>
      </trkpt>
      <trkpt lat="45.95247" lon="6.76617">
        <ele>1415</ele>
        <time>2022-07-17T07:00:50Z</time>
      </trkpt>
      <trkpt lat="45.95244" lon="6.76613">
        <ele>1415</ele>
        <time>2022-07-17T07:00:53Z</time>
      </trkpt>
      <trkpt lat="45.95242" lon="6.76607">
        <ele>1415</ele>
        <time>2022-07-17T07:00:56Z</time>
      </trkpt>
      <trkpt lat="45.95234" lon="6.76595">
        <ele>1415</ele>
        <time>2022-07-17T07:01:07Z</time>
      </trkpt>
      <trkpt lat="45.9523" lon="6.76592">
        <ele>1416</ele>
        <time>2022-07-17T07:01:11Z</time>
      </trkpt>
      <trkpt lat="45.9522" lon="6.76577">
        <ele>1417</ele>
        <time>2022-07-17T07:01:24Z</time>
      </trkpt>
      <trkpt lat="45.95211" lon="6.7656">
        <ele>1418</ele>
        <time>2022-07-17T07:01:37Z</time>
      </trkpt>
      <trkpt lat="45.9521" lon="6.76553">
        <ele>1419</ele>
        <time>2022-07-17T07:01:42Z</time>
      </trkpt>
      <trkpt lat="45.95202" lon="6.76537">
        <ele>1420</ele>
        <time>2022-07-17T07:01:54Z</time>
      </trkpt>
      <trkpt lat="45.95194" lon="6.76528">
        <ele>1420</ele>
        <time>2022-07-17T07:02:04Z</time>
      </trkpt>
      <trkpt lat="45.95192" lon="6.76521">
        <ele>1421</ele>
        <time>2022-07-17T07:02:08Z</time>
      </trkpt>
      <trkpt lat="45.95187" lon="6.76511">
        <ele>1421</ele>
        <time>2022-07-17T07:02:15Z</time>
      </trkpt>
      <trkpt lat="45.95185" lon="6.76501">
        <ele>1421</ele>
        <time>2022-07-17T07:02:20Z</time>
      </trkpt>
      <trkpt lat="45.95178" lon="6.76491">
        <ele>1421</ele>
        <time>2022-07-17T07:02:29Z</time>
      </trkpt>
      <trkpt lat="45.95176" lon="6.76484">
        <ele>1421</ele>
        <time>2022-07-17T07:02:33Z</time>
      </trkpt>
      <trkpt lat="45.95173" lon="6.76479">
        <ele>1421</ele>
        <time>2022-07-17T07:02:38Z</time>
      </trkpt>
      <trkpt lat="45.95169" lon="6.76474">
        <ele>1421</ele>
        <time>2022-07-17T07:02:43Z</time>
      </trkpt>
      <trkpt lat="45.95164" lon="6.76472">
        <ele>1422</ele>
        <time>2022-07-17T07:02:47Z</time>
      </trkpt>
      <trkpt lat="45.9516" lon="6.76467">
        <ele>1422</ele>
        <time>2022-07-17T07:02:52Z</time>
      </trkpt>
      <trkpt lat="45.95156" lon="6.7646">
        <ele>1422</ele>
        <time>2022-07-17T07:02:55Z</time>
      </trkpt>
      <trkpt lat="45.95153" lon="6.76446">
        <ele>1422</ele>
        <time>2022-07-17T07:03:04Z</time>
      </trkpt>
      <trkpt lat="45.9515" lon="6.76441">
        <ele>1422</ele>
        <time>2022-07-17T07:03:08Z</time>
      </trkpt>
      <trkpt lat="45.95148" lon="6.76433">
        <ele>1422</ele>
        <time>2022-07-17T07:03:13Z</time>
      </trkpt>
      <trkpt lat="45.95144" lon="6.76428">
        <ele>1422</ele>
        <time>2022-07-17T07:03:16Z</time>
      </trkpt>
      <trkpt lat="45.9514" lon="6.76405">
        <ele>1421</ele>
        <time>2022-07-17T07:03:32Z</time>
      </trkpt>
      <trkpt lat="45.95134" lon="6.76395">
        <ele>1420</ele>
        <time>2022-07-17T07:03:39Z</time>
      </trkpt>
      <trkpt lat="45.95131" lon="6.76384">
        <ele>1420</ele>
        <time>2022-07-17T07:03:48Z</time>
      </trkpt>
      <trkpt lat="45.95127" lon="6.76377">
        <ele>1420</ele>
        <time>2022-07-17T07:03:52Z</time>
      </trkpt>
      <trkpt lat="45.95124" lon="6.76362">
        <ele>1420</ele>
        <time>2022-07-17T07:04:01Z</time>
      </trkpt>
      <trkpt lat="45.95121" lon="6.76356">
        <ele>1419</ele>
        <time>2022-07-17T07:04:07Z</time>
      </trkpt>
      <trkpt lat="45.95112" lon="6.76349">
        <ele>1418</ele>
        <time>2022-07-17T07:04:15Z</time>
      </trkpt>
      <trkpt lat="45.95109" lon="6.76344">
        <ele>1417</ele>
        <time>2022-07-17T07:04:19Z</time>
      </trkpt>
      <trkpt lat="45.95105" lon="6.7634">
        <ele>1417</ele>
        <time>2022-07-17T07:04:23Z</time>
      </trkpt>
      <trkpt lat="45.95101" lon="6.76331">
        <ele>1416</ele>
        <time>2022-07-17T07:04:31Z</time>
      </trkpt>
      <trkpt lat="45.95097" lon="6.76326">
        <ele>1415</ele>
        <time>2022-07-17T07:04:34Z</time>
      </trkpt>
      <trkpt lat="45.95094" lon="6.7632">
        <ele>1415</ele>
        <time>2022-07-17T07:04:39Z</time>
      </trkpt>
      <trkpt lat="45.95091" lon="6.76313">
        <ele>1414</ele>
        <time>2022-07-17T07:04:57Z</time>
      </trkpt>
      <trkpt lat="45.95086" lon="6.76291">
        <ele>1410</ele>
        <time>2022-07-17T07:05:18Z</time>
      </trkpt>
      <trkpt lat="45.95087" lon="6.76283">
        <ele>1408</ele>
        <time>2022-07-17T07:05:24Z</time>
      </trkpt>
      <trkpt lat="45.95073" lon="6.76247">
        <ele>1402</ele>
        <time>2022-07-17T07:05:53Z</time>
      </trkpt>
      <trkpt lat="45.95071" lon="6.76238">
        <ele>1402</ele>
        <time>2022-07-17T07:05:59Z</time>
      </trkpt>
      <trkpt lat="45.95066" lon="6.76228">
        <ele>1401</ele>
        <time>2022-07-17T07:06:06Z</time>
      </trkpt>
      <trkpt lat="45.95057" lon="6.76216">
        <ele>1399</ele>
        <time>2022-07-17T07:06:18Z</time>
      </trkpt>
      <trkpt lat="45.95049" lon="6.76211">
        <ele>1398</ele>
        <time>2022-07-17T07:06:23Z</time>
      </trkpt>
      <trkpt lat="45.95043" lon="6.76215">
        <ele>1396</ele>
        <time>2022-07-17T07:06:31Z</time>
      </trkpt>
      <trkpt lat="45.95036" lon="6.7623">
        <ele>1393</ele>
        <time>2022-07-17T07:06:48Z</time>
      </trkpt>
      <trkpt lat="45.95033" lon="6.76239">
        <ele>1392</ele>
        <time>2022-07-17T07:06:52Z</time>
      </trkpt>
      <trkpt lat="45.95035" lon="6.76248">
        <ele>1392</ele>
        <time>2022-07-17T07:06:56Z</time>
      </trkpt>
      <trkpt lat="45.95028" lon="6.76253">
        <ele>1391</ele>
        <time>2022-07-17T07:07:01Z</time>
      </trkpt>
      <trkpt lat="45.9503" lon="6.76263">
        <ele>1388</ele>
        <time>2022-07-17T07:07:13Z</time>
      </trkpt>
      <trkpt lat="45.95031" lon="6.76241">
        <ele>1383</ele>
        <time>2022-07-17T07:07:43Z</time>
      </trkpt>
      <trkpt lat="45.95026" lon="6.76231">
        <ele>1383</ele>
        <time>2022-07-17T07:07:49Z</time>
      </trkpt>
      <trkpt lat="45.95018" lon="6.76226">
        <ele>1382</ele>
        <time>2022-07-17T07:07:54Z</time>
      </trkpt>
      <trkpt lat="45.94991" lon="6.7619">
        <ele>1375</ele>
        <time>2022-07-17T07:08:30Z</time>
      </trkpt>
      <trkpt lat="45.94984" lon="6.76188">
        <ele>1374</ele>
        <time>2022-07-17T07:08:37Z</time>
      </trkpt>
      <trkpt lat="45.94981" lon="6.76195">
        <ele>1374</ele>
        <time>2022-07-17T07:08:40Z</time>
      </trkpt>
      <trkpt lat="45.94975" lon="6.76196">
        <ele>1373</ele>
        <time>2022-07-17T07:08:49Z</time>
      </trkpt>
      <trkpt lat="45.9497" lon="6.76196">
        <ele>1370</ele>
        <time>2022-07-17T07:09:01Z</time>
      </trkpt>
      <trkpt lat="45.9496" lon="6.7618">
        <ele>1368</ele>
        <time>2022-07-17T07:09:16Z</time>
      </trkpt>
      <trkpt lat="45.94959" lon="6.76168">
        <ele>1366</ele>
        <time>2022-07-17T07:09:27Z</time>
      </trkpt>
      <trkpt lat="45.94956" lon="6.76163">
        <ele>1365</ele>
        <time>2022-07-17T07:09:30Z</time>
      </trkpt>
      <trkpt lat="45.94955" lon="6.76156">
        <ele>1365</ele>
        <time>2022-07-17T07:09:34Z</time>
      </trkpt>
      <trkpt lat="45.94955" lon="6.76148">
        <ele>1364</ele>
        <time>2022-07-17T07:09:39Z</time>
      </trkpt>
      <trkpt lat="45.94951" lon="6.76141">
        <ele>1363</ele>
        <time>2022-07-17T07:09:46Z</time>
      </trkpt>
      <trkpt lat="45.9495" lon="6.76134">
        <ele>1362</ele>
        <time>2022-07-17T07:09:51Z</time>
      </trkpt>
      <trkpt lat="45.94953" lon="6.76122">
        <ele>1360</ele>
        <time>2022-07-17T07:10:01Z</time>
      </trkpt>
      <trkpt lat="45.94952" lon="6.76106">
        <ele>1357</ele>
        <time>2022-07-17T07:10:14Z</time>
      </trkpt>
      <trkpt lat="45.94945" lon="6.76096">
        <ele>1357</ele>
        <time>2022-07-17T07:10:21Z</time>
      </trkpt>
      <trkpt lat="45.94942" lon="6.76088">
        <ele>1356</ele>
        <time>2022-07-17T07:10:26Z</time>
      </trkpt>
      <trkpt lat="45.94946" lon="6.76082">
        <ele>1355</ele>
        <time>2022-07-17T07:10:31Z</time>
      </trkpt>
      <trkpt lat="45.94958" lon="6.76067">
        <ele>1352</ele>
        <time>2022-07-17T07:10:52Z</time>
      </trkpt>
      <trkpt lat="45.94963" lon="6.76066">
        <ele>1351</ele>
        <time>2022-07-17T07:10:57Z</time>
      </trkpt>
      <trkpt lat="45.94965" lon="6.76057">
        <ele>1350</ele>
        <time>2022-07-17T07:11:02Z</time>
      </trkpt>
      <trkpt lat="45.94966" lon="6.76048">
        <ele>1349</ele>
        <time>2022-07-17T07:11:06Z</time>
      </trkpt>
      <trkpt lat="45.94968" lon="6.76042">
        <ele>1348</ele>
        <time>2022-07-17T07:11:11Z</time>
      </trkpt>
      <trkpt lat="45.94969" lon="6.76032">
        <ele>1346</ele>
        <time>2022-07-17T07:11:20Z</time>
      </trkpt>
      <trkpt lat="45.94966" lon="6.76027">
        <ele>1345</ele>
        <time>2022-07-17T07:11:23Z</time>
      </trkpt>
      <trkpt lat="45.94962" lon="6.76024">
        <ele>1345</ele>
        <time>2022-07-17T07:11:27Z</time>
      </trkpt>
      <trkpt lat="45.94946" lon="6.76024">
        <ele>1342</ele>
        <time>2022-07-17T07:11:42Z</time>
      </trkpt>
      <trkpt lat="45.94941" lon="6.76019">
        <ele>1340</ele>
        <time>2022-07-17T07:11:51Z</time>
      </trkpt>
      <trkpt lat="45.94937" lon="6.76015">
        <ele>1338</ele>
        <time>2022-07-17T07:11:59Z</time>
      </trkpt>
      <trkpt lat="45.94932" lon="6.76006">
        <ele>1337</ele>
        <time>2022-07-17T07:12:11Z</time>
      </trkpt>
      <trkpt lat="45.94931" lon="6.76">
        <ele>1336</ele>
        <time>2022-07-17T07:12:16Z</time>
      </trkpt>
      <trkpt lat="45.94927" lon="6.75997">
        <ele>1335</ele>
        <time>2022-07-17T07:12:19Z</time>
      </trkpt>
      <trkpt lat="45.94944" lon="6.75995">
        <ele>1330</ele>
        <time>2022-07-17T07:12:47Z</time>
      </trkpt>
      <trkpt lat="45.94952" lon="6.75988">
        <ele>1328</ele>
        <time>2022-07-17T07:12:59Z</time>
      </trkpt>
      <trkpt lat="45.94965" lon="6.75986">
        <ele>1328</ele>
        <time>2022-07-17T07:13:06Z</time>
      </trkpt>
      <trkpt lat="45.94968" lon="6.75979">
        <ele>1327</ele>
        <time>2022-07-17T07:13:09Z</time>
      </trkpt>
      <trkpt lat="45.94971" lon="6.75973">
        <ele>1327</ele>
        <time>2022-07-17T07:13:12Z</time>
      </trkpt>
      <trkpt lat="45.94973" lon="6.75959">
        <ele>1328</ele>
        <time>2022-07-17T07:13:21Z</time>
      </trkpt>
      <trkpt lat="45.94977" lon="6.75954">
        <ele>1328</ele>
        <time>2022-07-17T07:13:26Z</time>
      </trkpt>
      <trkpt lat="45.94981" lon="6.7594">
        <ele>1328</ele>
        <time>2022-07-17T07:13:35Z</time>
      </trkpt>
      <trkpt lat="45.94995" lon="6.75928">
        <ele>1327</ele>
        <time>2022-07-17T07:13:48Z</time>
      </trkpt>
      <trkpt lat="45.94993" lon="6.75919">
        <ele>1327</ele>
        <time>2022-07-17T07:13:52Z</time>
      </trkpt>
      <trkpt lat="45.94993" lon="6.75911">
        <ele>1326</ele>
        <time>2022-07-17T07:13:56Z</time>
      </trkpt>
      <trkpt lat="45.94995" lon="6.75904">
        <ele>1326</ele>
        <time>2022-07-17T07:14:01Z</time>
      </trkpt>
      <trkpt lat="45.94999" lon="6.75897">
        <ele>1326</ele>
        <time>2022-07-17T07:14:07Z</time>
      </trkpt>
      <trkpt lat="45.95003" lon="6.75882">
        <ele>1325</ele>
        <time>2022-07-17T07:14:15Z</time>
      </trkpt>
      <trkpt lat="45.95003" lon="6.75875">
        <ele>1325</ele>
        <time>2022-07-17T07:14:19Z</time>
      </trkpt>
      <trkpt lat="45.95" lon="6.75867">
        <ele>1324</ele>
        <time>2022-07-17T07:14:23Z</time>
      </trkpt>
      <trkpt lat="45.95" lon="6.7586">
        <ele>1324</ele>
        <time>2022-07-17T07:14:27Z</time>
      </trkpt>
      <trkpt lat="45.95005" lon="6.7585">
        <ele>1322</ele>
        <time>2022-07-17T07:14:38Z</time>
      </trkpt>
      <trkpt lat="45.95016" lon="6.7584">
        <ele>1320</ele>
        <time>2022-07-17T07:14:55Z</time>
      </trkpt>
      <trkpt lat="45.95019" lon="6.75833">
        <ele>1319</ele>
        <time>2022-07-17T07:14:59Z</time>
      </trkpt>
      <trkpt lat="45.95019" lon="6.75825">
        <ele>1319</ele>
        <time>2022-07-17T07:15:03Z</time>
      </trkpt>
      <trkpt lat="45.95026" lon="6.75812">
        <ele>1317</ele>
        <time>2022-07-17T07:15:15Z</time>
      </trkpt>
      <trkpt lat="45.95025" lon="6.75803">
        <ele>1316</ele>
        <time>2022-07-17T07:15:19Z</time>
      </trkpt>
      <trkpt lat="45.95025" lon="6.75794">
        <ele>1315</ele>
        <time>2022-07-17T07:15:24Z</time>
      </trkpt>
      <trkpt lat="45.95029" lon="6.75787">
        <ele>1314</ele>
        <time>2022-07-17T07:15:31Z</time>
      </trkpt>
      <trkpt lat="45.9503" lon="6.7578">
        <ele>1313</ele>
        <time>2022-07-17T07:15:39Z</time>
      </trkpt>
      <trkpt lat="45.95026" lon="6.75768">
        <ele>1311</ele>
        <time>2022-07-17T07:15:50Z</time>
      </trkpt>
      <trkpt lat="45.95025" lon="6.7576">
        <ele>1311</ele>
        <time>2022-07-17T07:15:54Z</time>
      </trkpt>
      <trkpt lat="45.95019" lon="6.75754">
        <ele>1311</ele>
        <time>2022-07-17T07:16:01Z</time>
      </trkpt>
      <trkpt lat="45.95015" lon="6.75719">
        <ele>1310</ele>
        <time>2022-07-17T07:16:22Z</time>
      </trkpt>
      <trkpt lat="45.95012" lon="6.75714">
        <ele>1310</ele>
        <time>2022-07-17T07:16:27Z</time>
      </trkpt>
      <trkpt lat="45.9501" lon="6.75702">
        <ele>1329</ele>
        <time>2022-07-17T07:16:43Z</time>
      </trkpt>
      <trkpt lat="45.94875" lon="6.7456">
        <ele>1340</ele>
        <time>2022-07-17T07:36:28Z</time>
      </trkpt>
      <trkpt lat="45.94876" lon="6.74558">
        <ele>1329</ele>
        <time>2022-07-17T07:36:29Z</time>
      </trkpt>
      <trkpt lat="45.94865" lon="6.74537">
        <ele>1329</ele>
        <time>2022-07-17T07:36:33Z</time>
      </trkpt>
      <trkpt lat="45.94867" lon="6.74539">
        <ele>1330</ele>
        <time>2022-07-17T07:36:35Z</time>
      </trkpt>
      <trkpt lat="45.94872" lon="6.74538">
        <ele>1330</ele>
        <time>2022-07-17T07:36:43Z</time>
      </trkpt>
    </trkseg>
  </trk>
  <trk>
    <name><![CDATA[16 juil. 2022 à 20:32:20]]></name>
    <cmt><![CDATA[16 juil. 2022 à 20:32:20]]></cmt>
    <trkseg>
      <trkpt lat="45.96299" lon="6.79526">
        <ele>1946</ele>
        <time>2022-07-16T18:32:21Z</time>
      </trkpt>
      <trkpt lat="45.96299" lon="6.79526">
        <ele>1946</ele>
        <time>2022-07-16T18:32:22Z</time>
      </trkpt>
    </trkseg>
  </trk>
  <trk>
    <name><![CDATA[16 juil. 2022 à 11:56:22]]></name>
    <cmt><![CDATA[16 juil. 2022 à 11:56:22]]></cmt>
    <trkseg>
      <trkpt lat="45.9819" lon="6.82075">
        <ele>2093</ele>
        <time>2022-07-16T09:56:23Z</time>
      </trkpt>
      <trkpt lat="45.9819" lon="6.82075">
        <ele>2093</ele>
        <time>2022-07-16T09:56:24Z</time>
      </trkpt>
      <trkpt lat="45.97838" lon="6.81449">
        <ele>2152</ele>
        <time>2022-07-16T10:44:45Z</time>
      </trkpt>
      <trkpt lat="45.97838" lon="6.81449">
        <ele>2152</ele>
        <time>2022-07-16T10:44:46Z</time>
      </trkpt>
      <trkpt lat="45.97836" lon="6.81458">
        <ele>2153</ele>
        <time>2022-07-16T11:10:05Z</time>
      </trkpt>
      <trkpt lat="45.97835" lon="6.81467">
        <ele>2153</ele>
        <time>2022-07-16T11:10:09Z</time>
      </trkpt>
      <trkpt lat="45.97833" lon="6.81464">
        <ele>2153</ele>
        <time>2022-07-16T11:49:13Z</time>
      </trkpt>
      <trkpt lat="45.97832" lon="6.81469">
        <ele>2152</ele>
        <time>2022-07-16T11:50:54Z</time>
      </trkpt>
      <trkpt lat="45.97828" lon="6.81466">
        <ele>2152</ele>
        <time>2022-07-16T11:51:14Z</time>
      </trkpt>
      <trkpt lat="45.97825" lon="6.8147">
        <ele>2152</ele>
        <time>2022-07-16T11:52:10Z</time>
      </trkpt>
      <trkpt lat="45.97822" lon="6.81462">
        <ele>2153</ele>
        <time>2022-07-16T11:56:01Z</time>
      </trkpt>
      <trkpt lat="45.97828" lon="6.81459">
        <ele>2152</ele>
        <time>2022-07-16T11:58:48Z</time>
      </trkpt>
      <trkpt lat="45.97834" lon="6.81457">
        <ele>2153</ele>
        <time>2022-07-16T11:59:01Z</time>
      </trkpt>
      <trkpt lat="45.97837" lon="6.81451">
        <ele>2153</ele>
        <time>2022-07-16T11:59:06Z</time>
      </trkpt>
      <trkpt lat="45.97842" lon="6.81441">
        <ele>2153</ele>
        <time>2022-07-16T11:59:14Z</time>
      </trkpt>
      <trkpt lat="45.97847" lon="6.81439">
        <ele>2153</ele>
        <time>2022-07-16T11:59:18Z</time>
      </trkpt>
      <trkpt lat="45.97849" lon="6.81435">
        <ele>2155</ele>
        <time>2022-07-16T11:59:34Z</time>
      </trkpt>
      <trkpt lat="45.97853" lon="6.8143">
        <ele>2157</ele>
        <time>2022-07-16T11:59:44Z</time>
      </trkpt>
      <trkpt lat="45.97857" lon="6.81427">
        <ele>2158</ele>
        <time>2022-07-16T11:59:54Z</time>
      </trkpt>
      <trkpt lat="45.97864" lon="6.81426">
        <ele>2160</ele>
        <time>2022-07-16T12:00:09Z</time>
      </trkpt>
      <trkpt lat="45.9787" lon="6.81429">
        <ele>2161</ele>
        <time>2022-07-16T12:00:20Z</time>
      </trkpt>
      <trkpt lat="45.97883" lon="6.81425">
        <ele>2163</ele>
        <time>2022-07-16T12:00:43Z</time>
      </trkpt>
      <trkpt lat="45.97888" lon="6.81421">
        <ele>2165</ele>
        <time>2022-07-16T12:00:53Z</time>
      </trkpt>
      <trkpt lat="45.97894" lon="6.81423">
        <ele>2166</ele>
        <time>2022-07-16T12:01:04Z</time>
      </trkpt>
      <trkpt lat="45.97898" lon="6.81418">
        <ele>2167</ele>
        <time>2022-07-16T12:01:14Z</time>
      </trkpt>
      <trkpt lat="45.97902" lon="6.81411">
        <ele>2168</ele>
        <time>2022-07-16T12:01:24Z</time>
      </trkpt>
      <trkpt lat="45.97905" lon="6.81404">
        <ele>2169</ele>
        <time>2022-07-16T12:01:34Z</time>
      </trkpt>
      <trkpt lat="45.97908" lon="6.81408">
        <ele>2171</ele>
        <time>2022-07-16T12:01:49Z</time>
      </trkpt>
      <trkpt lat="45.97913" lon="6.81408">
        <ele>2172</ele>
        <time>2022-07-16T12:01:59Z</time>
      </trkpt>
      <trkpt lat="45.97914" lon="6.81402">
        <ele>2173</ele>
        <time>2022-07-16T12:02:09Z</time>
      </trkpt>
      <trkpt lat="45.97914" lon="6.81394">
        <ele>2176</ele>
        <time>2022-07-16T12:02:24Z</time>
      </trkpt>
      <trkpt lat="45.97912" lon="6.81385">
        <ele>2178</ele>
        <time>2022-07-16T12:02:42Z</time>
      </trkpt>
      <trkpt lat="45.97915" lon="6.81367">
        <ele>2180</ele>
        <time>2022-07-16T12:03:07Z</time>
      </trkpt>
      <trkpt lat="45.97918" lon="6.81363">
        <ele>2181</ele>
        <time>2022-07-16T12:03:18Z</time>
      </trkpt>
      <trkpt lat="45.97932" lon="6.81352">
        <ele>2185</ele>
        <time>2022-07-16T12:03:48Z</time>
      </trkpt>
      <trkpt lat="45.97935" lon="6.81344">
        <ele>2188</ele>
        <time>2022-07-16T12:04:05Z</time>
      </trkpt>
      <trkpt lat="45.97941" lon="6.81341">
        <ele>2189</ele>
        <time>2022-07-16T12:04:15Z</time>
      </trkpt>
      <trkpt lat="45.97942" lon="6.81332">
        <ele>2190</ele>
        <time>2022-07-16T12:04:25Z</time>
      </trkpt>
      <trkpt lat="45.97946" lon="6.81327">
        <ele>2192</ele>
        <time>2022-07-16T12:04:37Z</time>
      </trkpt>
      <trkpt lat="45.9795" lon="6.81325">
        <ele>2193</ele>
        <time>2022-07-16T12:04:43Z</time>
      </trkpt>
      <trkpt lat="45.97955" lon="6.81323">
        <ele>2193</ele>
        <time>2022-07-16T12:04:59Z</time>
      </trkpt>
      <trkpt lat="45.9796" lon="6.81322">
        <ele>2194</ele>
        <time>2022-07-16T12:05:04Z</time>
      </trkpt>
      <trkpt lat="45.97963" lon="6.81315">
        <ele>2194</ele>
        <time>2022-07-16T12:05:10Z</time>
      </trkpt>
      <trkpt lat="45.97968" lon="6.81313">
        <ele>2194</ele>
        <time>2022-07-16T12:05:13Z</time>
      </trkpt>
      <trkpt lat="45.97971" lon="6.81311">
        <ele>2195</ele>
        <time>2022-07-16T12:05:28Z</time>
      </trkpt>
      <trkpt lat="45.97975" lon="6.81314">
        <ele>2194</ele>
        <time>2022-07-16T12:05:32Z</time>
      </trkpt>
      <trkpt lat="45.97979" lon="6.8132">
        <ele>2195</ele>
        <time>2022-07-16T12:05:40Z</time>
      </trkpt>
      <trkpt lat="45.97984" lon="6.81317">
        <ele>2196</ele>
        <time>2022-07-16T12:05:46Z</time>
      </trkpt>
      <trkpt lat="45.9799" lon="6.81321">
        <ele>2196</ele>
        <time>2022-07-16T12:05:56Z</time>
      </trkpt>
      <trkpt lat="45.97995" lon="6.81316">
        <ele>2197</ele>
        <time>2022-07-16T12:06:02Z</time>
      </trkpt>
      <trkpt lat="45.97999" lon="6.81317">
        <ele>2197</ele>
        <time>2022-07-16T12:06:45Z</time>
      </trkpt>
      <trkpt lat="45.98005" lon="6.81313">
        <ele>2198</ele>
        <time>2022-07-16T12:06:53Z</time>
      </trkpt>
      <trkpt lat="45.98011" lon="6.81311">
        <ele>2198</ele>
        <time>2022-07-16T12:07:00Z</time>
      </trkpt>
      <trkpt lat="45.98017" lon="6.81304">
        <ele>2198</ele>
        <time>2022-07-16T12:07:08Z</time>
      </trkpt>
      <trkpt lat="45.98024" lon="6.81301">
        <ele>2198</ele>
        <time>2022-07-16T12:07:18Z</time>
      </trkpt>
      <trkpt lat="45.98026" lon="6.81289">
        <ele>2199</ele>
        <time>2022-07-16T12:07:28Z</time>
      </trkpt>
      <trkpt lat="45.98029" lon="6.81284">
        <ele>2200</ele>
        <time>2022-07-16T12:07:35Z</time>
      </trkpt>
      <trkpt lat="45.98035" lon="6.81278">
        <ele>2200</ele>
        <time>2022-07-16T12:07:45Z</time>
      </trkpt>
      <trkpt lat="45.9804" lon="6.81273">
        <ele>2202</ele>
        <time>2022-07-16T12:08:01Z</time>
      </trkpt>
      <trkpt lat="45.98044" lon="6.81267">
        <ele>2204</ele>
        <time>2022-07-16T12:08:16Z</time>
      </trkpt>
      <trkpt lat="45.98048" lon="6.81263">
        <ele>2206</ele>
        <time>2022-07-16T12:08:26Z</time>
      </trkpt>
      <trkpt lat="45.98048" lon="6.81257">
        <ele>2207</ele>
        <time>2022-07-16T12:08:36Z</time>
      </trkpt>
      <trkpt lat="45.98042" lon="6.81244">
        <ele>2213</ele>
        <time>2022-07-16T12:09:14Z</time>
      </trkpt>
      <trkpt lat="45.98029" lon="6.81238">
        <ele>2218</ele>
        <time>2022-07-16T12:09:44Z</time>
      </trkpt>
      <trkpt lat="45.98025" lon="6.81229">
        <ele>2220</ele>
        <time>2022-07-16T12:10:01Z</time>
      </trkpt>
      <trkpt lat="45.9801" lon="6.81217">
        <ele>2225</ele>
        <time>2022-07-16T12:10:36Z</time>
      </trkpt>
      <trkpt lat="45.98009" lon="6.81209">
        <ele>2227</ele>
        <time>2022-07-16T12:11:23Z</time>
      </trkpt>
      <trkpt lat="45.98002" lon="6.81204">
        <ele>2229</ele>
        <time>2022-07-16T12:11:34Z</time>
      </trkpt>
      <trkpt lat="45.98003" lon="6.81195">
        <ele>2234</ele>
        <time>2022-07-16T12:12:04Z</time>
      </trkpt>
      <trkpt lat="45.98004" lon="6.81189">
        <ele>2236</ele>
        <time>2022-07-16T12:12:19Z</time>
      </trkpt>
      <trkpt lat="45.98004" lon="6.81182">
        <ele>2239</ele>
        <time>2022-07-16T12:12:39Z</time>
      </trkpt>
      <trkpt lat="45.98" lon="6.81178">
        <ele>2241</ele>
        <time>2022-07-16T12:12:54Z</time>
      </trkpt>
      <trkpt lat="45.97993" lon="6.8117">
        <ele>2244</ele>
        <time>2022-07-16T12:13:13Z</time>
      </trkpt>
      <trkpt lat="45.9799" lon="6.81164">
        <ele>2250</ele>
        <time>2022-07-16T12:14:05Z</time>
      </trkpt>
      <trkpt lat="45.97985" lon="6.81159">
        <ele>2253</ele>
        <time>2022-07-16T12:14:20Z</time>
      </trkpt>
      <trkpt lat="45.9798" lon="6.81151">
        <ele>2257</ele>
        <time>2022-07-16T12:14:45Z</time>
      </trkpt>
      <trkpt lat="45.97978" lon="6.81146">
        <ele>2261</ele>
        <time>2022-07-16T12:15:18Z</time>
      </trkpt>
      <trkpt lat="45.97977" lon="6.81133">
        <ele>2267</ele>
        <time>2022-07-16T12:15:58Z</time>
      </trkpt>
      <trkpt lat="45.9797" lon="6.81119">
        <ele>2274</ele>
        <time>2022-07-16T12:16:49Z</time>
      </trkpt>
      <trkpt lat="45.97966" lon="6.81115">
        <ele>2276</ele>
        <time>2022-07-16T12:17:00Z</time>
      </trkpt>
      <trkpt lat="45.97969" lon="6.8111">
        <ele>2279</ele>
        <time>2022-07-16T12:17:23Z</time>
      </trkpt>
      <trkpt lat="45.97971" lon="6.81105">
        <ele>2280</ele>
        <time>2022-07-16T12:17:33Z</time>
      </trkpt>
      <trkpt lat="45.97973" lon="6.81099">
        <ele>2281</ele>
        <time>2022-07-16T12:17:40Z</time>
      </trkpt>
      <trkpt lat="45.97972" lon="6.81092">
        <ele>2284</ele>
        <time>2022-07-16T12:18:00Z</time>
      </trkpt>
      <trkpt lat="45.97969" lon="6.81085">
        <ele>2286</ele>
        <time>2022-07-16T12:18:10Z</time>
      </trkpt>
      <trkpt lat="45.97966" lon="6.8108">
        <ele>2286</ele>
        <time>2022-07-16T12:18:14Z</time>
      </trkpt>
      <trkpt lat="45.97967" lon="6.81071">
        <ele>2287</ele>
        <time>2022-07-16T12:18:26Z</time>
      </trkpt>
      <trkpt lat="45.97969" lon="6.81064">
        <ele>2287</ele>
        <time>2022-07-16T12:18:36Z</time>
      </trkpt>
      <trkpt lat="45.97969" lon="6.81056">
        <ele>2288</ele>
        <time>2022-07-16T12:19:11Z</time>
      </trkpt>
      <trkpt lat="45.97974" lon="6.81057">
        <ele>2289</ele>
        <time>2022-07-16T12:19:23Z</time>
      </trkpt>
      <trkpt lat="45.97976" lon="6.81049">
        <ele>2289</ele>
        <time>2022-07-16T12:19:33Z</time>
      </trkpt>
      <trkpt lat="45.97985" lon="6.81037">
        <ele>2292</ele>
        <time>2022-07-16T12:19:54Z</time>
      </trkpt>
      <trkpt lat="45.9799" lon="6.81036">
        <ele>2294</ele>
        <time>2022-07-16T12:20:04Z</time>
      </trkpt>
      <trkpt lat="45.97996" lon="6.81033">
        <ele>2294</ele>
        <time>2022-07-16T12:20:14Z</time>
      </trkpt>
      <trkpt lat="45.9801" lon="6.81031">
        <ele>2297</ele>
        <time>2022-07-16T12:20:35Z</time>
      </trkpt>
      <trkpt lat="45.98013" lon="6.81019">
        <ele>2298</ele>
        <time>2022-07-16T12:20:44Z</time>
      </trkpt>
      <trkpt lat="45.98016" lon="6.81015">
        <ele>2298</ele>
        <time>2022-07-16T12:20:51Z</time>
      </trkpt>
      <trkpt lat="45.98018" lon="6.81003">
        <ele>2300</ele>
        <time>2022-07-16T12:21:01Z</time>
      </trkpt>
      <trkpt lat="45.98017" lon="6.80994">
        <ele>2301</ele>
        <time>2022-07-16T12:21:10Z</time>
      </trkpt>
      <trkpt lat="45.98018" lon="6.80983">
        <ele>2300</ele>
        <time>2022-07-16T12:21:22Z</time>
      </trkpt>
      <trkpt lat="45.98016" lon="6.80964">
        <ele>2300</ele>
        <time>2022-07-16T12:21:40Z</time>
      </trkpt>
      <trkpt lat="45.98015" lon="6.80955">
        <ele>2301</ele>
        <time>2022-07-16T12:21:50Z</time>
      </trkpt>
      <trkpt lat="45.98013" lon="6.80949">
        <ele>2301</ele>
        <time>2022-07-16T12:21:55Z</time>
      </trkpt>
      <trkpt lat="45.98011" lon="6.80941">
        <ele>2301</ele>
        <time>2022-07-16T12:22:01Z</time>
      </trkpt>
      <trkpt lat="45.98019" lon="6.80913">
        <ele>2300</ele>
        <time>2022-07-16T12:22:25Z</time>
      </trkpt>
      <trkpt lat="45.98019" lon="6.80901">
        <ele>2299</ele>
        <time>2022-07-16T12:22:36Z</time>
      </trkpt>
      <trkpt lat="45.9802" lon="6.80892">
        <ele>2299</ele>
        <time>2022-07-16T12:22:46Z</time>
      </trkpt>
      <trkpt lat="45.98022" lon="6.80884">
        <ele>2297</ele>
        <time>2022-07-16T12:22:56Z</time>
      </trkpt>
      <trkpt lat="45.9802" lon="6.80866">
        <ele>2295</ele>
        <time>2022-07-16T12:23:17Z</time>
      </trkpt>
      <trkpt lat="45.98023" lon="6.80859">
        <ele>2294</ele>
        <time>2022-07-16T12:23:25Z</time>
      </trkpt>
      <trkpt lat="45.98031" lon="6.80837">
        <ele>2293</ele>
        <time>2022-07-16T12:23:45Z</time>
      </trkpt>
      <trkpt lat="45.98034" lon="6.80828">
        <ele>2292</ele>
        <time>2022-07-16T12:24:00Z</time>
      </trkpt>
      <trkpt lat="45.98034" lon="6.80821">
        <ele>2291</ele>
        <time>2022-07-16T12:24:07Z</time>
      </trkpt>
      <trkpt lat="45.98032" lon="6.80814">
        <ele>2290</ele>
        <time>2022-07-16T12:24:13Z</time>
      </trkpt>
      <trkpt lat="45.98033" lon="6.80803">
        <ele>2289</ele>
        <time>2022-07-16T12:24:23Z</time>
      </trkpt>
      <trkpt lat="45.98026" lon="6.80784">
        <ele>2288</ele>
        <time>2022-07-16T12:24:39Z</time>
      </trkpt>
      <trkpt lat="45.98025" lon="6.80776">
        <ele>2287</ele>
        <time>2022-07-16T12:24:45Z</time>
      </trkpt>
      <trkpt lat="45.98021" lon="6.8077">
        <ele>2287</ele>
        <time>2022-07-16T12:24:53Z</time>
      </trkpt>
      <trkpt lat="45.98019" lon="6.80762">
        <ele>2286</ele>
        <time>2022-07-16T12:25:13Z</time>
      </trkpt>
      <trkpt lat="45.98019" lon="6.80752">
        <ele>2286</ele>
        <time>2022-07-16T12:25:23Z</time>
      </trkpt>
      <trkpt lat="45.98022" lon="6.8073">
        <ele>2284</ele>
        <time>2022-07-16T12:25:46Z</time>
      </trkpt>
      <trkpt lat="45.98017" lon="6.80723">
        <ele>2285</ele>
        <time>2022-07-16T12:25:54Z</time>
      </trkpt>
      <trkpt lat="45.98015" lon="6.80716">
        <ele>2284</ele>
        <time>2022-07-16T12:26:05Z</time>
      </trkpt>
      <trkpt lat="45.98013" lon="6.80707">
        <ele>2283</ele>
        <time>2022-07-16T12:26:15Z</time>
      </trkpt>
      <trkpt lat="45.9801" lon="6.80696">
        <ele>2283</ele>
        <time>2022-07-16T12:26:25Z</time>
      </trkpt>
      <trkpt lat="45.98017" lon="6.80674">
        <ele>2280</ele>
        <time>2022-07-16T12:26:48Z</time>
      </trkpt>
      <trkpt lat="45.98014" lon="6.80666">
        <ele>2281</ele>
        <time>2022-07-16T12:26:59Z</time>
      </trkpt>
      <trkpt lat="45.98013" lon="6.80657">
        <ele>2280</ele>
        <time>2022-07-16T12:27:10Z</time>
      </trkpt>
      <trkpt lat="45.98013" lon="6.80646">
        <ele>2277</ele>
        <time>2022-07-16T12:27:30Z</time>
      </trkpt>
      <trkpt lat="45.98007" lon="6.80639">
        <ele>2277</ele>
        <time>2022-07-16T12:27:41Z</time>
      </trkpt>
      <trkpt lat="45.98008" lon="6.80629">
        <ele>2275</ele>
        <time>2022-07-16T12:27:53Z</time>
      </trkpt>
      <trkpt lat="45.98004" lon="6.80622">
        <ele>2274</ele>
        <time>2022-07-16T12:28:03Z</time>
      </trkpt>
      <trkpt lat="45.98" lon="6.80613">
        <ele>2273</ele>
        <time>2022-07-16T12:28:13Z</time>
      </trkpt>
      <trkpt lat="45.97998" lon="6.80605">
        <ele>2274</ele>
        <time>2022-07-16T12:28:20Z</time>
      </trkpt>
      <trkpt lat="45.97999" lon="6.80599">
        <ele>2274</ele>
        <time>2022-07-16T12:28:26Z</time>
      </trkpt>
      <trkpt lat="45.97997" lon="6.80591">
        <ele>2274</ele>
        <time>2022-07-16T12:28:36Z</time>
      </trkpt>
      <trkpt lat="45.97995" lon="6.80581">
        <ele>2274</ele>
        <time>2022-07-16T12:28:46Z</time>
      </trkpt>
      <trkpt lat="45.97996" lon="6.80569">
        <ele>2273</ele>
        <time>2022-07-16T12:28:56Z</time>
      </trkpt>
      <trkpt lat="45.97992" lon="6.80557">
        <ele>2272</ele>
        <time>2022-07-16T12:29:07Z</time>
      </trkpt>
      <trkpt lat="45.97986" lon="6.8054">
        <ele>2272</ele>
        <time>2022-07-16T12:29:19Z</time>
      </trkpt>
      <trkpt lat="45.97989" lon="6.80534">
        <ele>2273</ele>
        <time>2022-07-16T12:29:26Z</time>
      </trkpt>
      <trkpt lat="45.97984" lon="6.80529">
        <ele>2273</ele>
        <time>2022-07-16T12:29:30Z</time>
      </trkpt>
      <trkpt lat="45.97987" lon="6.80506">
        <ele>2271</ele>
        <time>2022-07-16T12:29:54Z</time>
      </trkpt>
      <trkpt lat="45.97985" lon="6.80499">
        <ele>2271</ele>
        <time>2022-07-16T12:30:01Z</time>
      </trkpt>
      <trkpt lat="45.97983" lon="6.80492">
        <ele>2271</ele>
        <time>2022-07-16T12:30:08Z</time>
      </trkpt>
      <trkpt lat="45.97982" lon="6.80482">
        <ele>2270</ele>
        <time>2022-07-16T12:30:18Z</time>
      </trkpt>
      <trkpt lat="45.97979" lon="6.80475">
        <ele>2269</ele>
        <time>2022-07-16T12:30:23Z</time>
      </trkpt>
      <trkpt lat="45.97981" lon="6.80457">
        <ele>2268</ele>
        <time>2022-07-16T12:30:38Z</time>
      </trkpt>
      <trkpt lat="45.97981" lon="6.80451">
        <ele>2267</ele>
        <time>2022-07-16T12:30:46Z</time>
      </trkpt>
      <trkpt lat="45.97979" lon="6.80445">
        <ele>2266</ele>
        <time>2022-07-16T12:30:52Z</time>
      </trkpt>
      <trkpt lat="45.97979" lon="6.80435">
        <ele>2266</ele>
        <time>2022-07-16T12:31:02Z</time>
      </trkpt>
      <trkpt lat="45.97975" lon="6.80429">
        <ele>2265</ele>
        <time>2022-07-16T12:31:12Z</time>
      </trkpt>
      <trkpt lat="45.97972" lon="6.80423">
        <ele>2265</ele>
        <time>2022-07-16T12:31:32Z</time>
      </trkpt>
      <trkpt lat="45.97973" lon="6.80421">
        <ele>2263</ele>
        <time>2022-07-16T12:32:09Z</time>
      </trkpt>
      <trkpt lat="45.97974" lon="6.80413">
        <ele>2261</ele>
        <time>2022-07-16T12:32:29Z</time>
      </trkpt>
      <trkpt lat="45.9798" lon="6.80408">
        <ele>2259</ele>
        <time>2022-07-16T12:32:48Z</time>
      </trkpt>
      <trkpt lat="45.97976" lon="6.80404">
        <ele>2258</ele>
        <time>2022-07-16T12:33:00Z</time>
      </trkpt>
      <trkpt lat="45.97979" lon="6.80403">
        <ele>2256</ele>
        <time>2022-07-16T12:33:31Z</time>
      </trkpt>
      <trkpt lat="45.97976" lon="6.80396">
        <ele>2254</ele>
        <time>2022-07-16T12:33:40Z</time>
      </trkpt>
      <trkpt lat="45.97983" lon="6.8038">
        <ele>2248</ele>
        <time>2022-07-16T12:34:15Z</time>
      </trkpt>
      <trkpt lat="45.97986" lon="6.80369">
        <ele>2246</ele>
        <time>2022-07-16T12:34:31Z</time>
      </trkpt>
      <trkpt lat="45.97988" lon="6.80357">
        <ele>2245</ele>
        <time>2022-07-16T12:34:41Z</time>
      </trkpt>
      <trkpt lat="45.97986" lon="6.80351">
        <ele>2244</ele>
        <time>2022-07-16T12:34:48Z</time>
      </trkpt>
      <trkpt lat="45.97992" lon="6.80348">
        <ele>2244</ele>
        <time>2022-07-16T12:35:04Z</time>
      </trkpt>
      <trkpt lat="45.9799" lon="6.80341">
        <ele>2244</ele>
        <time>2022-07-16T12:35:09Z</time>
      </trkpt>
      <trkpt lat="45.97988" lon="6.80333">
        <ele>2243</ele>
        <time>2022-07-16T12:35:17Z</time>
      </trkpt>
      <trkpt lat="45.97992" lon="6.80322">
        <ele>2242</ele>
        <time>2022-07-16T12:35:31Z</time>
      </trkpt>
      <trkpt lat="45.97991" lon="6.80316">
        <ele>2242</ele>
        <time>2022-07-16T12:35:36Z</time>
      </trkpt>
      <trkpt lat="45.97988" lon="6.80308">
        <ele>2241</ele>
        <time>2022-07-16T12:35:45Z</time>
      </trkpt>
      <trkpt lat="45.97985" lon="6.80301">
        <ele>2241</ele>
        <time>2022-07-16T12:35:50Z</time>
      </trkpt>
      <trkpt lat="45.97989" lon="6.80293">
        <ele>2240</ele>
        <time>2022-07-16T12:35:54Z</time>
      </trkpt>
      <trkpt lat="45.97989" lon="6.80284">
        <ele>2241</ele>
        <time>2022-07-16T12:36:03Z</time>
      </trkpt>
      <trkpt lat="45.97987" lon="6.80275">
        <ele>2240</ele>
        <time>2022-07-16T12:36:14Z</time>
      </trkpt>
      <trkpt lat="45.97992" lon="6.8027">
        <ele>2238</ele>
        <time>2022-07-16T12:36:25Z</time>
      </trkpt>
      <trkpt lat="45.97988" lon="6.80264">
        <ele>2237</ele>
        <time>2022-07-16T12:36:35Z</time>
      </trkpt>
      <trkpt lat="45.9799" lon="6.80253">
        <ele>2237</ele>
        <time>2022-07-16T12:36:45Z</time>
      </trkpt>
      <trkpt lat="45.97991" lon="6.80246">
        <ele>2237</ele>
        <time>2022-07-16T12:36:51Z</time>
      </trkpt>
      <trkpt lat="45.97993" lon="6.80238">
        <ele>2235</ele>
        <time>2022-07-16T12:37:06Z</time>
      </trkpt>
      <trkpt lat="45.97992" lon="6.8023">
        <ele>2233</ele>
        <time>2022-07-16T12:37:16Z</time>
      </trkpt>
      <trkpt lat="45.97995" lon="6.8022">
        <ele>2233</ele>
        <time>2022-07-16T12:37:26Z</time>
      </trkpt>
      <trkpt lat="45.97995" lon="6.80213">
        <ele>2231</ele>
        <time>2022-07-16T12:37:36Z</time>
      </trkpt>
      <trkpt lat="45.97992" lon="6.80207">
        <ele>2231</ele>
        <time>2022-07-16T12:37:41Z</time>
      </trkpt>
      <trkpt lat="45.97993" lon="6.802">
        <ele>2229</ele>
        <time>2022-07-16T12:37:48Z</time>
      </trkpt>
      <trkpt lat="45.97993" lon="6.80192">
        <ele>2228</ele>
        <time>2022-07-16T12:37:58Z</time>
      </trkpt>
      <trkpt lat="45.9799" lon="6.80189">
        <ele>2227</ele>
        <time>2022-07-16T12:38:04Z</time>
      </trkpt>
      <trkpt lat="45.97989" lon="6.8018">
        <ele>2225</ele>
        <time>2022-07-16T12:38:16Z</time>
      </trkpt>
      <trkpt lat="45.9799" lon="6.80172">
        <ele>2223</ele>
        <time>2022-07-16T12:38:27Z</time>
      </trkpt>
      <trkpt lat="45.97992" lon="6.80165">
        <ele>2222</ele>
        <time>2022-07-16T12:38:37Z</time>
      </trkpt>
      <trkpt lat="45.97989" lon="6.80158">
        <ele>2221</ele>
        <time>2022-07-16T12:38:42Z</time>
      </trkpt>
      <trkpt lat="45.97988" lon="6.80153">
        <ele>2219</ele>
        <time>2022-07-16T12:38:54Z</time>
      </trkpt>
      <trkpt lat="45.97986" lon="6.80145">
        <ele>2218</ele>
        <time>2022-07-16T12:39:04Z</time>
      </trkpt>
      <trkpt lat="45.97986" lon="6.80137">
        <ele>2217</ele>
        <time>2022-07-16T12:39:39Z</time>
      </trkpt>
      <trkpt lat="45.97992" lon="6.8013">
        <ele>2217</ele>
        <time>2022-07-16T12:39:57Z</time>
      </trkpt>
      <trkpt lat="45.97995" lon="6.80121">
        <ele>2218</ele>
        <time>2022-07-16T12:40:07Z</time>
      </trkpt>
      <trkpt lat="45.97998" lon="6.80115">
        <ele>2218</ele>
        <time>2022-07-16T12:40:18Z</time>
      </trkpt>
      <trkpt lat="45.97998" lon="6.80107">
        <ele>2219</ele>
        <time>2022-07-16T12:40:29Z</time>
      </trkpt>
      <trkpt lat="45.98001" lon="6.80101">
        <ele>2220</ele>
        <time>2022-07-16T12:40:39Z</time>
      </trkpt>
      <trkpt lat="45.98006" lon="6.80094">
        <ele>2221</ele>
        <time>2022-07-16T12:40:49Z</time>
      </trkpt>
      <trkpt lat="45.98011" lon="6.80088">
        <ele>2221</ele>
        <time>2022-07-16T12:41:00Z</time>
      </trkpt>
      <trkpt lat="45.98013" lon="6.80077">
        <ele>2220</ele>
        <time>2022-07-16T12:41:15Z</time>
      </trkpt>
      <trkpt lat="45.98015" lon="6.80072">
        <ele>2220</ele>
        <time>2022-07-16T12:41:21Z</time>
      </trkpt>
      <trkpt lat="45.98016" lon="6.80064">
        <ele>2219</ele>
        <time>2022-07-16T12:41:31Z</time>
      </trkpt>
      <trkpt lat="45.98016" lon="6.80056">
        <ele>2219</ele>
        <time>2022-07-16T12:41:37Z</time>
      </trkpt>
      <trkpt lat="45.98019" lon="6.80054">
        <ele>2218</ele>
        <time>2022-07-16T12:42:02Z</time>
      </trkpt>
      <trkpt lat="45.98018" lon="6.8004">
        <ele>2217</ele>
        <time>2022-07-16T12:42:25Z</time>
      </trkpt>
      <trkpt lat="45.98019" lon="6.80033">
        <ele>2216</ele>
        <time>2022-07-16T12:42:33Z</time>
      </trkpt>
      <trkpt lat="45.98017" lon="6.80023">
        <ele>2216</ele>
        <time>2022-07-16T12:42:43Z</time>
      </trkpt>
      <trkpt lat="45.9802" lon="6.80017">
        <ele>2216</ele>
        <time>2022-07-16T12:42:47Z</time>
      </trkpt>
      <trkpt lat="45.98021" lon="6.80009">
        <ele>2216</ele>
        <time>2022-07-16T12:43:03Z</time>
      </trkpt>
      <trkpt lat="45.98025" lon="6.8">
        <ele>2216</ele>
        <time>2022-07-16T12:43:15Z</time>
      </trkpt>
      <trkpt lat="45.98025" lon="6.7999">
        <ele>2216</ele>
        <time>2022-07-16T12:43:21Z</time>
      </trkpt>
      <trkpt lat="45.98029" lon="6.79982">
        <ele>2216</ele>
        <time>2022-07-16T12:43:39Z</time>
      </trkpt>
      <trkpt lat="45.98029" lon="6.79975">
        <ele>2216</ele>
        <time>2022-07-16T12:43:44Z</time>
      </trkpt>
      <trkpt lat="45.98033" lon="6.79966">
        <ele>2216</ele>
        <time>2022-07-16T12:43:56Z</time>
      </trkpt>
      <trkpt lat="45.98034" lon="6.7996">
        <ele>2217</ele>
        <time>2022-07-16T12:44:06Z</time>
      </trkpt>
      <trkpt lat="45.98037" lon="6.79953">
        <ele>2218</ele>
        <time>2022-07-16T12:44:16Z</time>
      </trkpt>
      <trkpt lat="45.9804" lon="6.79944">
        <ele>2220</ele>
        <time>2022-07-16T12:44:33Z</time>
      </trkpt>
      <trkpt lat="45.98038" lon="6.79936">
        <ele>2221</ele>
        <time>2022-07-16T12:44:40Z</time>
      </trkpt>
      <trkpt lat="45.98039" lon="6.7993">
        <ele>2221</ele>
        <time>2022-07-16T12:44:50Z</time>
      </trkpt>
      <trkpt lat="45.98041" lon="6.79921">
        <ele>2223</ele>
        <time>2022-07-16T12:45:05Z</time>
      </trkpt>
      <trkpt lat="45.98042" lon="6.79908">
        <ele>2225</ele>
        <time>2022-07-16T12:45:21Z</time>
      </trkpt>
      <trkpt lat="45.98047" lon="6.79898">
        <ele>2225</ele>
        <time>2022-07-16T12:45:32Z</time>
      </trkpt>
      <trkpt lat="45.98045" lon="6.79889">
        <ele>2225</ele>
        <time>2022-07-16T12:45:50Z</time>
      </trkpt>
      <trkpt lat="45.98045" lon="6.7988">
        <ele>2228</ele>
        <time>2022-07-16T12:46:10Z</time>
      </trkpt>
      <trkpt lat="45.98041" lon="6.7987">
        <ele>2228</ele>
        <time>2022-07-16T12:46:30Z</time>
      </trkpt>
      <trkpt lat="45.98033" lon="6.79861">
        <ele>2226</ele>
        <time>2022-07-16T12:46:53Z</time>
      </trkpt>
      <trkpt lat="45.9803" lon="6.79855">
        <ele>2226</ele>
        <time>2022-07-16T12:47:05Z</time>
      </trkpt>
      <trkpt lat="45.98024" lon="6.79851">
        <ele>2224</ele>
        <time>2022-07-16T12:47:26Z</time>
      </trkpt>
      <trkpt lat="45.98025" lon="6.7984">
        <ele>2221</ele>
        <time>2022-07-16T12:47:47Z</time>
      </trkpt>
      <trkpt lat="45.98015" lon="6.79829">
        <ele>2218</ele>
        <time>2022-07-16T12:48:06Z</time>
      </trkpt>
      <trkpt lat="45.98011" lon="6.79822">
        <ele>2218</ele>
        <time>2022-07-16T12:48:12Z</time>
      </trkpt>
      <trkpt lat="45.98" lon="6.7982">
        <ele>2215</ele>
        <time>2022-07-16T12:48:31Z</time>
      </trkpt>
      <trkpt lat="45.97993" lon="6.79813">
        <ele>2213</ele>
        <time>2022-07-16T12:48:43Z</time>
      </trkpt>
      <trkpt lat="45.97991" lon="6.79801">
        <ele>2213</ele>
        <time>2022-07-16T12:48:49Z</time>
      </trkpt>
      <trkpt lat="45.97984" lon="6.79794">
        <ele>2211</ele>
        <time>2022-07-16T12:49:07Z</time>
      </trkpt>
      <trkpt lat="45.97978" lon="6.7979">
        <ele>2210</ele>
        <time>2022-07-16T12:49:17Z</time>
      </trkpt>
      <trkpt lat="45.97973" lon="6.79785">
        <ele>2210</ele>
        <time>2022-07-16T12:49:24Z</time>
      </trkpt>
      <trkpt lat="45.97976" lon="6.79777">
        <ele>2210</ele>
        <time>2022-07-16T12:49:34Z</time>
      </trkpt>
      <trkpt lat="45.97975" lon="6.79769">
        <ele>2211</ele>
        <time>2022-07-16T12:49:40Z</time>
      </trkpt>
      <trkpt lat="45.97976" lon="6.79759">
        <ele>2214</ele>
        <time>2022-07-16T12:50:02Z</time>
      </trkpt>
      <trkpt lat="45.97981" lon="6.79749">
        <ele>2218</ele>
        <time>2022-07-16T12:50:32Z</time>
      </trkpt>
      <trkpt lat="45.9798" lon="6.79742">
        <ele>2218</ele>
        <time>2022-07-16T12:50:43Z</time>
      </trkpt>
      <trkpt lat="45.97979" lon="6.79731">
        <ele>2219</ele>
        <time>2022-07-16T12:50:53Z</time>
      </trkpt>
      <trkpt lat="45.97981" lon="6.79722">
        <ele>2222</ele>
        <time>2022-07-16T12:51:17Z</time>
      </trkpt>
      <trkpt lat="45.97985" lon="6.79715">
        <ele>2225</ele>
        <time>2022-07-16T12:51:36Z</time>
      </trkpt>
      <trkpt lat="45.97986" lon="6.79709">
        <ele>2229</ele>
        <time>2022-07-16T12:52:02Z</time>
      </trkpt>
      <trkpt lat="45.97987" lon="6.79688">
        <ele>2233</ele>
        <time>2022-07-16T12:52:43Z</time>
      </trkpt>
      <trkpt lat="45.97989" lon="6.79675">
        <ele>2236</ele>
        <time>2022-07-16T12:53:03Z</time>
      </trkpt>
      <trkpt lat="45.97993" lon="6.79681">
        <ele>2239</ele>
        <time>2022-07-16T12:53:29Z</time>
      </trkpt>
      <trkpt lat="45.97998" lon="6.79672">
        <ele>2242</ele>
        <time>2022-07-16T12:53:55Z</time>
      </trkpt>
      <trkpt lat="45.97999" lon="6.79664">
        <ele>2244</ele>
        <time>2022-07-16T12:54:10Z</time>
      </trkpt>
      <trkpt lat="45.98001" lon="6.79657">
        <ele>2247</ele>
        <time>2022-07-16T12:54:41Z</time>
      </trkpt>
      <trkpt lat="45.98007" lon="6.79656">
        <ele>2250</ele>
        <time>2022-07-16T12:55:02Z</time>
      </trkpt>
      <trkpt lat="45.98012" lon="6.79659">
        <ele>2251</ele>
        <time>2022-07-16T12:55:15Z</time>
      </trkpt>
      <trkpt lat="45.98012" lon="6.79649">
        <ele>2254</ele>
        <time>2022-07-16T12:55:41Z</time>
      </trkpt>
      <trkpt lat="45.98024" lon="6.79647">
        <ele>2257</ele>
        <time>2022-07-16T12:56:08Z</time>
      </trkpt>
      <trkpt lat="45.98027" lon="6.79654">
        <ele>2258</ele>
        <time>2022-07-16T12:56:18Z</time>
      </trkpt>
      <trkpt lat="45.98031" lon="6.79652">
        <ele>2259</ele>
        <time>2022-07-16T12:56:28Z</time>
      </trkpt>
      <trkpt lat="45.98034" lon="6.79644">
        <ele>2256</ele>
        <time>2022-07-16T12:59:22Z</time>
      </trkpt>
      <trkpt lat="45.9804" lon="6.79647">
        <ele>2253</ele>
        <time>2022-07-16T13:00:07Z</time>
      </trkpt>
      <trkpt lat="45.98048" lon="6.79654">
        <ele>2250</ele>
        <time>2022-07-16T13:01:07Z</time>
      </trkpt>
      <trkpt lat="45.98054" lon="6.79657">
        <ele>2249</ele>
        <time>2022-07-16T13:01:30Z</time>
      </trkpt>
      <trkpt lat="45.98058" lon="6.79656">
        <ele>2247</ele>
        <time>2022-07-16T13:02:12Z</time>
      </trkpt>
      <trkpt lat="45.98065" lon="6.79664">
        <ele>2245</ele>
        <time>2022-07-16T13:02:21Z</time>
      </trkpt>
      <trkpt lat="45.98076" lon="6.79684">
        <ele>2241</ele>
        <time>2022-07-16T13:02:41Z</time>
      </trkpt>
      <trkpt lat="45.98091" lon="6.79698">
        <ele>2239</ele>
        <time>2022-07-16T13:02:57Z</time>
      </trkpt>
      <trkpt lat="45.98095" lon="6.79701">
        <ele>2239</ele>
        <time>2022-07-16T13:03:01Z</time>
      </trkpt>
      <trkpt lat="45.98099" lon="6.7971">
        <ele>2238</ele>
        <time>2022-07-16T13:03:11Z</time>
      </trkpt>
      <trkpt lat="45.98107" lon="6.79718">
        <ele>2235</ele>
        <time>2022-07-16T13:03:28Z</time>
      </trkpt>
      <trkpt lat="45.98125" lon="6.79736">
        <ele>2230</ele>
        <time>2022-07-16T13:03:53Z</time>
      </trkpt>
      <trkpt lat="45.98135" lon="6.79739">
        <ele>2227</ele>
        <time>2022-07-16T13:04:05Z</time>
      </trkpt>
      <trkpt lat="45.98139" lon="6.79744">
        <ele>2226</ele>
        <time>2022-07-16T13:04:11Z</time>
      </trkpt>
      <trkpt lat="45.98144" lon="6.7975">
        <ele>2224</ele>
        <time>2022-07-16T13:04:20Z</time>
      </trkpt>
      <trkpt lat="45.98148" lon="6.7975">
        <ele>2222</ele>
        <time>2022-07-16T13:04:26Z</time>
      </trkpt>
      <trkpt lat="45.98155" lon="6.79758">
        <ele>2221</ele>
        <time>2022-07-16T13:05:06Z</time>
      </trkpt>
      <trkpt lat="45.98158" lon="6.79764">
        <ele>2219</ele>
        <time>2022-07-16T13:05:13Z</time>
      </trkpt>
      <trkpt lat="45.98161" lon="6.79768">
        <ele>2219</ele>
        <time>2022-07-16T13:05:18Z</time>
      </trkpt>
      <trkpt lat="45.98174" lon="6.79773">
        <ele>2216</ele>
        <time>2022-07-16T13:05:36Z</time>
      </trkpt>
      <trkpt lat="45.98178" lon="6.79773">
        <ele>2215</ele>
        <time>2022-07-16T13:05:41Z</time>
      </trkpt>
      <trkpt lat="45.9819" lon="6.79787">
        <ele>2212</ele>
        <time>2022-07-16T13:05:58Z</time>
      </trkpt>
      <trkpt lat="45.98193" lon="6.79806">
        <ele>2212</ele>
        <time>2022-07-16T13:06:15Z</time>
      </trkpt>
      <trkpt lat="45.98195" lon="6.79811">
        <ele>2212</ele>
        <time>2022-07-16T13:06:20Z</time>
      </trkpt>
      <trkpt lat="45.98202" lon="6.7982">
        <ele>2213</ele>
        <time>2022-07-16T13:06:31Z</time>
      </trkpt>
      <trkpt lat="45.98203" lon="6.79826">
        <ele>2214</ele>
        <time>2022-07-16T13:06:38Z</time>
      </trkpt>
      <trkpt lat="45.98201" lon="6.79833">
        <ele>2214</ele>
        <time>2022-07-16T13:06:43Z</time>
      </trkpt>
      <trkpt lat="45.98202" lon="6.79838">
        <ele>2216</ele>
        <time>2022-07-16T13:08:40Z</time>
      </trkpt>
      <trkpt lat="45.98199" lon="6.79839">
        <ele>2217</ele>
        <time>2022-07-16T13:11:08Z</time>
      </trkpt>
      <trkpt lat="45.98201" lon="6.79843">
        <ele>2217</ele>
        <time>2022-07-16T13:13:40Z</time>
      </trkpt>
      <trkpt lat="45.98211" lon="6.79827">
        <ele>2215</ele>
        <time>2022-07-16T13:13:56Z</time>
      </trkpt>
      <trkpt lat="45.98211" lon="6.79819">
        <ele>2214</ele>
        <time>2022-07-16T13:14:01Z</time>
      </trkpt>
      <trkpt lat="45.9821" lon="6.79812">
        <ele>2213</ele>
        <time>2022-07-16T13:14:06Z</time>
      </trkpt>
      <trkpt lat="45.98204" lon="6.79805">
        <ele>2212</ele>
        <time>2022-07-16T13:14:13Z</time>
      </trkpt>
      <trkpt lat="45.98206" lon="6.79799">
        <ele>2211</ele>
        <time>2022-07-16T13:14:18Z</time>
      </trkpt>
      <trkpt lat="45.98213" lon="6.7979">
        <ele>2210</ele>
        <time>2022-07-16T13:14:27Z</time>
      </trkpt>
      <trkpt lat="45.98219" lon="6.79788">
        <ele>2209</ele>
        <time>2022-07-16T13:14:34Z</time>
      </trkpt>
      <trkpt lat="45.98227" lon="6.7979">
        <ele>2208</ele>
        <time>2022-07-16T13:14:42Z</time>
      </trkpt>
      <trkpt lat="45.98231" lon="6.79787">
        <ele>2206</ele>
        <time>2022-07-16T13:14:49Z</time>
      </trkpt>
      <trkpt lat="45.98235" lon="6.79782">
        <ele>2206</ele>
        <time>2022-07-16T13:14:53Z</time>
      </trkpt>
      <trkpt lat="45.98264" lon="6.79777">
        <ele>2200</ele>
        <time>2022-07-16T13:15:23Z</time>
      </trkpt>
      <trkpt lat="45.98268" lon="6.79777">
        <ele>2199</ele>
        <time>2022-07-16T13:15:27Z</time>
      </trkpt>
      <trkpt lat="45.98274" lon="6.79776">
        <ele>2198</ele>
        <time>2022-07-16T13:15:34Z</time>
      </trkpt>
      <trkpt lat="45.98282" lon="6.79766">
        <ele>2196</ele>
        <time>2022-07-16T13:15:44Z</time>
      </trkpt>
      <trkpt lat="45.98298" lon="6.79763">
        <ele>2195</ele>
        <time>2022-07-16T13:15:58Z</time>
      </trkpt>
      <trkpt lat="45.98302" lon="6.79765">
        <ele>2194</ele>
        <time>2022-07-16T13:16:02Z</time>
      </trkpt>
      <trkpt lat="45.98308" lon="6.79765">
        <ele>2194</ele>
        <time>2022-07-16T13:16:06Z</time>
      </trkpt>
      <trkpt lat="45.98312" lon="6.79764">
        <ele>2193</ele>
        <time>2022-07-16T13:16:10Z</time>
      </trkpt>
      <trkpt lat="45.98323" lon="6.79769">
        <ele>2192</ele>
        <time>2022-07-16T13:16:20Z</time>
      </trkpt>
      <trkpt lat="45.98327" lon="6.7977">
        <ele>2192</ele>
        <time>2022-07-16T13:16:24Z</time>
      </trkpt>
      <trkpt lat="45.9834" lon="6.79782">
        <ele>2188</ele>
        <time>2022-07-16T13:16:44Z</time>
      </trkpt>
      <trkpt lat="45.98342" lon="6.79787">
        <ele>2188</ele>
        <time>2022-07-16T13:16:48Z</time>
      </trkpt>
      <trkpt lat="45.98347" lon="6.79791">
        <ele>2187</ele>
        <time>2022-07-16T13:16:53Z</time>
      </trkpt>
      <trkpt lat="45.98351" lon="6.79791">
        <ele>2186</ele>
        <time>2022-07-16T13:17:01Z</time>
      </trkpt>
      <trkpt lat="45.98355" lon="6.79793">
        <ele>2185</ele>
        <time>2022-07-16T13:17:04Z</time>
      </trkpt>
      <trkpt lat="45.98362" lon="6.7979">
        <ele>2184</ele>
        <time>2022-07-16T13:17:12Z</time>
      </trkpt>
      <trkpt lat="45.98369" lon="6.7979">
        <ele>2182</ele>
        <time>2022-07-16T13:17:21Z</time>
      </trkpt>
      <trkpt lat="45.98374" lon="6.79791">
        <ele>2180</ele>
        <time>2022-07-16T13:17:31Z</time>
      </trkpt>
      <trkpt lat="45.98382" lon="6.79788">
        <ele>2177</ele>
        <time>2022-07-16T13:17:41Z</time>
      </trkpt>
      <trkpt lat="45.98391" lon="6.79789">
        <ele>2175</ele>
        <time>2022-07-16T13:17:53Z</time>
      </trkpt>
      <trkpt lat="45.98394" lon="6.79795">
        <ele>2174</ele>
        <time>2022-07-16T13:17:57Z</time>
      </trkpt>
      <trkpt lat="45.984" lon="6.79791">
        <ele>2172</ele>
        <time>2022-07-16T13:18:05Z</time>
      </trkpt>
      <trkpt lat="45.98408" lon="6.79781">
        <ele>2170</ele>
        <time>2022-07-16T13:18:16Z</time>
      </trkpt>
      <trkpt lat="45.98414" lon="6.7978">
        <ele>2168</ele>
        <time>2022-07-16T13:18:22Z</time>
      </trkpt>
      <trkpt lat="45.98418" lon="6.79782">
        <ele>2167</ele>
        <time>2022-07-16T13:18:26Z</time>
      </trkpt>
      <trkpt lat="45.98423" lon="6.79787">
        <ele>2165</ele>
        <time>2022-07-16T13:18:52Z</time>
      </trkpt>
      <trkpt lat="45.98426" lon="6.79791">
        <ele>2165</ele>
        <time>2022-07-16T13:18:55Z</time>
      </trkpt>
      <trkpt lat="45.9843" lon="6.79794">
        <ele>2165</ele>
        <time>2022-07-16T13:19:00Z</time>
      </trkpt>
      <trkpt lat="45.98432" lon="6.79801">
        <ele>2165</ele>
        <time>2022-07-16T13:19:04Z</time>
      </trkpt>
      <trkpt lat="45.98449" lon="6.7981">
        <ele>2163</ele>
        <time>2022-07-16T13:19:22Z</time>
      </trkpt>
      <trkpt lat="45.98451" lon="6.79816">
        <ele>2163</ele>
        <time>2022-07-16T13:19:26Z</time>
      </trkpt>
      <trkpt lat="45.98456" lon="6.79818">
        <ele>2162</ele>
        <time>2022-07-16T13:19:31Z</time>
      </trkpt>
      <trkpt lat="45.98472" lon="6.79824">
        <ele>2161</ele>
        <time>2022-07-16T13:19:47Z</time>
      </trkpt>
      <trkpt lat="45.98475" lon="6.79817">
        <ele>2160</ele>
        <time>2022-07-16T13:19:50Z</time>
      </trkpt>
      <trkpt lat="45.98481" lon="6.79821">
        <ele>2160</ele>
        <time>2022-07-16T13:19:57Z</time>
      </trkpt>
      <trkpt lat="45.9849" lon="6.79825">
        <ele>2159</ele>
        <time>2022-07-16T13:20:06Z</time>
      </trkpt>
      <trkpt lat="45.98496" lon="6.79822">
        <ele>2158</ele>
        <time>2022-07-16T13:20:13Z</time>
      </trkpt>
      <trkpt lat="45.985" lon="6.79823">
        <ele>2157</ele>
        <time>2022-07-16T13:20:16Z</time>
      </trkpt>
      <trkpt lat="45.98504" lon="6.79823">
        <ele>2157</ele>
        <time>2022-07-16T13:20:20Z</time>
      </trkpt>
      <trkpt lat="45.98511" lon="6.79815">
        <ele>2156</ele>
        <time>2022-07-16T13:20:28Z</time>
      </trkpt>
      <trkpt lat="45.98524" lon="6.79818">
        <ele>2155</ele>
        <time>2022-07-16T13:20:39Z</time>
      </trkpt>
      <trkpt lat="45.98531" lon="6.79822">
        <ele>2153</ele>
        <time>2022-07-16T13:20:48Z</time>
      </trkpt>
      <trkpt lat="45.98541" lon="6.79829">
        <ele>2152</ele>
        <time>2022-07-16T13:20:59Z</time>
      </trkpt>
      <trkpt lat="45.98545" lon="6.79831">
        <ele>2151</ele>
        <time>2022-07-16T13:21:04Z</time>
      </trkpt>
      <trkpt lat="45.98547" lon="6.79836">
        <ele>2151</ele>
        <time>2022-07-16T13:21:07Z</time>
      </trkpt>
      <trkpt lat="45.98548" lon="6.79845">
        <ele>2151</ele>
        <time>2022-07-16T13:21:13Z</time>
      </trkpt>
      <trkpt lat="45.98547" lon="6.79852">
        <ele>2151</ele>
        <time>2022-07-16T13:21:17Z</time>
      </trkpt>
      <trkpt lat="45.98551" lon="6.79863">
        <ele>2150</ele>
        <time>2022-07-16T13:21:25Z</time>
      </trkpt>
      <trkpt lat="45.98552" lon="6.79871">
        <ele>2150</ele>
        <time>2022-07-16T13:21:29Z</time>
      </trkpt>
      <trkpt lat="45.98554" lon="6.79876">
        <ele>2150</ele>
        <time>2022-07-16T13:21:33Z</time>
      </trkpt>
      <trkpt lat="45.98553" lon="6.79883">
        <ele>2150</ele>
        <time>2022-07-16T13:21:36Z</time>
      </trkpt>
      <trkpt lat="45.98554" lon="6.79904">
        <ele>2148</ele>
        <time>2022-07-16T13:21:49Z</time>
      </trkpt>
      <trkpt lat="45.98557" lon="6.7991">
        <ele>2147</ele>
        <time>2022-07-16T13:21:54Z</time>
      </trkpt>
      <trkpt lat="45.9856" lon="6.79916">
        <ele>2147</ele>
        <time>2022-07-16T13:21:57Z</time>
      </trkpt>
      <trkpt lat="45.98564" lon="6.79935">
        <ele>2146</ele>
        <time>2022-07-16T13:22:09Z</time>
      </trkpt>
      <trkpt lat="45.98567" lon="6.79941">
        <ele>2146</ele>
        <time>2022-07-16T13:22:13Z</time>
      </trkpt>
      <trkpt lat="45.98571" lon="6.79945">
        <ele>2145</ele>
        <time>2022-07-16T13:22:17Z</time>
      </trkpt>
      <trkpt lat="45.98576" lon="6.79947">
        <ele>2145</ele>
        <time>2022-07-16T13:22:20Z</time>
      </trkpt>
      <trkpt lat="45.9858" lon="6.79948">
        <ele>2145</ele>
        <time>2022-07-16T13:22:23Z</time>
      </trkpt>
      <trkpt lat="45.98585" lon="6.79948">
        <ele>2145</ele>
        <time>2022-07-16T13:22:27Z</time>
      </trkpt>
      <trkpt lat="45.98589" lon="6.79943">
        <ele>2144</ele>
        <time>2022-07-16T13:22:31Z</time>
      </trkpt>
      <trkpt lat="45.98594" lon="6.79943">
        <ele>2143</ele>
        <time>2022-07-16T13:22:36Z</time>
      </trkpt>
      <trkpt lat="45.98601" lon="6.79945">
        <ele>2142</ele>
        <time>2022-07-16T13:22:43Z</time>
      </trkpt>
      <trkpt lat="45.98606" lon="6.79944">
        <ele>2141</ele>
        <time>2022-07-16T13:22:47Z</time>
      </trkpt>
      <trkpt lat="45.9861" lon="6.7995">
        <ele>2142</ele>
        <time>2022-07-16T13:22:55Z</time>
      </trkpt>
      <trkpt lat="45.98614" lon="6.79959">
        <ele>2141</ele>
        <time>2022-07-16T13:23:03Z</time>
      </trkpt>
      <trkpt lat="45.98617" lon="6.79963">
        <ele>2140</ele>
        <time>2022-07-16T13:23:06Z</time>
      </trkpt>
      <trkpt lat="45.98631" lon="6.79974">
        <ele>2138</ele>
        <time>2022-07-16T13:23:22Z</time>
      </trkpt>
      <trkpt lat="45.98638" lon="6.79971">
        <ele>2136</ele>
        <time>2022-07-16T13:23:29Z</time>
      </trkpt>
      <trkpt lat="45.98642" lon="6.79974">
        <ele>2135</ele>
        <time>2022-07-16T13:23:37Z</time>
      </trkpt>
      <trkpt lat="45.98645" lon="6.79979">
        <ele>2134</ele>
        <time>2022-07-16T13:23:42Z</time>
      </trkpt>
      <trkpt lat="45.9865" lon="6.79978">
        <ele>2133</ele>
        <time>2022-07-16T13:23:50Z</time>
      </trkpt>
      <trkpt lat="45.98655" lon="6.7998">
        <ele>2130</ele>
        <time>2022-07-16T13:24:00Z</time>
      </trkpt>
      <trkpt lat="45.98662" lon="6.79978">
        <ele>2128</ele>
        <time>2022-07-16T13:24:10Z</time>
      </trkpt>
      <trkpt lat="45.98671" lon="6.79975">
        <ele>2126</ele>
        <time>2022-07-16T13:24:23Z</time>
      </trkpt>
      <trkpt lat="45.98677" lon="6.79981">
        <ele>2123</ele>
        <time>2022-07-16T13:24:35Z</time>
      </trkpt>
      <trkpt lat="45.98679" lon="6.79987">
        <ele>2122</ele>
        <time>2022-07-16T13:24:40Z</time>
      </trkpt>
      <trkpt lat="45.98695" lon="6.79982">
        <ele>2119</ele>
        <time>2022-07-16T13:24:57Z</time>
      </trkpt>
      <trkpt lat="45.987" lon="6.79978">
        <ele>2117</ele>
        <time>2022-07-16T13:25:04Z</time>
      </trkpt>
      <trkpt lat="45.98707" lon="6.79983">
        <ele>2115</ele>
        <time>2022-07-16T13:25:16Z</time>
      </trkpt>
      <trkpt lat="45.9871" lon="6.79978">
        <ele>2114</ele>
        <time>2022-07-16T13:25:21Z</time>
      </trkpt>
      <trkpt lat="45.98714" lon="6.79976">
        <ele>2113</ele>
        <time>2022-07-16T13:25:25Z</time>
      </trkpt>
      <trkpt lat="45.98727" lon="6.79975">
        <ele>2110</ele>
        <time>2022-07-16T13:25:40Z</time>
      </trkpt>
      <trkpt lat="45.98729" lon="6.7997">
        <ele>2110</ele>
        <time>2022-07-16T13:25:43Z</time>
      </trkpt>
      <trkpt lat="45.98734" lon="6.7997">
        <ele>2108</ele>
        <time>2022-07-16T13:25:50Z</time>
      </trkpt>
      <trkpt lat="45.98741" lon="6.79973">
        <ele>2105</ele>
        <time>2022-07-16T13:26:05Z</time>
      </trkpt>
      <trkpt lat="45.98746" lon="6.79974">
        <ele>2104</ele>
        <time>2022-07-16T13:26:09Z</time>
      </trkpt>
      <trkpt lat="45.98752" lon="6.79972">
        <ele>2103</ele>
        <time>2022-07-16T13:26:16Z</time>
      </trkpt>
      <trkpt lat="45.98756" lon="6.7997">
        <ele>2101</ele>
        <time>2022-07-16T13:26:24Z</time>
      </trkpt>
      <trkpt lat="45.98761" lon="6.79967">
        <ele>2099</ele>
        <time>2022-07-16T13:26:42Z</time>
      </trkpt>
      <trkpt lat="45.98764" lon="6.79962">
        <ele>2098</ele>
        <time>2022-07-16T13:26:46Z</time>
      </trkpt>
      <trkpt lat="45.9877" lon="6.79959">
        <ele>2097</ele>
        <time>2022-07-16T13:26:52Z</time>
      </trkpt>
      <trkpt lat="45.98774" lon="6.79955">
        <ele>2096</ele>
        <time>2022-07-16T13:26:57Z</time>
      </trkpt>
      <trkpt lat="45.98779" lon="6.79952">
        <ele>2095</ele>
        <time>2022-07-16T13:27:06Z</time>
      </trkpt>
      <trkpt lat="45.9878" lon="6.79946">
        <ele>2092</ele>
        <time>2022-07-16T13:27:16Z</time>
      </trkpt>
      <trkpt lat="45.98788" lon="6.79932">
        <ele>2087</ele>
        <time>2022-07-16T13:27:33Z</time>
      </trkpt>
      <trkpt lat="45.98793" lon="6.7993">
        <ele>2087</ele>
        <time>2022-07-16T13:27:38Z</time>
      </trkpt>
      <trkpt lat="45.98794" lon="6.79922">
        <ele>2085</ele>
        <time>2022-07-16T13:27:46Z</time>
      </trkpt>
      <trkpt lat="45.98799" lon="6.7992">
        <ele>2084</ele>
        <time>2022-07-16T13:27:51Z</time>
      </trkpt>
      <trkpt lat="45.98799" lon="6.79923">
        <ele>2081</ele>
        <time>2022-07-16T13:28:06Z</time>
      </trkpt>
      <trkpt lat="45.98798" lon="6.79935">
        <ele>2080</ele>
        <time>2022-07-16T13:28:15Z</time>
      </trkpt>
      <trkpt lat="45.98795" lon="6.79951">
        <ele>2077</ele>
        <time>2022-07-16T13:28:28Z</time>
      </trkpt>
      <trkpt lat="45.98799" lon="6.79972">
        <ele>2075</ele>
        <time>2022-07-16T13:28:42Z</time>
      </trkpt>
      <trkpt lat="45.988" lon="6.79981">
        <ele>2075</ele>
        <time>2022-07-16T13:28:49Z</time>
      </trkpt>
      <trkpt lat="45.98806" lon="6.79986">
        <ele>2075</ele>
        <time>2022-07-16T13:28:56Z</time>
      </trkpt>
      <trkpt lat="45.98809" lon="6.7999">
        <ele>2075</ele>
        <time>2022-07-16T13:29:00Z</time>
      </trkpt>
      <trkpt lat="45.98813" lon="6.79993">
        <ele>2075</ele>
        <time>2022-07-16T13:29:04Z</time>
      </trkpt>
      <trkpt lat="45.98819" lon="6.79994">
        <ele>2074</ele>
        <time>2022-07-16T13:29:10Z</time>
      </trkpt>
      <trkpt lat="45.98821" lon="6.79999">
        <ele>2073</ele>
        <time>2022-07-16T13:29:13Z</time>
      </trkpt>
      <trkpt lat="45.98828" lon="6.8">
        <ele>2073</ele>
        <time>2022-07-16T13:29:19Z</time>
      </trkpt>
      <trkpt lat="45.98834" lon="6.80006">
        <ele>2072</ele>
        <time>2022-07-16T13:29:28Z</time>
      </trkpt>
      <trkpt lat="45.98837" lon="6.80011">
        <ele>2072</ele>
        <time>2022-07-16T13:29:32Z</time>
      </trkpt>
      <trkpt lat="45.98841" lon="6.80014">
        <ele>2072</ele>
        <time>2022-07-16T13:29:36Z</time>
      </trkpt>
      <trkpt lat="45.98844" lon="6.80027">
        <ele>2072</ele>
        <time>2022-07-16T13:29:46Z</time>
      </trkpt>
      <trkpt lat="45.98848" lon="6.80027">
        <ele>2072</ele>
        <time>2022-07-16T13:29:50Z</time>
      </trkpt>
      <trkpt lat="45.98853" lon="6.80023">
        <ele>2071</ele>
        <time>2022-07-16T13:29:54Z</time>
      </trkpt>
      <trkpt lat="45.98857" lon="6.80025">
        <ele>2071</ele>
        <time>2022-07-16T13:30:01Z</time>
      </trkpt>
      <trkpt lat="45.98861" lon="6.80027">
        <ele>2069</ele>
        <time>2022-07-16T13:30:16Z</time>
      </trkpt>
      <trkpt lat="45.9887" lon="6.8003">
        <ele>2067</ele>
        <time>2022-07-16T13:30:26Z</time>
      </trkpt>
      <trkpt lat="45.98875" lon="6.80033">
        <ele>2066</ele>
        <time>2022-07-16T13:30:33Z</time>
      </trkpt>
      <trkpt lat="45.9888" lon="6.80034">
        <ele>2065</ele>
        <time>2022-07-16T13:30:52Z</time>
      </trkpt>
      <trkpt lat="45.98887" lon="6.80037">
        <ele>2065</ele>
        <time>2022-07-16T13:31:07Z</time>
      </trkpt>
      <trkpt lat="45.98897" lon="6.80051">
        <ele>2064</ele>
        <time>2022-07-16T13:31:19Z</time>
      </trkpt>
      <trkpt lat="45.98906" lon="6.80055">
        <ele>2063</ele>
        <time>2022-07-16T13:31:27Z</time>
      </trkpt>
      <trkpt lat="45.98909" lon="6.80058">
        <ele>2063</ele>
        <time>2022-07-16T13:31:31Z</time>
      </trkpt>
      <trkpt lat="45.98915" lon="6.80068">
        <ele>2062</ele>
        <time>2022-07-16T13:31:38Z</time>
      </trkpt>
      <trkpt lat="45.98923" lon="6.80072">
        <ele>2062</ele>
        <time>2022-07-16T13:31:46Z</time>
      </trkpt>
      <trkpt lat="45.98927" lon="6.80072">
        <ele>2062</ele>
        <time>2022-07-16T13:31:50Z</time>
      </trkpt>
      <trkpt lat="45.98931" lon="6.80072">
        <ele>2061</ele>
        <time>2022-07-16T13:31:54Z</time>
      </trkpt>
      <trkpt lat="45.98935" lon="6.80075">
        <ele>2061</ele>
        <time>2022-07-16T13:31:58Z</time>
      </trkpt>
      <trkpt lat="45.98938" lon="6.8008">
        <ele>2061</ele>
        <time>2022-07-16T13:32:01Z</time>
      </trkpt>
      <trkpt lat="45.98942" lon="6.80082">
        <ele>2061</ele>
        <time>2022-07-16T13:32:06Z</time>
      </trkpt>
      <trkpt lat="45.9895" lon="6.8009">
        <ele>2060</ele>
        <time>2022-07-16T13:32:14Z</time>
      </trkpt>
      <trkpt lat="45.98954" lon="6.80092">
        <ele>2060</ele>
        <time>2022-07-16T13:32:18Z</time>
      </trkpt>
      <trkpt lat="45.98956" lon="6.80098">
        <ele>2059</ele>
        <time>2022-07-16T13:32:21Z</time>
      </trkpt>
      <trkpt lat="45.98965" lon="6.80107">
        <ele>2058</ele>
        <time>2022-07-16T13:32:31Z</time>
      </trkpt>
      <trkpt lat="45.9897" lon="6.8011">
        <ele>2058</ele>
        <time>2022-07-16T13:32:35Z</time>
      </trkpt>
      <trkpt lat="45.98973" lon="6.80114">
        <ele>2058</ele>
        <time>2022-07-16T13:32:39Z</time>
      </trkpt>
      <trkpt lat="45.98978" lon="6.80117">
        <ele>2058</ele>
        <time>2022-07-16T13:32:45Z</time>
      </trkpt>
      <trkpt lat="45.98987" lon="6.80108">
        <ele>2058</ele>
        <time>2022-07-16T13:32:52Z</time>
      </trkpt>
      <trkpt lat="45.98991" lon="6.80109">
        <ele>2058</ele>
        <time>2022-07-16T13:32:55Z</time>
      </trkpt>
      <trkpt lat="45.98995" lon="6.80107">
        <ele>2057</ele>
        <time>2022-07-16T13:32:59Z</time>
      </trkpt>
      <trkpt lat="45.99002" lon="6.80108">
        <ele>2057</ele>
        <time>2022-07-16T13:33:06Z</time>
      </trkpt>
      <trkpt lat="45.99012" lon="6.80106">
        <ele>2057</ele>
        <time>2022-07-16T13:33:15Z</time>
      </trkpt>
      <trkpt lat="45.99016" lon="6.80106">
        <ele>2057</ele>
        <time>2022-07-16T13:33:19Z</time>
      </trkpt>
      <trkpt lat="45.99026" lon="6.80105">
        <ele>2057</ele>
        <time>2022-07-16T13:33:28Z</time>
      </trkpt>
      <trkpt lat="45.99031" lon="6.80103">
        <ele>2057</ele>
        <time>2022-07-16T13:33:33Z</time>
      </trkpt>
      <trkpt lat="45.99041" lon="6.80104">
        <ele>2057</ele>
        <time>2022-07-16T13:33:42Z</time>
      </trkpt>
      <trkpt lat="45.99045" lon="6.801">
        <ele>2057</ele>
        <time>2022-07-16T13:33:46Z</time>
      </trkpt>
      <trkpt lat="45.99058" lon="6.8009">
        <ele>2057</ele>
        <time>2022-07-16T13:33:58Z</time>
      </trkpt>
      <trkpt lat="45.99059" lon="6.80094">
        <ele>2057</ele>
        <time>2022-07-16T13:34:34Z</time>
      </trkpt>
      <trkpt lat="45.99058" lon="6.801">
        <ele>2057</ele>
        <time>2022-07-16T13:34:39Z</time>
      </trkpt>
      <trkpt lat="45.99058" lon="6.80099">
        <ele>2058</ele>
        <time>2022-07-16T13:35:11Z</time>
      </trkpt>
      <trkpt lat="45.99059" lon="6.80092">
        <ele>2058</ele>
        <time>2022-07-16T13:35:16Z</time>
      </trkpt>
      <trkpt lat="45.99058" lon="6.80083">
        <ele>2057</ele>
        <time>2022-07-16T13:35:25Z</time>
      </trkpt>
      <trkpt lat="45.99058" lon="6.80088">
        <ele>2060</ele>
        <time>2022-07-16T13:48:51Z</time>
      </trkpt>
      <trkpt lat="45.99056" lon="6.80088">
        <ele>2059</ele>
        <time>2022-07-16T13:49:29Z</time>
      </trkpt>
      <trkpt lat="45.99055" lon="6.80084">
        <ele>2059</ele>
        <time>2022-07-16T13:49:55Z</time>
      </trkpt>
      <trkpt lat="45.9906" lon="6.80085">
        <ele>2059</ele>
        <time>2022-07-16T13:50:15Z</time>
      </trkpt>
      <trkpt lat="45.9906" lon="6.80086">
        <ele>2059</ele>
        <time>2022-07-16T13:51:20Z</time>
      </trkpt>
      <trkpt lat="45.99064" lon="6.80086">
        <ele>2061</ele>
        <time>2022-07-16T13:53:46Z</time>
      </trkpt>
      <trkpt lat="45.99069" lon="6.80091">
        <ele>2061</ele>
        <time>2022-07-16T13:53:51Z</time>
      </trkpt>
      <trkpt lat="45.99073" lon="6.80091">
        <ele>2061</ele>
        <time>2022-07-16T13:53:56Z</time>
      </trkpt>
      <trkpt lat="45.99078" lon="6.80093">
        <ele>2061</ele>
        <time>2022-07-16T13:54:01Z</time>
      </trkpt>
      <trkpt lat="45.99107" lon="6.80088">
        <ele>2061</ele>
        <time>2022-07-16T13:54:25Z</time>
      </trkpt>
      <trkpt lat="45.99111" lon="6.80085">
        <ele>2061</ele>
        <time>2022-07-16T13:54:30Z</time>
      </trkpt>
      <trkpt lat="45.99119" lon="6.80084">
        <ele>2061</ele>
        <time>2022-07-16T13:54:38Z</time>
      </trkpt>
      <trkpt lat="45.99134" lon="6.80077">
        <ele>2061</ele>
        <time>2022-07-16T13:54:50Z</time>
      </trkpt>
      <trkpt lat="45.9914" lon="6.80077">
        <ele>2061</ele>
        <time>2022-07-16T13:54:56Z</time>
      </trkpt>
      <trkpt lat="45.99167" lon="6.80067">
        <ele>2061</ele>
        <time>2022-07-16T13:55:21Z</time>
      </trkpt>
      <trkpt lat="45.99171" lon="6.80063">
        <ele>2061</ele>
        <time>2022-07-16T13:55:26Z</time>
      </trkpt>
      <trkpt lat="45.99207" lon="6.80042">
        <ele>2061</ele>
        <time>2022-07-16T13:55:59Z</time>
      </trkpt>
      <trkpt lat="45.99231" lon="6.80032">
        <ele>2061</ele>
        <time>2022-07-16T13:56:19Z</time>
      </trkpt>
      <trkpt lat="45.99235" lon="6.80029">
        <ele>2061</ele>
        <time>2022-07-16T13:56:23Z</time>
      </trkpt>
      <trkpt lat="45.99269" lon="6.80018">
        <ele>2061</ele>
        <time>2022-07-16T13:56:53Z</time>
      </trkpt>
      <trkpt lat="45.99279" lon="6.80015">
        <ele>2061</ele>
        <time>2022-07-16T13:57:02Z</time>
      </trkpt>
      <trkpt lat="45.99288" lon="6.80009">
        <ele>2061</ele>
        <time>2022-07-16T13:57:10Z</time>
      </trkpt>
      <trkpt lat="45.99315" lon="6.79997">
        <ele>2060</ele>
        <time>2022-07-16T13:57:34Z</time>
      </trkpt>
      <trkpt lat="45.99329" lon="6.79989">
        <ele>2060</ele>
        <time>2022-07-16T13:57:47Z</time>
      </trkpt>
      <trkpt lat="45.99343" lon="6.79981">
        <ele>2060</ele>
        <time>2022-07-16T13:58:01Z</time>
      </trkpt>
      <trkpt lat="45.9935" lon="6.79972">
        <ele>2059</ele>
        <time>2022-07-16T13:58:09Z</time>
      </trkpt>
      <trkpt lat="45.9936" lon="6.7997">
        <ele>2060</ele>
        <time>2022-07-16T13:58:18Z</time>
      </trkpt>
      <trkpt lat="45.99363" lon="6.79967">
        <ele>2060</ele>
        <time>2022-07-16T13:58:22Z</time>
      </trkpt>
      <trkpt lat="45.99366" lon="6.79961">
        <ele>2060</ele>
        <time>2022-07-16T13:58:26Z</time>
      </trkpt>
      <trkpt lat="45.99367" lon="6.79942">
        <ele>2061</ele>
        <time>2022-07-16T13:58:39Z</time>
      </trkpt>
      <trkpt lat="45.99368" lon="6.79942">
        <ele>2061</ele>
        <time>2022-07-16T13:59:00Z</time>
      </trkpt>
      <trkpt lat="45.9937" lon="6.79948">
        <ele>2061</ele>
        <time>2022-07-16T13:59:05Z</time>
      </trkpt>
      <trkpt lat="45.99373" lon="6.79954">
        <ele>2061</ele>
        <time>2022-07-16T13:59:10Z</time>
      </trkpt>
      <trkpt lat="45.99377" lon="6.79957">
        <ele>2061</ele>
        <time>2022-07-16T13:59:14Z</time>
      </trkpt>
      <trkpt lat="45.99381" lon="6.79953">
        <ele>2061</ele>
        <time>2022-07-16T13:59:19Z</time>
      </trkpt>
      <trkpt lat="45.99385" lon="6.79952">
        <ele>2062</ele>
        <time>2022-07-16T13:59:23Z</time>
      </trkpt>
      <trkpt lat="45.9939" lon="6.79952">
        <ele>2062</ele>
        <time>2022-07-16T13:59:28Z</time>
      </trkpt>
      <trkpt lat="45.99394" lon="6.7995">
        <ele>2062</ele>
        <time>2022-07-16T13:59:32Z</time>
      </trkpt>
      <trkpt lat="45.99399" lon="6.7995">
        <ele>2062</ele>
        <time>2022-07-16T13:59:36Z</time>
      </trkpt>
      <trkpt lat="45.99404" lon="6.7995">
        <ele>2062</ele>
        <time>2022-07-16T13:59:40Z</time>
      </trkpt>
      <trkpt lat="45.99411" lon="6.79944">
        <ele>2062</ele>
        <time>2022-07-16T13:59:48Z</time>
      </trkpt>
      <trkpt lat="45.99414" lon="6.79939">
        <ele>2062</ele>
        <time>2022-07-16T13:59:52Z</time>
      </trkpt>
      <trkpt lat="45.99417" lon="6.79936">
        <ele>2062</ele>
        <time>2022-07-16T13:59:56Z</time>
      </trkpt>
      <trkpt lat="45.99422" lon="6.79933">
        <ele>2062</ele>
        <time>2022-07-16T14:00:04Z</time>
      </trkpt>
      <trkpt lat="45.99427" lon="6.79925">
        <ele>2062</ele>
        <time>2022-07-16T14:00:16Z</time>
      </trkpt>
      <trkpt lat="45.9943" lon="6.7992">
        <ele>2063</ele>
        <time>2022-07-16T14:00:19Z</time>
      </trkpt>
      <trkpt lat="45.99432" lon="6.79913">
        <ele>2063</ele>
        <time>2022-07-16T14:00:24Z</time>
      </trkpt>
      <trkpt lat="45.99432" lon="6.79906">
        <ele>2063</ele>
        <time>2022-07-16T14:00:29Z</time>
      </trkpt>
      <trkpt lat="45.99429" lon="6.79902">
        <ele>2064</ele>
        <time>2022-07-16T14:00:33Z</time>
      </trkpt>
      <trkpt lat="45.99425" lon="6.79898">
        <ele>2064</ele>
        <time>2022-07-16T14:00:37Z</time>
      </trkpt>
      <trkpt lat="45.9942" lon="6.79887">
        <ele>2064</ele>
        <time>2022-07-16T14:00:47Z</time>
      </trkpt>
      <trkpt lat="45.99418" lon="6.79881">
        <ele>2064</ele>
        <time>2022-07-16T14:00:52Z</time>
      </trkpt>
      <trkpt lat="45.99415" lon="6.79877">
        <ele>2064</ele>
        <time>2022-07-16T14:00:56Z</time>
      </trkpt>
      <trkpt lat="45.99412" lon="6.79871">
        <ele>2064</ele>
        <time>2022-07-16T14:01:00Z</time>
      </trkpt>
      <trkpt lat="45.99408" lon="6.79868">
        <ele>2063</ele>
        <time>2022-07-16T14:01:04Z</time>
      </trkpt>
      <trkpt lat="45.99405" lon="6.79864">
        <ele>2063</ele>
        <time>2022-07-16T14:01:08Z</time>
      </trkpt>
      <trkpt lat="45.994" lon="6.79851">
        <ele>2063</ele>
        <time>2022-07-16T14:01:18Z</time>
      </trkpt>
      <trkpt lat="45.99396" lon="6.7985">
        <ele>2062</ele>
        <time>2022-07-16T14:01:22Z</time>
      </trkpt>
      <trkpt lat="45.99391" lon="6.79843">
        <ele>2062</ele>
        <time>2022-07-16T14:01:29Z</time>
      </trkpt>
      <trkpt lat="45.99391" lon="6.79835">
        <ele>2063</ele>
        <time>2022-07-16T14:01:35Z</time>
      </trkpt>
      <trkpt lat="45.9939" lon="6.79829">
        <ele>2062</ele>
        <time>2022-07-16T14:01:39Z</time>
      </trkpt>
      <trkpt lat="45.99385" lon="6.79828">
        <ele>2062</ele>
        <time>2022-07-16T14:01:43Z</time>
      </trkpt>
      <trkpt lat="45.9938" lon="6.79826">
        <ele>2063</ele>
        <time>2022-07-16T14:01:48Z</time>
      </trkpt>
      <trkpt lat="45.99362" lon="6.79815">
        <ele>2063</ele>
        <time>2022-07-16T14:02:07Z</time>
      </trkpt>
      <trkpt lat="45.99365" lon="6.7981">
        <ele>2063</ele>
        <time>2022-07-16T14:02:12Z</time>
      </trkpt>
      <trkpt lat="45.99364" lon="6.79802">
        <ele>2062</ele>
        <time>2022-07-16T14:02:20Z</time>
      </trkpt>
      <trkpt lat="45.99359" lon="6.798">
        <ele>2063</ele>
        <time>2022-07-16T14:02:27Z</time>
      </trkpt>
      <trkpt lat="45.99355" lon="6.79796">
        <ele>2063</ele>
        <time>2022-07-16T14:03:37Z</time>
      </trkpt>
      <trkpt lat="45.99347" lon="6.79789">
        <ele>2063</ele>
        <time>2022-07-16T14:04:21Z</time>
      </trkpt>
      <trkpt lat="45.99334" lon="6.79784">
        <ele>2062</ele>
        <time>2022-07-16T14:04:34Z</time>
      </trkpt>
      <trkpt lat="45.99321" lon="6.79786">
        <ele>2062</ele>
        <time>2022-07-16T14:04:45Z</time>
      </trkpt>
      <trkpt lat="45.99317" lon="6.79783">
        <ele>2062</ele>
        <time>2022-07-16T14:04:49Z</time>
      </trkpt>
      <trkpt lat="45.99313" lon="6.79781">
        <ele>2061</ele>
        <time>2022-07-16T14:04:53Z</time>
      </trkpt>
      <trkpt lat="45.99304" lon="6.79782">
        <ele>2061</ele>
        <time>2022-07-16T14:04:59Z</time>
      </trkpt>
      <trkpt lat="45.993" lon="6.79784">
        <ele>2061</ele>
        <time>2022-07-16T14:05:03Z</time>
      </trkpt>
      <trkpt lat="45.99296" lon="6.79787">
        <ele>2061</ele>
        <time>2022-07-16T14:05:08Z</time>
      </trkpt>
      <trkpt lat="45.99281" lon="6.7979">
        <ele>2061</ele>
        <time>2022-07-16T14:05:20Z</time>
      </trkpt>
      <trkpt lat="45.99275" lon="6.79792">
        <ele>2061</ele>
        <time>2022-07-16T14:05:26Z</time>
      </trkpt>
      <trkpt lat="45.99272" lon="6.79796">
        <ele>2062</ele>
        <time>2022-07-16T14:05:30Z</time>
      </trkpt>
      <trkpt lat="45.99267" lon="6.79794">
        <ele>2062</ele>
        <time>2022-07-16T14:05:34Z</time>
      </trkpt>
      <trkpt lat="45.99261" lon="6.79798">
        <ele>2062</ele>
        <time>2022-07-16T14:05:40Z</time>
      </trkpt>
      <trkpt lat="45.99245" lon="6.79796">
        <ele>2063</ele>
        <time>2022-07-16T14:05:56Z</time>
      </trkpt>
      <trkpt lat="45.9924" lon="6.79788">
        <ele>2063</ele>
        <time>2022-07-16T14:06:01Z</time>
      </trkpt>
      <trkpt lat="45.99231" lon="6.79778">
        <ele>2063</ele>
        <time>2022-07-16T14:06:13Z</time>
      </trkpt>
      <trkpt lat="45.99225" lon="6.79772">
        <ele>2063</ele>
        <time>2022-07-16T14:06:20Z</time>
      </trkpt>
      <trkpt lat="45.99216" lon="6.79766">
        <ele>2063</ele>
        <time>2022-07-16T14:06:29Z</time>
      </trkpt>
      <trkpt lat="45.99213" lon="6.79763">
        <ele>2063</ele>
        <time>2022-07-16T14:06:33Z</time>
      </trkpt>
      <trkpt lat="45.99211" lon="6.79756">
        <ele>2063</ele>
        <time>2022-07-16T14:06:37Z</time>
      </trkpt>
      <trkpt lat="45.9921" lon="6.79724">
        <ele>2063</ele>
        <time>2022-07-16T14:06:59Z</time>
      </trkpt>
      <trkpt lat="45.99213" lon="6.79714">
        <ele>2064</ele>
        <time>2022-07-16T14:07:07Z</time>
      </trkpt>
      <trkpt lat="45.99215" lon="6.79706">
        <ele>2063</ele>
        <time>2022-07-16T14:07:12Z</time>
      </trkpt>
      <trkpt lat="45.99214" lon="6.79698">
        <ele>2063</ele>
        <time>2022-07-16T14:07:16Z</time>
      </trkpt>
      <trkpt lat="45.99212" lon="6.7969">
        <ele>2063</ele>
        <time>2022-07-16T14:07:21Z</time>
      </trkpt>
      <trkpt lat="45.99214" lon="6.79684">
        <ele>2064</ele>
        <time>2022-07-16T14:07:25Z</time>
      </trkpt>
      <trkpt lat="45.99215" lon="6.79676">
        <ele>2064</ele>
        <time>2022-07-16T14:07:30Z</time>
      </trkpt>
      <trkpt lat="45.99215" lon="6.7966">
        <ele>2064</ele>
        <time>2022-07-16T14:07:40Z</time>
      </trkpt>
      <trkpt lat="45.99217" lon="6.79648">
        <ele>2064</ele>
        <time>2022-07-16T14:07:48Z</time>
      </trkpt>
      <trkpt lat="45.99221" lon="6.7964">
        <ele>2064</ele>
        <time>2022-07-16T14:07:53Z</time>
      </trkpt>
      <trkpt lat="45.99219" lon="6.79633">
        <ele>2063</ele>
        <time>2022-07-16T14:07:57Z</time>
      </trkpt>
      <trkpt lat="45.99221" lon="6.79625">
        <ele>2063</ele>
        <time>2022-07-16T14:08:02Z</time>
      </trkpt>
      <trkpt lat="45.99225" lon="6.79616">
        <ele>2063</ele>
        <time>2022-07-16T14:08:09Z</time>
      </trkpt>
      <trkpt lat="45.99225" lon="6.79608">
        <ele>2063</ele>
        <time>2022-07-16T14:08:14Z</time>
      </trkpt>
      <trkpt lat="45.99228" lon="6.79601">
        <ele>2062</ele>
        <time>2022-07-16T14:08:17Z</time>
      </trkpt>
      <trkpt lat="45.99227" lon="6.79593">
        <ele>2062</ele>
        <time>2022-07-16T14:08:22Z</time>
      </trkpt>
      <trkpt lat="45.99225" lon="6.79585">
        <ele>2062</ele>
        <time>2022-07-16T14:08:26Z</time>
      </trkpt>
      <trkpt lat="45.99226" lon="6.79578">
        <ele>2062</ele>
        <time>2022-07-16T14:08:31Z</time>
      </trkpt>
      <trkpt lat="45.99231" lon="6.79573">
        <ele>2062</ele>
        <time>2022-07-16T14:08:35Z</time>
      </trkpt>
      <trkpt lat="45.99231" lon="6.79565">
        <ele>2062</ele>
        <time>2022-07-16T14:08:40Z</time>
      </trkpt>
      <trkpt lat="45.9923" lon="6.79558">
        <ele>2062</ele>
        <time>2022-07-16T14:08:44Z</time>
      </trkpt>
      <trkpt lat="45.9923" lon="6.79551">
        <ele>2062</ele>
        <time>2022-07-16T14:08:48Z</time>
      </trkpt>
      <trkpt lat="45.99232" lon="6.79544">
        <ele>2062</ele>
        <time>2022-07-16T14:08:53Z</time>
      </trkpt>
      <trkpt lat="45.9923" lon="6.79537">
        <ele>2062</ele>
        <time>2022-07-16T14:08:58Z</time>
      </trkpt>
      <trkpt lat="45.99226" lon="6.7953">
        <ele>2062</ele>
        <time>2022-07-16T14:09:02Z</time>
      </trkpt>
      <trkpt lat="45.99229" lon="6.79524">
        <ele>2062</ele>
        <time>2022-07-16T14:09:06Z</time>
      </trkpt>
      <trkpt lat="45.99228" lon="6.79515">
        <ele>2063</ele>
        <time>2022-07-16T14:09:12Z</time>
      </trkpt>
      <trkpt lat="45.99226" lon="6.79508">
        <ele>2062</ele>
        <time>2022-07-16T14:09:16Z</time>
      </trkpt>
      <trkpt lat="45.99227" lon="6.795">
        <ele>2062</ele>
        <time>2022-07-16T14:09:21Z</time>
      </trkpt>
      <trkpt lat="45.99226" lon="6.79492">
        <ele>2062</ele>
        <time>2022-07-16T14:09:26Z</time>
      </trkpt>
      <trkpt lat="45.99225" lon="6.79485">
        <ele>2062</ele>
        <time>2022-07-16T14:09:30Z</time>
      </trkpt>
      <trkpt lat="45.99225" lon="6.79478">
        <ele>2062</ele>
        <time>2022-07-16T14:09:34Z</time>
      </trkpt>
      <trkpt lat="45.99224" lon="6.79471">
        <ele>2062</ele>
        <time>2022-07-16T14:09:39Z</time>
      </trkpt>
      <trkpt lat="45.99221" lon="6.79465">
        <ele>2062</ele>
        <time>2022-07-16T14:09:43Z</time>
      </trkpt>
      <trkpt lat="45.9922" lon="6.79458">
        <ele>2062</ele>
        <time>2022-07-16T14:09:48Z</time>
      </trkpt>
      <trkpt lat="45.9922" lon="6.79451">
        <ele>2062</ele>
        <time>2022-07-16T14:09:52Z</time>
      </trkpt>
      <trkpt lat="45.9922" lon="6.79442">
        <ele>2062</ele>
        <time>2022-07-16T14:09:58Z</time>
      </trkpt>
      <trkpt lat="45.99222" lon="6.79434">
        <ele>2062</ele>
        <time>2022-07-16T14:10:03Z</time>
      </trkpt>
      <trkpt lat="45.99221" lon="6.79424">
        <ele>2062</ele>
        <time>2022-07-16T14:10:11Z</time>
      </trkpt>
      <trkpt lat="45.99215" lon="6.79397">
        <ele>2062</ele>
        <time>2022-07-16T14:10:27Z</time>
      </trkpt>
      <trkpt lat="45.99217" lon="6.79391">
        <ele>2062</ele>
        <time>2022-07-16T14:10:32Z</time>
      </trkpt>
      <trkpt lat="45.99216" lon="6.79384">
        <ele>2062</ele>
        <time>2022-07-16T14:10:37Z</time>
      </trkpt>
      <trkpt lat="45.99213" lon="6.7937">
        <ele>2062</ele>
        <time>2022-07-16T14:10:46Z</time>
      </trkpt>
      <trkpt lat="45.99216" lon="6.79357">
        <ele>2061</ele>
        <time>2022-07-16T14:10:55Z</time>
      </trkpt>
      <trkpt lat="45.9922" lon="6.7934">
        <ele>2063</ele>
        <time>2022-07-16T14:11:07Z</time>
      </trkpt>
      <trkpt lat="45.99223" lon="6.79332">
        <ele>2062</ele>
        <time>2022-07-16T14:11:14Z</time>
      </trkpt>
      <trkpt lat="45.99231" lon="6.79327">
        <ele>2062</ele>
        <time>2022-07-16T14:11:22Z</time>
      </trkpt>
      <trkpt lat="45.99235" lon="6.79324">
        <ele>2062</ele>
        <time>2022-07-16T14:11:26Z</time>
      </trkpt>
      <trkpt lat="45.99243" lon="6.79321">
        <ele>2062</ele>
        <time>2022-07-16T14:11:34Z</time>
      </trkpt>
      <trkpt lat="45.99249" lon="6.79311">
        <ele>2062</ele>
        <time>2022-07-16T14:11:42Z</time>
      </trkpt>
      <trkpt lat="45.99252" lon="6.79306">
        <ele>2061</ele>
        <time>2022-07-16T14:11:47Z</time>
      </trkpt>
      <trkpt lat="45.99257" lon="6.79306">
        <ele>2062</ele>
        <time>2022-07-16T14:11:57Z</time>
      </trkpt>
      <trkpt lat="45.99254" lon="6.79295">
        <ele>2061</ele>
        <time>2022-07-16T14:12:26Z</time>
      </trkpt>
      <trkpt lat="45.99251" lon="6.79291">
        <ele>2060</ele>
        <time>2022-07-16T14:12:33Z</time>
      </trkpt>
      <trkpt lat="45.99245" lon="6.79287">
        <ele>2060</ele>
        <time>2022-07-16T14:12:39Z</time>
      </trkpt>
      <trkpt lat="45.99236" lon="6.79281">
        <ele>2061</ele>
        <time>2022-07-16T14:12:52Z</time>
      </trkpt>
      <trkpt lat="45.99229" lon="6.79281">
        <ele>2061</ele>
        <time>2022-07-16T14:12:59Z</time>
      </trkpt>
      <trkpt lat="45.99222" lon="6.7928">
        <ele>2061</ele>
        <time>2022-07-16T14:13:05Z</time>
      </trkpt>
      <trkpt lat="45.99218" lon="6.79282">
        <ele>2061</ele>
        <time>2022-07-16T14:13:09Z</time>
      </trkpt>
      <trkpt lat="45.9921" lon="6.79289">
        <ele>2060</ele>
        <time>2022-07-16T14:13:17Z</time>
      </trkpt>
      <trkpt lat="45.99202" lon="6.79299">
        <ele>2061</ele>
        <time>2022-07-16T14:13:27Z</time>
      </trkpt>
      <trkpt lat="45.9919" lon="6.79305">
        <ele>2062</ele>
        <time>2022-07-16T14:13:40Z</time>
      </trkpt>
      <trkpt lat="45.99182" lon="6.79322">
        <ele>2063</ele>
        <time>2022-07-16T14:13:53Z</time>
      </trkpt>
      <trkpt lat="45.9918" lon="6.79334">
        <ele>2065</ele>
        <time>2022-07-16T14:14:03Z</time>
      </trkpt>
      <trkpt lat="45.99179" lon="6.79341">
        <ele>2064</ele>
        <time>2022-07-16T14:14:14Z</time>
      </trkpt>
      <trkpt lat="45.99173" lon="6.79355">
        <ele>2061</ele>
        <time>2022-07-16T14:14:29Z</time>
      </trkpt>
      <trkpt lat="45.99171" lon="6.79361">
        <ele>2061</ele>
        <time>2022-07-16T14:14:32Z</time>
      </trkpt>
      <trkpt lat="45.99169" lon="6.79367">
        <ele>2061</ele>
        <time>2022-07-16T14:14:37Z</time>
      </trkpt>
      <trkpt lat="45.99168" lon="6.79374">
        <ele>2061</ele>
        <time>2022-07-16T14:14:41Z</time>
      </trkpt>
      <trkpt lat="45.99168" lon="6.79383">
        <ele>2061</ele>
        <time>2022-07-16T14:14:48Z</time>
      </trkpt>
      <trkpt lat="45.99162" lon="6.79397">
        <ele>2060</ele>
        <time>2022-07-16T14:14:59Z</time>
      </trkpt>
      <trkpt lat="45.99158" lon="6.79401">
        <ele>2061</ele>
        <time>2022-07-16T14:15:03Z</time>
      </trkpt>
      <trkpt lat="45.99152" lon="6.79419">
        <ele>2060</ele>
        <time>2022-07-16T14:15:16Z</time>
      </trkpt>
      <trkpt lat="45.99148" lon="6.79427">
        <ele>2060</ele>
        <time>2022-07-16T14:15:29Z</time>
      </trkpt>
      <trkpt lat="45.99146" lon="6.79439">
        <ele>2060</ele>
        <time>2022-07-16T14:15:36Z</time>
      </trkpt>
      <trkpt lat="45.99148" lon="6.79457">
        <ele>2061</ele>
        <time>2022-07-16T14:15:46Z</time>
      </trkpt>
      <trkpt lat="45.99146" lon="6.7947">
        <ele>2061</ele>
        <time>2022-07-16T14:15:55Z</time>
      </trkpt>
      <trkpt lat="45.99145" lon="6.79475">
        <ele>2061</ele>
        <time>2022-07-16T14:16:00Z</time>
      </trkpt>
      <trkpt lat="45.99145" lon="6.79482">
        <ele>2062</ele>
        <time>2022-07-16T14:16:04Z</time>
      </trkpt>
      <trkpt lat="45.99139" lon="6.79518">
        <ele>2062</ele>
        <time>2022-07-16T14:16:29Z</time>
      </trkpt>
      <trkpt lat="45.99136" lon="6.79523">
        <ele>2062</ele>
        <time>2022-07-16T14:16:33Z</time>
      </trkpt>
      <trkpt lat="45.99135" lon="6.79535">
        <ele>2062</ele>
        <time>2022-07-16T14:16:40Z</time>
      </trkpt>
      <trkpt lat="45.99129" lon="6.79547">
        <ele>2061</ele>
        <time>2022-07-16T14:16:49Z</time>
      </trkpt>
      <trkpt lat="45.99126" lon="6.79552">
        <ele>2061</ele>
        <time>2022-07-16T14:16:53Z</time>
      </trkpt>
      <trkpt lat="45.9912" lon="6.79569">
        <ele>2061</ele>
        <time>2022-07-16T14:17:03Z</time>
      </trkpt>
      <trkpt lat="45.99111" lon="6.79578">
        <ele>2062</ele>
        <time>2022-07-16T14:17:14Z</time>
      </trkpt>
      <trkpt lat="45.99106" lon="6.79578">
        <ele>2062</ele>
        <time>2022-07-16T14:17:18Z</time>
      </trkpt>
      <trkpt lat="45.99098" lon="6.79589">
        <ele>2062</ele>
        <time>2022-07-16T14:17:27Z</time>
      </trkpt>
      <trkpt lat="45.99094" lon="6.79591">
        <ele>2063</ele>
        <time>2022-07-16T14:17:31Z</time>
      </trkpt>
      <trkpt lat="45.99091" lon="6.79595">
        <ele>2063</ele>
        <time>2022-07-16T14:17:36Z</time>
      </trkpt>
      <trkpt lat="45.99086" lon="6.79607">
        <ele>2063</ele>
        <time>2022-07-16T14:17:44Z</time>
      </trkpt>
      <trkpt lat="45.99083" lon="6.7961">
        <ele>2063</ele>
        <time>2022-07-16T14:17:48Z</time>
      </trkpt>
      <trkpt lat="45.99078" lon="6.79612">
        <ele>2063</ele>
        <time>2022-07-16T14:17:53Z</time>
      </trkpt>
      <trkpt lat="45.99075" lon="6.79617">
        <ele>2063</ele>
        <time>2022-07-16T14:17:57Z</time>
      </trkpt>
      <trkpt lat="45.99071" lon="6.79621">
        <ele>2064</ele>
        <time>2022-07-16T14:18:01Z</time>
      </trkpt>
      <trkpt lat="45.99055" lon="6.79627">
        <ele>2064</ele>
        <time>2022-07-16T14:18:20Z</time>
      </trkpt>
      <trkpt lat="45.99053" lon="6.79634">
        <ele>2064</ele>
        <time>2022-07-16T14:18:24Z</time>
      </trkpt>
      <trkpt lat="45.99049" lon="6.79638">
        <ele>2063</ele>
        <time>2022-07-16T14:18:31Z</time>
      </trkpt>
      <trkpt lat="45.99041" lon="6.79635">
        <ele>2062</ele>
        <time>2022-07-16T14:18:40Z</time>
      </trkpt>
      <trkpt lat="45.99036" lon="6.79638">
        <ele>2061</ele>
        <time>2022-07-16T14:18:44Z</time>
      </trkpt>
      <trkpt lat="45.99027" lon="6.79645">
        <ele>2061</ele>
        <time>2022-07-16T14:18:53Z</time>
      </trkpt>
      <trkpt lat="45.99014" lon="6.7966">
        <ele>2060</ele>
        <time>2022-07-16T14:19:09Z</time>
      </trkpt>
      <trkpt lat="45.9901" lon="6.79661">
        <ele>2060</ele>
        <time>2022-07-16T14:19:12Z</time>
      </trkpt>
      <trkpt lat="45.99004" lon="6.79666">
        <ele>2060</ele>
        <time>2022-07-16T14:19:19Z</time>
      </trkpt>
      <trkpt lat="45.99003" lon="6.79673">
        <ele>2060</ele>
        <time>2022-07-16T14:19:23Z</time>
      </trkpt>
      <trkpt lat="45.98999" lon="6.79677">
        <ele>2060</ele>
        <time>2022-07-16T14:19:27Z</time>
      </trkpt>
      <trkpt lat="45.98994" lon="6.79676">
        <ele>2060</ele>
        <time>2022-07-16T14:19:30Z</time>
      </trkpt>
      <trkpt lat="45.98991" lon="6.79683">
        <ele>2060</ele>
        <time>2022-07-16T14:19:34Z</time>
      </trkpt>
      <trkpt lat="45.98987" lon="6.79684">
        <ele>2060</ele>
        <time>2022-07-16T14:19:39Z</time>
      </trkpt>
      <trkpt lat="45.98981" lon="6.79696">
        <ele>2060</ele>
        <time>2022-07-16T14:19:49Z</time>
      </trkpt>
      <trkpt lat="45.98979" lon="6.79703">
        <ele>2060</ele>
        <time>2022-07-16T14:19:53Z</time>
      </trkpt>
      <trkpt lat="45.98967" lon="6.79718">
        <ele>2060</ele>
        <time>2022-07-16T14:20:06Z</time>
      </trkpt>
      <trkpt lat="45.98961" lon="6.79721">
        <ele>2060</ele>
        <time>2022-07-16T14:20:13Z</time>
      </trkpt>
      <trkpt lat="45.98958" lon="6.79726">
        <ele>2060</ele>
        <time>2022-07-16T14:20:17Z</time>
      </trkpt>
      <trkpt lat="45.98951" lon="6.79738">
        <ele>2059</ele>
        <time>2022-07-16T14:20:29Z</time>
      </trkpt>
      <trkpt lat="45.98949" lon="6.79744">
        <ele>2060</ele>
        <time>2022-07-16T14:20:33Z</time>
      </trkpt>
      <trkpt lat="45.98946" lon="6.7975">
        <ele>2059</ele>
        <time>2022-07-16T14:20:36Z</time>
      </trkpt>
      <trkpt lat="45.98941" lon="6.79754">
        <ele>2060</ele>
        <time>2022-07-16T14:20:40Z</time>
      </trkpt>
      <trkpt lat="45.98935" lon="6.79773">
        <ele>2059</ele>
        <time>2022-07-16T14:20:54Z</time>
      </trkpt>
      <trkpt lat="45.98931" lon="6.79778">
        <ele>2060</ele>
        <time>2022-07-16T14:21:00Z</time>
      </trkpt>
      <trkpt lat="45.98928" lon="6.79784">
        <ele>2059</ele>
        <time>2022-07-16T14:21:04Z</time>
      </trkpt>
      <trkpt lat="45.98921" lon="6.79809">
        <ele>2059</ele>
        <time>2022-07-16T14:21:21Z</time>
      </trkpt>
      <trkpt lat="45.98922" lon="6.79817">
        <ele>2059</ele>
        <time>2022-07-16T14:21:26Z</time>
      </trkpt>
      <trkpt lat="45.98919" lon="6.79827">
        <ele>2060</ele>
        <time>2022-07-16T14:21:34Z</time>
      </trkpt>
      <trkpt lat="45.98917" lon="6.79834">
        <ele>2060</ele>
        <time>2022-07-16T14:21:36Z</time>
      </trkpt>
      <trkpt lat="45.98908" lon="6.79845">
        <ele>2060</ele>
        <time>2022-07-16T14:21:48Z</time>
      </trkpt>
      <trkpt lat="45.98903" lon="6.7985">
        <ele>2060</ele>
        <time>2022-07-16T14:21:52Z</time>
      </trkpt>
      <trkpt lat="45.98898" lon="6.79851">
        <ele>2060</ele>
        <time>2022-07-16T14:21:59Z</time>
      </trkpt>
      <trkpt lat="45.98895" lon="6.79857">
        <ele>2061</ele>
        <time>2022-07-16T14:22:04Z</time>
      </trkpt>
      <trkpt lat="45.98872" lon="6.79867">
        <ele>2062</ele>
        <time>2022-07-16T14:22:26Z</time>
      </trkpt>
      <trkpt lat="45.98867" lon="6.7987">
        <ele>2063</ele>
        <time>2022-07-16T14:22:34Z</time>
      </trkpt>
      <trkpt lat="45.98858" lon="6.79871">
        <ele>2064</ele>
        <time>2022-07-16T14:22:43Z</time>
      </trkpt>
      <trkpt lat="45.98855" lon="6.79877">
        <ele>2064</ele>
        <time>2022-07-16T14:22:47Z</time>
      </trkpt>
      <trkpt lat="45.9885" lon="6.79876">
        <ele>2065</ele>
        <time>2022-07-16T14:22:51Z</time>
      </trkpt>
      <trkpt lat="45.98842" lon="6.79882">
        <ele>2066</ele>
        <time>2022-07-16T14:23:03Z</time>
      </trkpt>
      <trkpt lat="45.98835" lon="6.79882">
        <ele>2068</ele>
        <time>2022-07-16T14:23:11Z</time>
      </trkpt>
      <trkpt lat="45.98826" lon="6.7989">
        <ele>2069</ele>
        <time>2022-07-16T14:23:23Z</time>
      </trkpt>
      <trkpt lat="45.98824" lon="6.79894">
        <ele>2071</ele>
        <time>2022-07-16T14:23:35Z</time>
      </trkpt>
      <trkpt lat="45.98819" lon="6.79896">
        <ele>2072</ele>
        <time>2022-07-16T14:23:45Z</time>
      </trkpt>
      <trkpt lat="45.98816" lon="6.79902">
        <ele>2074</ele>
        <time>2022-07-16T14:23:55Z</time>
      </trkpt>
      <trkpt lat="45.9881" lon="6.79903">
        <ele>2075</ele>
        <time>2022-07-16T14:24:05Z</time>
      </trkpt>
      <trkpt lat="45.98808" lon="6.7991">
        <ele>2077</ele>
        <time>2022-07-16T14:24:15Z</time>
      </trkpt>
      <trkpt lat="45.98803" lon="6.7991">
        <ele>2078</ele>
        <time>2022-07-16T14:24:25Z</time>
      </trkpt>
      <trkpt lat="45.98802" lon="6.7992">
        <ele>2079</ele>
        <time>2022-07-16T14:24:33Z</time>
      </trkpt>
      <trkpt lat="45.988" lon="6.79913">
        <ele>2082</ele>
        <time>2022-07-16T14:24:54Z</time>
      </trkpt>
      <trkpt lat="45.98796" lon="6.79913">
        <ele>2083</ele>
        <time>2022-07-16T14:25:04Z</time>
      </trkpt>
      <trkpt lat="45.98791" lon="6.79921">
        <ele>2085</ele>
        <time>2022-07-16T14:25:15Z</time>
      </trkpt>
      <trkpt lat="45.98789" lon="6.79926">
        <ele>2086</ele>
        <time>2022-07-16T14:25:26Z</time>
      </trkpt>
      <trkpt lat="45.98784" lon="6.7993">
        <ele>2088</ele>
        <time>2022-07-16T14:25:37Z</time>
      </trkpt>
      <trkpt lat="45.98777" lon="6.79942">
        <ele>2091</ele>
        <time>2022-07-16T14:26:02Z</time>
      </trkpt>
      <trkpt lat="45.98772" lon="6.79945">
        <ele>2095</ele>
        <time>2022-07-16T14:26:22Z</time>
      </trkpt>
      <trkpt lat="45.9877" lon="6.79952">
        <ele>2096</ele>
        <time>2022-07-16T14:26:28Z</time>
      </trkpt>
      <trkpt lat="45.98763" lon="6.79955">
        <ele>2097</ele>
        <time>2022-07-16T14:26:40Z</time>
      </trkpt>
      <trkpt lat="45.9876" lon="6.79961">
        <ele>2098</ele>
        <time>2022-07-16T14:26:50Z</time>
      </trkpt>
      <trkpt lat="45.9875" lon="6.79959">
        <ele>2100</ele>
        <time>2022-07-16T14:27:01Z</time>
      </trkpt>
      <trkpt lat="45.98745" lon="6.79963">
        <ele>2102</ele>
        <time>2022-07-16T14:27:18Z</time>
      </trkpt>
      <trkpt lat="45.98741" lon="6.79967">
        <ele>2105</ele>
        <time>2022-07-16T14:27:36Z</time>
      </trkpt>
      <trkpt lat="45.98738" lon="6.79963">
        <ele>2107</ele>
        <time>2022-07-16T14:27:46Z</time>
      </trkpt>
      <trkpt lat="45.98732" lon="6.79966">
        <ele>2108</ele>
        <time>2022-07-16T14:27:56Z</time>
      </trkpt>
      <trkpt lat="45.98727" lon="6.79964">
        <ele>2109</ele>
        <time>2022-07-16T14:28:01Z</time>
      </trkpt>
      <trkpt lat="45.98723" lon="6.79968">
        <ele>2110</ele>
        <time>2022-07-16T14:28:09Z</time>
      </trkpt>
      <trkpt lat="45.98716" lon="6.79965">
        <ele>2112</ele>
        <time>2022-07-16T14:28:20Z</time>
      </trkpt>
      <trkpt lat="45.98711" lon="6.79966">
        <ele>2113</ele>
        <time>2022-07-16T14:28:26Z</time>
      </trkpt>
      <trkpt lat="45.98709" lon="6.79973">
        <ele>2114</ele>
        <time>2022-07-16T14:28:33Z</time>
      </trkpt>
      <trkpt lat="45.98705" lon="6.79972">
        <ele>2114</ele>
        <time>2022-07-16T14:28:38Z</time>
      </trkpt>
      <trkpt lat="45.98699" lon="6.79972">
        <ele>2116</ele>
        <time>2022-07-16T14:28:48Z</time>
      </trkpt>
      <trkpt lat="45.98685" lon="6.79973">
        <ele>2120</ele>
        <time>2022-07-16T14:29:15Z</time>
      </trkpt>
      <trkpt lat="45.98671" lon="6.79971">
        <ele>2123</ele>
        <time>2022-07-16T14:29:40Z</time>
      </trkpt>
      <trkpt lat="45.98663" lon="6.7997">
        <ele>2125</ele>
        <time>2022-07-16T14:29:49Z</time>
      </trkpt>
      <trkpt lat="45.98657" lon="6.79978">
        <ele>2127</ele>
        <time>2022-07-16T14:30:03Z</time>
      </trkpt>
      <trkpt lat="45.98652" lon="6.79977">
        <ele>2130</ele>
        <time>2022-07-16T14:30:24Z</time>
      </trkpt>
      <trkpt lat="45.98645" lon="6.79978">
        <ele>2133</ele>
        <time>2022-07-16T14:30:37Z</time>
      </trkpt>
      <trkpt lat="45.98641" lon="6.79978">
        <ele>2133</ele>
        <time>2022-07-16T14:30:44Z</time>
      </trkpt>
      <trkpt lat="45.98634" lon="6.79977">
        <ele>2134</ele>
        <time>2022-07-16T14:30:55Z</time>
      </trkpt>
      <trkpt lat="45.98626" lon="6.79971">
        <ele>2136</ele>
        <time>2022-07-16T14:31:10Z</time>
      </trkpt>
      <trkpt lat="45.98621" lon="6.79973">
        <ele>2136</ele>
        <time>2022-07-16T14:31:17Z</time>
      </trkpt>
      <trkpt lat="45.98614" lon="6.79971">
        <ele>2137</ele>
        <time>2022-07-16T14:31:25Z</time>
      </trkpt>
      <trkpt lat="45.98611" lon="6.79964">
        <ele>2139</ele>
        <time>2022-07-16T14:31:38Z</time>
      </trkpt>
      <trkpt lat="45.98611" lon="6.79951">
        <ele>2140</ele>
        <time>2022-07-16T14:31:50Z</time>
      </trkpt>
      <trkpt lat="45.98608" lon="6.79946">
        <ele>2140</ele>
        <time>2022-07-16T14:31:54Z</time>
      </trkpt>
      <trkpt lat="45.98602" lon="6.79945">
        <ele>2140</ele>
        <time>2022-07-16T14:31:58Z</time>
      </trkpt>
      <trkpt lat="45.98595" lon="6.79945">
        <ele>2142</ele>
        <time>2022-07-16T14:32:08Z</time>
      </trkpt>
      <trkpt lat="45.98587" lon="6.7994">
        <ele>2142</ele>
        <time>2022-07-16T14:32:18Z</time>
      </trkpt>
      <trkpt lat="45.98583" lon="6.79941">
        <ele>2144</ele>
        <time>2022-07-16T14:32:28Z</time>
      </trkpt>
      <trkpt lat="45.98578" lon="6.79938">
        <ele>2144</ele>
        <time>2022-07-16T14:32:34Z</time>
      </trkpt>
      <trkpt lat="45.98574" lon="6.7993">
        <ele>2145</ele>
        <time>2022-07-16T14:32:44Z</time>
      </trkpt>
      <trkpt lat="45.9857" lon="6.79925">
        <ele>2145</ele>
        <time>2022-07-16T14:32:48Z</time>
      </trkpt>
      <trkpt lat="45.98569" lon="6.79919">
        <ele>2145</ele>
        <time>2022-07-16T14:32:53Z</time>
      </trkpt>
      <trkpt lat="45.9856" lon="6.79902">
        <ele>2147</ele>
        <time>2022-07-16T14:33:09Z</time>
      </trkpt>
      <trkpt lat="45.98561" lon="6.79893">
        <ele>2148</ele>
        <time>2022-07-16T14:33:17Z</time>
      </trkpt>
      <trkpt lat="45.98553" lon="6.79863">
        <ele>2149</ele>
        <time>2022-07-16T14:33:39Z</time>
      </trkpt>
      <trkpt lat="45.98552" lon="6.79837">
        <ele>2150</ele>
        <time>2022-07-16T14:34:00Z</time>
      </trkpt>
      <trkpt lat="45.98549" lon="6.79832">
        <ele>2150</ele>
        <time>2022-07-16T14:34:04Z</time>
      </trkpt>
      <trkpt lat="45.98533" lon="6.79821">
        <ele>2151</ele>
        <time>2022-07-16T14:34:19Z</time>
      </trkpt>
      <trkpt lat="45.98529" lon="6.79816">
        <ele>2152</ele>
        <time>2022-07-16T14:34:27Z</time>
      </trkpt>
      <trkpt lat="45.9852" lon="6.79813">
        <ele>2153</ele>
        <time>2022-07-16T14:34:39Z</time>
      </trkpt>
      <trkpt lat="45.98508" lon="6.79817">
        <ele>2155</ele>
        <time>2022-07-16T14:34:53Z</time>
      </trkpt>
      <trkpt lat="45.98505" lon="6.79822">
        <ele>2156</ele>
        <time>2022-07-16T14:35:00Z</time>
      </trkpt>
      <trkpt lat="45.98496" lon="6.79821">
        <ele>2156</ele>
        <time>2022-07-16T14:35:10Z</time>
      </trkpt>
      <trkpt lat="45.98491" lon="6.79819">
        <ele>2157</ele>
        <time>2022-07-16T14:35:15Z</time>
      </trkpt>
      <trkpt lat="45.98487" lon="6.79819">
        <ele>2158</ele>
        <time>2022-07-16T14:35:22Z</time>
      </trkpt>
      <trkpt lat="45.98483" lon="6.79816">
        <ele>2158</ele>
        <time>2022-07-16T14:35:27Z</time>
      </trkpt>
      <trkpt lat="45.98476" lon="6.79813">
        <ele>2159</ele>
        <time>2022-07-16T14:35:36Z</time>
      </trkpt>
      <trkpt lat="45.98471" lon="6.79814">
        <ele>2159</ele>
        <time>2022-07-16T14:35:41Z</time>
      </trkpt>
      <trkpt lat="45.98467" lon="6.79817">
        <ele>2159</ele>
        <time>2022-07-16T14:35:45Z</time>
      </trkpt>
      <trkpt lat="45.98461" lon="6.79815">
        <ele>2160</ele>
        <time>2022-07-16T14:35:54Z</time>
      </trkpt>
      <trkpt lat="45.98455" lon="6.7981">
        <ele>2161</ele>
        <time>2022-07-16T14:36:05Z</time>
      </trkpt>
      <trkpt lat="45.98451" lon="6.79809">
        <ele>2161</ele>
        <time>2022-07-16T14:36:11Z</time>
      </trkpt>
      <trkpt lat="45.98429" lon="6.79789">
        <ele>2163</ele>
        <time>2022-07-16T14:36:41Z</time>
      </trkpt>
      <trkpt lat="45.98424" lon="6.79784">
        <ele>2164</ele>
        <time>2022-07-16T14:36:48Z</time>
      </trkpt>
      <trkpt lat="45.98421" lon="6.79781">
        <ele>2165</ele>
        <time>2022-07-16T14:36:55Z</time>
      </trkpt>
      <trkpt lat="45.9841" lon="6.7978">
        <ele>2167</ele>
        <time>2022-07-16T14:37:11Z</time>
      </trkpt>
      <trkpt lat="45.98406" lon="6.79782">
        <ele>2169</ele>
        <time>2022-07-16T14:37:21Z</time>
      </trkpt>
      <trkpt lat="45.98399" lon="6.79782">
        <ele>2170</ele>
        <time>2022-07-16T14:37:32Z</time>
      </trkpt>
      <trkpt lat="45.98395" lon="6.7978">
        <ele>2171</ele>
        <time>2022-07-16T14:37:42Z</time>
      </trkpt>
      <trkpt lat="45.98391" lon="6.79782">
        <ele>2172</ele>
        <time>2022-07-16T14:37:47Z</time>
      </trkpt>
      <trkpt lat="45.98385" lon="6.79785">
        <ele>2173</ele>
        <time>2022-07-16T14:38:00Z</time>
      </trkpt>
      <trkpt lat="45.9838" lon="6.79782">
        <ele>2175</ele>
        <time>2022-07-16T14:38:11Z</time>
      </trkpt>
      <trkpt lat="45.98373" lon="6.79783">
        <ele>2176</ele>
        <time>2022-07-16T14:38:21Z</time>
      </trkpt>
      <trkpt lat="45.98358" lon="6.79786">
        <ele>2180</ele>
        <time>2022-07-16T14:38:51Z</time>
      </trkpt>
      <trkpt lat="45.98352" lon="6.79786">
        <ele>2182</ele>
        <time>2022-07-16T14:39:01Z</time>
      </trkpt>
      <trkpt lat="45.98346" lon="6.79781">
        <ele>2183</ele>
        <time>2022-07-16T14:39:17Z</time>
      </trkpt>
      <trkpt lat="45.9834" lon="6.7978">
        <ele>2184</ele>
        <time>2022-07-16T14:39:27Z</time>
      </trkpt>
      <trkpt lat="45.98323" lon="6.79765">
        <ele>2188</ele>
        <time>2022-07-16T14:39:59Z</time>
      </trkpt>
      <trkpt lat="45.98318" lon="6.79768">
        <ele>2188</ele>
        <time>2022-07-16T14:40:08Z</time>
      </trkpt>
      <trkpt lat="45.98306" lon="6.79767">
        <ele>2190</ele>
        <time>2022-07-16T14:40:23Z</time>
      </trkpt>
      <trkpt lat="45.98301" lon="6.7976">
        <ele>2190</ele>
        <time>2022-07-16T14:40:29Z</time>
      </trkpt>
      <trkpt lat="45.98297" lon="6.7976">
        <ele>2191</ele>
        <time>2022-07-16T14:40:33Z</time>
      </trkpt>
      <trkpt lat="45.98292" lon="6.79763">
        <ele>2191</ele>
        <time>2022-07-16T14:40:37Z</time>
      </trkpt>
      <trkpt lat="45.98286" lon="6.79762">
        <ele>2191</ele>
        <time>2022-07-16T14:40:44Z</time>
      </trkpt>
      <trkpt lat="45.98283" lon="6.79759">
        <ele>2192</ele>
        <time>2022-07-16T14:40:48Z</time>
      </trkpt>
      <trkpt lat="45.98276" lon="6.79761">
        <ele>2192</ele>
        <time>2022-07-16T14:40:55Z</time>
      </trkpt>
      <trkpt lat="45.98259" lon="6.79771">
        <ele>2195</ele>
        <time>2022-07-16T14:41:18Z</time>
      </trkpt>
      <trkpt lat="45.98254" lon="6.79774">
        <ele>2196</ele>
        <time>2022-07-16T14:41:26Z</time>
      </trkpt>
      <trkpt lat="45.98236" lon="6.79774">
        <ele>2200</ele>
        <time>2022-07-16T14:41:52Z</time>
      </trkpt>
      <trkpt lat="45.98231" lon="6.79775">
        <ele>2201</ele>
        <time>2022-07-16T14:41:59Z</time>
      </trkpt>
      <trkpt lat="45.98214" lon="6.79782">
        <ele>2204</ele>
        <time>2022-07-16T14:42:23Z</time>
      </trkpt>
      <trkpt lat="45.98202" lon="6.79791">
        <ele>2206</ele>
        <time>2022-07-16T14:42:38Z</time>
      </trkpt>
      <trkpt lat="45.98202" lon="6.79804">
        <ele>2208</ele>
        <time>2022-07-16T14:42:49Z</time>
      </trkpt>
      <trkpt lat="45.98206" lon="6.7981">
        <ele>2208</ele>
        <time>2022-07-16T14:42:55Z</time>
      </trkpt>
      <trkpt lat="45.98209" lon="6.79815">
        <ele>2209</ele>
        <time>2022-07-16T14:43:03Z</time>
      </trkpt>
      <trkpt lat="45.98208" lon="6.79823">
        <ele>2209</ele>
        <time>2022-07-16T14:43:09Z</time>
      </trkpt>
      <trkpt lat="45.98199" lon="6.79835">
        <ele>2211</ele>
        <time>2022-07-16T14:43:23Z</time>
      </trkpt>
      <trkpt lat="45.982" lon="6.7984">
        <ele>2216</ele>
        <time>2022-07-16T14:48:07Z</time>
      </trkpt>
      <trkpt lat="45.98195" lon="6.79839">
        <ele>2216</ele>
        <time>2022-07-16T14:52:32Z</time>
      </trkpt>
      <trkpt lat="45.9819" lon="6.79843">
        <ele>2219</ele>
        <time>2022-07-16T14:53:26Z</time>
      </trkpt>
      <trkpt lat="45.98177" lon="6.79842">
        <ele>2222</ele>
        <time>2022-07-16T14:53:48Z</time>
      </trkpt>
      <trkpt lat="45.98166" lon="6.79847">
        <ele>2226</ele>
        <time>2022-07-16T14:54:18Z</time>
      </trkpt>
      <trkpt lat="45.98164" lon="6.79853">
        <ele>2227</ele>
        <time>2022-07-16T14:54:28Z</time>
      </trkpt>
      <trkpt lat="45.98162" lon="6.7986">
        <ele>2228</ele>
        <time>2022-07-16T14:54:39Z</time>
      </trkpt>
      <trkpt lat="45.98156" lon="6.79859">
        <ele>2230</ele>
        <time>2022-07-16T14:54:51Z</time>
      </trkpt>
      <trkpt lat="45.98152" lon="6.79854">
        <ele>2231</ele>
        <time>2022-07-16T14:55:03Z</time>
      </trkpt>
      <trkpt lat="45.98147" lon="6.79851">
        <ele>2235</ele>
        <time>2022-07-16T14:55:28Z</time>
      </trkpt>
      <trkpt lat="45.98145" lon="6.79858">
        <ele>2236</ele>
        <time>2022-07-16T14:55:38Z</time>
      </trkpt>
      <trkpt lat="45.98141" lon="6.79863">
        <ele>2239</ele>
        <time>2022-07-16T14:55:58Z</time>
      </trkpt>
      <trkpt lat="45.98135" lon="6.79864">
        <ele>2243</ele>
        <time>2022-07-16T14:56:23Z</time>
      </trkpt>
      <trkpt lat="45.98132" lon="6.79871">
        <ele>2246</ele>
        <time>2022-07-16T14:56:44Z</time>
      </trkpt>
      <trkpt lat="45.98128" lon="6.79873">
        <ele>2247</ele>
        <time>2022-07-16T14:56:51Z</time>
      </trkpt>
      <trkpt lat="45.98127" lon="6.79879">
        <ele>2249</ele>
        <time>2022-07-16T14:57:07Z</time>
      </trkpt>
      <trkpt lat="45.98124" lon="6.79885">
        <ele>2252</ele>
        <time>2022-07-16T14:57:27Z</time>
      </trkpt>
      <trkpt lat="45.98122" lon="6.79892">
        <ele>2254</ele>
        <time>2022-07-16T14:57:46Z</time>
      </trkpt>
      <trkpt lat="45.98118" lon="6.79897">
        <ele>2257</ele>
        <time>2022-07-16T14:58:03Z</time>
      </trkpt>
      <trkpt lat="45.98114" lon="6.79897">
        <ele>2261</ele>
        <time>2022-07-16T14:58:33Z</time>
      </trkpt>
      <trkpt lat="45.98108" lon="6.79892">
        <ele>2262</ele>
        <time>2022-07-16T14:58:43Z</time>
      </trkpt>
      <trkpt lat="45.98105" lon="6.79896">
        <ele>2264</ele>
        <time>2022-07-16T14:58:54Z</time>
      </trkpt>
      <trkpt lat="45.981" lon="6.79894">
        <ele>2267</ele>
        <time>2022-07-16T14:59:16Z</time>
      </trkpt>
      <trkpt lat="45.98093" lon="6.7989">
        <ele>2270</ele>
        <time>2022-07-16T14:59:46Z</time>
      </trkpt>
      <trkpt lat="45.98093" lon="6.79898">
        <ele>2273</ele>
        <time>2022-07-16T15:01:34Z</time>
      </trkpt>
      <trkpt lat="45.98096" lon="6.79908">
        <ele>2274</ele>
        <time>2022-07-16T15:01:44Z</time>
      </trkpt>
      <trkpt lat="45.98097" lon="6.79914">
        <ele>2273</ele>
        <time>2022-07-16T15:01:48Z</time>
      </trkpt>
      <trkpt lat="45.98096" lon="6.7992">
        <ele>2272</ele>
        <time>2022-07-16T15:01:52Z</time>
      </trkpt>
      <trkpt lat="45.98097" lon="6.79927">
        <ele>2272</ele>
        <time>2022-07-16T15:01:57Z</time>
      </trkpt>
      <trkpt lat="45.98096" lon="6.79936">
        <ele>2272</ele>
        <time>2022-07-16T15:02:03Z</time>
      </trkpt>
      <trkpt lat="45.98099" lon="6.79945">
        <ele>2272</ele>
        <time>2022-07-16T15:02:10Z</time>
      </trkpt>
      <trkpt lat="45.981" lon="6.79952">
        <ele>2271</ele>
        <time>2022-07-16T15:02:18Z</time>
      </trkpt>
      <trkpt lat="45.98102" lon="6.79963">
        <ele>2271</ele>
        <time>2022-07-16T15:02:27Z</time>
      </trkpt>
      <trkpt lat="45.98105" lon="6.79973">
        <ele>2273</ele>
        <time>2022-07-16T15:02:35Z</time>
      </trkpt>
      <trkpt lat="45.98108" lon="6.79979">
        <ele>2273</ele>
        <time>2022-07-16T15:02:39Z</time>
      </trkpt>
      <trkpt lat="45.9811" lon="6.79987">
        <ele>2273</ele>
        <time>2022-07-16T15:02:46Z</time>
      </trkpt>
      <trkpt lat="45.98113" lon="6.79995">
        <ele>2273</ele>
        <time>2022-07-16T15:02:53Z</time>
      </trkpt>
      <trkpt lat="45.98117" lon="6.79998">
        <ele>2274</ele>
        <time>2022-07-16T15:02:58Z</time>
      </trkpt>
      <trkpt lat="45.98112" lon="6.80003">
        <ele>2275</ele>
        <time>2022-07-16T15:03:04Z</time>
      </trkpt>
      <trkpt lat="45.98107" lon="6.80007">
        <ele>2277</ele>
        <time>2022-07-16T15:03:12Z</time>
      </trkpt>
      <trkpt lat="45.9811" lon="6.80017">
        <ele>2280</ele>
        <time>2022-07-16T15:03:31Z</time>
      </trkpt>
      <trkpt lat="45.98108" lon="6.80022">
        <ele>2281</ele>
        <time>2022-07-16T15:03:38Z</time>
      </trkpt>
      <trkpt lat="45.98112" lon="6.80032">
        <ele>2282</ele>
        <time>2022-07-16T15:03:48Z</time>
      </trkpt>
      <trkpt lat="45.98115" lon="6.80042">
        <ele>2284</ele>
        <time>2022-07-16T15:03:57Z</time>
      </trkpt>
      <trkpt lat="45.98118" lon="6.80047">
        <ele>2284</ele>
        <time>2022-07-16T15:04:03Z</time>
      </trkpt>
      <trkpt lat="45.98114" lon="6.80055">
        <ele>2287</ele>
        <time>2022-07-16T15:04:18Z</time>
      </trkpt>
      <trkpt lat="45.98117" lon="6.80062">
        <ele>2289</ele>
        <time>2022-07-16T15:04:33Z</time>
      </trkpt>
      <trkpt lat="45.98112" lon="6.80069">
        <ele>2292</ele>
        <time>2022-07-16T15:04:51Z</time>
      </trkpt>
      <trkpt lat="45.98115" lon="6.80076">
        <ele>2293</ele>
        <time>2022-07-16T15:04:58Z</time>
      </trkpt>
      <trkpt lat="45.98113" lon="6.80082">
        <ele>2296</ele>
        <time>2022-07-16T15:05:14Z</time>
      </trkpt>
      <trkpt lat="45.9811" lon="6.80088">
        <ele>2299</ele>
        <time>2022-07-16T15:05:26Z</time>
      </trkpt>
      <trkpt lat="45.98113" lon="6.80104">
        <ele>2302</ele>
        <time>2022-07-16T15:05:46Z</time>
      </trkpt>
      <trkpt lat="45.98116" lon="6.80115">
        <ele>2305</ele>
        <time>2022-07-16T15:06:00Z</time>
      </trkpt>
      <trkpt lat="45.9812" lon="6.80131">
        <ele>2308</ele>
        <time>2022-07-16T15:06:20Z</time>
      </trkpt>
      <trkpt lat="45.98118" lon="6.80137">
        <ele>2309</ele>
        <time>2022-07-16T15:06:30Z</time>
      </trkpt>
      <trkpt lat="45.98119" lon="6.80155">
        <ele>2313</ele>
        <time>2022-07-16T15:06:50Z</time>
      </trkpt>
      <trkpt lat="45.98122" lon="6.80165">
        <ele>2314</ele>
        <time>2022-07-16T15:07:00Z</time>
      </trkpt>
      <trkpt lat="45.98122" lon="6.8017">
        <ele>2315</ele>
        <time>2022-07-16T15:07:08Z</time>
      </trkpt>
      <trkpt lat="45.98117" lon="6.80179">
        <ele>2316</ele>
        <time>2022-07-16T15:07:20Z</time>
      </trkpt>
      <trkpt lat="45.98113" lon="6.8018">
        <ele>2317</ele>
        <time>2022-07-16T15:07:24Z</time>
      </trkpt>
      <trkpt lat="45.98115" lon="6.80199">
        <ele>2318</ele>
        <time>2022-07-16T15:07:51Z</time>
      </trkpt>
      <trkpt lat="45.98116" lon="6.80208">
        <ele>2320</ele>
        <time>2022-07-16T15:08:03Z</time>
      </trkpt>
      <trkpt lat="45.98119" lon="6.80214">
        <ele>2320</ele>
        <time>2022-07-16T15:08:08Z</time>
      </trkpt>
      <trkpt lat="45.98115" lon="6.80221">
        <ele>2321</ele>
        <time>2022-07-16T15:08:16Z</time>
      </trkpt>
      <trkpt lat="45.98117" lon="6.80228">
        <ele>2323</ele>
        <time>2022-07-16T15:08:21Z</time>
      </trkpt>
      <trkpt lat="45.98115" lon="6.80233">
        <ele>2323</ele>
        <time>2022-07-16T15:08:29Z</time>
      </trkpt>
      <trkpt lat="45.98114" lon="6.80242">
        <ele>2325</ele>
        <time>2022-07-16T15:08:40Z</time>
      </trkpt>
      <trkpt lat="45.98111" lon="6.80249">
        <ele>2327</ele>
        <time>2022-07-16T15:08:50Z</time>
      </trkpt>
      <trkpt lat="45.98111" lon="6.80258">
        <ele>2330</ele>
        <time>2022-07-16T15:09:10Z</time>
      </trkpt>
      <trkpt lat="45.98109" lon="6.80266">
        <ele>2333</ele>
        <time>2022-07-16T15:09:26Z</time>
      </trkpt>
      <trkpt lat="45.98106" lon="6.80274">
        <ele>2335</ele>
        <time>2022-07-16T15:09:39Z</time>
      </trkpt>
      <trkpt lat="45.98102" lon="6.80275">
        <ele>2336</ele>
        <time>2022-07-16T15:09:47Z</time>
      </trkpt>
      <trkpt lat="45.98102" lon="6.80283">
        <ele>2338</ele>
        <time>2022-07-16T15:09:59Z</time>
      </trkpt>
      <trkpt lat="45.98104" lon="6.80291">
        <ele>2340</ele>
        <time>2022-07-16T15:10:14Z</time>
      </trkpt>
      <trkpt lat="45.98104" lon="6.803">
        <ele>2342</ele>
        <time>2022-07-16T15:10:25Z</time>
      </trkpt>
      <trkpt lat="45.98104" lon="6.80309">
        <ele>2345</ele>
        <time>2022-07-16T15:10:40Z</time>
      </trkpt>
      <trkpt lat="45.98106" lon="6.80315">
        <ele>2346</ele>
        <time>2022-07-16T15:10:50Z</time>
      </trkpt>
      <trkpt lat="45.98103" lon="6.80323">
        <ele>2348</ele>
        <time>2022-07-16T15:11:05Z</time>
      </trkpt>
      <trkpt lat="45.98105" lon="6.80337">
        <ele>2351</ele>
        <time>2022-07-16T15:11:21Z</time>
      </trkpt>
      <trkpt lat="45.98104" lon="6.80345">
        <ele>2353</ele>
        <time>2022-07-16T15:11:32Z</time>
      </trkpt>
      <trkpt lat="45.98101" lon="6.8035">
        <ele>2354</ele>
        <time>2022-07-16T15:11:44Z</time>
      </trkpt>
      <trkpt lat="45.98102" lon="6.80358">
        <ele>2357</ele>
        <time>2022-07-16T15:11:59Z</time>
      </trkpt>
      <trkpt lat="45.98097" lon="6.8036">
        <ele>2360</ele>
        <time>2022-07-16T15:12:14Z</time>
      </trkpt>
      <trkpt lat="45.98101" lon="6.80373">
        <ele>2362</ele>
        <time>2022-07-16T15:12:31Z</time>
      </trkpt>
      <trkpt lat="45.98102" lon="6.80381">
        <ele>2363</ele>
        <time>2022-07-16T15:12:41Z</time>
      </trkpt>
      <trkpt lat="45.98105" lon="6.80388">
        <ele>2364</ele>
        <time>2022-07-16T15:12:46Z</time>
      </trkpt>
      <trkpt lat="45.98105" lon="6.80403">
        <ele>2367</ele>
        <time>2022-07-16T15:13:12Z</time>
      </trkpt>
      <trkpt lat="45.9811" lon="6.80412">
        <ele>2370</ele>
        <time>2022-07-16T15:13:27Z</time>
      </trkpt>
      <trkpt lat="45.98105" lon="6.8042">
        <ele>2373</ele>
        <time>2022-07-16T15:13:46Z</time>
      </trkpt>
      <trkpt lat="45.98103" lon="6.80427">
        <ele>2377</ele>
        <time>2022-07-16T15:14:11Z</time>
      </trkpt>
      <trkpt lat="45.98108" lon="6.80434">
        <ele>2380</ele>
        <time>2022-07-16T15:14:26Z</time>
      </trkpt>
      <trkpt lat="45.98108" lon="6.80443">
        <ele>2382</ele>
        <time>2022-07-16T15:14:41Z</time>
      </trkpt>
      <trkpt lat="45.98111" lon="6.8045">
        <ele>2384</ele>
        <time>2022-07-16T15:14:56Z</time>
      </trkpt>
      <trkpt lat="45.98114" lon="6.80455">
        <ele>2386</ele>
        <time>2022-07-16T15:15:11Z</time>
      </trkpt>
      <trkpt lat="45.98111" lon="6.80461">
        <ele>2388</ele>
        <time>2022-07-16T15:15:27Z</time>
      </trkpt>
      <trkpt lat="45.98115" lon="6.80469">
        <ele>2390</ele>
        <time>2022-07-16T15:15:44Z</time>
      </trkpt>
      <trkpt lat="45.98119" lon="6.80478">
        <ele>2394</ele>
        <time>2022-07-16T15:16:08Z</time>
      </trkpt>
      <trkpt lat="45.9812" lon="6.80482">
        <ele>2397</ele>
        <time>2022-07-16T15:16:31Z</time>
      </trkpt>
      <trkpt lat="45.98126" lon="6.80489">
        <ele>2400</ele>
        <time>2022-07-16T15:16:46Z</time>
      </trkpt>
      <trkpt lat="45.98128" lon="6.80497">
        <ele>2402</ele>
        <time>2022-07-16T15:17:06Z</time>
      </trkpt>
      <trkpt lat="45.98134" lon="6.80499">
        <ele>2404</ele>
        <time>2022-07-16T15:17:21Z</time>
      </trkpt>
      <trkpt lat="45.98134" lon="6.80506">
        <ele>2409</ele>
        <time>2022-07-16T15:17:47Z</time>
      </trkpt>
      <trkpt lat="45.98136" lon="6.80513">
        <ele>2411</ele>
        <time>2022-07-16T15:18:03Z</time>
      </trkpt>
      <trkpt lat="45.98139" lon="6.80517">
        <ele>2415</ele>
        <time>2022-07-16T15:18:33Z</time>
      </trkpt>
      <trkpt lat="45.98141" lon="6.80525">
        <ele>2417</ele>
        <time>2022-07-16T15:18:51Z</time>
      </trkpt>
      <trkpt lat="45.98144" lon="6.80531">
        <ele>2418</ele>
        <time>2022-07-16T15:19:01Z</time>
      </trkpt>
      <trkpt lat="45.98145" lon="6.80538">
        <ele>2419</ele>
        <time>2022-07-16T15:19:11Z</time>
      </trkpt>
      <trkpt lat="45.98148" lon="6.80544">
        <ele>2420</ele>
        <time>2022-07-16T15:19:16Z</time>
      </trkpt>
      <trkpt lat="45.98149" lon="6.80553">
        <ele>2421</ele>
        <time>2022-07-16T15:19:26Z</time>
      </trkpt>
      <trkpt lat="45.98151" lon="6.80561">
        <ele>2423</ele>
        <time>2022-07-16T15:19:36Z</time>
      </trkpt>
      <trkpt lat="45.98154" lon="6.80569">
        <ele>2424</ele>
        <time>2022-07-16T15:19:46Z</time>
      </trkpt>
      <trkpt lat="45.98157" lon="6.80576">
        <ele>2426</ele>
        <time>2022-07-16T15:19:54Z</time>
      </trkpt>
      <trkpt lat="45.9816" lon="6.80581">
        <ele>2426</ele>
        <time>2022-07-16T15:19:58Z</time>
      </trkpt>
      <trkpt lat="45.98161" lon="6.80589">
        <ele>2427</ele>
        <time>2022-07-16T15:20:06Z</time>
      </trkpt>
      <trkpt lat="45.98167" lon="6.80594">
        <ele>2428</ele>
        <time>2022-07-16T15:20:13Z</time>
      </trkpt>
      <trkpt lat="45.98169" lon="6.80603">
        <ele>2429</ele>
        <time>2022-07-16T15:20:22Z</time>
      </trkpt>
      <trkpt lat="45.98172" lon="6.80612">
        <ele>2431</ele>
        <time>2022-07-16T15:20:32Z</time>
      </trkpt>
      <trkpt lat="45.98173" lon="6.80619">
        <ele>2433</ele>
        <time>2022-07-16T15:20:42Z</time>
      </trkpt>
      <trkpt lat="45.98175" lon="6.80627">
        <ele>2435</ele>
        <time>2022-07-16T15:20:53Z</time>
      </trkpt>
      <trkpt lat="45.98176" lon="6.80636">
        <ele>2436</ele>
        <time>2022-07-16T15:21:03Z</time>
      </trkpt>
      <trkpt lat="45.98181" lon="6.80648">
        <ele>2438</ele>
        <time>2022-07-16T15:21:18Z</time>
      </trkpt>
      <trkpt lat="45.98192" lon="6.80668">
        <ele>2439</ele>
        <time>2022-07-16T15:21:36Z</time>
      </trkpt>
      <trkpt lat="45.98194" lon="6.80675">
        <ele>2439</ele>
        <time>2022-07-16T15:21:41Z</time>
      </trkpt>
      <trkpt lat="45.98196" lon="6.80681">
        <ele>2440</ele>
        <time>2022-07-16T15:21:45Z</time>
      </trkpt>
      <trkpt lat="45.98198" lon="6.80687">
        <ele>2440</ele>
        <time>2022-07-16T15:21:49Z</time>
      </trkpt>
      <trkpt lat="45.98204" lon="6.80693">
        <ele>2441</ele>
        <time>2022-07-16T15:21:58Z</time>
      </trkpt>
      <trkpt lat="45.98212" lon="6.80695">
        <ele>2443</ele>
        <time>2022-07-16T15:22:09Z</time>
      </trkpt>
      <trkpt lat="45.98217" lon="6.80704">
        <ele>2446</ele>
        <time>2022-07-16T15:22:24Z</time>
      </trkpt>
      <trkpt lat="45.98213" lon="6.80702">
        <ele>2448</ele>
        <time>2022-07-16T15:23:54Z</time>
      </trkpt>
      <trkpt lat="45.98209" lon="6.80695">
        <ele>2446</ele>
        <time>2022-07-16T15:24:05Z</time>
      </trkpt>
      <trkpt lat="45.98203" lon="6.80691">
        <ele>2444</ele>
        <time>2022-07-16T15:24:16Z</time>
      </trkpt>
      <trkpt lat="45.98196" lon="6.80686">
        <ele>2442</ele>
        <time>2022-07-16T15:24:25Z</time>
      </trkpt>
      <trkpt lat="45.98194" lon="6.80681">
        <ele>2441</ele>
        <time>2022-07-16T15:24:29Z</time>
      </trkpt>
      <trkpt lat="45.98192" lon="6.80675">
        <ele>2441</ele>
        <time>2022-07-16T15:24:33Z</time>
      </trkpt>
      <trkpt lat="45.98191" lon="6.80669">
        <ele>2441</ele>
        <time>2022-07-16T15:24:37Z</time>
      </trkpt>
      <trkpt lat="45.98184" lon="6.80656">
        <ele>2441</ele>
        <time>2022-07-16T15:24:50Z</time>
      </trkpt>
      <trkpt lat="45.98175" lon="6.80649">
        <ele>2440</ele>
        <time>2022-07-16T15:24:59Z</time>
      </trkpt>
      <trkpt lat="45.98173" lon="6.80642">
        <ele>2440</ele>
        <time>2022-07-16T15:25:04Z</time>
      </trkpt>
      <trkpt lat="45.98171" lon="6.80637">
        <ele>2439</ele>
        <time>2022-07-16T15:25:08Z</time>
      </trkpt>
      <trkpt lat="45.98163" lon="6.80607">
        <ele>2433</ele>
        <time>2022-07-16T15:25:37Z</time>
      </trkpt>
      <trkpt lat="45.9816" lon="6.80601">
        <ele>2432</ele>
        <time>2022-07-16T15:25:43Z</time>
      </trkpt>
      <trkpt lat="45.98156" lon="6.80596">
        <ele>2430</ele>
        <time>2022-07-16T15:25:50Z</time>
      </trkpt>
      <trkpt lat="45.98156" lon="6.80588">
        <ele>2429</ele>
        <time>2022-07-16T15:25:56Z</time>
      </trkpt>
      <trkpt lat="45.98154" lon="6.80582">
        <ele>2428</ele>
        <time>2022-07-16T15:26:01Z</time>
      </trkpt>
      <trkpt lat="45.98149" lon="6.80575">
        <ele>2426</ele>
        <time>2022-07-16T15:26:09Z</time>
      </trkpt>
      <trkpt lat="45.98147" lon="6.80569">
        <ele>2426</ele>
        <time>2022-07-16T15:26:14Z</time>
      </trkpt>
      <trkpt lat="45.98143" lon="6.80565">
        <ele>2425</ele>
        <time>2022-07-16T15:26:18Z</time>
      </trkpt>
      <trkpt lat="45.98137" lon="6.80548">
        <ele>2422</ele>
        <time>2022-07-16T15:26:34Z</time>
      </trkpt>
      <trkpt lat="45.98135" lon="6.80535">
        <ele>2419</ele>
        <time>2022-07-16T15:26:46Z</time>
      </trkpt>
      <trkpt lat="45.9813" lon="6.80526">
        <ele>2418</ele>
        <time>2022-07-16T15:26:56Z</time>
      </trkpt>
      <trkpt lat="45.98131" lon="6.80518">
        <ele>2413</ele>
        <time>2022-07-16T15:27:16Z</time>
      </trkpt>
      <trkpt lat="45.98128" lon="6.80503">
        <ele>2405</ele>
        <time>2022-07-16T15:27:46Z</time>
      </trkpt>
      <trkpt lat="45.98125" lon="6.80497">
        <ele>2402</ele>
        <time>2022-07-16T15:28:01Z</time>
      </trkpt>
      <trkpt lat="45.98122" lon="6.80488">
        <ele>2399</ele>
        <time>2022-07-16T15:28:17Z</time>
      </trkpt>
      <trkpt lat="45.98118" lon="6.80481">
        <ele>2396</ele>
        <time>2022-07-16T15:28:29Z</time>
      </trkpt>
      <trkpt lat="45.98114" lon="6.80476">
        <ele>2392</ele>
        <time>2022-07-16T15:28:44Z</time>
      </trkpt>
      <trkpt lat="45.98112" lon="6.8047">
        <ele>2390</ele>
        <time>2022-07-16T15:28:54Z</time>
      </trkpt>
      <trkpt lat="45.98109" lon="6.80464">
        <ele>2388</ele>
        <time>2022-07-16T15:29:05Z</time>
      </trkpt>
      <trkpt lat="45.98105" lon="6.80455">
        <ele>2384</ele>
        <time>2022-07-16T15:29:20Z</time>
      </trkpt>
      <trkpt lat="45.98104" lon="6.80449">
        <ele>2382</ele>
        <time>2022-07-16T15:29:30Z</time>
      </trkpt>
      <trkpt lat="45.981" lon="6.80443">
        <ele>2379</ele>
        <time>2022-07-16T15:29:45Z</time>
      </trkpt>
      <trkpt lat="45.98099" lon="6.80436">
        <ele>2378</ele>
        <time>2022-07-16T15:29:51Z</time>
      </trkpt>
      <trkpt lat="45.98095" lon="6.80428">
        <ele>2375</ele>
        <time>2022-07-16T15:30:04Z</time>
      </trkpt>
      <trkpt lat="45.98086" lon="6.80392">
        <ele>2367</ele>
        <time>2022-07-16T15:30:37Z</time>
      </trkpt>
      <trkpt lat="45.98086" lon="6.80385">
        <ele>2365</ele>
        <time>2022-07-16T15:30:44Z</time>
      </trkpt>
      <trkpt lat="45.981" lon="6.80376">
        <ele>2363</ele>
        <time>2022-07-16T15:30:56Z</time>
      </trkpt>
      <trkpt lat="45.98103" lon="6.8037">
        <ele>2360</ele>
        <time>2022-07-16T15:31:04Z</time>
      </trkpt>
      <trkpt lat="45.981" lon="6.80365">
        <ele>2357</ele>
        <time>2022-07-16T15:31:14Z</time>
      </trkpt>
      <trkpt lat="45.981" lon="6.80357">
        <ele>2355</ele>
        <time>2022-07-16T15:31:24Z</time>
      </trkpt>
      <trkpt lat="45.98104" lon="6.80349">
        <ele>2353</ele>
        <time>2022-07-16T15:31:34Z</time>
      </trkpt>
      <trkpt lat="45.98104" lon="6.80339">
        <ele>2350</ele>
        <time>2022-07-16T15:31:44Z</time>
      </trkpt>
      <trkpt lat="45.981" lon="6.80329">
        <ele>2348</ele>
        <time>2022-07-16T15:31:54Z</time>
      </trkpt>
      <trkpt lat="45.981" lon="6.80309">
        <ele>2343</ele>
        <time>2022-07-16T15:32:15Z</time>
      </trkpt>
      <trkpt lat="45.98097" lon="6.80303">
        <ele>2342</ele>
        <time>2022-07-16T15:32:20Z</time>
      </trkpt>
      <trkpt lat="45.98097" lon="6.80294">
        <ele>2340</ele>
        <time>2022-07-16T15:32:28Z</time>
      </trkpt>
      <trkpt lat="45.98097" lon="6.80283">
        <ele>2336</ele>
        <time>2022-07-16T15:32:40Z</time>
      </trkpt>
      <trkpt lat="45.9811" lon="6.8026">
        <ele>2331</ele>
        <time>2022-07-16T15:33:03Z</time>
      </trkpt>
      <trkpt lat="45.98109" lon="6.80254">
        <ele>2328</ele>
        <time>2022-07-16T15:33:15Z</time>
      </trkpt>
      <trkpt lat="45.98113" lon="6.80249">
        <ele>2326</ele>
        <time>2022-07-16T15:33:27Z</time>
      </trkpt>
      <trkpt lat="45.98116" lon="6.8024">
        <ele>2324</ele>
        <time>2022-07-16T15:33:38Z</time>
      </trkpt>
      <trkpt lat="45.98116" lon="6.8023">
        <ele>2321</ele>
        <time>2022-07-16T15:33:47Z</time>
      </trkpt>
      <trkpt lat="45.98113" lon="6.80225">
        <ele>2320</ele>
        <time>2022-07-16T15:34:07Z</time>
      </trkpt>
      <trkpt lat="45.98116" lon="6.80218">
        <ele>2320</ele>
        <time>2022-07-16T15:34:40Z</time>
      </trkpt>
      <trkpt lat="45.98119" lon="6.80212">
        <ele>2319</ele>
        <time>2022-07-16T15:34:52Z</time>
      </trkpt>
      <trkpt lat="45.98117" lon="6.80205">
        <ele>2318</ele>
        <time>2022-07-16T15:34:57Z</time>
      </trkpt>
      <trkpt lat="45.98114" lon="6.80184">
        <ele>2317</ele>
        <time>2022-07-16T15:35:10Z</time>
      </trkpt>
      <trkpt lat="45.98118" lon="6.80143">
        <ele>2310</ele>
        <time>2022-07-16T15:35:42Z</time>
      </trkpt>
      <trkpt lat="45.98117" lon="6.80128">
        <ele>2307</ele>
        <time>2022-07-16T15:35:54Z</time>
      </trkpt>
      <trkpt lat="45.98114" lon="6.80122">
        <ele>2306</ele>
        <time>2022-07-16T15:35:59Z</time>
      </trkpt>
      <trkpt lat="45.98114" lon="6.80113">
        <ele>2304</ele>
        <time>2022-07-16T15:36:07Z</time>
      </trkpt>
      <trkpt lat="45.98112" lon="6.80103">
        <ele>2302</ele>
        <time>2022-07-16T15:36:17Z</time>
      </trkpt>
      <trkpt lat="45.98115" lon="6.80094">
        <ele>2299</ele>
        <time>2022-07-16T15:36:27Z</time>
      </trkpt>
      <trkpt lat="45.98113" lon="6.80084">
        <ele>2297</ele>
        <time>2022-07-16T15:36:38Z</time>
      </trkpt>
      <trkpt lat="45.98116" lon="6.80074">
        <ele>2290</ele>
        <time>2022-07-16T15:36:59Z</time>
      </trkpt>
      <trkpt lat="45.98114" lon="6.80066">
        <ele>2287</ele>
        <time>2022-07-16T15:37:09Z</time>
      </trkpt>
      <trkpt lat="45.98115" lon="6.80057">
        <ele>2285</ele>
        <time>2022-07-16T15:37:19Z</time>
      </trkpt>
      <trkpt lat="45.98114" lon="6.80044">
        <ele>2281</ele>
        <time>2022-07-16T15:37:34Z</time>
      </trkpt>
      <trkpt lat="45.98117" lon="6.80031">
        <ele>2277</ele>
        <time>2022-07-16T15:37:45Z</time>
      </trkpt>
      <trkpt lat="45.98114" lon="6.80016">
        <ele>2274</ele>
        <time>2022-07-16T15:37:56Z</time>
      </trkpt>
      <trkpt lat="45.98114" lon="6.80008">
        <ele>2274</ele>
        <time>2022-07-16T15:38:04Z</time>
      </trkpt>
      <trkpt lat="45.98114" lon="6.8">
        <ele>2271</ele>
        <time>2022-07-16T15:38:14Z</time>
      </trkpt>
      <trkpt lat="45.98112" lon="6.79993">
        <ele>2270</ele>
        <time>2022-07-16T15:38:19Z</time>
      </trkpt>
      <trkpt lat="45.98108" lon="6.79988">
        <ele>2268</ele>
        <time>2022-07-16T15:38:24Z</time>
      </trkpt>
      <trkpt lat="45.98104" lon="6.79983">
        <ele>2268</ele>
        <time>2022-07-16T15:38:28Z</time>
      </trkpt>
      <trkpt lat="45.98099" lon="6.79971">
        <ele>2268</ele>
        <time>2022-07-16T15:38:35Z</time>
      </trkpt>
      <trkpt lat="45.98095" lon="6.79959">
        <ele>2268</ele>
        <time>2022-07-16T15:38:42Z</time>
      </trkpt>
      <trkpt lat="45.98093" lon="6.7995">
        <ele>2266</ele>
        <time>2022-07-16T15:38:50Z</time>
      </trkpt>
      <trkpt lat="45.9809" lon="6.79945">
        <ele>2267</ele>
        <time>2022-07-16T15:38:54Z</time>
      </trkpt>
      <trkpt lat="45.98089" lon="6.79935">
        <ele>2268</ele>
        <time>2022-07-16T15:39:01Z</time>
      </trkpt>
      <trkpt lat="45.9809" lon="6.79929">
        <ele>2267</ele>
        <time>2022-07-16T15:39:05Z</time>
      </trkpt>
      <trkpt lat="45.98088" lon="6.79921">
        <ele>2267</ele>
        <time>2022-07-16T15:39:10Z</time>
      </trkpt>
      <trkpt lat="45.98089" lon="6.79913">
        <ele>2267</ele>
        <time>2022-07-16T15:39:15Z</time>
      </trkpt>
      <trkpt lat="45.98093" lon="6.79908">
        <ele>2268</ele>
        <time>2022-07-16T15:39:20Z</time>
      </trkpt>
      <trkpt lat="45.98097" lon="6.79904">
        <ele>2270</ele>
        <time>2022-07-16T15:39:29Z</time>
      </trkpt>
      <trkpt lat="45.98095" lon="6.79897">
        <ele>2268</ele>
        <time>2022-07-16T15:39:38Z</time>
      </trkpt>
      <trkpt lat="45.98097" lon="6.79885">
        <ele>2265</ele>
        <time>2022-07-16T15:40:48Z</time>
      </trkpt>
      <trkpt lat="45.98093" lon="6.79872">
        <ele>2264</ele>
        <time>2022-07-16T15:40:59Z</time>
      </trkpt>
      <trkpt lat="45.98094" lon="6.79861">
        <ele>2263</ele>
        <time>2022-07-16T15:41:16Z</time>
      </trkpt>
      <trkpt lat="45.98091" lon="6.79855">
        <ele>2263</ele>
        <time>2022-07-16T15:41:21Z</time>
      </trkpt>
      <trkpt lat="45.9809" lon="6.79847">
        <ele>2263</ele>
        <time>2022-07-16T15:41:28Z</time>
      </trkpt>
      <trkpt lat="45.98088" lon="6.79835">
        <ele>2262</ele>
        <time>2022-07-16T15:41:36Z</time>
      </trkpt>
      <trkpt lat="45.98084" lon="6.79829">
        <ele>2261</ele>
        <time>2022-07-16T15:41:41Z</time>
      </trkpt>
      <trkpt lat="45.9808" lon="6.79823">
        <ele>2261</ele>
        <time>2022-07-16T15:41:48Z</time>
      </trkpt>
      <trkpt lat="45.98077" lon="6.79817">
        <ele>2262</ele>
        <time>2022-07-16T15:41:52Z</time>
      </trkpt>
      <trkpt lat="45.98075" lon="6.7981">
        <ele>2261</ele>
        <time>2022-07-16T15:41:57Z</time>
      </trkpt>
      <trkpt lat="45.98073" lon="6.79802">
        <ele>2261</ele>
        <time>2022-07-16T15:42:03Z</time>
      </trkpt>
      <trkpt lat="45.98063" lon="6.79785">
        <ele>2261</ele>
        <time>2022-07-16T15:42:19Z</time>
      </trkpt>
      <trkpt lat="45.9806" lon="6.79781">
        <ele>2260</ele>
        <time>2022-07-16T15:42:23Z</time>
      </trkpt>
      <trkpt lat="45.98052" lon="6.79765">
        <ele>2258</ele>
        <time>2022-07-16T15:42:37Z</time>
      </trkpt>
      <trkpt lat="45.98052" lon="6.79759">
        <ele>2258</ele>
        <time>2022-07-16T15:42:42Z</time>
      </trkpt>
      <trkpt lat="45.9805" lon="6.79753">
        <ele>2258</ele>
        <time>2022-07-16T15:42:47Z</time>
      </trkpt>
      <trkpt lat="45.98049" lon="6.79746">
        <ele>2257</ele>
        <time>2022-07-16T15:42:52Z</time>
      </trkpt>
      <trkpt lat="45.98049" lon="6.79739">
        <ele>2257</ele>
        <time>2022-07-16T15:42:57Z</time>
      </trkpt>
      <trkpt lat="45.98054" lon="6.79729">
        <ele>2257</ele>
        <time>2022-07-16T15:43:05Z</time>
      </trkpt>
      <trkpt lat="45.9805" lon="6.79722">
        <ele>2256</ele>
        <time>2022-07-16T15:43:11Z</time>
      </trkpt>
      <trkpt lat="45.98048" lon="6.79716">
        <ele>2256</ele>
        <time>2022-07-16T15:43:15Z</time>
      </trkpt>
      <trkpt lat="45.98045" lon="6.79709">
        <ele>2255</ele>
        <time>2022-07-16T15:43:21Z</time>
      </trkpt>
      <trkpt lat="45.9804" lon="6.79703">
        <ele>2255</ele>
        <time>2022-07-16T15:43:27Z</time>
      </trkpt>
      <trkpt lat="45.98039" lon="6.79693">
        <ele>2254</ele>
        <time>2022-07-16T15:43:35Z</time>
      </trkpt>
      <trkpt lat="45.98038" lon="6.79682">
        <ele>2254</ele>
        <time>2022-07-16T15:43:44Z</time>
      </trkpt>
      <trkpt lat="45.98039" lon="6.79676">
        <ele>2254</ele>
        <time>2022-07-16T15:43:50Z</time>
      </trkpt>
      <trkpt lat="45.98035" lon="6.7967">
        <ele>2254</ele>
        <time>2022-07-16T15:43:55Z</time>
      </trkpt>
      <trkpt lat="45.98034" lon="6.79664">
        <ele>2255</ele>
        <time>2022-07-16T15:44:02Z</time>
      </trkpt>
      <trkpt lat="45.9803" lon="6.79655">
        <ele>2255</ele>
        <time>2022-07-16T15:44:13Z</time>
      </trkpt>
      <trkpt lat="45.98024" lon="6.79652">
        <ele>2255</ele>
        <time>2022-07-16T15:44:23Z</time>
      </trkpt>
      <trkpt lat="45.98019" lon="6.7965">
        <ele>2252</ele>
        <time>2022-07-16T15:44:38Z</time>
      </trkpt>
      <trkpt lat="45.98013" lon="6.79646">
        <ele>2250</ele>
        <time>2022-07-16T15:44:48Z</time>
      </trkpt>
      <trkpt lat="45.98013" lon="6.79654">
        <ele>2249</ele>
        <time>2022-07-16T15:45:26Z</time>
      </trkpt>
      <trkpt lat="45.98007" lon="6.79657">
        <ele>2246</ele>
        <time>2022-07-16T15:45:41Z</time>
      </trkpt>
      <trkpt lat="45.98003" lon="6.79652">
        <ele>2245</ele>
        <time>2022-07-16T15:45:47Z</time>
      </trkpt>
      <trkpt lat="45.97999" lon="6.79652">
        <ele>2244</ele>
        <time>2022-07-16T15:45:52Z</time>
      </trkpt>
      <trkpt lat="45.97997" lon="6.7966">
        <ele>2242</ele>
        <time>2022-07-16T15:46:01Z</time>
      </trkpt>
      <trkpt lat="45.97996" lon="6.79667">
        <ele>2239</ele>
        <time>2022-07-16T15:46:13Z</time>
      </trkpt>
      <trkpt lat="45.97996" lon="6.79676">
        <ele>2237</ele>
        <time>2022-07-16T15:46:33Z</time>
      </trkpt>
      <trkpt lat="45.9799" lon="6.79672">
        <ele>2234</ele>
        <time>2022-07-16T15:46:48Z</time>
      </trkpt>
      <trkpt lat="45.97986" lon="6.79678">
        <ele>2233</ele>
        <time>2022-07-16T15:46:59Z</time>
      </trkpt>
      <trkpt lat="45.97983" lon="6.79683">
        <ele>2231</ele>
        <time>2022-07-16T15:47:11Z</time>
      </trkpt>
      <trkpt lat="45.97983" lon="6.79693">
        <ele>2229</ele>
        <time>2022-07-16T15:47:22Z</time>
      </trkpt>
      <trkpt lat="45.97982" lon="6.79702">
        <ele>2227</ele>
        <time>2022-07-16T15:47:32Z</time>
      </trkpt>
      <trkpt lat="45.97982" lon="6.79711">
        <ele>2226</ele>
        <time>2022-07-16T15:47:43Z</time>
      </trkpt>
      <trkpt lat="45.97976" lon="6.79716">
        <ele>2221</ele>
        <time>2022-07-16T15:48:04Z</time>
      </trkpt>
      <trkpt lat="45.9797" lon="6.79746">
        <ele>2215</ele>
        <time>2022-07-16T15:48:34Z</time>
      </trkpt>
      <trkpt lat="45.97973" lon="6.79754">
        <ele>2214</ele>
        <time>2022-07-16T15:48:41Z</time>
      </trkpt>
      <trkpt lat="45.9797" lon="6.79761">
        <ele>2210</ele>
        <time>2022-07-16T15:49:01Z</time>
      </trkpt>
      <trkpt lat="45.97972" lon="6.79773">
        <ele>2208</ele>
        <time>2022-07-16T15:49:11Z</time>
      </trkpt>
      <trkpt lat="45.97964" lon="6.79759">
        <ele>2203</ele>
        <time>2022-07-16T15:49:37Z</time>
      </trkpt>
      <trkpt lat="45.97956" lon="6.7975">
        <ele>2200</ele>
        <time>2022-07-16T15:49:52Z</time>
      </trkpt>
      <trkpt lat="45.97949" lon="6.79751">
        <ele>2198</ele>
        <time>2022-07-16T15:50:02Z</time>
      </trkpt>
      <trkpt lat="45.97944" lon="6.79748">
        <ele>2196</ele>
        <time>2022-07-16T15:50:12Z</time>
      </trkpt>
      <trkpt lat="45.9794" lon="6.79745">
        <ele>2194</ele>
        <time>2022-07-16T15:50:22Z</time>
      </trkpt>
      <trkpt lat="45.97938" lon="6.79739">
        <ele>2193</ele>
        <time>2022-07-16T15:50:27Z</time>
      </trkpt>
      <trkpt lat="45.97921" lon="6.79722">
        <ele>2184</ele>
        <time>2022-07-16T15:50:58Z</time>
      </trkpt>
      <trkpt lat="45.97912" lon="6.79709">
        <ele>2182</ele>
        <time>2022-07-16T15:51:15Z</time>
      </trkpt>
      <trkpt lat="45.97908" lon="6.79708">
        <ele>2180</ele>
        <time>2022-07-16T15:51:20Z</time>
      </trkpt>
      <trkpt lat="45.97903" lon="6.79703">
        <ele>2179</ele>
        <time>2022-07-16T15:51:28Z</time>
      </trkpt>
      <trkpt lat="45.979" lon="6.79697">
        <ele>2178</ele>
        <time>2022-07-16T15:51:33Z</time>
      </trkpt>
      <trkpt lat="45.97897" lon="6.79695">
        <ele>2177</ele>
        <time>2022-07-16T15:51:38Z</time>
      </trkpt>
      <trkpt lat="45.97892" lon="6.79693">
        <ele>2175</ele>
        <time>2022-07-16T15:51:48Z</time>
      </trkpt>
      <trkpt lat="45.97887" lon="6.79681">
        <ele>2172</ele>
        <time>2022-07-16T15:51:59Z</time>
      </trkpt>
      <trkpt lat="45.97875" lon="6.79673">
        <ele>2170</ele>
        <time>2022-07-16T15:52:13Z</time>
      </trkpt>
      <trkpt lat="45.97872" lon="6.79667">
        <ele>2170</ele>
        <time>2022-07-16T15:52:17Z</time>
      </trkpt>
      <trkpt lat="45.97865" lon="6.79669">
        <ele>2167</ele>
        <time>2022-07-16T15:52:29Z</time>
      </trkpt>
      <trkpt lat="45.97859" lon="6.79665">
        <ele>2166</ele>
        <time>2022-07-16T15:52:36Z</time>
      </trkpt>
      <trkpt lat="45.97852" lon="6.79664">
        <ele>2164</ele>
        <time>2022-07-16T15:52:48Z</time>
      </trkpt>
      <trkpt lat="45.97849" lon="6.79659">
        <ele>2162</ele>
        <time>2022-07-16T15:52:53Z</time>
      </trkpt>
      <trkpt lat="45.97846" lon="6.79655">
        <ele>2161</ele>
        <time>2022-07-16T15:52:58Z</time>
      </trkpt>
      <trkpt lat="45.97838" lon="6.79653">
        <ele>2159</ele>
        <time>2022-07-16T15:53:10Z</time>
      </trkpt>
      <trkpt lat="45.97835" lon="6.79649">
        <ele>2157</ele>
        <time>2022-07-16T15:53:18Z</time>
      </trkpt>
      <trkpt lat="45.97822" lon="6.79643">
        <ele>2155</ele>
        <time>2022-07-16T15:53:31Z</time>
      </trkpt>
      <trkpt lat="45.97821" lon="6.79654">
        <ele>2153</ele>
        <time>2022-07-16T15:53:42Z</time>
      </trkpt>
      <trkpt lat="45.97823" lon="6.79669">
        <ele>2151</ele>
        <time>2022-07-16T15:53:54Z</time>
      </trkpt>
      <trkpt lat="45.9783" lon="6.79685">
        <ele>2148</ele>
        <time>2022-07-16T15:54:10Z</time>
      </trkpt>
      <trkpt lat="45.97828" lon="6.79693">
        <ele>2146</ele>
        <time>2022-07-16T15:54:22Z</time>
      </trkpt>
      <trkpt lat="45.97828" lon="6.79703">
        <ele>2145</ele>
        <time>2022-07-16T15:54:32Z</time>
      </trkpt>
      <trkpt lat="45.97828" lon="6.79714">
        <ele>2142</ele>
        <time>2022-07-16T15:54:42Z</time>
      </trkpt>
      <trkpt lat="45.97823" lon="6.79721">
        <ele>2141</ele>
        <time>2022-07-16T15:54:52Z</time>
      </trkpt>
      <trkpt lat="45.97822" lon="6.79732">
        <ele>2139</ele>
        <time>2022-07-16T15:55:02Z</time>
      </trkpt>
      <trkpt lat="45.97817" lon="6.79746">
        <ele>2136</ele>
        <time>2022-07-16T15:55:22Z</time>
      </trkpt>
      <trkpt lat="45.97816" lon="6.79754">
        <ele>2134</ele>
        <time>2022-07-16T15:55:50Z</time>
      </trkpt>
      <trkpt lat="45.97813" lon="6.79758">
        <ele>2133</ele>
        <time>2022-07-16T15:56:40Z</time>
      </trkpt>
      <trkpt lat="45.97804" lon="6.79755">
        <ele>2131</ele>
        <time>2022-07-16T15:56:50Z</time>
      </trkpt>
      <trkpt lat="45.97801" lon="6.7975">
        <ele>2128</ele>
        <time>2022-07-16T15:56:57Z</time>
      </trkpt>
      <trkpt lat="45.97798" lon="6.79744">
        <ele>2128</ele>
        <time>2022-07-16T15:57:01Z</time>
      </trkpt>
      <trkpt lat="45.97797" lon="6.79727">
        <ele>2125</ele>
        <time>2022-07-16T15:57:14Z</time>
      </trkpt>
      <trkpt lat="45.97796" lon="6.79717">
        <ele>2125</ele>
        <time>2022-07-16T15:57:23Z</time>
      </trkpt>
      <trkpt lat="45.9779" lon="6.79711">
        <ele>2123</ele>
        <time>2022-07-16T15:57:34Z</time>
      </trkpt>
      <trkpt lat="45.97785" lon="6.79706">
        <ele>2122</ele>
        <time>2022-07-16T15:57:39Z</time>
      </trkpt>
      <trkpt lat="45.97783" lon="6.79696">
        <ele>2120</ele>
        <time>2022-07-16T15:57:53Z</time>
      </trkpt>
      <trkpt lat="45.97779" lon="6.79686">
        <ele>2119</ele>
        <time>2022-07-16T15:58:02Z</time>
      </trkpt>
      <trkpt lat="45.97774" lon="6.79682">
        <ele>2117</ele>
        <time>2022-07-16T15:58:11Z</time>
      </trkpt>
      <trkpt lat="45.9777" lon="6.79677">
        <ele>2116</ele>
        <time>2022-07-16T15:58:15Z</time>
      </trkpt>
      <trkpt lat="45.97766" lon="6.79674">
        <ele>2116</ele>
        <time>2022-07-16T15:58:20Z</time>
      </trkpt>
      <trkpt lat="45.97763" lon="6.79668">
        <ele>2114</ele>
        <time>2022-07-16T15:58:29Z</time>
      </trkpt>
      <trkpt lat="45.97764" lon="6.79658">
        <ele>2113</ele>
        <time>2022-07-16T15:58:39Z</time>
      </trkpt>
      <trkpt lat="45.97761" lon="6.79651">
        <ele>2112</ele>
        <time>2022-07-16T15:58:45Z</time>
      </trkpt>
      <trkpt lat="45.97756" lon="6.79647">
        <ele>2110</ele>
        <time>2022-07-16T15:58:52Z</time>
      </trkpt>
      <trkpt lat="45.97755" lon="6.7964">
        <ele>2108</ele>
        <time>2022-07-16T15:59:04Z</time>
      </trkpt>
      <trkpt lat="45.9775" lon="6.79641">
        <ele>2107</ele>
        <time>2022-07-16T15:59:22Z</time>
      </trkpt>
      <trkpt lat="45.97744" lon="6.79653">
        <ele>2105</ele>
        <time>2022-07-16T15:59:31Z</time>
      </trkpt>
      <trkpt lat="45.97732" lon="6.79642">
        <ele>2100</ele>
        <time>2022-07-16T15:59:57Z</time>
      </trkpt>
      <trkpt lat="45.97726" lon="6.79635">
        <ele>2098</ele>
        <time>2022-07-16T16:00:10Z</time>
      </trkpt>
      <trkpt lat="45.97722" lon="6.79638">
        <ele>2097</ele>
        <time>2022-07-16T16:00:14Z</time>
      </trkpt>
      <trkpt lat="45.97721" lon="6.79652">
        <ele>2095</ele>
        <time>2022-07-16T16:00:25Z</time>
      </trkpt>
      <trkpt lat="45.97723" lon="6.79659">
        <ele>2094</ele>
        <time>2022-07-16T16:00:31Z</time>
      </trkpt>
      <trkpt lat="45.97725" lon="6.79666">
        <ele>2093</ele>
        <time>2022-07-16T16:00:39Z</time>
      </trkpt>
      <trkpt lat="45.97727" lon="6.79671">
        <ele>2092</ele>
        <time>2022-07-16T16:00:44Z</time>
      </trkpt>
      <trkpt lat="45.97729" lon="6.79676">
        <ele>2090</ele>
        <time>2022-07-16T16:00:51Z</time>
      </trkpt>
      <trkpt lat="45.97724" lon="6.79677">
        <ele>2089</ele>
        <time>2022-07-16T16:00:57Z</time>
      </trkpt>
      <trkpt lat="45.97717" lon="6.79671">
        <ele>2087</ele>
        <time>2022-07-16T16:01:08Z</time>
      </trkpt>
      <trkpt lat="45.97715" lon="6.79664">
        <ele>2085</ele>
        <time>2022-07-16T16:01:16Z</time>
      </trkpt>
      <trkpt lat="45.97708" lon="6.79657">
        <ele>2083</ele>
        <time>2022-07-16T16:01:29Z</time>
      </trkpt>
      <trkpt lat="45.97703" lon="6.79663">
        <ele>2083</ele>
        <time>2022-07-16T16:01:39Z</time>
      </trkpt>
      <trkpt lat="45.97701" lon="6.79669">
        <ele>2082</ele>
        <time>2022-07-16T16:01:44Z</time>
      </trkpt>
      <trkpt lat="45.97695" lon="6.79673">
        <ele>2079</ele>
        <time>2022-07-16T16:01:56Z</time>
      </trkpt>
      <trkpt lat="45.97691" lon="6.79673">
        <ele>2078</ele>
        <time>2022-07-16T16:02:02Z</time>
      </trkpt>
      <trkpt lat="45.97676" lon="6.79665">
        <ele>2073</ele>
        <time>2022-07-16T16:02:28Z</time>
      </trkpt>
      <trkpt lat="45.97672" lon="6.79659">
        <ele>2072</ele>
        <time>2022-07-16T16:02:33Z</time>
      </trkpt>
      <trkpt lat="45.97658" lon="6.79653">
        <ele>2068</ele>
        <time>2022-07-16T16:02:49Z</time>
      </trkpt>
      <trkpt lat="45.97651" lon="6.79654">
        <ele>2067</ele>
        <time>2022-07-16T16:02:57Z</time>
      </trkpt>
      <trkpt lat="45.97637" lon="6.79646">
        <ele>2062</ele>
        <time>2022-07-16T16:03:19Z</time>
      </trkpt>
      <trkpt lat="45.97631" lon="6.79646">
        <ele>2061</ele>
        <time>2022-07-16T16:03:29Z</time>
      </trkpt>
      <trkpt lat="45.97632" lon="6.79652">
        <ele>2061</ele>
        <time>2022-07-16T16:03:33Z</time>
      </trkpt>
      <trkpt lat="45.97634" lon="6.79657">
        <ele>2060</ele>
        <time>2022-07-16T16:03:38Z</time>
      </trkpt>
      <trkpt lat="45.97635" lon="6.79664">
        <ele>2059</ele>
        <time>2022-07-16T16:03:43Z</time>
      </trkpt>
      <trkpt lat="45.97633" lon="6.79671">
        <ele>2058</ele>
        <time>2022-07-16T16:03:50Z</time>
      </trkpt>
      <trkpt lat="45.97635" lon="6.79679">
        <ele>2057</ele>
        <time>2022-07-16T16:03:56Z</time>
      </trkpt>
      <trkpt lat="45.97634" lon="6.79695">
        <ele>2054</ele>
        <time>2022-07-16T16:04:10Z</time>
      </trkpt>
      <trkpt lat="45.9763" lon="6.79713">
        <ele>2051</ele>
        <time>2022-07-16T16:04:25Z</time>
      </trkpt>
      <trkpt lat="45.97632" lon="6.79729">
        <ele>2049</ele>
        <time>2022-07-16T16:04:37Z</time>
      </trkpt>
      <trkpt lat="45.97631" lon="6.79738">
        <ele>2048</ele>
        <time>2022-07-16T16:04:45Z</time>
      </trkpt>
      <trkpt lat="45.97631" lon="6.79748">
        <ele>2046</ele>
        <time>2022-07-16T16:04:55Z</time>
      </trkpt>
      <trkpt lat="45.97637" lon="6.79774">
        <ele>2042</ele>
        <time>2022-07-16T16:05:20Z</time>
      </trkpt>
      <trkpt lat="45.97636" lon="6.79785">
        <ele>2039</ele>
        <time>2022-07-16T16:05:30Z</time>
      </trkpt>
      <trkpt lat="45.9763" lon="6.79788">
        <ele>2038</ele>
        <time>2022-07-16T16:05:40Z</time>
      </trkpt>
      <trkpt lat="45.97631" lon="6.79794">
        <ele>2037</ele>
        <time>2022-07-16T16:05:45Z</time>
      </trkpt>
      <trkpt lat="45.97632" lon="6.79804">
        <ele>2035</ele>
        <time>2022-07-16T16:05:57Z</time>
      </trkpt>
      <trkpt lat="45.97628" lon="6.79807">
        <ele>2035</ele>
        <time>2022-07-16T16:06:02Z</time>
      </trkpt>
      <trkpt lat="45.97622" lon="6.79823">
        <ele>2036</ele>
        <time>2022-07-16T16:06:41Z</time>
      </trkpt>
      <trkpt lat="45.9762" lon="6.79846">
        <ele>2033</ele>
        <time>2022-07-16T16:07:01Z</time>
      </trkpt>
      <trkpt lat="45.97621" lon="6.79858">
        <ele>2032</ele>
        <time>2022-07-16T16:07:11Z</time>
      </trkpt>
      <trkpt lat="45.97621" lon="6.79868">
        <ele>2031</ele>
        <time>2022-07-16T16:07:19Z</time>
      </trkpt>
      <trkpt lat="45.97622" lon="6.79888">
        <ele>2029</ele>
        <time>2022-07-16T16:07:32Z</time>
      </trkpt>
      <trkpt lat="45.97618" lon="6.79894">
        <ele>2029</ele>
        <time>2022-07-16T16:07:39Z</time>
      </trkpt>
      <trkpt lat="45.97616" lon="6.799">
        <ele>2029</ele>
        <time>2022-07-16T16:07:44Z</time>
      </trkpt>
      <trkpt lat="45.97615" lon="6.79906">
        <ele>2028</ele>
        <time>2022-07-16T16:07:51Z</time>
      </trkpt>
      <trkpt lat="45.97615" lon="6.79913">
        <ele>2026</ele>
        <time>2022-07-16T16:07:57Z</time>
      </trkpt>
      <trkpt lat="45.97617" lon="6.79918">
        <ele>2024</ele>
        <time>2022-07-16T16:08:03Z</time>
      </trkpt>
      <trkpt lat="45.9762" lon="6.79923">
        <ele>2023</ele>
        <time>2022-07-16T16:08:08Z</time>
      </trkpt>
      <trkpt lat="45.97628" lon="6.79929">
        <ele>2021</ele>
        <time>2022-07-16T16:08:23Z</time>
      </trkpt>
      <trkpt lat="45.97631" lon="6.79935">
        <ele>2021</ele>
        <time>2022-07-16T16:08:28Z</time>
      </trkpt>
      <trkpt lat="45.97631" lon="6.79943">
        <ele>2022</ele>
        <time>2022-07-16T16:08:35Z</time>
      </trkpt>
      <trkpt lat="45.97628" lon="6.79955">
        <ele>2021</ele>
        <time>2022-07-16T16:08:45Z</time>
      </trkpt>
      <trkpt lat="45.97629" lon="6.79967">
        <ele>2020</ele>
        <time>2022-07-16T16:08:53Z</time>
      </trkpt>
      <trkpt lat="45.9763" lon="6.79973">
        <ele>2021</ele>
        <time>2022-07-16T16:08:57Z</time>
      </trkpt>
      <trkpt lat="45.97627" lon="6.7998">
        <ele>2021</ele>
        <time>2022-07-16T16:09:02Z</time>
      </trkpt>
      <trkpt lat="45.97624" lon="6.79987">
        <ele>2020</ele>
        <time>2022-07-16T16:09:09Z</time>
      </trkpt>
      <trkpt lat="45.9762" lon="6.79987">
        <ele>2020</ele>
        <time>2022-07-16T16:09:13Z</time>
      </trkpt>
      <trkpt lat="45.97607" lon="6.79993">
        <ele>2017</ele>
        <time>2022-07-16T16:09:27Z</time>
      </trkpt>
      <trkpt lat="45.97604" lon="6.79998">
        <ele>2017</ele>
        <time>2022-07-16T16:09:32Z</time>
      </trkpt>
      <trkpt lat="45.97583" lon="6.80013">
        <ele>2015</ele>
        <time>2022-07-16T16:09:53Z</time>
      </trkpt>
      <trkpt lat="45.97575" lon="6.8004">
        <ele>2011</ele>
        <time>2022-07-16T16:10:15Z</time>
      </trkpt>
      <trkpt lat="45.97565" lon="6.80041">
        <ele>2009</ele>
        <time>2022-07-16T16:10:23Z</time>
      </trkpt>
      <trkpt lat="45.9756" lon="6.80044">
        <ele>2008</ele>
        <time>2022-07-16T16:10:30Z</time>
      </trkpt>
      <trkpt lat="45.97556" lon="6.80049">
        <ele>2006</ele>
        <time>2022-07-16T16:10:36Z</time>
      </trkpt>
      <trkpt lat="45.97555" lon="6.80056">
        <ele>2006</ele>
        <time>2022-07-16T16:10:40Z</time>
      </trkpt>
      <trkpt lat="45.97548" lon="6.80065">
        <ele>2004</ele>
        <time>2022-07-16T16:10:49Z</time>
      </trkpt>
      <trkpt lat="45.97544" lon="6.80066">
        <ele>2004</ele>
        <time>2022-07-16T16:10:53Z</time>
      </trkpt>
      <trkpt lat="45.97539" lon="6.80067">
        <ele>2004</ele>
        <time>2022-07-16T16:11:00Z</time>
      </trkpt>
      <trkpt lat="45.97535" lon="6.80063">
        <ele>2004</ele>
        <time>2022-07-16T16:11:04Z</time>
      </trkpt>
      <trkpt lat="45.97531" lon="6.80059">
        <ele>2003</ele>
        <time>2022-07-16T16:11:08Z</time>
      </trkpt>
      <trkpt lat="45.97527" lon="6.80059">
        <ele>2003</ele>
        <time>2022-07-16T16:11:12Z</time>
      </trkpt>
      <trkpt lat="45.97521" lon="6.80061">
        <ele>2003</ele>
        <time>2022-07-16T16:11:16Z</time>
      </trkpt>
      <trkpt lat="45.97517" lon="6.80057">
        <ele>2002</ele>
        <time>2022-07-16T16:11:20Z</time>
      </trkpt>
      <trkpt lat="45.97512" lon="6.80056">
        <ele>2001</ele>
        <time>2022-07-16T16:11:26Z</time>
      </trkpt>
      <trkpt lat="45.97508" lon="6.80052">
        <ele>2000</ele>
        <time>2022-07-16T16:11:30Z</time>
      </trkpt>
      <trkpt lat="45.97495" lon="6.8006">
        <ele>1999</ele>
        <time>2022-07-16T16:11:46Z</time>
      </trkpt>
      <trkpt lat="45.97495" lon="6.80057">
        <ele>1998</ele>
        <time>2022-07-16T16:12:28Z</time>
      </trkpt>
      <trkpt lat="45.97488" lon="6.80058">
        <ele>1998</ele>
        <time>2022-07-16T16:12:32Z</time>
      </trkpt>
      <trkpt lat="45.9748" lon="6.80042">
        <ele>1997</ele>
        <time>2022-07-16T16:16:24Z</time>
      </trkpt>
      <trkpt lat="45.97484" lon="6.80082">
        <ele>1992</ele>
        <time>2022-07-16T16:22:22Z</time>
      </trkpt>
      <trkpt lat="45.97487" lon="6.80064">
        <ele>1993</ele>
        <time>2022-07-16T16:23:04Z</time>
      </trkpt>
      <trkpt lat="45.97492" lon="6.80064">
        <ele>1993</ele>
        <time>2022-07-16T16:24:09Z</time>
      </trkpt>
      <trkpt lat="45.97497" lon="6.80064">
        <ele>1996</ele>
        <time>2022-07-16T16:27:34Z</time>
      </trkpt>
      <trkpt lat="45.97497" lon="6.80058">
        <ele>1996</ele>
        <time>2022-07-16T16:27:39Z</time>
      </trkpt>
      <trkpt lat="45.97491" lon="6.80056">
        <ele>1995</ele>
        <time>2022-07-16T16:27:51Z</time>
      </trkpt>
      <trkpt lat="45.97493" lon="6.80049">
        <ele>1995</ele>
        <time>2022-07-16T16:28:31Z</time>
      </trkpt>
      <trkpt lat="45.97497" lon="6.80054">
        <ele>1995</ele>
        <time>2022-07-16T16:28:51Z</time>
      </trkpt>
      <trkpt lat="45.97492" lon="6.80066">
        <ele>1994</ele>
        <time>2022-07-16T16:36:39Z</time>
      </trkpt>
      <trkpt lat="45.97487" lon="6.80071">
        <ele>1995</ele>
        <time>2022-07-16T16:38:31Z</time>
      </trkpt>
      <trkpt lat="45.97489" lon="6.80068">
        <ele>1995</ele>
        <time>2022-07-16T16:39:30Z</time>
      </trkpt>
      <trkpt lat="45.9749" lon="6.80064">
        <ele>1996</ele>
        <time>2022-07-16T16:40:20Z</time>
      </trkpt>
      <trkpt lat="45.97496" lon="6.80066">
        <ele>1995</ele>
        <time>2022-07-16T16:41:44Z</time>
      </trkpt>
      <trkpt lat="45.97496" lon="6.80068">
        <ele>1997</ele>
        <time>2022-07-16T16:45:07Z</time>
      </trkpt>
      <trkpt lat="45.97496" lon="6.80067">
        <ele>1997</ele>
        <time>2022-07-16T16:45:26Z</time>
      </trkpt>
      <trkpt lat="45.97491" lon="6.80056">
        <ele>1996</ele>
        <time>2022-07-16T16:45:45Z</time>
      </trkpt>
      <trkpt lat="45.97486" lon="6.80066">
        <ele>1995</ele>
        <time>2022-07-16T17:33:05Z</time>
      </trkpt>
      <trkpt lat="45.97493" lon="6.80066">
        <ele>1995</ele>
        <time>2022-07-16T17:33:50Z</time>
      </trkpt>
      <trkpt lat="45.97491" lon="6.8006">
        <ele>1995</ele>
        <time>2022-07-16T17:34:45Z</time>
      </trkpt>
      <trkpt lat="45.97489" lon="6.80069">
        <ele>1996</ele>
        <time>2022-07-16T17:36:09Z</time>
      </trkpt>
      <trkpt lat="45.97489" lon="6.80068">
        <ele>1996</ele>
        <time>2022-07-16T17:36:49Z</time>
      </trkpt>
      <trkpt lat="45.9749" lon="6.80061">
        <ele>1996</ele>
        <time>2022-07-16T17:36:59Z</time>
      </trkpt>
      <trkpt lat="45.97492" lon="6.80052">
        <ele>1995</ele>
        <time>2022-07-16T17:37:09Z</time>
      </trkpt>
      <trkpt lat="45.97484" lon="6.80059">
        <ele>1997</ele>
        <time>2022-07-16T17:41:00Z</time>
      </trkpt>
      <trkpt lat="45.97493" lon="6.80067">
        <ele>1994</ele>
        <time>2022-07-16T17:45:46Z</time>
      </trkpt>
      <trkpt lat="45.97497" lon="6.80059">
        <ele>1994</ele>
        <time>2022-07-16T17:46:17Z</time>
      </trkpt>
      <trkpt lat="45.97502" lon="6.80057">
        <ele>1994</ele>
        <time>2022-07-16T17:46:22Z</time>
      </trkpt>
      <trkpt lat="45.975" lon="6.80051">
        <ele>1994</ele>
        <time>2022-07-16T17:46:29Z</time>
      </trkpt>
      <trkpt lat="45.97496" lon="6.80046">
        <ele>1993</ele>
        <time>2022-07-16T17:46:39Z</time>
      </trkpt>
      <trkpt lat="45.9749" lon="6.8004">
        <ele>1992</ele>
        <time>2022-07-16T17:46:50Z</time>
      </trkpt>
      <trkpt lat="45.97486" lon="6.80039">
        <ele>1991</ele>
        <time>2022-07-16T17:46:56Z</time>
      </trkpt>
      <trkpt lat="45.97479" lon="6.80037">
        <ele>1990</ele>
        <time>2022-07-16T17:47:06Z</time>
      </trkpt>
      <trkpt lat="45.97463" lon="6.8003">
        <ele>1987</ele>
        <time>2022-07-16T17:47:30Z</time>
      </trkpt>
      <trkpt lat="45.97454" lon="6.80022">
        <ele>1985</ele>
        <time>2022-07-16T17:47:45Z</time>
      </trkpt>
      <trkpt lat="45.97437" lon="6.79998">
        <ele>1983</ele>
        <time>2022-07-16T17:48:09Z</time>
      </trkpt>
      <trkpt lat="45.97418" lon="6.79991">
        <ele>1982</ele>
        <time>2022-07-16T17:48:28Z</time>
      </trkpt>
      <trkpt lat="45.97412" lon="6.79982">
        <ele>1982</ele>
        <time>2022-07-16T17:48:35Z</time>
      </trkpt>
      <trkpt lat="45.97406" lon="6.79977">
        <ele>1981</ele>
        <time>2022-07-16T17:48:41Z</time>
      </trkpt>
      <trkpt lat="45.97391" lon="6.79968">
        <ele>1981</ele>
        <time>2022-07-16T17:48:56Z</time>
      </trkpt>
      <trkpt lat="45.97378" lon="6.79953">
        <ele>1981</ele>
        <time>2022-07-16T17:49:09Z</time>
      </trkpt>
      <trkpt lat="45.97372" lon="6.79942">
        <ele>1981</ele>
        <time>2022-07-16T17:49:17Z</time>
      </trkpt>
      <trkpt lat="45.97362" lon="6.79929">
        <ele>1980</ele>
        <time>2022-07-16T17:49:28Z</time>
      </trkpt>
      <trkpt lat="45.97356" lon="6.79925">
        <ele>1980</ele>
        <time>2022-07-16T17:49:35Z</time>
      </trkpt>
      <trkpt lat="45.97353" lon="6.7992">
        <ele>1981</ele>
        <time>2022-07-16T17:49:39Z</time>
      </trkpt>
      <trkpt lat="45.97349" lon="6.79916">
        <ele>1981</ele>
        <time>2022-07-16T17:49:44Z</time>
      </trkpt>
      <trkpt lat="45.97342" lon="6.79906">
        <ele>1981</ele>
        <time>2022-07-16T17:49:52Z</time>
      </trkpt>
      <trkpt lat="45.97328" lon="6.79898">
        <ele>1981</ele>
        <time>2022-07-16T17:50:04Z</time>
      </trkpt>
      <trkpt lat="45.97319" lon="6.79894">
        <ele>1982</ele>
        <time>2022-07-16T17:50:13Z</time>
      </trkpt>
      <trkpt lat="45.97315" lon="6.7989">
        <ele>1983</ele>
        <time>2022-07-16T17:50:17Z</time>
      </trkpt>
      <trkpt lat="45.97311" lon="6.79886">
        <ele>1982</ele>
        <time>2022-07-16T17:50:21Z</time>
      </trkpt>
      <trkpt lat="45.97304" lon="6.79876">
        <ele>1981</ele>
        <time>2022-07-16T17:50:31Z</time>
      </trkpt>
      <trkpt lat="45.97278" lon="6.79854">
        <ele>1975</ele>
        <time>2022-07-16T17:51:04Z</time>
      </trkpt>
      <trkpt lat="45.97274" lon="6.79851">
        <ele>1974</ele>
        <time>2022-07-16T17:51:08Z</time>
      </trkpt>
      <trkpt lat="45.97262" lon="6.79838">
        <ele>1972</ele>
        <time>2022-07-16T17:51:20Z</time>
      </trkpt>
      <trkpt lat="45.97258" lon="6.79837">
        <ele>1972</ele>
        <time>2022-07-16T17:51:24Z</time>
      </trkpt>
      <trkpt lat="45.97255" lon="6.79832">
        <ele>1971</ele>
        <time>2022-07-16T17:51:28Z</time>
      </trkpt>
      <trkpt lat="45.97248" lon="6.79832">
        <ele>1970</ele>
        <time>2022-07-16T17:51:35Z</time>
      </trkpt>
      <trkpt lat="45.97233" lon="6.79823">
        <ele>1967</ele>
        <time>2022-07-16T17:51:51Z</time>
      </trkpt>
      <trkpt lat="45.97222" lon="6.79812">
        <ele>1967</ele>
        <time>2022-07-16T17:52:01Z</time>
      </trkpt>
      <trkpt lat="45.97218" lon="6.79809">
        <ele>1967</ele>
        <time>2022-07-16T17:52:05Z</time>
      </trkpt>
      <trkpt lat="45.97209" lon="6.79808">
        <ele>1966</ele>
        <time>2022-07-16T17:52:13Z</time>
      </trkpt>
      <trkpt lat="45.97205" lon="6.79805">
        <ele>1966</ele>
        <time>2022-07-16T17:52:17Z</time>
      </trkpt>
      <trkpt lat="45.97197" lon="6.79798">
        <ele>1966</ele>
        <time>2022-07-16T17:52:25Z</time>
      </trkpt>
      <trkpt lat="45.97191" lon="6.79793">
        <ele>1966</ele>
        <time>2022-07-16T17:52:31Z</time>
      </trkpt>
      <trkpt lat="45.97179" lon="6.79785">
        <ele>1966</ele>
        <time>2022-07-16T17:52:42Z</time>
      </trkpt>
      <trkpt lat="45.97171" lon="6.79782">
        <ele>1967</ele>
        <time>2022-07-16T17:52:52Z</time>
      </trkpt>
      <trkpt lat="45.97165" lon="6.79777">
        <ele>1966</ele>
        <time>2022-07-16T17:52:58Z</time>
      </trkpt>
      <trkpt lat="45.97143" lon="6.79745">
        <ele>1963</ele>
        <time>2022-07-16T17:53:28Z</time>
      </trkpt>
      <trkpt lat="45.97139" lon="6.79736">
        <ele>1962</ele>
        <time>2022-07-16T17:53:36Z</time>
      </trkpt>
      <trkpt lat="45.97131" lon="6.79725">
        <ele>1961</ele>
        <time>2022-07-16T17:53:47Z</time>
      </trkpt>
      <trkpt lat="45.97129" lon="6.7972">
        <ele>1961</ele>
        <time>2022-07-16T17:53:50Z</time>
      </trkpt>
      <trkpt lat="45.97114" lon="6.79705">
        <ele>1960</ele>
        <time>2022-07-16T17:54:05Z</time>
      </trkpt>
      <trkpt lat="45.97109" lon="6.79703">
        <ele>1959</ele>
        <time>2022-07-16T17:54:09Z</time>
      </trkpt>
      <trkpt lat="45.97105" lon="6.79702">
        <ele>1959</ele>
        <time>2022-07-16T17:54:13Z</time>
      </trkpt>
      <trkpt lat="45.971" lon="6.797">
        <ele>1959</ele>
        <time>2022-07-16T17:54:17Z</time>
      </trkpt>
      <trkpt lat="45.97092" lon="6.79694">
        <ele>1958</ele>
        <time>2022-07-16T17:54:26Z</time>
      </trkpt>
      <trkpt lat="45.97085" lon="6.79692">
        <ele>1956</ele>
        <time>2022-07-16T17:54:35Z</time>
      </trkpt>
      <trkpt lat="45.97081" lon="6.79688">
        <ele>1954</ele>
        <time>2022-07-16T17:54:45Z</time>
      </trkpt>
      <trkpt lat="45.97065" lon="6.7968">
        <ele>1952</ele>
        <time>2022-07-16T17:55:01Z</time>
      </trkpt>
      <trkpt lat="45.97055" lon="6.79671">
        <ele>1954</ele>
        <time>2022-07-16T17:55:13Z</time>
      </trkpt>
      <trkpt lat="45.97029" lon="6.7966">
        <ele>1957</ele>
        <time>2022-07-16T17:55:46Z</time>
      </trkpt>
      <trkpt lat="45.97014" lon="6.79652">
        <ele>1959</ele>
        <time>2022-07-16T17:56:04Z</time>
      </trkpt>
      <trkpt lat="45.97009" lon="6.79652">
        <ele>1959</ele>
        <time>2022-07-16T17:56:08Z</time>
      </trkpt>
      <trkpt lat="45.97004" lon="6.7965">
        <ele>1959</ele>
        <time>2022-07-16T17:56:13Z</time>
      </trkpt>
      <trkpt lat="45.97" lon="6.79646">
        <ele>1959</ele>
        <time>2022-07-16T17:56:18Z</time>
      </trkpt>
      <trkpt lat="45.96995" lon="6.79642">
        <ele>1959</ele>
        <time>2022-07-16T17:56:24Z</time>
      </trkpt>
      <trkpt lat="45.96986" lon="6.79633">
        <ele>1959</ele>
        <time>2022-07-16T17:56:33Z</time>
      </trkpt>
      <trkpt lat="45.96976" lon="6.79627">
        <ele>1959</ele>
        <time>2022-07-16T17:56:41Z</time>
      </trkpt>
      <trkpt lat="45.96967" lon="6.79624">
        <ele>1959</ele>
        <time>2022-07-16T17:56:51Z</time>
      </trkpt>
      <trkpt lat="45.96962" lon="6.79623">
        <ele>1959</ele>
        <time>2022-07-16T17:56:55Z</time>
      </trkpt>
      <trkpt lat="45.96958" lon="6.79623">
        <ele>1960</ele>
        <time>2022-07-16T17:57:00Z</time>
      </trkpt>
      <trkpt lat="45.96943" lon="6.79621">
        <ele>1962</ele>
        <time>2022-07-16T17:57:16Z</time>
      </trkpt>
      <trkpt lat="45.96933" lon="6.79623">
        <ele>1964</ele>
        <time>2022-07-16T17:57:26Z</time>
      </trkpt>
      <trkpt lat="45.96924" lon="6.79629">
        <ele>1965</ele>
        <time>2022-07-16T17:57:35Z</time>
      </trkpt>
      <trkpt lat="45.9692" lon="6.79628">
        <ele>1966</ele>
        <time>2022-07-16T17:57:40Z</time>
      </trkpt>
      <trkpt lat="45.96907" lon="6.79634">
        <ele>1967</ele>
        <time>2022-07-16T17:57:53Z</time>
      </trkpt>
      <trkpt lat="45.96897" lon="6.79632">
        <ele>1968</ele>
        <time>2022-07-16T17:58:03Z</time>
      </trkpt>
      <trkpt lat="45.96893" lon="6.7963">
        <ele>1968</ele>
        <time>2022-07-16T17:58:07Z</time>
      </trkpt>
      <trkpt lat="45.96889" lon="6.79635">
        <ele>1969</ele>
        <time>2022-07-16T17:58:12Z</time>
      </trkpt>
      <trkpt lat="45.96875" lon="6.79636">
        <ele>1969</ele>
        <time>2022-07-16T17:58:25Z</time>
      </trkpt>
      <trkpt lat="45.96868" lon="6.79642">
        <ele>1971</ele>
        <time>2022-07-16T17:58:34Z</time>
      </trkpt>
      <trkpt lat="45.96866" lon="6.79647">
        <ele>1971</ele>
        <time>2022-07-16T17:58:38Z</time>
      </trkpt>
      <trkpt lat="45.96858" lon="6.79654">
        <ele>1973</ele>
        <time>2022-07-16T17:58:48Z</time>
      </trkpt>
      <trkpt lat="45.96853" lon="6.79652">
        <ele>1973</ele>
        <time>2022-07-16T17:58:54Z</time>
      </trkpt>
      <trkpt lat="45.96848" lon="6.79652">
        <ele>1973</ele>
        <time>2022-07-16T17:58:59Z</time>
      </trkpt>
      <trkpt lat="45.96843" lon="6.79648">
        <ele>1973</ele>
        <time>2022-07-16T17:59:06Z</time>
      </trkpt>
      <trkpt lat="45.96835" lon="6.79642">
        <ele>1973</ele>
        <time>2022-07-16T17:59:15Z</time>
      </trkpt>
      <trkpt lat="45.96822" lon="6.79634">
        <ele>1972</ele>
        <time>2022-07-16T17:59:28Z</time>
      </trkpt>
      <trkpt lat="45.96803" lon="6.79616">
        <ele>1969</ele>
        <time>2022-07-16T17:59:50Z</time>
      </trkpt>
      <trkpt lat="45.96779" lon="6.79611">
        <ele>1966</ele>
        <time>2022-07-16T18:00:15Z</time>
      </trkpt>
      <trkpt lat="45.96774" lon="6.79612">
        <ele>1966</ele>
        <time>2022-07-16T18:00:20Z</time>
      </trkpt>
      <trkpt lat="45.96761" lon="6.79618">
        <ele>1965</ele>
        <time>2022-07-16T18:00:33Z</time>
      </trkpt>
      <trkpt lat="45.96752" lon="6.79615">
        <ele>1965</ele>
        <time>2022-07-16T18:00:42Z</time>
      </trkpt>
      <trkpt lat="45.96746" lon="6.79604">
        <ele>1963</ele>
        <time>2022-07-16T18:00:51Z</time>
      </trkpt>
      <trkpt lat="45.96741" lon="6.79602">
        <ele>1962</ele>
        <time>2022-07-16T18:00:56Z</time>
      </trkpt>
      <trkpt lat="45.96737" lon="6.79601">
        <ele>1962</ele>
        <time>2022-07-16T18:01:00Z</time>
      </trkpt>
      <trkpt lat="45.96709" lon="6.7958">
        <ele>1956</ele>
        <time>2022-07-16T18:01:34Z</time>
      </trkpt>
      <trkpt lat="45.96704" lon="6.79573">
        <ele>1953</ele>
        <time>2022-07-16T18:01:47Z</time>
      </trkpt>
      <trkpt lat="45.96696" lon="6.7955">
        <ele>1951</ele>
        <time>2022-07-16T18:02:04Z</time>
      </trkpt>
      <trkpt lat="45.96693" lon="6.79533">
        <ele>1949</ele>
        <time>2022-07-16T18:02:17Z</time>
      </trkpt>
      <trkpt lat="45.96691" lon="6.79527">
        <ele>1948</ele>
        <time>2022-07-16T18:02:22Z</time>
      </trkpt>
      <trkpt lat="45.96688" lon="6.79521">
        <ele>1947</ele>
        <time>2022-07-16T18:02:27Z</time>
      </trkpt>
      <trkpt lat="45.96673" lon="6.79506">
        <ele>1945</ele>
        <time>2022-07-16T18:02:45Z</time>
      </trkpt>
      <trkpt lat="45.96667" lon="6.79496">
        <ele>1943</ele>
        <time>2022-07-16T18:02:54Z</time>
      </trkpt>
      <trkpt lat="45.96659" lon="6.79492">
        <ele>1942</ele>
        <time>2022-07-16T18:03:02Z</time>
      </trkpt>
      <trkpt lat="45.96645" lon="6.79473">
        <ele>1939</ele>
        <time>2022-07-16T18:03:19Z</time>
      </trkpt>
      <trkpt lat="45.96642" lon="6.79468">
        <ele>1938</ele>
        <time>2022-07-16T18:03:23Z</time>
      </trkpt>
      <trkpt lat="45.96639" lon="6.79462">
        <ele>1938</ele>
        <time>2022-07-16T18:03:27Z</time>
      </trkpt>
      <trkpt lat="45.96635" lon="6.79458">
        <ele>1938</ele>
        <time>2022-07-16T18:03:31Z</time>
      </trkpt>
      <trkpt lat="45.96631" lon="6.79456">
        <ele>1937</ele>
        <time>2022-07-16T18:03:35Z</time>
      </trkpt>
      <trkpt lat="45.96623" lon="6.79442">
        <ele>1938</ele>
        <time>2022-07-16T18:03:47Z</time>
      </trkpt>
      <trkpt lat="45.96617" lon="6.79435">
        <ele>1936</ele>
        <time>2022-07-16T18:03:55Z</time>
      </trkpt>
      <trkpt lat="45.9661" lon="6.79426">
        <ele>1935</ele>
        <time>2022-07-16T18:04:04Z</time>
      </trkpt>
      <trkpt lat="45.96601" lon="6.79409">
        <ele>1934</ele>
        <time>2022-07-16T18:04:17Z</time>
      </trkpt>
      <trkpt lat="45.96594" lon="6.79406">
        <ele>1934</ele>
        <time>2022-07-16T18:04:26Z</time>
      </trkpt>
      <trkpt lat="45.96589" lon="6.79403">
        <ele>1934</ele>
        <time>2022-07-16T18:04:31Z</time>
      </trkpt>
      <trkpt lat="45.96585" lon="6.79403">
        <ele>1935</ele>
        <time>2022-07-16T18:04:38Z</time>
      </trkpt>
      <trkpt lat="45.9658" lon="6.79405">
        <ele>1936</ele>
        <time>2022-07-16T18:04:43Z</time>
      </trkpt>
      <trkpt lat="45.96564" lon="6.79416">
        <ele>1939</ele>
        <time>2022-07-16T18:05:13Z</time>
      </trkpt>
      <trkpt lat="45.96557" lon="6.79417">
        <ele>1940</ele>
        <time>2022-07-16T18:05:23Z</time>
      </trkpt>
      <trkpt lat="45.96552" lon="6.79419">
        <ele>1940</ele>
        <time>2022-07-16T18:05:28Z</time>
      </trkpt>
      <trkpt lat="45.96548" lon="6.79417">
        <ele>1941</ele>
        <time>2022-07-16T18:05:35Z</time>
      </trkpt>
      <trkpt lat="45.96542" lon="6.79417">
        <ele>1942</ele>
        <time>2022-07-16T18:05:45Z</time>
      </trkpt>
      <trkpt lat="45.96536" lon="6.79413">
        <ele>1944</ele>
        <time>2022-07-16T18:05:55Z</time>
      </trkpt>
      <trkpt lat="45.96532" lon="6.79414">
        <ele>1944</ele>
        <time>2022-07-16T18:06:00Z</time>
      </trkpt>
      <trkpt lat="45.96526" lon="6.7941">
        <ele>1944</ele>
        <time>2022-07-16T18:06:07Z</time>
      </trkpt>
      <trkpt lat="45.96518" lon="6.79401">
        <ele>1945</ele>
        <time>2022-07-16T18:06:19Z</time>
      </trkpt>
      <trkpt lat="45.96511" lon="6.79397">
        <ele>1946</ele>
        <time>2022-07-16T18:06:30Z</time>
      </trkpt>
      <trkpt lat="45.96507" lon="6.79402">
        <ele>1947</ele>
        <time>2022-07-16T18:06:40Z</time>
      </trkpt>
      <trkpt lat="45.96502" lon="6.79397">
        <ele>1949</ele>
        <time>2022-07-16T18:06:51Z</time>
      </trkpt>
      <trkpt lat="45.96493" lon="6.79393">
        <ele>1954</ele>
        <time>2022-07-16T18:07:23Z</time>
      </trkpt>
      <trkpt lat="45.96488" lon="6.79388">
        <ele>1955</ele>
        <time>2022-07-16T18:07:33Z</time>
      </trkpt>
      <trkpt lat="45.96483" lon="6.79386">
        <ele>1957</ele>
        <time>2022-07-16T18:07:48Z</time>
      </trkpt>
      <trkpt lat="45.96477" lon="6.79388">
        <ele>1960</ele>
        <time>2022-07-16T18:08:13Z</time>
      </trkpt>
      <trkpt lat="45.96471" lon="6.79387">
        <ele>1962</ele>
        <time>2022-07-16T18:08:23Z</time>
      </trkpt>
      <trkpt lat="45.96464" lon="6.79387">
        <ele>1964</ele>
        <time>2022-07-16T18:08:38Z</time>
      </trkpt>
      <trkpt lat="45.96457" lon="6.79383">
        <ele>1963</ele>
        <time>2022-07-16T18:08:48Z</time>
      </trkpt>
      <trkpt lat="45.96454" lon="6.79378">
        <ele>1963</ele>
        <time>2022-07-16T18:08:53Z</time>
      </trkpt>
      <trkpt lat="45.96446" lon="6.79378">
        <ele>1963</ele>
        <time>2022-07-16T18:09:02Z</time>
      </trkpt>
      <trkpt lat="45.96441" lon="6.7938">
        <ele>1963</ele>
        <time>2022-07-16T18:09:09Z</time>
      </trkpt>
      <trkpt lat="45.96437" lon="6.79385">
        <ele>1964</ele>
        <time>2022-07-16T18:09:19Z</time>
      </trkpt>
      <trkpt lat="45.96433" lon="6.7939">
        <ele>1964</ele>
        <time>2022-07-16T18:09:29Z</time>
      </trkpt>
      <trkpt lat="45.96427" lon="6.79394">
        <ele>1964</ele>
        <time>2022-07-16T18:09:39Z</time>
      </trkpt>
      <trkpt lat="45.96424" lon="6.7941">
        <ele>1962</ele>
        <time>2022-07-16T18:09:55Z</time>
      </trkpt>
      <trkpt lat="45.96419" lon="6.79413">
        <ele>1961</ele>
        <time>2022-07-16T18:09:59Z</time>
      </trkpt>
      <trkpt lat="45.96419" lon="6.79421">
        <ele>1961</ele>
        <time>2022-07-16T18:10:06Z</time>
      </trkpt>
      <trkpt lat="45.96415" lon="6.79425">
        <ele>1961</ele>
        <time>2022-07-16T18:10:13Z</time>
      </trkpt>
      <trkpt lat="45.96416" lon="6.79432">
        <ele>1961</ele>
        <time>2022-07-16T18:10:23Z</time>
      </trkpt>
      <trkpt lat="45.96413" lon="6.79438">
        <ele>1959</ele>
        <time>2022-07-16T18:10:33Z</time>
      </trkpt>
      <trkpt lat="45.96414" lon="6.79451">
        <ele>1957</ele>
        <time>2022-07-16T18:10:43Z</time>
      </trkpt>
      <trkpt lat="45.96409" lon="6.79456">
        <ele>1958</ele>
        <time>2022-07-16T18:10:50Z</time>
      </trkpt>
      <trkpt lat="45.96405" lon="6.79458">
        <ele>1957</ele>
        <time>2022-07-16T18:10:55Z</time>
      </trkpt>
      <trkpt lat="45.964" lon="6.79462">
        <ele>1955</ele>
        <time>2022-07-16T18:11:03Z</time>
      </trkpt>
      <trkpt lat="45.96396" lon="6.79468">
        <ele>1954</ele>
        <time>2022-07-16T18:11:10Z</time>
      </trkpt>
      <trkpt lat="45.96387" lon="6.79478">
        <ele>1952</ele>
        <time>2022-07-16T18:11:25Z</time>
      </trkpt>
      <trkpt lat="45.96369" lon="6.79494">
        <ele>1951</ele>
        <time>2022-07-16T18:11:49Z</time>
      </trkpt>
      <trkpt lat="45.96363" lon="6.79498">
        <ele>1951</ele>
        <time>2022-07-16T18:11:56Z</time>
      </trkpt>
      <trkpt lat="45.96353" lon="6.79509">
        <ele>1951</ele>
        <time>2022-07-16T18:12:13Z</time>
      </trkpt>
      <trkpt lat="45.96341" lon="6.79508">
        <ele>1949</ele>
        <time>2022-07-16T18:12:28Z</time>
      </trkpt>
      <trkpt lat="45.96334" lon="6.79519">
        <ele>1949</ele>
        <time>2022-07-16T18:12:40Z</time>
      </trkpt>
      <trkpt lat="45.9633" lon="6.79525">
        <ele>1949</ele>
        <time>2022-07-16T18:12:50Z</time>
      </trkpt>
      <trkpt lat="45.96326" lon="6.79528">
        <ele>1948</ele>
        <time>2022-07-16T18:15:25Z</time>
      </trkpt>
      <trkpt lat="45.96322" lon="6.79531">
        <ele>1948</ele>
        <time>2022-07-16T18:15:30Z</time>
      </trkpt>
      <trkpt lat="45.96317" lon="6.7953">
        <ele>1948</ele>
        <time>2022-07-16T18:15:35Z</time>
      </trkpt>
      <trkpt lat="45.96312" lon="6.79529">
        <ele>1947</ele>
        <time>2022-07-16T18:15:49Z</time>
      </trkpt>
      <trkpt lat="45.96312" lon="6.79528">
        <ele>1947</ele>
        <time>2022-07-16T18:24:16Z</time>
      </trkpt>
      <trkpt lat="45.96314" lon="6.79526">
        <ele>1947</ele>
        <time>2022-07-16T18:30:34Z</time>
      </trkpt>
      <trkpt lat="45.96307" lon="6.79527">
        <ele>1946</ele>
        <time>2022-07-16T18:31:54Z</time>
      </trkpt>
      <trkpt lat="45.96299" lon="6.79526">
        <ele>1946</ele>
        <time>2022-07-16T18:32:05Z</time>
      </trkpt>
    </trkseg>
  </trk>
  <trk>
    <name><![CDATA[16 juil. 2022 à 10:32:48]]></name>
    <cmt><![CDATA[16 juil. 2022 à 10:32:48]]></cmt>
    <trkseg>
      <trkpt lat="45.98406" lon="6.82007">
        <ele>2102</ele>
        <time>2022-07-16T08:32:48Z</time>
      </trkpt>
      <trkpt lat="45.98406" lon="6.82007">
        <ele>2102</ele>
        <time>2022-07-16T08:32:49Z</time>
      </trkpt>
      <trkpt lat="45.98406" lon="6.82014">
        <ele>2096</ele>
        <time>2022-07-16T08:33:35Z</time>
      </trkpt>
      <trkpt lat="45.98401" lon="6.82016">
        <ele>2096</ele>
        <time>2022-07-16T08:33:56Z</time>
      </trkpt>
      <trkpt lat="45.98397" lon="6.8202">
        <ele>2096</ele>
        <time>2022-07-16T08:34:01Z</time>
      </trkpt>
      <trkpt lat="45.98393" lon="6.82024">
        <ele>2096</ele>
        <time>2022-07-16T08:34:06Z</time>
      </trkpt>
      <trkpt lat="45.98389" lon="6.82035">
        <ele>2097</ele>
        <time>2022-07-16T08:34:16Z</time>
      </trkpt>
      <trkpt lat="45.98384" lon="6.82038">
        <ele>2097</ele>
        <time>2022-07-16T08:34:23Z</time>
      </trkpt>
      <trkpt lat="45.9838" lon="6.82036">
        <ele>2098</ele>
        <time>2022-07-16T08:34:28Z</time>
      </trkpt>
      <trkpt lat="45.98377" lon="6.82041">
        <ele>2097</ele>
        <time>2022-07-16T08:34:33Z</time>
      </trkpt>
      <trkpt lat="45.98372" lon="6.82046">
        <ele>2095</ele>
        <time>2022-07-16T08:34:43Z</time>
      </trkpt>
      <trkpt lat="45.98366" lon="6.82046">
        <ele>2094</ele>
        <time>2022-07-16T08:34:47Z</time>
      </trkpt>
      <trkpt lat="45.98363" lon="6.82052">
        <ele>2094</ele>
        <time>2022-07-16T08:34:52Z</time>
      </trkpt>
      <trkpt lat="45.98358" lon="6.82052">
        <ele>2094</ele>
        <time>2022-07-16T08:35:00Z</time>
      </trkpt>
      <trkpt lat="45.98353" lon="6.82056">
        <ele>2093</ele>
        <time>2022-07-16T08:35:05Z</time>
      </trkpt>
      <trkpt lat="45.98349" lon="6.82058">
        <ele>2093</ele>
        <time>2022-07-16T08:35:10Z</time>
      </trkpt>
      <trkpt lat="45.98341" lon="6.8206">
        <ele>2094</ele>
        <time>2022-07-16T08:35:21Z</time>
      </trkpt>
      <trkpt lat="45.98336" lon="6.82061">
        <ele>2094</ele>
        <time>2022-07-16T08:35:28Z</time>
      </trkpt>
      <trkpt lat="45.9833" lon="6.82067">
        <ele>2094</ele>
        <time>2022-07-16T08:35:35Z</time>
      </trkpt>
      <trkpt lat="45.98324" lon="6.82071">
        <ele>2094</ele>
        <time>2022-07-16T08:35:42Z</time>
      </trkpt>
      <trkpt lat="45.98315" lon="6.82072">
        <ele>2094</ele>
        <time>2022-07-16T08:35:50Z</time>
      </trkpt>
      <trkpt lat="45.98313" lon="6.82078">
        <ele>2094</ele>
        <time>2022-07-16T08:35:55Z</time>
      </trkpt>
      <trkpt lat="45.98304" lon="6.82085">
        <ele>2094</ele>
        <time>2022-07-16T08:36:06Z</time>
      </trkpt>
      <trkpt lat="45.98293" lon="6.8209">
        <ele>2092</ele>
        <time>2022-07-16T08:36:20Z</time>
      </trkpt>
      <trkpt lat="45.98288" lon="6.82094">
        <ele>2092</ele>
        <time>2022-07-16T08:36:25Z</time>
      </trkpt>
      <trkpt lat="45.98282" lon="6.82095">
        <ele>2092</ele>
        <time>2022-07-16T08:36:32Z</time>
      </trkpt>
      <trkpt lat="45.98276" lon="6.82094">
        <ele>2092</ele>
        <time>2022-07-16T08:36:39Z</time>
      </trkpt>
      <trkpt lat="45.98272" lon="6.82103">
        <ele>2094</ele>
        <time>2022-07-16T08:36:50Z</time>
      </trkpt>
      <trkpt lat="45.98259" lon="6.82106">
        <ele>2095</ele>
        <time>2022-07-16T08:37:06Z</time>
      </trkpt>
      <trkpt lat="45.98248" lon="6.82108">
        <ele>2096</ele>
        <time>2022-07-16T08:37:20Z</time>
      </trkpt>
      <trkpt lat="45.98242" lon="6.82108">
        <ele>2094</ele>
        <time>2022-07-16T08:37:40Z</time>
      </trkpt>
      <trkpt lat="45.98236" lon="6.82105">
        <ele>2093</ele>
        <time>2022-07-16T08:37:50Z</time>
      </trkpt>
      <trkpt lat="45.98231" lon="6.82103">
        <ele>2092</ele>
        <time>2022-07-16T08:38:00Z</time>
      </trkpt>
      <trkpt lat="45.98222" lon="6.82101">
        <ele>2089</ele>
        <time>2022-07-16T08:38:21Z</time>
      </trkpt>
      <trkpt lat="45.98214" lon="6.82098">
        <ele>2088</ele>
        <time>2022-07-16T08:38:31Z</time>
      </trkpt>
      <trkpt lat="45.98207" lon="6.82091">
        <ele>2089</ele>
        <time>2022-07-16T08:38:41Z</time>
      </trkpt>
      <trkpt lat="45.98204" lon="6.82087">
        <ele>2090</ele>
        <time>2022-07-16T08:38:48Z</time>
      </trkpt>
      <trkpt lat="45.98201" lon="6.82081">
        <ele>2091</ele>
        <time>2022-07-16T08:38:59Z</time>
      </trkpt>
      <trkpt lat="45.98197" lon="6.82071">
        <ele>2092</ele>
        <time>2022-07-16T08:39:10Z</time>
      </trkpt>
      <trkpt lat="45.98191" lon="6.82071">
        <ele>2092</ele>
        <time>2022-07-16T08:39:26Z</time>
      </trkpt>
    </trkseg>
  </trk>
  <trk>
    <name><![CDATA[15 juil. 2022 à 05:59:05]]></name>
    <cmt><![CDATA[15 juil. 2022 à 05:59:05]]></cmt>
    <trkseg>
      <trkpt lat="45.99701" lon="6.83401">
        <ele>1946</ele>
        <time>2022-07-15T03:59:06Z</time>
      </trkpt>
      <trkpt lat="45.99701" lon="6.83402">
        <ele>1947</ele>
        <time>2022-07-15T03:59:07Z</time>
      </trkpt>
      <trkpt lat="45.99699" lon="6.83408">
        <ele>1945</ele>
        <time>2022-07-15T03:59:17Z</time>
      </trkpt>
      <trkpt lat="45.99701" lon="6.83417">
        <ele>1939</ele>
        <time>2022-07-15T03:59:47Z</time>
      </trkpt>
      <trkpt lat="45.99701" lon="6.83416">
        <ele>1939</ele>
        <time>2022-07-15T04:09:06Z</time>
      </trkpt>
      <trkpt lat="45.99693" lon="6.8342">
        <ele>1938</ele>
        <time>2022-07-15T04:18:25Z</time>
      </trkpt>
      <trkpt lat="45.99688" lon="6.8342">
        <ele>1938</ele>
        <time>2022-07-15T04:18:29Z</time>
      </trkpt>
      <trkpt lat="45.99684" lon="6.83418">
        <ele>1937</ele>
        <time>2022-07-15T04:18:33Z</time>
      </trkpt>
      <trkpt lat="45.9968" lon="6.83414">
        <ele>1937</ele>
        <time>2022-07-15T04:18:37Z</time>
      </trkpt>
      <trkpt lat="45.9968" lon="6.83413">
        <ele>1937</ele>
        <time>2022-07-15T04:35:36Z</time>
      </trkpt>
      <trkpt lat="45.99684" lon="6.83418">
        <ele>1938</ele>
        <time>2022-07-15T04:38:23Z</time>
      </trkpt>
      <trkpt lat="45.99691" lon="6.83418">
        <ele>1937</ele>
        <time>2022-07-15T04:38:29Z</time>
      </trkpt>
      <trkpt lat="45.997" lon="6.8342">
        <ele>1938</ele>
        <time>2022-07-15T04:38:37Z</time>
      </trkpt>
      <trkpt lat="45.99704" lon="6.83419">
        <ele>1938</ele>
        <time>2022-07-15T04:41:06Z</time>
      </trkpt>
      <trkpt lat="45.99721" lon="6.83438">
        <ele>1938</ele>
        <time>2022-07-15T04:41:16Z</time>
      </trkpt>
      <trkpt lat="45.99733" lon="6.8345">
        <ele>1937</ele>
        <time>2022-07-15T04:41:22Z</time>
      </trkpt>
      <trkpt lat="45.99738" lon="6.83453">
        <ele>1937</ele>
        <time>2022-07-15T04:41:24Z</time>
      </trkpt>
      <trkpt lat="45.99743" lon="6.83456">
        <ele>1938</ele>
        <time>2022-07-15T04:41:29Z</time>
      </trkpt>
      <trkpt lat="45.99746" lon="6.83466">
        <ele>1939</ele>
        <time>2022-07-15T04:41:39Z</time>
      </trkpt>
      <trkpt lat="45.99749" lon="6.83462">
        <ele>1940</ele>
        <time>2022-07-15T04:43:09Z</time>
      </trkpt>
      <trkpt lat="45.99746" lon="6.83456">
        <ele>1940</ele>
        <time>2022-07-15T04:43:14Z</time>
      </trkpt>
      <trkpt lat="45.99738" lon="6.83444">
        <ele>1938</ele>
        <time>2022-07-15T04:43:23Z</time>
      </trkpt>
      <trkpt lat="45.99735" lon="6.8344">
        <ele>1938</ele>
        <time>2022-07-15T04:43:27Z</time>
      </trkpt>
      <trkpt lat="45.99733" lon="6.83433">
        <ele>1938</ele>
        <time>2022-07-15T04:43:31Z</time>
      </trkpt>
      <trkpt lat="45.99714" lon="6.83428">
        <ele>1939</ele>
        <time>2022-07-15T04:43:48Z</time>
      </trkpt>
      <trkpt lat="45.9971" lon="6.83425">
        <ele>1940</ele>
        <time>2022-07-15T04:43:52Z</time>
      </trkpt>
      <trkpt lat="45.99706" lon="6.83421">
        <ele>1939</ele>
        <time>2022-07-15T04:43:56Z</time>
      </trkpt>
      <trkpt lat="45.99702" lon="6.83418">
        <ele>1940</ele>
        <time>2022-07-15T04:44:14Z</time>
      </trkpt>
      <trkpt lat="45.99697" lon="6.83419">
        <ele>1940</ele>
        <time>2022-07-15T04:45:25Z</time>
      </trkpt>
      <trkpt lat="45.99693" lon="6.83422">
        <ele>1939</ele>
        <time>2022-07-15T04:45:29Z</time>
      </trkpt>
      <trkpt lat="45.99685" lon="6.83432">
        <ele>1939</ele>
        <time>2022-07-15T04:45:38Z</time>
      </trkpt>
      <trkpt lat="45.99683" lon="6.83438">
        <ele>1939</ele>
        <time>2022-07-15T04:45:42Z</time>
      </trkpt>
      <trkpt lat="45.9968" lon="6.83443">
        <ele>1939</ele>
        <time>2022-07-15T04:45:46Z</time>
      </trkpt>
      <trkpt lat="45.99679" lon="6.8344">
        <ele>1937</ele>
        <time>2022-07-15T04:46:29Z</time>
      </trkpt>
      <trkpt lat="45.9969" lon="6.83429">
        <ele>1940</ele>
        <time>2022-07-15T04:46:44Z</time>
      </trkpt>
      <trkpt lat="45.99694" lon="6.83427">
        <ele>1940</ele>
        <time>2022-07-15T04:46:48Z</time>
      </trkpt>
      <trkpt lat="45.99692" lon="6.83427">
        <ele>1939</ele>
        <time>2022-07-15T04:48:19Z</time>
      </trkpt>
      <trkpt lat="45.99688" lon="6.83432">
        <ele>1939</ele>
        <time>2022-07-15T04:48:23Z</time>
      </trkpt>
      <trkpt lat="45.99692" lon="6.8343">
        <ele>1940</ele>
        <time>2022-07-15T04:48:39Z</time>
      </trkpt>
      <trkpt lat="45.99696" lon="6.83425">
        <ele>1940</ele>
        <time>2022-07-15T04:48:43Z</time>
      </trkpt>
      <trkpt lat="45.99704" lon="6.83418">
        <ele>1939</ele>
        <time>2022-07-15T04:48:51Z</time>
      </trkpt>
      <trkpt lat="45.99708" lon="6.83416">
        <ele>1939</ele>
        <time>2022-07-15T04:50:15Z</time>
      </trkpt>
      <trkpt lat="45.99721" lon="6.83417">
        <ele>1941</ele>
        <time>2022-07-15T04:50:29Z</time>
      </trkpt>
      <trkpt lat="45.99727" lon="6.83417">
        <ele>1941</ele>
        <time>2022-07-15T04:50:34Z</time>
      </trkpt>
      <trkpt lat="45.99732" lon="6.83416">
        <ele>1941</ele>
        <time>2022-07-15T04:50:39Z</time>
      </trkpt>
      <trkpt lat="45.99737" lon="6.83419">
        <ele>1940</ele>
        <time>2022-07-15T04:50:44Z</time>
      </trkpt>
      <trkpt lat="45.99742" lon="6.83422">
        <ele>1940</ele>
        <time>2022-07-15T04:50:49Z</time>
      </trkpt>
      <trkpt lat="45.9975" lon="6.83426">
        <ele>1940</ele>
        <time>2022-07-15T04:50:57Z</time>
      </trkpt>
      <trkpt lat="45.99754" lon="6.8343">
        <ele>1940</ele>
        <time>2022-07-15T04:51:01Z</time>
      </trkpt>
      <trkpt lat="45.99758" lon="6.83432">
        <ele>1940</ele>
        <time>2022-07-15T04:51:05Z</time>
      </trkpt>
      <trkpt lat="45.99762" lon="6.83436">
        <ele>1940</ele>
        <time>2022-07-15T04:51:09Z</time>
      </trkpt>
      <trkpt lat="45.99766" lon="6.83438">
        <ele>1941</ele>
        <time>2022-07-15T04:51:16Z</time>
      </trkpt>
      <trkpt lat="45.99772" lon="6.8344">
        <ele>1943</ele>
        <time>2022-07-15T04:51:26Z</time>
      </trkpt>
      <trkpt lat="45.9978" lon="6.83445">
        <ele>1945</ele>
        <time>2022-07-15T04:51:37Z</time>
      </trkpt>
      <trkpt lat="45.998" lon="6.83445">
        <ele>1949</ele>
        <time>2022-07-15T04:52:04Z</time>
      </trkpt>
      <trkpt lat="45.99825" lon="6.83456">
        <ele>1954</ele>
        <time>2022-07-15T04:52:42Z</time>
      </trkpt>
      <trkpt lat="45.99839" lon="6.83466">
        <ele>1957</ele>
        <time>2022-07-15T04:53:02Z</time>
      </trkpt>
      <trkpt lat="45.99846" lon="6.83466">
        <ele>1958</ele>
        <time>2022-07-15T04:53:12Z</time>
      </trkpt>
      <trkpt lat="45.99866" lon="6.83469">
        <ele>1960</ele>
        <time>2022-07-15T04:53:35Z</time>
      </trkpt>
      <trkpt lat="45.9987" lon="6.83467">
        <ele>1961</ele>
        <time>2022-07-15T04:53:40Z</time>
      </trkpt>
      <trkpt lat="45.99881" lon="6.83471">
        <ele>1963</ele>
        <time>2022-07-15T04:53:56Z</time>
      </trkpt>
      <trkpt lat="45.99885" lon="6.8347">
        <ele>1964</ele>
        <time>2022-07-15T04:54:00Z</time>
      </trkpt>
      <trkpt lat="45.99889" lon="6.83469">
        <ele>1964</ele>
        <time>2022-07-15T04:54:04Z</time>
      </trkpt>
      <trkpt lat="45.99893" lon="6.83471">
        <ele>1964</ele>
        <time>2022-07-15T04:54:08Z</time>
      </trkpt>
      <trkpt lat="45.99914" lon="6.8347">
        <ele>1968</ele>
        <time>2022-07-15T04:54:36Z</time>
      </trkpt>
      <trkpt lat="45.9992" lon="6.83466">
        <ele>1970</ele>
        <time>2022-07-15T04:54:46Z</time>
      </trkpt>
      <trkpt lat="45.99933" lon="6.83476">
        <ele>1973</ele>
        <time>2022-07-15T04:55:06Z</time>
      </trkpt>
      <trkpt lat="45.99936" lon="6.83483">
        <ele>1974</ele>
        <time>2022-07-15T04:55:12Z</time>
      </trkpt>
      <trkpt lat="45.99937" lon="6.8349">
        <ele>1975</ele>
        <time>2022-07-15T04:55:19Z</time>
      </trkpt>
      <trkpt lat="45.99941" lon="6.83499">
        <ele>1976</ele>
        <time>2022-07-15T04:55:29Z</time>
      </trkpt>
      <trkpt lat="45.99945" lon="6.83507">
        <ele>1978</ele>
        <time>2022-07-15T04:55:39Z</time>
      </trkpt>
      <trkpt lat="45.99963" lon="6.83516">
        <ele>1982</ele>
        <time>2022-07-15T04:56:08Z</time>
      </trkpt>
      <trkpt lat="45.99965" lon="6.83524">
        <ele>1984</ele>
        <time>2022-07-15T04:56:19Z</time>
      </trkpt>
      <trkpt lat="45.99973" lon="6.83527">
        <ele>1986</ele>
        <time>2022-07-15T04:56:29Z</time>
      </trkpt>
      <trkpt lat="45.99974" lon="6.83536">
        <ele>1988</ele>
        <time>2022-07-15T04:56:39Z</time>
      </trkpt>
      <trkpt lat="45.99976" lon="6.83543">
        <ele>1989</ele>
        <time>2022-07-15T04:56:44Z</time>
      </trkpt>
      <trkpt lat="45.9998" lon="6.83548">
        <ele>1990</ele>
        <time>2022-07-15T04:56:51Z</time>
      </trkpt>
      <trkpt lat="45.99988" lon="6.83563">
        <ele>1994</ele>
        <time>2022-07-15T04:57:11Z</time>
      </trkpt>
      <trkpt lat="46.00006" lon="6.83585">
        <ele>1999</ele>
        <time>2022-07-15T04:57:43Z</time>
      </trkpt>
      <trkpt lat="46.00012" lon="6.83593">
        <ele>2001</ele>
        <time>2022-07-15T04:57:54Z</time>
      </trkpt>
      <trkpt lat="46.00014" lon="6.83605">
        <ele>2002</ele>
        <time>2022-07-15T04:58:04Z</time>
      </trkpt>
      <trkpt lat="46.00028" lon="6.83618">
        <ele>2006</ele>
        <time>2022-07-15T04:58:27Z</time>
      </trkpt>
      <trkpt lat="46.00042" lon="6.83637">
        <ele>2009</ele>
        <time>2022-07-15T04:58:49Z</time>
      </trkpt>
      <trkpt lat="46.00046" lon="6.83638">
        <ele>2009</ele>
        <time>2022-07-15T04:58:53Z</time>
      </trkpt>
      <trkpt lat="46.00051" lon="6.83641">
        <ele>2009</ele>
        <time>2022-07-15T04:58:58Z</time>
      </trkpt>
      <trkpt lat="46.00055" lon="6.83644">
        <ele>2010</ele>
        <time>2022-07-15T04:59:03Z</time>
      </trkpt>
      <trkpt lat="46.00062" lon="6.8365">
        <ele>2011</ele>
        <time>2022-07-15T04:59:12Z</time>
      </trkpt>
      <trkpt lat="46.00066" lon="6.83655">
        <ele>2012</ele>
        <time>2022-07-15T04:59:29Z</time>
      </trkpt>
      <trkpt lat="46.00086" lon="6.83672">
        <ele>2015</ele>
        <time>2022-07-15T04:59:52Z</time>
      </trkpt>
      <trkpt lat="46.00095" lon="6.83686">
        <ele>2015</ele>
        <time>2022-07-15T05:00:04Z</time>
      </trkpt>
      <trkpt lat="46.00108" lon="6.83697">
        <ele>2017</ele>
        <time>2022-07-15T05:00:18Z</time>
      </trkpt>
      <trkpt lat="46.00113" lon="6.83707">
        <ele>2017</ele>
        <time>2022-07-15T05:00:26Z</time>
      </trkpt>
      <trkpt lat="46.00122" lon="6.83716">
        <ele>2018</ele>
        <time>2022-07-15T05:00:37Z</time>
      </trkpt>
      <trkpt lat="46.00129" lon="6.83724">
        <ele>2018</ele>
        <time>2022-07-15T05:00:45Z</time>
      </trkpt>
      <trkpt lat="46.00133" lon="6.83729">
        <ele>2018</ele>
        <time>2022-07-15T05:00:50Z</time>
      </trkpt>
      <trkpt lat="46.00137" lon="6.83732">
        <ele>2019</ele>
        <time>2022-07-15T05:00:54Z</time>
      </trkpt>
      <trkpt lat="46.00141" lon="6.83736">
        <ele>2019</ele>
        <time>2022-07-15T05:00:58Z</time>
      </trkpt>
      <trkpt lat="46.00149" lon="6.83743">
        <ele>2018</ele>
        <time>2022-07-15T05:01:06Z</time>
      </trkpt>
      <trkpt lat="46.00161" lon="6.83753">
        <ele>2019</ele>
        <time>2022-07-15T05:01:18Z</time>
      </trkpt>
      <trkpt lat="46.00165" lon="6.83755">
        <ele>2019</ele>
        <time>2022-07-15T05:01:23Z</time>
      </trkpt>
      <trkpt lat="46.0017" lon="6.83762">
        <ele>2020</ele>
        <time>2022-07-15T05:01:30Z</time>
      </trkpt>
      <trkpt lat="46.00177" lon="6.83769">
        <ele>2021</ele>
        <time>2022-07-15T05:01:40Z</time>
      </trkpt>
      <trkpt lat="46.00192" lon="6.83775">
        <ele>2024</ele>
        <time>2022-07-15T05:01:57Z</time>
      </trkpt>
      <trkpt lat="46.00195" lon="6.83781">
        <ele>2024</ele>
        <time>2022-07-15T05:02:02Z</time>
      </trkpt>
      <trkpt lat="46.00203" lon="6.83791">
        <ele>2026</ele>
        <time>2022-07-15T05:02:15Z</time>
      </trkpt>
      <trkpt lat="46.00213" lon="6.83796">
        <ele>2028</ele>
        <time>2022-07-15T05:02:27Z</time>
      </trkpt>
      <trkpt lat="46.00223" lon="6.83805">
        <ele>2031</ele>
        <time>2022-07-15T05:02:47Z</time>
      </trkpt>
      <trkpt lat="46.00227" lon="6.83812">
        <ele>2033</ele>
        <time>2022-07-15T05:02:57Z</time>
      </trkpt>
      <trkpt lat="46.00231" lon="6.83818">
        <ele>2035</ele>
        <time>2022-07-15T05:03:07Z</time>
      </trkpt>
      <trkpt lat="46.0024" lon="6.83821">
        <ele>2037</ele>
        <time>2022-07-15T05:03:18Z</time>
      </trkpt>
      <trkpt lat="46.00243" lon="6.83828">
        <ele>2037</ele>
        <time>2022-07-15T05:03:26Z</time>
      </trkpt>
      <trkpt lat="46.00247" lon="6.83834">
        <ele>2039</ele>
        <time>2022-07-15T05:03:36Z</time>
      </trkpt>
      <trkpt lat="46.0025" lon="6.8385">
        <ele>2043</ele>
        <time>2022-07-15T05:03:56Z</time>
      </trkpt>
      <trkpt lat="46.00251" lon="6.83859">
        <ele>2045</ele>
        <time>2022-07-15T05:04:06Z</time>
      </trkpt>
      <trkpt lat="46.00264" lon="6.83885">
        <ele>2048</ele>
        <time>2022-07-15T05:04:35Z</time>
      </trkpt>
      <trkpt lat="46.00267" lon="6.83892">
        <ele>2051</ele>
        <time>2022-07-15T05:04:45Z</time>
      </trkpt>
      <trkpt lat="46.00273" lon="6.83902">
        <ele>2054</ele>
        <time>2022-07-15T05:05:05Z</time>
      </trkpt>
      <trkpt lat="46.00276" lon="6.83907">
        <ele>2057</ele>
        <time>2022-07-15T05:05:20Z</time>
      </trkpt>
      <trkpt lat="46.00281" lon="6.83913">
        <ele>2058</ele>
        <time>2022-07-15T05:05:35Z</time>
      </trkpt>
      <trkpt lat="46.00284" lon="6.83917">
        <ele>2060</ele>
        <time>2022-07-15T05:05:45Z</time>
      </trkpt>
      <trkpt lat="46.00292" lon="6.83928">
        <ele>2064</ele>
        <time>2022-07-15T05:06:05Z</time>
      </trkpt>
      <trkpt lat="46.00299" lon="6.83931">
        <ele>2066</ele>
        <time>2022-07-15T05:06:16Z</time>
      </trkpt>
      <trkpt lat="46.00303" lon="6.83927">
        <ele>2067</ele>
        <time>2022-07-15T05:06:21Z</time>
      </trkpt>
      <trkpt lat="46.00309" lon="6.83927">
        <ele>2068</ele>
        <time>2022-07-15T05:06:29Z</time>
      </trkpt>
      <trkpt lat="46.00315" lon="6.83931">
        <ele>2069</ele>
        <time>2022-07-15T05:06:39Z</time>
      </trkpt>
      <trkpt lat="46.00318" lon="6.83936">
        <ele>2070</ele>
        <time>2022-07-15T05:06:49Z</time>
      </trkpt>
      <trkpt lat="46.00323" lon="6.83933">
        <ele>2072</ele>
        <time>2022-07-15T05:06:59Z</time>
      </trkpt>
      <trkpt lat="46.00328" lon="6.83931">
        <ele>2074</ele>
        <time>2022-07-15T05:07:09Z</time>
      </trkpt>
      <trkpt lat="46.00334" lon="6.83932">
        <ele>2076</ele>
        <time>2022-07-15T05:07:19Z</time>
      </trkpt>
      <trkpt lat="46.00336" lon="6.83925">
        <ele>2078</ele>
        <time>2022-07-15T05:07:29Z</time>
      </trkpt>
      <trkpt lat="46.00342" lon="6.8392">
        <ele>2081</ele>
        <time>2022-07-15T05:07:44Z</time>
      </trkpt>
      <trkpt lat="46.00347" lon="6.83919">
        <ele>2082</ele>
        <time>2022-07-15T05:07:54Z</time>
      </trkpt>
      <trkpt lat="46.00354" lon="6.8392">
        <ele>2084</ele>
        <time>2022-07-15T05:08:04Z</time>
      </trkpt>
      <trkpt lat="46.00359" lon="6.83919">
        <ele>2085</ele>
        <time>2022-07-15T05:08:14Z</time>
      </trkpt>
      <trkpt lat="46.00367" lon="6.83921">
        <ele>2087</ele>
        <time>2022-07-15T05:08:24Z</time>
      </trkpt>
      <trkpt lat="46.00378" lon="6.8393">
        <ele>2089</ele>
        <time>2022-07-15T05:08:38Z</time>
      </trkpt>
      <trkpt lat="46.00383" lon="6.83932">
        <ele>2089</ele>
        <time>2022-07-15T05:08:44Z</time>
      </trkpt>
      <trkpt lat="46.00387" lon="6.83936">
        <ele>2090</ele>
        <time>2022-07-15T05:08:51Z</time>
      </trkpt>
      <trkpt lat="46.00409" lon="6.83947">
        <ele>2096</ele>
        <time>2022-07-15T05:09:24Z</time>
      </trkpt>
      <trkpt lat="46.00415" lon="6.83952">
        <ele>2097</ele>
        <time>2022-07-15T05:09:34Z</time>
      </trkpt>
      <trkpt lat="46.00421" lon="6.83955">
        <ele>2099</ele>
        <time>2022-07-15T05:09:44Z</time>
      </trkpt>
      <trkpt lat="46.00429" lon="6.83977">
        <ele>2102</ele>
        <time>2022-07-15T05:10:04Z</time>
      </trkpt>
      <trkpt lat="46.00456" lon="6.84002">
        <ele>2107</ele>
        <time>2022-07-15T05:10:39Z</time>
      </trkpt>
      <trkpt lat="46.00462" lon="6.84007">
        <ele>2108</ele>
        <time>2022-07-15T05:10:47Z</time>
      </trkpt>
      <trkpt lat="46.00483" lon="6.84014">
        <ele>2111</ele>
        <time>2022-07-15T05:11:12Z</time>
      </trkpt>
      <trkpt lat="46.00491" lon="6.84014">
        <ele>2112</ele>
        <time>2022-07-15T05:11:20Z</time>
      </trkpt>
      <trkpt lat="46.00495" lon="6.84011">
        <ele>2113</ele>
        <time>2022-07-15T05:11:25Z</time>
      </trkpt>
      <trkpt lat="46.00509" lon="6.84008">
        <ele>2114</ele>
        <time>2022-07-15T05:11:41Z</time>
      </trkpt>
      <trkpt lat="46.00536" lon="6.84024">
        <ele>2119</ele>
        <time>2022-07-15T05:12:15Z</time>
      </trkpt>
      <trkpt lat="46.00542" lon="6.84032">
        <ele>2120</ele>
        <time>2022-07-15T05:12:25Z</time>
      </trkpt>
      <trkpt lat="46.00553" lon="6.84038">
        <ele>2122</ele>
        <time>2022-07-15T05:12:39Z</time>
      </trkpt>
      <trkpt lat="46.00563" lon="6.84045">
        <ele>2124</ele>
        <time>2022-07-15T05:12:53Z</time>
      </trkpt>
      <trkpt lat="46.00568" lon="6.84052">
        <ele>2125</ele>
        <time>2022-07-15T05:13:03Z</time>
      </trkpt>
      <trkpt lat="46.00572" lon="6.84056">
        <ele>2127</ele>
        <time>2022-07-15T05:13:13Z</time>
      </trkpt>
      <trkpt lat="46.00575" lon="6.84062">
        <ele>2129</ele>
        <time>2022-07-15T05:13:23Z</time>
      </trkpt>
      <trkpt lat="46.00577" lon="6.84069">
        <ele>2130</ele>
        <time>2022-07-15T05:13:33Z</time>
      </trkpt>
      <trkpt lat="46.00583" lon="6.84072">
        <ele>2132</ele>
        <time>2022-07-15T05:13:43Z</time>
      </trkpt>
      <trkpt lat="46.00588" lon="6.84076">
        <ele>2133</ele>
        <time>2022-07-15T05:13:53Z</time>
      </trkpt>
      <trkpt lat="46.00594" lon="6.84078">
        <ele>2135</ele>
        <time>2022-07-15T05:14:04Z</time>
      </trkpt>
      <trkpt lat="46.00599" lon="6.84082">
        <ele>2136</ele>
        <time>2022-07-15T05:14:10Z</time>
      </trkpt>
      <trkpt lat="46.00603" lon="6.84084">
        <ele>2137</ele>
        <time>2022-07-15T05:14:17Z</time>
      </trkpt>
      <trkpt lat="46.00609" lon="6.84088">
        <ele>2139</ele>
        <time>2022-07-15T05:14:27Z</time>
      </trkpt>
      <trkpt lat="46.00619" lon="6.84101">
        <ele>2142</ele>
        <time>2022-07-15T05:14:49Z</time>
      </trkpt>
      <trkpt lat="46.00629" lon="6.84106">
        <ele>2144</ele>
        <time>2022-07-15T05:15:05Z</time>
      </trkpt>
      <trkpt lat="46.00632" lon="6.84114">
        <ele>2146</ele>
        <time>2022-07-15T05:15:15Z</time>
      </trkpt>
      <trkpt lat="46.00641" lon="6.84121">
        <ele>2149</ele>
        <time>2022-07-15T05:15:35Z</time>
      </trkpt>
      <trkpt lat="46.0064" lon="6.84127">
        <ele>2151</ele>
        <time>2022-07-15T05:15:50Z</time>
      </trkpt>
      <trkpt lat="46.00646" lon="6.84129">
        <ele>2153</ele>
        <time>2022-07-15T05:16:05Z</time>
      </trkpt>
      <trkpt lat="46.00647" lon="6.84146">
        <ele>2158</ele>
        <time>2022-07-15T05:16:25Z</time>
      </trkpt>
      <trkpt lat="46.00655" lon="6.84159">
        <ele>2161</ele>
        <time>2022-07-15T05:16:46Z</time>
      </trkpt>
      <trkpt lat="46.00659" lon="6.8417">
        <ele>2164</ele>
        <time>2022-07-15T05:17:02Z</time>
      </trkpt>
      <trkpt lat="46.00662" lon="6.84176">
        <ele>2164</ele>
        <time>2022-07-15T05:17:07Z</time>
      </trkpt>
      <trkpt lat="46.00666" lon="6.84183">
        <ele>2166</ele>
        <time>2022-07-15T05:17:16Z</time>
      </trkpt>
      <trkpt lat="46.0067" lon="6.84191">
        <ele>2167</ele>
        <time>2022-07-15T05:17:26Z</time>
      </trkpt>
      <trkpt lat="46.00672" lon="6.84198">
        <ele>2167</ele>
        <time>2022-07-15T05:17:31Z</time>
      </trkpt>
      <trkpt lat="46.00672" lon="6.84206">
        <ele>2168</ele>
        <time>2022-07-15T05:17:38Z</time>
      </trkpt>
      <trkpt lat="46.00677" lon="6.84218">
        <ele>2171</ele>
        <time>2022-07-15T05:17:55Z</time>
      </trkpt>
      <trkpt lat="46.00687" lon="6.84235">
        <ele>2174</ele>
        <time>2022-07-15T05:18:15Z</time>
      </trkpt>
      <trkpt lat="46.0069" lon="6.84246">
        <ele>2175</ele>
        <time>2022-07-15T05:18:25Z</time>
      </trkpt>
      <trkpt lat="46.00693" lon="6.84255">
        <ele>2176</ele>
        <time>2022-07-15T05:18:34Z</time>
      </trkpt>
      <trkpt lat="46.00691" lon="6.84264">
        <ele>2178</ele>
        <time>2022-07-15T05:18:44Z</time>
      </trkpt>
      <trkpt lat="46.00679" lon="6.84277">
        <ele>2181</ele>
        <time>2022-07-15T05:19:07Z</time>
      </trkpt>
      <trkpt lat="46.00664" lon="6.84292">
        <ele>2187</ele>
        <time>2022-07-15T05:19:42Z</time>
      </trkpt>
      <trkpt lat="46.00659" lon="6.84295">
        <ele>2190</ele>
        <time>2022-07-15T05:19:57Z</time>
      </trkpt>
      <trkpt lat="46.00653" lon="6.84305">
        <ele>2191</ele>
        <time>2022-07-15T05:20:09Z</time>
      </trkpt>
      <trkpt lat="46.00648" lon="6.84322">
        <ele>2194</ele>
        <time>2022-07-15T05:20:29Z</time>
      </trkpt>
      <trkpt lat="46.00651" lon="6.84327">
        <ele>2196</ele>
        <time>2022-07-15T05:20:39Z</time>
      </trkpt>
      <trkpt lat="46.00648" lon="6.84335">
        <ele>2198</ele>
        <time>2022-07-15T05:20:54Z</time>
      </trkpt>
      <trkpt lat="46.00647" lon="6.84344">
        <ele>2199</ele>
        <time>2022-07-15T05:21:05Z</time>
      </trkpt>
      <trkpt lat="46.00657" lon="6.84338">
        <ele>2203</ele>
        <time>2022-07-15T05:21:25Z</time>
      </trkpt>
      <trkpt lat="46.00662" lon="6.84338">
        <ele>2204</ele>
        <time>2022-07-15T05:21:35Z</time>
      </trkpt>
      <trkpt lat="46.00665" lon="6.84345">
        <ele>2206</ele>
        <time>2022-07-15T05:21:50Z</time>
      </trkpt>
      <trkpt lat="46.00669" lon="6.84343">
        <ele>2208</ele>
        <time>2022-07-15T05:22:00Z</time>
      </trkpt>
      <trkpt lat="46.00675" lon="6.84345">
        <ele>2211</ele>
        <time>2022-07-15T05:22:15Z</time>
      </trkpt>
      <trkpt lat="46.0068" lon="6.84359">
        <ele>2216</ele>
        <time>2022-07-15T05:22:45Z</time>
      </trkpt>
      <trkpt lat="46.00682" lon="6.84364">
        <ele>2217</ele>
        <time>2022-07-15T05:22:55Z</time>
      </trkpt>
      <trkpt lat="46.0069" lon="6.84369">
        <ele>2219</ele>
        <time>2022-07-15T05:23:06Z</time>
      </trkpt>
      <trkpt lat="46.00694" lon="6.84369">
        <ele>2220</ele>
        <time>2022-07-15T05:23:13Z</time>
      </trkpt>
      <trkpt lat="46.00698" lon="6.84373">
        <ele>2222</ele>
        <time>2022-07-15T05:23:24Z</time>
      </trkpt>
      <trkpt lat="46.00705" lon="6.84373">
        <ele>2224</ele>
        <time>2022-07-15T05:23:34Z</time>
      </trkpt>
      <trkpt lat="46.00708" lon="6.84378">
        <ele>2225</ele>
        <time>2022-07-15T05:23:44Z</time>
      </trkpt>
      <trkpt lat="46.00717" lon="6.84381">
        <ele>2229</ele>
        <time>2022-07-15T05:24:04Z</time>
      </trkpt>
      <trkpt lat="46.00723" lon="6.84383">
        <ele>2230</ele>
        <time>2022-07-15T05:24:14Z</time>
      </trkpt>
      <trkpt lat="46.00729" lon="6.84387">
        <ele>2232</ele>
        <time>2022-07-15T05:24:29Z</time>
      </trkpt>
      <trkpt lat="46.00731" lon="6.84392">
        <ele>2234</ele>
        <time>2022-07-15T05:24:39Z</time>
      </trkpt>
      <trkpt lat="46.00726" lon="6.84399">
        <ele>2236</ele>
        <time>2022-07-15T05:24:54Z</time>
      </trkpt>
      <trkpt lat="46.00722" lon="6.84404">
        <ele>2238</ele>
        <time>2022-07-15T05:25:04Z</time>
      </trkpt>
      <trkpt lat="46.00721" lon="6.8441">
        <ele>2240</ele>
        <time>2022-07-15T05:25:15Z</time>
      </trkpt>
      <trkpt lat="46.00719" lon="6.84417">
        <ele>2242</ele>
        <time>2022-07-15T05:25:32Z</time>
      </trkpt>
      <trkpt lat="46.00713" lon="6.84423">
        <ele>2246</ele>
        <time>2022-07-15T05:25:52Z</time>
      </trkpt>
      <trkpt lat="46.00707" lon="6.84424">
        <ele>2247</ele>
        <time>2022-07-15T05:26:02Z</time>
      </trkpt>
      <trkpt lat="46.00702" lon="6.84424">
        <ele>2248</ele>
        <time>2022-07-15T05:26:12Z</time>
      </trkpt>
      <trkpt lat="46.00702" lon="6.84434">
        <ele>2250</ele>
        <time>2022-07-15T05:26:27Z</time>
      </trkpt>
      <trkpt lat="46.00715" lon="6.84441">
        <ele>2253</ele>
        <time>2022-07-15T05:26:47Z</time>
      </trkpt>
      <trkpt lat="46.0071" lon="6.84447">
        <ele>2256</ele>
        <time>2022-07-15T05:27:12Z</time>
      </trkpt>
      <trkpt lat="46.0071" lon="6.84454">
        <ele>2258</ele>
        <time>2022-07-15T05:27:23Z</time>
      </trkpt>
      <trkpt lat="46.00713" lon="6.84458">
        <ele>2260</ele>
        <time>2022-07-15T05:27:34Z</time>
      </trkpt>
      <trkpt lat="46.00718" lon="6.8446">
        <ele>2262</ele>
        <time>2022-07-15T05:27:44Z</time>
      </trkpt>
      <trkpt lat="46.00717" lon="6.84467">
        <ele>2264</ele>
        <time>2022-07-15T05:27:59Z</time>
      </trkpt>
      <trkpt lat="46.00711" lon="6.84471">
        <ele>2266</ele>
        <time>2022-07-15T05:28:14Z</time>
      </trkpt>
      <trkpt lat="46.00713" lon="6.84477">
        <ele>2269</ele>
        <time>2022-07-15T05:28:34Z</time>
      </trkpt>
      <trkpt lat="46.00711" lon="6.84484">
        <ele>2272</ele>
        <time>2022-07-15T05:28:49Z</time>
      </trkpt>
      <trkpt lat="46.00711" lon="6.84491">
        <ele>2275</ele>
        <time>2022-07-15T05:29:14Z</time>
      </trkpt>
      <trkpt lat="46.00715" lon="6.84497">
        <ele>2278</ele>
        <time>2022-07-15T05:29:31Z</time>
      </trkpt>
      <trkpt lat="46.00712" lon="6.84504">
        <ele>2282</ele>
        <time>2022-07-15T05:29:52Z</time>
      </trkpt>
      <trkpt lat="46.0071" lon="6.84514">
        <ele>2284</ele>
        <time>2022-07-15T05:30:07Z</time>
      </trkpt>
      <trkpt lat="46.0071" lon="6.84523">
        <ele>2287</ele>
        <time>2022-07-15T05:30:22Z</time>
      </trkpt>
      <trkpt lat="46.00712" lon="6.8453">
        <ele>2288</ele>
        <time>2022-07-15T05:30:32Z</time>
      </trkpt>
      <trkpt lat="46.00707" lon="6.84531">
        <ele>2289</ele>
        <time>2022-07-15T05:30:42Z</time>
      </trkpt>
      <trkpt lat="46.00702" lon="6.84531">
        <ele>2291</ele>
        <time>2022-07-15T05:30:52Z</time>
      </trkpt>
      <trkpt lat="46.00694" lon="6.84535">
        <ele>2292</ele>
        <time>2022-07-15T05:31:02Z</time>
      </trkpt>
      <trkpt lat="46.00697" lon="6.84545">
        <ele>2294</ele>
        <time>2022-07-15T05:31:12Z</time>
      </trkpt>
      <trkpt lat="46.00692" lon="6.84552">
        <ele>2295</ele>
        <time>2022-07-15T05:31:23Z</time>
      </trkpt>
      <trkpt lat="46.00688" lon="6.84552">
        <ele>2296</ele>
        <time>2022-07-15T05:31:28Z</time>
      </trkpt>
      <trkpt lat="46.00683" lon="6.84555">
        <ele>2296</ele>
        <time>2022-07-15T05:31:35Z</time>
      </trkpt>
      <trkpt lat="46.00673" lon="6.84566">
        <ele>2299</ele>
        <time>2022-07-15T05:31:56Z</time>
      </trkpt>
      <trkpt lat="46.00663" lon="6.8457">
        <ele>2302</ele>
        <time>2022-07-15T05:32:16Z</time>
      </trkpt>
      <trkpt lat="46.00658" lon="6.84577">
        <ele>2303</ele>
        <time>2022-07-15T05:32:26Z</time>
      </trkpt>
      <trkpt lat="46.00654" lon="6.84583">
        <ele>2303</ele>
        <time>2022-07-15T05:32:36Z</time>
      </trkpt>
      <trkpt lat="46.00652" lon="6.84589">
        <ele>2304</ele>
        <time>2022-07-15T05:32:46Z</time>
      </trkpt>
      <trkpt lat="46.00646" lon="6.84584">
        <ele>2305</ele>
        <time>2022-07-15T05:32:56Z</time>
      </trkpt>
      <trkpt lat="46.00638" lon="6.84581">
        <ele>2306</ele>
        <time>2022-07-15T05:33:06Z</time>
      </trkpt>
      <trkpt lat="46.00634" lon="6.84579">
        <ele>2306</ele>
        <time>2022-07-15T05:33:10Z</time>
      </trkpt>
      <trkpt lat="46.0063" lon="6.84576">
        <ele>2306</ele>
        <time>2022-07-15T05:33:14Z</time>
      </trkpt>
      <trkpt lat="46.00618" lon="6.84571">
        <ele>2307</ele>
        <time>2022-07-15T05:33:29Z</time>
      </trkpt>
      <trkpt lat="46.00612" lon="6.84576">
        <ele>2308</ele>
        <time>2022-07-15T05:33:40Z</time>
      </trkpt>
      <trkpt lat="46.00612" lon="6.84582">
        <ele>2309</ele>
        <time>2022-07-15T05:33:45Z</time>
      </trkpt>
      <trkpt lat="46.00614" lon="6.84594">
        <ele>2309</ele>
        <time>2022-07-15T05:33:53Z</time>
      </trkpt>
      <trkpt lat="46.00619" lon="6.84598">
        <ele>2310</ele>
        <time>2022-07-15T05:34:00Z</time>
      </trkpt>
      <trkpt lat="46.00632" lon="6.846">
        <ele>2312</ele>
        <time>2022-07-15T05:34:18Z</time>
      </trkpt>
      <trkpt lat="46.00634" lon="6.84606">
        <ele>2313</ele>
        <time>2022-07-15T05:34:22Z</time>
      </trkpt>
      <trkpt lat="46.00638" lon="6.8461">
        <ele>2313</ele>
        <time>2022-07-15T05:34:29Z</time>
      </trkpt>
      <trkpt lat="46.00636" lon="6.84616">
        <ele>2314</ele>
        <time>2022-07-15T05:34:33Z</time>
      </trkpt>
      <trkpt lat="46.00637" lon="6.84637">
        <ele>2318</ele>
        <time>2022-07-15T05:35:00Z</time>
      </trkpt>
      <trkpt lat="46.00638" lon="6.84645">
        <ele>2320</ele>
        <time>2022-07-15T05:35:15Z</time>
      </trkpt>
      <trkpt lat="46.00639" lon="6.84653">
        <ele>2323</ele>
        <time>2022-07-15T05:35:30Z</time>
      </trkpt>
      <trkpt lat="46.00639" lon="6.8466">
        <ele>2325</ele>
        <time>2022-07-15T05:35:41Z</time>
      </trkpt>
      <trkpt lat="46.00633" lon="6.84673">
        <ele>2328</ele>
        <time>2022-07-15T05:36:08Z</time>
      </trkpt>
      <trkpt lat="46.00634" lon="6.8468">
        <ele>2330</ele>
        <time>2022-07-15T05:36:18Z</time>
      </trkpt>
      <trkpt lat="46.00635" lon="6.84686">
        <ele>2331</ele>
        <time>2022-07-15T05:36:28Z</time>
      </trkpt>
      <trkpt lat="46.00639" lon="6.84701">
        <ele>2335</ele>
        <time>2022-07-15T05:36:53Z</time>
      </trkpt>
      <trkpt lat="46.00637" lon="6.84709">
        <ele>2338</ele>
        <time>2022-07-15T05:37:08Z</time>
      </trkpt>
      <trkpt lat="46.00638" lon="6.84716">
        <ele>2339</ele>
        <time>2022-07-15T05:37:18Z</time>
      </trkpt>
      <trkpt lat="46.00633" lon="6.84733">
        <ele>2342</ele>
        <time>2022-07-15T05:37:38Z</time>
      </trkpt>
      <trkpt lat="46.00633" lon="6.84749">
        <ele>2345</ele>
        <time>2022-07-15T05:37:55Z</time>
      </trkpt>
      <trkpt lat="46.00636" lon="6.84774">
        <ele>2346</ele>
        <time>2022-07-15T05:38:18Z</time>
      </trkpt>
      <trkpt lat="46.00636" lon="6.84803">
        <ele>2350</ele>
        <time>2022-07-15T05:38:48Z</time>
      </trkpt>
      <trkpt lat="46.00631" lon="6.84814">
        <ele>2351</ele>
        <time>2022-07-15T05:38:58Z</time>
      </trkpt>
      <trkpt lat="46.0063" lon="6.8482">
        <ele>2352</ele>
        <time>2022-07-15T05:39:03Z</time>
      </trkpt>
      <trkpt lat="46.00627" lon="6.84827">
        <ele>2353</ele>
        <time>2022-07-15T05:39:10Z</time>
      </trkpt>
      <trkpt lat="46.00625" lon="6.84835">
        <ele>2354</ele>
        <time>2022-07-15T05:39:20Z</time>
      </trkpt>
      <trkpt lat="46.00628" lon="6.84842">
        <ele>2355</ele>
        <time>2022-07-15T05:39:30Z</time>
      </trkpt>
      <trkpt lat="46.0063" lon="6.8485">
        <ele>2357</ele>
        <time>2022-07-15T05:39:40Z</time>
      </trkpt>
      <trkpt lat="46.00634" lon="6.84856">
        <ele>2359</ele>
        <time>2022-07-15T05:39:51Z</time>
      </trkpt>
      <trkpt lat="46.00635" lon="6.84864">
        <ele>2360</ele>
        <time>2022-07-15T05:40:03Z</time>
      </trkpt>
      <trkpt lat="46.00636" lon="6.84871">
        <ele>2361</ele>
        <time>2022-07-15T05:40:14Z</time>
      </trkpt>
      <trkpt lat="46.00635" lon="6.84879">
        <ele>2361</ele>
        <time>2022-07-15T05:40:24Z</time>
      </trkpt>
      <trkpt lat="46.00637" lon="6.8489">
        <ele>2362</ele>
        <time>2022-07-15T05:40:34Z</time>
      </trkpt>
      <trkpt lat="46.00635" lon="6.84897">
        <ele>2363</ele>
        <time>2022-07-15T05:40:41Z</time>
      </trkpt>
      <trkpt lat="46.00638" lon="6.84905">
        <ele>2364</ele>
        <time>2022-07-15T05:40:51Z</time>
      </trkpt>
      <trkpt lat="46.00638" lon="6.84926">
        <ele>2366</ele>
        <time>2022-07-15T05:41:11Z</time>
      </trkpt>
      <trkpt lat="46.00638" lon="6.84933">
        <ele>2367</ele>
        <time>2022-07-15T05:41:21Z</time>
      </trkpt>
      <trkpt lat="46.00633" lon="6.84956">
        <ele>2368</ele>
        <time>2022-07-15T05:41:39Z</time>
      </trkpt>
      <trkpt lat="46.00633" lon="6.84965">
        <ele>2370</ele>
        <time>2022-07-15T05:41:51Z</time>
      </trkpt>
      <trkpt lat="46.00631" lon="6.84977">
        <ele>2372</ele>
        <time>2022-07-15T05:42:03Z</time>
      </trkpt>
      <trkpt lat="46.0063" lon="6.84984">
        <ele>2373</ele>
        <time>2022-07-15T05:42:11Z</time>
      </trkpt>
      <trkpt lat="46.00632" lon="6.84992">
        <ele>2375</ele>
        <time>2022-07-15T05:42:21Z</time>
      </trkpt>
      <trkpt lat="46.00631" lon="6.84998">
        <ele>2375</ele>
        <time>2022-07-15T05:42:26Z</time>
      </trkpt>
      <trkpt lat="46.00633" lon="6.85008">
        <ele>2376</ele>
        <time>2022-07-15T05:42:36Z</time>
      </trkpt>
      <trkpt lat="46.00639" lon="6.85023">
        <ele>2378</ele>
        <time>2022-07-15T05:42:56Z</time>
      </trkpt>
      <trkpt lat="46.00637" lon="6.8503">
        <ele>2379</ele>
        <time>2022-07-15T05:43:06Z</time>
      </trkpt>
      <trkpt lat="46.00632" lon="6.8505">
        <ele>2383</ele>
        <time>2022-07-15T05:43:36Z</time>
      </trkpt>
      <trkpt lat="46.0063" lon="6.85056">
        <ele>2385</ele>
        <time>2022-07-15T05:43:46Z</time>
      </trkpt>
      <trkpt lat="46.0063" lon="6.85062">
        <ele>2386</ele>
        <time>2022-07-15T05:43:56Z</time>
      </trkpt>
      <trkpt lat="46.00628" lon="6.85079">
        <ele>2390</ele>
        <time>2022-07-15T05:44:19Z</time>
      </trkpt>
      <trkpt lat="46.00629" lon="6.85085">
        <ele>2391</ele>
        <time>2022-07-15T05:44:29Z</time>
      </trkpt>
      <trkpt lat="46.00632" lon="6.85089">
        <ele>2393</ele>
        <time>2022-07-15T05:44:44Z</time>
      </trkpt>
      <trkpt lat="46.00633" lon="6.85095">
        <ele>2395</ele>
        <time>2022-07-15T05:44:54Z</time>
      </trkpt>
      <trkpt lat="46.00636" lon="6.85103">
        <ele>2398</ele>
        <time>2022-07-15T05:45:14Z</time>
      </trkpt>
      <trkpt lat="46.00635" lon="6.85111">
        <ele>2400</ele>
        <time>2022-07-15T05:45:29Z</time>
      </trkpt>
      <trkpt lat="46.0064" lon="6.85113">
        <ele>2401</ele>
        <time>2022-07-15T05:45:44Z</time>
      </trkpt>
      <trkpt lat="46.00641" lon="6.8512">
        <ele>2403</ele>
        <time>2022-07-15T05:45:59Z</time>
      </trkpt>
      <trkpt lat="46.0064" lon="6.85129">
        <ele>2405</ele>
        <time>2022-07-15T05:46:15Z</time>
      </trkpt>
      <trkpt lat="46.00646" lon="6.8513">
        <ele>2407</ele>
        <time>2022-07-15T05:46:32Z</time>
      </trkpt>
      <trkpt lat="46.00646" lon="6.85138">
        <ele>2409</ele>
        <time>2022-07-15T05:46:47Z</time>
      </trkpt>
      <trkpt lat="46.00649" lon="6.85143">
        <ele>2412</ele>
        <time>2022-07-15T05:47:07Z</time>
      </trkpt>
      <trkpt lat="46.0065" lon="6.85149">
        <ele>2413</ele>
        <time>2022-07-15T05:47:17Z</time>
      </trkpt>
      <trkpt lat="46.0065" lon="6.85165">
        <ele>2417</ele>
        <time>2022-07-15T05:47:42Z</time>
      </trkpt>
      <trkpt lat="46.0065" lon="6.85171">
        <ele>2418</ele>
        <time>2022-07-15T05:47:52Z</time>
      </trkpt>
      <trkpt lat="46.0065" lon="6.85178">
        <ele>2420</ele>
        <time>2022-07-15T05:48:02Z</time>
      </trkpt>
      <trkpt lat="46.00649" lon="6.85184">
        <ele>2421</ele>
        <time>2022-07-15T05:48:12Z</time>
      </trkpt>
      <trkpt lat="46.00652" lon="6.8519">
        <ele>2423</ele>
        <time>2022-07-15T05:48:23Z</time>
      </trkpt>
      <trkpt lat="46.00655" lon="6.85196">
        <ele>2425</ele>
        <time>2022-07-15T05:48:40Z</time>
      </trkpt>
      <trkpt lat="46.00655" lon="6.85203">
        <ele>2427</ele>
        <time>2022-07-15T05:48:55Z</time>
      </trkpt>
      <trkpt lat="46.0066" lon="6.85205">
        <ele>2429</ele>
        <time>2022-07-15T05:49:05Z</time>
      </trkpt>
      <trkpt lat="46.00661" lon="6.85215">
        <ele>2432</ele>
        <time>2022-07-15T05:49:25Z</time>
      </trkpt>
      <trkpt lat="46.00662" lon="6.85221">
        <ele>2434</ele>
        <time>2022-07-15T05:49:40Z</time>
      </trkpt>
      <trkpt lat="46.00662" lon="6.85228">
        <ele>2436</ele>
        <time>2022-07-15T05:49:50Z</time>
      </trkpt>
      <trkpt lat="46.00662" lon="6.85243">
        <ele>2440</ele>
        <time>2022-07-15T05:50:15Z</time>
      </trkpt>
      <trkpt lat="46.00668" lon="6.85255">
        <ele>2445</ele>
        <time>2022-07-15T05:50:54Z</time>
      </trkpt>
      <trkpt lat="46.00671" lon="6.85267">
        <ele>2448</ele>
        <time>2022-07-15T05:51:19Z</time>
      </trkpt>
      <trkpt lat="46.00674" lon="6.85273">
        <ele>2450</ele>
        <time>2022-07-15T05:51:34Z</time>
      </trkpt>
      <trkpt lat="46.00673" lon="6.85281">
        <ele>2452</ele>
        <time>2022-07-15T05:51:49Z</time>
      </trkpt>
      <trkpt lat="46.00677" lon="6.85284">
        <ele>2455</ele>
        <time>2022-07-15T05:52:04Z</time>
      </trkpt>
      <trkpt lat="46.00676" lon="6.8529">
        <ele>2456</ele>
        <time>2022-07-15T05:52:14Z</time>
      </trkpt>
      <trkpt lat="46.00677" lon="6.85305">
        <ele>2459</ele>
        <time>2022-07-15T05:52:35Z</time>
      </trkpt>
      <trkpt lat="46.00679" lon="6.85328">
        <ele>2464</ele>
        <time>2022-07-15T05:53:11Z</time>
      </trkpt>
      <trkpt lat="46.00678" lon="6.85335">
        <ele>2466</ele>
        <time>2022-07-15T05:53:21Z</time>
      </trkpt>
      <trkpt lat="46.00678" lon="6.85341">
        <ele>2467</ele>
        <time>2022-07-15T05:53:31Z</time>
      </trkpt>
      <trkpt lat="46.00681" lon="6.85348">
        <ele>2470</ele>
        <time>2022-07-15T05:53:46Z</time>
      </trkpt>
      <trkpt lat="46.00682" lon="6.85357">
        <ele>2472</ele>
        <time>2022-07-15T05:54:01Z</time>
      </trkpt>
      <trkpt lat="46.00682" lon="6.85363">
        <ele>2473</ele>
        <time>2022-07-15T05:54:11Z</time>
      </trkpt>
      <trkpt lat="46.00681" lon="6.85369">
        <ele>2475</ele>
        <time>2022-07-15T05:54:21Z</time>
      </trkpt>
      <trkpt lat="46.00683" lon="6.85386">
        <ele>2479</ele>
        <time>2022-07-15T05:54:49Z</time>
      </trkpt>
      <trkpt lat="46.00683" lon="6.85394">
        <ele>2481</ele>
        <time>2022-07-15T05:55:04Z</time>
      </trkpt>
      <trkpt lat="46.00686" lon="6.85399">
        <ele>2483</ele>
        <time>2022-07-15T05:55:19Z</time>
      </trkpt>
      <trkpt lat="46.00689" lon="6.85404">
        <ele>2486</ele>
        <time>2022-07-15T05:55:34Z</time>
      </trkpt>
      <trkpt lat="46.00689" lon="6.85412">
        <ele>2488</ele>
        <time>2022-07-15T05:55:49Z</time>
      </trkpt>
      <trkpt lat="46.00692" lon="6.85417">
        <ele>2490</ele>
        <time>2022-07-15T05:56:04Z</time>
      </trkpt>
      <trkpt lat="46.00692" lon="6.85425">
        <ele>2492</ele>
        <time>2022-07-15T05:56:19Z</time>
      </trkpt>
      <trkpt lat="46.00697" lon="6.8543">
        <ele>2494</ele>
        <time>2022-07-15T05:56:34Z</time>
      </trkpt>
      <trkpt lat="46.00698" lon="6.85436">
        <ele>2497</ele>
        <time>2022-07-15T05:56:50Z</time>
      </trkpt>
      <trkpt lat="46.00698" lon="6.85443">
        <ele>2499</ele>
        <time>2022-07-15T05:57:05Z</time>
      </trkpt>
      <trkpt lat="46.00699" lon="6.85449">
        <ele>2501</ele>
        <time>2022-07-15T05:57:20Z</time>
      </trkpt>
      <trkpt lat="46.007" lon="6.85456">
        <ele>2503</ele>
        <time>2022-07-15T05:57:35Z</time>
      </trkpt>
      <trkpt lat="46.00699" lon="6.85463">
        <ele>2506</ele>
        <time>2022-07-15T05:57:50Z</time>
      </trkpt>
      <trkpt lat="46.00703" lon="6.85466">
        <ele>2507</ele>
        <time>2022-07-15T05:58:00Z</time>
      </trkpt>
      <trkpt lat="46.00705" lon="6.85472">
        <ele>2509</ele>
        <time>2022-07-15T05:58:15Z</time>
      </trkpt>
      <trkpt lat="46.00704" lon="6.8548">
        <ele>2512</ele>
        <time>2022-07-15T05:58:30Z</time>
      </trkpt>
      <trkpt lat="46.00706" lon="6.8549">
        <ele>2514</ele>
        <time>2022-07-15T05:58:46Z</time>
      </trkpt>
      <trkpt lat="46.0071" lon="6.85492">
        <ele>2516</ele>
        <time>2022-07-15T05:58:57Z</time>
      </trkpt>
      <trkpt lat="46.00711" lon="6.855">
        <ele>2518</ele>
        <time>2022-07-15T05:59:13Z</time>
      </trkpt>
      <trkpt lat="46.00712" lon="6.85506">
        <ele>2520</ele>
        <time>2022-07-15T05:59:23Z</time>
      </trkpt>
      <trkpt lat="46.0072" lon="6.85525">
        <ele>2526</ele>
        <time>2022-07-15T06:00:03Z</time>
      </trkpt>
      <trkpt lat="46.00719" lon="6.85542">
        <ele>2529</ele>
        <time>2022-07-15T06:00:23Z</time>
      </trkpt>
      <trkpt lat="46.0072" lon="6.85549">
        <ele>2527</ele>
        <time>2022-07-15T06:04:22Z</time>
      </trkpt>
      <trkpt lat="46.00724" lon="6.85545">
        <ele>2528</ele>
        <time>2022-07-15T06:09:03Z</time>
      </trkpt>
      <trkpt lat="46.00726" lon="6.85536">
        <ele>2527</ele>
        <time>2022-07-15T06:09:13Z</time>
      </trkpt>
      <trkpt lat="46.00734" lon="6.85537">
        <ele>2524</ele>
        <time>2022-07-15T06:09:25Z</time>
      </trkpt>
      <trkpt lat="46.00741" lon="6.85528">
        <ele>2521</ele>
        <time>2022-07-15T06:09:35Z</time>
      </trkpt>
      <trkpt lat="46.00752" lon="6.8552">
        <ele>2518</ele>
        <time>2022-07-15T06:09:49Z</time>
      </trkpt>
      <trkpt lat="46.00757" lon="6.8552">
        <ele>2517</ele>
        <time>2022-07-15T06:09:55Z</time>
      </trkpt>
      <trkpt lat="46.00769" lon="6.85527">
        <ele>2515</ele>
        <time>2022-07-15T06:10:07Z</time>
      </trkpt>
      <trkpt lat="46.00774" lon="6.85533">
        <ele>2515</ele>
        <time>2022-07-15T06:10:14Z</time>
      </trkpt>
      <trkpt lat="46.00782" lon="6.85552">
        <ele>2511</ele>
        <time>2022-07-15T06:10:32Z</time>
      </trkpt>
      <trkpt lat="46.00785" lon="6.85566">
        <ele>2508</ele>
        <time>2022-07-15T06:10:45Z</time>
      </trkpt>
      <trkpt lat="46.00789" lon="6.85571">
        <ele>2507</ele>
        <time>2022-07-15T06:10:49Z</time>
      </trkpt>
      <trkpt lat="46.00798" lon="6.85575">
        <ele>2506</ele>
        <time>2022-07-15T06:10:58Z</time>
      </trkpt>
      <trkpt lat="46.00802" lon="6.8558">
        <ele>2505</ele>
        <time>2022-07-15T06:11:05Z</time>
      </trkpt>
      <trkpt lat="46.00808" lon="6.85586">
        <ele>2503</ele>
        <time>2022-07-15T06:11:15Z</time>
      </trkpt>
      <trkpt lat="46.00818" lon="6.85599">
        <ele>2500</ele>
        <time>2022-07-15T06:11:31Z</time>
      </trkpt>
      <trkpt lat="46.00822" lon="6.85601">
        <ele>2500</ele>
        <time>2022-07-15T06:11:35Z</time>
      </trkpt>
      <trkpt lat="46.00827" lon="6.85601">
        <ele>2499</ele>
        <time>2022-07-15T06:11:40Z</time>
      </trkpt>
      <trkpt lat="46.00842" lon="6.85608">
        <ele>2496</ele>
        <time>2022-07-15T06:11:58Z</time>
      </trkpt>
      <trkpt lat="46.0085" lon="6.85614">
        <ele>2494</ele>
        <time>2022-07-15T06:12:10Z</time>
      </trkpt>
      <trkpt lat="46.00855" lon="6.85618">
        <ele>2494</ele>
        <time>2022-07-15T06:12:17Z</time>
      </trkpt>
      <trkpt lat="46.0086" lon="6.8562">
        <ele>2495</ele>
        <time>2022-07-15T06:12:22Z</time>
      </trkpt>
      <trkpt lat="46.00864" lon="6.85622">
        <ele>2495</ele>
        <time>2022-07-15T06:12:26Z</time>
      </trkpt>
      <trkpt lat="46.00869" lon="6.85625">
        <ele>2494</ele>
        <time>2022-07-15T06:12:31Z</time>
      </trkpt>
      <trkpt lat="46.00882" lon="6.85629">
        <ele>2492</ele>
        <time>2022-07-15T06:12:47Z</time>
      </trkpt>
      <trkpt lat="46.00887" lon="6.85635">
        <ele>2489</ele>
        <time>2022-07-15T06:12:54Z</time>
      </trkpt>
      <trkpt lat="46.00899" lon="6.85635">
        <ele>2489</ele>
        <time>2022-07-15T06:13:06Z</time>
      </trkpt>
      <trkpt lat="46.00903" lon="6.85633">
        <ele>2489</ele>
        <time>2022-07-15T06:13:10Z</time>
      </trkpt>
      <trkpt lat="46.00912" lon="6.85629">
        <ele>2489</ele>
        <time>2022-07-15T06:13:19Z</time>
      </trkpt>
      <trkpt lat="46.0092" lon="6.85622">
        <ele>2488</ele>
        <time>2022-07-15T06:13:28Z</time>
      </trkpt>
      <trkpt lat="46.00924" lon="6.85622">
        <ele>2488</ele>
        <time>2022-07-15T06:13:32Z</time>
      </trkpt>
      <trkpt lat="46.0093" lon="6.85621">
        <ele>2489</ele>
        <time>2022-07-15T06:13:40Z</time>
      </trkpt>
      <trkpt lat="46.00934" lon="6.85619">
        <ele>2489</ele>
        <time>2022-07-15T06:13:46Z</time>
      </trkpt>
      <trkpt lat="46.0094" lon="6.85619">
        <ele>2488</ele>
        <time>2022-07-15T06:13:51Z</time>
      </trkpt>
      <trkpt lat="46.00945" lon="6.85616">
        <ele>2487</ele>
        <time>2022-07-15T06:13:58Z</time>
      </trkpt>
      <trkpt lat="46.00948" lon="6.85612">
        <ele>2487</ele>
        <time>2022-07-15T06:14:03Z</time>
      </trkpt>
      <trkpt lat="46.00953" lon="6.8561">
        <ele>2488</ele>
        <time>2022-07-15T06:14:11Z</time>
      </trkpt>
      <trkpt lat="46.00957" lon="6.85611">
        <ele>2488</ele>
        <time>2022-07-15T06:14:15Z</time>
      </trkpt>
      <trkpt lat="46.00968" lon="6.8561">
        <ele>2489</ele>
        <time>2022-07-15T06:14:27Z</time>
      </trkpt>
      <trkpt lat="46.00972" lon="6.85611">
        <ele>2489</ele>
        <time>2022-07-15T06:14:31Z</time>
      </trkpt>
      <trkpt lat="46.00991" lon="6.85615">
        <ele>2493</ele>
        <time>2022-07-15T06:14:55Z</time>
      </trkpt>
      <trkpt lat="46.00998" lon="6.8561">
        <ele>2494</ele>
        <time>2022-07-15T06:15:05Z</time>
      </trkpt>
      <trkpt lat="46.01015" lon="6.85606">
        <ele>2498</ele>
        <time>2022-07-15T06:15:27Z</time>
      </trkpt>
      <trkpt lat="46.01018" lon="6.85608">
        <ele>2498</ele>
        <time>2022-07-15T06:15:31Z</time>
      </trkpt>
      <trkpt lat="46.01023" lon="6.8561">
        <ele>2498</ele>
        <time>2022-07-15T06:15:35Z</time>
      </trkpt>
      <trkpt lat="46.01029" lon="6.8561">
        <ele>2498</ele>
        <time>2022-07-15T06:15:42Z</time>
      </trkpt>
      <trkpt lat="46.01034" lon="6.85605">
        <ele>2500</ele>
        <time>2022-07-15T06:15:52Z</time>
      </trkpt>
      <trkpt lat="46.01041" lon="6.85604">
        <ele>2502</ele>
        <time>2022-07-15T06:16:02Z</time>
      </trkpt>
      <trkpt lat="46.01046" lon="6.85604">
        <ele>2501</ele>
        <time>2022-07-15T06:16:06Z</time>
      </trkpt>
      <trkpt lat="46.0106" lon="6.85604">
        <ele>2502</ele>
        <time>2022-07-15T06:16:21Z</time>
      </trkpt>
      <trkpt lat="46.01066" lon="6.85599">
        <ele>2503</ele>
        <time>2022-07-15T06:16:29Z</time>
      </trkpt>
      <trkpt lat="46.01075" lon="6.85591">
        <ele>2507</ele>
        <time>2022-07-15T06:16:49Z</time>
      </trkpt>
      <trkpt lat="46.01075" lon="6.85581">
        <ele>2509</ele>
        <time>2022-07-15T06:17:00Z</time>
      </trkpt>
      <trkpt lat="46.01077" lon="6.85574">
        <ele>2511</ele>
        <time>2022-07-15T06:17:10Z</time>
      </trkpt>
      <trkpt lat="46.01083" lon="6.85566">
        <ele>2513</ele>
        <time>2022-07-15T06:17:20Z</time>
      </trkpt>
      <trkpt lat="46.01084" lon="6.85556">
        <ele>2514</ele>
        <time>2022-07-15T06:17:28Z</time>
      </trkpt>
      <trkpt lat="46.01084" lon="6.8555">
        <ele>2514</ele>
        <time>2022-07-15T06:17:32Z</time>
      </trkpt>
      <trkpt lat="46.01085" lon="6.85544">
        <ele>2513</ele>
        <time>2022-07-15T06:17:36Z</time>
      </trkpt>
      <trkpt lat="46.01086" lon="6.85536">
        <ele>2514</ele>
        <time>2022-07-15T06:17:43Z</time>
      </trkpt>
      <trkpt lat="46.01087" lon="6.85513">
        <ele>2516</ele>
        <time>2022-07-15T06:18:04Z</time>
      </trkpt>
      <trkpt lat="46.01085" lon="6.85502">
        <ele>2517</ele>
        <time>2022-07-15T06:18:14Z</time>
      </trkpt>
      <trkpt lat="46.01085" lon="6.85495">
        <ele>2517</ele>
        <time>2022-07-15T06:18:19Z</time>
      </trkpt>
      <trkpt lat="46.01085" lon="6.85486">
        <ele>2518</ele>
        <time>2022-07-15T06:18:27Z</time>
      </trkpt>
      <trkpt lat="46.01085" lon="6.85474">
        <ele>2519</ele>
        <time>2022-07-15T06:18:38Z</time>
      </trkpt>
      <trkpt lat="46.01088" lon="6.85453">
        <ele>2520</ele>
        <time>2022-07-15T06:18:54Z</time>
      </trkpt>
      <trkpt lat="46.01092" lon="6.85446">
        <ele>2520</ele>
        <time>2022-07-15T06:19:01Z</time>
      </trkpt>
      <trkpt lat="46.01091" lon="6.8544">
        <ele>2520</ele>
        <time>2022-07-15T06:19:05Z</time>
      </trkpt>
      <trkpt lat="46.01097" lon="6.85425">
        <ele>2521</ele>
        <time>2022-07-15T06:19:17Z</time>
      </trkpt>
      <trkpt lat="46.01099" lon="6.85418">
        <ele>2521</ele>
        <time>2022-07-15T06:19:22Z</time>
      </trkpt>
      <trkpt lat="46.01109" lon="6.85393">
        <ele>2524</ele>
        <time>2022-07-15T06:19:47Z</time>
      </trkpt>
      <trkpt lat="46.0112" lon="6.85378">
        <ele>2525</ele>
        <time>2022-07-15T06:20:02Z</time>
      </trkpt>
      <trkpt lat="46.01126" lon="6.85365">
        <ele>2528</ele>
        <time>2022-07-15T06:20:19Z</time>
      </trkpt>
      <trkpt lat="46.01129" lon="6.85357">
        <ele>2529</ele>
        <time>2022-07-15T06:20:29Z</time>
      </trkpt>
      <trkpt lat="46.0114" lon="6.85343">
        <ele>2532</ele>
        <time>2022-07-15T06:20:47Z</time>
      </trkpt>
      <trkpt lat="46.01145" lon="6.8534">
        <ele>2533</ele>
        <time>2022-07-15T06:20:57Z</time>
      </trkpt>
      <trkpt lat="46.01148" lon="6.85335">
        <ele>2535</ele>
        <time>2022-07-15T06:21:07Z</time>
      </trkpt>
      <trkpt lat="46.01151" lon="6.85329">
        <ele>2537</ele>
        <time>2022-07-15T06:21:22Z</time>
      </trkpt>
      <trkpt lat="46.01157" lon="6.85325">
        <ele>2540</ele>
        <time>2022-07-15T06:21:37Z</time>
      </trkpt>
      <trkpt lat="46.01156" lon="6.85317">
        <ele>2542</ele>
        <time>2022-07-15T06:21:47Z</time>
      </trkpt>
      <trkpt lat="46.01162" lon="6.85315">
        <ele>2544</ele>
        <time>2022-07-15T06:21:58Z</time>
      </trkpt>
      <trkpt lat="46.01164" lon="6.85307">
        <ele>2546</ele>
        <time>2022-07-15T06:22:08Z</time>
      </trkpt>
      <trkpt lat="46.01169" lon="6.85301">
        <ele>2548</ele>
        <time>2022-07-15T06:22:18Z</time>
      </trkpt>
      <trkpt lat="46.01187" lon="6.85285">
        <ele>2551</ele>
        <time>2022-07-15T06:22:43Z</time>
      </trkpt>
      <trkpt lat="46.0119" lon="6.8528">
        <ele>2551</ele>
        <time>2022-07-15T06:22:48Z</time>
      </trkpt>
      <trkpt lat="46.01195" lon="6.85274">
        <ele>2553</ele>
        <time>2022-07-15T06:22:58Z</time>
      </trkpt>
      <trkpt lat="46.01199" lon="6.8527">
        <ele>2554</ele>
        <time>2022-07-15T06:23:04Z</time>
      </trkpt>
      <trkpt lat="46.01202" lon="6.85266">
        <ele>2555</ele>
        <time>2022-07-15T06:23:08Z</time>
      </trkpt>
      <trkpt lat="46.01207" lon="6.85255">
        <ele>2556</ele>
        <time>2022-07-15T06:23:17Z</time>
      </trkpt>
      <trkpt lat="46.01215" lon="6.85239">
        <ele>2560</ele>
        <time>2022-07-15T06:23:37Z</time>
      </trkpt>
      <trkpt lat="46.01218" lon="6.85221">
        <ele>2564</ele>
        <time>2022-07-15T06:23:58Z</time>
      </trkpt>
      <trkpt lat="46.01222" lon="6.85212">
        <ele>2567</ele>
        <time>2022-07-15T06:24:13Z</time>
      </trkpt>
      <trkpt lat="46.01225" lon="6.85205">
        <ele>2568</ele>
        <time>2022-07-15T06:24:23Z</time>
      </trkpt>
      <trkpt lat="46.01233" lon="6.85186">
        <ele>2573</ele>
        <time>2022-07-15T06:24:53Z</time>
      </trkpt>
      <trkpt lat="46.01236" lon="6.8518">
        <ele>2575</ele>
        <time>2022-07-15T06:25:03Z</time>
      </trkpt>
      <trkpt lat="46.01239" lon="6.85175">
        <ele>2576</ele>
        <time>2022-07-15T06:25:13Z</time>
      </trkpt>
      <trkpt lat="46.01241" lon="6.8517">
        <ele>2578</ele>
        <time>2022-07-15T06:25:23Z</time>
      </trkpt>
      <trkpt lat="46.0125" lon="6.85156">
        <ele>2581</ele>
        <time>2022-07-15T06:25:43Z</time>
      </trkpt>
      <trkpt lat="46.01252" lon="6.85149">
        <ele>2583</ele>
        <time>2022-07-15T06:25:53Z</time>
      </trkpt>
      <trkpt lat="46.01255" lon="6.85144">
        <ele>2585</ele>
        <time>2022-07-15T06:26:04Z</time>
      </trkpt>
      <trkpt lat="46.01262" lon="6.8513">
        <ele>2588</ele>
        <time>2022-07-15T06:26:26Z</time>
      </trkpt>
      <trkpt lat="46.01266" lon="6.85126">
        <ele>2590</ele>
        <time>2022-07-15T06:26:36Z</time>
      </trkpt>
      <trkpt lat="46.01269" lon="6.8512">
        <ele>2591</ele>
        <time>2022-07-15T06:26:46Z</time>
      </trkpt>
      <trkpt lat="46.01274" lon="6.8512">
        <ele>2593</ele>
        <time>2022-07-15T06:26:56Z</time>
      </trkpt>
      <trkpt lat="46.01277" lon="6.85112">
        <ele>2595</ele>
        <time>2022-07-15T06:27:06Z</time>
      </trkpt>
      <trkpt lat="46.01283" lon="6.8511">
        <ele>2597</ele>
        <time>2022-07-15T06:27:16Z</time>
      </trkpt>
      <trkpt lat="46.01297" lon="6.851">
        <ele>2601</ele>
        <time>2022-07-15T06:27:46Z</time>
      </trkpt>
      <trkpt lat="46.01302" lon="6.85091">
        <ele>2603</ele>
        <time>2022-07-15T06:27:57Z</time>
      </trkpt>
      <trkpt lat="46.01307" lon="6.85084">
        <ele>2605</ele>
        <time>2022-07-15T06:28:08Z</time>
      </trkpt>
      <trkpt lat="46.01312" lon="6.85086">
        <ele>2606</ele>
        <time>2022-07-15T06:28:15Z</time>
      </trkpt>
      <trkpt lat="46.01316" lon="6.85083">
        <ele>2607</ele>
        <time>2022-07-15T06:28:23Z</time>
      </trkpt>
      <trkpt lat="46.01323" lon="6.85087">
        <ele>2608</ele>
        <time>2022-07-15T06:28:33Z</time>
      </trkpt>
      <trkpt lat="46.01323" lon="6.8508">
        <ele>2610</ele>
        <time>2022-07-15T06:28:43Z</time>
      </trkpt>
      <trkpt lat="46.01332" lon="6.85069">
        <ele>2613</ele>
        <time>2022-07-15T06:29:04Z</time>
      </trkpt>
      <trkpt lat="46.01343" lon="6.85061">
        <ele>2617</ele>
        <time>2022-07-15T06:29:24Z</time>
      </trkpt>
      <trkpt lat="46.01346" lon="6.85055">
        <ele>2619</ele>
        <time>2022-07-15T06:29:34Z</time>
      </trkpt>
      <trkpt lat="46.01351" lon="6.85054">
        <ele>2620</ele>
        <time>2022-07-15T06:29:44Z</time>
      </trkpt>
      <trkpt lat="46.01365" lon="6.85039">
        <ele>2626</ele>
        <time>2022-07-15T06:30:21Z</time>
      </trkpt>
      <trkpt lat="46.01369" lon="6.85037">
        <ele>2628</ele>
        <time>2022-07-15T06:30:33Z</time>
      </trkpt>
      <trkpt lat="46.01371" lon="6.85029">
        <ele>2631</ele>
        <time>2022-07-15T06:30:48Z</time>
      </trkpt>
      <trkpt lat="46.01382" lon="6.85013">
        <ele>2637</ele>
        <time>2022-07-15T06:31:23Z</time>
      </trkpt>
      <trkpt lat="46.01388" lon="6.85011">
        <ele>2638</ele>
        <time>2022-07-15T06:31:33Z</time>
      </trkpt>
      <trkpt lat="46.014" lon="6.84999">
        <ele>2643</ele>
        <time>2022-07-15T06:32:03Z</time>
      </trkpt>
      <trkpt lat="46.01406" lon="6.84995">
        <ele>2646</ele>
        <time>2022-07-15T06:32:18Z</time>
      </trkpt>
      <trkpt lat="46.01418" lon="6.84988">
        <ele>2649</ele>
        <time>2022-07-15T06:32:39Z</time>
      </trkpt>
      <trkpt lat="46.01423" lon="6.84987">
        <ele>2650</ele>
        <time>2022-07-15T06:32:49Z</time>
      </trkpt>
      <trkpt lat="46.01436" lon="6.84997">
        <ele>2654</ele>
        <time>2022-07-15T06:33:11Z</time>
      </trkpt>
      <trkpt lat="46.01439" lon="6.8499">
        <ele>2656</ele>
        <time>2022-07-15T06:33:22Z</time>
      </trkpt>
      <trkpt lat="46.01436" lon="6.84983">
        <ele>2657</ele>
        <time>2022-07-15T06:33:32Z</time>
      </trkpt>
      <trkpt lat="46.01442" lon="6.8498">
        <ele>2655</ele>
        <time>2022-07-15T06:39:12Z</time>
      </trkpt>
      <trkpt lat="46.01445" lon="6.84986">
        <ele>2657</ele>
        <time>2022-07-15T06:39:22Z</time>
      </trkpt>
      <trkpt lat="46.01449" lon="6.84984">
        <ele>2658</ele>
        <time>2022-07-15T06:41:41Z</time>
      </trkpt>
      <trkpt lat="46.01453" lon="6.84982">
        <ele>2659</ele>
        <time>2022-07-15T06:41:47Z</time>
      </trkpt>
      <trkpt lat="46.0146" lon="6.84981">
        <ele>2660</ele>
        <time>2022-07-15T06:41:57Z</time>
      </trkpt>
      <trkpt lat="46.01465" lon="6.84984">
        <ele>2662</ele>
        <time>2022-07-15T06:42:07Z</time>
      </trkpt>
      <trkpt lat="46.01469" lon="6.84987">
        <ele>2664</ele>
        <time>2022-07-15T06:42:17Z</time>
      </trkpt>
      <trkpt lat="46.01473" lon="6.84994">
        <ele>2666</ele>
        <time>2022-07-15T06:42:32Z</time>
      </trkpt>
      <trkpt lat="46.01484" lon="6.85004">
        <ele>2670</ele>
        <time>2022-07-15T06:42:53Z</time>
      </trkpt>
      <trkpt lat="46.01491" lon="6.8501">
        <ele>2672</ele>
        <time>2022-07-15T06:43:05Z</time>
      </trkpt>
      <trkpt lat="46.01495" lon="6.85011">
        <ele>2673</ele>
        <time>2022-07-15T06:43:12Z</time>
      </trkpt>
      <trkpt lat="46.01498" lon="6.85017">
        <ele>2675</ele>
        <time>2022-07-15T06:43:22Z</time>
      </trkpt>
      <trkpt lat="46.01504" lon="6.85022">
        <ele>2677</ele>
        <time>2022-07-15T06:43:33Z</time>
      </trkpt>
      <trkpt lat="46.01509" lon="6.85024">
        <ele>2678</ele>
        <time>2022-07-15T06:43:41Z</time>
      </trkpt>
      <trkpt lat="46.01515" lon="6.85027">
        <ele>2679</ele>
        <time>2022-07-15T06:43:53Z</time>
      </trkpt>
      <trkpt lat="46.01526" lon="6.8503">
        <ele>2682</ele>
        <time>2022-07-15T06:44:13Z</time>
      </trkpt>
      <trkpt lat="46.01531" lon="6.85034">
        <ele>2684</ele>
        <time>2022-07-15T06:44:23Z</time>
      </trkpt>
      <trkpt lat="46.01536" lon="6.8504">
        <ele>2685</ele>
        <time>2022-07-15T06:44:34Z</time>
      </trkpt>
      <trkpt lat="46.01538" lon="6.85045">
        <ele>2687</ele>
        <time>2022-07-15T06:44:44Z</time>
      </trkpt>
      <trkpt lat="46.0155" lon="6.85054">
        <ele>2689</ele>
        <time>2022-07-15T06:45:06Z</time>
      </trkpt>
      <trkpt lat="46.01557" lon="6.8506">
        <ele>2691</ele>
        <time>2022-07-15T06:45:17Z</time>
      </trkpt>
      <trkpt lat="46.01577" lon="6.85063">
        <ele>2695</ele>
        <time>2022-07-15T06:45:45Z</time>
      </trkpt>
      <trkpt lat="46.01581" lon="6.85065">
        <ele>2697</ele>
        <time>2022-07-15T06:45:55Z</time>
      </trkpt>
      <trkpt lat="46.01586" lon="6.85069">
        <ele>2699</ele>
        <time>2022-07-15T06:46:05Z</time>
      </trkpt>
      <trkpt lat="46.01594" lon="6.85079">
        <ele>2703</ele>
        <time>2022-07-15T06:46:25Z</time>
      </trkpt>
      <trkpt lat="46.016" lon="6.85082">
        <ele>2705</ele>
        <time>2022-07-15T06:46:35Z</time>
      </trkpt>
      <trkpt lat="46.01609" lon="6.85092">
        <ele>2707</ele>
        <time>2022-07-15T06:46:56Z</time>
      </trkpt>
      <trkpt lat="46.01612" lon="6.85098">
        <ele>2709</ele>
        <time>2022-07-15T06:47:07Z</time>
      </trkpt>
      <trkpt lat="46.01621" lon="6.85107">
        <ele>2713</ele>
        <time>2022-07-15T06:47:29Z</time>
      </trkpt>
      <trkpt lat="46.01635" lon="6.85119">
        <ele>2717</ele>
        <time>2022-07-15T06:47:55Z</time>
      </trkpt>
      <trkpt lat="46.01638" lon="6.85124">
        <ele>2719</ele>
        <time>2022-07-15T06:48:05Z</time>
      </trkpt>
      <trkpt lat="46.01645" lon="6.85121">
        <ele>2720</ele>
        <time>2022-07-15T06:48:15Z</time>
      </trkpt>
      <trkpt lat="46.01656" lon="6.85132">
        <ele>2724</ele>
        <time>2022-07-15T06:48:37Z</time>
      </trkpt>
      <trkpt lat="46.01662" lon="6.85139">
        <ele>2725</ele>
        <time>2022-07-15T06:48:47Z</time>
      </trkpt>
      <trkpt lat="46.01688" lon="6.85153">
        <ele>2730</ele>
        <time>2022-07-15T06:49:25Z</time>
      </trkpt>
      <trkpt lat="46.01691" lon="6.85161">
        <ele>2731</ele>
        <time>2022-07-15T06:49:35Z</time>
      </trkpt>
      <trkpt lat="46.01694" lon="6.85171">
        <ele>2733</ele>
        <time>2022-07-15T06:49:45Z</time>
      </trkpt>
      <trkpt lat="46.01697" lon="6.85167">
        <ele>2734</ele>
        <time>2022-07-15T06:49:50Z</time>
      </trkpt>
      <trkpt lat="46.01703" lon="6.85165">
        <ele>2737</ele>
        <time>2022-07-15T06:50:05Z</time>
      </trkpt>
      <trkpt lat="46.01709" lon="6.85162">
        <ele>2739</ele>
        <time>2022-07-15T06:50:15Z</time>
      </trkpt>
      <trkpt lat="46.01711" lon="6.85171">
        <ele>2741</ele>
        <time>2022-07-15T06:50:30Z</time>
      </trkpt>
      <trkpt lat="46.01717" lon="6.8517">
        <ele>2743</ele>
        <time>2022-07-15T06:50:40Z</time>
      </trkpt>
      <trkpt lat="46.01719" lon="6.85176">
        <ele>2744</ele>
        <time>2022-07-15T06:50:50Z</time>
      </trkpt>
      <trkpt lat="46.01725" lon="6.85172">
        <ele>2746</ele>
        <time>2022-07-15T06:51:01Z</time>
      </trkpt>
      <trkpt lat="46.01727" lon="6.85164">
        <ele>2748</ele>
        <time>2022-07-15T06:51:11Z</time>
      </trkpt>
      <trkpt lat="46.01731" lon="6.85166">
        <ele>2750</ele>
        <time>2022-07-15T06:51:23Z</time>
      </trkpt>
      <trkpt lat="46.01734" lon="6.85173">
        <ele>2751</ele>
        <time>2022-07-15T06:51:34Z</time>
      </trkpt>
      <trkpt lat="46.01739" lon="6.85175">
        <ele>2754</ele>
        <time>2022-07-15T06:51:49Z</time>
      </trkpt>
      <trkpt lat="46.01744" lon="6.85173">
        <ele>2756</ele>
        <time>2022-07-15T06:51:59Z</time>
      </trkpt>
      <trkpt lat="46.01747" lon="6.85179">
        <ele>2758</ele>
        <time>2022-07-15T06:52:12Z</time>
      </trkpt>
      <trkpt lat="46.01749" lon="6.85185">
        <ele>2759</ele>
        <time>2022-07-15T06:52:18Z</time>
      </trkpt>
      <trkpt lat="46.01754" lon="6.85179">
        <ele>2760</ele>
        <time>2022-07-15T06:52:28Z</time>
      </trkpt>
      <trkpt lat="46.01757" lon="6.85186">
        <ele>2763</ele>
        <time>2022-07-15T06:52:43Z</time>
      </trkpt>
      <trkpt lat="46.01761" lon="6.85179">
        <ele>2764</ele>
        <time>2022-07-15T06:52:53Z</time>
      </trkpt>
      <trkpt lat="46.01764" lon="6.85187">
        <ele>2767</ele>
        <time>2022-07-15T06:53:13Z</time>
      </trkpt>
      <trkpt lat="46.0177" lon="6.85187">
        <ele>2770</ele>
        <time>2022-07-15T06:53:31Z</time>
      </trkpt>
      <trkpt lat="46.01774" lon="6.8518">
        <ele>2772</ele>
        <time>2022-07-15T06:53:42Z</time>
      </trkpt>
      <trkpt lat="46.01778" lon="6.85187">
        <ele>2775</ele>
        <time>2022-07-15T06:53:58Z</time>
      </trkpt>
      <trkpt lat="46.01782" lon="6.85184">
        <ele>2776</ele>
        <time>2022-07-15T06:54:08Z</time>
      </trkpt>
      <trkpt lat="46.01785" lon="6.85192">
        <ele>2780</ele>
        <time>2022-07-15T06:54:28Z</time>
      </trkpt>
      <trkpt lat="46.0179" lon="6.85196">
        <ele>2783</ele>
        <time>2022-07-15T06:54:43Z</time>
      </trkpt>
      <trkpt lat="46.01791" lon="6.85206">
        <ele>2784</ele>
        <time>2022-07-15T06:54:54Z</time>
      </trkpt>
      <trkpt lat="46.01796" lon="6.85203">
        <ele>2787</ele>
        <time>2022-07-15T06:55:09Z</time>
      </trkpt>
      <trkpt lat="46.01799" lon="6.8521">
        <ele>2790</ele>
        <time>2022-07-15T06:55:24Z</time>
      </trkpt>
      <trkpt lat="46.01808" lon="6.8522">
        <ele>2795</ele>
        <time>2022-07-15T06:55:45Z</time>
      </trkpt>
      <trkpt lat="46.01811" lon="6.85215">
        <ele>2797</ele>
        <time>2022-07-15T06:56:00Z</time>
      </trkpt>
      <trkpt lat="46.01815" lon="6.85213">
        <ele>2800</ele>
        <time>2022-07-15T06:56:20Z</time>
      </trkpt>
      <trkpt lat="46.01819" lon="6.8521">
        <ele>2802</ele>
        <time>2022-07-15T06:56:35Z</time>
      </trkpt>
      <trkpt lat="46.01822" lon="6.85206">
        <ele>2805</ele>
        <time>2022-07-15T06:56:50Z</time>
      </trkpt>
      <trkpt lat="46.01826" lon="6.85208">
        <ele>2809</ele>
        <time>2022-07-15T06:57:10Z</time>
      </trkpt>
      <trkpt lat="46.01831" lon="6.85196">
        <ele>2812</ele>
        <time>2022-07-15T06:57:30Z</time>
      </trkpt>
      <trkpt lat="46.01836" lon="6.8519">
        <ele>2814</ele>
        <time>2022-07-15T06:57:46Z</time>
      </trkpt>
      <trkpt lat="46.01841" lon="6.85203">
        <ele>2819</ele>
        <time>2022-07-15T06:58:11Z</time>
      </trkpt>
      <trkpt lat="46.01845" lon="6.85199">
        <ele>2820</ele>
        <time>2022-07-15T06:58:21Z</time>
      </trkpt>
      <trkpt lat="46.01847" lon="6.85206">
        <ele>2823</ele>
        <time>2022-07-15T06:58:36Z</time>
      </trkpt>
      <trkpt lat="46.01851" lon="6.85206">
        <ele>2826</ele>
        <time>2022-07-15T06:58:56Z</time>
      </trkpt>
      <trkpt lat="46.01857" lon="6.852">
        <ele>2829</ele>
        <time>2022-07-15T06:59:12Z</time>
      </trkpt>
      <trkpt lat="46.0186" lon="6.85204">
        <ele>2831</ele>
        <time>2022-07-15T06:59:27Z</time>
      </trkpt>
      <trkpt lat="46.01865" lon="6.85204">
        <ele>2834</ele>
        <time>2022-07-15T06:59:43Z</time>
      </trkpt>
      <trkpt lat="46.01867" lon="6.85199">
        <ele>2837</ele>
        <time>2022-07-15T06:59:55Z</time>
      </trkpt>
      <trkpt lat="46.0187" lon="6.85194">
        <ele>2838</ele>
        <time>2022-07-15T07:00:05Z</time>
      </trkpt>
      <trkpt lat="46.01873" lon="6.85189">
        <ele>2840</ele>
        <time>2022-07-15T07:00:15Z</time>
      </trkpt>
      <trkpt lat="46.01878" lon="6.85191">
        <ele>2844</ele>
        <time>2022-07-15T07:00:40Z</time>
      </trkpt>
      <trkpt lat="46.01883" lon="6.85195">
        <ele>2846</ele>
        <time>2022-07-15T07:00:55Z</time>
      </trkpt>
      <trkpt lat="46.01888" lon="6.85194">
        <ele>2849</ele>
        <time>2022-07-15T07:01:10Z</time>
      </trkpt>
      <trkpt lat="46.01893" lon="6.8518">
        <ele>2854</ele>
        <time>2022-07-15T07:01:40Z</time>
      </trkpt>
      <trkpt lat="46.01897" lon="6.85184">
        <ele>2856</ele>
        <time>2022-07-15T07:01:57Z</time>
      </trkpt>
      <trkpt lat="46.01898" lon="6.85176">
        <ele>2858</ele>
        <time>2022-07-15T07:02:08Z</time>
      </trkpt>
      <trkpt lat="46.01903" lon="6.85162">
        <ele>2863</ele>
        <time>2022-07-15T07:02:43Z</time>
      </trkpt>
      <trkpt lat="46.01907" lon="6.85165">
        <ele>2866</ele>
        <time>2022-07-15T07:03:03Z</time>
      </trkpt>
      <trkpt lat="46.01912" lon="6.85169">
        <ele>2868</ele>
        <time>2022-07-15T07:03:18Z</time>
      </trkpt>
      <trkpt lat="46.01915" lon="6.85174">
        <ele>2870</ele>
        <time>2022-07-15T07:03:28Z</time>
      </trkpt>
      <trkpt lat="46.0192" lon="6.85177">
        <ele>2872</ele>
        <time>2022-07-15T07:03:38Z</time>
      </trkpt>
      <trkpt lat="46.01921" lon="6.85169">
        <ele>2874</ele>
        <time>2022-07-15T07:03:48Z</time>
      </trkpt>
      <trkpt lat="46.01925" lon="6.85156">
        <ele>2878</ele>
        <time>2022-07-15T07:04:20Z</time>
      </trkpt>
      <trkpt lat="46.0193" lon="6.85155">
        <ele>2881</ele>
        <time>2022-07-15T07:04:35Z</time>
      </trkpt>
      <trkpt lat="46.01932" lon="6.85163">
        <ele>2884</ele>
        <time>2022-07-15T07:04:51Z</time>
      </trkpt>
      <trkpt lat="46.01937" lon="6.85162">
        <ele>2885</ele>
        <time>2022-07-15T07:05:01Z</time>
      </trkpt>
      <trkpt lat="46.01939" lon="6.85156">
        <ele>2887</ele>
        <time>2022-07-15T07:05:11Z</time>
      </trkpt>
      <trkpt lat="46.0194" lon="6.85148">
        <ele>2889</ele>
        <time>2022-07-15T07:05:26Z</time>
      </trkpt>
      <trkpt lat="46.01946" lon="6.85148">
        <ele>2892</ele>
        <time>2022-07-15T07:05:46Z</time>
      </trkpt>
      <trkpt lat="46.01947" lon="6.85141">
        <ele>2894</ele>
        <time>2022-07-15T07:05:57Z</time>
      </trkpt>
      <trkpt lat="46.0195" lon="6.85135">
        <ele>2896</ele>
        <time>2022-07-15T07:06:09Z</time>
      </trkpt>
      <trkpt lat="46.01954" lon="6.85141">
        <ele>2900</ele>
        <time>2022-07-15T07:06:30Z</time>
      </trkpt>
      <trkpt lat="46.01959" lon="6.85143">
        <ele>2902</ele>
        <time>2022-07-15T07:06:45Z</time>
      </trkpt>
      <trkpt lat="46.01965" lon="6.85159">
        <ele>2905</ele>
        <time>2022-07-15T07:07:05Z</time>
      </trkpt>
      <trkpt lat="46.0197" lon="6.8516">
        <ele>2906</ele>
        <time>2022-07-15T07:07:15Z</time>
      </trkpt>
      <trkpt lat="46.0197" lon="6.85152">
        <ele>2908</ele>
        <time>2022-07-15T07:07:25Z</time>
      </trkpt>
      <trkpt lat="46.01974" lon="6.85156">
        <ele>2910</ele>
        <time>2022-07-15T07:07:36Z</time>
      </trkpt>
      <trkpt lat="46.01981" lon="6.85156">
        <ele>2912</ele>
        <time>2022-07-15T07:07:46Z</time>
      </trkpt>
      <trkpt lat="46.01985" lon="6.85151">
        <ele>2913</ele>
        <time>2022-07-15T07:07:56Z</time>
      </trkpt>
      <trkpt lat="46.01983" lon="6.8514">
        <ele>2915</ele>
        <time>2022-07-15T07:08:07Z</time>
      </trkpt>
      <trkpt lat="46.01982" lon="6.85134">
        <ele>2915</ele>
        <time>2022-07-15T07:08:13Z</time>
      </trkpt>
      <trkpt lat="46.01983" lon="6.85121">
        <ele>2916</ele>
        <time>2022-07-15T07:08:22Z</time>
      </trkpt>
      <trkpt lat="46.01987" lon="6.85095">
        <ele>2920</ele>
        <time>2022-07-15T07:08:49Z</time>
      </trkpt>
      <trkpt lat="46.0199" lon="6.85088">
        <ele>2921</ele>
        <time>2022-07-15T07:08:59Z</time>
      </trkpt>
      <trkpt lat="46.01996" lon="6.85074">
        <ele>2924</ele>
        <time>2022-07-15T07:09:19Z</time>
      </trkpt>
      <trkpt lat="46.01998" lon="6.85062">
        <ele>2925</ele>
        <time>2022-07-15T07:09:29Z</time>
      </trkpt>
      <trkpt lat="46.02" lon="6.85058">
        <ele>2925</ele>
        <time>2022-07-15T07:09:36Z</time>
      </trkpt>
      <trkpt lat="46.02004" lon="6.85043">
        <ele>2929</ele>
        <time>2022-07-15T07:09:56Z</time>
      </trkpt>
      <trkpt lat="46.02004" lon="6.85034">
        <ele>2930</ele>
        <time>2022-07-15T07:10:06Z</time>
      </trkpt>
      <trkpt lat="46.02005" lon="6.85026">
        <ele>2931</ele>
        <time>2022-07-15T07:10:17Z</time>
      </trkpt>
      <trkpt lat="46.02007" lon="6.8502">
        <ele>2933</ele>
        <time>2022-07-15T07:10:28Z</time>
      </trkpt>
      <trkpt lat="46.02007" lon="6.85006">
        <ele>2935</ele>
        <time>2022-07-15T07:10:48Z</time>
      </trkpt>
      <trkpt lat="46.02011" lon="6.85002">
        <ele>2938</ele>
        <time>2022-07-15T07:11:03Z</time>
      </trkpt>
      <trkpt lat="46.02015" lon="6.85005">
        <ele>2940</ele>
        <time>2022-07-15T07:11:18Z</time>
      </trkpt>
      <trkpt lat="46.0202" lon="6.85005">
        <ele>2943</ele>
        <time>2022-07-15T07:11:34Z</time>
      </trkpt>
      <trkpt lat="46.0203" lon="6.85009">
        <ele>2948</ele>
        <time>2022-07-15T07:12:09Z</time>
      </trkpt>
      <trkpt lat="46.02034" lon="6.85007">
        <ele>2950</ele>
        <time>2022-07-15T07:12:21Z</time>
      </trkpt>
      <trkpt lat="46.02036" lon="6.84999">
        <ele>2953</ele>
        <time>2022-07-15T07:12:43Z</time>
      </trkpt>
      <trkpt lat="46.02041" lon="6.85001">
        <ele>2956</ele>
        <time>2022-07-15T07:13:03Z</time>
      </trkpt>
      <trkpt lat="46.02046" lon="6.85002">
        <ele>2959</ele>
        <time>2022-07-15T07:13:18Z</time>
      </trkpt>
      <trkpt lat="46.0205" lon="6.85006">
        <ele>2960</ele>
        <time>2022-07-15T07:13:28Z</time>
      </trkpt>
      <trkpt lat="46.02055" lon="6.85006">
        <ele>2962</ele>
        <time>2022-07-15T07:13:43Z</time>
      </trkpt>
      <trkpt lat="46.0206" lon="6.85005">
        <ele>2966</ele>
        <time>2022-07-15T07:14:03Z</time>
      </trkpt>
      <trkpt lat="46.02064" lon="6.85006">
        <ele>2968</ele>
        <time>2022-07-15T07:14:18Z</time>
      </trkpt>
      <trkpt lat="46.02066" lon="6.85">
        <ele>2970</ele>
        <time>2022-07-15T07:14:30Z</time>
      </trkpt>
      <trkpt lat="46.02065" lon="6.84993">
        <ele>2972</ele>
        <time>2022-07-15T07:14:40Z</time>
      </trkpt>
      <trkpt lat="46.0207" lon="6.84991">
        <ele>2974</ele>
        <time>2022-07-15T07:14:51Z</time>
      </trkpt>
      <trkpt lat="46.02074" lon="6.84984">
        <ele>2978</ele>
        <time>2022-07-15T07:15:16Z</time>
      </trkpt>
      <trkpt lat="46.02079" lon="6.84985">
        <ele>2981</ele>
        <time>2022-07-15T07:15:36Z</time>
      </trkpt>
      <trkpt lat="46.02085" lon="6.84984">
        <ele>2984</ele>
        <time>2022-07-15T07:15:51Z</time>
      </trkpt>
      <trkpt lat="46.02089" lon="6.84988">
        <ele>2986</ele>
        <time>2022-07-15T07:16:06Z</time>
      </trkpt>
      <trkpt lat="46.02095" lon="6.84988">
        <ele>2989</ele>
        <time>2022-07-15T07:16:21Z</time>
      </trkpt>
      <trkpt lat="46.021" lon="6.84986">
        <ele>2990</ele>
        <time>2022-07-15T07:16:33Z</time>
      </trkpt>
      <trkpt lat="46.02101" lon="6.84979">
        <ele>2992</ele>
        <time>2022-07-15T07:16:45Z</time>
      </trkpt>
      <trkpt lat="46.02106" lon="6.84982">
        <ele>2996</ele>
        <time>2022-07-15T07:17:05Z</time>
      </trkpt>
      <trkpt lat="46.02111" lon="6.84981">
        <ele>2997</ele>
        <time>2022-07-15T07:17:15Z</time>
      </trkpt>
      <trkpt lat="46.02115" lon="6.8498">
        <ele>2999</ele>
        <time>2022-07-15T07:17:25Z</time>
      </trkpt>
      <trkpt lat="46.02121" lon="6.8498">
        <ele>3001</ele>
        <time>2022-07-15T07:17:40Z</time>
      </trkpt>
      <trkpt lat="46.02122" lon="6.84974">
        <ele>3003</ele>
        <time>2022-07-15T07:17:50Z</time>
      </trkpt>
      <trkpt lat="46.02126" lon="6.84967">
        <ele>3005</ele>
        <time>2022-07-15T07:18:05Z</time>
      </trkpt>
      <trkpt lat="46.02125" lon="6.84959">
        <ele>3008</ele>
        <time>2022-07-15T07:18:20Z</time>
      </trkpt>
      <trkpt lat="46.0212" lon="6.84945">
        <ele>3012</ele>
        <time>2022-07-15T07:18:47Z</time>
      </trkpt>
      <trkpt lat="46.02126" lon="6.8492">
        <ele>3018</ele>
        <time>2022-07-15T07:19:22Z</time>
      </trkpt>
      <trkpt lat="46.0213" lon="6.84916">
        <ele>3020</ele>
        <time>2022-07-15T07:19:37Z</time>
      </trkpt>
      <trkpt lat="46.02135" lon="6.84919">
        <ele>3023</ele>
        <time>2022-07-15T07:19:47Z</time>
      </trkpt>
      <trkpt lat="46.02139" lon="6.84927">
        <ele>3023</ele>
        <time>2022-07-15T07:19:57Z</time>
      </trkpt>
      <trkpt lat="46.02143" lon="6.84935">
        <ele>3024</ele>
        <time>2022-07-15T07:20:07Z</time>
      </trkpt>
      <trkpt lat="46.02147" lon="6.84932">
        <ele>3025</ele>
        <time>2022-07-15T07:20:22Z</time>
      </trkpt>
      <trkpt lat="46.02154" lon="6.84937">
        <ele>3025</ele>
        <time>2022-07-15T07:21:53Z</time>
      </trkpt>
      <trkpt lat="46.02161" lon="6.84944">
        <ele>3026</ele>
        <time>2022-07-15T07:22:01Z</time>
      </trkpt>
      <trkpt lat="46.02165" lon="6.84946">
        <ele>3026</ele>
        <time>2022-07-15T07:22:06Z</time>
      </trkpt>
      <trkpt lat="46.02172" lon="6.84952">
        <ele>3026</ele>
        <time>2022-07-15T07:22:20Z</time>
      </trkpt>
      <trkpt lat="46.02178" lon="6.84957">
        <ele>3027</ele>
        <time>2022-07-15T07:22:28Z</time>
      </trkpt>
      <trkpt lat="46.02182" lon="6.84962">
        <ele>3027</ele>
        <time>2022-07-15T07:22:33Z</time>
      </trkpt>
      <trkpt lat="46.02184" lon="6.84967">
        <ele>3028</ele>
        <time>2022-07-15T07:22:38Z</time>
      </trkpt>
      <trkpt lat="46.02195" lon="6.84975">
        <ele>3028</ele>
        <time>2022-07-15T07:22:55Z</time>
      </trkpt>
      <trkpt lat="46.02201" lon="6.84979">
        <ele>3029</ele>
        <time>2022-07-15T07:23:07Z</time>
      </trkpt>
      <trkpt lat="46.02211" lon="6.84985">
        <ele>3032</ele>
        <time>2022-07-15T07:23:27Z</time>
      </trkpt>
      <trkpt lat="46.02215" lon="6.84989">
        <ele>3032</ele>
        <time>2022-07-15T07:23:34Z</time>
      </trkpt>
      <trkpt lat="46.02219" lon="6.84992">
        <ele>3032</ele>
        <time>2022-07-15T07:23:39Z</time>
      </trkpt>
      <trkpt lat="46.02226" lon="6.84995">
        <ele>3033</ele>
        <time>2022-07-15T07:23:49Z</time>
      </trkpt>
      <trkpt lat="46.02234" lon="6.84997">
        <ele>3036</ele>
        <time>2022-07-15T07:24:01Z</time>
      </trkpt>
      <trkpt lat="46.0224" lon="6.85001">
        <ele>3037</ele>
        <time>2022-07-15T07:24:11Z</time>
      </trkpt>
      <trkpt lat="46.02244" lon="6.85005">
        <ele>3038</ele>
        <time>2022-07-15T07:24:15Z</time>
      </trkpt>
      <trkpt lat="46.02248" lon="6.85008">
        <ele>3038</ele>
        <time>2022-07-15T07:24:20Z</time>
      </trkpt>
      <trkpt lat="46.02276" lon="6.85015">
        <ele>3041</ele>
        <time>2022-07-15T07:24:51Z</time>
      </trkpt>
      <trkpt lat="46.0228" lon="6.85017">
        <ele>3041</ele>
        <time>2022-07-15T07:24:56Z</time>
      </trkpt>
      <trkpt lat="46.02285" lon="6.85023">
        <ele>3042</ele>
        <time>2022-07-15T07:25:04Z</time>
      </trkpt>
      <trkpt lat="46.02301" lon="6.85029">
        <ele>3044</ele>
        <time>2022-07-15T07:25:22Z</time>
      </trkpt>
      <trkpt lat="46.02308" lon="6.85034">
        <ele>3045</ele>
        <time>2022-07-15T07:25:32Z</time>
      </trkpt>
      <trkpt lat="46.02312" lon="6.85036">
        <ele>3045</ele>
        <time>2022-07-15T07:25:37Z</time>
      </trkpt>
      <trkpt lat="46.02332" lon="6.85052">
        <ele>3047</ele>
        <time>2022-07-15T07:26:02Z</time>
      </trkpt>
      <trkpt lat="46.02336" lon="6.85061">
        <ele>3048</ele>
        <time>2022-07-15T07:26:12Z</time>
      </trkpt>
      <trkpt lat="46.02341" lon="6.85063">
        <ele>3049</ele>
        <time>2022-07-15T07:26:18Z</time>
      </trkpt>
      <trkpt lat="46.02345" lon="6.85069">
        <ele>3050</ele>
        <time>2022-07-15T07:26:25Z</time>
      </trkpt>
      <trkpt lat="46.02352" lon="6.85089">
        <ele>3052</ele>
        <time>2022-07-15T07:26:45Z</time>
      </trkpt>
      <trkpt lat="46.02356" lon="6.85093">
        <ele>3052</ele>
        <time>2022-07-15T07:26:50Z</time>
      </trkpt>
      <trkpt lat="46.02359" lon="6.851">
        <ele>3053</ele>
        <time>2022-07-15T07:26:58Z</time>
      </trkpt>
      <trkpt lat="46.02364" lon="6.85107">
        <ele>3055</ele>
        <time>2022-07-15T07:27:08Z</time>
      </trkpt>
      <trkpt lat="46.02365" lon="6.85114">
        <ele>3056</ele>
        <time>2022-07-15T07:27:15Z</time>
      </trkpt>
      <trkpt lat="46.0237" lon="6.85124">
        <ele>3057</ele>
        <time>2022-07-15T07:27:25Z</time>
      </trkpt>
      <trkpt lat="46.02377" lon="6.85129">
        <ele>3058</ele>
        <time>2022-07-15T07:27:35Z</time>
      </trkpt>
      <trkpt lat="46.0238" lon="6.85137">
        <ele>3060</ele>
        <time>2022-07-15T07:27:45Z</time>
      </trkpt>
      <trkpt lat="46.02384" lon="6.85141">
        <ele>3061</ele>
        <time>2022-07-15T07:27:50Z</time>
      </trkpt>
      <trkpt lat="46.02397" lon="6.85147">
        <ele>3063</ele>
        <time>2022-07-15T07:28:08Z</time>
      </trkpt>
      <trkpt lat="46.02401" lon="6.85153">
        <ele>3065</ele>
        <time>2022-07-15T07:28:18Z</time>
      </trkpt>
      <trkpt lat="46.02403" lon="6.85161">
        <ele>3067</ele>
        <time>2022-07-15T07:28:28Z</time>
      </trkpt>
      <trkpt lat="46.02408" lon="6.85167">
        <ele>3068</ele>
        <time>2022-07-15T07:28:38Z</time>
      </trkpt>
      <trkpt lat="46.02413" lon="6.85172">
        <ele>3070</ele>
        <time>2022-07-15T07:28:48Z</time>
      </trkpt>
      <trkpt lat="46.02418" lon="6.85175">
        <ele>3071</ele>
        <time>2022-07-15T07:28:58Z</time>
      </trkpt>
      <trkpt lat="46.02423" lon="6.85181">
        <ele>3073</ele>
        <time>2022-07-15T07:29:09Z</time>
      </trkpt>
      <trkpt lat="46.02431" lon="6.85197">
        <ele>3076</ele>
        <time>2022-07-15T07:29:31Z</time>
      </trkpt>
      <trkpt lat="46.02434" lon="6.85202">
        <ele>3077</ele>
        <time>2022-07-15T07:29:38Z</time>
      </trkpt>
      <trkpt lat="46.0244" lon="6.85199">
        <ele>3079</ele>
        <time>2022-07-15T07:29:48Z</time>
      </trkpt>
      <trkpt lat="46.02451" lon="6.85206">
        <ele>3082</ele>
        <time>2022-07-15T07:30:08Z</time>
      </trkpt>
      <trkpt lat="46.02457" lon="6.85209">
        <ele>3083</ele>
        <time>2022-07-15T07:30:18Z</time>
      </trkpt>
      <trkpt lat="46.02462" lon="6.85211">
        <ele>3084</ele>
        <time>2022-07-15T07:30:28Z</time>
      </trkpt>
      <trkpt lat="46.02467" lon="6.85214">
        <ele>3086</ele>
        <time>2022-07-15T07:30:38Z</time>
      </trkpt>
      <trkpt lat="46.02471" lon="6.85228">
        <ele>3089</ele>
        <time>2022-07-15T07:30:58Z</time>
      </trkpt>
      <trkpt lat="46.02478" lon="6.85242">
        <ele>3092</ele>
        <time>2022-07-15T07:31:20Z</time>
      </trkpt>
      <trkpt lat="46.0248" lon="6.8525">
        <ele>3094</ele>
        <time>2022-07-15T07:31:30Z</time>
      </trkpt>
      <trkpt lat="46.0248" lon="6.85258">
        <ele>3095</ele>
        <time>2022-07-15T07:31:40Z</time>
      </trkpt>
      <trkpt lat="46.02476" lon="6.85268">
        <ele>3095</ele>
        <time>2022-07-15T07:31:50Z</time>
      </trkpt>
      <trkpt lat="46.02476" lon="6.85277">
        <ele>3096</ele>
        <time>2022-07-15T07:42:14Z</time>
      </trkpt>
      <trkpt lat="46.02474" lon="6.85283">
        <ele>3095</ele>
        <time>2022-07-15T07:42:21Z</time>
      </trkpt>
      <trkpt lat="46.02473" lon="6.85293">
        <ele>3095</ele>
        <time>2022-07-15T07:42:31Z</time>
      </trkpt>
      <trkpt lat="46.02464" lon="6.85316">
        <ele>3092</ele>
        <time>2022-07-15T07:42:56Z</time>
      </trkpt>
      <trkpt lat="46.0246" lon="6.85322">
        <ele>3090</ele>
        <time>2022-07-15T07:43:06Z</time>
      </trkpt>
      <trkpt lat="46.02453" lon="6.85338">
        <ele>3085</ele>
        <time>2022-07-15T07:43:26Z</time>
      </trkpt>
      <trkpt lat="46.02444" lon="6.85356">
        <ele>3082</ele>
        <time>2022-07-15T07:43:43Z</time>
      </trkpt>
      <trkpt lat="46.02442" lon="6.85363">
        <ele>3082</ele>
        <time>2022-07-15T07:43:48Z</time>
      </trkpt>
      <trkpt lat="46.02435" lon="6.85382">
        <ele>3082</ele>
        <time>2022-07-15T07:44:02Z</time>
      </trkpt>
      <trkpt lat="46.02432" lon="6.85387">
        <ele>3082</ele>
        <time>2022-07-15T07:44:07Z</time>
      </trkpt>
      <trkpt lat="46.02431" lon="6.85395">
        <ele>3082</ele>
        <time>2022-07-15T07:44:20Z</time>
      </trkpt>
      <trkpt lat="46.02429" lon="6.85402">
        <ele>3080</ele>
        <time>2022-07-15T07:44:30Z</time>
      </trkpt>
      <trkpt lat="46.02427" lon="6.8542">
        <ele>3077</ele>
        <time>2022-07-15T07:44:50Z</time>
      </trkpt>
      <trkpt lat="46.02423" lon="6.85423">
        <ele>3077</ele>
        <time>2022-07-15T07:46:29Z</time>
      </trkpt>
      <trkpt lat="46.02424" lon="6.85429">
        <ele>3076</ele>
        <time>2022-07-15T07:57:26Z</time>
      </trkpt>
      <trkpt lat="46.02424" lon="6.85429">
        <ele>3072</ele>
        <time>2022-07-15T08:04:48Z</time>
      </trkpt>
      <trkpt lat="46.02424" lon="6.85436">
        <ele>3071</ele>
        <time>2022-07-15T08:13:53Z</time>
      </trkpt>
      <trkpt lat="46.02424" lon="6.85445">
        <ele>3071</ele>
        <time>2022-07-15T08:14:03Z</time>
      </trkpt>
      <trkpt lat="46.02427" lon="6.8545">
        <ele>3070</ele>
        <time>2022-07-15T08:14:38Z</time>
      </trkpt>
      <trkpt lat="46.02427" lon="6.8545">
        <ele>3072</ele>
        <time>2022-07-15T08:16:11Z</time>
      </trkpt>
      <trkpt lat="46.02425" lon="6.85442">
        <ele>3071</ele>
        <time>2022-07-15T08:18:27Z</time>
      </trkpt>
      <trkpt lat="46.02426" lon="6.85436">
        <ele>3071</ele>
        <time>2022-07-15T08:18:37Z</time>
      </trkpt>
      <trkpt lat="46.0242" lon="6.85422">
        <ele>3072</ele>
        <time>2022-07-15T08:22:17Z</time>
      </trkpt>
      <trkpt lat="46.0242" lon="6.8543">
        <ele>3074</ele>
        <time>2022-07-15T08:37:35Z</time>
      </trkpt>
      <trkpt lat="46.02425" lon="6.85432">
        <ele>3070</ele>
        <time>2022-07-15T08:55:32Z</time>
      </trkpt>
      <trkpt lat="46.02425" lon="6.85439">
        <ele>3070</ele>
        <time>2022-07-15T08:55:47Z</time>
      </trkpt>
      <trkpt lat="46.02425" lon="6.85446">
        <ele>3070</ele>
        <time>2022-07-15T08:56:07Z</time>
      </trkpt>
      <trkpt lat="46.02426" lon="6.85455">
        <ele>3069</ele>
        <time>2022-07-15T08:56:27Z</time>
      </trkpt>
      <trkpt lat="46.02425" lon="6.85454">
        <ele>3072</ele>
        <time>2022-07-15T09:05:33Z</time>
      </trkpt>
      <trkpt lat="46.02424" lon="6.85447">
        <ele>3072</ele>
        <time>2022-07-15T09:05:38Z</time>
      </trkpt>
      <trkpt lat="46.02424" lon="6.85448">
        <ele>3072</ele>
        <time>2022-07-15T09:46:01Z</time>
      </trkpt>
      <trkpt lat="46.02423" lon="6.85444">
        <ele>3071</ele>
        <time>2022-07-15T10:00:13Z</time>
      </trkpt>
      <trkpt lat="46.02423" lon="6.85438">
        <ele>3071</ele>
        <time>2022-07-15T10:00:29Z</time>
      </trkpt>
      <trkpt lat="46.02424" lon="6.85431">
        <ele>3072</ele>
        <time>2022-07-15T10:00:44Z</time>
      </trkpt>
      <trkpt lat="46.02424" lon="6.85432">
        <ele>3072</ele>
        <time>2022-07-15T10:05:32Z</time>
      </trkpt>
      <trkpt lat="46.0242" lon="6.85439">
        <ele>3071</ele>
        <time>2022-07-15T10:05:57Z</time>
      </trkpt>
      <trkpt lat="46.02421" lon="6.85446">
        <ele>3072</ele>
        <time>2022-07-15T10:32:54Z</time>
      </trkpt>
      <trkpt lat="46.02425" lon="6.85436">
        <ele>3068</ele>
        <time>2022-07-15T10:47:06Z</time>
      </trkpt>
      <trkpt lat="46.02421" lon="6.85434">
        <ele>3068</ele>
        <time>2022-07-15T10:47:59Z</time>
      </trkpt>
      <trkpt lat="46.02423" lon="6.85435">
        <ele>3069</ele>
        <time>2022-07-15T10:48:55Z</time>
      </trkpt>
      <trkpt lat="46.02424" lon="6.85441">
        <ele>3068</ele>
        <time>2022-07-15T10:49:05Z</time>
      </trkpt>
      <trkpt lat="46.02424" lon="6.8544">
        <ele>3068</ele>
        <time>2022-07-15T10:57:07Z</time>
      </trkpt>
      <trkpt lat="46.02424" lon="6.85432">
        <ele>3068</ele>
        <time>2022-07-15T10:57:14Z</time>
      </trkpt>
      <trkpt lat="46.02423" lon="6.85426">
        <ele>3069</ele>
        <time>2022-07-15T10:57:24Z</time>
      </trkpt>
      <trkpt lat="46.02424" lon="6.85419">
        <ele>3071</ele>
        <time>2022-07-15T10:59:27Z</time>
      </trkpt>
      <trkpt lat="46.02427" lon="6.85413">
        <ele>3071</ele>
        <time>2022-07-15T10:59:42Z</time>
      </trkpt>
      <trkpt lat="46.0243" lon="6.85388">
        <ele>3076</ele>
        <time>2022-07-15T11:00:08Z</time>
      </trkpt>
      <trkpt lat="46.0243" lon="6.85382">
        <ele>3076</ele>
        <time>2022-07-15T11:00:13Z</time>
      </trkpt>
      <trkpt lat="46.02428" lon="6.85372">
        <ele>3075</ele>
        <time>2022-07-15T11:00:21Z</time>
      </trkpt>
      <trkpt lat="46.02423" lon="6.85362">
        <ele>3073</ele>
        <time>2022-07-15T11:00:32Z</time>
      </trkpt>
      <trkpt lat="46.02412" lon="6.85351">
        <ele>3070</ele>
        <time>2022-07-15T11:00:47Z</time>
      </trkpt>
      <trkpt lat="46.02401" lon="6.8533">
        <ele>3066</ele>
        <time>2022-07-15T11:01:15Z</time>
      </trkpt>
      <trkpt lat="46.02398" lon="6.8532">
        <ele>3065</ele>
        <time>2022-07-15T11:01:52Z</time>
      </trkpt>
      <trkpt lat="46.02392" lon="6.85306">
        <ele>3063</ele>
        <time>2022-07-15T11:02:04Z</time>
      </trkpt>
      <trkpt lat="46.02388" lon="6.85303">
        <ele>3062</ele>
        <time>2022-07-15T11:02:08Z</time>
      </trkpt>
      <trkpt lat="46.02382" lon="6.85292">
        <ele>3059</ele>
        <time>2022-07-15T11:02:19Z</time>
      </trkpt>
      <trkpt lat="46.02381" lon="6.85285">
        <ele>3058</ele>
        <time>2022-07-15T11:02:24Z</time>
      </trkpt>
      <trkpt lat="46.02366" lon="6.85252">
        <ele>3053</ele>
        <time>2022-07-15T11:02:55Z</time>
      </trkpt>
      <trkpt lat="46.02362" lon="6.85248">
        <ele>3051</ele>
        <time>2022-07-15T11:02:59Z</time>
      </trkpt>
      <trkpt lat="46.02358" lon="6.85239">
        <ele>3050</ele>
        <time>2022-07-15T11:03:06Z</time>
      </trkpt>
      <trkpt lat="46.02358" lon="6.85233">
        <ele>3049</ele>
        <time>2022-07-15T11:03:11Z</time>
      </trkpt>
      <trkpt lat="46.02358" lon="6.85227">
        <ele>3049</ele>
        <time>2022-07-15T11:03:17Z</time>
      </trkpt>
      <trkpt lat="46.02356" lon="6.85218">
        <ele>3049</ele>
        <time>2022-07-15T11:03:29Z</time>
      </trkpt>
      <trkpt lat="46.02353" lon="6.85208">
        <ele>3048</ele>
        <time>2022-07-15T11:03:41Z</time>
      </trkpt>
      <trkpt lat="46.02351" lon="6.85202">
        <ele>3047</ele>
        <time>2022-07-15T11:03:45Z</time>
      </trkpt>
      <trkpt lat="46.02349" lon="6.85194">
        <ele>3046</ele>
        <time>2022-07-15T11:03:52Z</time>
      </trkpt>
      <trkpt lat="46.02347" lon="6.85178">
        <ele>3046</ele>
        <time>2022-07-15T11:04:04Z</time>
      </trkpt>
      <trkpt lat="46.02349" lon="6.85172">
        <ele>3047</ele>
        <time>2022-07-15T11:04:09Z</time>
      </trkpt>
      <trkpt lat="46.02348" lon="6.85165">
        <ele>3047</ele>
        <time>2022-07-15T11:04:15Z</time>
      </trkpt>
      <trkpt lat="46.02344" lon="6.85152">
        <ele>3047</ele>
        <time>2022-07-15T11:04:24Z</time>
      </trkpt>
      <trkpt lat="46.02343" lon="6.85144">
        <ele>3046</ele>
        <time>2022-07-15T11:04:30Z</time>
      </trkpt>
      <trkpt lat="46.02341" lon="6.85137">
        <ele>3046</ele>
        <time>2022-07-15T11:04:35Z</time>
      </trkpt>
      <trkpt lat="46.02337" lon="6.85129">
        <ele>3045</ele>
        <time>2022-07-15T11:04:43Z</time>
      </trkpt>
      <trkpt lat="46.02335" lon="6.85123">
        <ele>3045</ele>
        <time>2022-07-15T11:04:47Z</time>
      </trkpt>
      <trkpt lat="46.02332" lon="6.85113">
        <ele>3044</ele>
        <time>2022-07-15T11:04:55Z</time>
      </trkpt>
      <trkpt lat="46.02327" lon="6.851">
        <ele>3042</ele>
        <time>2022-07-15T11:05:04Z</time>
      </trkpt>
      <trkpt lat="46.02318" lon="6.85095">
        <ele>3041</ele>
        <time>2022-07-15T11:05:12Z</time>
      </trkpt>
      <trkpt lat="46.02311" lon="6.85086">
        <ele>3039</ele>
        <time>2022-07-15T11:05:19Z</time>
      </trkpt>
      <trkpt lat="46.02288" lon="6.85046">
        <ele>3035</ele>
        <time>2022-07-15T11:05:51Z</time>
      </trkpt>
      <trkpt lat="46.02283" lon="6.85033">
        <ele>3036</ele>
        <time>2022-07-15T11:06:01Z</time>
      </trkpt>
      <trkpt lat="46.02276" lon="6.85025">
        <ele>3037</ele>
        <time>2022-07-15T11:06:11Z</time>
      </trkpt>
      <trkpt lat="46.02265" lon="6.85013">
        <ele>3035</ele>
        <time>2022-07-15T11:06:25Z</time>
      </trkpt>
      <trkpt lat="46.02259" lon="6.85009">
        <ele>3035</ele>
        <time>2022-07-15T11:06:32Z</time>
      </trkpt>
      <trkpt lat="46.02252" lon="6.85007">
        <ele>3035</ele>
        <time>2022-07-15T11:06:39Z</time>
      </trkpt>
      <trkpt lat="46.02244" lon="6.85003">
        <ele>3034</ele>
        <time>2022-07-15T11:06:50Z</time>
      </trkpt>
      <trkpt lat="46.02236" lon="6.85004">
        <ele>3033</ele>
        <time>2022-07-15T11:06:59Z</time>
      </trkpt>
      <trkpt lat="46.02231" lon="6.85">
        <ele>3032</ele>
        <time>2022-07-15T11:07:04Z</time>
      </trkpt>
      <trkpt lat="46.02228" lon="6.84995">
        <ele>3031</ele>
        <time>2022-07-15T11:07:09Z</time>
      </trkpt>
      <trkpt lat="46.02223" lon="6.84994">
        <ele>3030</ele>
        <time>2022-07-15T11:07:14Z</time>
      </trkpt>
      <trkpt lat="46.02215" lon="6.84986">
        <ele>3027</ele>
        <time>2022-07-15T11:07:25Z</time>
      </trkpt>
      <trkpt lat="46.02212" lon="6.84982">
        <ele>3025</ele>
        <time>2022-07-15T11:07:33Z</time>
      </trkpt>
      <trkpt lat="46.02205" lon="6.84974">
        <ele>3023</ele>
        <time>2022-07-15T11:07:45Z</time>
      </trkpt>
      <trkpt lat="46.02201" lon="6.84974">
        <ele>3022</ele>
        <time>2022-07-15T11:07:50Z</time>
      </trkpt>
      <trkpt lat="46.02196" lon="6.84973">
        <ele>3023</ele>
        <time>2022-07-15T11:07:55Z</time>
      </trkpt>
      <trkpt lat="46.02192" lon="6.84969">
        <ele>3022</ele>
        <time>2022-07-15T11:08:00Z</time>
      </trkpt>
      <trkpt lat="46.02188" lon="6.84968">
        <ele>3022</ele>
        <time>2022-07-15T11:08:04Z</time>
      </trkpt>
      <trkpt lat="46.02183" lon="6.84965">
        <ele>3024</ele>
        <time>2022-07-15T11:08:12Z</time>
      </trkpt>
      <trkpt lat="46.02181" lon="6.8496">
        <ele>3023</ele>
        <time>2022-07-15T11:08:18Z</time>
      </trkpt>
      <trkpt lat="46.02166" lon="6.84949">
        <ele>3022</ele>
        <time>2022-07-15T11:08:39Z</time>
      </trkpt>
      <trkpt lat="46.02161" lon="6.84945">
        <ele>3022</ele>
        <time>2022-07-15T11:08:44Z</time>
      </trkpt>
      <trkpt lat="46.02156" lon="6.84942">
        <ele>3022</ele>
        <time>2022-07-15T11:08:49Z</time>
      </trkpt>
      <trkpt lat="46.02144" lon="6.84935">
        <ele>3022</ele>
        <time>2022-07-15T11:09:03Z</time>
      </trkpt>
      <trkpt lat="46.02133" lon="6.84919">
        <ele>3019</ele>
        <time>2022-07-15T11:09:20Z</time>
      </trkpt>
      <trkpt lat="46.02128" lon="6.84916">
        <ele>3017</ele>
        <time>2022-07-15T11:09:28Z</time>
      </trkpt>
      <trkpt lat="46.02122" lon="6.84934">
        <ele>3011</ele>
        <time>2022-07-15T11:09:50Z</time>
      </trkpt>
      <trkpt lat="46.02121" lon="6.84951">
        <ele>3008</ele>
        <time>2022-07-15T11:10:07Z</time>
      </trkpt>
      <trkpt lat="46.02125" lon="6.84969">
        <ele>3003</ele>
        <time>2022-07-15T11:10:27Z</time>
      </trkpt>
      <trkpt lat="46.02119" lon="6.8498">
        <ele>2998</ele>
        <time>2022-07-15T11:10:47Z</time>
      </trkpt>
      <trkpt lat="46.02106" lon="6.84979">
        <ele>2994</ele>
        <time>2022-07-15T11:11:04Z</time>
      </trkpt>
      <trkpt lat="46.02102" lon="6.84979">
        <ele>2992</ele>
        <time>2022-07-15T11:11:11Z</time>
      </trkpt>
      <trkpt lat="46.02099" lon="6.84987">
        <ele>2989</ele>
        <time>2022-07-15T11:11:21Z</time>
      </trkpt>
      <trkpt lat="46.02077" lon="6.84986">
        <ele>2980</ele>
        <time>2022-07-15T11:11:53Z</time>
      </trkpt>
      <trkpt lat="46.02072" lon="6.84991">
        <ele>2976</ele>
        <time>2022-07-15T11:12:04Z</time>
      </trkpt>
      <trkpt lat="46.02068" lon="6.84994">
        <ele>2972</ele>
        <time>2022-07-15T11:12:15Z</time>
      </trkpt>
      <trkpt lat="46.02065" lon="6.85">
        <ele>2969</ele>
        <time>2022-07-15T11:12:25Z</time>
      </trkpt>
      <trkpt lat="46.02065" lon="6.85007">
        <ele>2968</ele>
        <time>2022-07-15T11:12:29Z</time>
      </trkpt>
      <trkpt lat="46.02053" lon="6.85008">
        <ele>2962</ele>
        <time>2022-07-15T11:12:47Z</time>
      </trkpt>
      <trkpt lat="46.02037" lon="6.84999">
        <ele>2954</ele>
        <time>2022-07-15T11:13:06Z</time>
      </trkpt>
      <trkpt lat="46.02035" lon="6.85008">
        <ele>2952</ele>
        <time>2022-07-15T11:13:15Z</time>
      </trkpt>
      <trkpt lat="46.0203" lon="6.8501">
        <ele>2949</ele>
        <time>2022-07-15T11:13:24Z</time>
      </trkpt>
      <trkpt lat="46.02026" lon="6.85006">
        <ele>2947</ele>
        <time>2022-07-15T11:13:29Z</time>
      </trkpt>
      <trkpt lat="46.0202" lon="6.85004">
        <ele>2944</ele>
        <time>2022-07-15T11:13:38Z</time>
      </trkpt>
      <trkpt lat="46.02018" lon="6.8501">
        <ele>2942</ele>
        <time>2022-07-15T11:13:43Z</time>
      </trkpt>
      <trkpt lat="46.02013" lon="6.85003">
        <ele>2941</ele>
        <time>2022-07-15T11:13:48Z</time>
      </trkpt>
      <trkpt lat="46.02009" lon="6.84999">
        <ele>2939</ele>
        <time>2022-07-15T11:13:54Z</time>
      </trkpt>
      <trkpt lat="46.02006" lon="6.85021">
        <ele>2934</ele>
        <time>2022-07-15T11:14:07Z</time>
      </trkpt>
      <trkpt lat="46.02004" lon="6.85028">
        <ele>2932</ele>
        <time>2022-07-15T11:14:14Z</time>
      </trkpt>
      <trkpt lat="46.02003" lon="6.85035">
        <ele>2931</ele>
        <time>2022-07-15T11:14:18Z</time>
      </trkpt>
      <trkpt lat="46.02" lon="6.85055">
        <ele>2927</ele>
        <time>2022-07-15T11:14:30Z</time>
      </trkpt>
      <trkpt lat="46.01998" lon="6.85062">
        <ele>2926</ele>
        <time>2022-07-15T11:14:34Z</time>
      </trkpt>
      <trkpt lat="46.01994" lon="6.85075">
        <ele>2924</ele>
        <time>2022-07-15T11:14:41Z</time>
      </trkpt>
      <trkpt lat="46.01994" lon="6.85081">
        <ele>2924</ele>
        <time>2022-07-15T11:14:45Z</time>
      </trkpt>
      <trkpt lat="46.0199" lon="6.85088">
        <ele>2922</ele>
        <time>2022-07-15T11:14:51Z</time>
      </trkpt>
      <trkpt lat="46.01987" lon="6.85093">
        <ele>2921</ele>
        <time>2022-07-15T11:14:55Z</time>
      </trkpt>
      <trkpt lat="46.01982" lon="6.85125">
        <ele>2917</ele>
        <time>2022-07-15T11:15:13Z</time>
      </trkpt>
      <trkpt lat="46.01982" lon="6.85132">
        <ele>2916</ele>
        <time>2022-07-15T11:15:16Z</time>
      </trkpt>
      <trkpt lat="46.01982" lon="6.85138">
        <ele>2915</ele>
        <time>2022-07-15T11:15:19Z</time>
      </trkpt>
      <trkpt lat="46.01984" lon="6.85153">
        <ele>2914</ele>
        <time>2022-07-15T11:15:28Z</time>
      </trkpt>
      <trkpt lat="46.01983" lon="6.85161">
        <ele>2913</ele>
        <time>2022-07-15T11:15:32Z</time>
      </trkpt>
      <trkpt lat="46.01978" lon="6.85159">
        <ele>2912</ele>
        <time>2022-07-15T11:15:36Z</time>
      </trkpt>
      <trkpt lat="46.01968" lon="6.85149">
        <ele>2909</ele>
        <time>2022-07-15T11:15:48Z</time>
      </trkpt>
      <trkpt lat="46.01966" lon="6.85143">
        <ele>2908</ele>
        <time>2022-07-15T11:15:51Z</time>
      </trkpt>
      <trkpt lat="46.01958" lon="6.85144">
        <ele>2903</ele>
        <time>2022-07-15T11:16:10Z</time>
      </trkpt>
      <trkpt lat="46.01955" lon="6.8514">
        <ele>2902</ele>
        <time>2022-07-15T11:16:14Z</time>
      </trkpt>
      <trkpt lat="46.0195" lon="6.85132">
        <ele>2899</ele>
        <time>2022-07-15T11:16:24Z</time>
      </trkpt>
      <trkpt lat="46.01944" lon="6.85152">
        <ele>2893</ele>
        <time>2022-07-15T11:16:41Z</time>
      </trkpt>
      <trkpt lat="46.0194" lon="6.85146">
        <ele>2891</ele>
        <time>2022-07-15T11:16:47Z</time>
      </trkpt>
      <trkpt lat="46.01938" lon="6.85155">
        <ele>2889</ele>
        <time>2022-07-15T11:16:54Z</time>
      </trkpt>
      <trkpt lat="46.01936" lon="6.85164">
        <ele>2886</ele>
        <time>2022-07-15T11:17:02Z</time>
      </trkpt>
      <trkpt lat="46.01928" lon="6.85153">
        <ele>2883</ele>
        <time>2022-07-15T11:17:14Z</time>
      </trkpt>
      <trkpt lat="46.01922" lon="6.85165">
        <ele>2877</ele>
        <time>2022-07-15T11:17:27Z</time>
      </trkpt>
      <trkpt lat="46.01922" lon="6.85172">
        <ele>2875</ele>
        <time>2022-07-15T11:17:32Z</time>
      </trkpt>
      <trkpt lat="46.01917" lon="6.85175">
        <ele>2872</ele>
        <time>2022-07-15T11:17:42Z</time>
      </trkpt>
      <trkpt lat="46.01904" lon="6.85161">
        <ele>2867</ele>
        <time>2022-07-15T11:17:57Z</time>
      </trkpt>
      <trkpt lat="46.01897" lon="6.8518">
        <ele>2860</ele>
        <time>2022-07-15T11:18:16Z</time>
      </trkpt>
      <trkpt lat="46.01897" lon="6.85187">
        <ele>2858</ele>
        <time>2022-07-15T11:18:23Z</time>
      </trkpt>
      <trkpt lat="46.01893" lon="6.85182">
        <ele>2857</ele>
        <time>2022-07-15T11:18:27Z</time>
      </trkpt>
      <trkpt lat="46.01887" lon="6.85193">
        <ele>2852</ele>
        <time>2022-07-15T11:18:39Z</time>
      </trkpt>
      <trkpt lat="46.01881" lon="6.85193">
        <ele>2851</ele>
        <time>2022-07-15T11:18:48Z</time>
      </trkpt>
      <trkpt lat="46.01875" lon="6.85191">
        <ele>2845</ele>
        <time>2022-07-15T11:18:58Z</time>
      </trkpt>
      <trkpt lat="46.0187" lon="6.85196">
        <ele>2841</ele>
        <time>2022-07-15T11:19:08Z</time>
      </trkpt>
      <trkpt lat="46.01867" lon="6.85201">
        <ele>2839</ele>
        <time>2022-07-15T11:19:13Z</time>
      </trkpt>
      <trkpt lat="46.01864" lon="6.85204">
        <ele>2837</ele>
        <time>2022-07-15T11:19:21Z</time>
      </trkpt>
      <trkpt lat="46.01856" lon="6.85198">
        <ele>2834</ele>
        <time>2022-07-15T11:19:31Z</time>
      </trkpt>
      <trkpt lat="46.01854" lon="6.85206">
        <ele>2831</ele>
        <time>2022-07-15T11:19:38Z</time>
      </trkpt>
      <trkpt lat="46.01848" lon="6.85204">
        <ele>2829</ele>
        <time>2022-07-15T11:19:48Z</time>
      </trkpt>
      <trkpt lat="46.01836" lon="6.85194">
        <ele>2819</ele>
        <time>2022-07-15T11:20:09Z</time>
      </trkpt>
      <trkpt lat="46.01831" lon="6.85197">
        <ele>2815</ele>
        <time>2022-07-15T11:20:17Z</time>
      </trkpt>
      <trkpt lat="46.01827" lon="6.85204">
        <ele>2812</ele>
        <time>2022-07-15T11:20:24Z</time>
      </trkpt>
      <trkpt lat="46.01821" lon="6.85208">
        <ele>2808</ele>
        <time>2022-07-15T11:20:36Z</time>
      </trkpt>
      <trkpt lat="46.01817" lon="6.85212">
        <ele>2804</ele>
        <time>2022-07-15T11:20:46Z</time>
      </trkpt>
      <trkpt lat="46.01814" lon="6.85221">
        <ele>2800</ele>
        <time>2022-07-15T11:20:56Z</time>
      </trkpt>
      <trkpt lat="46.0181" lon="6.85216">
        <ele>2799</ele>
        <time>2022-07-15T11:21:01Z</time>
      </trkpt>
      <trkpt lat="46.01807" lon="6.85222">
        <ele>2796</ele>
        <time>2022-07-15T11:21:08Z</time>
      </trkpt>
      <trkpt lat="46.01803" lon="6.85215">
        <ele>2795</ele>
        <time>2022-07-15T11:21:13Z</time>
      </trkpt>
      <trkpt lat="46.01801" lon="6.8521">
        <ele>2793</ele>
        <time>2022-07-15T11:21:17Z</time>
      </trkpt>
      <trkpt lat="46.01796" lon="6.85205">
        <ele>2791</ele>
        <time>2022-07-15T11:21:24Z</time>
      </trkpt>
      <trkpt lat="46.01792" lon="6.85206">
        <ele>2788</ele>
        <time>2022-07-15T11:21:31Z</time>
      </trkpt>
      <trkpt lat="46.01783" lon="6.85187">
        <ele>2782</ele>
        <time>2022-07-15T11:21:48Z</time>
      </trkpt>
      <trkpt lat="46.01775" lon="6.85186">
        <ele>2777</ele>
        <time>2022-07-15T11:21:58Z</time>
      </trkpt>
      <trkpt lat="46.01773" lon="6.8518">
        <ele>2775</ele>
        <time>2022-07-15T11:22:02Z</time>
      </trkpt>
      <trkpt lat="46.01769" lon="6.85187">
        <ele>2772</ele>
        <time>2022-07-15T11:22:08Z</time>
      </trkpt>
      <trkpt lat="46.01764" lon="6.8519">
        <ele>2771</ele>
        <time>2022-07-15T11:22:13Z</time>
      </trkpt>
      <trkpt lat="46.01761" lon="6.85182">
        <ele>2768</ele>
        <time>2022-07-15T11:22:19Z</time>
      </trkpt>
      <trkpt lat="46.01756" lon="6.85183">
        <ele>2766</ele>
        <time>2022-07-15T11:22:27Z</time>
      </trkpt>
      <trkpt lat="46.01751" lon="6.85177">
        <ele>2763</ele>
        <time>2022-07-15T11:22:36Z</time>
      </trkpt>
      <trkpt lat="46.01748" lon="6.85183">
        <ele>2762</ele>
        <time>2022-07-15T11:22:40Z</time>
      </trkpt>
      <trkpt lat="46.01746" lon="6.85176">
        <ele>2760</ele>
        <time>2022-07-15T11:22:46Z</time>
      </trkpt>
      <trkpt lat="46.0174" lon="6.85177">
        <ele>2757</ele>
        <time>2022-07-15T11:22:56Z</time>
      </trkpt>
      <trkpt lat="46.01736" lon="6.85175">
        <ele>2756</ele>
        <time>2022-07-15T11:23:01Z</time>
      </trkpt>
      <trkpt lat="46.01732" lon="6.8517">
        <ele>2754</ele>
        <time>2022-07-15T11:23:06Z</time>
      </trkpt>
      <trkpt lat="46.01728" lon="6.85162">
        <ele>2752</ele>
        <time>2022-07-15T11:23:12Z</time>
      </trkpt>
      <trkpt lat="46.01724" lon="6.85166">
        <ele>2751</ele>
        <time>2022-07-15T11:23:16Z</time>
      </trkpt>
      <trkpt lat="46.01723" lon="6.85173">
        <ele>2749</ele>
        <time>2022-07-15T11:23:21Z</time>
      </trkpt>
      <trkpt lat="46.01716" lon="6.85171">
        <ele>2746</ele>
        <time>2022-07-15T11:23:30Z</time>
      </trkpt>
      <trkpt lat="46.01712" lon="6.8517">
        <ele>2744</ele>
        <time>2022-07-15T11:23:35Z</time>
      </trkpt>
      <trkpt lat="46.01708" lon="6.85163">
        <ele>2742</ele>
        <time>2022-07-15T11:23:40Z</time>
      </trkpt>
      <trkpt lat="46.01698" lon="6.85167">
        <ele>2738</ele>
        <time>2022-07-15T11:23:53Z</time>
      </trkpt>
      <trkpt lat="46.01694" lon="6.85168">
        <ele>2736</ele>
        <time>2022-07-15T11:23:59Z</time>
      </trkpt>
      <trkpt lat="46.0169" lon="6.85165">
        <ele>2735</ele>
        <time>2022-07-15T11:24:04Z</time>
      </trkpt>
      <trkpt lat="46.01688" lon="6.85155">
        <ele>2733</ele>
        <time>2022-07-15T11:24:20Z</time>
      </trkpt>
      <trkpt lat="46.01681" lon="6.85147">
        <ele>2731</ele>
        <time>2022-07-15T11:24:27Z</time>
      </trkpt>
      <trkpt lat="46.01659" lon="6.85134">
        <ele>2728</ele>
        <time>2022-07-15T11:24:45Z</time>
      </trkpt>
      <trkpt lat="46.01649" lon="6.85125">
        <ele>2725</ele>
        <time>2022-07-15T11:24:56Z</time>
      </trkpt>
      <trkpt lat="46.01641" lon="6.85119">
        <ele>2723</ele>
        <time>2022-07-15T11:25:05Z</time>
      </trkpt>
      <trkpt lat="46.01636" lon="6.85115">
        <ele>2721</ele>
        <time>2022-07-15T11:25:09Z</time>
      </trkpt>
      <trkpt lat="46.0163" lon="6.85114">
        <ele>2719</ele>
        <time>2022-07-15T11:25:13Z</time>
      </trkpt>
      <trkpt lat="46.01618" lon="6.85103">
        <ele>2715</ele>
        <time>2022-07-15T11:25:27Z</time>
      </trkpt>
      <trkpt lat="46.01614" lon="6.85102">
        <ele>2713</ele>
        <time>2022-07-15T11:25:32Z</time>
      </trkpt>
      <trkpt lat="46.01606" lon="6.8509">
        <ele>2710</ele>
        <time>2022-07-15T11:25:45Z</time>
      </trkpt>
      <trkpt lat="46.01599" lon="6.85085">
        <ele>2708</ele>
        <time>2022-07-15T11:25:53Z</time>
      </trkpt>
      <trkpt lat="46.01592" lon="6.85077">
        <ele>2706</ele>
        <time>2022-07-15T11:26:02Z</time>
      </trkpt>
      <trkpt lat="46.0159" lon="6.85072">
        <ele>2704</ele>
        <time>2022-07-15T11:26:07Z</time>
      </trkpt>
      <trkpt lat="46.01587" lon="6.85068">
        <ele>2703</ele>
        <time>2022-07-15T11:26:11Z</time>
      </trkpt>
      <trkpt lat="46.01582" lon="6.85065">
        <ele>2701</ele>
        <time>2022-07-15T11:26:15Z</time>
      </trkpt>
      <trkpt lat="46.01578" lon="6.85059">
        <ele>2700</ele>
        <time>2022-07-15T11:26:22Z</time>
      </trkpt>
      <trkpt lat="46.01563" lon="6.85062">
        <ele>2696</ele>
        <time>2022-07-15T11:26:34Z</time>
      </trkpt>
      <trkpt lat="46.01559" lon="6.85059">
        <ele>2695</ele>
        <time>2022-07-15T11:26:38Z</time>
      </trkpt>
      <trkpt lat="46.01529" lon="6.85031">
        <ele>2686</ele>
        <time>2022-07-15T11:27:15Z</time>
      </trkpt>
      <trkpt lat="46.01522" lon="6.85028">
        <ele>2684</ele>
        <time>2022-07-15T11:27:22Z</time>
      </trkpt>
      <trkpt lat="46.01517" lon="6.85026">
        <ele>2683</ele>
        <time>2022-07-15T11:27:27Z</time>
      </trkpt>
      <trkpt lat="46.01514" lon="6.85021">
        <ele>2682</ele>
        <time>2022-07-15T11:27:32Z</time>
      </trkpt>
      <trkpt lat="46.01502" lon="6.85018">
        <ele>2679</ele>
        <time>2022-07-15T11:27:42Z</time>
      </trkpt>
      <trkpt lat="46.01499" lon="6.85013">
        <ele>2678</ele>
        <time>2022-07-15T11:27:46Z</time>
      </trkpt>
      <trkpt lat="46.01491" lon="6.85004">
        <ele>2675</ele>
        <time>2022-07-15T11:27:56Z</time>
      </trkpt>
      <trkpt lat="46.01486" lon="6.85001">
        <ele>2673</ele>
        <time>2022-07-15T11:28:04Z</time>
      </trkpt>
      <trkpt lat="46.01482" lon="6.84997">
        <ele>2672</ele>
        <time>2022-07-15T11:28:09Z</time>
      </trkpt>
      <trkpt lat="46.01476" lon="6.84992">
        <ele>2670</ele>
        <time>2022-07-15T11:28:16Z</time>
      </trkpt>
      <trkpt lat="46.01462" lon="6.8498">
        <ele>2664</ele>
        <time>2022-07-15T11:28:34Z</time>
      </trkpt>
      <trkpt lat="46.01457" lon="6.84979">
        <ele>2662</ele>
        <time>2022-07-15T11:28:38Z</time>
      </trkpt>
      <trkpt lat="46.01452" lon="6.8498">
        <ele>2661</ele>
        <time>2022-07-15T11:28:45Z</time>
      </trkpt>
      <trkpt lat="46.01444" lon="6.84986">
        <ele>2659</ele>
        <time>2022-07-15T11:28:54Z</time>
      </trkpt>
      <trkpt lat="46.01439" lon="6.84988">
        <ele>2658</ele>
        <time>2022-07-15T11:28:59Z</time>
      </trkpt>
      <trkpt lat="46.01432" lon="6.84991">
        <ele>2656</ele>
        <time>2022-07-15T11:29:07Z</time>
      </trkpt>
      <trkpt lat="46.01426" lon="6.8499">
        <ele>2654</ele>
        <time>2022-07-15T11:29:14Z</time>
      </trkpt>
      <trkpt lat="46.01422" lon="6.84986">
        <ele>2653</ele>
        <time>2022-07-15T11:29:18Z</time>
      </trkpt>
      <trkpt lat="46.01417" lon="6.84986">
        <ele>2652</ele>
        <time>2022-07-15T11:29:22Z</time>
      </trkpt>
      <trkpt lat="46.01406" lon="6.84987">
        <ele>2649</ele>
        <time>2022-07-15T11:29:34Z</time>
      </trkpt>
      <trkpt lat="46.01403" lon="6.84991">
        <ele>2647</ele>
        <time>2022-07-15T11:29:41Z</time>
      </trkpt>
      <trkpt lat="46.01396" lon="6.84998">
        <ele>2644</ele>
        <time>2022-07-15T11:29:51Z</time>
      </trkpt>
      <trkpt lat="46.01374" lon="6.85015">
        <ele>2638</ele>
        <time>2022-07-15T11:30:14Z</time>
      </trkpt>
      <trkpt lat="46.01369" lon="6.85027">
        <ele>2635</ele>
        <time>2022-07-15T11:30:23Z</time>
      </trkpt>
      <trkpt lat="46.0137" lon="6.85033">
        <ele>2633</ele>
        <time>2022-07-15T11:30:26Z</time>
      </trkpt>
      <trkpt lat="46.01364" lon="6.85035">
        <ele>2630</ele>
        <time>2022-07-15T11:30:34Z</time>
      </trkpt>
      <trkpt lat="46.01353" lon="6.85043">
        <ele>2626</ele>
        <time>2022-07-15T11:30:46Z</time>
      </trkpt>
      <trkpt lat="46.01351" lon="6.85048">
        <ele>2624</ele>
        <time>2022-07-15T11:30:50Z</time>
      </trkpt>
      <trkpt lat="46.01341" lon="6.85055">
        <ele>2622</ele>
        <time>2022-07-15T11:30:59Z</time>
      </trkpt>
      <trkpt lat="46.0134" lon="6.8506">
        <ele>2621</ele>
        <time>2022-07-15T11:31:03Z</time>
      </trkpt>
      <trkpt lat="46.01326" lon="6.85071">
        <ele>2617</ele>
        <time>2022-07-15T11:31:14Z</time>
      </trkpt>
      <trkpt lat="46.01324" lon="6.85077">
        <ele>2616</ele>
        <time>2022-07-15T11:31:18Z</time>
      </trkpt>
      <trkpt lat="46.01312" lon="6.85083">
        <ele>2611</ele>
        <time>2022-07-15T11:31:30Z</time>
      </trkpt>
      <trkpt lat="46.01303" lon="6.85082">
        <ele>2609</ele>
        <time>2022-07-15T11:31:37Z</time>
      </trkpt>
      <trkpt lat="46.01298" lon="6.85095">
        <ele>2607</ele>
        <time>2022-07-15T11:31:43Z</time>
      </trkpt>
      <trkpt lat="46.01296" lon="6.85102">
        <ele>2605</ele>
        <time>2022-07-15T11:31:48Z</time>
      </trkpt>
      <trkpt lat="46.01292" lon="6.85106">
        <ele>2604</ele>
        <time>2022-07-15T11:31:53Z</time>
      </trkpt>
      <trkpt lat="46.01282" lon="6.85107">
        <ele>2601</ele>
        <time>2022-07-15T11:32:01Z</time>
      </trkpt>
      <trkpt lat="46.01272" lon="6.85115">
        <ele>2597</ele>
        <time>2022-07-15T11:32:13Z</time>
      </trkpt>
      <trkpt lat="46.01268" lon="6.85112">
        <ele>2596</ele>
        <time>2022-07-15T11:32:17Z</time>
      </trkpt>
      <trkpt lat="46.01262" lon="6.85116">
        <ele>2595</ele>
        <time>2022-07-15T11:32:21Z</time>
      </trkpt>
      <trkpt lat="46.0126" lon="6.85123">
        <ele>2594</ele>
        <time>2022-07-15T11:32:25Z</time>
      </trkpt>
      <trkpt lat="46.01256" lon="6.85127">
        <ele>2593</ele>
        <time>2022-07-15T11:32:28Z</time>
      </trkpt>
      <trkpt lat="46.01255" lon="6.85133">
        <ele>2592</ele>
        <time>2022-07-15T11:32:32Z</time>
      </trkpt>
      <trkpt lat="46.01252" lon="6.85139">
        <ele>2590</ele>
        <time>2022-07-15T11:32:37Z</time>
      </trkpt>
      <trkpt lat="46.01251" lon="6.8515">
        <ele>2588</ele>
        <time>2022-07-15T11:32:59Z</time>
      </trkpt>
      <trkpt lat="46.01237" lon="6.85167">
        <ele>2582</ele>
        <time>2022-07-15T11:33:17Z</time>
      </trkpt>
      <trkpt lat="46.01232" lon="6.85179">
        <ele>2579</ele>
        <time>2022-07-15T11:33:26Z</time>
      </trkpt>
      <trkpt lat="46.0123" lon="6.85189">
        <ele>2577</ele>
        <time>2022-07-15T11:33:33Z</time>
      </trkpt>
      <trkpt lat="46.01226" lon="6.85195">
        <ele>2575</ele>
        <time>2022-07-15T11:33:38Z</time>
      </trkpt>
      <trkpt lat="46.01224" lon="6.85202">
        <ele>2573</ele>
        <time>2022-07-15T11:33:45Z</time>
      </trkpt>
      <trkpt lat="46.01217" lon="6.85211">
        <ele>2570</ele>
        <time>2022-07-15T11:33:54Z</time>
      </trkpt>
      <trkpt lat="46.01215" lon="6.85217">
        <ele>2569</ele>
        <time>2022-07-15T11:33:59Z</time>
      </trkpt>
      <trkpt lat="46.01215" lon="6.85226">
        <ele>2567</ele>
        <time>2022-07-15T11:34:04Z</time>
      </trkpt>
      <trkpt lat="46.01212" lon="6.85237">
        <ele>2565</ele>
        <time>2022-07-15T11:34:12Z</time>
      </trkpt>
      <trkpt lat="46.0121" lon="6.85242">
        <ele>2563</ele>
        <time>2022-07-15T11:34:17Z</time>
      </trkpt>
      <trkpt lat="46.01208" lon="6.85248">
        <ele>2562</ele>
        <time>2022-07-15T11:34:22Z</time>
      </trkpt>
      <trkpt lat="46.01201" lon="6.85262">
        <ele>2559</ele>
        <time>2022-07-15T11:34:33Z</time>
      </trkpt>
      <trkpt lat="46.01192" lon="6.85269">
        <ele>2557</ele>
        <time>2022-07-15T11:34:43Z</time>
      </trkpt>
      <trkpt lat="46.0119" lon="6.85276">
        <ele>2557</ele>
        <time>2022-07-15T11:34:46Z</time>
      </trkpt>
      <trkpt lat="46.01187" lon="6.8528">
        <ele>2555</ele>
        <time>2022-07-15T11:34:50Z</time>
      </trkpt>
      <trkpt lat="46.01182" lon="6.85282">
        <ele>2554</ele>
        <time>2022-07-15T11:34:53Z</time>
      </trkpt>
      <trkpt lat="46.01173" lon="6.85288">
        <ele>2554</ele>
        <time>2022-07-15T11:35:02Z</time>
      </trkpt>
      <trkpt lat="46.0117" lon="6.85294">
        <ele>2552</ele>
        <time>2022-07-15T11:35:07Z</time>
      </trkpt>
      <trkpt lat="46.01165" lon="6.85293">
        <ele>2552</ele>
        <time>2022-07-15T11:35:12Z</time>
      </trkpt>
      <trkpt lat="46.01159" lon="6.85305">
        <ele>2549</ele>
        <time>2022-07-15T11:35:21Z</time>
      </trkpt>
      <trkpt lat="46.01152" lon="6.85308">
        <ele>2547</ele>
        <time>2022-07-15T11:35:29Z</time>
      </trkpt>
      <trkpt lat="46.01154" lon="6.85317">
        <ele>2545</ele>
        <time>2022-07-15T11:35:35Z</time>
      </trkpt>
      <trkpt lat="46.01146" lon="6.85331">
        <ele>2540</ele>
        <time>2022-07-15T11:35:52Z</time>
      </trkpt>
      <trkpt lat="46.01139" lon="6.85341">
        <ele>2536</ele>
        <time>2022-07-15T11:36:01Z</time>
      </trkpt>
      <trkpt lat="46.01135" lon="6.85345">
        <ele>2535</ele>
        <time>2022-07-15T11:36:04Z</time>
      </trkpt>
      <trkpt lat="46.01131" lon="6.85349">
        <ele>2535</ele>
        <time>2022-07-15T11:36:08Z</time>
      </trkpt>
      <trkpt lat="46.01129" lon="6.85356">
        <ele>2535</ele>
        <time>2022-07-15T11:36:12Z</time>
      </trkpt>
      <trkpt lat="46.01127" lon="6.85361">
        <ele>2534</ele>
        <time>2022-07-15T11:36:15Z</time>
      </trkpt>
      <trkpt lat="46.01121" lon="6.8537">
        <ele>2531</ele>
        <time>2022-07-15T11:36:23Z</time>
      </trkpt>
      <trkpt lat="46.01118" lon="6.85379">
        <ele>2529</ele>
        <time>2022-07-15T11:36:31Z</time>
      </trkpt>
      <trkpt lat="46.01104" lon="6.85398">
        <ele>2527</ele>
        <time>2022-07-15T11:36:47Z</time>
      </trkpt>
      <trkpt lat="46.01099" lon="6.85412">
        <ele>2525</ele>
        <time>2022-07-15T11:37:03Z</time>
      </trkpt>
      <trkpt lat="46.01094" lon="6.85429">
        <ele>2524</ele>
        <time>2022-07-15T11:37:20Z</time>
      </trkpt>
      <trkpt lat="46.01093" lon="6.85435">
        <ele>2524</ele>
        <time>2022-07-15T11:37:24Z</time>
      </trkpt>
      <trkpt lat="46.0109" lon="6.85441">
        <ele>2524</ele>
        <time>2022-07-15T11:37:28Z</time>
      </trkpt>
      <trkpt lat="46.01087" lon="6.85456">
        <ele>2523</ele>
        <time>2022-07-15T11:37:37Z</time>
      </trkpt>
      <trkpt lat="46.01085" lon="6.85461">
        <ele>2522</ele>
        <time>2022-07-15T11:37:41Z</time>
      </trkpt>
      <trkpt lat="46.01084" lon="6.85469">
        <ele>2522</ele>
        <time>2022-07-15T11:37:45Z</time>
      </trkpt>
      <trkpt lat="46.01084" lon="6.85476">
        <ele>2522</ele>
        <time>2022-07-15T11:37:49Z</time>
      </trkpt>
      <trkpt lat="46.01084" lon="6.85485">
        <ele>2522</ele>
        <time>2022-07-15T11:37:54Z</time>
      </trkpt>
      <trkpt lat="46.01084" lon="6.85491">
        <ele>2521</ele>
        <time>2022-07-15T11:37:57Z</time>
      </trkpt>
      <trkpt lat="46.01085" lon="6.85497">
        <ele>2520</ele>
        <time>2022-07-15T11:38:00Z</time>
      </trkpt>
      <trkpt lat="46.01085" lon="6.85504">
        <ele>2520</ele>
        <time>2022-07-15T11:38:04Z</time>
      </trkpt>
      <trkpt lat="46.01087" lon="6.85511">
        <ele>2519</ele>
        <time>2022-07-15T11:38:09Z</time>
      </trkpt>
      <trkpt lat="46.01084" lon="6.85524">
        <ele>2518</ele>
        <time>2022-07-15T11:38:16Z</time>
      </trkpt>
      <trkpt lat="46.01085" lon="6.85538">
        <ele>2516</ele>
        <time>2022-07-15T11:38:25Z</time>
      </trkpt>
      <trkpt lat="46.01082" lon="6.8555">
        <ele>2515</ele>
        <time>2022-07-15T11:38:32Z</time>
      </trkpt>
      <trkpt lat="46.01082" lon="6.85564">
        <ele>2515</ele>
        <time>2022-07-15T11:38:41Z</time>
      </trkpt>
      <trkpt lat="46.01072" lon="6.85582">
        <ele>2511</ele>
        <time>2022-07-15T11:38:58Z</time>
      </trkpt>
      <trkpt lat="46.01074" lon="6.85588">
        <ele>2510</ele>
        <time>2022-07-15T11:39:02Z</time>
      </trkpt>
      <trkpt lat="46.01069" lon="6.85593">
        <ele>2508</ele>
        <time>2022-07-15T11:39:10Z</time>
      </trkpt>
      <trkpt lat="46.01064" lon="6.85599">
        <ele>2506</ele>
        <time>2022-07-15T11:39:17Z</time>
      </trkpt>
      <trkpt lat="46.01059" lon="6.85602">
        <ele>2504</ele>
        <time>2022-07-15T11:39:23Z</time>
      </trkpt>
      <trkpt lat="46.01054" lon="6.85602">
        <ele>2503</ele>
        <time>2022-07-15T11:39:27Z</time>
      </trkpt>
      <trkpt lat="46.0105" lon="6.85601">
        <ele>2503</ele>
        <time>2022-07-15T11:39:30Z</time>
      </trkpt>
      <trkpt lat="46.01046" lon="6.85603">
        <ele>2503</ele>
        <time>2022-07-15T11:39:34Z</time>
      </trkpt>
      <trkpt lat="46.01038" lon="6.85603">
        <ele>2504</ele>
        <time>2022-07-15T11:39:41Z</time>
      </trkpt>
      <trkpt lat="46.01034" lon="6.85602">
        <ele>2504</ele>
        <time>2022-07-15T11:39:44Z</time>
      </trkpt>
      <trkpt lat="46.0103" lon="6.85606">
        <ele>2503</ele>
        <time>2022-07-15T11:39:49Z</time>
      </trkpt>
      <trkpt lat="46.01024" lon="6.85607">
        <ele>2502</ele>
        <time>2022-07-15T11:39:56Z</time>
      </trkpt>
      <trkpt lat="46.0102" lon="6.85604">
        <ele>2501</ele>
        <time>2022-07-15T11:40:00Z</time>
      </trkpt>
      <trkpt lat="46.01015" lon="6.85603">
        <ele>2500</ele>
        <time>2022-07-15T11:40:04Z</time>
      </trkpt>
      <trkpt lat="46.01011" lon="6.85604">
        <ele>2500</ele>
        <time>2022-07-15T11:40:08Z</time>
      </trkpt>
      <trkpt lat="46.01006" lon="6.85606">
        <ele>2500</ele>
        <time>2022-07-15T11:40:12Z</time>
      </trkpt>
      <trkpt lat="46.01003" lon="6.85609">
        <ele>2498</ele>
        <time>2022-07-15T11:40:16Z</time>
      </trkpt>
      <trkpt lat="46.00998" lon="6.85608">
        <ele>2497</ele>
        <time>2022-07-15T11:40:19Z</time>
      </trkpt>
      <trkpt lat="46.00994" lon="6.8561">
        <ele>2496</ele>
        <time>2022-07-15T11:40:25Z</time>
      </trkpt>
      <trkpt lat="46.00982" lon="6.85611">
        <ele>2494</ele>
        <time>2022-07-15T11:40:37Z</time>
      </trkpt>
      <trkpt lat="46.00975" lon="6.85606">
        <ele>2492</ele>
        <time>2022-07-15T11:40:44Z</time>
      </trkpt>
      <trkpt lat="46.00966" lon="6.85607">
        <ele>2491</ele>
        <time>2022-07-15T11:40:52Z</time>
      </trkpt>
      <trkpt lat="46.00961" lon="6.85605">
        <ele>2491</ele>
        <time>2022-07-15T11:40:56Z</time>
      </trkpt>
      <trkpt lat="46.00951" lon="6.85609">
        <ele>2490</ele>
        <time>2022-07-15T11:41:09Z</time>
      </trkpt>
      <trkpt lat="46.00946" lon="6.85611">
        <ele>2490</ele>
        <time>2022-07-15T11:41:14Z</time>
      </trkpt>
      <trkpt lat="46.00941" lon="6.85618">
        <ele>2490</ele>
        <time>2022-07-15T11:41:22Z</time>
      </trkpt>
      <trkpt lat="46.00935" lon="6.85617">
        <ele>2490</ele>
        <time>2022-07-15T11:41:29Z</time>
      </trkpt>
      <trkpt lat="46.00931" lon="6.85617">
        <ele>2491</ele>
        <time>2022-07-15T11:41:34Z</time>
      </trkpt>
      <trkpt lat="46.00922" lon="6.85615">
        <ele>2492</ele>
        <time>2022-07-15T11:41:41Z</time>
      </trkpt>
      <trkpt lat="46.00916" lon="6.85615">
        <ele>2490</ele>
        <time>2022-07-15T11:41:48Z</time>
      </trkpt>
      <trkpt lat="46.00914" lon="6.85622">
        <ele>2490</ele>
        <time>2022-07-15T11:41:51Z</time>
      </trkpt>
      <trkpt lat="46.00911" lon="6.85628">
        <ele>2490</ele>
        <time>2022-07-15T11:41:55Z</time>
      </trkpt>
      <trkpt lat="46.00907" lon="6.8563">
        <ele>2490</ele>
        <time>2022-07-15T11:41:59Z</time>
      </trkpt>
      <trkpt lat="46.00899" lon="6.85632">
        <ele>2490</ele>
        <time>2022-07-15T11:42:11Z</time>
      </trkpt>
      <trkpt lat="46.00891" lon="6.85631">
        <ele>2491</ele>
        <time>2022-07-15T11:42:19Z</time>
      </trkpt>
      <trkpt lat="46.00885" lon="6.85631">
        <ele>2490</ele>
        <time>2022-07-15T11:42:28Z</time>
      </trkpt>
      <trkpt lat="46.00873" lon="6.85616">
        <ele>2492</ele>
        <time>2022-07-15T11:42:45Z</time>
      </trkpt>
      <trkpt lat="46.00867" lon="6.85615">
        <ele>2493</ele>
        <time>2022-07-15T11:42:52Z</time>
      </trkpt>
      <trkpt lat="46.00863" lon="6.85617">
        <ele>2494</ele>
        <time>2022-07-15T11:43:00Z</time>
      </trkpt>
      <trkpt lat="46.00855" lon="6.85613">
        <ele>2495</ele>
        <time>2022-07-15T11:43:10Z</time>
      </trkpt>
      <trkpt lat="46.00847" lon="6.8561">
        <ele>2494</ele>
        <time>2022-07-15T11:43:19Z</time>
      </trkpt>
      <trkpt lat="46.00843" lon="6.85609">
        <ele>2494</ele>
        <time>2022-07-15T11:43:25Z</time>
      </trkpt>
      <trkpt lat="46.0084" lon="6.85603">
        <ele>2495</ele>
        <time>2022-07-15T11:43:30Z</time>
      </trkpt>
      <trkpt lat="46.00837" lon="6.85601">
        <ele>2496</ele>
        <time>2022-07-15T11:43:38Z</time>
      </trkpt>
      <trkpt lat="46.0082" lon="6.85597">
        <ele>2500</ele>
        <time>2022-07-15T11:44:01Z</time>
      </trkpt>
      <trkpt lat="46.00816" lon="6.85596">
        <ele>2500</ele>
        <time>2022-07-15T11:44:05Z</time>
      </trkpt>
      <trkpt lat="46.00814" lon="6.8559">
        <ele>2501</ele>
        <time>2022-07-15T11:44:13Z</time>
      </trkpt>
      <trkpt lat="46.00806" lon="6.85586">
        <ele>2502</ele>
        <time>2022-07-15T11:44:23Z</time>
      </trkpt>
      <trkpt lat="46.00797" lon="6.8557">
        <ele>2505</ele>
        <time>2022-07-15T11:44:46Z</time>
      </trkpt>
      <trkpt lat="46.00791" lon="6.85568">
        <ele>2505</ele>
        <time>2022-07-15T11:44:51Z</time>
      </trkpt>
      <trkpt lat="46.00784" lon="6.85561">
        <ele>2506</ele>
        <time>2022-07-15T11:45:01Z</time>
      </trkpt>
      <trkpt lat="46.00784" lon="6.85553">
        <ele>2508</ele>
        <time>2022-07-15T11:45:12Z</time>
      </trkpt>
      <trkpt lat="46.00781" lon="6.85547">
        <ele>2510</ele>
        <time>2022-07-15T11:45:24Z</time>
      </trkpt>
      <trkpt lat="46.00778" lon="6.85538">
        <ele>2511</ele>
        <time>2022-07-15T11:45:36Z</time>
      </trkpt>
      <trkpt lat="46.00778" lon="6.85532">
        <ele>2513</ele>
        <time>2022-07-15T11:45:46Z</time>
      </trkpt>
      <trkpt lat="46.00771" lon="6.85523">
        <ele>2515</ele>
        <time>2022-07-15T11:45:54Z</time>
      </trkpt>
      <trkpt lat="46.00766" lon="6.8552">
        <ele>2515</ele>
        <time>2022-07-15T11:46:01Z</time>
      </trkpt>
      <trkpt lat="46.00761" lon="6.85517">
        <ele>2516</ele>
        <time>2022-07-15T11:46:05Z</time>
      </trkpt>
      <trkpt lat="46.00747" lon="6.85518">
        <ele>2518</ele>
        <time>2022-07-15T11:46:22Z</time>
      </trkpt>
      <trkpt lat="46.00741" lon="6.85523">
        <ele>2520</ele>
        <time>2022-07-15T11:46:32Z</time>
      </trkpt>
      <trkpt lat="46.00737" lon="6.85531">
        <ele>2521</ele>
        <time>2022-07-15T11:46:42Z</time>
      </trkpt>
      <trkpt lat="46.00734" lon="6.85535">
        <ele>2522</ele>
        <time>2022-07-15T11:46:50Z</time>
      </trkpt>
      <trkpt lat="46.00729" lon="6.85535">
        <ele>2524</ele>
        <time>2022-07-15T11:47:01Z</time>
      </trkpt>
      <trkpt lat="46.00723" lon="6.85534">
        <ele>2528</ele>
        <time>2022-07-15T11:47:11Z</time>
      </trkpt>
      <trkpt lat="46.0072" lon="6.8553">
        <ele>2528</ele>
        <time>2022-07-15T11:47:16Z</time>
      </trkpt>
      <trkpt lat="46.00716" lon="6.85526">
        <ele>2527</ele>
        <time>2022-07-15T11:47:21Z</time>
      </trkpt>
      <trkpt lat="46.00712" lon="6.85528">
        <ele>2526</ele>
        <time>2022-07-15T11:47:29Z</time>
      </trkpt>
      <trkpt lat="46.00711" lon="6.8553">
        <ele>2521</ele>
        <time>2022-07-15T11:51:28Z</time>
      </trkpt>
      <trkpt lat="46.00716" lon="6.85522">
        <ele>2521</ele>
        <time>2022-07-15T11:57:00Z</time>
      </trkpt>
      <trkpt lat="46.00716" lon="6.85514">
        <ele>2519</ele>
        <time>2022-07-15T11:57:07Z</time>
      </trkpt>
      <trkpt lat="46.00712" lon="6.85511">
        <ele>2518</ele>
        <time>2022-07-15T11:57:11Z</time>
      </trkpt>
      <trkpt lat="46.00708" lon="6.85505">
        <ele>2515</ele>
        <time>2022-07-15T11:57:18Z</time>
      </trkpt>
      <trkpt lat="46.00707" lon="6.85498">
        <ele>2513</ele>
        <time>2022-07-15T11:57:26Z</time>
      </trkpt>
      <trkpt lat="46.00703" lon="6.85492">
        <ele>2511</ele>
        <time>2022-07-15T11:57:30Z</time>
      </trkpt>
      <trkpt lat="46.00703" lon="6.85485">
        <ele>2507</ele>
        <time>2022-07-15T11:57:38Z</time>
      </trkpt>
      <trkpt lat="46.00702" lon="6.85469">
        <ele>2504</ele>
        <time>2022-07-15T11:57:54Z</time>
      </trkpt>
      <trkpt lat="46.007" lon="6.85462">
        <ele>2500</ele>
        <time>2022-07-15T11:58:05Z</time>
      </trkpt>
      <trkpt lat="46.00696" lon="6.85457">
        <ele>2499</ele>
        <time>2022-07-15T11:58:09Z</time>
      </trkpt>
      <trkpt lat="46.00689" lon="6.85439">
        <ele>2492</ele>
        <time>2022-07-15T11:58:30Z</time>
      </trkpt>
      <trkpt lat="46.00692" lon="6.85433">
        <ele>2490</ele>
        <time>2022-07-15T11:58:37Z</time>
      </trkpt>
      <trkpt lat="46.00686" lon="6.8543">
        <ele>2487</ele>
        <time>2022-07-15T11:58:42Z</time>
      </trkpt>
      <trkpt lat="46.00685" lon="6.85422">
        <ele>2484</ele>
        <time>2022-07-15T11:58:55Z</time>
      </trkpt>
      <trkpt lat="46.00688" lon="6.85394">
        <ele>2477</ele>
        <time>2022-07-15T11:59:30Z</time>
      </trkpt>
      <trkpt lat="46.00686" lon="6.85387">
        <ele>2475</ele>
        <time>2022-07-15T11:59:40Z</time>
      </trkpt>
      <trkpt lat="46.00686" lon="6.8538">
        <ele>2474</ele>
        <time>2022-07-15T11:59:50Z</time>
      </trkpt>
      <trkpt lat="46.00684" lon="6.85374">
        <ele>2473</ele>
        <time>2022-07-15T11:59:55Z</time>
      </trkpt>
      <trkpt lat="46.00683" lon="6.85366">
        <ele>2471</ele>
        <time>2022-07-15T12:00:07Z</time>
      </trkpt>
      <trkpt lat="46.00685" lon="6.85359">
        <ele>2470</ele>
        <time>2022-07-15T12:00:13Z</time>
      </trkpt>
      <trkpt lat="46.00683" lon="6.85347">
        <ele>2467</ele>
        <time>2022-07-15T12:00:26Z</time>
      </trkpt>
      <trkpt lat="46.00679" lon="6.85337">
        <ele>2464</ele>
        <time>2022-07-15T12:00:37Z</time>
      </trkpt>
      <trkpt lat="46.00682" lon="6.85327">
        <ele>2461</ele>
        <time>2022-07-15T12:00:47Z</time>
      </trkpt>
      <trkpt lat="46.0068" lon="6.85319">
        <ele>2460</ele>
        <time>2022-07-15T12:00:52Z</time>
      </trkpt>
      <trkpt lat="46.00678" lon="6.85314">
        <ele>2459</ele>
        <time>2022-07-15T12:00:57Z</time>
      </trkpt>
      <trkpt lat="46.00676" lon="6.85291">
        <ele>2455</ele>
        <time>2022-07-15T12:01:16Z</time>
      </trkpt>
      <trkpt lat="46.00677" lon="6.85281">
        <ele>2453</ele>
        <time>2022-07-15T12:01:26Z</time>
      </trkpt>
      <trkpt lat="46.00673" lon="6.85278">
        <ele>2451</ele>
        <time>2022-07-15T12:01:30Z</time>
      </trkpt>
      <trkpt lat="46.00672" lon="6.85266">
        <ele>2448</ele>
        <time>2022-07-15T12:01:40Z</time>
      </trkpt>
      <trkpt lat="46.00675" lon="6.85258">
        <ele>2445</ele>
        <time>2022-07-15T12:01:51Z</time>
      </trkpt>
      <trkpt lat="46.00669" lon="6.85243">
        <ele>2440</ele>
        <time>2022-07-15T12:02:05Z</time>
      </trkpt>
      <trkpt lat="46.00666" lon="6.85239">
        <ele>2439</ele>
        <time>2022-07-15T12:02:08Z</time>
      </trkpt>
      <trkpt lat="46.00661" lon="6.8524">
        <ele>2438</ele>
        <time>2022-07-15T12:02:12Z</time>
      </trkpt>
      <trkpt lat="46.00662" lon="6.85231">
        <ele>2436</ele>
        <time>2022-07-15T12:02:19Z</time>
      </trkpt>
      <trkpt lat="46.00662" lon="6.8521">
        <ele>2430</ele>
        <time>2022-07-15T12:02:36Z</time>
      </trkpt>
      <trkpt lat="46.00658" lon="6.85203">
        <ele>2427</ele>
        <time>2022-07-15T12:02:45Z</time>
      </trkpt>
      <trkpt lat="46.00657" lon="6.85195">
        <ele>2424</ele>
        <time>2022-07-15T12:02:54Z</time>
      </trkpt>
      <trkpt lat="46.00653" lon="6.85185">
        <ele>2420</ele>
        <time>2022-07-15T12:03:05Z</time>
      </trkpt>
      <trkpt lat="46.00655" lon="6.85178">
        <ele>2418</ele>
        <time>2022-07-15T12:03:12Z</time>
      </trkpt>
      <trkpt lat="46.00657" lon="6.85161">
        <ele>2415</ele>
        <time>2022-07-15T12:03:24Z</time>
      </trkpt>
      <trkpt lat="46.0066" lon="6.85151">
        <ele>2412</ele>
        <time>2022-07-15T12:03:32Z</time>
      </trkpt>
      <trkpt lat="46.00659" lon="6.85144">
        <ele>2411</ele>
        <time>2022-07-15T12:03:37Z</time>
      </trkpt>
      <trkpt lat="46.00656" lon="6.85138">
        <ele>2410</ele>
        <time>2022-07-15T12:03:40Z</time>
      </trkpt>
      <trkpt lat="46.0065" lon="6.85135">
        <ele>2409</ele>
        <time>2022-07-15T12:03:43Z</time>
      </trkpt>
      <trkpt lat="46.00651" lon="6.85127">
        <ele>2406</ele>
        <time>2022-07-15T12:03:51Z</time>
      </trkpt>
      <trkpt lat="46.00646" lon="6.85125">
        <ele>2406</ele>
        <time>2022-07-15T12:03:53Z</time>
      </trkpt>
      <trkpt lat="46.00645" lon="6.85113">
        <ele>2400</ele>
        <time>2022-07-15T12:04:11Z</time>
      </trkpt>
      <trkpt lat="46.00638" lon="6.85111">
        <ele>2398</ele>
        <time>2022-07-15T12:04:15Z</time>
      </trkpt>
      <trkpt lat="46.00642" lon="6.851">
        <ele>2395</ele>
        <time>2022-07-15T12:04:27Z</time>
      </trkpt>
      <trkpt lat="46.00641" lon="6.85094">
        <ele>2393</ele>
        <time>2022-07-15T12:04:32Z</time>
      </trkpt>
      <trkpt lat="46.00631" lon="6.8508">
        <ele>2389</ele>
        <time>2022-07-15T12:04:47Z</time>
      </trkpt>
      <trkpt lat="46.0063" lon="6.85063">
        <ele>2385</ele>
        <time>2022-07-15T12:04:59Z</time>
      </trkpt>
      <trkpt lat="46.00633" lon="6.85058">
        <ele>2384</ele>
        <time>2022-07-15T12:05:04Z</time>
      </trkpt>
      <trkpt lat="46.00632" lon="6.85051">
        <ele>2382</ele>
        <time>2022-07-15T12:05:09Z</time>
      </trkpt>
      <trkpt lat="46.00635" lon="6.85046">
        <ele>2381</ele>
        <time>2022-07-15T12:05:13Z</time>
      </trkpt>
      <trkpt lat="46.00644" lon="6.85035">
        <ele>2378</ele>
        <time>2022-07-15T12:05:25Z</time>
      </trkpt>
      <trkpt lat="46.00647" lon="6.85026">
        <ele>2376</ele>
        <time>2022-07-15T12:05:33Z</time>
      </trkpt>
      <trkpt lat="46.00644" lon="6.85012">
        <ele>2375</ele>
        <time>2022-07-15T12:05:42Z</time>
      </trkpt>
      <trkpt lat="46.00641" lon="6.85005">
        <ele>2374</ele>
        <time>2022-07-15T12:05:46Z</time>
      </trkpt>
      <trkpt lat="46.00636" lon="6.85">
        <ele>2374</ele>
        <time>2022-07-15T12:05:51Z</time>
      </trkpt>
      <trkpt lat="46.00639" lon="6.8498">
        <ele>2371</ele>
        <time>2022-07-15T12:06:06Z</time>
      </trkpt>
      <trkpt lat="46.00642" lon="6.84969">
        <ele>2370</ele>
        <time>2022-07-15T12:06:14Z</time>
      </trkpt>
      <trkpt lat="46.00637" lon="6.84955">
        <ele>2368</ele>
        <time>2022-07-15T12:06:24Z</time>
      </trkpt>
      <trkpt lat="46.0064" lon="6.84941">
        <ele>2366</ele>
        <time>2022-07-15T12:06:33Z</time>
      </trkpt>
      <trkpt lat="46.00638" lon="6.84934">
        <ele>2366</ele>
        <time>2022-07-15T12:06:37Z</time>
      </trkpt>
      <trkpt lat="46.00642" lon="6.84928">
        <ele>2366</ele>
        <time>2022-07-15T12:06:42Z</time>
      </trkpt>
      <trkpt lat="46.00641" lon="6.84921">
        <ele>2365</ele>
        <time>2022-07-15T12:06:46Z</time>
      </trkpt>
      <trkpt lat="46.00643" lon="6.84905">
        <ele>2363</ele>
        <time>2022-07-15T12:06:58Z</time>
      </trkpt>
      <trkpt lat="46.00641" lon="6.84893">
        <ele>2362</ele>
        <time>2022-07-15T12:07:05Z</time>
      </trkpt>
      <trkpt lat="46.00644" lon="6.84885">
        <ele>2361</ele>
        <time>2022-07-15T12:07:12Z</time>
      </trkpt>
      <trkpt lat="46.00643" lon="6.84866">
        <ele>2359</ele>
        <time>2022-07-15T12:07:23Z</time>
      </trkpt>
      <trkpt lat="46.00636" lon="6.84857">
        <ele>2358</ele>
        <time>2022-07-15T12:07:27Z</time>
      </trkpt>
      <trkpt lat="46.00633" lon="6.84842">
        <ele>2355</ele>
        <time>2022-07-15T12:07:39Z</time>
      </trkpt>
      <trkpt lat="46.00631" lon="6.84833">
        <ele>2353</ele>
        <time>2022-07-15T12:07:46Z</time>
      </trkpt>
      <trkpt lat="46.00632" lon="6.84825">
        <ele>2351</ele>
        <time>2022-07-15T12:07:53Z</time>
      </trkpt>
      <trkpt lat="46.0064" lon="6.84789">
        <ele>2348</ele>
        <time>2022-07-15T12:08:18Z</time>
      </trkpt>
      <trkpt lat="46.00637" lon="6.8478">
        <ele>2346</ele>
        <time>2022-07-15T12:08:24Z</time>
      </trkpt>
      <trkpt lat="46.00639" lon="6.84773">
        <ele>2345</ele>
        <time>2022-07-15T12:08:30Z</time>
      </trkpt>
      <trkpt lat="46.00635" lon="6.84767">
        <ele>2345</ele>
        <time>2022-07-15T12:08:33Z</time>
      </trkpt>
      <trkpt lat="46.00633" lon="6.84761">
        <ele>2344</ele>
        <time>2022-07-15T12:08:36Z</time>
      </trkpt>
      <trkpt lat="46.00632" lon="6.84751">
        <ele>2343</ele>
        <time>2022-07-15T12:08:41Z</time>
      </trkpt>
      <trkpt lat="46.00634" lon="6.84734">
        <ele>2342</ele>
        <time>2022-07-15T12:08:56Z</time>
      </trkpt>
      <trkpt lat="46.00638" lon="6.84728">
        <ele>2341</ele>
        <time>2022-07-15T12:09:00Z</time>
      </trkpt>
      <trkpt lat="46.0064" lon="6.84691">
        <ele>2332</ele>
        <time>2022-07-15T12:09:35Z</time>
      </trkpt>
      <trkpt lat="46.00638" lon="6.84685">
        <ele>2331</ele>
        <time>2022-07-15T12:09:40Z</time>
      </trkpt>
      <trkpt lat="46.00637" lon="6.84674">
        <ele>2329</ele>
        <time>2022-07-15T12:09:49Z</time>
      </trkpt>
      <trkpt lat="46.00637" lon="6.84665">
        <ele>2326</ele>
        <time>2022-07-15T12:09:58Z</time>
      </trkpt>
      <trkpt lat="46.00642" lon="6.84652">
        <ele>2323</ele>
        <time>2022-07-15T12:10:08Z</time>
      </trkpt>
      <trkpt lat="46.0064" lon="6.84646">
        <ele>2321</ele>
        <time>2022-07-15T12:10:15Z</time>
      </trkpt>
      <trkpt lat="46.00638" lon="6.8464">
        <ele>2320</ele>
        <time>2022-07-15T12:10:19Z</time>
      </trkpt>
      <trkpt lat="46.00638" lon="6.84624">
        <ele>2315</ele>
        <time>2022-07-15T12:10:32Z</time>
      </trkpt>
      <trkpt lat="46.00636" lon="6.84606">
        <ele>2314</ele>
        <time>2022-07-15T12:10:42Z</time>
      </trkpt>
      <trkpt lat="46.00638" lon="6.84601">
        <ele>2313</ele>
        <time>2022-07-15T12:10:47Z</time>
      </trkpt>
      <trkpt lat="46.00645" lon="6.84601">
        <ele>2311</ele>
        <time>2022-07-15T12:10:56Z</time>
      </trkpt>
      <trkpt lat="46.00649" lon="6.84606">
        <ele>2311</ele>
        <time>2022-07-15T12:11:01Z</time>
      </trkpt>
      <trkpt lat="46.00653" lon="6.84606">
        <ele>2311</ele>
        <time>2022-07-15T12:11:06Z</time>
      </trkpt>
      <trkpt lat="46.00658" lon="6.84601">
        <ele>2311</ele>
        <time>2022-07-15T12:11:09Z</time>
      </trkpt>
      <trkpt lat="46.00666" lon="6.84582">
        <ele>2307</ele>
        <time>2022-07-15T12:11:26Z</time>
      </trkpt>
      <trkpt lat="46.00675" lon="6.84579">
        <ele>2305</ele>
        <time>2022-07-15T12:11:38Z</time>
      </trkpt>
      <trkpt lat="46.0068" lon="6.84575">
        <ele>2303</ele>
        <time>2022-07-15T12:11:44Z</time>
      </trkpt>
      <trkpt lat="46.00693" lon="6.84572">
        <ele>2301</ele>
        <time>2022-07-15T12:11:55Z</time>
      </trkpt>
      <trkpt lat="46.00702" lon="6.84565">
        <ele>2300</ele>
        <time>2022-07-15T12:12:05Z</time>
      </trkpt>
      <trkpt lat="46.00707" lon="6.84564">
        <ele>2299</ele>
        <time>2022-07-15T12:12:09Z</time>
      </trkpt>
      <trkpt lat="46.00711" lon="6.84567">
        <ele>2298</ele>
        <time>2022-07-15T12:12:13Z</time>
      </trkpt>
      <trkpt lat="46.00721" lon="6.84568">
        <ele>2297</ele>
        <time>2022-07-15T12:12:21Z</time>
      </trkpt>
      <trkpt lat="46.00727" lon="6.84567">
        <ele>2297</ele>
        <time>2022-07-15T12:12:26Z</time>
      </trkpt>
      <trkpt lat="46.0073" lon="6.84563">
        <ele>2296</ele>
        <time>2022-07-15T12:12:31Z</time>
      </trkpt>
      <trkpt lat="46.00726" lon="6.84557">
        <ele>2295</ele>
        <time>2022-07-15T12:12:36Z</time>
      </trkpt>
      <trkpt lat="46.00721" lon="6.84546">
        <ele>2293</ele>
        <time>2022-07-15T12:12:43Z</time>
      </trkpt>
      <trkpt lat="46.00718" lon="6.84536">
        <ele>2290</ele>
        <time>2022-07-15T12:12:54Z</time>
      </trkpt>
      <trkpt lat="46.00714" lon="6.84532">
        <ele>2288</ele>
        <time>2022-07-15T12:13:01Z</time>
      </trkpt>
      <trkpt lat="46.00709" lon="6.8451">
        <ele>2283</ele>
        <time>2022-07-15T12:13:22Z</time>
      </trkpt>
      <trkpt lat="46.00713" lon="6.84504">
        <ele>2281</ele>
        <time>2022-07-15T12:13:31Z</time>
      </trkpt>
      <trkpt lat="46.00717" lon="6.84502">
        <ele>2280</ele>
        <time>2022-07-15T12:13:36Z</time>
      </trkpt>
      <trkpt lat="46.0071" lon="6.84488">
        <ele>2274</ele>
        <time>2022-07-15T12:13:55Z</time>
      </trkpt>
      <trkpt lat="46.00715" lon="6.84481">
        <ele>2270</ele>
        <time>2022-07-15T12:14:10Z</time>
      </trkpt>
      <trkpt lat="46.00711" lon="6.84476">
        <ele>2268</ele>
        <time>2022-07-15T12:14:18Z</time>
      </trkpt>
      <trkpt lat="46.00713" lon="6.8447">
        <ele>2265</ele>
        <time>2022-07-15T12:14:30Z</time>
      </trkpt>
      <trkpt lat="46.00718" lon="6.84468">
        <ele>2262</ele>
        <time>2022-07-15T12:17:26Z</time>
      </trkpt>
      <trkpt lat="46.00719" lon="6.8446">
        <ele>2259</ele>
        <time>2022-07-15T12:18:46Z</time>
      </trkpt>
      <trkpt lat="46.00715" lon="6.84456">
        <ele>2258</ele>
        <time>2022-07-15T12:18:51Z</time>
      </trkpt>
      <trkpt lat="46.0071" lon="6.84448">
        <ele>2256</ele>
        <time>2022-07-15T12:18:59Z</time>
      </trkpt>
      <trkpt lat="46.00716" lon="6.84443">
        <ele>2252</ele>
        <time>2022-07-15T12:19:12Z</time>
      </trkpt>
      <trkpt lat="46.00707" lon="6.84433">
        <ele>2249</ele>
        <time>2022-07-15T12:19:24Z</time>
      </trkpt>
      <trkpt lat="46.00702" lon="6.84427">
        <ele>2247</ele>
        <time>2022-07-15T12:19:33Z</time>
      </trkpt>
      <trkpt lat="46.00708" lon="6.84425">
        <ele>2245</ele>
        <time>2022-07-15T12:19:41Z</time>
      </trkpt>
      <trkpt lat="46.00713" lon="6.84426">
        <ele>2244</ele>
        <time>2022-07-15T12:19:45Z</time>
      </trkpt>
      <trkpt lat="46.00717" lon="6.84422">
        <ele>2243</ele>
        <time>2022-07-15T12:19:49Z</time>
      </trkpt>
      <trkpt lat="46.00722" lon="6.84418">
        <ele>2241</ele>
        <time>2022-07-15T12:19:57Z</time>
      </trkpt>
      <trkpt lat="46.00721" lon="6.84407">
        <ele>2237</ele>
        <time>2022-07-15T12:20:07Z</time>
      </trkpt>
      <trkpt lat="46.00726" lon="6.84404">
        <ele>2236</ele>
        <time>2022-07-15T12:20:13Z</time>
      </trkpt>
      <trkpt lat="46.00729" lon="6.84398">
        <ele>2234</ele>
        <time>2022-07-15T12:20:18Z</time>
      </trkpt>
      <trkpt lat="46.00734" lon="6.84395">
        <ele>2233</ele>
        <time>2022-07-15T12:20:25Z</time>
      </trkpt>
      <trkpt lat="46.00724" lon="6.8438">
        <ele>2229</ele>
        <time>2022-07-15T12:20:40Z</time>
      </trkpt>
      <trkpt lat="46.0071" lon="6.84374">
        <ele>2225</ele>
        <time>2022-07-15T12:20:58Z</time>
      </trkpt>
      <trkpt lat="46.00689" lon="6.84365">
        <ele>2218</ele>
        <time>2022-07-15T12:21:23Z</time>
      </trkpt>
      <trkpt lat="46.00682" lon="6.84355">
        <ele>2216</ele>
        <time>2022-07-15T12:21:35Z</time>
      </trkpt>
      <trkpt lat="46.00677" lon="6.84347">
        <ele>2213</ele>
        <time>2022-07-15T12:21:45Z</time>
      </trkpt>
      <trkpt lat="46.00658" lon="6.84336">
        <ele>2203</ele>
        <time>2022-07-15T12:22:16Z</time>
      </trkpt>
      <trkpt lat="46.00653" lon="6.84339">
        <ele>2201</ele>
        <time>2022-07-15T12:22:24Z</time>
      </trkpt>
      <trkpt lat="46.00649" lon="6.84341">
        <ele>2199</ele>
        <time>2022-07-15T12:22:29Z</time>
      </trkpt>
      <trkpt lat="46.00653" lon="6.84332">
        <ele>2196</ele>
        <time>2022-07-15T12:22:39Z</time>
      </trkpt>
      <trkpt lat="46.00649" lon="6.84324">
        <ele>2194</ele>
        <time>2022-07-15T12:22:46Z</time>
      </trkpt>
      <trkpt lat="46.00651" lon="6.84313">
        <ele>2192</ele>
        <time>2022-07-15T12:22:56Z</time>
      </trkpt>
      <trkpt lat="46.00652" lon="6.84304">
        <ele>2191</ele>
        <time>2022-07-15T12:23:00Z</time>
      </trkpt>
      <trkpt lat="46.00658" lon="6.84295">
        <ele>2190</ele>
        <time>2022-07-15T12:23:07Z</time>
      </trkpt>
      <trkpt lat="46.00662" lon="6.84295">
        <ele>2189</ele>
        <time>2022-07-15T12:23:12Z</time>
      </trkpt>
      <trkpt lat="46.00668" lon="6.84292">
        <ele>2186</ele>
        <time>2022-07-15T12:23:21Z</time>
      </trkpt>
      <trkpt lat="46.00672" lon="6.84283">
        <ele>2183</ele>
        <time>2022-07-15T12:23:31Z</time>
      </trkpt>
      <trkpt lat="46.0068" lon="6.84276">
        <ele>2181</ele>
        <time>2022-07-15T12:23:39Z</time>
      </trkpt>
      <trkpt lat="46.00687" lon="6.84272">
        <ele>2179</ele>
        <time>2022-07-15T12:23:46Z</time>
      </trkpt>
      <trkpt lat="46.00692" lon="6.84267">
        <ele>2179</ele>
        <time>2022-07-15T12:23:52Z</time>
      </trkpt>
      <trkpt lat="46.00696" lon="6.8426">
        <ele>2177</ele>
        <time>2022-07-15T12:23:58Z</time>
      </trkpt>
      <trkpt lat="46.00695" lon="6.84246">
        <ele>2176</ele>
        <time>2022-07-15T12:24:06Z</time>
      </trkpt>
      <trkpt lat="46.00691" lon="6.8424">
        <ele>2175</ele>
        <time>2022-07-15T12:24:10Z</time>
      </trkpt>
      <trkpt lat="46.00687" lon="6.84229">
        <ele>2174</ele>
        <time>2022-07-15T12:24:18Z</time>
      </trkpt>
      <trkpt lat="46.00677" lon="6.84209">
        <ele>2171</ele>
        <time>2022-07-15T12:24:35Z</time>
      </trkpt>
      <trkpt lat="46.00671" lon="6.84187">
        <ele>2167</ele>
        <time>2022-07-15T12:24:53Z</time>
      </trkpt>
      <trkpt lat="46.00666" lon="6.84182">
        <ele>2166</ele>
        <time>2022-07-15T12:24:57Z</time>
      </trkpt>
      <trkpt lat="46.00657" lon="6.84162">
        <ele>2163</ele>
        <time>2022-07-15T12:25:13Z</time>
      </trkpt>
      <trkpt lat="46.00652" lon="6.84155">
        <ele>2163</ele>
        <time>2022-07-15T12:25:19Z</time>
      </trkpt>
      <trkpt lat="46.00648" lon="6.84146">
        <ele>2160</ele>
        <time>2022-07-15T12:25:29Z</time>
      </trkpt>
      <trkpt lat="46.00648" lon="6.84133">
        <ele>2157</ele>
        <time>2022-07-15T12:25:40Z</time>
      </trkpt>
      <trkpt lat="46.00646" lon="6.84128">
        <ele>2155</ele>
        <time>2022-07-15T12:25:49Z</time>
      </trkpt>
      <trkpt lat="46.00646" lon="6.84119">
        <ele>2151</ele>
        <time>2022-07-15T12:26:00Z</time>
      </trkpt>
      <trkpt lat="46.00641" lon="6.84118">
        <ele>2150</ele>
        <time>2022-07-15T12:26:04Z</time>
      </trkpt>
      <trkpt lat="46.00635" lon="6.84114">
        <ele>2148</ele>
        <time>2022-07-15T12:26:11Z</time>
      </trkpt>
      <trkpt lat="46.00629" lon="6.84104">
        <ele>2145</ele>
        <time>2022-07-15T12:26:20Z</time>
      </trkpt>
      <trkpt lat="46.00623" lon="6.84104">
        <ele>2143</ele>
        <time>2022-07-15T12:26:32Z</time>
      </trkpt>
      <trkpt lat="46.00617" lon="6.84094">
        <ele>2141</ele>
        <time>2022-07-15T12:28:05Z</time>
      </trkpt>
      <trkpt lat="46.00606" lon="6.84082">
        <ele>2137</ele>
        <time>2022-07-15T12:28:22Z</time>
      </trkpt>
      <trkpt lat="46.00601" lon="6.84082">
        <ele>2137</ele>
        <time>2022-07-15T12:28:26Z</time>
      </trkpt>
      <trkpt lat="46.00581" lon="6.84068">
        <ele>2131</ele>
        <time>2022-07-15T12:28:49Z</time>
      </trkpt>
      <trkpt lat="46.00578" lon="6.84062">
        <ele>2129</ele>
        <time>2022-07-15T12:28:54Z</time>
      </trkpt>
      <trkpt lat="46.00577" lon="6.84053">
        <ele>2127</ele>
        <time>2022-07-15T12:29:00Z</time>
      </trkpt>
      <trkpt lat="46.00573" lon="6.84048">
        <ele>2127</ele>
        <time>2022-07-15T12:29:04Z</time>
      </trkpt>
      <trkpt lat="46.00566" lon="6.84045">
        <ele>2124</ele>
        <time>2022-07-15T12:29:12Z</time>
      </trkpt>
      <trkpt lat="46.00555" lon="6.84035">
        <ele>2121</ele>
        <time>2022-07-15T12:29:25Z</time>
      </trkpt>
      <trkpt lat="46.00543" lon="6.84026">
        <ele>2119</ele>
        <time>2022-07-15T12:29:37Z</time>
      </trkpt>
      <trkpt lat="46.00539" lon="6.84022">
        <ele>2118</ele>
        <time>2022-07-15T12:29:42Z</time>
      </trkpt>
      <trkpt lat="46.00534" lon="6.84019">
        <ele>2117</ele>
        <time>2022-07-15T12:29:54Z</time>
      </trkpt>
      <trkpt lat="46.00529" lon="6.84017">
        <ele>2116</ele>
        <time>2022-07-15T12:29:59Z</time>
      </trkpt>
      <trkpt lat="46.00524" lon="6.84012">
        <ele>2115</ele>
        <time>2022-07-15T12:30:06Z</time>
      </trkpt>
      <trkpt lat="46.00514" lon="6.84009">
        <ele>2114</ele>
        <time>2022-07-15T12:30:14Z</time>
      </trkpt>
      <trkpt lat="46.00509" lon="6.84009">
        <ele>2114</ele>
        <time>2022-07-15T12:30:18Z</time>
      </trkpt>
      <trkpt lat="46.00504" lon="6.84007">
        <ele>2113</ele>
        <time>2022-07-15T12:30:23Z</time>
      </trkpt>
      <trkpt lat="46.00495" lon="6.84009">
        <ele>2112</ele>
        <time>2022-07-15T12:30:31Z</time>
      </trkpt>
      <trkpt lat="46.00491" lon="6.84013">
        <ele>2111</ele>
        <time>2022-07-15T12:30:35Z</time>
      </trkpt>
      <trkpt lat="46.00484" lon="6.84011">
        <ele>2110</ele>
        <time>2022-07-15T12:30:42Z</time>
      </trkpt>
      <trkpt lat="46.00452" lon="6.83992">
        <ele>2105</ele>
        <time>2022-07-15T12:31:14Z</time>
      </trkpt>
      <trkpt lat="46.00449" lon="6.83989">
        <ele>2104</ele>
        <time>2022-07-15T12:31:18Z</time>
      </trkpt>
      <trkpt lat="46.00445" lon="6.83984">
        <ele>2104</ele>
        <time>2022-07-15T12:31:22Z</time>
      </trkpt>
      <trkpt lat="46.00436" lon="6.83979">
        <ele>2103</ele>
        <time>2022-07-15T12:31:30Z</time>
      </trkpt>
      <trkpt lat="46.00432" lon="6.83974">
        <ele>2102</ele>
        <time>2022-07-15T12:31:35Z</time>
      </trkpt>
      <trkpt lat="46.00429" lon="6.83969">
        <ele>2101</ele>
        <time>2022-07-15T12:31:39Z</time>
      </trkpt>
      <trkpt lat="46.00424" lon="6.83957">
        <ele>2100</ele>
        <time>2022-07-15T12:31:47Z</time>
      </trkpt>
      <trkpt lat="46.00414" lon="6.83951">
        <ele>2099</ele>
        <time>2022-07-15T12:31:55Z</time>
      </trkpt>
      <trkpt lat="46.00405" lon="6.83939">
        <ele>2095</ele>
        <time>2022-07-15T12:32:11Z</time>
      </trkpt>
      <trkpt lat="46.00393" lon="6.83933">
        <ele>2092</ele>
        <time>2022-07-15T12:32:24Z</time>
      </trkpt>
      <trkpt lat="46.00383" lon="6.83924">
        <ele>2090</ele>
        <time>2022-07-15T12:32:36Z</time>
      </trkpt>
      <trkpt lat="46.00363" lon="6.83916">
        <ele>2087</ele>
        <time>2022-07-15T12:32:57Z</time>
      </trkpt>
      <trkpt lat="46.00344" lon="6.83916">
        <ele>2082</ele>
        <time>2022-07-15T12:33:17Z</time>
      </trkpt>
      <trkpt lat="46.00336" lon="6.83923">
        <ele>2079</ele>
        <time>2022-07-15T12:33:29Z</time>
      </trkpt>
      <trkpt lat="46.00334" lon="6.83929">
        <ele>2077</ele>
        <time>2022-07-15T12:33:35Z</time>
      </trkpt>
      <trkpt lat="46.00328" lon="6.83932">
        <ele>2076</ele>
        <time>2022-07-15T12:33:40Z</time>
      </trkpt>
      <trkpt lat="46.00321" lon="6.83931">
        <ele>2073</ele>
        <time>2022-07-15T12:33:51Z</time>
      </trkpt>
      <trkpt lat="46.00315" lon="6.83928">
        <ele>2070</ele>
        <time>2022-07-15T12:34:01Z</time>
      </trkpt>
      <trkpt lat="46.00309" lon="6.83924">
        <ele>2068</ele>
        <time>2022-07-15T12:34:08Z</time>
      </trkpt>
      <trkpt lat="46.00303" lon="6.83925">
        <ele>2067</ele>
        <time>2022-07-15T12:34:13Z</time>
      </trkpt>
      <trkpt lat="46.00299" lon="6.83927">
        <ele>2066</ele>
        <time>2022-07-15T12:34:17Z</time>
      </trkpt>
      <trkpt lat="46.00295" lon="6.83927">
        <ele>2066</ele>
        <time>2022-07-15T12:34:22Z</time>
      </trkpt>
      <trkpt lat="46.00286" lon="6.83915">
        <ele>2062</ele>
        <time>2022-07-15T12:34:35Z</time>
      </trkpt>
      <trkpt lat="46.00282" lon="6.83909">
        <ele>2060</ele>
        <time>2022-07-15T12:34:43Z</time>
      </trkpt>
      <trkpt lat="46.00277" lon="6.83904">
        <ele>2058</ele>
        <time>2022-07-15T12:34:51Z</time>
      </trkpt>
      <trkpt lat="46.00274" lon="6.83896">
        <ele>2055</ele>
        <time>2022-07-15T12:35:01Z</time>
      </trkpt>
      <trkpt lat="46.00264" lon="6.83881">
        <ele>2051</ele>
        <time>2022-07-15T12:35:17Z</time>
      </trkpt>
      <trkpt lat="46.00261" lon="6.83877">
        <ele>2049</ele>
        <time>2022-07-15T12:35:21Z</time>
      </trkpt>
      <trkpt lat="46.00257" lon="6.83871">
        <ele>2048</ele>
        <time>2022-07-15T12:35:26Z</time>
      </trkpt>
      <trkpt lat="46.00254" lon="6.83861">
        <ele>2047</ele>
        <time>2022-07-15T12:35:33Z</time>
      </trkpt>
      <trkpt lat="46.00252" lon="6.83852">
        <ele>2045</ele>
        <time>2022-07-15T12:35:42Z</time>
      </trkpt>
      <trkpt lat="46.00252" lon="6.83847">
        <ele>2045</ele>
        <time>2022-07-15T12:35:46Z</time>
      </trkpt>
      <trkpt lat="46.00246" lon="6.83827">
        <ele>2040</ele>
        <time>2022-07-15T12:36:03Z</time>
      </trkpt>
      <trkpt lat="46.00241" lon="6.83822">
        <ele>2039</ele>
        <time>2022-07-15T12:36:09Z</time>
      </trkpt>
      <trkpt lat="46.00236" lon="6.8382">
        <ele>2038</ele>
        <time>2022-07-15T12:36:14Z</time>
      </trkpt>
      <trkpt lat="46.00231" lon="6.83814">
        <ele>2037</ele>
        <time>2022-07-15T12:36:20Z</time>
      </trkpt>
      <trkpt lat="46.00226" lon="6.83812">
        <ele>2036</ele>
        <time>2022-07-15T12:36:24Z</time>
      </trkpt>
      <trkpt lat="46.00225" lon="6.83805">
        <ele>2034</ele>
        <time>2022-07-15T12:36:30Z</time>
      </trkpt>
      <trkpt lat="46.0022" lon="6.83799">
        <ele>2032</ele>
        <time>2022-07-15T12:36:40Z</time>
      </trkpt>
      <trkpt lat="46.00217" lon="6.83793">
        <ele>2031</ele>
        <time>2022-07-15T12:36:45Z</time>
      </trkpt>
      <trkpt lat="46.00198" lon="6.83783">
        <ele>2027</ele>
        <time>2022-07-15T12:37:01Z</time>
      </trkpt>
      <trkpt lat="46.00189" lon="6.83771">
        <ele>2025</ele>
        <time>2022-07-15T12:37:12Z</time>
      </trkpt>
      <trkpt lat="46.00179" lon="6.83766">
        <ele>2023</ele>
        <time>2022-07-15T12:37:24Z</time>
      </trkpt>
      <trkpt lat="46.00174" lon="6.83765">
        <ele>2022</ele>
        <time>2022-07-15T12:37:28Z</time>
      </trkpt>
      <trkpt lat="46.00159" lon="6.83745">
        <ele>2019</ele>
        <time>2022-07-15T12:37:46Z</time>
      </trkpt>
      <trkpt lat="46.00149" lon="6.8374">
        <ele>2019</ele>
        <time>2022-07-15T12:37:54Z</time>
      </trkpt>
      <trkpt lat="46.00146" lon="6.83735">
        <ele>2018</ele>
        <time>2022-07-15T12:37:59Z</time>
      </trkpt>
      <trkpt lat="46.00131" lon="6.83723">
        <ele>2019</ele>
        <time>2022-07-15T12:38:13Z</time>
      </trkpt>
      <trkpt lat="46.00124" lon="6.83713">
        <ele>2018</ele>
        <time>2022-07-15T12:38:20Z</time>
      </trkpt>
      <trkpt lat="46.0012" lon="6.83709">
        <ele>2018</ele>
        <time>2022-07-15T12:38:24Z</time>
      </trkpt>
      <trkpt lat="46.00115" lon="6.83704">
        <ele>2018</ele>
        <time>2022-07-15T12:38:30Z</time>
      </trkpt>
      <trkpt lat="46.00108" lon="6.83695">
        <ele>2017</ele>
        <time>2022-07-15T12:38:38Z</time>
      </trkpt>
      <trkpt lat="46.00105" lon="6.8369">
        <ele>2017</ele>
        <time>2022-07-15T12:38:42Z</time>
      </trkpt>
      <trkpt lat="46.00101" lon="6.83685">
        <ele>2016</ele>
        <time>2022-07-15T12:38:46Z</time>
      </trkpt>
      <trkpt lat="46.00091" lon="6.83678">
        <ele>2015</ele>
        <time>2022-07-15T12:38:55Z</time>
      </trkpt>
      <trkpt lat="46.0008" lon="6.83676">
        <ele>2014</ele>
        <time>2022-07-15T12:39:03Z</time>
      </trkpt>
      <trkpt lat="46.00084" lon="6.8367">
        <ele>2014</ele>
        <time>2022-07-15T12:39:04Z</time>
      </trkpt>
      <trkpt lat="46.00081" lon="6.83664">
        <ele>2014</ele>
        <time>2022-07-15T12:39:08Z</time>
      </trkpt>
      <trkpt lat="46.00074" lon="6.83657">
        <ele>2013</ele>
        <time>2022-07-15T12:39:17Z</time>
      </trkpt>
      <trkpt lat="46.00069" lon="6.83655">
        <ele>2013</ele>
        <time>2022-07-15T12:39:21Z</time>
      </trkpt>
      <trkpt lat="46.00063" lon="6.83646">
        <ele>2012</ele>
        <time>2022-07-15T12:39:28Z</time>
      </trkpt>
      <trkpt lat="46.0005" lon="6.83637">
        <ele>2010</ele>
        <time>2022-07-15T12:39:40Z</time>
      </trkpt>
      <trkpt lat="46.00045" lon="6.83635">
        <ele>2009</ele>
        <time>2022-07-15T12:39:46Z</time>
      </trkpt>
      <trkpt lat="46.0004" lon="6.8363">
        <ele>2009</ele>
        <time>2022-07-15T12:39:50Z</time>
      </trkpt>
      <trkpt lat="46.00032" lon="6.83618">
        <ele>2008</ele>
        <time>2022-07-15T12:40:01Z</time>
      </trkpt>
      <trkpt lat="46.00014" lon="6.83598">
        <ele>2003</ele>
        <time>2022-07-15T12:40:23Z</time>
      </trkpt>
      <trkpt lat="46.00014" lon="6.83589">
        <ele>2002</ele>
        <time>2022-07-15T12:40:30Z</time>
      </trkpt>
      <trkpt lat="46.0001" lon="6.83584">
        <ele>2001</ele>
        <time>2022-07-15T12:40:35Z</time>
      </trkpt>
      <trkpt lat="45.99999" lon="6.83573">
        <ele>1998</ele>
        <time>2022-07-15T12:40:47Z</time>
      </trkpt>
      <trkpt lat="45.99979" lon="6.83539">
        <ele>1990</ele>
        <time>2022-07-15T12:41:21Z</time>
      </trkpt>
      <trkpt lat="45.99975" lon="6.83535">
        <ele>1989</ele>
        <time>2022-07-15T12:41:25Z</time>
      </trkpt>
      <trkpt lat="45.99976" lon="6.83526">
        <ele>1988</ele>
        <time>2022-07-15T12:41:31Z</time>
      </trkpt>
      <trkpt lat="45.99971" lon="6.83525">
        <ele>1987</ele>
        <time>2022-07-15T12:41:35Z</time>
      </trkpt>
      <trkpt lat="45.99962" lon="6.83512">
        <ele>1984</ele>
        <time>2022-07-15T12:41:49Z</time>
      </trkpt>
      <trkpt lat="45.99958" lon="6.83511">
        <ele>1983</ele>
        <time>2022-07-15T12:41:54Z</time>
      </trkpt>
      <trkpt lat="45.99954" lon="6.83508">
        <ele>1982</ele>
        <time>2022-07-15T12:41:58Z</time>
      </trkpt>
      <trkpt lat="45.99949" lon="6.83507">
        <ele>1981</ele>
        <time>2022-07-15T12:42:04Z</time>
      </trkpt>
      <trkpt lat="45.99944" lon="6.83499">
        <ele>1979</ele>
        <time>2022-07-15T12:42:13Z</time>
      </trkpt>
      <trkpt lat="45.99938" lon="6.83493">
        <ele>1977</ele>
        <time>2022-07-15T12:42:21Z</time>
      </trkpt>
      <trkpt lat="45.99935" lon="6.83478">
        <ele>1976</ele>
        <time>2022-07-15T12:42:29Z</time>
      </trkpt>
      <trkpt lat="45.99928" lon="6.83476">
        <ele>1975</ele>
        <time>2022-07-15T12:42:32Z</time>
      </trkpt>
      <trkpt lat="45.99927" lon="6.83467">
        <ele>1974</ele>
        <time>2022-07-15T12:42:39Z</time>
      </trkpt>
      <trkpt lat="45.99925" lon="6.83463">
        <ele>1973</ele>
        <time>2022-07-15T12:42:43Z</time>
      </trkpt>
      <trkpt lat="45.99917" lon="6.83456">
        <ele>1972</ele>
        <time>2022-07-15T12:42:51Z</time>
      </trkpt>
      <trkpt lat="45.99916" lon="6.83449">
        <ele>1970</ele>
        <time>2022-07-15T12:42:57Z</time>
      </trkpt>
      <trkpt lat="45.99911" lon="6.83444">
        <ele>1969</ele>
        <time>2022-07-15T12:43:04Z</time>
      </trkpt>
      <trkpt lat="45.99906" lon="6.83442">
        <ele>1968</ele>
        <time>2022-07-15T12:43:07Z</time>
      </trkpt>
      <trkpt lat="45.99899" lon="6.83433">
        <ele>1967</ele>
        <time>2022-07-15T12:43:15Z</time>
      </trkpt>
      <trkpt lat="45.99895" lon="6.8343">
        <ele>1966</ele>
        <time>2022-07-15T12:43:19Z</time>
      </trkpt>
      <trkpt lat="45.9989" lon="6.83426">
        <ele>1966</ele>
        <time>2022-07-15T12:43:23Z</time>
      </trkpt>
      <trkpt lat="45.99877" lon="6.8341">
        <ele>1963</ele>
        <time>2022-07-15T12:43:40Z</time>
      </trkpt>
      <trkpt lat="45.99873" lon="6.83408">
        <ele>1962</ele>
        <time>2022-07-15T12:43:44Z</time>
      </trkpt>
      <trkpt lat="45.99865" lon="6.83398">
        <ele>1960</ele>
        <time>2022-07-15T12:43:56Z</time>
      </trkpt>
      <trkpt lat="45.99854" lon="6.83389">
        <ele>1958</ele>
        <time>2022-07-15T12:44:07Z</time>
      </trkpt>
      <trkpt lat="45.99849" lon="6.83382">
        <ele>1956</ele>
        <time>2022-07-15T12:44:17Z</time>
      </trkpt>
      <trkpt lat="45.99843" lon="6.83382">
        <ele>1956</ele>
        <time>2022-07-15T12:44:19Z</time>
      </trkpt>
      <trkpt lat="45.99829" lon="6.83368">
        <ele>1952</ele>
        <time>2022-07-15T12:44:40Z</time>
      </trkpt>
      <trkpt lat="45.99822" lon="6.83368">
        <ele>1951</ele>
        <time>2022-07-15T12:44:47Z</time>
      </trkpt>
      <trkpt lat="45.99819" lon="6.83374">
        <ele>1950</ele>
        <time>2022-07-15T12:44:51Z</time>
      </trkpt>
      <trkpt lat="45.99815" lon="6.83377">
        <ele>1949</ele>
        <time>2022-07-15T12:44:56Z</time>
      </trkpt>
      <trkpt lat="45.9981" lon="6.8338">
        <ele>1949</ele>
        <time>2022-07-15T12:45:00Z</time>
      </trkpt>
      <trkpt lat="45.99807" lon="6.83383">
        <ele>1948</ele>
        <time>2022-07-15T12:45:04Z</time>
      </trkpt>
      <trkpt lat="45.9979" lon="6.83385">
        <ele>1947</ele>
        <time>2022-07-15T12:45:17Z</time>
      </trkpt>
      <trkpt lat="45.99785" lon="6.8339">
        <ele>1947</ele>
        <time>2022-07-15T12:45:32Z</time>
      </trkpt>
      <trkpt lat="45.99772" lon="6.83393">
        <ele>1946</ele>
        <time>2022-07-15T12:45:45Z</time>
      </trkpt>
      <trkpt lat="45.99766" lon="6.83395">
        <ele>1945</ele>
        <time>2022-07-15T12:45:49Z</time>
      </trkpt>
      <trkpt lat="45.99759" lon="6.83401">
        <ele>1944</ele>
        <time>2022-07-15T12:45:57Z</time>
      </trkpt>
      <trkpt lat="45.99738" lon="6.83404">
        <ele>1942</ele>
        <time>2022-07-15T12:46:16Z</time>
      </trkpt>
      <trkpt lat="45.99726" lon="6.83402">
        <ele>1942</ele>
        <time>2022-07-15T12:46:27Z</time>
      </trkpt>
      <trkpt lat="45.99721" lon="6.83401">
        <ele>1942</ele>
        <time>2022-07-15T12:46:31Z</time>
      </trkpt>
      <trkpt lat="45.99717" lon="6.83398">
        <ele>1942</ele>
        <time>2022-07-15T12:46:36Z</time>
      </trkpt>
      <trkpt lat="45.99712" lon="6.83402">
        <ele>1942</ele>
        <time>2022-07-15T12:46:41Z</time>
      </trkpt>
      <trkpt lat="45.99702" lon="6.83404">
        <ele>1941</ele>
        <time>2022-07-15T12:46:53Z</time>
      </trkpt>
      <trkpt lat="45.99697" lon="6.83404">
        <ele>1941</ele>
        <time>2022-07-15T12:46:59Z</time>
      </trkpt>
      <trkpt lat="45.997" lon="6.83396">
        <ele>1941</ele>
        <time>2022-07-15T12:47:15Z</time>
      </trkpt>
      <trkpt lat="45.99697" lon="6.83388">
        <ele>1942</ele>
        <time>2022-07-15T12:47:25Z</time>
      </trkpt>
      <trkpt lat="45.99701" lon="6.83383">
        <ele>1943</ele>
        <time>2022-07-15T12:47:30Z</time>
      </trkpt>
      <trkpt lat="45.99705" lon="6.83384">
        <ele>1943</ele>
        <time>2022-07-15T12:47:34Z</time>
      </trkpt>
      <trkpt lat="45.9971" lon="6.83381">
        <ele>1943</ele>
        <time>2022-07-15T12:47:39Z</time>
      </trkpt>
      <trkpt lat="45.99707" lon="6.83391">
        <ele>1941</ele>
        <time>2022-07-15T12:48:38Z</time>
      </trkpt>
      <trkpt lat="45.99701" lon="6.83392">
        <ele>1941</ele>
        <time>2022-07-15T12:48:53Z</time>
      </trkpt>
      <trkpt lat="45.99698" lon="6.83402">
        <ele>1940</ele>
        <time>2022-07-15T12:49:18Z</time>
      </trkpt>
      <trkpt lat="45.99695" lon="6.83401">
        <ele>1939</ele>
        <time>2022-07-15T12:49:58Z</time>
      </trkpt>
      <trkpt lat="45.99693" lon="6.83394">
        <ele>1939</ele>
        <time>2022-07-15T12:50:08Z</time>
      </trkpt>
      <trkpt lat="45.99691" lon="6.83395">
        <ele>1939</ele>
        <time>2022-07-15T12:51:35Z</time>
      </trkpt>
      <trkpt lat="45.99695" lon="6.83405">
        <ele>1939</ele>
        <time>2022-07-15T12:58:14Z</time>
      </trkpt>
      <trkpt lat="45.99699" lon="6.83408">
        <ele>1939</ele>
        <time>2022-07-15T12:58:56Z</time>
      </trkpt>
      <trkpt lat="45.99703" lon="6.83405">
        <ele>1938</ele>
        <time>2022-07-15T13:29:48Z</time>
      </trkpt>
      <trkpt lat="45.99704" lon="6.83402">
        <ele>1940</ele>
        <time>2022-07-15T13:37:54Z</time>
      </trkpt>
      <trkpt lat="45.99698" lon="6.83399">
        <ele>1940</ele>
        <time>2022-07-15T13:45:11Z</time>
      </trkpt>
      <trkpt lat="45.997" lon="6.83406">
        <ele>1940</ele>
        <time>2022-07-15T13:45:28Z</time>
      </trkpt>
      <trkpt lat="45.99698" lon="6.83405">
        <ele>1939</ele>
        <time>2022-07-15T13:47:13Z</time>
      </trkpt>
      <trkpt lat="45.99697" lon="6.83406">
        <ele>1940</ele>
        <time>2022-07-15T13:53:27Z</time>
      </trkpt>
      <trkpt lat="45.99705" lon="6.8341">
        <ele>1940</ele>
        <time>2022-07-15T13:53:38Z</time>
      </trkpt>
      <trkpt lat="45.9971" lon="6.83408">
        <ele>1940</ele>
        <time>2022-07-15T13:53:45Z</time>
      </trkpt>
      <trkpt lat="45.99717" lon="6.83404">
        <ele>1940</ele>
        <time>2022-07-15T13:53:56Z</time>
      </trkpt>
      <trkpt lat="45.99734" lon="6.83396">
        <ele>1942</ele>
        <time>2022-07-15T13:54:26Z</time>
      </trkpt>
      <trkpt lat="45.99752" lon="6.83387">
        <ele>1943</ele>
        <time>2022-07-15T13:54:51Z</time>
      </trkpt>
      <trkpt lat="45.99757" lon="6.83387">
        <ele>1943</ele>
        <time>2022-07-15T13:54:56Z</time>
      </trkpt>
      <trkpt lat="45.99768" lon="6.83388">
        <ele>1943</ele>
        <time>2022-07-15T13:55:10Z</time>
      </trkpt>
      <trkpt lat="45.99776" lon="6.83386">
        <ele>1943</ele>
        <time>2022-07-15T13:55:19Z</time>
      </trkpt>
      <trkpt lat="45.99782" lon="6.83385">
        <ele>1943</ele>
        <time>2022-07-15T13:55:27Z</time>
      </trkpt>
      <trkpt lat="45.99786" lon="6.83382">
        <ele>1943</ele>
        <time>2022-07-15T13:55:33Z</time>
      </trkpt>
      <trkpt lat="45.9979" lon="6.83386">
        <ele>1944</ele>
        <time>2022-07-15T13:55:39Z</time>
      </trkpt>
      <trkpt lat="45.99795" lon="6.83383">
        <ele>1944</ele>
        <time>2022-07-15T13:55:44Z</time>
      </trkpt>
      <trkpt lat="45.99798" lon="6.83379">
        <ele>1944</ele>
        <time>2022-07-15T13:55:48Z</time>
      </trkpt>
      <trkpt lat="45.99804" lon="6.83376">
        <ele>1944</ele>
        <time>2022-07-15T13:55:55Z</time>
      </trkpt>
      <trkpt lat="45.99804" lon="6.83367">
        <ele>1943</ele>
        <time>2022-07-15T13:56:03Z</time>
      </trkpt>
      <trkpt lat="45.99805" lon="6.83361">
        <ele>1943</ele>
        <time>2022-07-15T13:56:13Z</time>
      </trkpt>
      <trkpt lat="45.99802" lon="6.83356">
        <ele>1944</ele>
        <time>2022-07-15T13:56:18Z</time>
      </trkpt>
      <trkpt lat="45.99804" lon="6.83347">
        <ele>1945</ele>
        <time>2022-07-15T13:56:30Z</time>
      </trkpt>
      <trkpt lat="45.99803" lon="6.8334">
        <ele>1946</ele>
        <time>2022-07-15T13:56:34Z</time>
      </trkpt>
      <trkpt lat="45.99802" lon="6.83333">
        <ele>1947</ele>
        <time>2022-07-15T13:56:46Z</time>
      </trkpt>
      <trkpt lat="45.998" lon="6.83328">
        <ele>1947</ele>
        <time>2022-07-15T13:56:52Z</time>
      </trkpt>
      <trkpt lat="45.99797" lon="6.83319">
        <ele>1948</ele>
        <time>2022-07-15T13:57:03Z</time>
      </trkpt>
      <trkpt lat="45.99792" lon="6.83302">
        <ele>1950</ele>
        <time>2022-07-15T13:57:18Z</time>
      </trkpt>
      <trkpt lat="45.99788" lon="6.83296">
        <ele>1950</ele>
        <time>2022-07-15T13:57:24Z</time>
      </trkpt>
      <trkpt lat="45.99784" lon="6.83289">
        <ele>1950</ele>
        <time>2022-07-15T13:57:36Z</time>
      </trkpt>
      <trkpt lat="45.99783" lon="6.83283">
        <ele>1951</ele>
        <time>2022-07-15T13:57:41Z</time>
      </trkpt>
      <trkpt lat="45.99782" lon="6.83277">
        <ele>1951</ele>
        <time>2022-07-15T13:57:47Z</time>
      </trkpt>
      <trkpt lat="45.99782" lon="6.8327">
        <ele>1951</ele>
        <time>2022-07-15T13:57:53Z</time>
      </trkpt>
      <trkpt lat="45.99779" lon="6.83265">
        <ele>1952</ele>
        <time>2022-07-15T13:57:58Z</time>
      </trkpt>
      <trkpt lat="45.99775" lon="6.83265">
        <ele>1952</ele>
        <time>2022-07-15T13:58:03Z</time>
      </trkpt>
      <trkpt lat="45.99769" lon="6.83265">
        <ele>1953</ele>
        <time>2022-07-15T13:58:11Z</time>
      </trkpt>
      <trkpt lat="45.99762" lon="6.83257">
        <ele>1954</ele>
        <time>2022-07-15T13:58:20Z</time>
      </trkpt>
      <trkpt lat="45.99756" lon="6.83252">
        <ele>1954</ele>
        <time>2022-07-15T13:58:29Z</time>
      </trkpt>
      <trkpt lat="45.99752" lon="6.8325">
        <ele>1955</ele>
        <time>2022-07-15T13:58:34Z</time>
      </trkpt>
      <trkpt lat="45.99746" lon="6.83246">
        <ele>1956</ele>
        <time>2022-07-15T13:58:43Z</time>
      </trkpt>
      <trkpt lat="45.99742" lon="6.83238">
        <ele>1957</ele>
        <time>2022-07-15T13:58:53Z</time>
      </trkpt>
      <trkpt lat="45.99733" lon="6.83227">
        <ele>1957</ele>
        <time>2022-07-15T13:59:06Z</time>
      </trkpt>
      <trkpt lat="45.99731" lon="6.83222">
        <ele>1958</ele>
        <time>2022-07-15T13:59:10Z</time>
      </trkpt>
      <trkpt lat="45.99723" lon="6.8321">
        <ele>1960</ele>
        <time>2022-07-15T13:59:29Z</time>
      </trkpt>
      <trkpt lat="45.99721" lon="6.83203">
        <ele>1961</ele>
        <time>2022-07-15T13:59:40Z</time>
      </trkpt>
      <trkpt lat="45.99726" lon="6.83192">
        <ele>1959</ele>
        <time>2022-07-15T13:59:57Z</time>
      </trkpt>
      <trkpt lat="45.99725" lon="6.83186">
        <ele>1958</ele>
        <time>2022-07-15T14:00:02Z</time>
      </trkpt>
      <trkpt lat="45.99722" lon="6.83182">
        <ele>1958</ele>
        <time>2022-07-15T14:00:07Z</time>
      </trkpt>
      <trkpt lat="45.99715" lon="6.83182">
        <ele>1957</ele>
        <time>2022-07-15T14:00:17Z</time>
      </trkpt>
      <trkpt lat="45.99707" lon="6.83185">
        <ele>1956</ele>
        <time>2022-07-15T14:00:27Z</time>
      </trkpt>
      <trkpt lat="45.99704" lon="6.83188">
        <ele>1956</ele>
        <time>2022-07-15T14:00:32Z</time>
      </trkpt>
      <trkpt lat="45.99699" lon="6.83189">
        <ele>1956</ele>
        <time>2022-07-15T14:00:37Z</time>
      </trkpt>
      <trkpt lat="45.99694" lon="6.8319">
        <ele>1958</ele>
        <time>2022-07-15T14:00:46Z</time>
      </trkpt>
      <trkpt lat="45.99687" lon="6.83194">
        <ele>1957</ele>
        <time>2022-07-15T14:00:58Z</time>
      </trkpt>
      <trkpt lat="45.99681" lon="6.83197">
        <ele>1956</ele>
        <time>2022-07-15T14:01:08Z</time>
      </trkpt>
      <trkpt lat="45.99675" lon="6.83198">
        <ele>1955</ele>
        <time>2022-07-15T14:01:13Z</time>
      </trkpt>
      <trkpt lat="45.99663" lon="6.8319">
        <ele>1953</ele>
        <time>2022-07-15T14:01:28Z</time>
      </trkpt>
      <trkpt lat="45.99657" lon="6.83187">
        <ele>1952</ele>
        <time>2022-07-15T14:01:32Z</time>
      </trkpt>
      <trkpt lat="45.99649" lon="6.8319">
        <ele>1952</ele>
        <time>2022-07-15T14:01:42Z</time>
      </trkpt>
      <trkpt lat="45.99645" lon="6.83182">
        <ele>1951</ele>
        <time>2022-07-15T14:01:45Z</time>
      </trkpt>
      <trkpt lat="45.9964" lon="6.83179">
        <ele>1950</ele>
        <time>2022-07-15T14:01:53Z</time>
      </trkpt>
      <trkpt lat="45.99636" lon="6.83172">
        <ele>1949</ele>
        <time>2022-07-15T14:02:02Z</time>
      </trkpt>
      <trkpt lat="45.99629" lon="6.83169">
        <ele>1949</ele>
        <time>2022-07-15T14:02:07Z</time>
      </trkpt>
      <trkpt lat="45.99623" lon="6.83166">
        <ele>1947</ele>
        <time>2022-07-15T14:02:17Z</time>
      </trkpt>
      <trkpt lat="45.99616" lon="6.83164">
        <ele>1949</ele>
        <time>2022-07-15T14:02:32Z</time>
      </trkpt>
      <trkpt lat="45.99613" lon="6.83157">
        <ele>1951</ele>
        <time>2022-07-15T14:02:46Z</time>
      </trkpt>
      <trkpt lat="45.99609" lon="6.83152">
        <ele>1951</ele>
        <time>2022-07-15T14:02:53Z</time>
      </trkpt>
      <trkpt lat="45.99608" lon="6.83142">
        <ele>1952</ele>
        <time>2022-07-15T14:03:04Z</time>
      </trkpt>
      <trkpt lat="45.99605" lon="6.83132">
        <ele>1953</ele>
        <time>2022-07-15T14:03:13Z</time>
      </trkpt>
      <trkpt lat="45.99593" lon="6.83115">
        <ele>1953</ele>
        <time>2022-07-15T14:03:28Z</time>
      </trkpt>
      <trkpt lat="45.99589" lon="6.83111">
        <ele>1955</ele>
        <time>2022-07-15T14:03:45Z</time>
      </trkpt>
      <trkpt lat="45.99587" lon="6.83102">
        <ele>1958</ele>
        <time>2022-07-15T14:04:03Z</time>
      </trkpt>
      <trkpt lat="45.99584" lon="6.83095">
        <ele>1960</ele>
        <time>2022-07-15T14:04:19Z</time>
      </trkpt>
      <trkpt lat="45.99581" lon="6.83088">
        <ele>1962</ele>
        <time>2022-07-15T14:04:33Z</time>
      </trkpt>
      <trkpt lat="45.99579" lon="6.83081">
        <ele>1964</ele>
        <time>2022-07-15T14:04:43Z</time>
      </trkpt>
      <trkpt lat="45.99578" lon="6.83073">
        <ele>1966</ele>
        <time>2022-07-15T14:04:58Z</time>
      </trkpt>
      <trkpt lat="45.99574" lon="6.83063">
        <ele>1967</ele>
        <time>2022-07-15T14:05:08Z</time>
      </trkpt>
      <trkpt lat="45.9957" lon="6.8306">
        <ele>1968</ele>
        <time>2022-07-15T14:05:15Z</time>
      </trkpt>
      <trkpt lat="45.99566" lon="6.83057">
        <ele>1967</ele>
        <time>2022-07-15T14:05:19Z</time>
      </trkpt>
      <trkpt lat="45.99562" lon="6.83052">
        <ele>1969</ele>
        <time>2022-07-15T14:05:32Z</time>
      </trkpt>
      <trkpt lat="45.99556" lon="6.8304">
        <ele>1972</ele>
        <time>2022-07-15T14:05:52Z</time>
      </trkpt>
      <trkpt lat="45.99554" lon="6.8303">
        <ele>1975</ele>
        <time>2022-07-15T14:06:14Z</time>
      </trkpt>
      <trkpt lat="45.99549" lon="6.83025">
        <ele>1977</ele>
        <time>2022-07-15T14:06:26Z</time>
      </trkpt>
      <trkpt lat="45.99527" lon="6.83006">
        <ele>1982</ele>
        <time>2022-07-15T14:07:09Z</time>
      </trkpt>
      <trkpt lat="45.99521" lon="6.83006">
        <ele>1984</ele>
        <time>2022-07-15T14:07:20Z</time>
      </trkpt>
      <trkpt lat="45.99517" lon="6.83005">
        <ele>1986</ele>
        <time>2022-07-15T14:07:30Z</time>
      </trkpt>
      <trkpt lat="45.99511" lon="6.82996">
        <ele>1986</ele>
        <time>2022-07-15T14:07:40Z</time>
      </trkpt>
      <trkpt lat="45.99505" lon="6.82996">
        <ele>1987</ele>
        <time>2022-07-15T14:07:50Z</time>
      </trkpt>
      <trkpt lat="45.99501" lon="6.82991">
        <ele>1988</ele>
        <time>2022-07-15T14:07:54Z</time>
      </trkpt>
      <trkpt lat="45.99498" lon="6.82988">
        <ele>1987</ele>
        <time>2022-07-15T14:07:58Z</time>
      </trkpt>
      <trkpt lat="45.99492" lon="6.82985">
        <ele>1987</ele>
        <time>2022-07-15T14:08:04Z</time>
      </trkpt>
      <trkpt lat="45.99478" lon="6.82977">
        <ele>1989</ele>
        <time>2022-07-15T14:08:21Z</time>
      </trkpt>
      <trkpt lat="45.99471" lon="6.8297">
        <ele>1990</ele>
        <time>2022-07-15T14:08:28Z</time>
      </trkpt>
      <trkpt lat="45.99468" lon="6.82965">
        <ele>1990</ele>
        <time>2022-07-15T14:08:32Z</time>
      </trkpt>
      <trkpt lat="45.99464" lon="6.82961">
        <ele>1991</ele>
        <time>2022-07-15T14:08:40Z</time>
      </trkpt>
      <trkpt lat="45.9946" lon="6.8296">
        <ele>1991</ele>
        <time>2022-07-15T14:08:45Z</time>
      </trkpt>
      <trkpt lat="45.99456" lon="6.82958">
        <ele>1991</ele>
        <time>2022-07-15T14:08:51Z</time>
      </trkpt>
      <trkpt lat="45.9945" lon="6.82953">
        <ele>1992</ele>
        <time>2022-07-15T14:08:59Z</time>
      </trkpt>
      <trkpt lat="45.99438" lon="6.82939">
        <ele>1994</ele>
        <time>2022-07-15T14:09:19Z</time>
      </trkpt>
      <trkpt lat="45.99433" lon="6.82935">
        <ele>1995</ele>
        <time>2022-07-15T14:09:24Z</time>
      </trkpt>
      <trkpt lat="45.9943" lon="6.82931">
        <ele>1995</ele>
        <time>2022-07-15T14:09:30Z</time>
      </trkpt>
      <trkpt lat="45.99426" lon="6.82928">
        <ele>1996</ele>
        <time>2022-07-15T14:09:40Z</time>
      </trkpt>
      <trkpt lat="45.99418" lon="6.82922">
        <ele>1996</ele>
        <time>2022-07-15T14:09:47Z</time>
      </trkpt>
      <trkpt lat="45.99412" lon="6.82922">
        <ele>1997</ele>
        <time>2022-07-15T14:09:55Z</time>
      </trkpt>
      <trkpt lat="45.99406" lon="6.82913">
        <ele>1999</ele>
        <time>2022-07-15T14:10:07Z</time>
      </trkpt>
      <trkpt lat="45.99397" lon="6.82913">
        <ele>2001</ele>
        <time>2022-07-15T14:10:21Z</time>
      </trkpt>
      <trkpt lat="45.99392" lon="6.82904">
        <ele>2002</ele>
        <time>2022-07-15T14:10:28Z</time>
      </trkpt>
      <trkpt lat="45.99387" lon="6.82903">
        <ele>2003</ele>
        <time>2022-07-15T14:10:38Z</time>
      </trkpt>
      <trkpt lat="45.99379" lon="6.82893">
        <ele>2004</ele>
        <time>2022-07-15T14:10:52Z</time>
      </trkpt>
      <trkpt lat="45.99375" lon="6.82888">
        <ele>2004</ele>
        <time>2022-07-15T14:10:56Z</time>
      </trkpt>
      <trkpt lat="45.99371" lon="6.82888">
        <ele>2005</ele>
        <time>2022-07-15T14:11:04Z</time>
      </trkpt>
      <trkpt lat="45.99366" lon="6.82884">
        <ele>2006</ele>
        <time>2022-07-15T14:11:10Z</time>
      </trkpt>
      <trkpt lat="45.99362" lon="6.8288">
        <ele>2006</ele>
        <time>2022-07-15T14:11:14Z</time>
      </trkpt>
      <trkpt lat="45.99352" lon="6.82874">
        <ele>2006</ele>
        <time>2022-07-15T14:11:31Z</time>
      </trkpt>
      <trkpt lat="45.99348" lon="6.82867">
        <ele>2007</ele>
        <time>2022-07-15T14:11:34Z</time>
      </trkpt>
      <trkpt lat="45.99352" lon="6.82857">
        <ele>2005</ele>
        <time>2022-07-15T14:11:53Z</time>
      </trkpt>
      <trkpt lat="45.99351" lon="6.82849">
        <ele>2003</ele>
        <time>2022-07-15T14:12:01Z</time>
      </trkpt>
      <trkpt lat="45.99347" lon="6.82845">
        <ele>2003</ele>
        <time>2022-07-15T14:12:04Z</time>
      </trkpt>
      <trkpt lat="45.99343" lon="6.82841">
        <ele>2003</ele>
        <time>2022-07-15T14:12:07Z</time>
      </trkpt>
      <trkpt lat="45.99339" lon="6.82843">
        <ele>2003</ele>
        <time>2022-07-15T14:12:10Z</time>
      </trkpt>
      <trkpt lat="45.99333" lon="6.82847">
        <ele>2003</ele>
        <time>2022-07-15T14:12:18Z</time>
      </trkpt>
      <trkpt lat="45.99327" lon="6.82843">
        <ele>2003</ele>
        <time>2022-07-15T14:12:26Z</time>
      </trkpt>
      <trkpt lat="45.99322" lon="6.8284">
        <ele>2004</ele>
        <time>2022-07-15T14:12:31Z</time>
      </trkpt>
      <trkpt lat="45.99318" lon="6.82842">
        <ele>2004</ele>
        <time>2022-07-15T14:12:35Z</time>
      </trkpt>
      <trkpt lat="45.99313" lon="6.8284">
        <ele>2005</ele>
        <time>2022-07-15T14:12:46Z</time>
      </trkpt>
      <trkpt lat="45.99307" lon="6.82835">
        <ele>2007</ele>
        <time>2022-07-15T14:12:54Z</time>
      </trkpt>
      <trkpt lat="45.99304" lon="6.82832">
        <ele>2007</ele>
        <time>2022-07-15T14:12:59Z</time>
      </trkpt>
      <trkpt lat="45.99302" lon="6.82824">
        <ele>2007</ele>
        <time>2022-07-15T14:13:06Z</time>
      </trkpt>
      <trkpt lat="45.99297" lon="6.82822">
        <ele>2007</ele>
        <time>2022-07-15T14:13:10Z</time>
      </trkpt>
      <trkpt lat="45.99292" lon="6.82811">
        <ele>2007</ele>
        <time>2022-07-15T14:13:23Z</time>
      </trkpt>
      <trkpt lat="45.99292" lon="6.82801">
        <ele>2006</ele>
        <time>2022-07-15T14:13:32Z</time>
      </trkpt>
      <trkpt lat="45.99289" lon="6.82797">
        <ele>2005</ele>
        <time>2022-07-15T14:13:37Z</time>
      </trkpt>
      <trkpt lat="45.99282" lon="6.82789">
        <ele>2006</ele>
        <time>2022-07-15T14:13:47Z</time>
      </trkpt>
      <trkpt lat="45.99278" lon="6.82789">
        <ele>2007</ele>
        <time>2022-07-15T14:13:52Z</time>
      </trkpt>
      <trkpt lat="45.99273" lon="6.82786">
        <ele>2008</ele>
        <time>2022-07-15T14:14:00Z</time>
      </trkpt>
      <trkpt lat="45.99268" lon="6.82783">
        <ele>2009</ele>
        <time>2022-07-15T14:14:10Z</time>
      </trkpt>
      <trkpt lat="45.99265" lon="6.82778">
        <ele>2009</ele>
        <time>2022-07-15T14:14:14Z</time>
      </trkpt>
      <trkpt lat="45.99261" lon="6.82771">
        <ele>2008</ele>
        <time>2022-07-15T14:14:21Z</time>
      </trkpt>
      <trkpt lat="45.99256" lon="6.82758">
        <ele>2008</ele>
        <time>2022-07-15T14:14:38Z</time>
      </trkpt>
      <trkpt lat="45.99251" lon="6.82754">
        <ele>2007</ele>
        <time>2022-07-15T14:14:42Z</time>
      </trkpt>
      <trkpt lat="45.99244" lon="6.82754">
        <ele>2008</ele>
        <time>2022-07-15T14:14:51Z</time>
      </trkpt>
      <trkpt lat="45.99239" lon="6.82756">
        <ele>2009</ele>
        <time>2022-07-15T14:15:02Z</time>
      </trkpt>
      <trkpt lat="45.99234" lon="6.82754">
        <ele>2010</ele>
        <time>2022-07-15T14:15:12Z</time>
      </trkpt>
      <trkpt lat="45.9923" lon="6.82755">
        <ele>2011</ele>
        <time>2022-07-15T14:15:22Z</time>
      </trkpt>
      <trkpt lat="45.99224" lon="6.82751">
        <ele>2012</ele>
        <time>2022-07-15T14:15:31Z</time>
      </trkpt>
      <trkpt lat="45.9922" lon="6.82746">
        <ele>2012</ele>
        <time>2022-07-15T14:15:34Z</time>
      </trkpt>
      <trkpt lat="45.99215" lon="6.8275">
        <ele>2012</ele>
        <time>2022-07-15T14:15:41Z</time>
      </trkpt>
      <trkpt lat="45.99209" lon="6.82739">
        <ele>2013</ele>
        <time>2022-07-15T14:15:51Z</time>
      </trkpt>
      <trkpt lat="45.99205" lon="6.82738">
        <ele>2014</ele>
        <time>2022-07-15T14:15:56Z</time>
      </trkpt>
      <trkpt lat="45.99198" lon="6.82735">
        <ele>2014</ele>
        <time>2022-07-15T14:16:04Z</time>
      </trkpt>
      <trkpt lat="45.99193" lon="6.82729">
        <ele>2014</ele>
        <time>2022-07-15T14:16:11Z</time>
      </trkpt>
      <trkpt lat="45.99186" lon="6.82731">
        <ele>2015</ele>
        <time>2022-07-15T14:16:19Z</time>
      </trkpt>
      <trkpt lat="45.99184" lon="6.82724">
        <ele>2015</ele>
        <time>2022-07-15T14:16:23Z</time>
      </trkpt>
      <trkpt lat="45.99169" lon="6.82719">
        <ele>2018</ele>
        <time>2022-07-15T14:16:46Z</time>
      </trkpt>
      <trkpt lat="45.99165" lon="6.82718">
        <ele>2018</ele>
        <time>2022-07-15T14:16:54Z</time>
      </trkpt>
      <trkpt lat="45.99157" lon="6.82717">
        <ele>2019</ele>
        <time>2022-07-15T14:17:04Z</time>
      </trkpt>
      <trkpt lat="45.99155" lon="6.82706">
        <ele>2020</ele>
        <time>2022-07-15T14:17:20Z</time>
      </trkpt>
      <trkpt lat="45.99152" lon="6.82702">
        <ele>2021</ele>
        <time>2022-07-15T14:17:23Z</time>
      </trkpt>
      <trkpt lat="45.99143" lon="6.82702">
        <ele>2022</ele>
        <time>2022-07-15T14:17:35Z</time>
      </trkpt>
      <trkpt lat="45.99139" lon="6.82699">
        <ele>2023</ele>
        <time>2022-07-15T14:17:45Z</time>
      </trkpt>
      <trkpt lat="45.99136" lon="6.82694">
        <ele>2024</ele>
        <time>2022-07-15T14:17:49Z</time>
      </trkpt>
      <trkpt lat="45.99132" lon="6.82699">
        <ele>2025</ele>
        <time>2022-07-15T14:17:58Z</time>
      </trkpt>
      <trkpt lat="45.99128" lon="6.82694">
        <ele>2025</ele>
        <time>2022-07-15T14:18:01Z</time>
      </trkpt>
      <trkpt lat="45.99123" lon="6.82689">
        <ele>2025</ele>
        <time>2022-07-15T14:18:07Z</time>
      </trkpt>
      <trkpt lat="45.99109" lon="6.82693">
        <ele>2027</ele>
        <time>2022-07-15T14:18:27Z</time>
      </trkpt>
      <trkpt lat="45.99105" lon="6.82689">
        <ele>2027</ele>
        <time>2022-07-15T14:18:31Z</time>
      </trkpt>
      <trkpt lat="45.99101" lon="6.82691">
        <ele>2028</ele>
        <time>2022-07-15T14:18:39Z</time>
      </trkpt>
      <trkpt lat="45.99097" lon="6.8269">
        <ele>2028</ele>
        <time>2022-07-15T14:18:44Z</time>
      </trkpt>
      <trkpt lat="45.99092" lon="6.8269">
        <ele>2029</ele>
        <time>2022-07-15T14:18:52Z</time>
      </trkpt>
      <trkpt lat="45.99081" lon="6.82683">
        <ele>2030</ele>
        <time>2022-07-15T14:19:06Z</time>
      </trkpt>
      <trkpt lat="45.99074" lon="6.82682">
        <ele>2031</ele>
        <time>2022-07-15T14:19:18Z</time>
      </trkpt>
      <trkpt lat="45.99068" lon="6.82679">
        <ele>2033</ele>
        <time>2022-07-15T14:19:29Z</time>
      </trkpt>
      <trkpt lat="45.99063" lon="6.82675">
        <ele>2033</ele>
        <time>2022-07-15T14:19:33Z</time>
      </trkpt>
      <trkpt lat="45.99055" lon="6.82673">
        <ele>2034</ele>
        <time>2022-07-15T14:19:47Z</time>
      </trkpt>
      <trkpt lat="45.99051" lon="6.82673">
        <ele>2036</ele>
        <time>2022-07-15T14:19:59Z</time>
      </trkpt>
      <trkpt lat="45.99045" lon="6.82669">
        <ele>2036</ele>
        <time>2022-07-15T14:20:03Z</time>
      </trkpt>
      <trkpt lat="45.99041" lon="6.82678">
        <ele>2037</ele>
        <time>2022-07-15T14:20:16Z</time>
      </trkpt>
      <trkpt lat="45.99036" lon="6.82676">
        <ele>2039</ele>
        <time>2022-07-15T14:20:27Z</time>
      </trkpt>
      <trkpt lat="45.99027" lon="6.82672">
        <ele>2041</ele>
        <time>2022-07-15T14:20:37Z</time>
      </trkpt>
      <trkpt lat="45.9902" lon="6.82671">
        <ele>2042</ele>
        <time>2022-07-15T14:20:49Z</time>
      </trkpt>
      <trkpt lat="45.99016" lon="6.82675">
        <ele>2042</ele>
        <time>2022-07-15T14:20:54Z</time>
      </trkpt>
      <trkpt lat="45.99011" lon="6.82667">
        <ele>2042</ele>
        <time>2022-07-15T14:21:02Z</time>
      </trkpt>
      <trkpt lat="45.99007" lon="6.82669">
        <ele>2043</ele>
        <time>2022-07-15T14:21:10Z</time>
      </trkpt>
      <trkpt lat="45.98992" lon="6.82661">
        <ele>2045</ele>
        <time>2022-07-15T14:21:32Z</time>
      </trkpt>
      <trkpt lat="45.98989" lon="6.82656">
        <ele>2045</ele>
        <time>2022-07-15T14:21:34Z</time>
      </trkpt>
      <trkpt lat="45.98984" lon="6.82655">
        <ele>2046</ele>
        <time>2022-07-15T14:21:42Z</time>
      </trkpt>
      <trkpt lat="45.98975" lon="6.82652">
        <ele>2046</ele>
        <time>2022-07-15T14:21:52Z</time>
      </trkpt>
      <trkpt lat="45.98969" lon="6.82642">
        <ele>2045</ele>
        <time>2022-07-15T14:22:01Z</time>
      </trkpt>
      <trkpt lat="45.98964" lon="6.82641">
        <ele>2045</ele>
        <time>2022-07-15T14:22:08Z</time>
      </trkpt>
      <trkpt lat="45.9896" lon="6.82635">
        <ele>2045</ele>
        <time>2022-07-15T14:22:12Z</time>
      </trkpt>
      <trkpt lat="45.98956" lon="6.82631">
        <ele>2044</ele>
        <time>2022-07-15T14:22:16Z</time>
      </trkpt>
      <trkpt lat="45.98948" lon="6.82625">
        <ele>2045</ele>
        <time>2022-07-15T14:22:23Z</time>
      </trkpt>
      <trkpt lat="45.98943" lon="6.82623">
        <ele>2046</ele>
        <time>2022-07-15T14:22:35Z</time>
      </trkpt>
      <trkpt lat="45.98938" lon="6.82622">
        <ele>2047</ele>
        <time>2022-07-15T14:22:40Z</time>
      </trkpt>
      <trkpt lat="45.98936" lon="6.82615">
        <ele>2047</ele>
        <time>2022-07-15T14:22:49Z</time>
      </trkpt>
      <trkpt lat="45.9893" lon="6.82611">
        <ele>2046</ele>
        <time>2022-07-15T14:22:54Z</time>
      </trkpt>
      <trkpt lat="45.98927" lon="6.826">
        <ele>2046</ele>
        <time>2022-07-15T14:23:02Z</time>
      </trkpt>
      <trkpt lat="45.98924" lon="6.82594">
        <ele>2045</ele>
        <time>2022-07-15T14:23:07Z</time>
      </trkpt>
      <trkpt lat="45.9892" lon="6.82591">
        <ele>2045</ele>
        <time>2022-07-15T14:23:10Z</time>
      </trkpt>
      <trkpt lat="45.98912" lon="6.82589">
        <ele>2046</ele>
        <time>2022-07-15T14:23:23Z</time>
      </trkpt>
      <trkpt lat="45.98905" lon="6.82589">
        <ele>2047</ele>
        <time>2022-07-15T14:23:33Z</time>
      </trkpt>
      <trkpt lat="45.98897" lon="6.82584">
        <ele>2048</ele>
        <time>2022-07-15T14:23:43Z</time>
      </trkpt>
      <trkpt lat="45.98889" lon="6.82584">
        <ele>2049</ele>
        <time>2022-07-15T14:23:53Z</time>
      </trkpt>
      <trkpt lat="45.98874" lon="6.8258">
        <ele>2050</ele>
        <time>2022-07-15T14:24:11Z</time>
      </trkpt>
      <trkpt lat="45.98869" lon="6.82574">
        <ele>2050</ele>
        <time>2022-07-15T14:24:16Z</time>
      </trkpt>
      <trkpt lat="45.98859" lon="6.82573">
        <ele>2051</ele>
        <time>2022-07-15T14:24:26Z</time>
      </trkpt>
      <trkpt lat="45.98854" lon="6.8257">
        <ele>2051</ele>
        <time>2022-07-15T14:24:31Z</time>
      </trkpt>
      <trkpt lat="45.98848" lon="6.82572">
        <ele>2053</ele>
        <time>2022-07-15T14:24:44Z</time>
      </trkpt>
      <trkpt lat="45.98842" lon="6.82572">
        <ele>2053</ele>
        <time>2022-07-15T14:24:52Z</time>
      </trkpt>
      <trkpt lat="45.98835" lon="6.82572">
        <ele>2055</ele>
        <time>2022-07-15T14:25:05Z</time>
      </trkpt>
      <trkpt lat="45.98825" lon="6.82566">
        <ele>2055</ele>
        <time>2022-07-15T14:25:18Z</time>
      </trkpt>
      <trkpt lat="45.98819" lon="6.82564">
        <ele>2054</ele>
        <time>2022-07-15T14:25:22Z</time>
      </trkpt>
      <trkpt lat="45.98816" lon="6.82567">
        <ele>2054</ele>
        <time>2022-07-15T14:25:27Z</time>
      </trkpt>
      <trkpt lat="45.9881" lon="6.82565">
        <ele>2055</ele>
        <time>2022-07-15T14:25:37Z</time>
      </trkpt>
      <trkpt lat="45.98803" lon="6.82564">
        <ele>2057</ele>
        <time>2022-07-15T14:25:47Z</time>
      </trkpt>
      <trkpt lat="45.98801" lon="6.82572">
        <ele>2058</ele>
        <time>2022-07-15T14:25:53Z</time>
      </trkpt>
      <trkpt lat="45.98795" lon="6.82576">
        <ele>2060</ele>
        <time>2022-07-15T14:26:04Z</time>
      </trkpt>
      <trkpt lat="45.98789" lon="6.82577">
        <ele>2061</ele>
        <time>2022-07-15T14:26:14Z</time>
      </trkpt>
      <trkpt lat="45.98785" lon="6.82576">
        <ele>2061</ele>
        <time>2022-07-15T14:26:18Z</time>
      </trkpt>
      <trkpt lat="45.9878" lon="6.8257">
        <ele>2062</ele>
        <time>2022-07-15T14:26:29Z</time>
      </trkpt>
      <trkpt lat="45.98777" lon="6.82562">
        <ele>2063</ele>
        <time>2022-07-15T14:26:35Z</time>
      </trkpt>
      <trkpt lat="45.98775" lon="6.82554">
        <ele>2063</ele>
        <time>2022-07-15T14:26:41Z</time>
      </trkpt>
      <trkpt lat="45.98773" lon="6.82549">
        <ele>2062</ele>
        <time>2022-07-15T14:26:44Z</time>
      </trkpt>
      <trkpt lat="45.98769" lon="6.82542">
        <ele>2062</ele>
        <time>2022-07-15T14:26:51Z</time>
      </trkpt>
      <trkpt lat="45.98768" lon="6.82537">
        <ele>2061</ele>
        <time>2022-07-15T14:26:55Z</time>
      </trkpt>
      <trkpt lat="45.98763" lon="6.82527">
        <ele>2061</ele>
        <time>2022-07-15T14:27:04Z</time>
      </trkpt>
      <trkpt lat="45.98758" lon="6.82524">
        <ele>2061</ele>
        <time>2022-07-15T14:27:10Z</time>
      </trkpt>
      <trkpt lat="45.98753" lon="6.82517">
        <ele>2061</ele>
        <time>2022-07-15T14:27:20Z</time>
      </trkpt>
      <trkpt lat="45.98751" lon="6.8251">
        <ele>2062</ele>
        <time>2022-07-15T14:27:24Z</time>
      </trkpt>
      <trkpt lat="45.9875" lon="6.82504">
        <ele>2062</ele>
        <time>2022-07-15T14:27:28Z</time>
      </trkpt>
      <trkpt lat="45.98746" lon="6.82498">
        <ele>2061</ele>
        <time>2022-07-15T14:27:34Z</time>
      </trkpt>
      <trkpt lat="45.98742" lon="6.82495">
        <ele>2061</ele>
        <time>2022-07-15T14:27:38Z</time>
      </trkpt>
      <trkpt lat="45.98737" lon="6.82493">
        <ele>2062</ele>
        <time>2022-07-15T14:27:49Z</time>
      </trkpt>
      <trkpt lat="45.98714" lon="6.8248">
        <ele>2065</ele>
        <time>2022-07-15T14:28:20Z</time>
      </trkpt>
      <trkpt lat="45.9871" lon="6.8248">
        <ele>2066</ele>
        <time>2022-07-15T14:28:29Z</time>
      </trkpt>
      <trkpt lat="45.98705" lon="6.82478">
        <ele>2067</ele>
        <time>2022-07-15T14:28:34Z</time>
      </trkpt>
      <trkpt lat="45.98699" lon="6.82479">
        <ele>2067</ele>
        <time>2022-07-15T14:28:43Z</time>
      </trkpt>
      <trkpt lat="45.98694" lon="6.82475">
        <ele>2068</ele>
        <time>2022-07-15T14:28:53Z</time>
      </trkpt>
      <trkpt lat="45.98688" lon="6.82472">
        <ele>2070</ele>
        <time>2022-07-15T14:29:04Z</time>
      </trkpt>
      <trkpt lat="45.98684" lon="6.82473">
        <ele>2070</ele>
        <time>2022-07-15T14:29:09Z</time>
      </trkpt>
      <trkpt lat="45.98677" lon="6.82471">
        <ele>2072</ele>
        <time>2022-07-15T14:29:23Z</time>
      </trkpt>
      <trkpt lat="45.98673" lon="6.8247">
        <ele>2072</ele>
        <time>2022-07-15T14:29:28Z</time>
      </trkpt>
      <trkpt lat="45.98668" lon="6.82463">
        <ele>2072</ele>
        <time>2022-07-15T14:29:35Z</time>
      </trkpt>
      <trkpt lat="45.98664" lon="6.82461">
        <ele>2072</ele>
        <time>2022-07-15T14:29:39Z</time>
      </trkpt>
      <trkpt lat="45.98659" lon="6.82458">
        <ele>2073</ele>
        <time>2022-07-15T14:29:53Z</time>
      </trkpt>
      <trkpt lat="45.98653" lon="6.82458">
        <ele>2075</ele>
        <time>2022-07-15T14:30:04Z</time>
      </trkpt>
      <trkpt lat="45.98646" lon="6.82454">
        <ele>2075</ele>
        <time>2022-07-15T14:30:07Z</time>
      </trkpt>
      <trkpt lat="45.98629" lon="6.82446">
        <ele>2077</ele>
        <time>2022-07-15T14:30:31Z</time>
      </trkpt>
      <trkpt lat="45.98627" lon="6.8244">
        <ele>2077</ele>
        <time>2022-07-15T14:30:36Z</time>
      </trkpt>
      <trkpt lat="45.98626" lon="6.82434">
        <ele>2077</ele>
        <time>2022-07-15T14:30:39Z</time>
      </trkpt>
      <trkpt lat="45.98621" lon="6.82437">
        <ele>2077</ele>
        <time>2022-07-15T14:30:44Z</time>
      </trkpt>
      <trkpt lat="45.98616" lon="6.82437">
        <ele>2077</ele>
        <time>2022-07-15T14:30:49Z</time>
      </trkpt>
      <trkpt lat="45.98612" lon="6.82429">
        <ele>2077</ele>
        <time>2022-07-15T14:30:56Z</time>
      </trkpt>
      <trkpt lat="45.98607" lon="6.82431">
        <ele>2077</ele>
        <time>2022-07-15T14:31:02Z</time>
      </trkpt>
      <trkpt lat="45.98601" lon="6.82424">
        <ele>2077</ele>
        <time>2022-07-15T14:31:11Z</time>
      </trkpt>
      <trkpt lat="45.98599" lon="6.82419">
        <ele>2077</ele>
        <time>2022-07-15T14:31:14Z</time>
      </trkpt>
      <trkpt lat="45.98593" lon="6.82416">
        <ele>2078</ele>
        <time>2022-07-15T14:31:21Z</time>
      </trkpt>
      <trkpt lat="45.98587" lon="6.82417">
        <ele>2079</ele>
        <time>2022-07-15T14:31:28Z</time>
      </trkpt>
      <trkpt lat="45.98582" lon="6.82421">
        <ele>2080</ele>
        <time>2022-07-15T14:31:35Z</time>
      </trkpt>
      <trkpt lat="45.98575" lon="6.82422">
        <ele>2080</ele>
        <time>2022-07-15T14:31:44Z</time>
      </trkpt>
      <trkpt lat="45.98569" lon="6.82417">
        <ele>2081</ele>
        <time>2022-07-15T14:31:55Z</time>
      </trkpt>
      <trkpt lat="45.98563" lon="6.8241">
        <ele>2082</ele>
        <time>2022-07-15T14:32:03Z</time>
      </trkpt>
      <trkpt lat="45.9856" lon="6.82399">
        <ele>2083</ele>
        <time>2022-07-15T14:32:11Z</time>
      </trkpt>
      <trkpt lat="45.98553" lon="6.82406">
        <ele>2083</ele>
        <time>2022-07-15T14:32:17Z</time>
      </trkpt>
      <trkpt lat="45.98546" lon="6.82402">
        <ele>2084</ele>
        <time>2022-07-15T14:32:25Z</time>
      </trkpt>
      <trkpt lat="45.98543" lon="6.82397">
        <ele>2085</ele>
        <time>2022-07-15T14:32:31Z</time>
      </trkpt>
      <trkpt lat="45.98538" lon="6.82395">
        <ele>2086</ele>
        <time>2022-07-15T14:32:39Z</time>
      </trkpt>
      <trkpt lat="45.98534" lon="6.8239">
        <ele>2086</ele>
        <time>2022-07-15T14:32:44Z</time>
      </trkpt>
      <trkpt lat="45.98522" lon="6.82387">
        <ele>2088</ele>
        <time>2022-07-15T14:33:01Z</time>
      </trkpt>
      <trkpt lat="45.98518" lon="6.82383">
        <ele>2088</ele>
        <time>2022-07-15T14:33:06Z</time>
      </trkpt>
      <trkpt lat="45.98514" lon="6.82386">
        <ele>2088</ele>
        <time>2022-07-15T14:33:12Z</time>
      </trkpt>
      <trkpt lat="45.98509" lon="6.82382">
        <ele>2088</ele>
        <time>2022-07-15T14:33:16Z</time>
      </trkpt>
      <trkpt lat="45.98505" lon="6.8238">
        <ele>2088</ele>
        <time>2022-07-15T14:33:23Z</time>
      </trkpt>
      <trkpt lat="45.98501" lon="6.82376">
        <ele>2089</ele>
        <time>2022-07-15T14:33:29Z</time>
      </trkpt>
      <trkpt lat="45.98498" lon="6.82371">
        <ele>2089</ele>
        <time>2022-07-15T14:33:33Z</time>
      </trkpt>
      <trkpt lat="45.98495" lon="6.82365">
        <ele>2090</ele>
        <time>2022-07-15T14:33:40Z</time>
      </trkpt>
      <trkpt lat="45.9849" lon="6.82359">
        <ele>2091</ele>
        <time>2022-07-15T14:33:50Z</time>
      </trkpt>
      <trkpt lat="45.98486" lon="6.82351">
        <ele>2092</ele>
        <time>2022-07-15T14:34:00Z</time>
      </trkpt>
      <trkpt lat="45.98479" lon="6.82351">
        <ele>2093</ele>
        <time>2022-07-15T14:34:08Z</time>
      </trkpt>
      <trkpt lat="45.98465" lon="6.82339">
        <ele>2092</ele>
        <time>2022-07-15T14:34:22Z</time>
      </trkpt>
      <trkpt lat="45.98459" lon="6.82337">
        <ele>2091</ele>
        <time>2022-07-15T14:34:29Z</time>
      </trkpt>
      <trkpt lat="45.98455" lon="6.82332">
        <ele>2091</ele>
        <time>2022-07-15T14:34:33Z</time>
      </trkpt>
      <trkpt lat="45.98448" lon="6.82323">
        <ele>2091</ele>
        <time>2022-07-15T14:34:42Z</time>
      </trkpt>
      <trkpt lat="45.98444" lon="6.82319">
        <ele>2091</ele>
        <time>2022-07-15T14:34:46Z</time>
      </trkpt>
      <trkpt lat="45.98441" lon="6.82315">
        <ele>2091</ele>
        <time>2022-07-15T14:34:50Z</time>
      </trkpt>
      <trkpt lat="45.98437" lon="6.82309">
        <ele>2091</ele>
        <time>2022-07-15T14:34:55Z</time>
      </trkpt>
      <trkpt lat="45.98431" lon="6.82306">
        <ele>2091</ele>
        <time>2022-07-15T14:35:02Z</time>
      </trkpt>
      <trkpt lat="45.98409" lon="6.82288">
        <ele>2094</ele>
        <time>2022-07-15T14:35:34Z</time>
      </trkpt>
      <trkpt lat="45.98407" lon="6.82284">
        <ele>2095</ele>
        <time>2022-07-15T14:35:41Z</time>
      </trkpt>
      <trkpt lat="45.98402" lon="6.82281">
        <ele>2095</ele>
        <time>2022-07-15T14:35:45Z</time>
      </trkpt>
      <trkpt lat="45.98398" lon="6.8228">
        <ele>2094</ele>
        <time>2022-07-15T14:35:50Z</time>
      </trkpt>
      <trkpt lat="45.98394" lon="6.82273">
        <ele>2094</ele>
        <time>2022-07-15T14:35:57Z</time>
      </trkpt>
      <trkpt lat="45.9839" lon="6.82269">
        <ele>2094</ele>
        <time>2022-07-15T14:35:59Z</time>
      </trkpt>
      <trkpt lat="45.98387" lon="6.8226">
        <ele>2095</ele>
        <time>2022-07-15T14:36:08Z</time>
      </trkpt>
      <trkpt lat="45.98386" lon="6.82254">
        <ele>2095</ele>
        <time>2022-07-15T14:36:13Z</time>
      </trkpt>
      <trkpt lat="45.98381" lon="6.82252">
        <ele>2095</ele>
        <time>2022-07-15T14:36:18Z</time>
      </trkpt>
      <trkpt lat="45.98377" lon="6.82246">
        <ele>2095</ele>
        <time>2022-07-15T14:36:25Z</time>
      </trkpt>
      <trkpt lat="45.98375" lon="6.82232">
        <ele>2095</ele>
        <time>2022-07-15T14:36:37Z</time>
      </trkpt>
      <trkpt lat="45.98375" lon="6.82221">
        <ele>2095</ele>
        <time>2022-07-15T14:36:47Z</time>
      </trkpt>
      <trkpt lat="45.98376" lon="6.82214">
        <ele>2096</ele>
        <time>2022-07-15T14:36:54Z</time>
      </trkpt>
      <trkpt lat="45.98374" lon="6.82202">
        <ele>2097</ele>
        <time>2022-07-15T14:37:04Z</time>
      </trkpt>
      <trkpt lat="45.98375" lon="6.82183">
        <ele>2098</ele>
        <time>2022-07-15T14:37:21Z</time>
      </trkpt>
      <trkpt lat="45.98376" lon="6.82174">
        <ele>2098</ele>
        <time>2022-07-15T14:37:29Z</time>
      </trkpt>
      <trkpt lat="45.98373" lon="6.82169">
        <ele>2098</ele>
        <time>2022-07-15T14:37:34Z</time>
      </trkpt>
      <trkpt lat="45.98375" lon="6.82161">
        <ele>2098</ele>
        <time>2022-07-15T14:37:42Z</time>
      </trkpt>
      <trkpt lat="45.98379" lon="6.82155">
        <ele>2097</ele>
        <time>2022-07-15T14:37:46Z</time>
      </trkpt>
      <trkpt lat="45.98386" lon="6.82149">
        <ele>2097</ele>
        <time>2022-07-15T14:37:55Z</time>
      </trkpt>
      <trkpt lat="45.9839" lon="6.8214">
        <ele>2097</ele>
        <time>2022-07-15T14:38:03Z</time>
      </trkpt>
      <trkpt lat="45.98392" lon="6.82127">
        <ele>2097</ele>
        <time>2022-07-15T14:38:12Z</time>
      </trkpt>
      <trkpt lat="45.98394" lon="6.82121">
        <ele>2097</ele>
        <time>2022-07-15T14:38:17Z</time>
      </trkpt>
      <trkpt lat="45.98395" lon="6.82113">
        <ele>2097</ele>
        <time>2022-07-15T14:38:23Z</time>
      </trkpt>
      <trkpt lat="45.98392" lon="6.82105">
        <ele>2097</ele>
        <time>2022-07-15T14:38:29Z</time>
      </trkpt>
      <trkpt lat="45.9839" lon="6.82088">
        <ele>2097</ele>
        <time>2022-07-15T14:38:44Z</time>
      </trkpt>
      <trkpt lat="45.98389" lon="6.82082">
        <ele>2098</ele>
        <time>2022-07-15T14:38:49Z</time>
      </trkpt>
      <trkpt lat="45.9839" lon="6.8207">
        <ele>2098</ele>
        <time>2022-07-15T14:38:59Z</time>
      </trkpt>
      <trkpt lat="45.98393" lon="6.82062">
        <ele>2098</ele>
        <time>2022-07-15T14:39:08Z</time>
      </trkpt>
      <trkpt lat="45.98397" lon="6.82048">
        <ele>2099</ele>
        <time>2022-07-15T14:39:20Z</time>
      </trkpt>
      <trkpt lat="45.98401" lon="6.82033">
        <ele>2099</ele>
        <time>2022-07-15T14:39:33Z</time>
      </trkpt>
      <trkpt lat="45.98406" lon="6.82033">
        <ele>2099</ele>
        <time>2022-07-15T14:39:48Z</time>
      </trkpt>
      <trkpt lat="45.98411" lon="6.82026">
        <ele>2100</ele>
        <time>2022-07-15T14:39:57Z</time>
      </trkpt>
      <trkpt lat="45.98414" lon="6.8202">
        <ele>2100</ele>
        <time>2022-07-15T14:40:02Z</time>
      </trkpt>
      <trkpt lat="45.9842" lon="6.8202">
        <ele>2100</ele>
        <time>2022-07-15T14:40:10Z</time>
      </trkpt>
      <trkpt lat="45.98424" lon="6.8201">
        <ele>2100</ele>
        <time>2022-07-15T14:40:20Z</time>
      </trkpt>
      <trkpt lat="45.98428" lon="6.82005">
        <ele>2101</ele>
        <time>2022-07-15T14:40:37Z</time>
      </trkpt>
      <trkpt lat="45.98433" lon="6.82005">
        <ele>2100</ele>
        <time>2022-07-15T14:42:35Z</time>
      </trkpt>
      <trkpt lat="45.98431" lon="6.82004">
        <ele>2100</ele>
        <time>2022-07-15T14:54:44Z</time>
      </trkpt>
      <trkpt lat="45.98433" lon="6.82004">
        <ele>2100</ele>
        <time>2022-07-15T14:57:26Z</time>
      </trkpt>
    </trkseg>
  </trk>
  <trk>
    <name><![CDATA[13 juin 2022 à 13:29:11]]></name>
    <cmt><![CDATA[13 juin 2022 à 13:29:11]]></cmt>
    <trkseg>
      <trkpt lat="45.35987" lon="5.79999">
        <ele>1209</ele>
        <time>2022-06-13T11:29:12Z</time>
      </trkpt>
      <trkpt lat="45.35907" lon="5.79883">
        <ele>1190</ele>
        <time>2022-06-13T11:32:58Z</time>
      </trkpt>
      <trkpt lat="45.35882" lon="5.79881">
        <ele>1184</ele>
        <time>2022-06-13T11:32:59Z</time>
      </trkpt>
      <trkpt lat="45.35889" lon="5.79878">
        <ele>1181</ele>
        <time>2022-06-13T11:33:02Z</time>
      </trkpt>
      <trkpt lat="45.35892" lon="5.79881">
        <ele>1180</ele>
        <time>2022-06-13T11:33:09Z</time>
      </trkpt>
      <trkpt lat="45.35843" lon="5.79752">
        <ele>1171</ele>
        <time>2022-06-13T11:35:07Z</time>
      </trkpt>
      <trkpt lat="45.35851" lon="5.79743">
        <ele>1166</ele>
        <time>2022-06-13T11:35:10Z</time>
      </trkpt>
      <trkpt lat="45.35851" lon="5.79736">
        <ele>1164</ele>
        <time>2022-06-13T11:35:12Z</time>
      </trkpt>
      <trkpt lat="45.35848" lon="5.7972">
        <ele>1163</ele>
        <time>2022-06-13T11:35:19Z</time>
      </trkpt>
      <trkpt lat="45.35848" lon="5.7971">
        <ele>1162</ele>
        <time>2022-06-13T11:35:26Z</time>
      </trkpt>
      <trkpt lat="45.35848" lon="5.79704">
        <ele>1154</ele>
        <time>2022-06-13T11:35:40Z</time>
      </trkpt>
      <trkpt lat="45.3561" lon="5.79488">
        <ele>1151</ele>
        <time>2022-06-13T11:40:08Z</time>
      </trkpt>
      <trkpt lat="45.35622" lon="5.7948">
        <ele>1151</ele>
        <time>2022-06-13T11:40:10Z</time>
      </trkpt>
    </trkseg>
  </trk>
  <trk>
    <name><![CDATA[13 juin 2022 à 07:59:12]]></name>
    <cmt><![CDATA[13 juin 2022 à 07:59:12]]></cmt>
    <trkseg>
      <trkpt lat="45.3517" lon="5.78929">
        <ele>854</ele>
        <time>2022-06-13T05:59:13Z</time>
      </trkpt>
      <trkpt lat="45.35173" lon="5.78922">
        <ele>854</ele>
        <time>2022-06-13T05:59:14Z</time>
      </trkpt>
      <trkpt lat="45.35181" lon="5.78924">
        <ele>853</ele>
        <time>2022-06-13T05:59:16Z</time>
      </trkpt>
      <trkpt lat="45.35182" lon="5.78918">
        <ele>853</ele>
        <time>2022-06-13T05:59:18Z</time>
      </trkpt>
      <trkpt lat="45.35188" lon="5.78917">
        <ele>853</ele>
        <time>2022-06-13T05:59:20Z</time>
      </trkpt>
      <trkpt lat="45.35192" lon="5.78917">
        <ele>854</ele>
        <time>2022-06-13T05:59:24Z</time>
      </trkpt>
      <trkpt lat="45.35199" lon="5.78913">
        <ele>856</ele>
        <time>2022-06-13T05:59:32Z</time>
      </trkpt>
      <trkpt lat="45.35205" lon="5.78913">
        <ele>856</ele>
        <time>2022-06-13T05:59:36Z</time>
      </trkpt>
      <trkpt lat="45.3521" lon="5.78914">
        <ele>855</ele>
        <time>2022-06-13T05:59:41Z</time>
      </trkpt>
      <trkpt lat="45.35215" lon="5.78914">
        <ele>854</ele>
        <time>2022-06-13T05:59:44Z</time>
      </trkpt>
      <trkpt lat="45.3522" lon="5.78911">
        <ele>854</ele>
        <time>2022-06-13T05:59:48Z</time>
      </trkpt>
      <trkpt lat="45.35225" lon="5.7891">
        <ele>854</ele>
        <time>2022-06-13T05:59:51Z</time>
      </trkpt>
      <trkpt lat="45.3523" lon="5.78909">
        <ele>851</ele>
        <time>2022-06-13T05:59:54Z</time>
      </trkpt>
      <trkpt lat="45.35244" lon="5.78907">
        <ele>851</ele>
        <time>2022-06-13T06:00:04Z</time>
      </trkpt>
      <trkpt lat="45.35248" lon="5.78908">
        <ele>851</ele>
        <time>2022-06-13T06:00:08Z</time>
      </trkpt>
      <trkpt lat="45.35263" lon="5.7892">
        <ele>852</ele>
        <time>2022-06-13T06:00:22Z</time>
      </trkpt>
      <trkpt lat="45.35277" lon="5.7892">
        <ele>852</ele>
        <time>2022-06-13T06:00:33Z</time>
      </trkpt>
      <trkpt lat="45.35294" lon="5.78916">
        <ele>852</ele>
        <time>2022-06-13T06:00:47Z</time>
      </trkpt>
      <trkpt lat="45.353" lon="5.78919">
        <ele>853</ele>
        <time>2022-06-13T06:00:52Z</time>
      </trkpt>
      <trkpt lat="45.35305" lon="5.78921">
        <ele>853</ele>
        <time>2022-06-13T06:00:56Z</time>
      </trkpt>
      <trkpt lat="45.3531" lon="5.78923">
        <ele>853</ele>
        <time>2022-06-13T06:01:00Z</time>
      </trkpt>
      <trkpt lat="45.35319" lon="5.78931">
        <ele>854</ele>
        <time>2022-06-13T06:01:08Z</time>
      </trkpt>
      <trkpt lat="45.35325" lon="5.78932">
        <ele>855</ele>
        <time>2022-06-13T06:01:16Z</time>
      </trkpt>
      <trkpt lat="45.35334" lon="5.78938">
        <ele>855</ele>
        <time>2022-06-13T06:01:25Z</time>
      </trkpt>
      <trkpt lat="45.35344" lon="5.78941">
        <ele>857</ele>
        <time>2022-06-13T06:01:34Z</time>
      </trkpt>
      <trkpt lat="45.35355" lon="5.78952">
        <ele>858</ele>
        <time>2022-06-13T06:01:46Z</time>
      </trkpt>
      <trkpt lat="45.35362" lon="5.78953">
        <ele>858</ele>
        <time>2022-06-13T06:01:51Z</time>
      </trkpt>
      <trkpt lat="45.35371" lon="5.78964">
        <ele>860</ele>
        <time>2022-06-13T06:02:02Z</time>
      </trkpt>
      <trkpt lat="45.35383" lon="5.78963">
        <ele>861</ele>
        <time>2022-06-13T06:02:11Z</time>
      </trkpt>
      <trkpt lat="45.35395" lon="5.78968">
        <ele>862</ele>
        <time>2022-06-13T06:02:22Z</time>
      </trkpt>
      <trkpt lat="45.3541" lon="5.78985">
        <ele>863</ele>
        <time>2022-06-13T06:02:38Z</time>
      </trkpt>
      <trkpt lat="45.35418" lon="5.78989">
        <ele>864</ele>
        <time>2022-06-13T06:02:46Z</time>
      </trkpt>
      <trkpt lat="45.35428" lon="5.78999">
        <ele>866</ele>
        <time>2022-06-13T06:02:57Z</time>
      </trkpt>
      <trkpt lat="45.3545" lon="5.79008">
        <ele>868</ele>
        <time>2022-06-13T06:03:16Z</time>
      </trkpt>
      <trkpt lat="45.35456" lon="5.7901">
        <ele>868</ele>
        <time>2022-06-13T06:03:21Z</time>
      </trkpt>
      <trkpt lat="45.35464" lon="5.79014">
        <ele>869</ele>
        <time>2022-06-13T06:03:27Z</time>
      </trkpt>
      <trkpt lat="45.35469" lon="5.79015">
        <ele>869</ele>
        <time>2022-06-13T06:03:31Z</time>
      </trkpt>
      <trkpt lat="45.35473" lon="5.79019">
        <ele>870</ele>
        <time>2022-06-13T06:03:35Z</time>
      </trkpt>
      <trkpt lat="45.35489" lon="5.79024">
        <ele>871</ele>
        <time>2022-06-13T06:03:50Z</time>
      </trkpt>
      <trkpt lat="45.35494" lon="5.79027">
        <ele>871</ele>
        <time>2022-06-13T06:03:54Z</time>
      </trkpt>
      <trkpt lat="45.3552" lon="5.79033">
        <ele>874</ele>
        <time>2022-06-13T06:04:18Z</time>
      </trkpt>
      <trkpt lat="45.35525" lon="5.79032">
        <ele>874</ele>
        <time>2022-06-13T06:04:23Z</time>
      </trkpt>
      <trkpt lat="45.35535" lon="5.79035">
        <ele>875</ele>
        <time>2022-06-13T06:04:31Z</time>
      </trkpt>
      <trkpt lat="45.35539" lon="5.79038">
        <ele>875</ele>
        <time>2022-06-13T06:04:35Z</time>
      </trkpt>
      <trkpt lat="45.35544" lon="5.79039">
        <ele>876</ele>
        <time>2022-06-13T06:04:39Z</time>
      </trkpt>
      <trkpt lat="45.35546" lon="5.79044">
        <ele>876</ele>
        <time>2022-06-13T06:04:42Z</time>
      </trkpt>
      <trkpt lat="45.35552" lon="5.79043">
        <ele>876</ele>
        <time>2022-06-13T06:04:47Z</time>
      </trkpt>
      <trkpt lat="45.35556" lon="5.79048">
        <ele>877</ele>
        <time>2022-06-13T06:04:50Z</time>
      </trkpt>
      <trkpt lat="45.35558" lon="5.79054">
        <ele>877</ele>
        <time>2022-06-13T06:04:53Z</time>
      </trkpt>
      <trkpt lat="45.35563" lon="5.79055">
        <ele>877</ele>
        <time>2022-06-13T06:04:58Z</time>
      </trkpt>
      <trkpt lat="45.35568" lon="5.79053">
        <ele>878</ele>
        <time>2022-06-13T06:05:02Z</time>
      </trkpt>
      <trkpt lat="45.35577" lon="5.79055">
        <ele>878</ele>
        <time>2022-06-13T06:05:09Z</time>
      </trkpt>
      <trkpt lat="45.35582" lon="5.79056">
        <ele>879</ele>
        <time>2022-06-13T06:05:13Z</time>
      </trkpt>
      <trkpt lat="45.35592" lon="5.79056">
        <ele>879</ele>
        <time>2022-06-13T06:05:20Z</time>
      </trkpt>
      <trkpt lat="45.35596" lon="5.79058">
        <ele>879</ele>
        <time>2022-06-13T06:05:23Z</time>
      </trkpt>
      <trkpt lat="45.35601" lon="5.79058">
        <ele>880</ele>
        <time>2022-06-13T06:05:27Z</time>
      </trkpt>
      <trkpt lat="45.35612" lon="5.79062">
        <ele>880</ele>
        <time>2022-06-13T06:05:32Z</time>
      </trkpt>
      <trkpt lat="45.35617" lon="5.7906">
        <ele>881</ele>
        <time>2022-06-13T06:05:40Z</time>
      </trkpt>
      <trkpt lat="45.35621" lon="5.79062">
        <ele>881</ele>
        <time>2022-06-13T06:05:44Z</time>
      </trkpt>
      <trkpt lat="45.35631" lon="5.79061">
        <ele>881</ele>
        <time>2022-06-13T06:05:52Z</time>
      </trkpt>
      <trkpt lat="45.35636" lon="5.79058">
        <ele>882</ele>
        <time>2022-06-13T06:05:56Z</time>
      </trkpt>
      <trkpt lat="45.35645" lon="5.79058">
        <ele>882</ele>
        <time>2022-06-13T06:06:01Z</time>
      </trkpt>
      <trkpt lat="45.35649" lon="5.7906">
        <ele>882</ele>
        <time>2022-06-13T06:06:04Z</time>
      </trkpt>
      <trkpt lat="45.35663" lon="5.79058">
        <ele>883</ele>
        <time>2022-06-13T06:06:16Z</time>
      </trkpt>
      <trkpt lat="45.35672" lon="5.7906">
        <ele>884</ele>
        <time>2022-06-13T06:06:23Z</time>
      </trkpt>
      <trkpt lat="45.35682" lon="5.7906">
        <ele>885</ele>
        <time>2022-06-13T06:06:33Z</time>
      </trkpt>
      <trkpt lat="45.35711" lon="5.79069">
        <ele>886</ele>
        <time>2022-06-13T06:06:56Z</time>
      </trkpt>
      <trkpt lat="45.35741" lon="5.79069">
        <ele>889</ele>
        <time>2022-06-13T06:07:21Z</time>
      </trkpt>
      <trkpt lat="45.35745" lon="5.7907">
        <ele>889</ele>
        <time>2022-06-13T06:07:26Z</time>
      </trkpt>
      <trkpt lat="45.3575" lon="5.7907">
        <ele>890</ele>
        <time>2022-06-13T06:07:30Z</time>
      </trkpt>
      <trkpt lat="45.35759" lon="5.79073">
        <ele>890</ele>
        <time>2022-06-13T06:07:38Z</time>
      </trkpt>
      <trkpt lat="45.3578" lon="5.79073">
        <ele>892</ele>
        <time>2022-06-13T06:07:55Z</time>
      </trkpt>
      <trkpt lat="45.35791" lon="5.79075">
        <ele>893</ele>
        <time>2022-06-13T06:08:03Z</time>
      </trkpt>
      <trkpt lat="45.35795" lon="5.79074">
        <ele>893</ele>
        <time>2022-06-13T06:08:09Z</time>
      </trkpt>
      <trkpt lat="45.35801" lon="5.79074">
        <ele>894</ele>
        <time>2022-06-13T06:08:14Z</time>
      </trkpt>
      <trkpt lat="45.35805" lon="5.79073">
        <ele>894</ele>
        <time>2022-06-13T06:08:17Z</time>
      </trkpt>
      <trkpt lat="45.3581" lon="5.79074">
        <ele>894</ele>
        <time>2022-06-13T06:08:21Z</time>
      </trkpt>
      <trkpt lat="45.35816" lon="5.79073">
        <ele>895</ele>
        <time>2022-06-13T06:08:25Z</time>
      </trkpt>
      <trkpt lat="45.35827" lon="5.79078">
        <ele>895</ele>
        <time>2022-06-13T06:08:35Z</time>
      </trkpt>
      <trkpt lat="45.3583" lon="5.79081">
        <ele>896</ele>
        <time>2022-06-13T06:08:39Z</time>
      </trkpt>
      <trkpt lat="45.35837" lon="5.79084">
        <ele>896</ele>
        <time>2022-06-13T06:08:46Z</time>
      </trkpt>
      <trkpt lat="45.35851" lon="5.79093">
        <ele>897</ele>
        <time>2022-06-13T06:08:58Z</time>
      </trkpt>
      <trkpt lat="45.35861" lon="5.79096">
        <ele>897</ele>
        <time>2022-06-13T06:09:05Z</time>
      </trkpt>
      <trkpt lat="45.35865" lon="5.791">
        <ele>897</ele>
        <time>2022-06-13T06:09:10Z</time>
      </trkpt>
      <trkpt lat="45.35884" lon="5.79106">
        <ele>898</ele>
        <time>2022-06-13T06:09:25Z</time>
      </trkpt>
      <trkpt lat="45.35903" lon="5.79109">
        <ele>899</ele>
        <time>2022-06-13T06:09:41Z</time>
      </trkpt>
      <trkpt lat="45.35907" lon="5.79112">
        <ele>899</ele>
        <time>2022-06-13T06:09:44Z</time>
      </trkpt>
      <trkpt lat="45.3591" lon="5.79116">
        <ele>900</ele>
        <time>2022-06-13T06:09:48Z</time>
      </trkpt>
      <trkpt lat="45.35915" lon="5.79115">
        <ele>900</ele>
        <time>2022-06-13T06:09:51Z</time>
      </trkpt>
      <trkpt lat="45.3593" lon="5.79118">
        <ele>900</ele>
        <time>2022-06-13T06:10:04Z</time>
      </trkpt>
      <trkpt lat="45.35947" lon="5.79127">
        <ele>901</ele>
        <time>2022-06-13T06:10:18Z</time>
      </trkpt>
      <trkpt lat="45.35951" lon="5.79128">
        <ele>902</ele>
        <time>2022-06-13T06:10:21Z</time>
      </trkpt>
      <trkpt lat="45.35956" lon="5.79127">
        <ele>902</ele>
        <time>2022-06-13T06:10:25Z</time>
      </trkpt>
      <trkpt lat="45.35959" lon="5.79132">
        <ele>902</ele>
        <time>2022-06-13T06:10:43Z</time>
      </trkpt>
      <trkpt lat="45.35963" lon="5.79126">
        <ele>903</ele>
        <time>2022-06-13T06:11:13Z</time>
      </trkpt>
      <trkpt lat="45.35976" lon="5.79124">
        <ele>903</ele>
        <time>2022-06-13T06:11:27Z</time>
      </trkpt>
      <trkpt lat="45.35989" lon="5.79128">
        <ele>904</ele>
        <time>2022-06-13T06:11:39Z</time>
      </trkpt>
      <trkpt lat="45.35997" lon="5.79134">
        <ele>904</ele>
        <time>2022-06-13T06:11:49Z</time>
      </trkpt>
      <trkpt lat="45.36032" lon="5.79143">
        <ele>905</ele>
        <time>2022-06-13T06:12:14Z</time>
      </trkpt>
      <trkpt lat="45.36036" lon="5.79146">
        <ele>905</ele>
        <time>2022-06-13T06:12:18Z</time>
      </trkpt>
      <trkpt lat="45.36054" lon="5.79155">
        <ele>906</ele>
        <time>2022-06-13T06:12:35Z</time>
      </trkpt>
      <trkpt lat="45.36057" lon="5.79159">
        <ele>906</ele>
        <time>2022-06-13T06:12:39Z</time>
      </trkpt>
      <trkpt lat="45.36075" lon="5.79169">
        <ele>907</ele>
        <time>2022-06-13T06:12:55Z</time>
      </trkpt>
      <trkpt lat="45.3608" lon="5.7917">
        <ele>908</ele>
        <time>2022-06-13T06:12:59Z</time>
      </trkpt>
      <trkpt lat="45.36085" lon="5.79169">
        <ele>908</ele>
        <time>2022-06-13T06:13:03Z</time>
      </trkpt>
      <trkpt lat="45.36103" lon="5.79179">
        <ele>909</ele>
        <time>2022-06-13T06:13:17Z</time>
      </trkpt>
      <trkpt lat="45.36109" lon="5.79179">
        <ele>909</ele>
        <time>2022-06-13T06:13:21Z</time>
      </trkpt>
      <trkpt lat="45.3613" lon="5.79171">
        <ele>910</ele>
        <time>2022-06-13T06:13:37Z</time>
      </trkpt>
      <trkpt lat="45.36135" lon="5.79173">
        <ele>910</ele>
        <time>2022-06-13T06:13:43Z</time>
      </trkpt>
      <trkpt lat="45.3614" lon="5.79174">
        <ele>911</ele>
        <time>2022-06-13T06:13:47Z</time>
      </trkpt>
      <trkpt lat="45.36156" lon="5.79172">
        <ele>911</ele>
        <time>2022-06-13T06:13:59Z</time>
      </trkpt>
      <trkpt lat="45.3616" lon="5.79169">
        <ele>912</ele>
        <time>2022-06-13T06:14:02Z</time>
      </trkpt>
      <trkpt lat="45.36176" lon="5.79169">
        <ele>912</ele>
        <time>2022-06-13T06:14:15Z</time>
      </trkpt>
      <trkpt lat="45.36184" lon="5.79167">
        <ele>913</ele>
        <time>2022-06-13T06:14:22Z</time>
      </trkpt>
      <trkpt lat="45.36189" lon="5.79167">
        <ele>913</ele>
        <time>2022-06-13T06:14:27Z</time>
      </trkpt>
      <trkpt lat="45.36199" lon="5.79165">
        <ele>914</ele>
        <time>2022-06-13T06:14:36Z</time>
      </trkpt>
      <trkpt lat="45.36207" lon="5.7916">
        <ele>915</ele>
        <time>2022-06-13T06:14:43Z</time>
      </trkpt>
      <trkpt lat="45.36212" lon="5.79162">
        <ele>915</ele>
        <time>2022-06-13T06:14:47Z</time>
      </trkpt>
      <trkpt lat="45.36222" lon="5.79161">
        <ele>916</ele>
        <time>2022-06-13T06:14:56Z</time>
      </trkpt>
      <trkpt lat="45.36227" lon="5.79156">
        <ele>917</ele>
        <time>2022-06-13T06:15:00Z</time>
      </trkpt>
      <trkpt lat="45.36237" lon="5.79152">
        <ele>918</ele>
        <time>2022-06-13T06:15:07Z</time>
      </trkpt>
      <trkpt lat="45.36252" lon="5.79152">
        <ele>920</ele>
        <time>2022-06-13T06:15:21Z</time>
      </trkpt>
      <trkpt lat="45.36257" lon="5.79155">
        <ele>921</ele>
        <time>2022-06-13T06:15:26Z</time>
      </trkpt>
      <trkpt lat="45.36282" lon="5.79158">
        <ele>924</ele>
        <time>2022-06-13T06:15:48Z</time>
      </trkpt>
      <trkpt lat="45.36292" lon="5.79155">
        <ele>926</ele>
        <time>2022-06-13T06:15:57Z</time>
      </trkpt>
      <trkpt lat="45.36297" lon="5.79156">
        <ele>926</ele>
        <time>2022-06-13T06:16:01Z</time>
      </trkpt>
      <trkpt lat="45.36319" lon="5.79156">
        <ele>930</ele>
        <time>2022-06-13T06:16:23Z</time>
      </trkpt>
      <trkpt lat="45.3634" lon="5.79167">
        <ele>933</ele>
        <time>2022-06-13T06:16:46Z</time>
      </trkpt>
      <trkpt lat="45.36358" lon="5.79191">
        <ele>937</ele>
        <time>2022-06-13T06:17:12Z</time>
      </trkpt>
      <trkpt lat="45.36366" lon="5.79197">
        <ele>939</ele>
        <time>2022-06-13T06:17:21Z</time>
      </trkpt>
      <trkpt lat="45.36375" lon="5.79204">
        <ele>940</ele>
        <time>2022-06-13T06:17:31Z</time>
      </trkpt>
      <trkpt lat="45.3639" lon="5.79212">
        <ele>943</ele>
        <time>2022-06-13T06:17:47Z</time>
      </trkpt>
      <trkpt lat="45.36411" lon="5.79217">
        <ele>946</ele>
        <time>2022-06-13T06:18:09Z</time>
      </trkpt>
      <trkpt lat="45.36416" lon="5.7922">
        <ele>947</ele>
        <time>2022-06-13T06:18:13Z</time>
      </trkpt>
      <trkpt lat="45.36431" lon="5.79232">
        <ele>950</ele>
        <time>2022-06-13T06:18:33Z</time>
      </trkpt>
      <trkpt lat="45.36436" lon="5.79231">
        <ele>951</ele>
        <time>2022-06-13T06:18:37Z</time>
      </trkpt>
      <trkpt lat="45.36449" lon="5.79241">
        <ele>954</ele>
        <time>2022-06-13T06:18:51Z</time>
      </trkpt>
      <trkpt lat="45.36456" lon="5.79244">
        <ele>955</ele>
        <time>2022-06-13T06:18:59Z</time>
      </trkpt>
      <trkpt lat="45.36462" lon="5.79266">
        <ele>958</ele>
        <time>2022-06-13T06:19:12Z</time>
      </trkpt>
      <trkpt lat="45.36473" lon="5.79285">
        <ele>960</ele>
        <time>2022-06-13T06:19:29Z</time>
      </trkpt>
      <trkpt lat="45.36476" lon="5.79293">
        <ele>961</ele>
        <time>2022-06-13T06:19:36Z</time>
      </trkpt>
      <trkpt lat="45.36475" lon="5.79299">
        <ele>962</ele>
        <time>2022-06-13T06:19:40Z</time>
      </trkpt>
      <trkpt lat="45.36482" lon="5.79308">
        <ele>963</ele>
        <time>2022-06-13T06:19:49Z</time>
      </trkpt>
      <trkpt lat="45.36486" lon="5.7931">
        <ele>964</ele>
        <time>2022-06-13T06:19:53Z</time>
      </trkpt>
      <trkpt lat="45.36493" lon="5.79319">
        <ele>965</ele>
        <time>2022-06-13T06:20:01Z</time>
      </trkpt>
      <trkpt lat="45.36503" lon="5.79324">
        <ele>966</ele>
        <time>2022-06-13T06:20:09Z</time>
      </trkpt>
      <trkpt lat="45.36521" lon="5.7933">
        <ele>968</ele>
        <time>2022-06-13T06:20:24Z</time>
      </trkpt>
      <trkpt lat="45.36526" lon="5.79339">
        <ele>969</ele>
        <time>2022-06-13T06:20:33Z</time>
      </trkpt>
      <trkpt lat="45.3653" lon="5.79344">
        <ele>970</ele>
        <time>2022-06-13T06:20:38Z</time>
      </trkpt>
      <trkpt lat="45.36539" lon="5.79346">
        <ele>971</ele>
        <time>2022-06-13T06:20:47Z</time>
      </trkpt>
      <trkpt lat="45.36552" lon="5.79353">
        <ele>973</ele>
        <time>2022-06-13T06:21:00Z</time>
      </trkpt>
      <trkpt lat="45.36557" lon="5.79353">
        <ele>974</ele>
        <time>2022-06-13T06:21:04Z</time>
      </trkpt>
      <trkpt lat="45.36562" lon="5.79355">
        <ele>974</ele>
        <time>2022-06-13T06:21:08Z</time>
      </trkpt>
      <trkpt lat="45.36579" lon="5.79353">
        <ele>976</ele>
        <time>2022-06-13T06:21:23Z</time>
      </trkpt>
      <trkpt lat="45.36599" lon="5.79355">
        <ele>978</ele>
        <time>2022-06-13T06:21:39Z</time>
      </trkpt>
      <trkpt lat="45.36606" lon="5.79357">
        <ele>978</ele>
        <time>2022-06-13T06:21:46Z</time>
      </trkpt>
      <trkpt lat="45.36611" lon="5.79353">
        <ele>979</ele>
        <time>2022-06-13T06:21:49Z</time>
      </trkpt>
      <trkpt lat="45.36613" lon="5.79348">
        <ele>979</ele>
        <time>2022-06-13T06:21:53Z</time>
      </trkpt>
      <trkpt lat="45.36625" lon="5.79348">
        <ele>980</ele>
        <time>2022-06-13T06:22:03Z</time>
      </trkpt>
      <trkpt lat="45.36636" lon="5.79342">
        <ele>981</ele>
        <time>2022-06-13T06:22:10Z</time>
      </trkpt>
      <trkpt lat="45.36652" lon="5.7935">
        <ele>982</ele>
        <time>2022-06-13T06:22:28Z</time>
      </trkpt>
      <trkpt lat="45.36657" lon="5.79346">
        <ele>982</ele>
        <time>2022-06-13T06:22:33Z</time>
      </trkpt>
      <trkpt lat="45.36674" lon="5.79343">
        <ele>984</ele>
        <time>2022-06-13T06:22:47Z</time>
      </trkpt>
      <trkpt lat="45.36678" lon="5.79338">
        <ele>985</ele>
        <time>2022-06-13T06:22:52Z</time>
      </trkpt>
      <trkpt lat="45.36682" lon="5.79336">
        <ele>986</ele>
        <time>2022-06-13T06:22:56Z</time>
      </trkpt>
      <trkpt lat="45.36688" lon="5.79331">
        <ele>987</ele>
        <time>2022-06-13T06:23:03Z</time>
      </trkpt>
      <trkpt lat="45.36708" lon="5.79326">
        <ele>990</ele>
        <time>2022-06-13T06:23:22Z</time>
      </trkpt>
      <trkpt lat="45.36709" lon="5.79336">
        <ele>991</ele>
        <time>2022-06-13T06:23:27Z</time>
      </trkpt>
      <trkpt lat="45.36723" lon="5.79335">
        <ele>993</ele>
        <time>2022-06-13T06:23:43Z</time>
      </trkpt>
      <trkpt lat="45.36727" lon="5.79332">
        <ele>994</ele>
        <time>2022-06-13T06:23:46Z</time>
      </trkpt>
      <trkpt lat="45.36736" lon="5.79336">
        <ele>996</ele>
        <time>2022-06-13T06:23:58Z</time>
      </trkpt>
      <trkpt lat="45.36742" lon="5.79336">
        <ele>997</ele>
        <time>2022-06-13T06:24:04Z</time>
      </trkpt>
      <trkpt lat="45.36754" lon="5.79328">
        <ele>1000</ele>
        <time>2022-06-13T06:24:19Z</time>
      </trkpt>
      <trkpt lat="45.36759" lon="5.7933">
        <ele>1000</ele>
        <time>2022-06-13T06:24:24Z</time>
      </trkpt>
      <trkpt lat="45.36766" lon="5.79337">
        <ele>1002</ele>
        <time>2022-06-13T06:24:34Z</time>
      </trkpt>
      <trkpt lat="45.36774" lon="5.79339">
        <ele>1005</ele>
        <time>2022-06-13T06:24:46Z</time>
      </trkpt>
      <trkpt lat="45.36784" lon="5.79343">
        <ele>1006</ele>
        <time>2022-06-13T06:24:56Z</time>
      </trkpt>
      <trkpt lat="45.36787" lon="5.79346">
        <ele>1007</ele>
        <time>2022-06-13T06:24:59Z</time>
      </trkpt>
      <trkpt lat="45.36792" lon="5.79352">
        <ele>1008</ele>
        <time>2022-06-13T06:25:06Z</time>
      </trkpt>
      <trkpt lat="45.36801" lon="5.79353">
        <ele>1010</ele>
        <time>2022-06-13T06:25:16Z</time>
      </trkpt>
      <trkpt lat="45.36807" lon="5.7936">
        <ele>1012</ele>
        <time>2022-06-13T06:25:25Z</time>
      </trkpt>
      <trkpt lat="45.36812" lon="5.7936">
        <ele>1013</ele>
        <time>2022-06-13T06:25:32Z</time>
      </trkpt>
      <trkpt lat="45.3682" lon="5.79363">
        <ele>1014</ele>
        <time>2022-06-13T06:25:37Z</time>
      </trkpt>
      <trkpt lat="45.36824" lon="5.79371">
        <ele>1015</ele>
        <time>2022-06-13T06:25:45Z</time>
      </trkpt>
      <trkpt lat="45.36828" lon="5.79378">
        <ele>1016</ele>
        <time>2022-06-13T06:25:52Z</time>
      </trkpt>
      <trkpt lat="45.36837" lon="5.79381">
        <ele>1017</ele>
        <time>2022-06-13T06:25:58Z</time>
      </trkpt>
      <trkpt lat="45.36842" lon="5.79381">
        <ele>1018</ele>
        <time>2022-06-13T06:26:01Z</time>
      </trkpt>
      <trkpt lat="45.36852" lon="5.79384">
        <ele>1019</ele>
        <time>2022-06-13T06:26:13Z</time>
      </trkpt>
      <trkpt lat="45.36856" lon="5.79388">
        <ele>1020</ele>
        <time>2022-06-13T06:26:16Z</time>
      </trkpt>
      <trkpt lat="45.36877" lon="5.79389">
        <ele>1022</ele>
        <time>2022-06-13T06:26:34Z</time>
      </trkpt>
      <trkpt lat="45.36881" lon="5.79383">
        <ele>1023</ele>
        <time>2022-06-13T06:26:43Z</time>
      </trkpt>
      <trkpt lat="45.36889" lon="5.79387">
        <ele>1024</ele>
        <time>2022-06-13T06:26:50Z</time>
      </trkpt>
      <trkpt lat="45.36895" lon="5.79381">
        <ele>1025</ele>
        <time>2022-06-13T06:26:57Z</time>
      </trkpt>
      <trkpt lat="45.369" lon="5.79389">
        <ele>1026</ele>
        <time>2022-06-13T06:27:02Z</time>
      </trkpt>
      <trkpt lat="45.3691" lon="5.79388">
        <ele>1028</ele>
        <time>2022-06-13T06:27:11Z</time>
      </trkpt>
      <trkpt lat="45.36936" lon="5.79376">
        <ele>1033</ele>
        <time>2022-06-13T06:27:41Z</time>
      </trkpt>
      <trkpt lat="45.36943" lon="5.79385">
        <ele>1034</ele>
        <time>2022-06-13T06:27:48Z</time>
      </trkpt>
      <trkpt lat="45.36948" lon="5.79382">
        <ele>1034</ele>
        <time>2022-06-13T06:27:52Z</time>
      </trkpt>
      <trkpt lat="45.36951" lon="5.79376">
        <ele>1035</ele>
        <time>2022-06-13T06:27:56Z</time>
      </trkpt>
      <trkpt lat="45.36959" lon="5.79383">
        <ele>1036</ele>
        <time>2022-06-13T06:28:04Z</time>
      </trkpt>
      <trkpt lat="45.36972" lon="5.79379">
        <ele>1038</ele>
        <time>2022-06-13T06:28:18Z</time>
      </trkpt>
      <trkpt lat="45.36979" lon="5.79378">
        <ele>1039</ele>
        <time>2022-06-13T06:28:21Z</time>
      </trkpt>
      <trkpt lat="45.36985" lon="5.79369">
        <ele>1041</ele>
        <time>2022-06-13T06:28:32Z</time>
      </trkpt>
      <trkpt lat="45.36998" lon="5.7936">
        <ele>1043</ele>
        <time>2022-06-13T06:28:42Z</time>
      </trkpt>
      <trkpt lat="45.36999" lon="5.7935">
        <ele>1045</ele>
        <time>2022-06-13T06:28:52Z</time>
      </trkpt>
      <trkpt lat="45.37003" lon="5.79345">
        <ele>1046</ele>
        <time>2022-06-13T06:28:58Z</time>
      </trkpt>
      <trkpt lat="45.37019" lon="5.7934">
        <ele>1048</ele>
        <time>2022-06-13T06:29:14Z</time>
      </trkpt>
      <trkpt lat="45.37043" lon="5.79334">
        <ele>1053</ele>
        <time>2022-06-13T06:29:43Z</time>
      </trkpt>
      <trkpt lat="45.37042" lon="5.79327">
        <ele>1055</ele>
        <time>2022-06-13T06:29:49Z</time>
      </trkpt>
      <trkpt lat="45.37067" lon="5.79312">
        <ele>1059</ele>
        <time>2022-06-13T06:30:14Z</time>
      </trkpt>
      <trkpt lat="45.37068" lon="5.793">
        <ele>1060</ele>
        <time>2022-06-13T06:30:19Z</time>
      </trkpt>
      <trkpt lat="45.37073" lon="5.79292">
        <ele>1062</ele>
        <time>2022-06-13T06:30:31Z</time>
      </trkpt>
      <trkpt lat="45.37082" lon="5.7929">
        <ele>1064</ele>
        <time>2022-06-13T06:30:42Z</time>
      </trkpt>
      <trkpt lat="45.371" lon="5.7929">
        <ele>1066</ele>
        <time>2022-06-13T06:30:58Z</time>
      </trkpt>
      <trkpt lat="45.3711" lon="5.79293">
        <ele>1068</ele>
        <time>2022-06-13T06:31:08Z</time>
      </trkpt>
      <trkpt lat="45.37128" lon="5.79282">
        <ele>1070</ele>
        <time>2022-06-13T06:31:25Z</time>
      </trkpt>
      <trkpt lat="45.37133" lon="5.79288">
        <ele>1072</ele>
        <time>2022-06-13T06:31:34Z</time>
      </trkpt>
      <trkpt lat="45.37138" lon="5.79287">
        <ele>1073</ele>
        <time>2022-06-13T06:31:41Z</time>
      </trkpt>
      <trkpt lat="45.3714" lon="5.79294">
        <ele>1074</ele>
        <time>2022-06-13T06:31:46Z</time>
      </trkpt>
      <trkpt lat="45.37146" lon="5.79297">
        <ele>1075</ele>
        <time>2022-06-13T06:31:51Z</time>
      </trkpt>
      <trkpt lat="45.37153" lon="5.79291">
        <ele>1075</ele>
        <time>2022-06-13T06:31:54Z</time>
      </trkpt>
      <trkpt lat="45.37159" lon="5.79293">
        <ele>1076</ele>
        <time>2022-06-13T06:32:02Z</time>
      </trkpt>
      <trkpt lat="45.37163" lon="5.79301">
        <ele>1078</ele>
        <time>2022-06-13T06:32:14Z</time>
      </trkpt>
      <trkpt lat="45.37175" lon="5.79301">
        <ele>1080</ele>
        <time>2022-06-13T06:32:23Z</time>
      </trkpt>
      <trkpt lat="45.37183" lon="5.793">
        <ele>1082</ele>
        <time>2022-06-13T06:32:34Z</time>
      </trkpt>
      <trkpt lat="45.37189" lon="5.79304">
        <ele>1083</ele>
        <time>2022-06-13T06:32:38Z</time>
      </trkpt>
      <trkpt lat="45.37193" lon="5.79309">
        <ele>1084</ele>
        <time>2022-06-13T06:32:46Z</time>
      </trkpt>
      <trkpt lat="45.37199" lon="5.79308">
        <ele>1085</ele>
        <time>2022-06-13T06:32:50Z</time>
      </trkpt>
      <trkpt lat="45.37203" lon="5.79312">
        <ele>1086</ele>
        <time>2022-06-13T06:32:57Z</time>
      </trkpt>
      <trkpt lat="45.37208" lon="5.79313">
        <ele>1087</ele>
        <time>2022-06-13T06:33:03Z</time>
      </trkpt>
      <trkpt lat="45.37217" lon="5.79319">
        <ele>1089</ele>
        <time>2022-06-13T06:33:15Z</time>
      </trkpt>
      <trkpt lat="45.37217" lon="5.79319">
        <ele>1090</ele>
        <time>2022-06-13T06:33:35Z</time>
      </trkpt>
      <trkpt lat="45.37226" lon="5.79316">
        <ele>1090</ele>
        <time>2022-06-13T06:33:40Z</time>
      </trkpt>
      <trkpt lat="45.37224" lon="5.7932">
        <ele>1091</ele>
        <time>2022-06-13T06:34:21Z</time>
      </trkpt>
      <trkpt lat="45.37216" lon="5.79329">
        <ele>1091</ele>
        <time>2022-06-13T06:34:35Z</time>
      </trkpt>
      <trkpt lat="45.37216" lon="5.79327">
        <ele>1092</ele>
        <time>2022-06-13T06:35:55Z</time>
      </trkpt>
      <trkpt lat="45.37211" lon="5.79324">
        <ele>1092</ele>
        <time>2022-06-13T06:36:17Z</time>
      </trkpt>
      <trkpt lat="45.37208" lon="5.79334">
        <ele>1093</ele>
        <time>2022-06-13T06:37:48Z</time>
      </trkpt>
      <trkpt lat="45.37217" lon="5.79342">
        <ele>1094</ele>
        <time>2022-06-13T06:37:54Z</time>
      </trkpt>
      <trkpt lat="45.37229" lon="5.7933">
        <ele>1094</ele>
        <time>2022-06-13T06:37:56Z</time>
      </trkpt>
      <trkpt lat="45.37237" lon="5.79342">
        <ele>1095</ele>
        <time>2022-06-13T06:38:07Z</time>
      </trkpt>
      <trkpt lat="45.37242" lon="5.7935">
        <ele>1096</ele>
        <time>2022-06-13T06:38:12Z</time>
      </trkpt>
      <trkpt lat="45.37249" lon="5.7935">
        <ele>1097</ele>
        <time>2022-06-13T06:38:19Z</time>
      </trkpt>
      <trkpt lat="45.37263" lon="5.79366">
        <ele>1099</ele>
        <time>2022-06-13T06:38:37Z</time>
      </trkpt>
      <trkpt lat="45.37268" lon="5.79371">
        <ele>1100</ele>
        <time>2022-06-13T06:38:44Z</time>
      </trkpt>
      <trkpt lat="45.37277" lon="5.79386">
        <ele>1102</ele>
        <time>2022-06-13T06:38:53Z</time>
      </trkpt>
      <trkpt lat="45.37283" lon="5.79402">
        <ele>1104</ele>
        <time>2022-06-13T06:39:06Z</time>
      </trkpt>
      <trkpt lat="45.37292" lon="5.7941">
        <ele>1105</ele>
        <time>2022-06-13T06:39:14Z</time>
      </trkpt>
      <trkpt lat="45.37298" lon="5.79418">
        <ele>1107</ele>
        <time>2022-06-13T06:39:26Z</time>
      </trkpt>
      <trkpt lat="45.373" lon="5.79438">
        <ele>1110</ele>
        <time>2022-06-13T06:39:40Z</time>
      </trkpt>
      <trkpt lat="45.37313" lon="5.79446">
        <ele>1113</ele>
        <time>2022-06-13T06:39:56Z</time>
      </trkpt>
      <trkpt lat="45.3732" lon="5.79454">
        <ele>1115</ele>
        <time>2022-06-13T06:40:07Z</time>
      </trkpt>
      <trkpt lat="45.37321" lon="5.7946">
        <ele>1116</ele>
        <time>2022-06-13T06:40:11Z</time>
      </trkpt>
      <trkpt lat="45.3733" lon="5.7947">
        <ele>1118</ele>
        <time>2022-06-13T06:40:24Z</time>
      </trkpt>
      <trkpt lat="45.37333" lon="5.79477">
        <ele>1119</ele>
        <time>2022-06-13T06:40:28Z</time>
      </trkpt>
      <trkpt lat="45.37344" lon="5.79478">
        <ele>1121</ele>
        <time>2022-06-13T06:40:39Z</time>
      </trkpt>
      <trkpt lat="45.37348" lon="5.79481">
        <ele>1121</ele>
        <time>2022-06-13T06:40:43Z</time>
      </trkpt>
      <trkpt lat="45.37358" lon="5.79488">
        <ele>1123</ele>
        <time>2022-06-13T06:40:52Z</time>
      </trkpt>
      <trkpt lat="45.37359" lon="5.79495">
        <ele>1123</ele>
        <time>2022-06-13T06:40:55Z</time>
      </trkpt>
      <trkpt lat="45.37363" lon="5.79492">
        <ele>1124</ele>
        <time>2022-06-13T06:40:59Z</time>
      </trkpt>
      <trkpt lat="45.37369" lon="5.79496">
        <ele>1125</ele>
        <time>2022-06-13T06:41:03Z</time>
      </trkpt>
      <trkpt lat="45.37376" lon="5.7949">
        <ele>1125</ele>
        <time>2022-06-13T06:41:07Z</time>
      </trkpt>
      <trkpt lat="45.3738" lon="5.79491">
        <ele>1126</ele>
        <time>2022-06-13T06:41:12Z</time>
      </trkpt>
      <trkpt lat="45.37386" lon="5.79495">
        <ele>1126</ele>
        <time>2022-06-13T06:41:18Z</time>
      </trkpt>
      <trkpt lat="45.3739" lon="5.79499">
        <ele>1127</ele>
        <time>2022-06-13T06:41:21Z</time>
      </trkpt>
      <trkpt lat="45.37396" lon="5.79501">
        <ele>1127</ele>
        <time>2022-06-13T06:41:28Z</time>
      </trkpt>
      <trkpt lat="45.37404" lon="5.795">
        <ele>1129</ele>
        <time>2022-06-13T06:41:36Z</time>
      </trkpt>
      <trkpt lat="45.3741" lon="5.79497">
        <ele>1129</ele>
        <time>2022-06-13T06:41:39Z</time>
      </trkpt>
      <trkpt lat="45.37424" lon="5.79499">
        <ele>1131</ele>
        <time>2022-06-13T06:41:55Z</time>
      </trkpt>
      <trkpt lat="45.37431" lon="5.79505">
        <ele>1131</ele>
        <time>2022-06-13T06:42:00Z</time>
      </trkpt>
      <trkpt lat="45.37436" lon="5.79511">
        <ele>1132</ele>
        <time>2022-06-13T06:42:04Z</time>
      </trkpt>
      <trkpt lat="45.37465" lon="5.79528">
        <ele>1135</ele>
        <time>2022-06-13T06:42:37Z</time>
      </trkpt>
      <trkpt lat="45.37478" lon="5.79539">
        <ele>1137</ele>
        <time>2022-06-13T06:42:51Z</time>
      </trkpt>
      <trkpt lat="45.37494" lon="5.79545">
        <ele>1138</ele>
        <time>2022-06-13T06:43:05Z</time>
      </trkpt>
      <trkpt lat="45.37502" lon="5.79547">
        <ele>1139</ele>
        <time>2022-06-13T06:43:13Z</time>
      </trkpt>
      <trkpt lat="45.37507" lon="5.79545">
        <ele>1140</ele>
        <time>2022-06-13T06:43:17Z</time>
      </trkpt>
      <trkpt lat="45.37517" lon="5.79543">
        <ele>1141</ele>
        <time>2022-06-13T06:43:26Z</time>
      </trkpt>
      <trkpt lat="45.37529" lon="5.79559">
        <ele>1142</ele>
        <time>2022-06-13T06:43:39Z</time>
      </trkpt>
      <trkpt lat="45.37525" lon="5.79582">
        <ele>1144</ele>
        <time>2022-06-13T06:43:57Z</time>
      </trkpt>
      <trkpt lat="45.37528" lon="5.79588">
        <ele>1145</ele>
        <time>2022-06-13T06:44:01Z</time>
      </trkpt>
      <trkpt lat="45.37531" lon="5.79597">
        <ele>1147</ele>
        <time>2022-06-13T06:44:11Z</time>
      </trkpt>
      <trkpt lat="45.37532" lon="5.79604">
        <ele>1148</ele>
        <time>2022-06-13T06:44:18Z</time>
      </trkpt>
      <trkpt lat="45.37537" lon="5.79608">
        <ele>1150</ele>
        <time>2022-06-13T06:44:29Z</time>
      </trkpt>
      <trkpt lat="45.37533" lon="5.79611">
        <ele>1152</ele>
        <time>2022-06-13T06:44:36Z</time>
      </trkpt>
      <trkpt lat="45.37544" lon="5.79627">
        <ele>1153</ele>
        <time>2022-06-13T06:44:50Z</time>
      </trkpt>
      <trkpt lat="45.37546" lon="5.79635">
        <ele>1154</ele>
        <time>2022-06-13T06:44:59Z</time>
      </trkpt>
      <trkpt lat="45.37545" lon="5.79644">
        <ele>1156</ele>
        <time>2022-06-13T06:45:09Z</time>
      </trkpt>
      <trkpt lat="45.37553" lon="5.79654">
        <ele>1157</ele>
        <time>2022-06-13T06:45:18Z</time>
      </trkpt>
      <trkpt lat="45.37559" lon="5.79653">
        <ele>1157</ele>
        <time>2022-06-13T06:45:21Z</time>
      </trkpt>
      <trkpt lat="45.37566" lon="5.79656">
        <ele>1158</ele>
        <time>2022-06-13T06:45:28Z</time>
      </trkpt>
      <trkpt lat="45.37571" lon="5.79661">
        <ele>1158</ele>
        <time>2022-06-13T06:45:32Z</time>
      </trkpt>
      <trkpt lat="45.37579" lon="5.7966">
        <ele>1159</ele>
        <time>2022-06-13T06:45:39Z</time>
      </trkpt>
      <trkpt lat="45.37593" lon="5.7967">
        <ele>1161</ele>
        <time>2022-06-13T06:45:59Z</time>
      </trkpt>
      <trkpt lat="45.37599" lon="5.79671">
        <ele>1162</ele>
        <time>2022-06-13T06:46:02Z</time>
      </trkpt>
      <trkpt lat="45.37605" lon="5.79676">
        <ele>1162</ele>
        <time>2022-06-13T06:46:07Z</time>
      </trkpt>
      <trkpt lat="45.37609" lon="5.79677">
        <ele>1162</ele>
        <time>2022-06-13T06:46:10Z</time>
      </trkpt>
      <trkpt lat="45.37614" lon="5.79681">
        <ele>1163</ele>
        <time>2022-06-13T06:46:15Z</time>
      </trkpt>
      <trkpt lat="45.3762" lon="5.79682">
        <ele>1163</ele>
        <time>2022-06-13T06:46:19Z</time>
      </trkpt>
      <trkpt lat="45.37629" lon="5.79682">
        <ele>1165</ele>
        <time>2022-06-13T06:46:31Z</time>
      </trkpt>
      <trkpt lat="45.37634" lon="5.79683">
        <ele>1165</ele>
        <time>2022-06-13T06:46:33Z</time>
      </trkpt>
      <trkpt lat="45.37636" lon="5.7969">
        <ele>1166</ele>
        <time>2022-06-13T06:46:38Z</time>
      </trkpt>
      <trkpt lat="45.37643" lon="5.79691">
        <ele>1167</ele>
        <time>2022-06-13T06:46:45Z</time>
      </trkpt>
      <trkpt lat="45.37656" lon="5.79704">
        <ele>1168</ele>
        <time>2022-06-13T06:46:59Z</time>
      </trkpt>
      <trkpt lat="45.3766" lon="5.79705">
        <ele>1168</ele>
        <time>2022-06-13T06:47:02Z</time>
      </trkpt>
      <trkpt lat="45.37663" lon="5.79713">
        <ele>1168</ele>
        <time>2022-06-13T06:47:07Z</time>
      </trkpt>
      <trkpt lat="45.3767" lon="5.7971">
        <ele>1169</ele>
        <time>2022-06-13T06:47:13Z</time>
      </trkpt>
      <trkpt lat="45.37675" lon="5.79709">
        <ele>1169</ele>
        <time>2022-06-13T06:47:16Z</time>
      </trkpt>
      <trkpt lat="45.37672" lon="5.79713">
        <ele>1168</ele>
        <time>2022-06-13T06:48:36Z</time>
      </trkpt>
      <trkpt lat="45.37679" lon="5.79719">
        <ele>1168</ele>
        <time>2022-06-13T06:48:42Z</time>
      </trkpt>
      <trkpt lat="45.37685" lon="5.79723">
        <ele>1168</ele>
        <time>2022-06-13T06:48:48Z</time>
      </trkpt>
      <trkpt lat="45.3769" lon="5.79731">
        <ele>1169</ele>
        <time>2022-06-13T06:48:57Z</time>
      </trkpt>
      <trkpt lat="45.37693" lon="5.79739">
        <ele>1169</ele>
        <time>2022-06-13T06:49:01Z</time>
      </trkpt>
      <trkpt lat="45.37699" lon="5.79742">
        <ele>1170</ele>
        <time>2022-06-13T06:49:08Z</time>
      </trkpt>
      <trkpt lat="45.37707" lon="5.79753">
        <ele>1172</ele>
        <time>2022-06-13T06:49:22Z</time>
      </trkpt>
      <trkpt lat="45.3771" lon="5.79765">
        <ele>1173</ele>
        <time>2022-06-13T06:49:34Z</time>
      </trkpt>
      <trkpt lat="45.37716" lon="5.79765">
        <ele>1174</ele>
        <time>2022-06-13T06:49:39Z</time>
      </trkpt>
      <trkpt lat="45.3772" lon="5.79777">
        <ele>1175</ele>
        <time>2022-06-13T06:49:47Z</time>
      </trkpt>
      <trkpt lat="45.37719" lon="5.79795">
        <ele>1177</ele>
        <time>2022-06-13T06:49:58Z</time>
      </trkpt>
      <trkpt lat="45.37751" lon="5.7981">
        <ele>1182</ele>
        <time>2022-06-13T06:50:30Z</time>
      </trkpt>
      <trkpt lat="45.37743" lon="5.79823">
        <ele>1183</ele>
        <time>2022-06-13T06:50:36Z</time>
      </trkpt>
      <trkpt lat="45.37754" lon="5.79826">
        <ele>1185</ele>
        <time>2022-06-13T06:50:50Z</time>
      </trkpt>
      <trkpt lat="45.37758" lon="5.79835">
        <ele>1187</ele>
        <time>2022-06-13T06:51:00Z</time>
      </trkpt>
      <trkpt lat="45.37759" lon="5.7985">
        <ele>1188</ele>
        <time>2022-06-13T06:51:10Z</time>
      </trkpt>
      <trkpt lat="45.37769" lon="5.79862">
        <ele>1189</ele>
        <time>2022-06-13T06:51:21Z</time>
      </trkpt>
      <trkpt lat="45.37778" lon="5.79862">
        <ele>1189</ele>
        <time>2022-06-13T06:51:27Z</time>
      </trkpt>
      <trkpt lat="45.37794" lon="5.79866">
        <ele>1191</ele>
        <time>2022-06-13T06:51:44Z</time>
      </trkpt>
      <trkpt lat="45.3781" lon="5.79873">
        <ele>1194</ele>
        <time>2022-06-13T06:51:55Z</time>
      </trkpt>
      <trkpt lat="45.37811" lon="5.79882">
        <ele>1196</ele>
        <time>2022-06-13T06:52:08Z</time>
      </trkpt>
      <trkpt lat="45.3782" lon="5.79887">
        <ele>1198</ele>
        <time>2022-06-13T06:52:20Z</time>
      </trkpt>
      <trkpt lat="45.37835" lon="5.79891">
        <ele>1200</ele>
        <time>2022-06-13T06:52:36Z</time>
      </trkpt>
      <trkpt lat="45.37845" lon="5.79899">
        <ele>1201</ele>
        <time>2022-06-13T06:52:43Z</time>
      </trkpt>
      <trkpt lat="45.37853" lon="5.79892">
        <ele>1202</ele>
        <time>2022-06-13T06:52:49Z</time>
      </trkpt>
      <trkpt lat="45.3786" lon="5.79889">
        <ele>1205</ele>
        <time>2022-06-13T06:53:03Z</time>
      </trkpt>
      <trkpt lat="45.37863" lon="5.79916">
        <ele>1207</ele>
        <time>2022-06-13T06:53:18Z</time>
      </trkpt>
      <trkpt lat="45.37874" lon="5.79921">
        <ele>1211</ele>
        <time>2022-06-13T06:53:37Z</time>
      </trkpt>
      <trkpt lat="45.37882" lon="5.79914">
        <ele>1211</ele>
        <time>2022-06-13T06:53:40Z</time>
      </trkpt>
      <trkpt lat="45.37894" lon="5.79927">
        <ele>1213</ele>
        <time>2022-06-13T06:53:54Z</time>
      </trkpt>
      <trkpt lat="45.37911" lon="5.79919">
        <ele>1219</ele>
        <time>2022-06-13T06:54:26Z</time>
      </trkpt>
      <trkpt lat="45.37927" lon="5.79923">
        <ele>1221</ele>
        <time>2022-06-13T06:54:38Z</time>
      </trkpt>
      <trkpt lat="45.37938" lon="5.79921">
        <ele>1223</ele>
        <time>2022-06-13T06:54:54Z</time>
      </trkpt>
      <trkpt lat="45.37946" lon="5.79914">
        <ele>1224</ele>
        <time>2022-06-13T06:55:03Z</time>
      </trkpt>
      <trkpt lat="45.3796" lon="5.79918">
        <ele>1227</ele>
        <time>2022-06-13T06:55:24Z</time>
      </trkpt>
      <trkpt lat="45.37964" lon="5.79899">
        <ele>1228</ele>
        <time>2022-06-13T06:55:33Z</time>
      </trkpt>
      <trkpt lat="45.37976" lon="5.79887">
        <ele>1231</ele>
        <time>2022-06-13T06:55:53Z</time>
      </trkpt>
      <trkpt lat="45.3799" lon="5.79868">
        <ele>1238</ele>
        <time>2022-06-13T06:56:33Z</time>
      </trkpt>
      <trkpt lat="45.37999" lon="5.79844">
        <ele>1244</ele>
        <time>2022-06-13T06:57:07Z</time>
      </trkpt>
      <trkpt lat="45.37996" lon="5.79826">
        <ele>1249</ele>
        <time>2022-06-13T06:57:35Z</time>
      </trkpt>
      <trkpt lat="45.37998" lon="5.79815">
        <ele>1251</ele>
        <time>2022-06-13T06:57:46Z</time>
      </trkpt>
      <trkpt lat="45.37997" lon="5.798">
        <ele>1256</ele>
        <time>2022-06-13T06:58:07Z</time>
      </trkpt>
      <trkpt lat="45.37988" lon="5.798">
        <ele>1257</ele>
        <time>2022-06-13T06:58:13Z</time>
      </trkpt>
      <trkpt lat="45.37995" lon="5.79781">
        <ele>1262</ele>
        <time>2022-06-13T06:58:40Z</time>
      </trkpt>
      <trkpt lat="45.37994" lon="5.79775">
        <ele>1263</ele>
        <time>2022-06-13T06:58:45Z</time>
      </trkpt>
      <trkpt lat="45.37993" lon="5.79767">
        <ele>1265</ele>
        <time>2022-06-13T06:58:55Z</time>
      </trkpt>
      <trkpt lat="45.38016" lon="5.79746">
        <ele>1269</ele>
        <time>2022-06-13T06:59:28Z</time>
      </trkpt>
      <trkpt lat="45.38015" lon="5.7974">
        <ele>1269</ele>
        <time>2022-06-13T06:59:50Z</time>
      </trkpt>
      <trkpt lat="45.38016" lon="5.79734">
        <ele>1272</ele>
        <time>2022-06-13T07:00:00Z</time>
      </trkpt>
      <trkpt lat="45.38019" lon="5.79728">
        <ele>1272</ele>
        <time>2022-06-13T07:00:03Z</time>
      </trkpt>
      <trkpt lat="45.38031" lon="5.79725">
        <ele>1275</ele>
        <time>2022-06-13T07:00:17Z</time>
      </trkpt>
      <trkpt lat="45.38037" lon="5.79724">
        <ele>1276</ele>
        <time>2022-06-13T07:00:31Z</time>
      </trkpt>
      <trkpt lat="45.38042" lon="5.79725">
        <ele>1277</ele>
        <time>2022-06-13T07:00:37Z</time>
      </trkpt>
      <trkpt lat="45.38049" lon="5.79725">
        <ele>1277</ele>
        <time>2022-06-13T07:00:40Z</time>
      </trkpt>
      <trkpt lat="45.38054" lon="5.79723">
        <ele>1278</ele>
        <time>2022-06-13T07:00:48Z</time>
      </trkpt>
      <trkpt lat="45.38061" lon="5.79719">
        <ele>1279</ele>
        <time>2022-06-13T07:00:57Z</time>
      </trkpt>
      <trkpt lat="45.38069" lon="5.79717">
        <ele>1281</ele>
        <time>2022-06-13T07:01:08Z</time>
      </trkpt>
      <trkpt lat="45.38075" lon="5.79714">
        <ele>1282</ele>
        <time>2022-06-13T07:01:16Z</time>
      </trkpt>
      <trkpt lat="45.38097" lon="5.79707">
        <ele>1286</ele>
        <time>2022-06-13T07:01:40Z</time>
      </trkpt>
      <trkpt lat="45.38101" lon="5.79701">
        <ele>1288</ele>
        <time>2022-06-13T07:01:48Z</time>
      </trkpt>
      <trkpt lat="45.38123" lon="5.79687">
        <ele>1292</ele>
        <time>2022-06-13T07:02:15Z</time>
      </trkpt>
      <trkpt lat="45.38131" lon="5.79687">
        <ele>1293</ele>
        <time>2022-06-13T07:02:25Z</time>
      </trkpt>
      <trkpt lat="45.38141" lon="5.79684">
        <ele>1295</ele>
        <time>2022-06-13T07:02:38Z</time>
      </trkpt>
      <trkpt lat="45.38167" lon="5.79684">
        <ele>1302</ele>
        <time>2022-06-13T07:03:13Z</time>
      </trkpt>
      <trkpt lat="45.38186" lon="5.79679">
        <ele>1306</ele>
        <time>2022-06-13T07:03:38Z</time>
      </trkpt>
      <trkpt lat="45.38194" lon="5.79676">
        <ele>1308</ele>
        <time>2022-06-13T07:03:49Z</time>
      </trkpt>
      <trkpt lat="45.38208" lon="5.79676">
        <ele>1311</ele>
        <time>2022-06-13T07:04:07Z</time>
      </trkpt>
      <trkpt lat="45.38214" lon="5.7968">
        <ele>1312</ele>
        <time>2022-06-13T07:04:17Z</time>
      </trkpt>
      <trkpt lat="45.38219" lon="5.79678">
        <ele>1313</ele>
        <time>2022-06-13T07:04:23Z</time>
      </trkpt>
      <trkpt lat="45.3823" lon="5.79681">
        <ele>1316</ele>
        <time>2022-06-13T07:04:41Z</time>
      </trkpt>
      <trkpt lat="45.38241" lon="5.79684">
        <ele>1319</ele>
        <time>2022-06-13T07:04:58Z</time>
      </trkpt>
      <trkpt lat="45.38245" lon="5.79688">
        <ele>1321</ele>
        <time>2022-06-13T07:05:08Z</time>
      </trkpt>
      <trkpt lat="45.3825" lon="5.79692">
        <ele>1323</ele>
        <time>2022-06-13T07:05:18Z</time>
      </trkpt>
      <trkpt lat="45.38259" lon="5.79691">
        <ele>1325</ele>
        <time>2022-06-13T07:05:29Z</time>
      </trkpt>
      <trkpt lat="45.38269" lon="5.79694">
        <ele>1327</ele>
        <time>2022-06-13T07:05:44Z</time>
      </trkpt>
      <trkpt lat="45.38274" lon="5.79692">
        <ele>1328</ele>
        <time>2022-06-13T07:05:50Z</time>
      </trkpt>
      <trkpt lat="45.38291" lon="5.79695">
        <ele>1331</ele>
        <time>2022-06-13T07:06:10Z</time>
      </trkpt>
      <trkpt lat="45.38302" lon="5.7969">
        <ele>1332</ele>
        <time>2022-06-13T07:06:22Z</time>
      </trkpt>
      <trkpt lat="45.38329" lon="5.79692">
        <ele>1338</ele>
        <time>2022-06-13T07:06:58Z</time>
      </trkpt>
      <trkpt lat="45.38334" lon="5.79688">
        <ele>1338</ele>
        <time>2022-06-13T07:07:04Z</time>
      </trkpt>
      <trkpt lat="45.38362" lon="5.7969">
        <ele>1344</ele>
        <time>2022-06-13T07:07:40Z</time>
      </trkpt>
      <trkpt lat="45.38375" lon="5.79687">
        <ele>1346</ele>
        <time>2022-06-13T07:07:56Z</time>
      </trkpt>
      <trkpt lat="45.3838" lon="5.79689">
        <ele>1348</ele>
        <time>2022-06-13T07:08:06Z</time>
      </trkpt>
      <trkpt lat="45.38388" lon="5.79688">
        <ele>1350</ele>
        <time>2022-06-13T07:08:17Z</time>
      </trkpt>
      <trkpt lat="45.38392" lon="5.79689">
        <ele>1351</ele>
        <time>2022-06-13T07:08:23Z</time>
      </trkpt>
      <trkpt lat="45.38396" lon="5.79689">
        <ele>1352</ele>
        <time>2022-06-13T07:08:29Z</time>
      </trkpt>
      <trkpt lat="45.38403" lon="5.79691">
        <ele>1354</ele>
        <time>2022-06-13T07:08:41Z</time>
      </trkpt>
      <trkpt lat="45.38411" lon="5.79691">
        <ele>1356</ele>
        <time>2022-06-13T07:08:52Z</time>
      </trkpt>
      <trkpt lat="45.38418" lon="5.79693">
        <ele>1358</ele>
        <time>2022-06-13T07:09:02Z</time>
      </trkpt>
      <trkpt lat="45.38437" lon="5.79698">
        <ele>1363</ele>
        <time>2022-06-13T07:09:32Z</time>
      </trkpt>
      <trkpt lat="45.38465" lon="5.79705">
        <ele>1369</ele>
        <time>2022-06-13T07:10:10Z</time>
      </trkpt>
      <trkpt lat="45.38471" lon="5.79709">
        <ele>1370</ele>
        <time>2022-06-13T07:10:20Z</time>
      </trkpt>
      <trkpt lat="45.38477" lon="5.79711">
        <ele>1372</ele>
        <time>2022-06-13T07:10:30Z</time>
      </trkpt>
      <trkpt lat="45.38482" lon="5.79711">
        <ele>1375</ele>
        <time>2022-06-13T07:13:34Z</time>
      </trkpt>
      <trkpt lat="45.38474" lon="5.79718">
        <ele>1375</ele>
        <time>2022-06-13T07:13:58Z</time>
      </trkpt>
      <trkpt lat="45.38469" lon="5.7972">
        <ele>1376</ele>
        <time>2022-06-13T07:14:03Z</time>
      </trkpt>
      <trkpt lat="45.38467" lon="5.79726">
        <ele>1377</ele>
        <time>2022-06-13T07:14:07Z</time>
      </trkpt>
      <trkpt lat="45.38458" lon="5.79735">
        <ele>1378</ele>
        <time>2022-06-13T07:14:17Z</time>
      </trkpt>
      <trkpt lat="45.38451" lon="5.79752">
        <ele>1381</ele>
        <time>2022-06-13T07:14:31Z</time>
      </trkpt>
      <trkpt lat="45.38448" lon="5.79756">
        <ele>1381</ele>
        <time>2022-06-13T07:14:35Z</time>
      </trkpt>
      <trkpt lat="45.38445" lon="5.79761">
        <ele>1381</ele>
        <time>2022-06-13T07:14:39Z</time>
      </trkpt>
      <trkpt lat="45.38442" lon="5.79768">
        <ele>1381</ele>
        <time>2022-06-13T07:14:45Z</time>
      </trkpt>
      <trkpt lat="45.38437" lon="5.79772">
        <ele>1381</ele>
        <time>2022-06-13T07:14:49Z</time>
      </trkpt>
      <trkpt lat="45.38427" lon="5.79776">
        <ele>1382</ele>
        <time>2022-06-13T07:14:59Z</time>
      </trkpt>
      <trkpt lat="45.38403" lon="5.79794">
        <ele>1385</ele>
        <time>2022-06-13T07:15:26Z</time>
      </trkpt>
      <trkpt lat="45.38391" lon="5.79801">
        <ele>1387</ele>
        <time>2022-06-13T07:15:38Z</time>
      </trkpt>
      <trkpt lat="45.38379" lon="5.79815">
        <ele>1390</ele>
        <time>2022-06-13T07:15:56Z</time>
      </trkpt>
      <trkpt lat="45.38373" lon="5.79825">
        <ele>1392</ele>
        <time>2022-06-13T07:16:06Z</time>
      </trkpt>
      <trkpt lat="45.38374" lon="5.79834">
        <ele>1393</ele>
        <time>2022-06-13T07:16:12Z</time>
      </trkpt>
      <trkpt lat="45.38376" lon="5.79839">
        <ele>1393</ele>
        <time>2022-06-13T07:16:16Z</time>
      </trkpt>
      <trkpt lat="45.38404" lon="5.79855">
        <ele>1399</ele>
        <time>2022-06-13T07:16:49Z</time>
      </trkpt>
      <trkpt lat="45.38428" lon="5.79864">
        <ele>1405</ele>
        <time>2022-06-13T07:17:21Z</time>
      </trkpt>
      <trkpt lat="45.38433" lon="5.79862">
        <ele>1407</ele>
        <time>2022-06-13T07:17:28Z</time>
      </trkpt>
      <trkpt lat="45.38457" lon="5.79857">
        <ele>1411</ele>
        <time>2022-06-13T07:17:58Z</time>
      </trkpt>
      <trkpt lat="45.38461" lon="5.79854">
        <ele>1412</ele>
        <time>2022-06-13T07:18:03Z</time>
      </trkpt>
      <trkpt lat="45.3847" lon="5.79854">
        <ele>1413</ele>
        <time>2022-06-13T07:18:12Z</time>
      </trkpt>
      <trkpt lat="45.38501" lon="5.79847">
        <ele>1417</ele>
        <time>2022-06-13T07:18:46Z</time>
      </trkpt>
      <trkpt lat="45.38506" lon="5.79846">
        <ele>1418</ele>
        <time>2022-06-13T07:18:51Z</time>
      </trkpt>
      <trkpt lat="45.38521" lon="5.79842">
        <ele>1420</ele>
        <time>2022-06-13T07:19:07Z</time>
      </trkpt>
      <trkpt lat="45.3853" lon="5.79843">
        <ele>1421</ele>
        <time>2022-06-13T07:19:17Z</time>
      </trkpt>
      <trkpt lat="45.38561" lon="5.79831">
        <ele>1425</ele>
        <time>2022-06-13T07:19:48Z</time>
      </trkpt>
      <trkpt lat="45.38566" lon="5.79829">
        <ele>1425</ele>
        <time>2022-06-13T07:19:53Z</time>
      </trkpt>
      <trkpt lat="45.3857" lon="5.79829">
        <ele>1425</ele>
        <time>2022-06-13T07:19:57Z</time>
      </trkpt>
      <trkpt lat="45.38583" lon="5.79821">
        <ele>1425</ele>
        <time>2022-06-13T07:20:09Z</time>
      </trkpt>
      <trkpt lat="45.38593" lon="5.79818">
        <ele>1425</ele>
        <time>2022-06-13T07:20:18Z</time>
      </trkpt>
      <trkpt lat="45.38597" lon="5.79814">
        <ele>1426</ele>
        <time>2022-06-13T07:20:23Z</time>
      </trkpt>
      <trkpt lat="45.3862" lon="5.79802">
        <ele>1427</ele>
        <time>2022-06-13T07:20:44Z</time>
      </trkpt>
      <trkpt lat="45.38634" lon="5.798">
        <ele>1427</ele>
        <time>2022-06-13T07:20:58Z</time>
      </trkpt>
      <trkpt lat="45.38638" lon="5.79804">
        <ele>1428</ele>
        <time>2022-06-13T07:21:03Z</time>
      </trkpt>
      <trkpt lat="45.38633" lon="5.79834">
        <ele>1429</ele>
        <time>2022-06-13T07:21:33Z</time>
      </trkpt>
      <trkpt lat="45.3863" lon="5.7984">
        <ele>1430</ele>
        <time>2022-06-13T07:21:38Z</time>
      </trkpt>
      <trkpt lat="45.38626" lon="5.79856">
        <ele>1432</ele>
        <time>2022-06-13T07:21:50Z</time>
      </trkpt>
      <trkpt lat="45.38626" lon="5.79867">
        <ele>1433</ele>
        <time>2022-06-13T07:21:59Z</time>
      </trkpt>
      <trkpt lat="45.38626" lon="5.79873">
        <ele>1434</ele>
        <time>2022-06-13T07:22:06Z</time>
      </trkpt>
      <trkpt lat="45.38624" lon="5.79879">
        <ele>1435</ele>
        <time>2022-06-13T07:22:12Z</time>
      </trkpt>
      <trkpt lat="45.3862" lon="5.79899">
        <ele>1437</ele>
        <time>2022-06-13T07:22:29Z</time>
      </trkpt>
      <trkpt lat="45.3862" lon="5.79911">
        <ele>1440</ele>
        <time>2022-06-13T07:22:39Z</time>
      </trkpt>
      <trkpt lat="45.3862" lon="5.79917">
        <ele>1441</ele>
        <time>2022-06-13T07:22:44Z</time>
      </trkpt>
      <trkpt lat="45.38617" lon="5.79924">
        <ele>1442</ele>
        <time>2022-06-13T07:22:51Z</time>
      </trkpt>
      <trkpt lat="45.38613" lon="5.79932">
        <ele>1443</ele>
        <time>2022-06-13T07:23:02Z</time>
      </trkpt>
      <trkpt lat="45.38605" lon="5.79935">
        <ele>1445</ele>
        <time>2022-06-13T07:23:13Z</time>
      </trkpt>
      <trkpt lat="45.38597" lon="5.79944">
        <ele>1447</ele>
        <time>2022-06-13T07:23:24Z</time>
      </trkpt>
      <trkpt lat="45.38588" lon="5.79948">
        <ele>1448</ele>
        <time>2022-06-13T07:23:34Z</time>
      </trkpt>
      <trkpt lat="45.38575" lon="5.79978">
        <ele>1454</ele>
        <time>2022-06-13T07:24:09Z</time>
      </trkpt>
      <trkpt lat="45.38572" lon="5.79987">
        <ele>1456</ele>
        <time>2022-06-13T07:24:19Z</time>
      </trkpt>
      <trkpt lat="45.38555" lon="5.79999">
        <ele>1460</ele>
        <time>2022-06-13T07:24:45Z</time>
      </trkpt>
      <trkpt lat="45.38537" lon="5.80016">
        <ele>1465</ele>
        <time>2022-06-13T07:25:15Z</time>
      </trkpt>
      <trkpt lat="45.38535" lon="5.80022">
        <ele>1466</ele>
        <time>2022-06-13T07:25:21Z</time>
      </trkpt>
      <trkpt lat="45.38524" lon="5.80035">
        <ele>1469</ele>
        <time>2022-06-13T07:25:40Z</time>
      </trkpt>
      <trkpt lat="45.3853" lon="5.80039">
        <ele>1470</ele>
        <time>2022-06-13T07:25:50Z</time>
      </trkpt>
      <trkpt lat="45.38538" lon="5.8004">
        <ele>1471</ele>
        <time>2022-06-13T07:26:00Z</time>
      </trkpt>
      <trkpt lat="45.38545" lon="5.80041">
        <ele>1472</ele>
        <time>2022-06-13T07:26:10Z</time>
      </trkpt>
      <trkpt lat="45.38551" lon="5.80048">
        <ele>1474</ele>
        <time>2022-06-13T07:26:20Z</time>
      </trkpt>
      <trkpt lat="45.38554" lon="5.80054">
        <ele>1475</ele>
        <time>2022-06-13T07:26:30Z</time>
      </trkpt>
      <trkpt lat="45.38558" lon="5.80059">
        <ele>1476</ele>
        <time>2022-06-13T07:26:40Z</time>
      </trkpt>
      <trkpt lat="45.38576" lon="5.80073">
        <ele>1480</ele>
        <time>2022-06-13T07:27:15Z</time>
      </trkpt>
      <trkpt lat="45.38582" lon="5.80077">
        <ele>1481</ele>
        <time>2022-06-13T07:27:26Z</time>
      </trkpt>
      <trkpt lat="45.38576" lon="5.80081">
        <ele>1483</ele>
        <time>2022-06-13T07:27:37Z</time>
      </trkpt>
      <trkpt lat="45.38571" lon="5.80086">
        <ele>1484</ele>
        <time>2022-06-13T07:27:48Z</time>
      </trkpt>
      <trkpt lat="45.38566" lon="5.80087">
        <ele>1486</ele>
        <time>2022-06-13T07:27:58Z</time>
      </trkpt>
      <trkpt lat="45.3856" lon="5.80092">
        <ele>1487</ele>
        <time>2022-06-13T07:28:08Z</time>
      </trkpt>
      <trkpt lat="45.38556" lon="5.80094">
        <ele>1489</ele>
        <time>2022-06-13T07:28:18Z</time>
      </trkpt>
      <trkpt lat="45.38543" lon="5.80105">
        <ele>1491</ele>
        <time>2022-06-13T07:28:43Z</time>
      </trkpt>
      <trkpt lat="45.38542" lon="5.80113">
        <ele>1493</ele>
        <time>2022-06-13T07:28:54Z</time>
      </trkpt>
      <trkpt lat="45.3855" lon="5.80113">
        <ele>1494</ele>
        <time>2022-06-13T07:29:04Z</time>
      </trkpt>
      <trkpt lat="45.38556" lon="5.80113">
        <ele>1495</ele>
        <time>2022-06-13T07:29:11Z</time>
      </trkpt>
      <trkpt lat="45.38568" lon="5.80121">
        <ele>1497</ele>
        <time>2022-06-13T07:29:32Z</time>
      </trkpt>
      <trkpt lat="45.38559" lon="5.80131">
        <ele>1501</ele>
        <time>2022-06-13T07:30:01Z</time>
      </trkpt>
      <trkpt lat="45.38554" lon="5.80139">
        <ele>1503</ele>
        <time>2022-06-13T07:30:11Z</time>
      </trkpt>
      <trkpt lat="45.38551" lon="5.80144">
        <ele>1504</ele>
        <time>2022-06-13T07:30:17Z</time>
      </trkpt>
      <trkpt lat="45.38546" lon="5.8015">
        <ele>1506</ele>
        <time>2022-06-13T07:30:27Z</time>
      </trkpt>
      <trkpt lat="45.38541" lon="5.80162">
        <ele>1508</ele>
        <time>2022-06-13T07:30:40Z</time>
      </trkpt>
      <trkpt lat="45.38536" lon="5.80167">
        <ele>1509</ele>
        <time>2022-06-13T07:30:50Z</time>
      </trkpt>
      <trkpt lat="45.38526" lon="5.80194">
        <ele>1513</ele>
        <time>2022-06-13T07:31:17Z</time>
      </trkpt>
      <trkpt lat="45.38524" lon="5.80204">
        <ele>1515</ele>
        <time>2022-06-13T07:31:27Z</time>
      </trkpt>
      <trkpt lat="45.38528" lon="5.8021">
        <ele>1516</ele>
        <time>2022-06-13T07:31:38Z</time>
      </trkpt>
      <trkpt lat="45.38525" lon="5.80222">
        <ele>1516</ele>
        <time>2022-06-13T07:32:07Z</time>
      </trkpt>
      <trkpt lat="45.38532" lon="5.80218">
        <ele>1515</ele>
        <time>2022-06-13T07:33:19Z</time>
      </trkpt>
      <trkpt lat="45.38533" lon="5.8021">
        <ele>1516</ele>
        <time>2022-06-13T07:33:25Z</time>
      </trkpt>
      <trkpt lat="45.38533" lon="5.80204">
        <ele>1516</ele>
        <time>2022-06-13T07:34:24Z</time>
      </trkpt>
      <trkpt lat="45.38537" lon="5.802">
        <ele>1517</ele>
        <time>2022-06-13T07:34:32Z</time>
      </trkpt>
      <trkpt lat="45.38554" lon="5.80192">
        <ele>1520</ele>
        <time>2022-06-13T07:34:51Z</time>
      </trkpt>
      <trkpt lat="45.3856" lon="5.80192">
        <ele>1522</ele>
        <time>2022-06-13T07:35:01Z</time>
      </trkpt>
      <trkpt lat="45.38565" lon="5.8019">
        <ele>1523</ele>
        <time>2022-06-13T07:35:06Z</time>
      </trkpt>
      <trkpt lat="45.3857" lon="5.8019">
        <ele>1524</ele>
        <time>2022-06-13T07:35:13Z</time>
      </trkpt>
      <trkpt lat="45.38575" lon="5.80191">
        <ele>1525</ele>
        <time>2022-06-13T07:35:23Z</time>
      </trkpt>
      <trkpt lat="45.38579" lon="5.8019">
        <ele>1526</ele>
        <time>2022-06-13T07:35:33Z</time>
      </trkpt>
      <trkpt lat="45.38575" lon="5.80197">
        <ele>1529</ele>
        <time>2022-06-13T07:36:34Z</time>
      </trkpt>
      <trkpt lat="45.38565" lon="5.80217">
        <ele>1532</ele>
        <time>2022-06-13T07:36:55Z</time>
      </trkpt>
      <trkpt lat="45.38565" lon="5.80224">
        <ele>1533</ele>
        <time>2022-06-13T07:37:00Z</time>
      </trkpt>
      <trkpt lat="45.38568" lon="5.80246">
        <ele>1536</ele>
        <time>2022-06-13T07:37:33Z</time>
      </trkpt>
      <trkpt lat="45.38571" lon="5.80262">
        <ele>1538</ele>
        <time>2022-06-13T07:37:46Z</time>
      </trkpt>
      <trkpt lat="45.38569" lon="5.80274">
        <ele>1539</ele>
        <time>2022-06-13T07:37:56Z</time>
      </trkpt>
      <trkpt lat="45.38561" lon="5.80297">
        <ele>1542</ele>
        <time>2022-06-13T07:38:22Z</time>
      </trkpt>
      <trkpt lat="45.38557" lon="5.8032">
        <ele>1546</ele>
        <time>2022-06-13T07:38:44Z</time>
      </trkpt>
      <trkpt lat="45.38545" lon="5.80346">
        <ele>1551</ele>
        <time>2022-06-13T07:39:11Z</time>
      </trkpt>
      <trkpt lat="45.38539" lon="5.80366">
        <ele>1554</ele>
        <time>2022-06-13T07:39:31Z</time>
      </trkpt>
      <trkpt lat="45.38534" lon="5.80375">
        <ele>1555</ele>
        <time>2022-06-13T07:39:39Z</time>
      </trkpt>
      <trkpt lat="45.38522" lon="5.80391">
        <ele>1557</ele>
        <time>2022-06-13T07:39:57Z</time>
      </trkpt>
      <trkpt lat="45.38517" lon="5.80395">
        <ele>1557</ele>
        <time>2022-06-13T07:40:05Z</time>
      </trkpt>
      <trkpt lat="45.3851" lon="5.80402">
        <ele>1556</ele>
        <time>2022-06-13T07:40:14Z</time>
      </trkpt>
      <trkpt lat="45.38508" lon="5.80408">
        <ele>1556</ele>
        <time>2022-06-13T07:40:19Z</time>
      </trkpt>
      <trkpt lat="45.38502" lon="5.8042">
        <ele>1558</ele>
        <time>2022-06-13T07:40:29Z</time>
      </trkpt>
      <trkpt lat="45.38497" lon="5.80424">
        <ele>1558</ele>
        <time>2022-06-13T07:40:34Z</time>
      </trkpt>
      <trkpt lat="45.38496" lon="5.8043">
        <ele>1558</ele>
        <time>2022-06-13T07:40:38Z</time>
      </trkpt>
      <trkpt lat="45.38493" lon="5.80435">
        <ele>1558</ele>
        <time>2022-06-13T07:40:42Z</time>
      </trkpt>
      <trkpt lat="45.3848" lon="5.80453">
        <ele>1556</ele>
        <time>2022-06-13T07:40:58Z</time>
      </trkpt>
      <trkpt lat="45.38477" lon="5.80458">
        <ele>1556</ele>
        <time>2022-06-13T07:41:03Z</time>
      </trkpt>
      <trkpt lat="45.38471" lon="5.80471">
        <ele>1556</ele>
        <time>2022-06-13T07:41:11Z</time>
      </trkpt>
      <trkpt lat="45.38467" lon="5.80474">
        <ele>1556</ele>
        <time>2022-06-13T07:41:15Z</time>
      </trkpt>
      <trkpt lat="45.38464" lon="5.80481">
        <ele>1556</ele>
        <time>2022-06-13T07:41:19Z</time>
      </trkpt>
      <trkpt lat="45.38451" lon="5.80492">
        <ele>1554</ele>
        <time>2022-06-13T07:41:31Z</time>
      </trkpt>
      <trkpt lat="45.38448" lon="5.80498">
        <ele>1554</ele>
        <time>2022-06-13T07:41:34Z</time>
      </trkpt>
      <trkpt lat="45.38447" lon="5.80504">
        <ele>1553</ele>
        <time>2022-06-13T07:41:37Z</time>
      </trkpt>
      <trkpt lat="45.38445" lon="5.80509">
        <ele>1553</ele>
        <time>2022-06-13T07:41:41Z</time>
      </trkpt>
      <trkpt lat="45.38442" lon="5.8052">
        <ele>1553</ele>
        <time>2022-06-13T07:41:53Z</time>
      </trkpt>
      <trkpt lat="45.38441" lon="5.80525">
        <ele>1552</ele>
        <time>2022-06-13T07:41:57Z</time>
      </trkpt>
      <trkpt lat="45.38435" lon="5.80534">
        <ele>1552</ele>
        <time>2022-06-13T07:42:05Z</time>
      </trkpt>
      <trkpt lat="45.38427" lon="5.80549">
        <ele>1553</ele>
        <time>2022-06-13T07:42:20Z</time>
      </trkpt>
      <trkpt lat="45.38421" lon="5.8056">
        <ele>1553</ele>
        <time>2022-06-13T07:42:30Z</time>
      </trkpt>
      <trkpt lat="45.38418" lon="5.80564">
        <ele>1554</ele>
        <time>2022-06-13T07:42:37Z</time>
      </trkpt>
      <trkpt lat="45.38416" lon="5.8057">
        <ele>1556</ele>
        <time>2022-06-13T07:42:47Z</time>
      </trkpt>
      <trkpt lat="45.38411" lon="5.80573">
        <ele>1561</ele>
        <time>2022-06-13T07:43:17Z</time>
      </trkpt>
      <trkpt lat="45.38407" lon="5.80575">
        <ele>1563</ele>
        <time>2022-06-13T07:43:27Z</time>
      </trkpt>
      <trkpt lat="45.38404" lon="5.80581">
        <ele>1563</ele>
        <time>2022-06-13T07:43:31Z</time>
      </trkpt>
      <trkpt lat="45.38399" lon="5.80585">
        <ele>1565</ele>
        <time>2022-06-13T07:43:40Z</time>
      </trkpt>
      <trkpt lat="45.38394" lon="5.80588">
        <ele>1566</ele>
        <time>2022-06-13T07:43:50Z</time>
      </trkpt>
      <trkpt lat="45.38391" lon="5.80593">
        <ele>1567</ele>
        <time>2022-06-13T07:44:02Z</time>
      </trkpt>
      <trkpt lat="45.38387" lon="5.80594">
        <ele>1568</ele>
        <time>2022-06-13T07:44:14Z</time>
      </trkpt>
      <trkpt lat="45.38381" lon="5.80601">
        <ele>1570</ele>
        <time>2022-06-13T07:44:24Z</time>
      </trkpt>
      <trkpt lat="45.38376" lon="5.80605">
        <ele>1569</ele>
        <time>2022-06-13T07:44:33Z</time>
      </trkpt>
      <trkpt lat="45.38363" lon="5.80619">
        <ele>1567</ele>
        <time>2022-06-13T07:44:49Z</time>
      </trkpt>
      <trkpt lat="45.38359" lon="5.80618">
        <ele>1567</ele>
        <time>2022-06-13T07:44:53Z</time>
      </trkpt>
      <trkpt lat="45.38356" lon="5.80621">
        <ele>1566</ele>
        <time>2022-06-13T07:44:57Z</time>
      </trkpt>
      <trkpt lat="45.38351" lon="5.80623">
        <ele>1567</ele>
        <time>2022-06-13T07:45:05Z</time>
      </trkpt>
      <trkpt lat="45.38347" lon="5.80627">
        <ele>1567</ele>
        <time>2022-06-13T07:45:10Z</time>
      </trkpt>
      <trkpt lat="45.38341" lon="5.8063">
        <ele>1568</ele>
        <time>2022-06-13T07:45:22Z</time>
      </trkpt>
      <trkpt lat="45.38335" lon="5.80625">
        <ele>1572</ele>
        <time>2022-06-13T07:45:42Z</time>
      </trkpt>
      <trkpt lat="45.38333" lon="5.80633">
        <ele>1574</ele>
        <time>2022-06-13T07:45:52Z</time>
      </trkpt>
      <trkpt lat="45.38328" lon="5.80637">
        <ele>1578</ele>
        <time>2022-06-13T07:46:13Z</time>
      </trkpt>
      <trkpt lat="45.38324" lon="5.80642">
        <ele>1580</ele>
        <time>2022-06-13T07:46:25Z</time>
      </trkpt>
      <trkpt lat="45.38316" lon="5.80648">
        <ele>1583</ele>
        <time>2022-06-13T07:46:47Z</time>
      </trkpt>
      <trkpt lat="45.38313" lon="5.80654">
        <ele>1583</ele>
        <time>2022-06-13T07:46:52Z</time>
      </trkpt>
      <trkpt lat="45.38308" lon="5.80655">
        <ele>1583</ele>
        <time>2022-06-13T07:47:09Z</time>
      </trkpt>
      <trkpt lat="45.38306" lon="5.80661">
        <ele>1580</ele>
        <time>2022-06-13T07:47:29Z</time>
      </trkpt>
      <trkpt lat="45.38307" lon="5.80668">
        <ele>1578</ele>
        <time>2022-06-13T07:47:49Z</time>
      </trkpt>
      <trkpt lat="45.3831" lon="5.80678">
        <ele>1575</ele>
        <time>2022-06-13T07:48:03Z</time>
      </trkpt>
      <trkpt lat="45.38313" lon="5.80686">
        <ele>1573</ele>
        <time>2022-06-13T07:48:11Z</time>
      </trkpt>
      <trkpt lat="45.3832" lon="5.80694">
        <ele>1573</ele>
        <time>2022-06-13T07:48:31Z</time>
      </trkpt>
      <trkpt lat="45.38324" lon="5.80698">
        <ele>1572</ele>
        <time>2022-06-13T07:48:36Z</time>
      </trkpt>
      <trkpt lat="45.38329" lon="5.80706">
        <ele>1573</ele>
        <time>2022-06-13T07:48:43Z</time>
      </trkpt>
      <trkpt lat="45.38335" lon="5.8071">
        <ele>1573</ele>
        <time>2022-06-13T07:48:52Z</time>
      </trkpt>
      <trkpt lat="45.38339" lon="5.80716">
        <ele>1573</ele>
        <time>2022-06-13T07:48:57Z</time>
      </trkpt>
      <trkpt lat="45.38341" lon="5.80723">
        <ele>1572</ele>
        <time>2022-06-13T07:49:04Z</time>
      </trkpt>
      <trkpt lat="45.38344" lon="5.80727">
        <ele>1571</ele>
        <time>2022-06-13T07:49:08Z</time>
      </trkpt>
      <trkpt lat="45.38348" lon="5.80732">
        <ele>1571</ele>
        <time>2022-06-13T07:49:12Z</time>
      </trkpt>
      <trkpt lat="45.3836" lon="5.80748">
        <ele>1573</ele>
        <time>2022-06-13T07:49:32Z</time>
      </trkpt>
      <trkpt lat="45.38364" lon="5.80753">
        <ele>1573</ele>
        <time>2022-06-13T07:49:37Z</time>
      </trkpt>
      <trkpt lat="45.38367" lon="5.80759">
        <ele>1572</ele>
        <time>2022-06-13T07:49:45Z</time>
      </trkpt>
      <trkpt lat="45.38366" lon="5.80765">
        <ele>1570</ele>
        <time>2022-06-13T07:49:55Z</time>
      </trkpt>
      <trkpt lat="45.38361" lon="5.80769">
        <ele>1568</ele>
        <time>2022-06-13T07:50:06Z</time>
      </trkpt>
      <trkpt lat="45.38355" lon="5.80777">
        <ele>1568</ele>
        <time>2022-06-13T07:50:21Z</time>
      </trkpt>
      <trkpt lat="45.38353" lon="5.80791">
        <ele>1569</ele>
        <time>2022-06-13T07:50:31Z</time>
      </trkpt>
      <trkpt lat="45.38355" lon="5.80797">
        <ele>1569</ele>
        <time>2022-06-13T07:50:35Z</time>
      </trkpt>
      <trkpt lat="45.38356" lon="5.80803">
        <ele>1568</ele>
        <time>2022-06-13T07:50:40Z</time>
      </trkpt>
      <trkpt lat="45.38353" lon="5.80815">
        <ele>1567</ele>
        <time>2022-06-13T07:50:54Z</time>
      </trkpt>
      <trkpt lat="45.38354" lon="5.80832">
        <ele>1563</ele>
        <time>2022-06-13T07:51:07Z</time>
      </trkpt>
      <trkpt lat="45.38356" lon="5.80837">
        <ele>1562</ele>
        <time>2022-06-13T07:51:11Z</time>
      </trkpt>
      <trkpt lat="45.38352" lon="5.80839">
        <ele>1561</ele>
        <time>2022-06-13T07:51:19Z</time>
      </trkpt>
      <trkpt lat="45.38345" lon="5.8086">
        <ele>1559</ele>
        <time>2022-06-13T07:51:31Z</time>
      </trkpt>
      <trkpt lat="45.38339" lon="5.80872">
        <ele>1558</ele>
        <time>2022-06-13T07:51:38Z</time>
      </trkpt>
      <trkpt lat="45.38339" lon="5.80878">
        <ele>1558</ele>
        <time>2022-06-13T07:51:42Z</time>
      </trkpt>
      <trkpt lat="45.38335" lon="5.80883">
        <ele>1558</ele>
        <time>2022-06-13T07:51:58Z</time>
      </trkpt>
      <trkpt lat="45.3833" lon="5.80884">
        <ele>1557</ele>
        <time>2022-06-13T07:52:01Z</time>
      </trkpt>
      <trkpt lat="45.38327" lon="5.80892">
        <ele>1557</ele>
        <time>2022-06-13T07:52:10Z</time>
      </trkpt>
      <trkpt lat="45.3832" lon="5.80912">
        <ele>1557</ele>
        <time>2022-06-13T07:52:23Z</time>
      </trkpt>
      <trkpt lat="45.38318" lon="5.80919">
        <ele>1559</ele>
        <time>2022-06-13T07:52:33Z</time>
      </trkpt>
      <trkpt lat="45.38316" lon="5.80928">
        <ele>1559</ele>
        <time>2022-06-13T07:52:45Z</time>
      </trkpt>
      <trkpt lat="45.38312" lon="5.80935">
        <ele>1559</ele>
        <time>2022-06-13T07:53:00Z</time>
      </trkpt>
      <trkpt lat="45.38302" lon="5.80956">
        <ele>1557</ele>
        <time>2022-06-13T07:53:19Z</time>
      </trkpt>
      <trkpt lat="45.38298" lon="5.80963">
        <ele>1557</ele>
        <time>2022-06-13T07:53:25Z</time>
      </trkpt>
      <trkpt lat="45.38295" lon="5.80968">
        <ele>1557</ele>
        <time>2022-06-13T07:53:32Z</time>
      </trkpt>
      <trkpt lat="45.38281" lon="5.80975">
        <ele>1552</ele>
        <time>2022-06-13T07:53:53Z</time>
      </trkpt>
      <trkpt lat="45.38277" lon="5.8098">
        <ele>1551</ele>
        <time>2022-06-13T07:53:58Z</time>
      </trkpt>
      <trkpt lat="45.38271" lon="5.8098">
        <ele>1549</ele>
        <time>2022-06-13T07:54:10Z</time>
      </trkpt>
      <trkpt lat="45.38253" lon="5.80987">
        <ele>1545</ele>
        <time>2022-06-13T07:54:32Z</time>
      </trkpt>
      <trkpt lat="45.38241" lon="5.80991">
        <ele>1542</ele>
        <time>2022-06-13T07:54:44Z</time>
      </trkpt>
      <trkpt lat="45.38239" lon="5.80998">
        <ele>1542</ele>
        <time>2022-06-13T07:54:49Z</time>
      </trkpt>
      <trkpt lat="45.38234" lon="5.81004">
        <ele>1542</ele>
        <time>2022-06-13T07:54:55Z</time>
      </trkpt>
      <trkpt lat="45.38229" lon="5.81013">
        <ele>1543</ele>
        <time>2022-06-13T07:55:05Z</time>
      </trkpt>
      <trkpt lat="45.38224" lon="5.81015">
        <ele>1544</ele>
        <time>2022-06-13T07:55:10Z</time>
      </trkpt>
      <trkpt lat="45.3822" lon="5.81018">
        <ele>1544</ele>
        <time>2022-06-13T07:55:14Z</time>
      </trkpt>
      <trkpt lat="45.38216" lon="5.81018">
        <ele>1544</ele>
        <time>2022-06-13T07:55:19Z</time>
      </trkpt>
      <trkpt lat="45.38206" lon="5.8103">
        <ele>1547</ele>
        <time>2022-06-13T07:55:37Z</time>
      </trkpt>
      <trkpt lat="45.38202" lon="5.81032">
        <ele>1548</ele>
        <time>2022-06-13T07:55:42Z</time>
      </trkpt>
      <trkpt lat="45.38197" lon="5.81041">
        <ele>1550</ele>
        <time>2022-06-13T07:55:52Z</time>
      </trkpt>
      <trkpt lat="45.38193" lon="5.81045">
        <ele>1552</ele>
        <time>2022-06-13T07:56:02Z</time>
      </trkpt>
      <trkpt lat="45.38185" lon="5.81046">
        <ele>1552</ele>
        <time>2022-06-13T07:56:12Z</time>
      </trkpt>
      <trkpt lat="45.38179" lon="5.81048">
        <ele>1555</ele>
        <time>2022-06-13T07:56:27Z</time>
      </trkpt>
      <trkpt lat="45.38174" lon="5.81052">
        <ele>1556</ele>
        <time>2022-06-13T07:56:37Z</time>
      </trkpt>
      <trkpt lat="45.38169" lon="5.81054">
        <ele>1557</ele>
        <time>2022-06-13T07:56:43Z</time>
      </trkpt>
      <trkpt lat="45.38167" lon="5.81059">
        <ele>1558</ele>
        <time>2022-06-13T07:56:48Z</time>
      </trkpt>
      <trkpt lat="45.38164" lon="5.8107">
        <ele>1560</ele>
        <time>2022-06-13T07:56:58Z</time>
      </trkpt>
      <trkpt lat="45.38155" lon="5.81082">
        <ele>1563</ele>
        <time>2022-06-13T07:57:27Z</time>
      </trkpt>
      <trkpt lat="45.38148" lon="5.81086">
        <ele>1565</ele>
        <time>2022-06-13T07:57:42Z</time>
      </trkpt>
      <trkpt lat="45.38144" lon="5.81093">
        <ele>1566</ele>
        <time>2022-06-13T07:57:48Z</time>
      </trkpt>
      <trkpt lat="45.3814" lon="5.81095">
        <ele>1567</ele>
        <time>2022-06-13T07:57:55Z</time>
      </trkpt>
      <trkpt lat="45.3813" lon="5.81108">
        <ele>1570</ele>
        <time>2022-06-13T07:58:17Z</time>
      </trkpt>
      <trkpt lat="45.38135" lon="5.81115">
        <ele>1571</ele>
        <time>2022-06-13T07:58:23Z</time>
      </trkpt>
      <trkpt lat="45.38159" lon="5.81119">
        <ele>1576</ele>
        <time>2022-06-13T07:58:51Z</time>
      </trkpt>
      <trkpt lat="45.38163" lon="5.81117">
        <ele>1577</ele>
        <time>2022-06-13T07:58:58Z</time>
      </trkpt>
      <trkpt lat="45.38168" lon="5.81119">
        <ele>1578</ele>
        <time>2022-06-13T07:59:10Z</time>
      </trkpt>
      <trkpt lat="45.38181" lon="5.81113">
        <ele>1582</ele>
        <time>2022-06-13T07:59:29Z</time>
      </trkpt>
      <trkpt lat="45.38184" lon="5.8111">
        <ele>1584</ele>
        <time>2022-06-13T07:59:39Z</time>
      </trkpt>
      <trkpt lat="45.38193" lon="5.81107">
        <ele>1586</ele>
        <time>2022-06-13T07:59:54Z</time>
      </trkpt>
      <trkpt lat="45.38199" lon="5.81106">
        <ele>1588</ele>
        <time>2022-06-13T08:00:06Z</time>
      </trkpt>
      <trkpt lat="45.38203" lon="5.81103">
        <ele>1590</ele>
        <time>2022-06-13T08:00:16Z</time>
      </trkpt>
      <trkpt lat="45.38197" lon="5.81124">
        <ele>1596</ele>
        <time>2022-06-13T08:00:51Z</time>
      </trkpt>
      <trkpt lat="45.38195" lon="5.81131">
        <ele>1598</ele>
        <time>2022-06-13T08:01:02Z</time>
      </trkpt>
      <trkpt lat="45.3819" lon="5.81139">
        <ele>1599</ele>
        <time>2022-06-13T08:01:12Z</time>
      </trkpt>
      <trkpt lat="45.38187" lon="5.81143">
        <ele>1601</ele>
        <time>2022-06-13T08:01:23Z</time>
      </trkpt>
      <trkpt lat="45.38182" lon="5.81145">
        <ele>1603</ele>
        <time>2022-06-13T08:01:33Z</time>
      </trkpt>
      <trkpt lat="45.38178" lon="5.81152">
        <ele>1605</ele>
        <time>2022-06-13T08:01:43Z</time>
      </trkpt>
      <trkpt lat="45.38176" lon="5.81159">
        <ele>1607</ele>
        <time>2022-06-13T08:01:58Z</time>
      </trkpt>
      <trkpt lat="45.38175" lon="5.81166">
        <ele>1608</ele>
        <time>2022-06-13T08:02:13Z</time>
      </trkpt>
      <trkpt lat="45.38181" lon="5.81167">
        <ele>1610</ele>
        <time>2022-06-13T08:02:24Z</time>
      </trkpt>
      <trkpt lat="45.38185" lon="5.81169">
        <ele>1611</ele>
        <time>2022-06-13T08:02:39Z</time>
      </trkpt>
      <trkpt lat="45.38191" lon="5.81167">
        <ele>1613</ele>
        <time>2022-06-13T08:02:49Z</time>
      </trkpt>
      <trkpt lat="45.38189" lon="5.81176">
        <ele>1614</ele>
        <time>2022-06-13T08:02:59Z</time>
      </trkpt>
      <trkpt lat="45.38188" lon="5.81182">
        <ele>1615</ele>
        <time>2022-06-13T08:03:05Z</time>
      </trkpt>
      <trkpt lat="45.38189" lon="5.81193">
        <ele>1616</ele>
        <time>2022-06-13T08:03:15Z</time>
      </trkpt>
      <trkpt lat="45.382" lon="5.81217">
        <ele>1620</ele>
        <time>2022-06-13T08:03:42Z</time>
      </trkpt>
      <trkpt lat="45.38204" lon="5.81222">
        <ele>1622</ele>
        <time>2022-06-13T08:03:50Z</time>
      </trkpt>
      <trkpt lat="45.38219" lon="5.81251">
        <ele>1626</ele>
        <time>2022-06-13T08:04:25Z</time>
      </trkpt>
      <trkpt lat="45.38228" lon="5.81262">
        <ele>1630</ele>
        <time>2022-06-13T08:04:45Z</time>
      </trkpt>
      <trkpt lat="45.3823" lon="5.8127">
        <ele>1632</ele>
        <time>2022-06-13T08:04:55Z</time>
      </trkpt>
      <trkpt lat="45.38234" lon="5.81272">
        <ele>1633</ele>
        <time>2022-06-13T08:05:05Z</time>
      </trkpt>
      <trkpt lat="45.38239" lon="5.81276">
        <ele>1634</ele>
        <time>2022-06-13T08:05:11Z</time>
      </trkpt>
      <trkpt lat="45.38243" lon="5.81274">
        <ele>1635</ele>
        <time>2022-06-13T08:05:15Z</time>
      </trkpt>
      <trkpt lat="45.38248" lon="5.81271">
        <ele>1636</ele>
        <time>2022-06-13T08:06:12Z</time>
      </trkpt>
      <trkpt lat="45.38255" lon="5.81276">
        <ele>1636</ele>
        <time>2022-06-13T08:06:41Z</time>
      </trkpt>
      <trkpt lat="45.38259" lon="5.8128">
        <ele>1637</ele>
        <time>2022-06-13T08:06:45Z</time>
      </trkpt>
      <trkpt lat="45.38266" lon="5.8129">
        <ele>1637</ele>
        <time>2022-06-13T08:06:53Z</time>
      </trkpt>
      <trkpt lat="45.38282" lon="5.81302">
        <ele>1636</ele>
        <time>2022-06-13T08:07:09Z</time>
      </trkpt>
      <trkpt lat="45.38285" lon="5.81308">
        <ele>1637</ele>
        <time>2022-06-13T08:07:13Z</time>
      </trkpt>
      <trkpt lat="45.38294" lon="5.81312">
        <ele>1637</ele>
        <time>2022-06-13T08:07:21Z</time>
      </trkpt>
      <trkpt lat="45.38299" lon="5.81315">
        <ele>1637</ele>
        <time>2022-06-13T08:07:25Z</time>
      </trkpt>
      <trkpt lat="45.38308" lon="5.8132">
        <ele>1638</ele>
        <time>2022-06-13T08:07:34Z</time>
      </trkpt>
      <trkpt lat="45.38316" lon="5.81326">
        <ele>1638</ele>
        <time>2022-06-13T08:07:42Z</time>
      </trkpt>
      <trkpt lat="45.38319" lon="5.81331">
        <ele>1639</ele>
        <time>2022-06-13T08:07:46Z</time>
      </trkpt>
      <trkpt lat="45.38343" lon="5.81353">
        <ele>1641</ele>
        <time>2022-06-13T08:08:12Z</time>
      </trkpt>
      <trkpt lat="45.38349" lon="5.81362">
        <ele>1641</ele>
        <time>2022-06-13T08:08:20Z</time>
      </trkpt>
      <trkpt lat="45.38362" lon="5.81376">
        <ele>1642</ele>
        <time>2022-06-13T08:08:38Z</time>
      </trkpt>
      <trkpt lat="45.38366" lon="5.81379">
        <ele>1642</ele>
        <time>2022-06-13T08:08:43Z</time>
      </trkpt>
      <trkpt lat="45.38389" lon="5.81386">
        <ele>1643</ele>
        <time>2022-06-13T08:09:06Z</time>
      </trkpt>
      <trkpt lat="45.38394" lon="5.81389">
        <ele>1643</ele>
        <time>2022-06-13T08:09:11Z</time>
      </trkpt>
      <trkpt lat="45.38405" lon="5.81392">
        <ele>1644</ele>
        <time>2022-06-13T08:09:23Z</time>
      </trkpt>
      <trkpt lat="45.3841" lon="5.81397">
        <ele>1644</ele>
        <time>2022-06-13T08:09:31Z</time>
      </trkpt>
      <trkpt lat="45.38409" lon="5.81407">
        <ele>1646</ele>
        <time>2022-06-13T08:10:03Z</time>
      </trkpt>
      <trkpt lat="45.38423" lon="5.81433">
        <ele>1651</ele>
        <time>2022-06-13T08:10:30Z</time>
      </trkpt>
      <trkpt lat="45.38427" lon="5.81442">
        <ele>1652</ele>
        <time>2022-06-13T08:10:39Z</time>
      </trkpt>
      <trkpt lat="45.38429" lon="5.81451">
        <ele>1654</ele>
        <time>2022-06-13T08:10:49Z</time>
      </trkpt>
      <trkpt lat="45.3843" lon="5.81459">
        <ele>1657</ele>
        <time>2022-06-13T08:11:04Z</time>
      </trkpt>
      <trkpt lat="45.38426" lon="5.81464">
        <ele>1659</ele>
        <time>2022-06-13T08:11:19Z</time>
      </trkpt>
      <trkpt lat="45.38422" lon="5.81465">
        <ele>1660</ele>
        <time>2022-06-13T08:11:29Z</time>
      </trkpt>
      <trkpt lat="45.38415" lon="5.81468">
        <ele>1662</ele>
        <time>2022-06-13T08:11:41Z</time>
      </trkpt>
      <trkpt lat="45.38407" lon="5.81467">
        <ele>1664</ele>
        <time>2022-06-13T08:11:52Z</time>
      </trkpt>
      <trkpt lat="45.38402" lon="5.81471">
        <ele>1665</ele>
        <time>2022-06-13T08:12:02Z</time>
      </trkpt>
      <trkpt lat="45.38398" lon="5.81476">
        <ele>1667</ele>
        <time>2022-06-13T08:12:12Z</time>
      </trkpt>
      <trkpt lat="45.38392" lon="5.81473">
        <ele>1669</ele>
        <time>2022-06-13T08:12:22Z</time>
      </trkpt>
      <trkpt lat="45.38383" lon="5.81462">
        <ele>1672</ele>
        <time>2022-06-13T08:12:42Z</time>
      </trkpt>
      <trkpt lat="45.38367" lon="5.81451">
        <ele>1677</ele>
        <time>2022-06-13T08:13:12Z</time>
      </trkpt>
      <trkpt lat="45.38359" lon="5.81448">
        <ele>1679</ele>
        <time>2022-06-13T08:13:22Z</time>
      </trkpt>
      <trkpt lat="45.38353" lon="5.81452">
        <ele>1680</ele>
        <time>2022-06-13T08:13:44Z</time>
      </trkpt>
      <trkpt lat="45.38348" lon="5.81452">
        <ele>1680</ele>
        <time>2022-06-13T08:13:49Z</time>
      </trkpt>
      <trkpt lat="45.38344" lon="5.81449">
        <ele>1680</ele>
        <time>2022-06-13T08:13:53Z</time>
      </trkpt>
      <trkpt lat="45.38335" lon="5.81444">
        <ele>1679</ele>
        <time>2022-06-13T08:14:01Z</time>
      </trkpt>
      <trkpt lat="45.38319" lon="5.81435">
        <ele>1679</ele>
        <time>2022-06-13T08:14:19Z</time>
      </trkpt>
      <trkpt lat="45.38314" lon="5.81434">
        <ele>1680</ele>
        <time>2022-06-13T08:14:23Z</time>
      </trkpt>
      <trkpt lat="45.383" lon="5.81431">
        <ele>1683</ele>
        <time>2022-06-13T08:14:40Z</time>
      </trkpt>
      <trkpt lat="45.38281" lon="5.81412">
        <ele>1685</ele>
        <time>2022-06-13T08:15:10Z</time>
      </trkpt>
      <trkpt lat="45.38275" lon="5.8141">
        <ele>1686</ele>
        <time>2022-06-13T08:15:17Z</time>
      </trkpt>
      <trkpt lat="45.38255" lon="5.81394">
        <ele>1691</ele>
        <time>2022-06-13T08:15:49Z</time>
      </trkpt>
      <trkpt lat="45.38245" lon="5.8139">
        <ele>1694</ele>
        <time>2022-06-13T08:16:16Z</time>
      </trkpt>
      <trkpt lat="45.38241" lon="5.81387">
        <ele>1694</ele>
        <time>2022-06-13T08:16:20Z</time>
      </trkpt>
      <trkpt lat="45.38236" lon="5.81387">
        <ele>1694</ele>
        <time>2022-06-13T08:16:27Z</time>
      </trkpt>
      <trkpt lat="45.38225" lon="5.81393">
        <ele>1697</ele>
        <time>2022-06-13T08:16:47Z</time>
      </trkpt>
      <trkpt lat="45.3822" lon="5.81393">
        <ele>1699</ele>
        <time>2022-06-13T08:16:57Z</time>
      </trkpt>
      <trkpt lat="45.38215" lon="5.81396">
        <ele>1702</ele>
        <time>2022-06-13T08:17:12Z</time>
      </trkpt>
      <trkpt lat="45.38211" lon="5.81394">
        <ele>1703</ele>
        <time>2022-06-13T08:17:22Z</time>
      </trkpt>
      <trkpt lat="45.38206" lon="5.81395">
        <ele>1705</ele>
        <time>2022-06-13T08:17:32Z</time>
      </trkpt>
      <trkpt lat="45.38201" lon="5.81391">
        <ele>1708</ele>
        <time>2022-06-13T08:17:47Z</time>
      </trkpt>
      <trkpt lat="45.38196" lon="5.81388">
        <ele>1710</ele>
        <time>2022-06-13T08:17:59Z</time>
      </trkpt>
      <trkpt lat="45.38192" lon="5.81389">
        <ele>1712</ele>
        <time>2022-06-13T08:18:10Z</time>
      </trkpt>
      <trkpt lat="45.38187" lon="5.81392">
        <ele>1715</ele>
        <time>2022-06-13T08:18:25Z</time>
      </trkpt>
      <trkpt lat="45.38181" lon="5.81393">
        <ele>1719</ele>
        <time>2022-06-13T08:18:45Z</time>
      </trkpt>
      <trkpt lat="45.3818" lon="5.81399">
        <ele>1721</ele>
        <time>2022-06-13T08:19:00Z</time>
      </trkpt>
      <trkpt lat="45.3818" lon="5.81407">
        <ele>1722</ele>
        <time>2022-06-13T08:19:10Z</time>
      </trkpt>
      <trkpt lat="45.38178" lon="5.81412">
        <ele>1724</ele>
        <time>2022-06-13T08:19:25Z</time>
      </trkpt>
      <trkpt lat="45.38178" lon="5.81418">
        <ele>1726</ele>
        <time>2022-06-13T08:19:35Z</time>
      </trkpt>
      <trkpt lat="45.38174" lon="5.81422">
        <ele>1729</ele>
        <time>2022-06-13T08:19:56Z</time>
      </trkpt>
      <trkpt lat="45.38167" lon="5.81434">
        <ele>1737</ele>
        <time>2022-06-13T08:20:53Z</time>
      </trkpt>
      <trkpt lat="45.38166" lon="5.81441">
        <ele>1740</ele>
        <time>2022-06-13T08:21:13Z</time>
      </trkpt>
      <trkpt lat="45.38171" lon="5.81443">
        <ele>1745</ele>
        <time>2022-06-13T08:21:43Z</time>
      </trkpt>
      <trkpt lat="45.38176" lon="5.81445">
        <ele>1747</ele>
        <time>2022-06-13T08:21:53Z</time>
      </trkpt>
      <trkpt lat="45.38172" lon="5.81449">
        <ele>1750</ele>
        <time>2022-06-13T08:22:15Z</time>
      </trkpt>
      <trkpt lat="45.38166" lon="5.81448">
        <ele>1752</ele>
        <time>2022-06-13T08:22:30Z</time>
      </trkpt>
      <trkpt lat="45.38162" lon="5.81454">
        <ele>1755</ele>
        <time>2022-06-13T08:22:55Z</time>
      </trkpt>
      <trkpt lat="45.38157" lon="5.81449">
        <ele>1757</ele>
        <time>2022-06-13T08:23:05Z</time>
      </trkpt>
      <trkpt lat="45.38147" lon="5.81452">
        <ele>1760</ele>
        <time>2022-06-13T08:23:25Z</time>
      </trkpt>
      <trkpt lat="45.38143" lon="5.81451">
        <ele>1762</ele>
        <time>2022-06-13T08:23:35Z</time>
      </trkpt>
      <trkpt lat="45.38139" lon="5.81445">
        <ele>1763</ele>
        <time>2022-06-13T08:23:45Z</time>
      </trkpt>
      <trkpt lat="45.38128" lon="5.81441">
        <ele>1767</ele>
        <time>2022-06-13T08:24:07Z</time>
      </trkpt>
      <trkpt lat="45.38122" lon="5.8144">
        <ele>1769</ele>
        <time>2022-06-13T08:24:19Z</time>
      </trkpt>
      <trkpt lat="45.38117" lon="5.81442">
        <ele>1771</ele>
        <time>2022-06-13T08:24:35Z</time>
      </trkpt>
      <trkpt lat="45.38112" lon="5.8144">
        <ele>1773</ele>
        <time>2022-06-13T08:24:50Z</time>
      </trkpt>
      <trkpt lat="45.38107" lon="5.81438">
        <ele>1776</ele>
        <time>2022-06-13T08:25:05Z</time>
      </trkpt>
      <trkpt lat="45.38102" lon="5.81436">
        <ele>1777</ele>
        <time>2022-06-13T08:25:15Z</time>
      </trkpt>
      <trkpt lat="45.381" lon="5.81442">
        <ele>1780</ele>
        <time>2022-06-13T08:25:30Z</time>
      </trkpt>
      <trkpt lat="45.38095" lon="5.81442">
        <ele>1783</ele>
        <time>2022-06-13T08:25:45Z</time>
      </trkpt>
      <trkpt lat="45.3809" lon="5.81441">
        <ele>1785</ele>
        <time>2022-06-13T08:26:00Z</time>
      </trkpt>
      <trkpt lat="45.38082" lon="5.81439">
        <ele>1788</ele>
        <time>2022-06-13T08:26:16Z</time>
      </trkpt>
      <trkpt lat="45.38078" lon="5.81442">
        <ele>1790</ele>
        <time>2022-06-13T08:26:32Z</time>
      </trkpt>
      <trkpt lat="45.38067" lon="5.81439">
        <ele>1795</ele>
        <time>2022-06-13T08:27:02Z</time>
      </trkpt>
      <trkpt lat="45.38062" lon="5.8144">
        <ele>1798</ele>
        <time>2022-06-13T08:27:17Z</time>
      </trkpt>
      <trkpt lat="45.38056" lon="5.81438">
        <ele>1800</ele>
        <time>2022-06-13T08:27:32Z</time>
      </trkpt>
      <trkpt lat="45.38053" lon="5.81445">
        <ele>1802</ele>
        <time>2022-06-13T08:27:47Z</time>
      </trkpt>
      <trkpt lat="45.38055" lon="5.8145">
        <ele>1802</ele>
        <time>2022-06-13T08:29:05Z</time>
      </trkpt>
      <trkpt lat="45.38059" lon="5.81452">
        <ele>1804</ele>
        <time>2022-06-13T08:31:18Z</time>
      </trkpt>
      <trkpt lat="45.38061" lon="5.81459">
        <ele>1806</ele>
        <time>2022-06-13T08:31:38Z</time>
      </trkpt>
      <trkpt lat="45.38061" lon="5.81468">
        <ele>1811</ele>
        <time>2022-06-13T08:32:13Z</time>
      </trkpt>
      <trkpt lat="45.38066" lon="5.81482">
        <ele>1819</ele>
        <time>2022-06-13T08:33:09Z</time>
      </trkpt>
      <trkpt lat="45.38067" lon="5.81489">
        <ele>1822</ele>
        <time>2022-06-13T08:33:29Z</time>
      </trkpt>
      <trkpt lat="45.38069" lon="5.81495">
        <ele>1824</ele>
        <time>2022-06-13T08:33:39Z</time>
      </trkpt>
      <trkpt lat="45.3807" lon="5.81501">
        <ele>1826</ele>
        <time>2022-06-13T08:33:54Z</time>
      </trkpt>
      <trkpt lat="45.38072" lon="5.81508">
        <ele>1829</ele>
        <time>2022-06-13T08:34:14Z</time>
      </trkpt>
      <trkpt lat="45.38068" lon="5.81512">
        <ele>1831</ele>
        <time>2022-06-13T08:34:34Z</time>
      </trkpt>
      <trkpt lat="45.38064" lon="5.81517">
        <ele>1834</ele>
        <time>2022-06-13T08:34:56Z</time>
      </trkpt>
      <trkpt lat="45.3806" lon="5.81512">
        <ele>1835</ele>
        <time>2022-06-13T08:35:17Z</time>
      </trkpt>
      <trkpt lat="45.38055" lon="5.81509">
        <ele>1835</ele>
        <time>2022-06-13T08:35:47Z</time>
      </trkpt>
      <trkpt lat="45.3805" lon="5.81504">
        <ele>1837</ele>
        <time>2022-06-13T08:35:57Z</time>
      </trkpt>
      <trkpt lat="45.38033" lon="5.81494">
        <ele>1841</ele>
        <time>2022-06-13T08:36:29Z</time>
      </trkpt>
      <trkpt lat="45.38027" lon="5.81492">
        <ele>1843</ele>
        <time>2022-06-13T08:36:39Z</time>
      </trkpt>
      <trkpt lat="45.38025" lon="5.815">
        <ele>1845</ele>
        <time>2022-06-13T08:36:50Z</time>
      </trkpt>
      <trkpt lat="45.3802" lon="5.81504">
        <ele>1845</ele>
        <time>2022-06-13T08:37:22Z</time>
      </trkpt>
      <trkpt lat="45.38013" lon="5.81501">
        <ele>1847</ele>
        <time>2022-06-13T08:37:32Z</time>
      </trkpt>
      <trkpt lat="45.38008" lon="5.81505">
        <ele>1848</ele>
        <time>2022-06-13T08:37:45Z</time>
      </trkpt>
      <trkpt lat="45.38002" lon="5.815">
        <ele>1849</ele>
        <time>2022-06-13T08:38:20Z</time>
      </trkpt>
      <trkpt lat="45.37994" lon="5.81495">
        <ele>1850</ele>
        <time>2022-06-13T08:38:35Z</time>
      </trkpt>
      <trkpt lat="45.37988" lon="5.81494">
        <ele>1852</ele>
        <time>2022-06-13T08:38:45Z</time>
      </trkpt>
      <trkpt lat="45.37981" lon="5.81501">
        <ele>1854</ele>
        <time>2022-06-13T08:38:57Z</time>
      </trkpt>
      <trkpt lat="45.37977" lon="5.81507">
        <ele>1855</ele>
        <time>2022-06-13T08:39:07Z</time>
      </trkpt>
      <trkpt lat="45.37977" lon="5.81514">
        <ele>1857</ele>
        <time>2022-06-13T08:39:17Z</time>
      </trkpt>
      <trkpt lat="45.37969" lon="5.81517">
        <ele>1859</ele>
        <time>2022-06-13T08:39:32Z</time>
      </trkpt>
      <trkpt lat="45.37958" lon="5.81514">
        <ele>1860</ele>
        <time>2022-06-13T08:39:57Z</time>
      </trkpt>
      <trkpt lat="45.37947" lon="5.81509">
        <ele>1861</ele>
        <time>2022-06-13T08:40:23Z</time>
      </trkpt>
      <trkpt lat="45.37942" lon="5.81508">
        <ele>1861</ele>
        <time>2022-06-13T08:40:34Z</time>
      </trkpt>
      <trkpt lat="45.37932" lon="5.81507">
        <ele>1861</ele>
        <time>2022-06-13T08:40:49Z</time>
      </trkpt>
      <trkpt lat="45.37923" lon="5.81502">
        <ele>1861</ele>
        <time>2022-06-13T08:41:07Z</time>
      </trkpt>
      <trkpt lat="45.37913" lon="5.81494">
        <ele>1859</ele>
        <time>2022-06-13T08:41:29Z</time>
      </trkpt>
      <trkpt lat="45.37909" lon="5.8149">
        <ele>1860</ele>
        <time>2022-06-13T08:41:39Z</time>
      </trkpt>
      <trkpt lat="45.37904" lon="5.8149">
        <ele>1859</ele>
        <time>2022-06-13T08:41:49Z</time>
      </trkpt>
      <trkpt lat="45.379" lon="5.81494">
        <ele>1858</ele>
        <time>2022-06-13T08:41:55Z</time>
      </trkpt>
      <trkpt lat="45.37897" lon="5.8149">
        <ele>1858</ele>
        <time>2022-06-13T08:42:02Z</time>
      </trkpt>
      <trkpt lat="45.37892" lon="5.81487">
        <ele>1859</ele>
        <time>2022-06-13T08:42:12Z</time>
      </trkpt>
      <trkpt lat="45.37887" lon="5.81485">
        <ele>1859</ele>
        <time>2022-06-13T08:42:27Z</time>
      </trkpt>
      <trkpt lat="45.37881" lon="5.81485">
        <ele>1859</ele>
        <time>2022-06-13T08:42:42Z</time>
      </trkpt>
      <trkpt lat="45.37876" lon="5.81485">
        <ele>1859</ele>
        <time>2022-06-13T08:42:53Z</time>
      </trkpt>
      <trkpt lat="45.37863" lon="5.8148">
        <ele>1861</ele>
        <time>2022-06-13T08:43:16Z</time>
      </trkpt>
      <trkpt lat="45.37858" lon="5.8148">
        <ele>1861</ele>
        <time>2022-06-13T08:43:20Z</time>
      </trkpt>
      <trkpt lat="45.37854" lon="5.81481">
        <ele>1862</ele>
        <time>2022-06-13T08:43:27Z</time>
      </trkpt>
      <trkpt lat="45.37831" lon="5.81476">
        <ele>1867</ele>
        <time>2022-06-13T08:43:58Z</time>
      </trkpt>
      <trkpt lat="45.37824" lon="5.8148">
        <ele>1868</ele>
        <time>2022-06-13T08:44:10Z</time>
      </trkpt>
      <trkpt lat="45.37812" lon="5.8148">
        <ele>1870</ele>
        <time>2022-06-13T08:44:30Z</time>
      </trkpt>
      <trkpt lat="45.37808" lon="5.81481">
        <ele>1870</ele>
        <time>2022-06-13T08:44:40Z</time>
      </trkpt>
      <trkpt lat="45.37802" lon="5.81481">
        <ele>1870</ele>
        <time>2022-06-13T08:44:50Z</time>
      </trkpt>
      <trkpt lat="45.37789" lon="5.81485">
        <ele>1871</ele>
        <time>2022-06-13T08:45:07Z</time>
      </trkpt>
      <trkpt lat="45.37785" lon="5.81487">
        <ele>1872</ele>
        <time>2022-06-13T08:45:15Z</time>
      </trkpt>
      <trkpt lat="45.37774" lon="5.81483">
        <ele>1877</ele>
        <time>2022-06-13T08:45:42Z</time>
      </trkpt>
      <trkpt lat="45.37769" lon="5.81481">
        <ele>1880</ele>
        <time>2022-06-13T08:46:02Z</time>
      </trkpt>
      <trkpt lat="45.37765" lon="5.81479">
        <ele>1882</ele>
        <time>2022-06-13T08:46:12Z</time>
      </trkpt>
      <trkpt lat="45.37757" lon="5.8148">
        <ele>1883</ele>
        <time>2022-06-13T08:46:27Z</time>
      </trkpt>
      <trkpt lat="45.37753" lon="5.8148">
        <ele>1883</ele>
        <time>2022-06-13T08:46:32Z</time>
      </trkpt>
      <trkpt lat="45.37739" lon="5.8148">
        <ele>1886</ele>
        <time>2022-06-13T08:46:52Z</time>
      </trkpt>
      <trkpt lat="45.37722" lon="5.81483">
        <ele>1889</ele>
        <time>2022-06-13T08:47:25Z</time>
      </trkpt>
      <trkpt lat="45.37717" lon="5.8148">
        <ele>1890</ele>
        <time>2022-06-13T08:47:36Z</time>
      </trkpt>
      <trkpt lat="45.37716" lon="5.81473">
        <ele>1893</ele>
        <time>2022-06-13T08:48:01Z</time>
      </trkpt>
      <trkpt lat="45.3771" lon="5.81458">
        <ele>1897</ele>
        <time>2022-06-13T08:48:36Z</time>
      </trkpt>
      <trkpt lat="45.37701" lon="5.81452">
        <ele>1898</ele>
        <time>2022-06-13T08:48:50Z</time>
      </trkpt>
      <trkpt lat="45.37696" lon="5.81447">
        <ele>1897</ele>
        <time>2022-06-13T08:49:02Z</time>
      </trkpt>
      <trkpt lat="45.3769" lon="5.81444">
        <ele>1897</ele>
        <time>2022-06-13T08:49:12Z</time>
      </trkpt>
      <trkpt lat="45.37686" lon="5.81438">
        <ele>1898</ele>
        <time>2022-06-13T08:49:23Z</time>
      </trkpt>
      <trkpt lat="45.37681" lon="5.81432">
        <ele>1900</ele>
        <time>2022-06-13T08:49:35Z</time>
      </trkpt>
      <trkpt lat="45.37674" lon="5.81417">
        <ele>1905</ele>
        <time>2022-06-13T08:50:10Z</time>
      </trkpt>
      <trkpt lat="45.3767" lon="5.81414">
        <ele>1906</ele>
        <time>2022-06-13T08:50:20Z</time>
      </trkpt>
      <trkpt lat="45.37664" lon="5.81411">
        <ele>1907</ele>
        <time>2022-06-13T08:50:31Z</time>
      </trkpt>
      <trkpt lat="45.37666" lon="5.81404">
        <ele>1911</ele>
        <time>2022-06-13T08:50:56Z</time>
      </trkpt>
      <trkpt lat="45.37664" lon="5.81399">
        <ele>1913</ele>
        <time>2022-06-13T08:51:21Z</time>
      </trkpt>
      <trkpt lat="45.37657" lon="5.81396">
        <ele>1915</ele>
        <time>2022-06-13T08:51:38Z</time>
      </trkpt>
      <trkpt lat="45.37655" lon="5.81389">
        <ele>1918</ele>
        <time>2022-06-13T08:52:08Z</time>
      </trkpt>
      <trkpt lat="45.37652" lon="5.81383">
        <ele>1921</ele>
        <time>2022-06-13T08:52:28Z</time>
      </trkpt>
      <trkpt lat="45.37649" lon="5.81379">
        <ele>1924</ele>
        <time>2022-06-13T08:52:43Z</time>
      </trkpt>
      <trkpt lat="45.37646" lon="5.81371">
        <ele>1928</ele>
        <time>2022-06-13T08:53:08Z</time>
      </trkpt>
      <trkpt lat="45.37639" lon="5.81363">
        <ele>1931</ele>
        <time>2022-06-13T08:53:34Z</time>
      </trkpt>
      <trkpt lat="45.37634" lon="5.8136">
        <ele>1932</ele>
        <time>2022-06-13T08:53:45Z</time>
      </trkpt>
      <trkpt lat="45.3763" lon="5.81358">
        <ele>1933</ele>
        <time>2022-06-13T08:54:27Z</time>
      </trkpt>
      <trkpt lat="45.37625" lon="5.81357">
        <ele>1934</ele>
        <time>2022-06-13T08:54:47Z</time>
      </trkpt>
      <trkpt lat="45.37619" lon="5.81355">
        <ele>1935</ele>
        <time>2022-06-13T08:54:57Z</time>
      </trkpt>
      <trkpt lat="45.37615" lon="5.81351">
        <ele>1937</ele>
        <time>2022-06-13T08:55:07Z</time>
      </trkpt>
      <trkpt lat="45.3761" lon="5.8135">
        <ele>1937</ele>
        <time>2022-06-13T08:55:32Z</time>
      </trkpt>
      <trkpt lat="45.37604" lon="5.81348">
        <ele>1938</ele>
        <time>2022-06-13T08:55:42Z</time>
      </trkpt>
      <trkpt lat="45.37587" lon="5.81344">
        <ele>1942</ele>
        <time>2022-06-13T08:56:13Z</time>
      </trkpt>
      <trkpt lat="45.37581" lon="5.81346">
        <ele>1942</ele>
        <time>2022-06-13T08:56:23Z</time>
      </trkpt>
      <trkpt lat="45.37576" lon="5.81341">
        <ele>1943</ele>
        <time>2022-06-13T08:56:33Z</time>
      </trkpt>
      <trkpt lat="45.3757" lon="5.81342">
        <ele>1945</ele>
        <time>2022-06-13T08:56:43Z</time>
      </trkpt>
      <trkpt lat="45.37565" lon="5.81341">
        <ele>1946</ele>
        <time>2022-06-13T08:57:18Z</time>
      </trkpt>
      <trkpt lat="45.37561" lon="5.81337">
        <ele>1945</ele>
        <time>2022-06-13T08:57:23Z</time>
      </trkpt>
      <trkpt lat="45.37557" lon="5.81335">
        <ele>1945</ele>
        <time>2022-06-13T08:57:28Z</time>
      </trkpt>
      <trkpt lat="45.37551" lon="5.81333">
        <ele>1946</ele>
        <time>2022-06-13T08:57:35Z</time>
      </trkpt>
      <trkpt lat="45.37545" lon="5.81329">
        <ele>1947</ele>
        <time>2022-06-13T08:57:52Z</time>
      </trkpt>
      <trkpt lat="45.3754" lon="5.81326">
        <ele>1948</ele>
        <time>2022-06-13T08:57:57Z</time>
      </trkpt>
      <trkpt lat="45.37526" lon="5.81322">
        <ele>1948</ele>
        <time>2022-06-13T08:58:12Z</time>
      </trkpt>
      <trkpt lat="45.37521" lon="5.81323">
        <ele>1949</ele>
        <time>2022-06-13T08:58:17Z</time>
      </trkpt>
      <trkpt lat="45.37511" lon="5.81322">
        <ele>1951</ele>
        <time>2022-06-13T08:58:30Z</time>
      </trkpt>
      <trkpt lat="45.37499" lon="5.81323">
        <ele>1953</ele>
        <time>2022-06-13T08:58:47Z</time>
      </trkpt>
      <trkpt lat="45.37466" lon="5.81321">
        <ele>1957</ele>
        <time>2022-06-13T08:59:24Z</time>
      </trkpt>
      <trkpt lat="45.37431" lon="5.81322">
        <ele>1960</ele>
        <time>2022-06-13T08:59:59Z</time>
      </trkpt>
      <trkpt lat="45.37401" lon="5.81324">
        <ele>1962</ele>
        <time>2022-06-13T09:00:31Z</time>
      </trkpt>
      <trkpt lat="45.37382" lon="5.81323">
        <ele>1963</ele>
        <time>2022-06-13T09:00:49Z</time>
      </trkpt>
      <trkpt lat="45.37367" lon="5.81326">
        <ele>1964</ele>
        <time>2022-06-13T09:01:03Z</time>
      </trkpt>
      <trkpt lat="45.37362" lon="5.81326">
        <ele>1964</ele>
        <time>2022-06-13T09:01:08Z</time>
      </trkpt>
      <trkpt lat="45.37358" lon="5.81328">
        <ele>1965</ele>
        <time>2022-06-13T09:01:13Z</time>
      </trkpt>
      <trkpt lat="45.37354" lon="5.81329">
        <ele>1965</ele>
        <time>2022-06-13T09:01:17Z</time>
      </trkpt>
      <trkpt lat="45.37343" lon="5.81328">
        <ele>1965</ele>
        <time>2022-06-13T09:01:28Z</time>
      </trkpt>
      <trkpt lat="45.37333" lon="5.81326">
        <ele>1965</ele>
        <time>2022-06-13T09:01:37Z</time>
      </trkpt>
      <trkpt lat="45.37323" lon="5.8133">
        <ele>1966</ele>
        <time>2022-06-13T09:01:47Z</time>
      </trkpt>
      <trkpt lat="45.37317" lon="5.81332">
        <ele>1966</ele>
        <time>2022-06-13T09:01:55Z</time>
      </trkpt>
      <trkpt lat="45.37308" lon="5.81337">
        <ele>1966</ele>
        <time>2022-06-13T09:02:04Z</time>
      </trkpt>
      <trkpt lat="45.37304" lon="5.81338">
        <ele>1966</ele>
        <time>2022-06-13T09:02:11Z</time>
      </trkpt>
      <trkpt lat="45.37284" lon="5.81337">
        <ele>1971</ele>
        <time>2022-06-13T09:02:41Z</time>
      </trkpt>
      <trkpt lat="45.37279" lon="5.81334">
        <ele>1972</ele>
        <time>2022-06-13T09:02:51Z</time>
      </trkpt>
      <trkpt lat="45.37268" lon="5.81334">
        <ele>1975</ele>
        <time>2022-06-13T09:03:11Z</time>
      </trkpt>
      <trkpt lat="45.37265" lon="5.8133">
        <ele>1977</ele>
        <time>2022-06-13T09:03:26Z</time>
      </trkpt>
      <trkpt lat="45.37262" lon="5.81324">
        <ele>1980</ele>
        <time>2022-06-13T09:03:41Z</time>
      </trkpt>
      <trkpt lat="45.37246" lon="5.81312">
        <ele>1986</ele>
        <time>2022-06-13T09:04:19Z</time>
      </trkpt>
      <trkpt lat="45.37242" lon="5.81306">
        <ele>1988</ele>
        <time>2022-06-13T09:04:34Z</time>
      </trkpt>
      <trkpt lat="45.3723" lon="5.81298">
        <ele>1994</ele>
        <time>2022-06-13T09:05:04Z</time>
      </trkpt>
      <trkpt lat="45.37224" lon="5.81293">
        <ele>1995</ele>
        <time>2022-06-13T09:05:15Z</time>
      </trkpt>
      <trkpt lat="45.37219" lon="5.81291">
        <ele>1996</ele>
        <time>2022-06-13T09:05:25Z</time>
      </trkpt>
      <trkpt lat="45.37213" lon="5.81287">
        <ele>1998</ele>
        <time>2022-06-13T09:05:35Z</time>
      </trkpt>
      <trkpt lat="45.37208" lon="5.81286">
        <ele>2000</ele>
        <time>2022-06-13T09:05:45Z</time>
      </trkpt>
      <trkpt lat="45.37203" lon="5.81281">
        <ele>2001</ele>
        <time>2022-06-13T09:05:55Z</time>
      </trkpt>
      <trkpt lat="45.37198" lon="5.81277">
        <ele>2003</ele>
        <time>2022-06-13T09:06:05Z</time>
      </trkpt>
      <trkpt lat="45.37194" lon="5.81274">
        <ele>2004</ele>
        <time>2022-06-13T09:06:17Z</time>
      </trkpt>
      <trkpt lat="45.37194" lon="5.81264">
        <ele>2007</ele>
        <time>2022-06-13T09:06:33Z</time>
      </trkpt>
      <trkpt lat="45.37184" lon="5.81254">
        <ele>2011</ele>
        <time>2022-06-13T09:07:03Z</time>
      </trkpt>
      <trkpt lat="45.37169" lon="5.81243">
        <ele>2014</ele>
        <time>2022-06-13T09:07:29Z</time>
      </trkpt>
      <trkpt lat="45.37138" lon="5.81234">
        <ele>2019</ele>
        <time>2022-06-13T09:08:08Z</time>
      </trkpt>
      <trkpt lat="45.37133" lon="5.8123">
        <ele>2020</ele>
        <time>2022-06-13T09:08:15Z</time>
      </trkpt>
      <trkpt lat="45.3713" lon="5.81225">
        <ele>2020</ele>
        <time>2022-06-13T09:08:23Z</time>
      </trkpt>
      <trkpt lat="45.3713" lon="5.81219">
        <ele>2021</ele>
        <time>2022-06-13T09:08:28Z</time>
      </trkpt>
      <trkpt lat="45.37124" lon="5.81206">
        <ele>2021</ele>
        <time>2022-06-13T09:08:40Z</time>
      </trkpt>
      <trkpt lat="45.37119" lon="5.81205">
        <ele>2021</ele>
        <time>2022-06-13T09:08:45Z</time>
      </trkpt>
      <trkpt lat="45.37106" lon="5.81201">
        <ele>2023</ele>
        <time>2022-06-13T09:09:02Z</time>
      </trkpt>
      <trkpt lat="45.37102" lon="5.81203">
        <ele>2023</ele>
        <time>2022-06-13T09:09:09Z</time>
      </trkpt>
      <trkpt lat="45.37094" lon="5.81201">
        <ele>2025</ele>
        <time>2022-06-13T09:09:19Z</time>
      </trkpt>
      <trkpt lat="45.37079" lon="5.81205">
        <ele>2027</ele>
        <time>2022-06-13T09:09:40Z</time>
      </trkpt>
      <trkpt lat="45.37071" lon="5.81205">
        <ele>2027</ele>
        <time>2022-06-13T09:09:48Z</time>
      </trkpt>
      <trkpt lat="45.37063" lon="5.81209">
        <ele>2027</ele>
        <time>2022-06-13T09:10:21Z</time>
      </trkpt>
      <trkpt lat="45.37058" lon="5.81208">
        <ele>2028</ele>
        <time>2022-06-13T09:10:29Z</time>
      </trkpt>
      <trkpt lat="45.37053" lon="5.81205">
        <ele>2030</ele>
        <time>2022-06-13T09:10:40Z</time>
      </trkpt>
      <trkpt lat="45.37048" lon="5.81202">
        <ele>2031</ele>
        <time>2022-06-13T09:10:50Z</time>
      </trkpt>
      <trkpt lat="45.37045" lon="5.81204">
        <ele>2030</ele>
        <time>2022-06-13T09:17:46Z</time>
      </trkpt>
      <trkpt lat="45.37039" lon="5.81204">
        <ele>2030</ele>
        <time>2022-06-13T09:17:57Z</time>
      </trkpt>
      <trkpt lat="45.37039" lon="5.81207">
        <ele>2024</ele>
        <time>2022-06-13T09:44:03Z</time>
      </trkpt>
      <trkpt lat="45.37041" lon="5.81207">
        <ele>2024</ele>
        <time>2022-06-13T09:45:34Z</time>
      </trkpt>
      <trkpt lat="45.37048" lon="5.81204">
        <ele>2024</ele>
        <time>2022-06-13T09:45:44Z</time>
      </trkpt>
      <trkpt lat="45.37054" lon="5.81204">
        <ele>2025</ele>
        <time>2022-06-13T09:45:59Z</time>
      </trkpt>
      <trkpt lat="45.37054" lon="5.81212">
        <ele>2024</ele>
        <time>2022-06-13T09:46:32Z</time>
      </trkpt>
      <trkpt lat="45.37059" lon="5.81217">
        <ele>2020</ele>
        <time>2022-06-13T09:46:43Z</time>
      </trkpt>
      <trkpt lat="45.37065" lon="5.81224">
        <ele>2018</ele>
        <time>2022-06-13T09:46:54Z</time>
      </trkpt>
      <trkpt lat="45.37063" lon="5.81233">
        <ele>2016</ele>
        <time>2022-06-13T09:47:04Z</time>
      </trkpt>
      <trkpt lat="45.37065" lon="5.8124">
        <ele>2013</ele>
        <time>2022-06-13T09:47:14Z</time>
      </trkpt>
      <trkpt lat="45.37068" lon="5.81244">
        <ele>2012</ele>
        <time>2022-06-13T09:47:19Z</time>
      </trkpt>
      <trkpt lat="45.3707" lon="5.81251">
        <ele>2009</ele>
        <time>2022-06-13T09:47:35Z</time>
      </trkpt>
      <trkpt lat="45.37074" lon="5.81264">
        <ele>2003</ele>
        <time>2022-06-13T09:48:00Z</time>
      </trkpt>
      <trkpt lat="45.37077" lon="5.81279">
        <ele>1998</ele>
        <time>2022-06-13T09:48:23Z</time>
      </trkpt>
      <trkpt lat="45.37074" lon="5.81287">
        <ele>1995</ele>
        <time>2022-06-13T09:48:41Z</time>
      </trkpt>
      <trkpt lat="45.37075" lon="5.81296">
        <ele>1992</ele>
        <time>2022-06-13T09:48:56Z</time>
      </trkpt>
      <trkpt lat="45.37074" lon="5.81306">
        <ele>1989</ele>
        <time>2022-06-13T09:49:07Z</time>
      </trkpt>
      <trkpt lat="45.37076" lon="5.81315">
        <ele>1986</ele>
        <time>2022-06-13T09:49:17Z</time>
      </trkpt>
      <trkpt lat="45.37069" lon="5.81321">
        <ele>1983</ele>
        <time>2022-06-13T09:49:27Z</time>
      </trkpt>
      <trkpt lat="45.37074" lon="5.81326">
        <ele>1982</ele>
        <time>2022-06-13T09:49:34Z</time>
      </trkpt>
      <trkpt lat="45.37081" lon="5.81331">
        <ele>1980</ele>
        <time>2022-06-13T09:49:46Z</time>
      </trkpt>
      <trkpt lat="45.37089" lon="5.81339">
        <ele>1979</ele>
        <time>2022-06-13T09:49:56Z</time>
      </trkpt>
      <trkpt lat="45.37094" lon="5.8134">
        <ele>1978</ele>
        <time>2022-06-13T09:50:06Z</time>
      </trkpt>
      <trkpt lat="45.37097" lon="5.81354">
        <ele>1972</ele>
        <time>2022-06-13T09:50:45Z</time>
      </trkpt>
      <trkpt lat="45.37097" lon="5.8136">
        <ele>1970</ele>
        <time>2022-06-13T09:50:55Z</time>
      </trkpt>
      <trkpt lat="45.37098" lon="5.81368">
        <ele>1967</ele>
        <time>2022-06-13T09:51:05Z</time>
      </trkpt>
      <trkpt lat="45.37097" lon="5.81375">
        <ele>1964</ele>
        <time>2022-06-13T09:51:15Z</time>
      </trkpt>
      <trkpt lat="45.37097" lon="5.81382">
        <ele>1962</ele>
        <time>2022-06-13T09:51:21Z</time>
      </trkpt>
      <trkpt lat="45.371" lon="5.8139">
        <ele>1959</ele>
        <time>2022-06-13T09:51:31Z</time>
      </trkpt>
      <trkpt lat="45.37101" lon="5.81407">
        <ele>1952</ele>
        <time>2022-06-13T09:51:51Z</time>
      </trkpt>
      <trkpt lat="45.37109" lon="5.81436">
        <ele>1943</ele>
        <time>2022-06-13T09:52:22Z</time>
      </trkpt>
      <trkpt lat="45.37111" lon="5.81455">
        <ele>1937</ele>
        <time>2022-06-13T09:52:41Z</time>
      </trkpt>
      <trkpt lat="45.37116" lon="5.81474">
        <ele>1931</ele>
        <time>2022-06-13T09:53:01Z</time>
      </trkpt>
      <trkpt lat="45.37114" lon="5.81499">
        <ele>1922</ele>
        <time>2022-06-13T09:53:31Z</time>
      </trkpt>
      <trkpt lat="45.3711" lon="5.81502">
        <ele>1920</ele>
        <time>2022-06-13T09:53:41Z</time>
      </trkpt>
      <trkpt lat="45.3711" lon="5.81509">
        <ele>1918</ele>
        <time>2022-06-13T09:53:51Z</time>
      </trkpt>
      <trkpt lat="45.37107" lon="5.81516">
        <ele>1915</ele>
        <time>2022-06-13T09:54:01Z</time>
      </trkpt>
      <trkpt lat="45.37103" lon="5.81523">
        <ele>1912</ele>
        <time>2022-06-13T09:54:12Z</time>
      </trkpt>
      <trkpt lat="45.37102" lon="5.81531">
        <ele>1910</ele>
        <time>2022-06-13T09:54:22Z</time>
      </trkpt>
      <trkpt lat="45.37106" lon="5.81536">
        <ele>1908</ele>
        <time>2022-06-13T09:54:28Z</time>
      </trkpt>
      <trkpt lat="45.37117" lon="5.81545">
        <ele>1904</ele>
        <time>2022-06-13T09:54:47Z</time>
      </trkpt>
      <trkpt lat="45.37117" lon="5.81552">
        <ele>1902</ele>
        <time>2022-06-13T09:54:57Z</time>
      </trkpt>
      <trkpt lat="45.37114" lon="5.81559">
        <ele>1899</ele>
        <time>2022-06-13T09:55:07Z</time>
      </trkpt>
      <trkpt lat="45.37103" lon="5.81583">
        <ele>1890</ele>
        <time>2022-06-13T09:55:38Z</time>
      </trkpt>
      <trkpt lat="45.37093" lon="5.81597">
        <ele>1885</ele>
        <time>2022-06-13T09:55:56Z</time>
      </trkpt>
      <trkpt lat="45.37085" lon="5.81606">
        <ele>1883</ele>
        <time>2022-06-13T09:56:06Z</time>
      </trkpt>
      <trkpt lat="45.37071" lon="5.8162">
        <ele>1878</ele>
        <time>2022-06-13T09:56:26Z</time>
      </trkpt>
      <trkpt lat="45.37066" lon="5.81621">
        <ele>1877</ele>
        <time>2022-06-13T09:56:32Z</time>
      </trkpt>
      <trkpt lat="45.37062" lon="5.81624">
        <ele>1875</ele>
        <time>2022-06-13T09:56:50Z</time>
      </trkpt>
      <trkpt lat="45.37059" lon="5.8162">
        <ele>1874</ele>
        <time>2022-06-13T09:56:55Z</time>
      </trkpt>
      <trkpt lat="45.37049" lon="5.81616">
        <ele>1870</ele>
        <time>2022-06-13T09:57:15Z</time>
      </trkpt>
      <trkpt lat="45.37047" lon="5.81621">
        <ele>1868</ele>
        <time>2022-06-13T09:57:25Z</time>
      </trkpt>
      <trkpt lat="45.37041" lon="5.81622">
        <ele>1866</ele>
        <time>2022-06-13T09:57:35Z</time>
      </trkpt>
      <trkpt lat="45.37038" lon="5.81617">
        <ele>1863</ele>
        <time>2022-06-13T09:57:50Z</time>
      </trkpt>
      <trkpt lat="45.37035" lon="5.81611">
        <ele>1859</ele>
        <time>2022-06-13T09:58:15Z</time>
      </trkpt>
      <trkpt lat="45.37032" lon="5.81614">
        <ele>1857</ele>
        <time>2022-06-13T09:58:25Z</time>
      </trkpt>
      <trkpt lat="45.37028" lon="5.81616">
        <ele>1855</ele>
        <time>2022-06-13T09:58:35Z</time>
      </trkpt>
      <trkpt lat="45.37023" lon="5.8162">
        <ele>1852</ele>
        <time>2022-06-13T09:59:03Z</time>
      </trkpt>
      <trkpt lat="45.37016" lon="5.8161">
        <ele>1846</ele>
        <time>2022-06-13T09:59:38Z</time>
      </trkpt>
      <trkpt lat="45.3701" lon="5.81606">
        <ele>1842</ele>
        <time>2022-06-13T10:00:03Z</time>
      </trkpt>
      <trkpt lat="45.37007" lon="5.81611">
        <ele>1840</ele>
        <time>2022-06-13T10:00:14Z</time>
      </trkpt>
      <trkpt lat="45.37004" lon="5.81616">
        <ele>1837</ele>
        <time>2022-06-13T10:00:29Z</time>
      </trkpt>
      <trkpt lat="45.36999" lon="5.81613">
        <ele>1833</ele>
        <time>2022-06-13T10:00:45Z</time>
      </trkpt>
      <trkpt lat="45.36995" lon="5.81605">
        <ele>1831</ele>
        <time>2022-06-13T10:01:00Z</time>
      </trkpt>
      <trkpt lat="45.36991" lon="5.81607">
        <ele>1827</ele>
        <time>2022-06-13T10:01:20Z</time>
      </trkpt>
      <trkpt lat="45.36986" lon="5.8161">
        <ele>1825</ele>
        <time>2022-06-13T10:01:31Z</time>
      </trkpt>
      <trkpt lat="45.36983" lon="5.81606">
        <ele>1822</ele>
        <time>2022-06-13T10:01:51Z</time>
      </trkpt>
      <trkpt lat="45.36981" lon="5.816">
        <ele>1821</ele>
        <time>2022-06-13T10:01:55Z</time>
      </trkpt>
      <trkpt lat="45.36977" lon="5.81602">
        <ele>1819</ele>
        <time>2022-06-13T10:02:05Z</time>
      </trkpt>
      <trkpt lat="45.36976" lon="5.81611">
        <ele>1817</ele>
        <time>2022-06-13T10:02:15Z</time>
      </trkpt>
      <trkpt lat="45.36971" lon="5.81613">
        <ele>1813</ele>
        <time>2022-06-13T10:02:30Z</time>
      </trkpt>
      <trkpt lat="45.36968" lon="5.81622">
        <ele>1811</ele>
        <time>2022-06-13T10:02:40Z</time>
      </trkpt>
      <trkpt lat="45.36966" lon="5.81629">
        <ele>1807</ele>
        <time>2022-06-13T10:03:01Z</time>
      </trkpt>
      <trkpt lat="45.36962" lon="5.81629">
        <ele>1805</ele>
        <time>2022-06-13T10:03:16Z</time>
      </trkpt>
      <trkpt lat="45.36959" lon="5.81633">
        <ele>1801</ele>
        <time>2022-06-13T10:03:36Z</time>
      </trkpt>
      <trkpt lat="45.36954" lon="5.8164">
        <ele>1798</ele>
        <time>2022-06-13T10:03:51Z</time>
      </trkpt>
      <trkpt lat="45.36951" lon="5.81628">
        <ele>1795</ele>
        <time>2022-06-13T10:04:14Z</time>
      </trkpt>
      <trkpt lat="45.36945" lon="5.8162">
        <ele>1792</ele>
        <time>2022-06-13T10:04:30Z</time>
      </trkpt>
      <trkpt lat="45.3694" lon="5.81615">
        <ele>1790</ele>
        <time>2022-06-13T10:04:40Z</time>
      </trkpt>
      <trkpt lat="45.36936" lon="5.81612">
        <ele>1787</ele>
        <time>2022-06-13T10:04:50Z</time>
      </trkpt>
      <trkpt lat="45.36923" lon="5.81603">
        <ele>1782</ele>
        <time>2022-06-13T10:05:13Z</time>
      </trkpt>
      <trkpt lat="45.36913" lon="5.81603">
        <ele>1781</ele>
        <time>2022-06-13T10:05:20Z</time>
      </trkpt>
      <trkpt lat="45.36908" lon="5.81604">
        <ele>1781</ele>
        <time>2022-06-13T10:05:28Z</time>
      </trkpt>
      <trkpt lat="45.369" lon="5.81606">
        <ele>1780</ele>
        <time>2022-06-13T10:05:40Z</time>
      </trkpt>
      <trkpt lat="45.36896" lon="5.81605">
        <ele>1779</ele>
        <time>2022-06-13T10:05:46Z</time>
      </trkpt>
      <trkpt lat="45.36892" lon="5.81598">
        <ele>1776</ele>
        <time>2022-06-13T10:05:56Z</time>
      </trkpt>
      <trkpt lat="45.36886" lon="5.81589">
        <ele>1776</ele>
        <time>2022-06-13T10:06:05Z</time>
      </trkpt>
      <trkpt lat="45.36884" lon="5.81583">
        <ele>1776</ele>
        <time>2022-06-13T10:06:10Z</time>
      </trkpt>
      <trkpt lat="45.36876" lon="5.81575">
        <ele>1775</ele>
        <time>2022-06-13T10:06:19Z</time>
      </trkpt>
      <trkpt lat="45.3686" lon="5.81567">
        <ele>1771</ele>
        <time>2022-06-13T10:06:37Z</time>
      </trkpt>
      <trkpt lat="45.36857" lon="5.81562">
        <ele>1771</ele>
        <time>2022-06-13T10:06:41Z</time>
      </trkpt>
      <trkpt lat="45.36845" lon="5.81553">
        <ele>1769</ele>
        <time>2022-06-13T10:06:54Z</time>
      </trkpt>
      <trkpt lat="45.36841" lon="5.81549">
        <ele>1768</ele>
        <time>2022-06-13T10:06:59Z</time>
      </trkpt>
      <trkpt lat="45.36837" lon="5.81546">
        <ele>1768</ele>
        <time>2022-06-13T10:07:03Z</time>
      </trkpt>
      <trkpt lat="45.36829" lon="5.81538">
        <ele>1766</ele>
        <time>2022-06-13T10:07:12Z</time>
      </trkpt>
      <trkpt lat="45.36826" lon="5.81532">
        <ele>1766</ele>
        <time>2022-06-13T10:07:20Z</time>
      </trkpt>
      <trkpt lat="45.36823" lon="5.81526">
        <ele>1767</ele>
        <time>2022-06-13T10:07:30Z</time>
      </trkpt>
      <trkpt lat="45.36821" lon="5.8152">
        <ele>1768</ele>
        <time>2022-06-13T10:07:40Z</time>
      </trkpt>
      <trkpt lat="45.36817" lon="5.81517">
        <ele>1768</ele>
        <time>2022-06-13T10:07:44Z</time>
      </trkpt>
      <trkpt lat="45.36814" lon="5.81512">
        <ele>1769</ele>
        <time>2022-06-13T10:07:49Z</time>
      </trkpt>
      <trkpt lat="45.36808" lon="5.81492">
        <ele>1773</ele>
        <time>2022-06-13T10:08:21Z</time>
      </trkpt>
      <trkpt lat="45.36802" lon="5.81488">
        <ele>1775</ele>
        <time>2022-06-13T10:08:31Z</time>
      </trkpt>
      <trkpt lat="45.36797" lon="5.81489">
        <ele>1775</ele>
        <time>2022-06-13T10:08:43Z</time>
      </trkpt>
      <trkpt lat="45.36787" lon="5.81486">
        <ele>1772</ele>
        <time>2022-06-13T10:08:53Z</time>
      </trkpt>
      <trkpt lat="45.36778" lon="5.81481">
        <ele>1772</ele>
        <time>2022-06-13T10:09:05Z</time>
      </trkpt>
      <trkpt lat="45.36774" lon="5.81477">
        <ele>1773</ele>
        <time>2022-06-13T10:09:12Z</time>
      </trkpt>
      <trkpt lat="45.36763" lon="5.81475">
        <ele>1774</ele>
        <time>2022-06-13T10:09:26Z</time>
      </trkpt>
      <trkpt lat="45.36759" lon="5.81473">
        <ele>1773</ele>
        <time>2022-06-13T10:09:30Z</time>
      </trkpt>
      <trkpt lat="45.36752" lon="5.81466">
        <ele>1774</ele>
        <time>2022-06-13T10:09:44Z</time>
      </trkpt>
      <trkpt lat="45.36748" lon="5.81469">
        <ele>1774</ele>
        <time>2022-06-13T10:09:46Z</time>
      </trkpt>
      <trkpt lat="45.36743" lon="5.81467">
        <ele>1775</ele>
        <time>2022-06-13T10:09:54Z</time>
      </trkpt>
      <trkpt lat="45.36736" lon="5.81468">
        <ele>1775</ele>
        <time>2022-06-13T10:10:06Z</time>
      </trkpt>
      <trkpt lat="45.36731" lon="5.81466">
        <ele>1774</ele>
        <time>2022-06-13T10:10:10Z</time>
      </trkpt>
      <trkpt lat="45.36726" lon="5.81463">
        <ele>1774</ele>
        <time>2022-06-13T10:10:14Z</time>
      </trkpt>
      <trkpt lat="45.36723" lon="5.81459">
        <ele>1775</ele>
        <time>2022-06-13T10:10:18Z</time>
      </trkpt>
      <trkpt lat="45.36716" lon="5.81455">
        <ele>1776</ele>
        <time>2022-06-13T10:10:28Z</time>
      </trkpt>
      <trkpt lat="45.36706" lon="5.81453">
        <ele>1777</ele>
        <time>2022-06-13T10:10:39Z</time>
      </trkpt>
      <trkpt lat="45.36701" lon="5.81449">
        <ele>1777</ele>
        <time>2022-06-13T10:10:46Z</time>
      </trkpt>
      <trkpt lat="45.36696" lon="5.81447">
        <ele>1777</ele>
        <time>2022-06-13T10:10:51Z</time>
      </trkpt>
      <trkpt lat="45.36693" lon="5.81438">
        <ele>1779</ele>
        <time>2022-06-13T10:11:04Z</time>
      </trkpt>
      <trkpt lat="45.36675" lon="5.81429">
        <ele>1782</ele>
        <time>2022-06-13T10:11:27Z</time>
      </trkpt>
      <trkpt lat="45.36671" lon="5.8143">
        <ele>1782</ele>
        <time>2022-06-13T10:11:32Z</time>
      </trkpt>
      <trkpt lat="45.36665" lon="5.81424">
        <ele>1782</ele>
        <time>2022-06-13T10:11:38Z</time>
      </trkpt>
      <trkpt lat="45.36664" lon="5.81417">
        <ele>1784</ele>
        <time>2022-06-13T10:11:50Z</time>
      </trkpt>
      <trkpt lat="45.3666" lon="5.81412">
        <ele>1785</ele>
        <time>2022-06-13T10:12:00Z</time>
      </trkpt>
      <trkpt lat="45.36661" lon="5.81405">
        <ele>1787</ele>
        <time>2022-06-13T10:12:15Z</time>
      </trkpt>
      <trkpt lat="45.36656" lon="5.814">
        <ele>1790</ele>
        <time>2022-06-13T10:12:36Z</time>
      </trkpt>
      <trkpt lat="45.36653" lon="5.81393">
        <ele>1791</ele>
        <time>2022-06-13T10:12:46Z</time>
      </trkpt>
      <trkpt lat="45.36649" lon="5.81391">
        <ele>1793</ele>
        <time>2022-06-13T10:12:56Z</time>
      </trkpt>
      <trkpt lat="45.36646" lon="5.81386">
        <ele>1795</ele>
        <time>2022-06-13T10:13:16Z</time>
      </trkpt>
      <trkpt lat="45.36646" lon="5.81377">
        <ele>1797</ele>
        <time>2022-06-13T10:13:33Z</time>
      </trkpt>
      <trkpt lat="45.36643" lon="5.81368">
        <ele>1800</ele>
        <time>2022-06-13T10:13:54Z</time>
      </trkpt>
      <trkpt lat="45.36643" lon="5.8136">
        <ele>1801</ele>
        <time>2022-06-13T10:14:09Z</time>
      </trkpt>
      <trkpt lat="45.36637" lon="5.81356">
        <ele>1803</ele>
        <time>2022-06-13T10:14:25Z</time>
      </trkpt>
      <trkpt lat="45.36633" lon="5.8135">
        <ele>1803</ele>
        <time>2022-06-13T10:14:35Z</time>
      </trkpt>
      <trkpt lat="45.36631" lon="5.81344">
        <ele>1804</ele>
        <time>2022-06-13T10:14:45Z</time>
      </trkpt>
      <trkpt lat="45.36626" lon="5.81338">
        <ele>1804</ele>
        <time>2022-06-13T10:14:57Z</time>
      </trkpt>
      <trkpt lat="45.36622" lon="5.81334">
        <ele>1805</ele>
        <time>2022-06-13T10:15:06Z</time>
      </trkpt>
      <trkpt lat="45.36617" lon="5.81329">
        <ele>1805</ele>
        <time>2022-06-13T10:15:16Z</time>
      </trkpt>
      <trkpt lat="45.36611" lon="5.81327">
        <ele>1803</ele>
        <time>2022-06-13T10:15:45Z</time>
      </trkpt>
      <trkpt lat="45.36604" lon="5.81328">
        <ele>1801</ele>
        <time>2022-06-13T10:15:55Z</time>
      </trkpt>
      <trkpt lat="45.366" lon="5.81332">
        <ele>1800</ele>
        <time>2022-06-13T10:16:01Z</time>
      </trkpt>
      <trkpt lat="45.36595" lon="5.81333">
        <ele>1799</ele>
        <time>2022-06-13T10:16:05Z</time>
      </trkpt>
      <trkpt lat="45.36586" lon="5.81329">
        <ele>1801</ele>
        <time>2022-06-13T10:16:30Z</time>
      </trkpt>
      <trkpt lat="45.36577" lon="5.81328">
        <ele>1800</ele>
        <time>2022-06-13T10:16:51Z</time>
      </trkpt>
      <trkpt lat="45.36566" lon="5.81325">
        <ele>1798</ele>
        <time>2022-06-13T10:17:06Z</time>
      </trkpt>
      <trkpt lat="45.36564" lon="5.81318">
        <ele>1799</ele>
        <time>2022-06-13T10:17:18Z</time>
      </trkpt>
      <trkpt lat="45.36564" lon="5.81311">
        <ele>1800</ele>
        <time>2022-06-13T10:17:26Z</time>
      </trkpt>
      <trkpt lat="45.36564" lon="5.81305">
        <ele>1804</ele>
        <time>2022-06-13T10:17:54Z</time>
      </trkpt>
      <trkpt lat="45.3657" lon="5.81301">
        <ele>1807</ele>
        <time>2022-06-13T10:18:20Z</time>
      </trkpt>
      <trkpt lat="45.36569" lon="5.81294">
        <ele>1801</ele>
        <time>2022-06-13T10:18:55Z</time>
      </trkpt>
      <trkpt lat="45.36571" lon="5.81292">
        <ele>1801</ele>
        <time>2022-06-13T10:19:33Z</time>
      </trkpt>
      <trkpt lat="45.36571" lon="5.81283">
        <ele>1796</ele>
        <time>2022-06-13T10:20:25Z</time>
      </trkpt>
      <trkpt lat="45.36573" lon="5.81271">
        <ele>1792</ele>
        <time>2022-06-13T10:20:52Z</time>
      </trkpt>
      <trkpt lat="45.36575" lon="5.81267">
        <ele>1786</ele>
        <time>2022-06-13T10:21:32Z</time>
      </trkpt>
      <trkpt lat="45.36578" lon="5.81259">
        <ele>1780</ele>
        <time>2022-06-13T10:21:57Z</time>
      </trkpt>
      <trkpt lat="45.3658" lon="5.81264">
        <ele>1780</ele>
        <time>2022-06-13T10:22:01Z</time>
      </trkpt>
      <trkpt lat="45.36587" lon="5.81263">
        <ele>1778</ele>
        <time>2022-06-13T10:22:22Z</time>
      </trkpt>
      <trkpt lat="45.36601" lon="5.81261">
        <ele>1778</ele>
        <time>2022-06-13T10:22:49Z</time>
      </trkpt>
      <trkpt lat="45.36607" lon="5.81264">
        <ele>1778</ele>
        <time>2022-06-13T10:22:52Z</time>
      </trkpt>
      <trkpt lat="45.36611" lon="5.81262">
        <ele>1778</ele>
        <time>2022-06-13T10:23:21Z</time>
      </trkpt>
      <trkpt lat="45.36617" lon="5.81264">
        <ele>1779</ele>
        <time>2022-06-13T10:23:36Z</time>
      </trkpt>
      <trkpt lat="45.36621" lon="5.81261">
        <ele>1780</ele>
        <time>2022-06-13T10:23:42Z</time>
      </trkpt>
      <trkpt lat="45.36626" lon="5.81263">
        <ele>1779</ele>
        <time>2022-06-13T10:23:49Z</time>
      </trkpt>
      <trkpt lat="45.36631" lon="5.81264">
        <ele>1778</ele>
        <time>2022-06-13T10:23:57Z</time>
      </trkpt>
      <trkpt lat="45.36636" lon="5.81261">
        <ele>1776</ele>
        <time>2022-06-13T10:24:27Z</time>
      </trkpt>
      <trkpt lat="45.36641" lon="5.81262">
        <ele>1776</ele>
        <time>2022-06-13T10:24:37Z</time>
      </trkpt>
      <trkpt lat="45.36646" lon="5.81263">
        <ele>1776</ele>
        <time>2022-06-13T10:24:47Z</time>
      </trkpt>
      <trkpt lat="45.3665" lon="5.81257">
        <ele>1774</ele>
        <time>2022-06-13T10:24:57Z</time>
      </trkpt>
      <trkpt lat="45.36655" lon="5.81257">
        <ele>1773</ele>
        <time>2022-06-13T10:25:07Z</time>
      </trkpt>
      <trkpt lat="45.3666" lon="5.81255">
        <ele>1772</ele>
        <time>2022-06-13T10:25:17Z</time>
      </trkpt>
      <trkpt lat="45.36662" lon="5.81249">
        <ele>1769</ele>
        <time>2022-06-13T10:25:29Z</time>
      </trkpt>
      <trkpt lat="45.36661" lon="5.81242">
        <ele>1766</ele>
        <time>2022-06-13T10:25:44Z</time>
      </trkpt>
      <trkpt lat="45.36657" lon="5.81234">
        <ele>1762</ele>
        <time>2022-06-13T10:26:05Z</time>
      </trkpt>
      <trkpt lat="45.36653" lon="5.81233">
        <ele>1759</ele>
        <time>2022-06-13T10:26:16Z</time>
      </trkpt>
      <trkpt lat="45.36648" lon="5.81232">
        <ele>1756</ele>
        <time>2022-06-13T10:26:31Z</time>
      </trkpt>
      <trkpt lat="45.36644" lon="5.81229">
        <ele>1753</ele>
        <time>2022-06-13T10:26:51Z</time>
      </trkpt>
      <trkpt lat="45.36639" lon="5.81227">
        <ele>1752</ele>
        <time>2022-06-13T10:27:31Z</time>
      </trkpt>
      <trkpt lat="45.36628" lon="5.81225">
        <ele>1746</ele>
        <time>2022-06-13T10:27:56Z</time>
      </trkpt>
      <trkpt lat="45.36622" lon="5.81223">
        <ele>1742</ele>
        <time>2022-06-13T10:28:13Z</time>
      </trkpt>
      <trkpt lat="45.36618" lon="5.81215">
        <ele>1738</ele>
        <time>2022-06-13T10:28:29Z</time>
      </trkpt>
      <trkpt lat="45.36614" lon="5.81217">
        <ele>1736</ele>
        <time>2022-06-13T10:28:39Z</time>
      </trkpt>
      <trkpt lat="45.36615" lon="5.81208">
        <ele>1734</ele>
        <time>2022-06-13T10:28:49Z</time>
      </trkpt>
      <trkpt lat="45.36609" lon="5.81206">
        <ele>1732</ele>
        <time>2022-06-13T10:28:59Z</time>
      </trkpt>
      <trkpt lat="45.36597" lon="5.81209">
        <ele>1727</ele>
        <time>2022-06-13T10:29:19Z</time>
      </trkpt>
      <trkpt lat="45.36592" lon="5.81212">
        <ele>1725</ele>
        <time>2022-06-13T10:29:29Z</time>
      </trkpt>
      <trkpt lat="45.36573" lon="5.81215">
        <ele>1717</ele>
        <time>2022-06-13T10:30:04Z</time>
      </trkpt>
      <trkpt lat="45.36567" lon="5.81217">
        <ele>1715</ele>
        <time>2022-06-13T10:30:15Z</time>
      </trkpt>
      <trkpt lat="45.3656" lon="5.81219">
        <ele>1712</ele>
        <time>2022-06-13T10:30:27Z</time>
      </trkpt>
      <trkpt lat="45.36554" lon="5.81217">
        <ele>1710</ele>
        <time>2022-06-13T10:30:37Z</time>
      </trkpt>
      <trkpt lat="45.36548" lon="5.81215">
        <ele>1707</ele>
        <time>2022-06-13T10:30:47Z</time>
      </trkpt>
      <trkpt lat="45.3653" lon="5.81215">
        <ele>1701</ele>
        <time>2022-06-13T10:31:10Z</time>
      </trkpt>
      <trkpt lat="45.36515" lon="5.81218">
        <ele>1698</ele>
        <time>2022-06-13T10:31:23Z</time>
      </trkpt>
      <trkpt lat="45.36509" lon="5.81222">
        <ele>1698</ele>
        <time>2022-06-13T10:31:30Z</time>
      </trkpt>
      <trkpt lat="45.36496" lon="5.81218">
        <ele>1696</ele>
        <time>2022-06-13T10:31:43Z</time>
      </trkpt>
      <trkpt lat="45.36492" lon="5.81219">
        <ele>1695</ele>
        <time>2022-06-13T10:31:48Z</time>
      </trkpt>
      <trkpt lat="45.36471" lon="5.81211">
        <ele>1690</ele>
        <time>2022-06-13T10:32:17Z</time>
      </trkpt>
      <trkpt lat="45.36466" lon="5.81207">
        <ele>1687</ele>
        <time>2022-06-13T10:32:29Z</time>
      </trkpt>
      <trkpt lat="45.36454" lon="5.81202">
        <ele>1684</ele>
        <time>2022-06-13T10:32:46Z</time>
      </trkpt>
      <trkpt lat="45.36455" lon="5.8121">
        <ele>1683</ele>
        <time>2022-06-13T10:32:57Z</time>
      </trkpt>
      <trkpt lat="45.36441" lon="5.81194">
        <ele>1680</ele>
        <time>2022-06-13T10:33:22Z</time>
      </trkpt>
      <trkpt lat="45.36433" lon="5.81188">
        <ele>1678</ele>
        <time>2022-06-13T10:33:30Z</time>
      </trkpt>
      <trkpt lat="45.36425" lon="5.81174">
        <ele>1675</ele>
        <time>2022-06-13T10:33:47Z</time>
      </trkpt>
      <trkpt lat="45.36422" lon="5.81165">
        <ele>1672</ele>
        <time>2022-06-13T10:33:58Z</time>
      </trkpt>
      <trkpt lat="45.36418" lon="5.8116">
        <ele>1670</ele>
        <time>2022-06-13T10:34:07Z</time>
      </trkpt>
      <trkpt lat="45.36416" lon="5.81152">
        <ele>1667</ele>
        <time>2022-06-13T10:34:17Z</time>
      </trkpt>
      <trkpt lat="45.36411" lon="5.81142">
        <ele>1664</ele>
        <time>2022-06-13T10:34:28Z</time>
      </trkpt>
      <trkpt lat="45.36408" lon="5.81136">
        <ele>1663</ele>
        <time>2022-06-13T10:34:36Z</time>
      </trkpt>
      <trkpt lat="45.36408" lon="5.81129">
        <ele>1662</ele>
        <time>2022-06-13T10:34:40Z</time>
      </trkpt>
      <trkpt lat="45.36401" lon="5.81102">
        <ele>1654</ele>
        <time>2022-06-13T10:35:17Z</time>
      </trkpt>
      <trkpt lat="45.364" lon="5.81096">
        <ele>1652</ele>
        <time>2022-06-13T10:35:25Z</time>
      </trkpt>
      <trkpt lat="45.36395" lon="5.81089">
        <ele>1650</ele>
        <time>2022-06-13T10:35:38Z</time>
      </trkpt>
      <trkpt lat="45.36391" lon="5.81089">
        <ele>1649</ele>
        <time>2022-06-13T10:35:43Z</time>
      </trkpt>
      <trkpt lat="45.36387" lon="5.81087">
        <ele>1647</ele>
        <time>2022-06-13T10:35:50Z</time>
      </trkpt>
      <trkpt lat="45.36381" lon="5.81081">
        <ele>1644</ele>
        <time>2022-06-13T10:36:01Z</time>
      </trkpt>
      <trkpt lat="45.36382" lon="5.81074">
        <ele>1643</ele>
        <time>2022-06-13T10:36:06Z</time>
      </trkpt>
      <trkpt lat="45.3638" lon="5.81068">
        <ele>1641</ele>
        <time>2022-06-13T10:36:13Z</time>
      </trkpt>
      <trkpt lat="45.36376" lon="5.8106">
        <ele>1638</ele>
        <time>2022-06-13T10:36:23Z</time>
      </trkpt>
      <trkpt lat="45.36376" lon="5.81047">
        <ele>1636</ele>
        <time>2022-06-13T10:36:33Z</time>
      </trkpt>
      <trkpt lat="45.36373" lon="5.81043">
        <ele>1633</ele>
        <time>2022-06-13T10:36:41Z</time>
      </trkpt>
      <trkpt lat="45.3637" lon="5.81038">
        <ele>1631</ele>
        <time>2022-06-13T10:36:51Z</time>
      </trkpt>
      <trkpt lat="45.36362" lon="5.81019">
        <ele>1625</ele>
        <time>2022-06-13T10:37:13Z</time>
      </trkpt>
      <trkpt lat="45.36359" lon="5.81014">
        <ele>1624</ele>
        <time>2022-06-13T10:37:16Z</time>
      </trkpt>
      <trkpt lat="45.36361" lon="5.81008">
        <ele>1623</ele>
        <time>2022-06-13T10:37:20Z</time>
      </trkpt>
      <trkpt lat="45.36356" lon="5.80989">
        <ele>1620</ele>
        <time>2022-06-13T10:37:33Z</time>
      </trkpt>
      <trkpt lat="45.36352" lon="5.80985">
        <ele>1619</ele>
        <time>2022-06-13T10:37:37Z</time>
      </trkpt>
      <trkpt lat="45.36347" lon="5.80978">
        <ele>1618</ele>
        <time>2022-06-13T10:37:45Z</time>
      </trkpt>
      <trkpt lat="45.36347" lon="5.80971">
        <ele>1617</ele>
        <time>2022-06-13T10:38:55Z</time>
      </trkpt>
      <trkpt lat="45.36346" lon="5.80969">
        <ele>1616</ele>
        <time>2022-06-13T10:39:15Z</time>
      </trkpt>
      <trkpt lat="45.36348" lon="5.80961">
        <ele>1616</ele>
        <time>2022-06-13T10:39:26Z</time>
      </trkpt>
      <trkpt lat="45.36345" lon="5.80957">
        <ele>1615</ele>
        <time>2022-06-13T10:39:30Z</time>
      </trkpt>
      <trkpt lat="45.36346" lon="5.80962">
        <ele>1614</ele>
        <time>2022-06-13T10:39:56Z</time>
      </trkpt>
      <trkpt lat="45.36346" lon="5.80968">
        <ele>1614</ele>
        <time>2022-06-13T10:39:59Z</time>
      </trkpt>
      <trkpt lat="45.36345" lon="5.80977">
        <ele>1615</ele>
        <time>2022-06-13T10:40:04Z</time>
      </trkpt>
      <trkpt lat="45.3634" lon="5.80975">
        <ele>1615</ele>
        <time>2022-06-13T10:40:17Z</time>
      </trkpt>
      <trkpt lat="45.36335" lon="5.80975">
        <ele>1615</ele>
        <time>2022-06-13T10:40:21Z</time>
      </trkpt>
      <trkpt lat="45.36331" lon="5.8097">
        <ele>1613</ele>
        <time>2022-06-13T10:40:30Z</time>
      </trkpt>
      <trkpt lat="45.36329" lon="5.80962">
        <ele>1613</ele>
        <time>2022-06-13T10:40:41Z</time>
      </trkpt>
      <trkpt lat="45.36325" lon="5.80949">
        <ele>1610</ele>
        <time>2022-06-13T10:40:58Z</time>
      </trkpt>
      <trkpt lat="45.36322" lon="5.80945">
        <ele>1610</ele>
        <time>2022-06-13T10:41:00Z</time>
      </trkpt>
      <trkpt lat="45.36308" lon="5.80933">
        <ele>1607</ele>
        <time>2022-06-13T10:41:23Z</time>
      </trkpt>
      <trkpt lat="45.36291" lon="5.80927">
        <ele>1604</ele>
        <time>2022-06-13T10:41:40Z</time>
      </trkpt>
      <trkpt lat="45.36285" lon="5.80929">
        <ele>1602</ele>
        <time>2022-06-13T10:41:49Z</time>
      </trkpt>
      <trkpt lat="45.3628" lon="5.80929">
        <ele>1601</ele>
        <time>2022-06-13T10:41:56Z</time>
      </trkpt>
      <trkpt lat="45.36275" lon="5.80926">
        <ele>1601</ele>
        <time>2022-06-13T10:42:01Z</time>
      </trkpt>
      <trkpt lat="45.36268" lon="5.80927">
        <ele>1599</ele>
        <time>2022-06-13T10:42:13Z</time>
      </trkpt>
      <trkpt lat="45.36262" lon="5.80925">
        <ele>1598</ele>
        <time>2022-06-13T10:42:22Z</time>
      </trkpt>
      <trkpt lat="45.36257" lon="5.80925">
        <ele>1596</ele>
        <time>2022-06-13T10:42:29Z</time>
      </trkpt>
      <trkpt lat="45.36252" lon="5.80925">
        <ele>1595</ele>
        <time>2022-06-13T10:42:32Z</time>
      </trkpt>
      <trkpt lat="45.36247" lon="5.80926">
        <ele>1595</ele>
        <time>2022-06-13T10:42:36Z</time>
      </trkpt>
      <trkpt lat="45.36233" lon="5.80922">
        <ele>1592</ele>
        <time>2022-06-13T10:42:49Z</time>
      </trkpt>
      <trkpt lat="45.3623" lon="5.80917">
        <ele>1590</ele>
        <time>2022-06-13T10:42:54Z</time>
      </trkpt>
      <trkpt lat="45.36216" lon="5.80913">
        <ele>1586</ele>
        <time>2022-06-13T10:43:15Z</time>
      </trkpt>
      <trkpt lat="45.36211" lon="5.80909">
        <ele>1585</ele>
        <time>2022-06-13T10:43:19Z</time>
      </trkpt>
      <trkpt lat="45.36204" lon="5.80908">
        <ele>1583</ele>
        <time>2022-06-13T10:43:27Z</time>
      </trkpt>
      <trkpt lat="45.36192" lon="5.80896">
        <ele>1580</ele>
        <time>2022-06-13T10:43:41Z</time>
      </trkpt>
      <trkpt lat="45.36181" lon="5.8089">
        <ele>1578</ele>
        <time>2022-06-13T10:43:53Z</time>
      </trkpt>
      <trkpt lat="45.36177" lon="5.80886">
        <ele>1578</ele>
        <time>2022-06-13T10:43:56Z</time>
      </trkpt>
      <trkpt lat="45.36173" lon="5.80885">
        <ele>1577</ele>
        <time>2022-06-13T10:44:01Z</time>
      </trkpt>
      <trkpt lat="45.3617" lon="5.8088">
        <ele>1576</ele>
        <time>2022-06-13T10:44:06Z</time>
      </trkpt>
      <trkpt lat="45.36164" lon="5.80876">
        <ele>1576</ele>
        <time>2022-06-13T10:44:13Z</time>
      </trkpt>
      <trkpt lat="45.36151" lon="5.80865">
        <ele>1573</ele>
        <time>2022-06-13T10:44:29Z</time>
      </trkpt>
      <trkpt lat="45.36146" lon="5.80867">
        <ele>1573</ele>
        <time>2022-06-13T10:44:33Z</time>
      </trkpt>
      <trkpt lat="45.36142" lon="5.80864">
        <ele>1571</ele>
        <time>2022-06-13T10:44:38Z</time>
      </trkpt>
      <trkpt lat="45.36134" lon="5.80853">
        <ele>1570</ele>
        <time>2022-06-13T10:44:49Z</time>
      </trkpt>
      <trkpt lat="45.36127" lon="5.80859">
        <ele>1569</ele>
        <time>2022-06-13T10:44:56Z</time>
      </trkpt>
      <trkpt lat="45.3612" lon="5.80857">
        <ele>1567</ele>
        <time>2022-06-13T10:45:03Z</time>
      </trkpt>
      <trkpt lat="45.36115" lon="5.80858">
        <ele>1565</ele>
        <time>2022-06-13T10:45:10Z</time>
      </trkpt>
      <trkpt lat="45.3611" lon="5.8086">
        <ele>1563</ele>
        <time>2022-06-13T10:45:16Z</time>
      </trkpt>
      <trkpt lat="45.36107" lon="5.80863">
        <ele>1562</ele>
        <time>2022-06-13T10:45:20Z</time>
      </trkpt>
      <trkpt lat="45.36101" lon="5.80859">
        <ele>1560</ele>
        <time>2022-06-13T10:45:27Z</time>
      </trkpt>
      <trkpt lat="45.36097" lon="5.8086">
        <ele>1559</ele>
        <time>2022-06-13T10:45:31Z</time>
      </trkpt>
      <trkpt lat="45.36094" lon="5.80865">
        <ele>1558</ele>
        <time>2022-06-13T10:45:35Z</time>
      </trkpt>
      <trkpt lat="45.36082" lon="5.80869">
        <ele>1555</ele>
        <time>2022-06-13T10:45:46Z</time>
      </trkpt>
      <trkpt lat="45.36067" lon="5.80868">
        <ele>1551</ele>
        <time>2022-06-13T10:46:02Z</time>
      </trkpt>
      <trkpt lat="45.36063" lon="5.80872">
        <ele>1550</ele>
        <time>2022-06-13T10:46:06Z</time>
      </trkpt>
      <trkpt lat="45.36056" lon="5.80874">
        <ele>1549</ele>
        <time>2022-06-13T10:46:12Z</time>
      </trkpt>
      <trkpt lat="45.36051" lon="5.80871">
        <ele>1548</ele>
        <time>2022-06-13T10:46:24Z</time>
      </trkpt>
      <trkpt lat="45.36057" lon="5.80857">
        <ele>1545</ele>
        <time>2022-06-13T10:46:38Z</time>
      </trkpt>
      <trkpt lat="45.36062" lon="5.80851">
        <ele>1544</ele>
        <time>2022-06-13T10:46:43Z</time>
      </trkpt>
      <trkpt lat="45.36062" lon="5.80843">
        <ele>1543</ele>
        <time>2022-06-13T10:46:47Z</time>
      </trkpt>
      <trkpt lat="45.36066" lon="5.80836">
        <ele>1541</ele>
        <time>2022-06-13T10:46:52Z</time>
      </trkpt>
      <trkpt lat="45.3607" lon="5.80822">
        <ele>1539</ele>
        <time>2022-06-13T10:47:00Z</time>
      </trkpt>
      <trkpt lat="45.36078" lon="5.80808">
        <ele>1535</ele>
        <time>2022-06-13T10:47:17Z</time>
      </trkpt>
      <trkpt lat="45.36079" lon="5.80799">
        <ele>1534</ele>
        <time>2022-06-13T10:47:22Z</time>
      </trkpt>
      <trkpt lat="45.36082" lon="5.80795">
        <ele>1533</ele>
        <time>2022-06-13T10:47:26Z</time>
      </trkpt>
      <trkpt lat="45.36092" lon="5.80794">
        <ele>1531</ele>
        <time>2022-06-13T10:47:35Z</time>
      </trkpt>
      <trkpt lat="45.36094" lon="5.80784">
        <ele>1530</ele>
        <time>2022-06-13T10:47:41Z</time>
      </trkpt>
      <trkpt lat="45.36099" lon="5.8078">
        <ele>1528</ele>
        <time>2022-06-13T10:47:49Z</time>
      </trkpt>
      <trkpt lat="45.36105" lon="5.80757">
        <ele>1524</ele>
        <time>2022-06-13T10:48:04Z</time>
      </trkpt>
      <trkpt lat="45.36114" lon="5.80752">
        <ele>1522</ele>
        <time>2022-06-13T10:48:14Z</time>
      </trkpt>
      <trkpt lat="45.36118" lon="5.80751">
        <ele>1521</ele>
        <time>2022-06-13T10:48:17Z</time>
      </trkpt>
      <trkpt lat="45.36117" lon="5.80745">
        <ele>1521</ele>
        <time>2022-06-13T10:48:21Z</time>
      </trkpt>
      <trkpt lat="45.36123" lon="5.8074">
        <ele>1520</ele>
        <time>2022-06-13T10:48:28Z</time>
      </trkpt>
      <trkpt lat="45.36127" lon="5.80737">
        <ele>1519</ele>
        <time>2022-06-13T10:48:32Z</time>
      </trkpt>
      <trkpt lat="45.36136" lon="5.80716">
        <ele>1516</ele>
        <time>2022-06-13T10:48:49Z</time>
      </trkpt>
      <trkpt lat="45.36141" lon="5.80706">
        <ele>1515</ele>
        <time>2022-06-13T10:48:58Z</time>
      </trkpt>
      <trkpt lat="45.36137" lon="5.80701">
        <ele>1514</ele>
        <time>2022-06-13T10:49:03Z</time>
      </trkpt>
      <trkpt lat="45.36124" lon="5.80709">
        <ele>1510</ele>
        <time>2022-06-13T10:49:16Z</time>
      </trkpt>
      <trkpt lat="45.36119" lon="5.80716">
        <ele>1509</ele>
        <time>2022-06-13T10:49:23Z</time>
      </trkpt>
      <trkpt lat="45.36106" lon="5.80721">
        <ele>1507</ele>
        <time>2022-06-13T10:49:36Z</time>
      </trkpt>
      <trkpt lat="45.36101" lon="5.8072">
        <ele>1506</ele>
        <time>2022-06-13T10:49:39Z</time>
      </trkpt>
      <trkpt lat="45.36098" lon="5.80725">
        <ele>1505</ele>
        <time>2022-06-13T10:49:44Z</time>
      </trkpt>
      <trkpt lat="45.36093" lon="5.80724">
        <ele>1505</ele>
        <time>2022-06-13T10:49:49Z</time>
      </trkpt>
      <trkpt lat="45.36088" lon="5.80725">
        <ele>1504</ele>
        <time>2022-06-13T10:49:52Z</time>
      </trkpt>
      <trkpt lat="45.36085" lon="5.80729">
        <ele>1503</ele>
        <time>2022-06-13T10:49:56Z</time>
      </trkpt>
      <trkpt lat="45.3608" lon="5.80731">
        <ele>1502</ele>
        <time>2022-06-13T10:50:01Z</time>
      </trkpt>
      <trkpt lat="45.3607" lon="5.80731">
        <ele>1500</ele>
        <time>2022-06-13T10:50:13Z</time>
      </trkpt>
      <trkpt lat="45.36064" lon="5.80733">
        <ele>1500</ele>
        <time>2022-06-13T10:50:20Z</time>
      </trkpt>
      <trkpt lat="45.3606" lon="5.80737">
        <ele>1499</ele>
        <time>2022-06-13T10:50:25Z</time>
      </trkpt>
      <trkpt lat="45.36046" lon="5.8074">
        <ele>1496</ele>
        <time>2022-06-13T10:50:39Z</time>
      </trkpt>
      <trkpt lat="45.36039" lon="5.80745">
        <ele>1495</ele>
        <time>2022-06-13T10:50:46Z</time>
      </trkpt>
      <trkpt lat="45.3603" lon="5.80746">
        <ele>1493</ele>
        <time>2022-06-13T10:50:56Z</time>
      </trkpt>
      <trkpt lat="45.36021" lon="5.80745">
        <ele>1492</ele>
        <time>2022-06-13T10:51:04Z</time>
      </trkpt>
      <trkpt lat="45.3603" lon="5.80739">
        <ele>1488</ele>
        <time>2022-06-13T10:51:22Z</time>
      </trkpt>
      <trkpt lat="45.36035" lon="5.80731">
        <ele>1487</ele>
        <time>2022-06-13T10:51:30Z</time>
      </trkpt>
      <trkpt lat="45.3604" lon="5.80729">
        <ele>1487</ele>
        <time>2022-06-13T10:51:34Z</time>
      </trkpt>
      <trkpt lat="45.36046" lon="5.80717">
        <ele>1486</ele>
        <time>2022-06-13T10:51:44Z</time>
      </trkpt>
      <trkpt lat="45.3605" lon="5.80719">
        <ele>1485</ele>
        <time>2022-06-13T10:51:49Z</time>
      </trkpt>
      <trkpt lat="45.36053" lon="5.80713">
        <ele>1484</ele>
        <time>2022-06-13T10:51:53Z</time>
      </trkpt>
      <trkpt lat="45.36059" lon="5.80708">
        <ele>1482</ele>
        <time>2022-06-13T10:52:01Z</time>
      </trkpt>
      <trkpt lat="45.3607" lon="5.80699">
        <ele>1481</ele>
        <time>2022-06-13T10:52:14Z</time>
      </trkpt>
      <trkpt lat="45.36074" lon="5.80691">
        <ele>1480</ele>
        <time>2022-06-13T10:52:18Z</time>
      </trkpt>
      <trkpt lat="45.36074" lon="5.80678">
        <ele>1478</ele>
        <time>2022-06-13T10:52:26Z</time>
      </trkpt>
      <trkpt lat="45.36078" lon="5.80674">
        <ele>1478</ele>
        <time>2022-06-13T10:52:30Z</time>
      </trkpt>
      <trkpt lat="45.36079" lon="5.80666">
        <ele>1477</ele>
        <time>2022-06-13T10:52:37Z</time>
      </trkpt>
      <trkpt lat="45.36082" lon="5.80656">
        <ele>1476</ele>
        <time>2022-06-13T10:52:45Z</time>
      </trkpt>
      <trkpt lat="45.36088" lon="5.80651">
        <ele>1474</ele>
        <time>2022-06-13T10:52:51Z</time>
      </trkpt>
      <trkpt lat="45.36093" lon="5.80647">
        <ele>1473</ele>
        <time>2022-06-13T10:52:58Z</time>
      </trkpt>
      <trkpt lat="45.36093" lon="5.80638">
        <ele>1472</ele>
        <time>2022-06-13T10:53:05Z</time>
      </trkpt>
      <trkpt lat="45.36093" lon="5.80631">
        <ele>1471</ele>
        <time>2022-06-13T10:53:09Z</time>
      </trkpt>
      <trkpt lat="45.36095" lon="5.80624">
        <ele>1471</ele>
        <time>2022-06-13T10:53:12Z</time>
      </trkpt>
      <trkpt lat="45.36092" lon="5.80611">
        <ele>1470</ele>
        <time>2022-06-13T10:53:21Z</time>
      </trkpt>
      <trkpt lat="45.36097" lon="5.80603">
        <ele>1468</ele>
        <time>2022-06-13T10:53:30Z</time>
      </trkpt>
      <trkpt lat="45.36093" lon="5.80585">
        <ele>1467</ele>
        <time>2022-06-13T10:53:42Z</time>
      </trkpt>
      <trkpt lat="45.36078" lon="5.80574">
        <ele>1465</ele>
        <time>2022-06-13T10:53:57Z</time>
      </trkpt>
      <trkpt lat="45.36078" lon="5.80566">
        <ele>1464</ele>
        <time>2022-06-13T10:54:04Z</time>
      </trkpt>
      <trkpt lat="45.36073" lon="5.80566">
        <ele>1464</ele>
        <time>2022-06-13T10:54:14Z</time>
      </trkpt>
      <trkpt lat="45.36074" lon="5.80573">
        <ele>1463</ele>
        <time>2022-06-13T10:54:18Z</time>
      </trkpt>
      <trkpt lat="45.36076" lon="5.80584">
        <ele>1462</ele>
        <time>2022-06-13T10:54:24Z</time>
      </trkpt>
      <trkpt lat="45.36075" lon="5.80592">
        <ele>1460</ele>
        <time>2022-06-13T10:54:32Z</time>
      </trkpt>
      <trkpt lat="45.36075" lon="5.80598">
        <ele>1459</ele>
        <time>2022-06-13T10:54:35Z</time>
      </trkpt>
      <trkpt lat="45.36075" lon="5.80605">
        <ele>1459</ele>
        <time>2022-06-13T10:54:39Z</time>
      </trkpt>
      <trkpt lat="45.36073" lon="5.80601">
        <ele>1457</ele>
        <time>2022-06-13T10:54:57Z</time>
      </trkpt>
      <trkpt lat="45.36069" lon="5.80587">
        <ele>1455</ele>
        <time>2022-06-13T10:55:05Z</time>
      </trkpt>
      <trkpt lat="45.36064" lon="5.80583">
        <ele>1454</ele>
        <time>2022-06-13T10:55:10Z</time>
      </trkpt>
      <trkpt lat="45.3606" lon="5.80578">
        <ele>1453</ele>
        <time>2022-06-13T10:55:16Z</time>
      </trkpt>
      <trkpt lat="45.36059" lon="5.80589">
        <ele>1450</ele>
        <time>2022-06-13T10:55:28Z</time>
      </trkpt>
      <trkpt lat="45.36057" lon="5.80595">
        <ele>1449</ele>
        <time>2022-06-13T10:55:32Z</time>
      </trkpt>
      <trkpt lat="45.36059" lon="5.80603">
        <ele>1449</ele>
        <time>2022-06-13T10:55:36Z</time>
      </trkpt>
      <trkpt lat="45.36055" lon="5.80608">
        <ele>1449</ele>
        <time>2022-06-13T10:55:39Z</time>
      </trkpt>
      <trkpt lat="45.36052" lon="5.80614">
        <ele>1447</ele>
        <time>2022-06-13T10:55:44Z</time>
      </trkpt>
      <trkpt lat="45.3605" lon="5.80616">
        <ele>1446</ele>
        <time>2022-06-13T10:55:54Z</time>
      </trkpt>
      <trkpt lat="45.36046" lon="5.80616">
        <ele>1446</ele>
        <time>2022-06-13T10:55:59Z</time>
      </trkpt>
      <trkpt lat="45.36046" lon="5.80624">
        <ele>1445</ele>
        <time>2022-06-13T10:56:03Z</time>
      </trkpt>
      <trkpt lat="45.36043" lon="5.80628">
        <ele>1445</ele>
        <time>2022-06-13T10:56:06Z</time>
      </trkpt>
      <trkpt lat="45.36026" lon="5.80642">
        <ele>1441</ele>
        <time>2022-06-13T10:56:26Z</time>
      </trkpt>
      <trkpt lat="45.36026" lon="5.80637">
        <ele>1438</ele>
        <time>2022-06-13T10:56:45Z</time>
      </trkpt>
      <trkpt lat="45.36029" lon="5.80633">
        <ele>1438</ele>
        <time>2022-06-13T10:56:48Z</time>
      </trkpt>
      <trkpt lat="45.36031" lon="5.80627">
        <ele>1437</ele>
        <time>2022-06-13T10:56:52Z</time>
      </trkpt>
      <trkpt lat="45.36019" lon="5.80618">
        <ele>1432</ele>
        <time>2022-06-13T10:57:09Z</time>
      </trkpt>
      <trkpt lat="45.3601" lon="5.80625">
        <ele>1428</ele>
        <time>2022-06-13T10:57:17Z</time>
      </trkpt>
      <trkpt lat="45.36005" lon="5.80625">
        <ele>1428</ele>
        <time>2022-06-13T10:57:21Z</time>
      </trkpt>
      <trkpt lat="45.35989" lon="5.80629">
        <ele>1424</ele>
        <time>2022-06-13T10:57:49Z</time>
      </trkpt>
      <trkpt lat="45.35982" lon="5.80627">
        <ele>1423</ele>
        <time>2022-06-13T10:58:04Z</time>
      </trkpt>
      <trkpt lat="45.35971" lon="5.80629">
        <ele>1421</ele>
        <time>2022-06-13T10:58:11Z</time>
      </trkpt>
      <trkpt lat="45.35958" lon="5.80624">
        <ele>1417</ele>
        <time>2022-06-13T10:58:43Z</time>
      </trkpt>
      <trkpt lat="45.35953" lon="5.80622">
        <ele>1416</ele>
        <time>2022-06-13T10:58:48Z</time>
      </trkpt>
      <trkpt lat="45.35948" lon="5.80625">
        <ele>1417</ele>
        <time>2022-06-13T10:59:00Z</time>
      </trkpt>
      <trkpt lat="45.35946" lon="5.80632">
        <ele>1417</ele>
        <time>2022-06-13T10:59:34Z</time>
      </trkpt>
      <trkpt lat="45.35951" lon="5.80632">
        <ele>1417</ele>
        <time>2022-06-13T10:59:45Z</time>
      </trkpt>
      <trkpt lat="45.35949" lon="5.80626">
        <ele>1417</ele>
        <time>2022-06-13T11:00:45Z</time>
      </trkpt>
      <trkpt lat="45.35944" lon="5.80627">
        <ele>1416</ele>
        <time>2022-06-13T11:01:26Z</time>
      </trkpt>
      <trkpt lat="45.3594" lon="5.80623">
        <ele>1416</ele>
        <time>2022-06-13T11:01:30Z</time>
      </trkpt>
      <trkpt lat="45.3593" lon="5.80622">
        <ele>1414</ele>
        <time>2022-06-13T11:01:42Z</time>
      </trkpt>
      <trkpt lat="45.35931" lon="5.80616">
        <ele>1411</ele>
        <time>2022-06-13T11:02:00Z</time>
      </trkpt>
      <trkpt lat="45.35935" lon="5.80612">
        <ele>1410</ele>
        <time>2022-06-13T11:02:03Z</time>
      </trkpt>
      <trkpt lat="45.35939" lon="5.80609">
        <ele>1408</ele>
        <time>2022-06-13T11:02:12Z</time>
      </trkpt>
      <trkpt lat="45.35934" lon="5.80602">
        <ele>1404</ele>
        <time>2022-06-13T11:02:21Z</time>
      </trkpt>
      <trkpt lat="45.35934" lon="5.80607">
        <ele>1402</ele>
        <time>2022-06-13T11:03:22Z</time>
      </trkpt>
      <trkpt lat="45.35933" lon="5.80595">
        <ele>1403</ele>
        <time>2022-06-13T11:04:04Z</time>
      </trkpt>
      <trkpt lat="45.35928" lon="5.8059">
        <ele>1403</ele>
        <time>2022-06-13T11:04:33Z</time>
      </trkpt>
      <trkpt lat="45.35927" lon="5.80589">
        <ele>1398</ele>
        <time>2022-06-13T11:04:56Z</time>
      </trkpt>
      <trkpt lat="45.35935" lon="5.80588">
        <ele>1397</ele>
        <time>2022-06-13T11:05:05Z</time>
      </trkpt>
      <trkpt lat="45.35941" lon="5.80589">
        <ele>1396</ele>
        <time>2022-06-13T11:05:12Z</time>
      </trkpt>
      <trkpt lat="45.35947" lon="5.80584">
        <ele>1394</ele>
        <time>2022-06-13T11:05:22Z</time>
      </trkpt>
      <trkpt lat="45.35942" lon="5.80579">
        <ele>1393</ele>
        <time>2022-06-13T11:05:25Z</time>
      </trkpt>
      <trkpt lat="45.35951" lon="5.80578">
        <ele>1390</ele>
        <time>2022-06-13T11:05:38Z</time>
      </trkpt>
      <trkpt lat="45.35945" lon="5.80571">
        <ele>1388</ele>
        <time>2022-06-13T11:05:43Z</time>
      </trkpt>
      <trkpt lat="45.35934" lon="5.80567">
        <ele>1386</ele>
        <time>2022-06-13T11:05:49Z</time>
      </trkpt>
      <trkpt lat="45.35932" lon="5.80558">
        <ele>1384</ele>
        <time>2022-06-13T11:05:58Z</time>
      </trkpt>
      <trkpt lat="45.3594" lon="5.80556">
        <ele>1381</ele>
        <time>2022-06-13T11:06:15Z</time>
      </trkpt>
      <trkpt lat="45.35944" lon="5.80562">
        <ele>1379</ele>
        <time>2022-06-13T11:06:19Z</time>
      </trkpt>
      <trkpt lat="45.35947" lon="5.80555">
        <ele>1378</ele>
        <time>2022-06-13T11:06:24Z</time>
      </trkpt>
      <trkpt lat="45.35951" lon="5.80551">
        <ele>1376</ele>
        <time>2022-06-13T11:06:30Z</time>
      </trkpt>
      <trkpt lat="45.35965" lon="5.80544">
        <ele>1373</ele>
        <time>2022-06-13T11:06:44Z</time>
      </trkpt>
      <trkpt lat="45.35952" lon="5.80526">
        <ele>1367</ele>
        <time>2022-06-13T11:07:05Z</time>
      </trkpt>
      <trkpt lat="45.35948" lon="5.80525">
        <ele>1366</ele>
        <time>2022-06-13T11:07:08Z</time>
      </trkpt>
      <trkpt lat="45.35934" lon="5.80518">
        <ele>1361</ele>
        <time>2022-06-13T11:07:29Z</time>
      </trkpt>
      <trkpt lat="45.35941" lon="5.80513">
        <ele>1357</ele>
        <time>2022-06-13T11:07:38Z</time>
      </trkpt>
      <trkpt lat="45.35946" lon="5.80513">
        <ele>1357</ele>
        <time>2022-06-13T11:07:42Z</time>
      </trkpt>
      <trkpt lat="45.3595" lon="5.8051">
        <ele>1356</ele>
        <time>2022-06-13T11:07:46Z</time>
      </trkpt>
      <trkpt lat="45.35957" lon="5.8051">
        <ele>1354</ele>
        <time>2022-06-13T11:07:52Z</time>
      </trkpt>
      <trkpt lat="45.35961" lon="5.80507">
        <ele>1353</ele>
        <time>2022-06-13T11:07:56Z</time>
      </trkpt>
      <trkpt lat="45.35958" lon="5.80493">
        <ele>1351</ele>
        <time>2022-06-13T11:08:07Z</time>
      </trkpt>
      <trkpt lat="45.35954" lon="5.80494">
        <ele>1350</ele>
        <time>2022-06-13T11:08:11Z</time>
      </trkpt>
      <trkpt lat="45.35949" lon="5.80493">
        <ele>1349</ele>
        <time>2022-06-13T11:08:15Z</time>
      </trkpt>
      <trkpt lat="45.35939" lon="5.80485">
        <ele>1345</ele>
        <time>2022-06-13T11:08:31Z</time>
      </trkpt>
      <trkpt lat="45.35943" lon="5.80478">
        <ele>1341</ele>
        <time>2022-06-13T11:08:42Z</time>
      </trkpt>
      <trkpt lat="45.35943" lon="5.80473">
        <ele>1338</ele>
        <time>2022-06-13T11:08:55Z</time>
      </trkpt>
      <trkpt lat="45.35951" lon="5.80471">
        <ele>1335</ele>
        <time>2022-06-13T11:09:07Z</time>
      </trkpt>
      <trkpt lat="45.35956" lon="5.80467">
        <ele>1334</ele>
        <time>2022-06-13T11:09:10Z</time>
      </trkpt>
      <trkpt lat="45.35961" lon="5.80466">
        <ele>1333</ele>
        <time>2022-06-13T11:09:13Z</time>
      </trkpt>
      <trkpt lat="45.35966" lon="5.80463">
        <ele>1332</ele>
        <time>2022-06-13T11:09:18Z</time>
      </trkpt>
      <trkpt lat="45.35957" lon="5.80454">
        <ele>1330</ele>
        <time>2022-06-13T11:09:25Z</time>
      </trkpt>
      <trkpt lat="45.35963" lon="5.80452">
        <ele>1327</ele>
        <time>2022-06-13T11:09:39Z</time>
      </trkpt>
      <trkpt lat="45.35958" lon="5.80446">
        <ele>1326</ele>
        <time>2022-06-13T11:09:43Z</time>
      </trkpt>
      <trkpt lat="45.35954" lon="5.80438">
        <ele>1323</ele>
        <time>2022-06-13T11:09:51Z</time>
      </trkpt>
      <trkpt lat="45.35961" lon="5.8044">
        <ele>1321</ele>
        <time>2022-06-13T11:10:00Z</time>
      </trkpt>
      <trkpt lat="45.35962" lon="5.80434">
        <ele>1320</ele>
        <time>2022-06-13T11:10:04Z</time>
      </trkpt>
      <trkpt lat="45.35958" lon="5.80434">
        <ele>1318</ele>
        <time>2022-06-13T11:10:13Z</time>
      </trkpt>
      <trkpt lat="45.35957" lon="5.80426">
        <ele>1318</ele>
        <time>2022-06-13T11:10:45Z</time>
      </trkpt>
      <trkpt lat="45.35955" lon="5.80419">
        <ele>1301</ele>
        <time>2022-06-13T11:11:01Z</time>
      </trkpt>
      <trkpt lat="45.35955" lon="5.80419">
        <ele>1301</ele>
        <time>2022-06-13T11:11:11Z</time>
      </trkpt>
      <trkpt lat="45.35943" lon="5.80407">
        <ele>1302</ele>
        <time>2022-06-13T11:11:55Z</time>
      </trkpt>
      <trkpt lat="45.35944" lon="5.80368">
        <ele>1302</ele>
        <time>2022-06-13T11:12:03Z</time>
      </trkpt>
      <trkpt lat="45.35944" lon="5.80378">
        <ele>1301</ele>
        <time>2022-06-13T11:12:23Z</time>
      </trkpt>
      <trkpt lat="45.35968" lon="5.80355">
        <ele>1277</ele>
        <time>2022-06-13T11:14:13Z</time>
      </trkpt>
      <trkpt lat="45.35965" lon="5.80235">
        <ele>1256</ele>
        <time>2022-06-13T11:16:39Z</time>
      </trkpt>
      <trkpt lat="45.35981" lon="5.80277">
        <ele>1257</ele>
        <time>2022-06-13T11:16:42Z</time>
      </trkpt>
      <trkpt lat="45.35985" lon="5.80282">
        <ele>1257</ele>
        <time>2022-06-13T11:16:45Z</time>
      </trkpt>
    </trkseg>
  </trk>
  <trk>
    <name><![CDATA[30 mai 2019 à 18:48:35]]></name>
    <cmt><![CDATA[30 mai 2019 à 18:48:35]]></cmt>
    <trkseg>
      <trkpt lat="45.58291" lon="6.13655">
        <ele>910</ele>
        <time>2019-05-30T16:48:36Z</time>
      </trkpt>
      <trkpt lat="45.58292" lon="6.13656">
        <ele>910</ele>
        <time>2019-05-30T16:48:37Z</time>
      </trkpt>
      <trkpt lat="45.58339" lon="6.13671">
        <ele>899</ele>
        <time>2019-05-30T16:50:22Z</time>
      </trkpt>
      <trkpt lat="45.58375" lon="6.13656">
        <ele>889</ele>
        <time>2019-05-30T16:51:02Z</time>
      </trkpt>
      <trkpt lat="45.58351" lon="6.13616">
        <ele>894</ele>
        <time>2019-05-30T16:53:26Z</time>
      </trkpt>
      <trkpt lat="45.58226" lon="6.13548">
        <ele>897</ele>
        <time>2019-05-30T16:53:42Z</time>
      </trkpt>
      <trkpt lat="45.5816" lon="6.13543">
        <ele>893</ele>
        <time>2019-05-30T16:53:50Z</time>
      </trkpt>
      <trkpt lat="45.5806" lon="6.13584">
        <ele>886</ele>
        <time>2019-05-30T16:54:00Z</time>
      </trkpt>
      <trkpt lat="45.57951" lon="6.13561">
        <ele>877</ele>
        <time>2019-05-30T16:54:09Z</time>
      </trkpt>
      <trkpt lat="45.57922" lon="6.13542">
        <ele>874</ele>
        <time>2019-05-30T16:54:12Z</time>
      </trkpt>
      <trkpt lat="45.57907" lon="6.13566">
        <ele>866</ele>
        <time>2019-05-30T16:54:31Z</time>
      </trkpt>
      <trkpt lat="45.57913" lon="6.13624">
        <ele>864</ele>
        <time>2019-05-30T16:54:34Z</time>
      </trkpt>
      <trkpt lat="45.57894" lon="6.13649">
        <ele>861</ele>
        <time>2019-05-30T16:54:37Z</time>
      </trkpt>
      <trkpt lat="45.57936" lon="6.1373">
        <ele>855</ele>
        <time>2019-05-30T16:54:47Z</time>
      </trkpt>
      <trkpt lat="45.57966" lon="6.13756">
        <ele>854</ele>
        <time>2019-05-30T16:54:51Z</time>
      </trkpt>
      <trkpt lat="45.58008" lon="6.13823">
        <ele>846</ele>
        <time>2019-05-30T16:54:58Z</time>
      </trkpt>
      <trkpt lat="45.58022" lon="6.13867">
        <ele>844</ele>
        <time>2019-05-30T16:55:02Z</time>
      </trkpt>
      <trkpt lat="45.58026" lon="6.13909">
        <ele>839</ele>
        <time>2019-05-30T16:55:06Z</time>
      </trkpt>
      <trkpt lat="45.58034" lon="6.13949">
        <ele>838</ele>
        <time>2019-05-30T16:55:10Z</time>
      </trkpt>
      <trkpt lat="45.58051" lon="6.14041">
        <ele>830</ele>
        <time>2019-05-30T16:55:18Z</time>
      </trkpt>
      <trkpt lat="45.58113" lon="6.14144">
        <ele>822</ele>
        <time>2019-05-30T16:55:29Z</time>
      </trkpt>
      <trkpt lat="45.58138" lon="6.14168">
        <ele>818</ele>
        <time>2019-05-30T16:55:33Z</time>
      </trkpt>
      <trkpt lat="45.5816" lon="6.14196">
        <ele>811</ele>
        <time>2019-05-30T16:55:40Z</time>
      </trkpt>
      <trkpt lat="45.58174" lon="6.14236">
        <ele>811</ele>
        <time>2019-05-30T16:55:43Z</time>
      </trkpt>
      <trkpt lat="45.58232" lon="6.14311">
        <ele>803</ele>
        <time>2019-05-30T16:55:52Z</time>
      </trkpt>
      <trkpt lat="45.58255" lon="6.14354">
        <ele>802</ele>
        <time>2019-05-30T16:55:55Z</time>
      </trkpt>
      <trkpt lat="45.58358" lon="6.14416">
        <ele>793</ele>
        <time>2019-05-30T16:56:05Z</time>
      </trkpt>
      <trkpt lat="45.58316" lon="6.14414">
        <ele>783</ele>
        <time>2019-05-30T16:56:19Z</time>
      </trkpt>
      <trkpt lat="45.58307" lon="6.14438">
        <ele>774</ele>
        <time>2019-05-30T16:56:39Z</time>
      </trkpt>
      <trkpt lat="45.58249" lon="6.14424">
        <ele>765</ele>
        <time>2019-05-30T16:56:55Z</time>
      </trkpt>
      <trkpt lat="45.58178" lon="6.14385">
        <ele>758</ele>
        <time>2019-05-30T16:57:02Z</time>
      </trkpt>
      <trkpt lat="45.58147" lon="6.1436">
        <ele>754</ele>
        <time>2019-05-30T16:57:06Z</time>
      </trkpt>
      <trkpt lat="45.58154" lon="6.14415">
        <ele>752</ele>
        <time>2019-05-30T16:57:17Z</time>
      </trkpt>
      <trkpt lat="45.58194" lon="6.14505">
        <ele>745</ele>
        <time>2019-05-30T16:57:24Z</time>
      </trkpt>
      <trkpt lat="45.58206" lon="6.14556">
        <ele>739</ele>
        <time>2019-05-30T16:57:27Z</time>
      </trkpt>
      <trkpt lat="45.58223" lon="6.14607">
        <ele>736</ele>
        <time>2019-05-30T16:57:30Z</time>
      </trkpt>
      <trkpt lat="45.58243" lon="6.1466">
        <ele>736</ele>
        <time>2019-05-30T16:57:33Z</time>
      </trkpt>
      <trkpt lat="45.58239" lon="6.1474">
        <ele>734</ele>
        <time>2019-05-30T16:57:36Z</time>
      </trkpt>
      <trkpt lat="45.58316" lon="6.14872">
        <ele>720</ele>
        <time>2019-05-30T16:57:47Z</time>
      </trkpt>
      <trkpt lat="45.58352" lon="6.14883">
        <ele>718</ele>
        <time>2019-05-30T16:57:49Z</time>
      </trkpt>
      <trkpt lat="45.58315" lon="6.14812">
        <ele>705</ele>
        <time>2019-05-30T16:58:13Z</time>
      </trkpt>
      <trkpt lat="45.58297" lon="6.14789">
        <ele>701</ele>
        <time>2019-05-30T16:58:15Z</time>
      </trkpt>
      <trkpt lat="45.58328" lon="6.14861">
        <ele>692</ele>
        <time>2019-05-30T16:58:33Z</time>
      </trkpt>
      <trkpt lat="45.5836" lon="6.14899">
        <ele>690</ele>
        <time>2019-05-30T16:58:36Z</time>
      </trkpt>
      <trkpt lat="45.58405" lon="6.14982">
        <ele>682</ele>
        <time>2019-05-30T16:58:41Z</time>
      </trkpt>
      <trkpt lat="45.5847" lon="6.15094">
        <ele>674</ele>
        <time>2019-05-30T16:58:51Z</time>
      </trkpt>
      <trkpt lat="45.58509" lon="6.15141">
        <ele>670</ele>
        <time>2019-05-30T16:58:55Z</time>
      </trkpt>
      <trkpt lat="45.58576" lon="6.15192">
        <ele>659</ele>
        <time>2019-05-30T16:59:03Z</time>
      </trkpt>
      <trkpt lat="45.5859" lon="6.15212">
        <ele>655</ele>
        <time>2019-05-30T16:59:07Z</time>
      </trkpt>
      <trkpt lat="45.58609" lon="6.15248">
        <ele>654</ele>
        <time>2019-05-30T16:59:11Z</time>
      </trkpt>
      <trkpt lat="45.5863" lon="6.15276">
        <ele>652</ele>
        <time>2019-05-30T16:59:16Z</time>
      </trkpt>
      <trkpt lat="45.58665" lon="6.15304">
        <ele>650</ele>
        <time>2019-05-30T16:59:21Z</time>
      </trkpt>
      <trkpt lat="45.58618" lon="6.15315">
        <ele>640</ele>
        <time>2019-05-30T16:59:41Z</time>
      </trkpt>
      <trkpt lat="45.58567" lon="6.15285">
        <ele>638</ele>
        <time>2019-05-30T16:59:47Z</time>
      </trkpt>
      <trkpt lat="45.58471" lon="6.15257">
        <ele>628</ele>
        <time>2019-05-30T16:59:54Z</time>
      </trkpt>
      <trkpt lat="45.58442" lon="6.15206">
        <ele>626</ele>
        <time>2019-05-30T16:59:56Z</time>
      </trkpt>
      <trkpt lat="45.58366" lon="6.15174">
        <ele>623</ele>
        <time>2019-05-30T17:00:00Z</time>
      </trkpt>
      <trkpt lat="45.5826" lon="6.15225">
        <ele>615</ele>
        <time>2019-05-30T17:00:06Z</time>
      </trkpt>
      <trkpt lat="45.58224" lon="6.15233">
        <ele>610</ele>
        <time>2019-05-30T17:00:09Z</time>
      </trkpt>
      <trkpt lat="45.58179" lon="6.15212">
        <ele>603</ele>
        <time>2019-05-30T17:00:12Z</time>
      </trkpt>
      <trkpt lat="45.58146" lon="6.15206">
        <ele>601</ele>
        <time>2019-05-30T17:00:14Z</time>
      </trkpt>
      <trkpt lat="45.58108" lon="6.15196">
        <ele>600</ele>
        <time>2019-05-30T17:00:17Z</time>
      </trkpt>
      <trkpt lat="45.58006" lon="6.15133">
        <ele>591</ele>
        <time>2019-05-30T17:00:26Z</time>
      </trkpt>
      <trkpt lat="45.57971" lon="6.15101">
        <ele>587</ele>
        <time>2019-05-30T17:00:29Z</time>
      </trkpt>
      <trkpt lat="45.57943" lon="6.15069">
        <ele>586</ele>
        <time>2019-05-30T17:00:32Z</time>
      </trkpt>
      <trkpt lat="45.57916" lon="6.15052">
        <ele>581</ele>
        <time>2019-05-30T17:00:36Z</time>
      </trkpt>
      <trkpt lat="45.57922" lon="6.15101">
        <ele>579</ele>
        <time>2019-05-30T17:00:49Z</time>
      </trkpt>
      <trkpt lat="45.57995" lon="6.15209">
        <ele>571</ele>
        <time>2019-05-30T17:00:57Z</time>
      </trkpt>
      <trkpt lat="45.5798" lon="6.15241">
        <ele>562</ele>
        <time>2019-05-30T17:01:07Z</time>
      </trkpt>
      <trkpt lat="45.57919" lon="6.15201">
        <ele>558</ele>
        <time>2019-05-30T17:01:13Z</time>
      </trkpt>
      <trkpt lat="45.57837" lon="6.15089">
        <ele>551</ele>
        <time>2019-05-30T17:01:21Z</time>
      </trkpt>
      <trkpt lat="45.57812" lon="6.15049">
        <ele>549</ele>
        <time>2019-05-30T17:01:24Z</time>
      </trkpt>
      <trkpt lat="45.57794" lon="6.15062">
        <ele>538</ele>
        <time>2019-05-30T17:01:39Z</time>
      </trkpt>
      <trkpt lat="45.57816" lon="6.15119">
        <ele>535</ele>
        <time>2019-05-30T17:01:42Z</time>
      </trkpt>
      <trkpt lat="45.57816" lon="6.15171">
        <ele>532</ele>
        <time>2019-05-30T17:01:44Z</time>
      </trkpt>
      <trkpt lat="45.57799" lon="6.15215">
        <ele>529</ele>
        <time>2019-05-30T17:01:46Z</time>
      </trkpt>
      <trkpt lat="45.57776" lon="6.15235">
        <ele>526</ele>
        <time>2019-05-30T17:01:48Z</time>
      </trkpt>
      <trkpt lat="45.57772" lon="6.1528">
        <ele>523</ele>
        <time>2019-05-30T17:01:51Z</time>
      </trkpt>
      <trkpt lat="45.57789" lon="6.15316">
        <ele>523</ele>
        <time>2019-05-30T17:01:54Z</time>
      </trkpt>
      <trkpt lat="45.57768" lon="6.1531">
        <ele>495</ele>
        <time>2019-05-30T17:02:14Z</time>
      </trkpt>
      <trkpt lat="45.57729" lon="6.15296">
        <ele>495</ele>
        <time>2019-05-30T17:02:17Z</time>
      </trkpt>
      <trkpt lat="45.57692" lon="6.15289">
        <ele>495</ele>
        <time>2019-05-30T17:02:20Z</time>
      </trkpt>
      <trkpt lat="45.57664" lon="6.15266">
        <ele>495</ele>
        <time>2019-05-30T17:02:23Z</time>
      </trkpt>
      <trkpt lat="45.57639" lon="6.15129">
        <ele>494</ele>
        <time>2019-05-30T17:02:29Z</time>
      </trkpt>
      <trkpt lat="45.57632" lon="6.1508">
        <ele>490</ele>
        <time>2019-05-30T17:02:32Z</time>
      </trkpt>
      <trkpt lat="45.57635" lon="6.15018">
        <ele>485</ele>
        <time>2019-05-30T17:02:36Z</time>
      </trkpt>
      <trkpt lat="45.57609" lon="6.14982">
        <ele>484</ele>
        <time>2019-05-30T17:02:43Z</time>
      </trkpt>
      <trkpt lat="45.57594" lon="6.15025">
        <ele>482</ele>
        <time>2019-05-30T17:02:47Z</time>
      </trkpt>
      <trkpt lat="45.57545" lon="6.15154">
        <ele>474</ele>
        <time>2019-05-30T17:02:55Z</time>
      </trkpt>
      <trkpt lat="45.57532" lon="6.15203">
        <ele>472</ele>
        <time>2019-05-30T17:02:58Z</time>
      </trkpt>
      <trkpt lat="45.57554" lon="6.15421">
        <ele>461</ele>
        <time>2019-05-30T17:03:08Z</time>
      </trkpt>
      <trkpt lat="45.57557" lon="6.15518">
        <ele>450</ele>
        <time>2019-05-30T17:03:18Z</time>
      </trkpt>
      <trkpt lat="45.5754" lon="6.15526">
        <ele>448</ele>
        <time>2019-05-30T17:03:23Z</time>
      </trkpt>
      <trkpt lat="45.57506" lon="6.15542">
        <ele>445</ele>
        <time>2019-05-30T17:03:28Z</time>
      </trkpt>
      <trkpt lat="45.57482" lon="6.15567">
        <ele>442</ele>
        <time>2019-05-30T17:03:32Z</time>
      </trkpt>
      <trkpt lat="45.57371" lon="6.15607">
        <ele>437</ele>
        <time>2019-05-30T17:03:39Z</time>
      </trkpt>
      <trkpt lat="45.5734" lon="6.15648">
        <ele>436</ele>
        <time>2019-05-30T17:03:42Z</time>
      </trkpt>
      <trkpt lat="45.5733" lon="6.15933">
        <ele>426</ele>
        <time>2019-05-30T17:03:55Z</time>
      </trkpt>
      <trkpt lat="45.57334" lon="6.15987">
        <ele>423</ele>
        <time>2019-05-30T17:03:58Z</time>
      </trkpt>
      <trkpt lat="45.57337" lon="6.16146">
        <ele>418</ele>
        <time>2019-05-30T17:04:06Z</time>
      </trkpt>
      <trkpt lat="45.57342" lon="6.1619">
        <ele>417</ele>
        <time>2019-05-30T17:04:08Z</time>
      </trkpt>
      <trkpt lat="45.57377" lon="6.16241">
        <ele>416</ele>
        <time>2019-05-30T17:04:10Z</time>
      </trkpt>
      <trkpt lat="45.57368" lon="6.16326">
        <ele>411</ele>
        <time>2019-05-30T17:04:15Z</time>
      </trkpt>
      <trkpt lat="45.57367" lon="6.16366">
        <ele>409</ele>
        <time>2019-05-30T17:04:19Z</time>
      </trkpt>
      <trkpt lat="45.57341" lon="6.16349">
        <ele>405</ele>
        <time>2019-05-30T17:04:28Z</time>
      </trkpt>
      <trkpt lat="45.5733" lon="6.16291">
        <ele>404</ele>
        <time>2019-05-30T17:04:32Z</time>
      </trkpt>
      <trkpt lat="45.56975" lon="6.15899">
        <ele>377</ele>
        <time>2019-05-30T17:05:06Z</time>
      </trkpt>
      <trkpt lat="45.56952" lon="6.15813">
        <ele>375</ele>
        <time>2019-05-30T17:05:13Z</time>
      </trkpt>
      <trkpt lat="45.5694" lon="6.1577">
        <ele>374</ele>
        <time>2019-05-30T17:05:16Z</time>
      </trkpt>
      <trkpt lat="45.56915" lon="6.15753">
        <ele>372</ele>
        <time>2019-05-30T17:05:20Z</time>
      </trkpt>
      <trkpt lat="45.56881" lon="6.15763">
        <ele>367</ele>
        <time>2019-05-30T17:05:44Z</time>
      </trkpt>
      <trkpt lat="45.56852" lon="6.15844">
        <ele>366</ele>
        <time>2019-05-30T17:05:51Z</time>
      </trkpt>
      <trkpt lat="45.56836" lon="6.15879">
        <ele>363</ele>
        <time>2019-05-30T17:05:54Z</time>
      </trkpt>
      <trkpt lat="45.56803" lon="6.15891">
        <ele>359</ele>
        <time>2019-05-30T17:05:58Z</time>
      </trkpt>
      <trkpt lat="45.56782" lon="6.15873">
        <ele>357</ele>
        <time>2019-05-30T17:06:02Z</time>
      </trkpt>
      <trkpt lat="45.56743" lon="6.15789">
        <ele>351</ele>
        <time>2019-05-30T17:06:11Z</time>
      </trkpt>
      <trkpt lat="45.56569" lon="6.1553">
        <ele>342</ele>
        <time>2019-05-30T17:06:28Z</time>
      </trkpt>
      <trkpt lat="45.56513" lon="6.15464">
        <ele>337</ele>
        <time>2019-05-30T17:06:33Z</time>
      </trkpt>
      <trkpt lat="45.56479" lon="6.15432">
        <ele>331</ele>
        <time>2019-05-30T17:06:36Z</time>
      </trkpt>
      <trkpt lat="45.56454" lon="6.15406">
        <ele>327</ele>
        <time>2019-05-30T17:06:40Z</time>
      </trkpt>
      <trkpt lat="45.56452" lon="6.15358">
        <ele>326</ele>
        <time>2019-05-30T17:06:47Z</time>
      </trkpt>
      <trkpt lat="45.56409" lon="6.14867">
        <ele>321</ele>
        <time>2019-05-30T17:07:11Z</time>
      </trkpt>
      <trkpt lat="45.56387" lon="6.14779">
        <ele>314</ele>
        <time>2019-05-30T17:07:15Z</time>
      </trkpt>
      <trkpt lat="45.56383" lon="6.14736">
        <ele>310</ele>
        <time>2019-05-30T17:07:17Z</time>
      </trkpt>
      <trkpt lat="45.56406" lon="6.146">
        <ele>304</ele>
        <time>2019-05-30T17:07:26Z</time>
      </trkpt>
      <trkpt lat="45.56415" lon="6.14551">
        <ele>303</ele>
        <time>2019-05-30T17:07:30Z</time>
      </trkpt>
      <trkpt lat="45.56413" lon="6.14504">
        <ele>303</ele>
        <time>2019-05-30T17:07:34Z</time>
      </trkpt>
      <trkpt lat="45.56406" lon="6.14462">
        <ele>301</ele>
        <time>2019-05-30T17:07:38Z</time>
      </trkpt>
      <trkpt lat="45.56328" lon="6.14305">
        <ele>299</ele>
        <time>2019-05-30T17:07:48Z</time>
      </trkpt>
      <trkpt lat="45.56227" lon="6.13951">
        <ele>289</ele>
        <time>2019-05-30T17:08:13Z</time>
      </trkpt>
      <trkpt lat="45.56224" lon="6.13876">
        <ele>287</ele>
        <time>2019-05-30T17:08:20Z</time>
      </trkpt>
      <trkpt lat="45.56154" lon="6.13651">
        <ele>281</ele>
        <time>2019-05-30T17:08:35Z</time>
      </trkpt>
      <trkpt lat="45.56086" lon="6.13555">
        <ele>275</ele>
        <time>2019-05-30T17:08:45Z</time>
      </trkpt>
      <trkpt lat="45.5598" lon="6.13386">
        <ele>280</ele>
        <time>2019-05-30T17:08:58Z</time>
      </trkpt>
      <trkpt lat="45.55736" lon="6.13103">
        <ele>282</ele>
        <time>2019-05-30T17:09:26Z</time>
      </trkpt>
      <trkpt lat="45.55693" lon="6.13038">
        <ele>279</ele>
        <time>2019-05-30T17:09:34Z</time>
      </trkpt>
      <trkpt lat="45.55546" lon="6.12718">
        <ele>273</ele>
        <time>2019-05-30T17:10:07Z</time>
      </trkpt>
      <trkpt lat="45.55527" lon="6.12684">
        <ele>273</ele>
        <time>2019-05-30T17:10:11Z</time>
      </trkpt>
      <trkpt lat="45.55431" lon="6.12631">
        <ele>269</ele>
        <time>2019-05-30T17:10:25Z</time>
      </trkpt>
      <trkpt lat="45.55379" lon="6.12567">
        <ele>270</ele>
        <time>2019-05-30T17:10:31Z</time>
      </trkpt>
      <trkpt lat="45.55303" lon="6.12388">
        <ele>273</ele>
        <time>2019-05-30T17:10:42Z</time>
      </trkpt>
      <trkpt lat="45.55254" lon="6.12316">
        <ele>273</ele>
        <time>2019-05-30T17:10:47Z</time>
      </trkpt>
      <trkpt lat="45.54875" lon="6.11895">
        <ele>297</ele>
        <time>2019-05-30T17:11:18Z</time>
      </trkpt>
      <trkpt lat="45.54475" lon="6.11478">
        <ele>325</ele>
        <time>2019-05-30T17:11:50Z</time>
      </trkpt>
      <trkpt lat="45.54014" lon="6.10988">
        <ele>331</ele>
        <time>2019-05-30T17:12:22Z</time>
      </trkpt>
      <trkpt lat="45.53835" lon="6.10807">
        <ele>334</ele>
        <time>2019-05-30T17:12:36Z</time>
      </trkpt>
      <trkpt lat="45.53808" lon="6.10779">
        <ele>332</ele>
        <time>2019-05-30T17:12:39Z</time>
      </trkpt>
      <trkpt lat="45.53706" lon="6.10594">
        <ele>330</ele>
        <time>2019-05-30T17:12:56Z</time>
      </trkpt>
      <trkpt lat="45.53639" lon="6.10514">
        <ele>333</ele>
        <time>2019-05-30T17:13:02Z</time>
      </trkpt>
      <trkpt lat="45.533" lon="6.10225">
        <ele>335</ele>
        <time>2019-05-30T17:13:30Z</time>
      </trkpt>
      <trkpt lat="45.5294" lon="6.09721">
        <ele>335</ele>
        <time>2019-05-30T17:14:00Z</time>
      </trkpt>
      <trkpt lat="45.529" lon="6.09652">
        <ele>336</ele>
        <time>2019-05-30T17:14:04Z</time>
      </trkpt>
      <trkpt lat="45.52884" lon="6.09593">
        <ele>336</ele>
        <time>2019-05-30T17:14:07Z</time>
      </trkpt>
      <trkpt lat="45.52885" lon="6.09542">
        <ele>337</ele>
        <time>2019-05-30T17:14:10Z</time>
      </trkpt>
      <trkpt lat="45.52916" lon="6.09444">
        <ele>336</ele>
        <time>2019-05-30T17:14:17Z</time>
      </trkpt>
      <trkpt lat="45.52877" lon="6.09373">
        <ele>334</ele>
        <time>2019-05-30T17:14:19Z</time>
      </trkpt>
      <trkpt lat="45.52878" lon="6.09339">
        <ele>333</ele>
        <time>2019-05-30T17:14:21Z</time>
      </trkpt>
      <trkpt lat="45.52864" lon="6.09283">
        <ele>333</ele>
        <time>2019-05-30T17:14:24Z</time>
      </trkpt>
      <trkpt lat="45.52847" lon="6.09251">
        <ele>333</ele>
        <time>2019-05-30T17:14:27Z</time>
      </trkpt>
      <trkpt lat="45.52804" lon="6.09231">
        <ele>329</ele>
        <time>2019-05-30T17:14:35Z</time>
      </trkpt>
      <trkpt lat="45.5277" lon="6.09228">
        <ele>330</ele>
        <time>2019-05-30T17:14:44Z</time>
      </trkpt>
      <trkpt lat="45.52729" lon="6.09315">
        <ele>328</ele>
        <time>2019-05-30T17:14:51Z</time>
      </trkpt>
      <trkpt lat="45.52671" lon="6.09329">
        <ele>327</ele>
        <time>2019-05-30T17:14:53Z</time>
      </trkpt>
      <trkpt lat="45.52619" lon="6.09303">
        <ele>324</ele>
        <time>2019-05-30T17:15:00Z</time>
      </trkpt>
      <trkpt lat="45.52505" lon="6.0928">
        <ele>320</ele>
        <time>2019-05-30T17:15:11Z</time>
      </trkpt>
      <trkpt lat="45.52476" lon="6.09275">
        <ele>320</ele>
        <time>2019-05-30T17:15:14Z</time>
      </trkpt>
      <trkpt lat="45.52336" lon="6.09137">
        <ele>316</ele>
        <time>2019-05-30T17:15:29Z</time>
      </trkpt>
      <trkpt lat="45.52272" lon="6.09096">
        <ele>312</ele>
        <time>2019-05-30T17:15:37Z</time>
      </trkpt>
      <trkpt lat="45.52144" lon="6.08975">
        <ele>306</ele>
        <time>2019-05-30T17:15:53Z</time>
      </trkpt>
      <trkpt lat="45.52089" lon="6.08912">
        <ele>296</ele>
        <time>2019-05-30T17:16:02Z</time>
      </trkpt>
      <trkpt lat="45.52057" lon="6.08881">
        <ele>294</ele>
        <time>2019-05-30T17:16:06Z</time>
      </trkpt>
      <trkpt lat="45.51933" lon="6.08784">
        <ele>297</ele>
        <time>2019-05-30T17:16:16Z</time>
      </trkpt>
      <trkpt lat="45.51885" lon="6.08718">
        <ele>295</ele>
        <time>2019-05-30T17:16:20Z</time>
      </trkpt>
      <trkpt lat="45.51832" lon="6.08605">
        <ele>291</ele>
        <time>2019-05-30T17:16:26Z</time>
      </trkpt>
      <trkpt lat="45.51816" lon="6.0857">
        <ele>290</ele>
        <time>2019-05-30T17:16:28Z</time>
      </trkpt>
      <trkpt lat="45.51417" lon="6.08083">
        <ele>266</ele>
        <time>2019-05-30T17:16:59Z</time>
      </trkpt>
      <trkpt lat="45.51327" lon="6.07974">
        <ele>265</ele>
        <time>2019-05-30T17:17:05Z</time>
      </trkpt>
      <trkpt lat="45.51286" lon="6.07842">
        <ele>268</ele>
        <time>2019-05-30T17:17:11Z</time>
      </trkpt>
      <trkpt lat="45.51289" lon="6.07741">
        <ele>270</ele>
        <time>2019-05-30T17:17:15Z</time>
      </trkpt>
      <trkpt lat="45.5126" lon="6.07648">
        <ele>269</ele>
        <time>2019-05-30T17:17:20Z</time>
      </trkpt>
      <trkpt lat="45.51237" lon="6.07601">
        <ele>265</ele>
        <time>2019-05-30T17:17:24Z</time>
      </trkpt>
      <trkpt lat="45.51136" lon="6.07417">
        <ele>270</ele>
        <time>2019-05-30T17:17:41Z</time>
      </trkpt>
      <trkpt lat="45.51104" lon="6.07337">
        <ele>269</ele>
        <time>2019-05-30T17:17:47Z</time>
      </trkpt>
      <trkpt lat="45.51092" lon="6.07295">
        <ele>266</ele>
        <time>2019-05-30T17:17:52Z</time>
      </trkpt>
      <trkpt lat="45.51029" lon="6.07075">
        <ele>266</ele>
        <time>2019-05-30T17:18:07Z</time>
      </trkpt>
      <trkpt lat="45.51011" lon="6.07018">
        <ele>266</ele>
        <time>2019-05-30T17:18:10Z</time>
      </trkpt>
      <trkpt lat="45.50986" lon="6.06972">
        <ele>266</ele>
        <time>2019-05-30T17:18:13Z</time>
      </trkpt>
      <trkpt lat="45.50896" lon="6.06893">
        <ele>272</ele>
        <time>2019-05-30T17:18:22Z</time>
      </trkpt>
      <trkpt lat="45.50869" lon="6.0686">
        <ele>273</ele>
        <time>2019-05-30T17:18:26Z</time>
      </trkpt>
      <trkpt lat="45.50848" lon="6.06821">
        <ele>272</ele>
        <time>2019-05-30T17:18:29Z</time>
      </trkpt>
      <trkpt lat="45.50835" lon="6.06772">
        <ele>271</ele>
        <time>2019-05-30T17:18:33Z</time>
      </trkpt>
      <trkpt lat="45.50819" lon="6.06578">
        <ele>276</ele>
        <time>2019-05-30T17:18:47Z</time>
      </trkpt>
      <trkpt lat="45.50811" lon="6.06531">
        <ele>276</ele>
        <time>2019-05-30T17:18:50Z</time>
      </trkpt>
      <trkpt lat="45.50787" lon="6.06433">
        <ele>269</ele>
        <time>2019-05-30T17:18:58Z</time>
      </trkpt>
      <trkpt lat="45.50769" lon="6.06402">
        <ele>267</ele>
        <time>2019-05-30T17:19:02Z</time>
      </trkpt>
      <trkpt lat="45.50752" lon="6.06371">
        <ele>266</ele>
        <time>2019-05-30T17:19:06Z</time>
      </trkpt>
      <trkpt lat="45.50721" lon="6.06297">
        <ele>260</ele>
        <time>2019-05-30T17:19:14Z</time>
      </trkpt>
      <trkpt lat="45.50653" lon="6.06273">
        <ele>254</ele>
        <time>2019-05-30T17:19:23Z</time>
      </trkpt>
      <trkpt lat="45.5062" lon="6.06258">
        <ele>253</ele>
        <time>2019-05-30T17:19:27Z</time>
      </trkpt>
      <trkpt lat="45.50592" lon="6.06246">
        <ele>253</ele>
        <time>2019-05-30T17:19:31Z</time>
      </trkpt>
      <trkpt lat="45.50492" lon="6.06246">
        <ele>254</ele>
        <time>2019-05-30T17:19:40Z</time>
      </trkpt>
      <trkpt lat="45.50458" lon="6.06248">
        <ele>254</ele>
        <time>2019-05-30T17:19:43Z</time>
      </trkpt>
      <trkpt lat="45.50426" lon="6.06238">
        <ele>254</ele>
        <time>2019-05-30T17:19:46Z</time>
      </trkpt>
      <trkpt lat="45.50398" lon="6.06004">
        <ele>258</ele>
        <time>2019-05-30T17:20:05Z</time>
      </trkpt>
      <trkpt lat="45.50389" lon="6.05901">
        <ele>257</ele>
        <time>2019-05-30T17:20:11Z</time>
      </trkpt>
      <trkpt lat="45.50358" lon="6.05449">
        <ele>267</ele>
        <time>2019-05-30T17:20:37Z</time>
      </trkpt>
      <trkpt lat="45.50351" lon="6.05402">
        <ele>265</ele>
        <time>2019-05-30T17:20:40Z</time>
      </trkpt>
      <trkpt lat="45.50336" lon="6.05361">
        <ele>269</ele>
        <time>2019-05-30T17:20:43Z</time>
      </trkpt>
      <trkpt lat="45.50316" lon="6.05323">
        <ele>272</ele>
        <time>2019-05-30T17:20:46Z</time>
      </trkpt>
      <trkpt lat="45.50258" lon="6.05274">
        <ele>275</ele>
        <time>2019-05-30T17:20:52Z</time>
      </trkpt>
      <trkpt lat="45.50233" lon="6.05252">
        <ele>275</ele>
        <time>2019-05-30T17:20:55Z</time>
      </trkpt>
      <trkpt lat="45.50202" lon="6.05222">
        <ele>277</ele>
        <time>2019-05-30T17:20:59Z</time>
      </trkpt>
      <trkpt lat="45.50181" lon="6.05189">
        <ele>277</ele>
        <time>2019-05-30T17:21:02Z</time>
      </trkpt>
      <trkpt lat="45.50158" lon="6.05149">
        <ele>275</ele>
        <time>2019-05-30T17:21:05Z</time>
      </trkpt>
      <trkpt lat="45.50143" lon="6.05114">
        <ele>272</ele>
        <time>2019-05-30T17:21:09Z</time>
      </trkpt>
      <trkpt lat="45.50138" lon="6.05073">
        <ele>273</ele>
        <time>2019-05-30T17:21:14Z</time>
      </trkpt>
      <trkpt lat="45.50137" lon="6.04927">
        <ele>273</ele>
        <time>2019-05-30T17:21:26Z</time>
      </trkpt>
      <trkpt lat="45.50149" lon="6.04813">
        <ele>270</ele>
        <time>2019-05-30T17:21:35Z</time>
      </trkpt>
      <trkpt lat="45.50183" lon="6.04631">
        <ele>270</ele>
        <time>2019-05-30T17:21:49Z</time>
      </trkpt>
      <trkpt lat="45.50214" lon="6.04537">
        <ele>263</ele>
        <time>2019-05-30T17:21:58Z</time>
      </trkpt>
      <trkpt lat="45.50158" lon="6.04561">
        <ele>268</ele>
        <time>2019-05-30T17:22:15Z</time>
      </trkpt>
      <trkpt lat="45.50134" lon="6.04557">
        <ele>269</ele>
        <time>2019-05-30T17:22:18Z</time>
      </trkpt>
      <trkpt lat="45.501" lon="6.04551">
        <ele>270</ele>
        <time>2019-05-30T17:22:21Z</time>
      </trkpt>
      <trkpt lat="45.5007" lon="6.04547">
        <ele>270</ele>
        <time>2019-05-30T17:22:24Z</time>
      </trkpt>
      <trkpt lat="45.50039" lon="6.04522">
        <ele>270</ele>
        <time>2019-05-30T17:22:28Z</time>
      </trkpt>
      <trkpt lat="45.5004" lon="6.04475">
        <ele>272</ele>
        <time>2019-05-30T17:22:33Z</time>
      </trkpt>
      <trkpt lat="45.50187" lon="6.04146">
        <ele>272</ele>
        <time>2019-05-30T17:22:51Z</time>
      </trkpt>
      <trkpt lat="45.50213" lon="6.04109">
        <ele>273</ele>
        <time>2019-05-30T17:22:53Z</time>
      </trkpt>
      <trkpt lat="45.50334" lon="6.03952">
        <ele>267</ele>
        <time>2019-05-30T17:23:04Z</time>
      </trkpt>
      <trkpt lat="45.50358" lon="6.03923">
        <ele>261</ele>
        <time>2019-05-30T17:23:08Z</time>
      </trkpt>
      <trkpt lat="45.50387" lon="6.03919">
        <ele>260</ele>
        <time>2019-05-30T17:23:13Z</time>
      </trkpt>
      <trkpt lat="45.50416" lon="6.03917">
        <ele>259</ele>
        <time>2019-05-30T17:23:19Z</time>
      </trkpt>
      <trkpt lat="45.50431" lon="6.03868">
        <ele>261</ele>
        <time>2019-05-30T17:23:23Z</time>
      </trkpt>
      <trkpt lat="45.50578" lon="6.03055">
        <ele>271</ele>
        <time>2019-05-30T17:23:55Z</time>
      </trkpt>
      <trkpt lat="45.50584" lon="6.03023">
        <ele>269</ele>
        <time>2019-05-30T17:23:56Z</time>
      </trkpt>
      <trkpt lat="45.50591" lon="6.02994">
        <ele>264</ele>
        <time>2019-05-30T17:23:57Z</time>
      </trkpt>
      <trkpt lat="45.50786" lon="6.0204">
        <ele>278</ele>
        <time>2019-05-30T17:24:28Z</time>
      </trkpt>
      <trkpt lat="45.50826" lon="6.01884">
        <ele>278</ele>
        <time>2019-05-30T17:24:34Z</time>
      </trkpt>
      <trkpt lat="45.51139" lon="6.0129">
        <ele>279</ele>
        <time>2019-05-30T17:25:05Z</time>
      </trkpt>
      <trkpt lat="45.51296" lon="6.00939">
        <ele>280</ele>
        <time>2019-05-30T17:25:25Z</time>
      </trkpt>
      <trkpt lat="45.51328" lon="6.00919">
        <ele>277</ele>
        <time>2019-05-30T17:25:29Z</time>
      </trkpt>
      <trkpt lat="45.51342" lon="6.00881">
        <ele>279</ele>
        <time>2019-05-30T17:25:34Z</time>
      </trkpt>
      <trkpt lat="45.51384" lon="6.00806">
        <ele>280</ele>
        <time>2019-05-30T17:25:39Z</time>
      </trkpt>
      <trkpt lat="45.51446" lon="6.00701">
        <ele>284</ele>
        <time>2019-05-30T17:25:46Z</time>
      </trkpt>
      <trkpt lat="45.51549" lon="6.00579">
        <ele>289</ele>
        <time>2019-05-30T17:25:55Z</time>
      </trkpt>
      <trkpt lat="45.51592" lon="6.00455">
        <ele>288</ele>
        <time>2019-05-30T17:26:01Z</time>
      </trkpt>
      <trkpt lat="45.51731" lon="6.00255">
        <ele>284</ele>
        <time>2019-05-30T17:26:13Z</time>
      </trkpt>
      <trkpt lat="45.51828" lon="6.00118">
        <ele>286</ele>
        <time>2019-05-30T17:26:22Z</time>
      </trkpt>
      <trkpt lat="45.51826" lon="6.00057">
        <ele>286</ele>
        <time>2019-05-30T17:26:23Z</time>
      </trkpt>
      <trkpt lat="45.51858" lon="6.00025">
        <ele>286</ele>
        <time>2019-05-30T17:26:26Z</time>
      </trkpt>
      <trkpt lat="45.52217" lon="5.99572">
        <ele>290</ele>
        <time>2019-05-30T17:26:51Z</time>
      </trkpt>
      <trkpt lat="45.52554" lon="5.99327">
        <ele>298</ele>
        <time>2019-05-30T17:27:11Z</time>
      </trkpt>
      <trkpt lat="45.52944" lon="5.99263">
        <ele>302</ele>
        <time>2019-05-30T17:27:31Z</time>
      </trkpt>
      <trkpt lat="45.53267" lon="5.99227">
        <ele>299</ele>
        <time>2019-05-30T17:28:30Z</time>
      </trkpt>
      <trkpt lat="45.53329" lon="5.99215">
        <ele>302</ele>
        <time>2019-05-30T17:28:37Z</time>
      </trkpt>
      <trkpt lat="45.53506" lon="5.99249">
        <ele>307</ele>
        <time>2019-05-30T17:28:52Z</time>
      </trkpt>
      <trkpt lat="45.53856" lon="5.99069">
        <ele>307</ele>
        <time>2019-05-30T17:29:24Z</time>
      </trkpt>
      <trkpt lat="45.53923" lon="5.99031">
        <ele>307</ele>
        <time>2019-05-30T17:29:32Z</time>
      </trkpt>
      <trkpt lat="45.53951" lon="5.99016">
        <ele>305</ele>
        <time>2019-05-30T17:29:37Z</time>
      </trkpt>
      <trkpt lat="45.53991" lon="5.99001">
        <ele>303</ele>
        <time>2019-05-30T17:29:48Z</time>
      </trkpt>
      <trkpt lat="45.53985" lon="5.98953">
        <ele>306</ele>
        <time>2019-05-30T17:29:53Z</time>
      </trkpt>
      <trkpt lat="45.54011" lon="5.98914">
        <ele>305</ele>
        <time>2019-05-30T17:29:57Z</time>
      </trkpt>
      <trkpt lat="45.54348" lon="5.98417">
        <ele>306</ele>
        <time>2019-05-30T17:30:28Z</time>
      </trkpt>
      <trkpt lat="45.54358" lon="5.98401">
        <ele>306</ele>
        <time>2019-05-30T17:30:29Z</time>
      </trkpt>
      <trkpt lat="45.54373" lon="5.98376">
        <ele>304</ele>
        <time>2019-05-30T17:30:31Z</time>
      </trkpt>
      <trkpt lat="45.5439" lon="5.98325">
        <ele>304</ele>
        <time>2019-05-30T17:30:34Z</time>
      </trkpt>
      <trkpt lat="45.54401" lon="5.98254">
        <ele>306</ele>
        <time>2019-05-30T17:30:38Z</time>
      </trkpt>
      <trkpt lat="45.54397" lon="5.98211">
        <ele>307</ele>
        <time>2019-05-30T17:30:40Z</time>
      </trkpt>
      <trkpt lat="45.5437" lon="5.98066">
        <ele>307</ele>
        <time>2019-05-30T17:30:48Z</time>
      </trkpt>
      <trkpt lat="45.54378" lon="5.97969">
        <ele>300</ele>
        <time>2019-05-30T17:30:54Z</time>
      </trkpt>
      <trkpt lat="45.5439" lon="5.97928">
        <ele>295</ele>
        <time>2019-05-30T17:31:00Z</time>
      </trkpt>
      <trkpt lat="45.54408" lon="5.97884">
        <ele>296</ele>
        <time>2019-05-30T17:31:05Z</time>
      </trkpt>
      <trkpt lat="45.54525" lon="5.97552">
        <ele>294</ele>
        <time>2019-05-30T17:31:26Z</time>
      </trkpt>
      <trkpt lat="45.54532" lon="5.97528">
        <ele>293</ele>
        <time>2019-05-30T17:31:29Z</time>
      </trkpt>
      <trkpt lat="45.54544" lon="5.97522">
        <ele>292</ele>
        <time>2019-05-30T17:31:31Z</time>
      </trkpt>
      <trkpt lat="45.54554" lon="5.97515">
        <ele>291</ele>
        <time>2019-05-30T17:31:33Z</time>
      </trkpt>
      <trkpt lat="45.54559" lon="5.97498">
        <ele>290</ele>
        <time>2019-05-30T17:31:36Z</time>
      </trkpt>
      <trkpt lat="45.54551" lon="5.9747">
        <ele>290</ele>
        <time>2019-05-30T17:31:37Z</time>
      </trkpt>
      <trkpt lat="45.5456" lon="5.97417">
        <ele>291</ele>
        <time>2019-05-30T17:31:41Z</time>
      </trkpt>
      <trkpt lat="45.54593" lon="5.97331">
        <ele>292</ele>
        <time>2019-05-30T17:31:46Z</time>
      </trkpt>
      <trkpt lat="45.54634" lon="5.97268">
        <ele>293</ele>
        <time>2019-05-30T17:31:50Z</time>
      </trkpt>
      <trkpt lat="45.54708" lon="5.97205">
        <ele>297</ele>
        <time>2019-05-30T17:31:56Z</time>
      </trkpt>
      <trkpt lat="45.5512" lon="5.96965">
        <ele>289</ele>
        <time>2019-05-30T17:32:26Z</time>
      </trkpt>
      <trkpt lat="45.55127" lon="5.96956">
        <ele>289</ele>
        <time>2019-05-30T17:32:27Z</time>
      </trkpt>
      <trkpt lat="45.55144" lon="5.96955">
        <ele>288</ele>
        <time>2019-05-30T17:32:29Z</time>
      </trkpt>
      <trkpt lat="45.55155" lon="5.96945">
        <ele>287</ele>
        <time>2019-05-30T17:32:32Z</time>
      </trkpt>
      <trkpt lat="45.55221" lon="5.9685">
        <ele>288</ele>
        <time>2019-05-30T17:32:42Z</time>
      </trkpt>
      <trkpt lat="45.55405" lon="5.96713">
        <ele>281</ele>
        <time>2019-05-30T17:33:01Z</time>
      </trkpt>
      <trkpt lat="45.55413" lon="5.96703">
        <ele>281</ele>
        <time>2019-05-30T17:33:02Z</time>
      </trkpt>
      <trkpt lat="45.5542" lon="5.96687">
        <ele>280</ele>
        <time>2019-05-30T17:33:05Z</time>
      </trkpt>
      <trkpt lat="45.55426" lon="5.96669">
        <ele>278</ele>
        <time>2019-05-30T17:33:22Z</time>
      </trkpt>
      <trkpt lat="45.55438" lon="5.96612">
        <ele>279</ele>
        <time>2019-05-30T17:33:28Z</time>
      </trkpt>
      <trkpt lat="45.55502" lon="5.96467">
        <ele>282</ele>
        <time>2019-05-30T17:33:38Z</time>
      </trkpt>
      <trkpt lat="45.55621" lon="5.96302">
        <ele>280</ele>
        <time>2019-05-30T17:33:53Z</time>
      </trkpt>
      <trkpt lat="45.5576" lon="5.96018">
        <ele>275</ele>
        <time>2019-05-30T17:34:13Z</time>
      </trkpt>
      <trkpt lat="45.55809" lon="5.95865">
        <ele>272</ele>
        <time>2019-05-30T17:34:26Z</time>
      </trkpt>
      <trkpt lat="45.55811" lon="5.95858">
        <ele>271</ele>
        <time>2019-05-30T17:34:30Z</time>
      </trkpt>
      <trkpt lat="45.55817" lon="5.95839">
        <ele>279</ele>
        <time>2019-05-30T17:35:07Z</time>
      </trkpt>
      <trkpt lat="45.55865" lon="5.95651">
        <ele>279</ele>
        <time>2019-05-30T17:35:22Z</time>
      </trkpt>
      <trkpt lat="45.55902" lon="5.95407">
        <ele>286</ele>
        <time>2019-05-30T17:35:36Z</time>
      </trkpt>
      <trkpt lat="45.5593" lon="5.95347">
        <ele>285</ele>
        <time>2019-05-30T17:35:42Z</time>
      </trkpt>
      <trkpt lat="45.55932" lon="5.95336">
        <ele>285</ele>
        <time>2019-05-30T17:35:44Z</time>
      </trkpt>
      <trkpt lat="45.55931" lon="5.95302">
        <ele>285</ele>
        <time>2019-05-30T17:35:47Z</time>
      </trkpt>
      <trkpt lat="45.55948" lon="5.95237">
        <ele>284</ele>
        <time>2019-05-30T17:35:52Z</time>
      </trkpt>
      <trkpt lat="45.55958" lon="5.95211">
        <ele>282</ele>
        <time>2019-05-30T17:35:55Z</time>
      </trkpt>
      <trkpt lat="45.55966" lon="5.95203">
        <ele>282</ele>
        <time>2019-05-30T17:35:56Z</time>
      </trkpt>
      <trkpt lat="45.5597" lon="5.95196">
        <ele>280</ele>
        <time>2019-05-30T17:35:58Z</time>
      </trkpt>
      <trkpt lat="45.55971" lon="5.95158">
        <ele>280</ele>
        <time>2019-05-30T17:36:01Z</time>
      </trkpt>
      <trkpt lat="45.55975" lon="5.95086">
        <ele>281</ele>
        <time>2019-05-30T17:36:06Z</time>
      </trkpt>
      <trkpt lat="45.55966" lon="5.9496">
        <ele>279</ele>
        <time>2019-05-30T17:36:14Z</time>
      </trkpt>
      <trkpt lat="45.55966" lon="5.94949">
        <ele>278</ele>
        <time>2019-05-30T17:36:15Z</time>
      </trkpt>
      <trkpt lat="45.55967" lon="5.94939">
        <ele>278</ele>
        <time>2019-05-30T17:36:16Z</time>
      </trkpt>
      <trkpt lat="45.55979" lon="5.94928">
        <ele>277</ele>
        <time>2019-05-30T17:36:18Z</time>
      </trkpt>
      <trkpt lat="45.56103" lon="5.94891">
        <ele>274</ele>
        <time>2019-05-30T17:36:28Z</time>
      </trkpt>
      <trkpt lat="45.56138" lon="5.94901">
        <ele>272</ele>
        <time>2019-05-30T17:36:31Z</time>
      </trkpt>
      <trkpt lat="45.56305" lon="5.94898">
        <ele>270</ele>
        <time>2019-05-30T17:36:47Z</time>
      </trkpt>
      <trkpt lat="45.56484" lon="5.94943">
        <ele>271</ele>
        <time>2019-05-30T17:37:03Z</time>
      </trkpt>
      <trkpt lat="45.56499" lon="5.94941">
        <ele>270</ele>
        <time>2019-05-30T17:37:05Z</time>
      </trkpt>
      <trkpt lat="45.56513" lon="5.94915">
        <ele>269</ele>
        <time>2019-05-30T17:37:08Z</time>
      </trkpt>
      <trkpt lat="45.56543" lon="5.94861">
        <ele>270</ele>
        <time>2019-05-30T17:37:14Z</time>
      </trkpt>
      <trkpt lat="45.56542" lon="5.94852">
        <ele>270</ele>
        <time>2019-05-30T17:37:16Z</time>
      </trkpt>
      <trkpt lat="45.56539" lon="5.94829">
        <ele>269</ele>
        <time>2019-05-30T17:37:18Z</time>
      </trkpt>
      <trkpt lat="45.56501" lon="5.94745">
        <ele>269</ele>
        <time>2019-05-30T17:37:25Z</time>
      </trkpt>
      <trkpt lat="45.56466" lon="5.94695">
        <ele>268</ele>
        <time>2019-05-30T17:37:30Z</time>
      </trkpt>
      <trkpt lat="45.56462" lon="5.94683">
        <ele>268</ele>
        <time>2019-05-30T17:37:32Z</time>
      </trkpt>
      <trkpt lat="45.56466" lon="5.94476">
        <ele>267</ele>
        <time>2019-05-30T17:37:42Z</time>
      </trkpt>
      <trkpt lat="45.56465" lon="5.9446">
        <ele>267</ele>
        <time>2019-05-30T17:37:43Z</time>
      </trkpt>
      <trkpt lat="45.56462" lon="5.94443">
        <ele>267</ele>
        <time>2019-05-30T17:37:44Z</time>
      </trkpt>
      <trkpt lat="45.5645" lon="5.94419">
        <ele>267</ele>
        <time>2019-05-30T17:37:46Z</time>
      </trkpt>
      <trkpt lat="45.56433" lon="5.94401">
        <ele>266</ele>
        <time>2019-05-30T17:37:49Z</time>
      </trkpt>
      <trkpt lat="45.56429" lon="5.94388">
        <ele>266</ele>
        <time>2019-05-30T17:37:50Z</time>
      </trkpt>
      <trkpt lat="45.56392" lon="5.9436">
        <ele>266</ele>
        <time>2019-05-30T17:37:55Z</time>
      </trkpt>
      <trkpt lat="45.56383" lon="5.94353">
        <ele>265</ele>
        <time>2019-05-30T17:37:56Z</time>
      </trkpt>
      <trkpt lat="45.56196" lon="5.94184">
        <ele>264</ele>
        <time>2019-05-30T17:38:23Z</time>
      </trkpt>
      <trkpt lat="45.56146" lon="5.94161">
        <ele>264</ele>
        <time>2019-05-30T17:38:31Z</time>
      </trkpt>
      <trkpt lat="45.56127" lon="5.94159">
        <ele>264</ele>
        <time>2019-05-30T17:38:34Z</time>
      </trkpt>
      <trkpt lat="45.5611" lon="5.94164">
        <ele>265</ele>
        <time>2019-05-30T17:38:37Z</time>
      </trkpt>
      <trkpt lat="45.56096" lon="5.94212">
        <ele>266</ele>
        <time>2019-05-30T17:38:41Z</time>
      </trkpt>
      <trkpt lat="45.5607" lon="5.94225">
        <ele>267</ele>
        <time>2019-05-30T17:38:43Z</time>
      </trkpt>
      <trkpt lat="45.56042" lon="5.94221">
        <ele>268</ele>
        <time>2019-05-30T17:38:45Z</time>
      </trkpt>
      <trkpt lat="45.56006" lon="5.94191">
        <ele>270</ele>
        <time>2019-05-30T17:38:49Z</time>
      </trkpt>
      <trkpt lat="45.55961" lon="5.94137">
        <ele>277</ele>
        <time>2019-05-30T17:38:55Z</time>
      </trkpt>
      <trkpt lat="45.55867" lon="5.94129">
        <ele>284</ele>
        <time>2019-05-30T17:39:03Z</time>
      </trkpt>
      <trkpt lat="45.55841" lon="5.94107">
        <ele>286</ele>
        <time>2019-05-30T17:39:06Z</time>
      </trkpt>
      <trkpt lat="45.55801" lon="5.93991">
        <ele>297</ele>
        <time>2019-05-30T17:39:17Z</time>
      </trkpt>
      <trkpt lat="45.55778" lon="5.93982">
        <ele>298</ele>
        <time>2019-05-30T17:39:21Z</time>
      </trkpt>
      <trkpt lat="45.55744" lon="5.94009">
        <ele>302</ele>
        <time>2019-05-30T17:39:26Z</time>
      </trkpt>
      <trkpt lat="45.55729" lon="5.94005">
        <ele>302</ele>
        <time>2019-05-30T17:39:27Z</time>
      </trkpt>
      <trkpt lat="45.55677" lon="5.94036">
        <ele>305</ele>
        <time>2019-05-30T17:39:33Z</time>
      </trkpt>
      <trkpt lat="45.55669" lon="5.94018">
        <ele>307</ele>
        <time>2019-05-30T17:39:37Z</time>
      </trkpt>
      <trkpt lat="45.55684" lon="5.93997">
        <ele>309</ele>
        <time>2019-05-30T17:39:40Z</time>
      </trkpt>
      <trkpt lat="45.55697" lon="5.93984">
        <ele>309</ele>
        <time>2019-05-30T17:39:42Z</time>
      </trkpt>
      <trkpt lat="45.55705" lon="5.93962">
        <ele>309</ele>
        <time>2019-05-30T17:39:44Z</time>
      </trkpt>
      <trkpt lat="45.55695" lon="5.93944">
        <ele>309</ele>
        <time>2019-05-30T17:39:47Z</time>
      </trkpt>
      <trkpt lat="45.55572" lon="5.93946">
        <ele>319</ele>
        <time>2019-05-30T17:40:01Z</time>
      </trkpt>
      <trkpt lat="45.55557" lon="5.93932">
        <ele>322</ele>
        <time>2019-05-30T17:40:04Z</time>
      </trkpt>
      <trkpt lat="45.55551" lon="5.93903">
        <ele>324</ele>
        <time>2019-05-30T17:40:07Z</time>
      </trkpt>
      <trkpt lat="45.55544" lon="5.93881">
        <ele>325</ele>
        <time>2019-05-30T17:40:09Z</time>
      </trkpt>
      <trkpt lat="45.55533" lon="5.93871">
        <ele>327</ele>
        <time>2019-05-30T17:40:11Z</time>
      </trkpt>
      <trkpt lat="45.55429" lon="5.93867">
        <ele>335</ele>
        <time>2019-05-30T17:40:23Z</time>
      </trkpt>
      <trkpt lat="45.552" lon="5.93909">
        <ele>345</ele>
        <time>2019-05-30T17:40:47Z</time>
      </trkpt>
      <trkpt lat="45.55191" lon="5.93909">
        <ele>346</ele>
        <time>2019-05-30T17:40:49Z</time>
      </trkpt>
      <trkpt lat="45.55214" lon="5.9378">
        <ele>362</ele>
        <time>2019-05-30T17:41:16Z</time>
      </trkpt>
      <trkpt lat="45.55217" lon="5.93773">
        <ele>361</ele>
        <time>2019-05-30T17:42:31Z</time>
      </trkpt>
      <trkpt lat="45.55223" lon="5.93778">
        <ele>361</ele>
        <time>2019-05-30T17:42:33Z</time>
      </trkpt>
      <trkpt lat="45.55205" lon="5.93772">
        <ele>371</ele>
        <time>2019-05-30T17:58:05Z</time>
      </trkpt>
      <trkpt lat="45.57207" lon="5.94916">
        <ele>289</ele>
        <time>2019-06-01T13:47:12Z</time>
      </trkpt>
      <trkpt lat="45.57205" lon="5.94916">
        <ele>289</ele>
        <time>2019-06-01T13:47:18Z</time>
      </trkpt>
    </trkseg>
  </trk>
  <trk>
    <name><![CDATA[4 avr. 2019 à 23:11:12]]></name>
    <cmt><![CDATA[4 avr. 2019 à 23:11:12]]></cmt>
    <desc><![CDATA[{DC1}Heure de fin	: 
Durée totale	: 0h00:00
Moyenne globale	: -
Pente moyenne	: 0.00 %
Aire incluse	: 7.4932 ha
Détails par segments
distance  | durée    | vit.moy. | vit.max. | déniv. + | déniv -
   km     | hh:mn:ss |   km/h   |   km/h   |    m     |    m
     0.81 | 00:00:00 |      0.0 |      0.0 |        0 |        0{DC2}]]></desc>
    <trkseg>
      <trkpt lat="45.60077" lon="6.18221">
        <ele>1608.6</ele>
      </trkpt>
      <trkpt lat="45.59978" lon="6.18129">
        <ele>1632.9</ele>
      </trkpt>
      <trkpt lat="45.59895" lon="6.18083">
        <ele>1651.1</ele>
      </trkpt>
      <trkpt lat="45.59655" lon="6.17967">
        <ele>1724</ele>
      </trkpt>
      <trkpt lat="45.59609" lon="6.18008">
        <ele>1742.8</ele>
      </trkpt>
      <trkpt lat="45.5958" lon="6.18042">
        <ele>1754.4</ele>
      </trkpt>
      <trkpt lat="45.59588" lon="6.1805">
        <ele>1752.7</ele>
      </trkpt>
      <trkpt lat="45.59582" lon="6.18057">
        <ele>1754.3</ele>
      </trkpt>
      <trkpt lat="45.59525" lon="6.18138">
        <ele>1760.7</ele>
      </trkpt>
      <trkpt lat="45.59496" lon="6.18179">
        <ele>1764.3</ele>
      </trkpt>
      <trkpt lat="45.59482" lon="6.18199">
        <ele>1767.3</ele>
      </trkpt>
      <trkpt lat="45.59475" lon="6.18209">
        <ele>1770</ele>
      </trkpt>
      <trkpt lat="45.59472" lon="6.18215">
        <ele>1769.5</ele>
      </trkpt>
      <trkpt lat="45.5947" lon="6.18217">
        <ele>1765.4</ele>
      </trkpt>
      <trkpt lat="45.59469" lon="6.18218">
        <ele>1763.2</ele>
      </trkpt>
      <trkpt lat="45.59468" lon="6.18219">
        <ele>1761.9</ele>
      </trkpt>
      <trkpt lat="45.59468" lon="6.18219">
        <ele>1761.4</ele>
      </trkpt>
      <trkpt lat="45.59468" lon="6.18219">
        <ele>1761.1</ele>
      </trkpt>
      <trkpt lat="45.59468" lon="6.1822">
        <ele>1760.9</ele>
      </trkpt>
      <trkpt lat="45.59468" lon="6.1822">
        <ele>1760.9</ele>
      </trkpt>
      <trkpt lat="45.59468" lon="6.1822">
        <ele>1760.9</ele>
      </trkpt>
      <trkpt lat="45.59468" lon="6.1822">
        <ele>1760.9</ele>
      </trkpt>
    </trkseg>
  </trk>
  <trk>
    <name><![CDATA[19 févr. 2019 à 15:43:54]]></name>
    <cmt><![CDATA[19 févr. 2019 à 15:43:54]]></cmt>
    <trkseg>
  </trk>
  <trk>
    <name><![CDATA[19 févr. 2019 à 12:26:18]]></name>
    <cmt><![CDATA[19 févr. 2019 à 12:26:18]]></cmt>
    <trkseg>
      <trkpt lat="45.79709" lon="2.93784">
        <ele>1137</ele>
        <time>2019-02-19T11:26:24Z</time>
      </trkpt>
      <trkpt lat="45.77021" lon="2.96299">
        <ele>1410.4</ele>
        <time>2019-02-19T13:16:48Z</time>
      </trkpt>
    </trkseg>
  </trk>
  <trk>
    <name><![CDATA[19 févr. 2019 à 08:31:21]]></name>
    <cmt><![CDATA[19 févr. 2019 à 08:31:21]]></cmt>
    <trkseg>
      <trkpt lat="45.78842" lon="2.99672">
        <ele>519</ele>
        <time>2019-02-19T07:31:21Z</time>
      </trkpt>
      <trkpt lat="45.78856" lon="2.99674">
        <ele>520</ele>
        <time>2019-02-19T07:32:10Z</time>
      </trkpt>
      <trkpt lat="45.78852" lon="2.99684">
        <ele>520</ele>
        <time>2019-02-19T07:32:22Z</time>
      </trkpt>
      <trkpt lat="45.78841" lon="2.99675">
        <ele>520</ele>
        <time>2019-02-19T07:32:58Z</time>
      </trkpt>
      <trkpt lat="45.7885" lon="2.99675">
        <ele>520</ele>
        <time>2019-02-19T07:33:14Z</time>
      </trkpt>
      <trkpt lat="45.78855" lon="2.99677">
        <ele>522</ele>
        <time>2019-02-19T07:35:53Z</time>
      </trkpt>
      <trkpt lat="45.78858" lon="2.99677">
        <ele>523</ele>
        <time>2019-02-19T07:39:01Z</time>
      </trkpt>
      <trkpt lat="45.78859" lon="2.99667">
        <ele>524</ele>
        <time>2019-02-19T07:40:01Z</time>
      </trkpt>
      <trkpt lat="45.7885" lon="2.99635">
        <ele>526</ele>
        <time>2019-02-19T07:43:59Z</time>
      </trkpt>
      <trkpt lat="45.78842" lon="2.99618">
        <ele>526</ele>
        <time>2019-02-19T07:44:09Z</time>
      </trkpt>
      <trkpt lat="45.78842" lon="2.9958">
        <ele>527</ele>
        <time>2019-02-19T07:44:32Z</time>
      </trkpt>
      <trkpt lat="45.78847" lon="2.99547">
        <ele>529</ele>
        <time>2019-02-19T07:44:56Z</time>
      </trkpt>
      <trkpt lat="45.78847" lon="2.99536">
        <ele>530</ele>
        <time>2019-02-19T07:45:05Z</time>
      </trkpt>
      <trkpt lat="45.7885" lon="2.99498">
        <ele>531</ele>
        <time>2019-02-19T07:45:31Z</time>
      </trkpt>
      <trkpt lat="45.78848" lon="2.99478">
        <ele>533</ele>
        <time>2019-02-19T07:45:45Z</time>
      </trkpt>
      <trkpt lat="45.78851" lon="2.99452">
        <ele>534</ele>
        <time>2019-02-19T07:45:59Z</time>
      </trkpt>
      <trkpt lat="45.78849" lon="2.99444">
        <ele>534</ele>
        <time>2019-02-19T07:46:04Z</time>
      </trkpt>
      <trkpt lat="45.78851" lon="2.99423">
        <ele>535</ele>
        <time>2019-02-19T07:46:18Z</time>
      </trkpt>
      <trkpt lat="45.78848" lon="2.99408">
        <ele>535</ele>
        <time>2019-02-19T07:46:28Z</time>
      </trkpt>
      <trkpt lat="45.7885" lon="2.99388">
        <ele>536</ele>
        <time>2019-02-19T07:46:40Z</time>
      </trkpt>
      <trkpt lat="45.78846" lon="2.99373">
        <ele>537</ele>
        <time>2019-02-19T07:46:49Z</time>
      </trkpt>
      <trkpt lat="45.78847" lon="2.99356">
        <ele>538</ele>
        <time>2019-02-19T07:47:00Z</time>
      </trkpt>
      <trkpt lat="45.78844" lon="2.99323">
        <ele>539</ele>
        <time>2019-02-19T07:47:22Z</time>
      </trkpt>
      <trkpt lat="45.78847" lon="2.99316">
        <ele>539</ele>
        <time>2019-02-19T07:47:27Z</time>
      </trkpt>
      <trkpt lat="45.78851" lon="2.99293">
        <ele>541</ele>
        <time>2019-02-19T07:47:44Z</time>
      </trkpt>
      <trkpt lat="45.78851" lon="2.99279">
        <ele>541</ele>
        <time>2019-02-19T07:47:53Z</time>
      </trkpt>
      <trkpt lat="45.78853" lon="2.99269">
        <ele>542</ele>
        <time>2019-02-19T07:47:58Z</time>
      </trkpt>
      <trkpt lat="45.78853" lon="2.99244">
        <ele>543</ele>
        <time>2019-02-19T07:48:06Z</time>
      </trkpt>
      <trkpt lat="45.78859" lon="2.99218">
        <ele>544</ele>
        <time>2019-02-19T07:48:24Z</time>
      </trkpt>
      <trkpt lat="45.7888" lon="2.99164">
        <ele>547</ele>
        <time>2019-02-19T07:48:59Z</time>
      </trkpt>
      <trkpt lat="45.78888" lon="2.99146">
        <ele>547</ele>
        <time>2019-02-19T07:49:12Z</time>
      </trkpt>
      <trkpt lat="45.78898" lon="2.99082">
        <ele>551</ele>
        <time>2019-02-19T07:49:51Z</time>
      </trkpt>
      <trkpt lat="45.78886" lon="2.9907">
        <ele>551</ele>
        <time>2019-02-19T07:50:00Z</time>
      </trkpt>
      <trkpt lat="45.78842" lon="2.99051">
        <ele>553</ele>
        <time>2019-02-19T07:50:34Z</time>
      </trkpt>
      <trkpt lat="45.78833" lon="2.99034">
        <ele>554</ele>
        <time>2019-02-19T07:50:48Z</time>
      </trkpt>
      <trkpt lat="45.78826" lon="2.99017">
        <ele>555</ele>
        <time>2019-02-19T07:51:20Z</time>
      </trkpt>
      <trkpt lat="45.78817" lon="2.99001">
        <ele>556</ele>
        <time>2019-02-19T07:51:46Z</time>
      </trkpt>
      <trkpt lat="45.78809" lon="2.98981">
        <ele>557</ele>
        <time>2019-02-19T07:52:00Z</time>
      </trkpt>
      <trkpt lat="45.78804" lon="2.98962">
        <ele>558</ele>
        <time>2019-02-19T07:52:13Z</time>
      </trkpt>
      <trkpt lat="45.78802" lon="2.98941">
        <ele>559</ele>
        <time>2019-02-19T07:52:25Z</time>
      </trkpt>
      <trkpt lat="45.78792" lon="2.989">
        <ele>559</ele>
        <time>2019-02-19T07:52:42Z</time>
      </trkpt>
      <trkpt lat="45.78789" lon="2.98837">
        <ele>559</ele>
        <time>2019-02-19T07:53:10Z</time>
      </trkpt>
      <trkpt lat="45.78786" lon="2.98817">
        <ele>560</ele>
        <time>2019-02-19T07:53:23Z</time>
      </trkpt>
      <trkpt lat="45.788" lon="2.98771">
        <ele>561</ele>
        <time>2019-02-19T07:53:49Z</time>
      </trkpt>
      <trkpt lat="45.78804" lon="2.98708">
        <ele>562</ele>
        <time>2019-02-19T07:54:22Z</time>
      </trkpt>
      <trkpt lat="45.78802" lon="2.98681">
        <ele>563</ele>
        <time>2019-02-19T07:54:39Z</time>
      </trkpt>
      <trkpt lat="45.78809" lon="2.98645">
        <ele>563</ele>
        <time>2019-02-19T07:55:02Z</time>
      </trkpt>
      <trkpt lat="45.78816" lon="2.98571">
        <ele>561</ele>
        <time>2019-02-19T07:55:41Z</time>
      </trkpt>
      <trkpt lat="45.7883" lon="2.98535">
        <ele>562</ele>
        <time>2019-02-19T07:56:08Z</time>
      </trkpt>
      <trkpt lat="45.78852" lon="2.98506">
        <ele>562</ele>
        <time>2019-02-19T07:56:29Z</time>
      </trkpt>
      <trkpt lat="45.78862" lon="2.98488">
        <ele>563</ele>
        <time>2019-02-19T07:56:40Z</time>
      </trkpt>
      <trkpt lat="45.7887" lon="2.98471">
        <ele>563</ele>
        <time>2019-02-19T07:56:50Z</time>
      </trkpt>
      <trkpt lat="45.78867" lon="2.98443">
        <ele>564</ele>
        <time>2019-02-19T07:57:06Z</time>
      </trkpt>
      <trkpt lat="45.78868" lon="2.98434">
        <ele>563</ele>
        <time>2019-02-19T07:57:20Z</time>
      </trkpt>
      <trkpt lat="45.78871" lon="2.98419">
        <ele>563</ele>
        <time>2019-02-19T07:57:48Z</time>
      </trkpt>
      <trkpt lat="45.78882" lon="2.98397">
        <ele>564</ele>
        <time>2019-02-19T07:57:58Z</time>
      </trkpt>
      <trkpt lat="45.78887" lon="2.98391">
        <ele>564</ele>
        <time>2019-02-19T07:58:02Z</time>
      </trkpt>
      <trkpt lat="45.789" lon="2.98375">
        <ele>565</ele>
        <time>2019-02-19T07:58:16Z</time>
      </trkpt>
      <trkpt lat="45.78909" lon="2.98353">
        <ele>565</ele>
        <time>2019-02-19T07:58:29Z</time>
      </trkpt>
      <trkpt lat="45.78911" lon="2.98345">
        <ele>565</ele>
        <time>2019-02-19T07:58:34Z</time>
      </trkpt>
      <trkpt lat="45.78915" lon="2.98338">
        <ele>566</ele>
        <time>2019-02-19T07:58:39Z</time>
      </trkpt>
      <trkpt lat="45.7892" lon="2.9832">
        <ele>566</ele>
        <time>2019-02-19T07:58:49Z</time>
      </trkpt>
      <trkpt lat="45.78926" lon="2.98306">
        <ele>567</ele>
        <time>2019-02-19T07:58:58Z</time>
      </trkpt>
      <trkpt lat="45.78939" lon="2.98274">
        <ele>567</ele>
        <time>2019-02-19T07:59:19Z</time>
      </trkpt>
      <trkpt lat="45.78942" lon="2.98268">
        <ele>568</ele>
        <time>2019-02-19T07:59:25Z</time>
      </trkpt>
      <trkpt lat="45.78945" lon="2.98251">
        <ele>569</ele>
        <time>2019-02-19T07:59:40Z</time>
      </trkpt>
      <trkpt lat="45.7895" lon="2.98244">
        <ele>568</ele>
        <time>2019-02-19T07:59:44Z</time>
      </trkpt>
      <trkpt lat="45.78952" lon="2.98234">
        <ele>569</ele>
        <time>2019-02-19T07:59:50Z</time>
      </trkpt>
      <trkpt lat="45.78954" lon="2.98226">
        <ele>569</ele>
        <time>2019-02-19T07:59:55Z</time>
      </trkpt>
      <trkpt lat="45.78957" lon="2.98217">
        <ele>569</ele>
        <time>2019-02-19T07:59:59Z</time>
      </trkpt>
      <trkpt lat="45.7896" lon="2.9821">
        <ele>569</ele>
        <time>2019-02-19T08:00:03Z</time>
      </trkpt>
      <trkpt lat="45.78963" lon="2.98194">
        <ele>570</ele>
        <time>2019-02-19T08:00:13Z</time>
      </trkpt>
      <trkpt lat="45.78968" lon="2.98189">
        <ele>571</ele>
        <time>2019-02-19T08:00:21Z</time>
      </trkpt>
      <trkpt lat="45.78972" lon="2.98183">
        <ele>571</ele>
        <time>2019-02-19T08:00:25Z</time>
      </trkpt>
      <trkpt lat="45.78979" lon="2.98179">
        <ele>571</ele>
        <time>2019-02-19T08:00:32Z</time>
      </trkpt>
      <trkpt lat="45.78989" lon="2.98157">
        <ele>572</ele>
        <time>2019-02-19T08:00:46Z</time>
      </trkpt>
      <trkpt lat="45.78994" lon="2.98141">
        <ele>573</ele>
        <time>2019-02-19T08:00:56Z</time>
      </trkpt>
      <trkpt lat="45.78999" lon="2.98136">
        <ele>573</ele>
        <time>2019-02-19T08:01:01Z</time>
      </trkpt>
      <trkpt lat="45.79002" lon="2.98129">
        <ele>573</ele>
        <time>2019-02-19T08:01:06Z</time>
      </trkpt>
      <trkpt lat="45.79005" lon="2.98118">
        <ele>573</ele>
        <time>2019-02-19T08:01:12Z</time>
      </trkpt>
      <trkpt lat="45.79009" lon="2.98112">
        <ele>573</ele>
        <time>2019-02-19T08:01:16Z</time>
      </trkpt>
      <trkpt lat="45.79019" lon="2.9809">
        <ele>574</ele>
        <time>2019-02-19T08:01:35Z</time>
      </trkpt>
      <trkpt lat="45.79037" lon="2.9807">
        <ele>576</ele>
        <time>2019-02-19T08:01:55Z</time>
      </trkpt>
      <trkpt lat="45.79046" lon="2.98049">
        <ele>577</ele>
        <time>2019-02-19T08:02:09Z</time>
      </trkpt>
      <trkpt lat="45.79051" lon="2.98048">
        <ele>577</ele>
        <time>2019-02-19T08:02:15Z</time>
      </trkpt>
      <trkpt lat="45.79076" lon="2.98004">
        <ele>581</ele>
        <time>2019-02-19T08:02:49Z</time>
      </trkpt>
      <trkpt lat="45.79081" lon="2.98001">
        <ele>582</ele>
        <time>2019-02-19T08:02:55Z</time>
      </trkpt>
      <trkpt lat="45.79108" lon="2.97959">
        <ele>586</ele>
        <time>2019-02-19T08:03:30Z</time>
      </trkpt>
      <trkpt lat="45.7912" lon="2.97949">
        <ele>588</ele>
        <time>2019-02-19T08:03:42Z</time>
      </trkpt>
      <trkpt lat="45.79123" lon="2.9794">
        <ele>588</ele>
        <time>2019-02-19T08:03:47Z</time>
      </trkpt>
      <trkpt lat="45.79123" lon="2.97931">
        <ele>589</ele>
        <time>2019-02-19T08:03:51Z</time>
      </trkpt>
      <trkpt lat="45.79122" lon="2.97924">
        <ele>589</ele>
        <time>2019-02-19T08:03:56Z</time>
      </trkpt>
      <trkpt lat="45.79127" lon="2.97901">
        <ele>591</ele>
        <time>2019-02-19T08:04:12Z</time>
      </trkpt>
      <trkpt lat="45.7913" lon="2.97894">
        <ele>592</ele>
        <time>2019-02-19T08:04:17Z</time>
      </trkpt>
      <trkpt lat="45.79134" lon="2.97881">
        <ele>593</ele>
        <time>2019-02-19T08:04:28Z</time>
      </trkpt>
      <trkpt lat="45.7915" lon="2.97846">
        <ele>596</ele>
        <time>2019-02-19T08:04:59Z</time>
      </trkpt>
      <trkpt lat="45.79156" lon="2.97833">
        <ele>597</ele>
        <time>2019-02-19T08:05:09Z</time>
      </trkpt>
      <trkpt lat="45.7916" lon="2.97823">
        <ele>598</ele>
        <time>2019-02-19T08:05:17Z</time>
      </trkpt>
      <trkpt lat="45.79167" lon="2.97818">
        <ele>599</ele>
        <time>2019-02-19T08:05:27Z</time>
      </trkpt>
      <trkpt lat="45.79194" lon="2.97777">
        <ele>602</ele>
        <time>2019-02-19T08:05:59Z</time>
      </trkpt>
      <trkpt lat="45.79218" lon="2.97739">
        <ele>606</ele>
        <time>2019-02-19T08:06:31Z</time>
      </trkpt>
      <trkpt lat="45.79227" lon="2.97726">
        <ele>609</ele>
        <time>2019-02-19T08:07:18Z</time>
      </trkpt>
      <trkpt lat="45.79232" lon="2.9772">
        <ele>610</ele>
        <time>2019-02-19T08:07:24Z</time>
      </trkpt>
      <trkpt lat="45.79233" lon="2.97713">
        <ele>610</ele>
        <time>2019-02-19T08:07:29Z</time>
      </trkpt>
      <trkpt lat="45.79233" lon="2.97701">
        <ele>611</ele>
        <time>2019-02-19T08:07:37Z</time>
      </trkpt>
      <trkpt lat="45.79231" lon="2.97685">
        <ele>612</ele>
        <time>2019-02-19T08:07:48Z</time>
      </trkpt>
      <trkpt lat="45.79232" lon="2.97676">
        <ele>613</ele>
        <time>2019-02-19T08:07:54Z</time>
      </trkpt>
      <trkpt lat="45.79235" lon="2.97649">
        <ele>616</ele>
        <time>2019-02-19T08:08:13Z</time>
      </trkpt>
      <trkpt lat="45.79235" lon="2.97639">
        <ele>616</ele>
        <time>2019-02-19T08:08:17Z</time>
      </trkpt>
      <trkpt lat="45.79237" lon="2.97615">
        <ele>618</ele>
        <time>2019-02-19T08:08:30Z</time>
      </trkpt>
      <trkpt lat="45.79235" lon="2.97606">
        <ele>619</ele>
        <time>2019-02-19T08:08:37Z</time>
      </trkpt>
      <trkpt lat="45.79231" lon="2.976">
        <ele>619</ele>
        <time>2019-02-19T08:08:41Z</time>
      </trkpt>
      <trkpt lat="45.79231" lon="2.97587">
        <ele>620</ele>
        <time>2019-02-19T08:08:50Z</time>
      </trkpt>
      <trkpt lat="45.79228" lon="2.97572">
        <ele>621</ele>
        <time>2019-02-19T08:09:00Z</time>
      </trkpt>
      <trkpt lat="45.79231" lon="2.97563">
        <ele>622</ele>
        <time>2019-02-19T08:09:08Z</time>
      </trkpt>
      <trkpt lat="45.79231" lon="2.97555">
        <ele>623</ele>
        <time>2019-02-19T08:09:13Z</time>
      </trkpt>
      <trkpt lat="45.79227" lon="2.97521">
        <ele>626</ele>
        <time>2019-02-19T08:09:35Z</time>
      </trkpt>
      <trkpt lat="45.79231" lon="2.97505">
        <ele>627</ele>
        <time>2019-02-19T08:09:46Z</time>
      </trkpt>
      <trkpt lat="45.79231" lon="2.97497">
        <ele>628</ele>
        <time>2019-02-19T08:09:51Z</time>
      </trkpt>
      <trkpt lat="45.79235" lon="2.97491">
        <ele>629</ele>
        <time>2019-02-19T08:09:56Z</time>
      </trkpt>
      <trkpt lat="45.79231" lon="2.97483">
        <ele>630</ele>
        <time>2019-02-19T08:10:04Z</time>
      </trkpt>
      <trkpt lat="45.7923" lon="2.97445">
        <ele>635</ele>
        <time>2019-02-19T08:10:38Z</time>
      </trkpt>
      <trkpt lat="45.7923" lon="2.97422">
        <ele>637</ele>
        <time>2019-02-19T08:10:57Z</time>
      </trkpt>
      <trkpt lat="45.79238" lon="2.97402">
        <ele>640</ele>
        <time>2019-02-19T08:11:18Z</time>
      </trkpt>
      <trkpt lat="45.79238" lon="2.97389">
        <ele>642</ele>
        <time>2019-02-19T08:11:34Z</time>
      </trkpt>
      <trkpt lat="45.79241" lon="2.97378">
        <ele>645</ele>
        <time>2019-02-19T08:11:53Z</time>
      </trkpt>
      <trkpt lat="45.79242" lon="2.97364">
        <ele>647</ele>
        <time>2019-02-19T08:12:06Z</time>
      </trkpt>
      <trkpt lat="45.79246" lon="2.97345">
        <ele>651</ele>
        <time>2019-02-19T08:12:28Z</time>
      </trkpt>
      <trkpt lat="45.79246" lon="2.97332">
        <ele>652</ele>
        <time>2019-02-19T08:12:40Z</time>
      </trkpt>
      <trkpt lat="45.79248" lon="2.9732">
        <ele>654</ele>
        <time>2019-02-19T08:12:52Z</time>
      </trkpt>
      <trkpt lat="45.79254" lon="2.97302">
        <ele>658</ele>
        <time>2019-02-19T08:13:17Z</time>
      </trkpt>
      <trkpt lat="45.79256" lon="2.97278">
        <ele>661</ele>
        <time>2019-02-19T08:13:41Z</time>
      </trkpt>
      <trkpt lat="45.79257" lon="2.9727">
        <ele>663</ele>
        <time>2019-02-19T08:13:51Z</time>
      </trkpt>
      <trkpt lat="45.79256" lon="2.97247">
        <ele>666</ele>
        <time>2019-02-19T08:14:14Z</time>
      </trkpt>
      <trkpt lat="45.79252" lon="2.97238">
        <ele>667</ele>
        <time>2019-02-19T08:14:22Z</time>
      </trkpt>
      <trkpt lat="45.79256" lon="2.97224">
        <ele>669</ele>
        <time>2019-02-19T08:14:40Z</time>
      </trkpt>
      <trkpt lat="45.7926" lon="2.97214">
        <ele>671</ele>
        <time>2019-02-19T08:14:52Z</time>
      </trkpt>
      <trkpt lat="45.79262" lon="2.97202">
        <ele>672</ele>
        <time>2019-02-19T08:15:04Z</time>
      </trkpt>
      <trkpt lat="45.79265" lon="2.97191">
        <ele>675</ele>
        <time>2019-02-19T08:15:22Z</time>
      </trkpt>
      <trkpt lat="45.79266" lon="2.97179">
        <ele>676</ele>
        <time>2019-02-19T08:15:34Z</time>
      </trkpt>
      <trkpt lat="45.79266" lon="2.9717">
        <ele>677</ele>
        <time>2019-02-19T08:15:39Z</time>
      </trkpt>
      <trkpt lat="45.79261" lon="2.9716">
        <ele>679</ele>
        <time>2019-02-19T08:15:53Z</time>
      </trkpt>
      <trkpt lat="45.79261" lon="2.9715">
        <ele>680</ele>
        <time>2019-02-19T08:16:00Z</time>
      </trkpt>
      <trkpt lat="45.79262" lon="2.97142">
        <ele>682</ele>
        <time>2019-02-19T08:16:09Z</time>
      </trkpt>
      <trkpt lat="45.79265" lon="2.97134">
        <ele>682</ele>
        <time>2019-02-19T08:16:14Z</time>
      </trkpt>
      <trkpt lat="45.7927" lon="2.97126">
        <ele>684</ele>
        <time>2019-02-19T08:16:28Z</time>
      </trkpt>
      <trkpt lat="45.79274" lon="2.97119">
        <ele>686</ele>
        <time>2019-02-19T08:16:40Z</time>
      </trkpt>
      <trkpt lat="45.79278" lon="2.9711">
        <ele>688</ele>
        <time>2019-02-19T08:16:52Z</time>
      </trkpt>
      <trkpt lat="45.79283" lon="2.97093">
        <ele>691</ele>
        <time>2019-02-19T08:17:11Z</time>
      </trkpt>
      <trkpt lat="45.79286" lon="2.97086">
        <ele>692</ele>
        <time>2019-02-19T08:17:20Z</time>
      </trkpt>
      <trkpt lat="45.79286" lon="2.97074">
        <ele>694</ele>
        <time>2019-02-19T08:17:32Z</time>
      </trkpt>
      <trkpt lat="45.79291" lon="2.97053">
        <ele>698</ele>
        <time>2019-02-19T08:17:57Z</time>
      </trkpt>
      <trkpt lat="45.79293" lon="2.97041">
        <ele>700</ele>
        <time>2019-02-19T08:18:09Z</time>
      </trkpt>
      <trkpt lat="45.79295" lon="2.97033">
        <ele>701</ele>
        <time>2019-02-19T08:18:16Z</time>
      </trkpt>
      <trkpt lat="45.79298" lon="2.97026">
        <ele>703</ele>
        <time>2019-02-19T08:18:30Z</time>
      </trkpt>
      <trkpt lat="45.79293" lon="2.97013">
        <ele>704</ele>
        <time>2019-02-19T08:18:43Z</time>
      </trkpt>
      <trkpt lat="45.79295" lon="2.97">
        <ele>706</ele>
        <time>2019-02-19T08:18:57Z</time>
      </trkpt>
      <trkpt lat="45.79303" lon="2.96985">
        <ele>709</ele>
        <time>2019-02-19T08:19:12Z</time>
      </trkpt>
      <trkpt lat="45.7931" lon="2.96977">
        <ele>711</ele>
        <time>2019-02-19T08:19:26Z</time>
      </trkpt>
      <trkpt lat="45.79311" lon="2.96966">
        <ele>712</ele>
        <time>2019-02-19T08:19:37Z</time>
      </trkpt>
      <trkpt lat="45.79316" lon="2.96945">
        <ele>716</ele>
        <time>2019-02-19T08:20:03Z</time>
      </trkpt>
      <trkpt lat="45.79317" lon="2.96936">
        <ele>717</ele>
        <time>2019-02-19T08:20:11Z</time>
      </trkpt>
      <trkpt lat="45.79325" lon="2.96916">
        <ele>720</ele>
        <time>2019-02-19T08:20:35Z</time>
      </trkpt>
      <trkpt lat="45.79323" lon="2.96909">
        <ele>720</ele>
        <time>2019-02-19T08:20:40Z</time>
      </trkpt>
      <trkpt lat="45.79324" lon="2.96901">
        <ele>721</ele>
        <time>2019-02-19T08:20:46Z</time>
      </trkpt>
      <trkpt lat="45.7933" lon="2.96897">
        <ele>723</ele>
        <time>2019-02-19T08:20:58Z</time>
      </trkpt>
      <trkpt lat="45.79335" lon="2.96902">
        <ele>724</ele>
        <time>2019-02-19T08:21:26Z</time>
      </trkpt>
      <trkpt lat="45.79339" lon="2.96908">
        <ele>726</ele>
        <time>2019-02-19T08:21:57Z</time>
      </trkpt>
      <trkpt lat="45.79348" lon="2.96938">
        <ele>733</ele>
        <time>2019-02-19T08:22:38Z</time>
      </trkpt>
      <trkpt lat="45.79353" lon="2.96947">
        <ele>734</ele>
        <time>2019-02-19T08:22:49Z</time>
      </trkpt>
      <trkpt lat="45.79358" lon="2.96969">
        <ele>735</ele>
        <time>2019-02-19T08:23:06Z</time>
      </trkpt>
      <trkpt lat="45.7936" lon="2.96977">
        <ele>736</ele>
        <time>2019-02-19T08:23:13Z</time>
      </trkpt>
      <trkpt lat="45.79371" lon="2.96994">
        <ele>742</ele>
        <time>2019-02-19T08:23:39Z</time>
      </trkpt>
      <trkpt lat="45.79386" lon="2.97012">
        <ele>748</ele>
        <time>2019-02-19T08:24:10Z</time>
      </trkpt>
      <trkpt lat="45.79396" lon="2.97022">
        <ele>751</ele>
        <time>2019-02-19T08:24:28Z</time>
      </trkpt>
      <trkpt lat="45.79402" lon="2.9706">
        <ele>757</ele>
        <time>2019-02-19T08:25:07Z</time>
      </trkpt>
      <trkpt lat="45.79414" lon="2.97102">
        <ele>765</ele>
        <time>2019-02-19T08:25:52Z</time>
      </trkpt>
      <trkpt lat="45.7943" lon="2.97152">
        <ele>772</ele>
        <time>2019-02-19T08:26:40Z</time>
      </trkpt>
      <trkpt lat="45.79444" lon="2.97186">
        <ele>777</ele>
        <time>2019-02-19T08:27:12Z</time>
      </trkpt>
      <trkpt lat="45.79449" lon="2.97191">
        <ele>778</ele>
        <time>2019-02-19T08:27:17Z</time>
      </trkpt>
      <trkpt lat="45.79455" lon="2.97205">
        <ele>780</ele>
        <time>2019-02-19T08:27:30Z</time>
      </trkpt>
      <trkpt lat="45.79461" lon="2.97215">
        <ele>781</ele>
        <time>2019-02-19T08:27:41Z</time>
      </trkpt>
      <trkpt lat="45.79468" lon="2.97223">
        <ele>783</ele>
        <time>2019-02-19T08:27:53Z</time>
      </trkpt>
      <trkpt lat="45.79476" lon="2.97231">
        <ele>786</ele>
        <time>2019-02-19T08:28:08Z</time>
      </trkpt>
      <trkpt lat="45.79481" lon="2.97232">
        <ele>789</ele>
        <time>2019-02-19T08:29:22Z</time>
      </trkpt>
      <trkpt lat="45.79485" lon="2.9724">
        <ele>791</ele>
        <time>2019-02-19T08:29:36Z</time>
      </trkpt>
      <trkpt lat="45.79496" lon="2.97246">
        <ele>792</ele>
        <time>2019-02-19T08:29:50Z</time>
      </trkpt>
      <trkpt lat="45.79504" lon="2.97253">
        <ele>796</ele>
        <time>2019-02-19T08:30:05Z</time>
      </trkpt>
      <trkpt lat="45.7951" lon="2.97262">
        <ele>797</ele>
        <time>2019-02-19T08:30:17Z</time>
      </trkpt>
      <trkpt lat="45.79528" lon="2.97279">
        <ele>803</ele>
        <time>2019-02-19T08:30:49Z</time>
      </trkpt>
      <trkpt lat="45.79533" lon="2.97283">
        <ele>805</ele>
        <time>2019-02-19T08:30:58Z</time>
      </trkpt>
      <trkpt lat="45.79539" lon="2.97291">
        <ele>806</ele>
        <time>2019-02-19T08:31:11Z</time>
      </trkpt>
      <trkpt lat="45.79544" lon="2.97298">
        <ele>808</ele>
        <time>2019-02-19T08:31:21Z</time>
      </trkpt>
      <trkpt lat="45.79552" lon="2.97304">
        <ele>810</ele>
        <time>2019-02-19T08:31:33Z</time>
      </trkpt>
      <trkpt lat="45.79563" lon="2.97321">
        <ele>814</ele>
        <time>2019-02-19T08:31:54Z</time>
      </trkpt>
      <trkpt lat="45.79566" lon="2.97328">
        <ele>814</ele>
        <time>2019-02-19T08:31:58Z</time>
      </trkpt>
      <trkpt lat="45.79571" lon="2.97333">
        <ele>816</ele>
        <time>2019-02-19T08:32:07Z</time>
      </trkpt>
      <trkpt lat="45.79576" lon="2.9734">
        <ele>818</ele>
        <time>2019-02-19T08:32:19Z</time>
      </trkpt>
      <trkpt lat="45.79581" lon="2.97343">
        <ele>819</ele>
        <time>2019-02-19T08:32:24Z</time>
      </trkpt>
      <trkpt lat="45.79587" lon="2.97352">
        <ele>821</ele>
        <time>2019-02-19T08:32:36Z</time>
      </trkpt>
      <trkpt lat="45.79592" lon="2.97356">
        <ele>821</ele>
        <time>2019-02-19T08:32:42Z</time>
      </trkpt>
      <trkpt lat="45.79605" lon="2.97363">
        <ele>825</ele>
        <time>2019-02-19T08:33:02Z</time>
      </trkpt>
      <trkpt lat="45.79611" lon="2.97367">
        <ele>827</ele>
        <time>2019-02-19T08:33:10Z</time>
      </trkpt>
      <trkpt lat="45.79618" lon="2.97372">
        <ele>827</ele>
        <time>2019-02-19T08:33:22Z</time>
      </trkpt>
      <trkpt lat="45.79625" lon="2.97376">
        <ele>830</ele>
        <time>2019-02-19T08:33:34Z</time>
      </trkpt>
      <trkpt lat="45.79633" lon="2.97381">
        <ele>833</ele>
        <time>2019-02-19T08:33:46Z</time>
      </trkpt>
      <trkpt lat="45.7964" lon="2.97384">
        <ele>835</ele>
        <time>2019-02-19T08:33:58Z</time>
      </trkpt>
      <trkpt lat="45.79654" lon="2.97372">
        <ele>837</ele>
        <time>2019-02-19T08:34:17Z</time>
      </trkpt>
      <trkpt lat="45.79645" lon="2.97369">
        <ele>835</ele>
        <time>2019-02-19T08:34:58Z</time>
      </trkpt>
      <trkpt lat="45.79639" lon="2.97366">
        <ele>835</ele>
        <time>2019-02-19T08:35:03Z</time>
      </trkpt>
      <trkpt lat="45.79634" lon="2.9736">
        <ele>835</ele>
        <time>2019-02-19T08:35:07Z</time>
      </trkpt>
      <trkpt lat="45.7963" lon="2.97353">
        <ele>835</ele>
        <time>2019-02-19T08:35:12Z</time>
      </trkpt>
      <trkpt lat="45.7962" lon="2.97343">
        <ele>835</ele>
        <time>2019-02-19T08:35:47Z</time>
      </trkpt>
      <trkpt lat="45.79615" lon="2.97336">
        <ele>833</ele>
        <time>2019-02-19T08:35:51Z</time>
      </trkpt>
      <trkpt lat="45.79612" lon="2.97342">
        <ele>834</ele>
        <time>2019-02-19T08:36:03Z</time>
      </trkpt>
      <trkpt lat="45.79619" lon="2.97352">
        <ele>835</ele>
        <time>2019-02-19T08:36:11Z</time>
      </trkpt>
      <trkpt lat="45.79625" lon="2.97356">
        <ele>835</ele>
        <time>2019-02-19T08:36:16Z</time>
      </trkpt>
      <trkpt lat="45.79629" lon="2.97361">
        <ele>835</ele>
        <time>2019-02-19T08:36:20Z</time>
      </trkpt>
      <trkpt lat="45.79634" lon="2.97364">
        <ele>836</ele>
        <time>2019-02-19T08:36:25Z</time>
      </trkpt>
      <trkpt lat="45.7964" lon="2.97365">
        <ele>836</ele>
        <time>2019-02-19T08:36:29Z</time>
      </trkpt>
      <trkpt lat="45.79644" lon="2.9737">
        <ele>836</ele>
        <time>2019-02-19T08:36:33Z</time>
      </trkpt>
      <trkpt lat="45.7965" lon="2.97374">
        <ele>837</ele>
        <time>2019-02-19T08:36:39Z</time>
      </trkpt>
      <trkpt lat="45.79655" lon="2.97382">
        <ele>838</ele>
        <time>2019-02-19T08:36:47Z</time>
      </trkpt>
      <trkpt lat="45.79665" lon="2.97385">
        <ele>839</ele>
        <time>2019-02-19T08:36:57Z</time>
      </trkpt>
      <trkpt lat="45.79671" lon="2.97386">
        <ele>839</ele>
        <time>2019-02-19T08:37:02Z</time>
      </trkpt>
      <trkpt lat="45.79678" lon="2.97384">
        <ele>839</ele>
        <time>2019-02-19T08:37:07Z</time>
      </trkpt>
      <trkpt lat="45.79683" lon="2.97384">
        <ele>838</ele>
        <time>2019-02-19T08:37:11Z</time>
      </trkpt>
      <trkpt lat="45.797" lon="2.9738">
        <ele>836</ele>
        <time>2019-02-19T08:37:23Z</time>
      </trkpt>
      <trkpt lat="45.79715" lon="2.97371">
        <ele>834</ele>
        <time>2019-02-19T08:37:33Z</time>
      </trkpt>
      <trkpt lat="45.79727" lon="2.97369">
        <ele>833</ele>
        <time>2019-02-19T08:37:42Z</time>
      </trkpt>
      <trkpt lat="45.79732" lon="2.97367">
        <ele>833</ele>
        <time>2019-02-19T08:37:46Z</time>
      </trkpt>
      <trkpt lat="45.79739" lon="2.97364">
        <ele>832</ele>
        <time>2019-02-19T08:37:51Z</time>
      </trkpt>
      <trkpt lat="45.79754" lon="2.97353">
        <ele>829</ele>
        <time>2019-02-19T08:38:04Z</time>
      </trkpt>
      <trkpt lat="45.79759" lon="2.97346">
        <ele>829</ele>
        <time>2019-02-19T08:38:08Z</time>
      </trkpt>
      <trkpt lat="45.79761" lon="2.97339">
        <ele>829</ele>
        <time>2019-02-19T08:38:13Z</time>
      </trkpt>
      <trkpt lat="45.79771" lon="2.97331">
        <ele>828</ele>
        <time>2019-02-19T08:38:23Z</time>
      </trkpt>
      <trkpt lat="45.79775" lon="2.97323">
        <ele>828</ele>
        <time>2019-02-19T08:38:28Z</time>
      </trkpt>
      <trkpt lat="45.79783" lon="2.97312">
        <ele>826</ele>
        <time>2019-02-19T08:38:35Z</time>
      </trkpt>
      <trkpt lat="45.79787" lon="2.97306">
        <ele>826</ele>
        <time>2019-02-19T08:38:39Z</time>
      </trkpt>
      <trkpt lat="45.79796" lon="2.97284">
        <ele>824</ele>
        <time>2019-02-19T08:38:53Z</time>
      </trkpt>
      <trkpt lat="45.79799" lon="2.97276">
        <ele>823</ele>
        <time>2019-02-19T08:38:58Z</time>
      </trkpt>
      <trkpt lat="45.79806" lon="2.9725">
        <ele>822</ele>
        <time>2019-02-19T08:39:12Z</time>
      </trkpt>
      <trkpt lat="45.79808" lon="2.97241">
        <ele>821</ele>
        <time>2019-02-19T08:39:17Z</time>
      </trkpt>
      <trkpt lat="45.79809" lon="2.97233">
        <ele>821</ele>
        <time>2019-02-19T08:39:21Z</time>
      </trkpt>
      <trkpt lat="45.79811" lon="2.97225">
        <ele>819</ele>
        <time>2019-02-19T08:39:26Z</time>
      </trkpt>
      <trkpt lat="45.79813" lon="2.97217">
        <ele>819</ele>
        <time>2019-02-19T08:39:31Z</time>
      </trkpt>
      <trkpt lat="45.79811" lon="2.97157">
        <ele>815</ele>
        <time>2019-02-19T08:40:17Z</time>
      </trkpt>
      <trkpt lat="45.79811" lon="2.97147">
        <ele>815</ele>
        <time>2019-02-19T08:40:23Z</time>
      </trkpt>
      <trkpt lat="45.79808" lon="2.97131">
        <ele>813</ele>
        <time>2019-02-19T08:40:32Z</time>
      </trkpt>
      <trkpt lat="45.79808" lon="2.97122">
        <ele>813</ele>
        <time>2019-02-19T08:40:38Z</time>
      </trkpt>
      <trkpt lat="45.79803" lon="2.97108">
        <ele>813</ele>
        <time>2019-02-19T08:40:58Z</time>
      </trkpt>
      <trkpt lat="45.79799" lon="2.97103">
        <ele>813</ele>
        <time>2019-02-19T08:41:02Z</time>
      </trkpt>
      <trkpt lat="45.79795" lon="2.97075">
        <ele>814</ele>
        <time>2019-02-19T08:41:18Z</time>
      </trkpt>
      <trkpt lat="45.79791" lon="2.97069">
        <ele>814</ele>
        <time>2019-02-19T08:41:23Z</time>
      </trkpt>
      <trkpt lat="45.79787" lon="2.97064">
        <ele>814</ele>
        <time>2019-02-19T08:41:27Z</time>
      </trkpt>
      <trkpt lat="45.79783" lon="2.97057">
        <ele>814</ele>
        <time>2019-02-19T08:41:32Z</time>
      </trkpt>
      <trkpt lat="45.79783" lon="2.97049">
        <ele>814</ele>
        <time>2019-02-19T08:41:43Z</time>
      </trkpt>
      <trkpt lat="45.79779" lon="2.97031">
        <ele>816</ele>
        <time>2019-02-19T08:42:01Z</time>
      </trkpt>
      <trkpt lat="45.79777" lon="2.97014">
        <ele>816</ele>
        <time>2019-02-19T08:42:12Z</time>
      </trkpt>
      <trkpt lat="45.79776" lon="2.97019">
        <ele>816</ele>
        <time>2019-02-19T08:42:47Z</time>
      </trkpt>
      <trkpt lat="45.79778" lon="2.97026">
        <ele>816</ele>
        <time>2019-02-19T08:42:51Z</time>
      </trkpt>
      <trkpt lat="45.7978" lon="2.97033">
        <ele>816</ele>
        <time>2019-02-19T08:42:56Z</time>
      </trkpt>
      <trkpt lat="45.79779" lon="2.97041">
        <ele>816</ele>
        <time>2019-02-19T08:43:01Z</time>
      </trkpt>
      <trkpt lat="45.79781" lon="2.97053">
        <ele>815</ele>
        <time>2019-02-19T08:43:08Z</time>
      </trkpt>
      <trkpt lat="45.79785" lon="2.97059">
        <ele>815</ele>
        <time>2019-02-19T08:43:12Z</time>
      </trkpt>
      <trkpt lat="45.79789" lon="2.97066">
        <ele>815</ele>
        <time>2019-02-19T08:43:16Z</time>
      </trkpt>
      <trkpt lat="45.79799" lon="2.97097">
        <ele>814</ele>
        <time>2019-02-19T08:43:36Z</time>
      </trkpt>
      <trkpt lat="45.79802" lon="2.97106">
        <ele>815</ele>
        <time>2019-02-19T08:43:41Z</time>
      </trkpt>
      <trkpt lat="45.7981" lon="2.97123">
        <ele>814</ele>
        <time>2019-02-19T08:43:54Z</time>
      </trkpt>
      <trkpt lat="45.79813" lon="2.97153">
        <ele>815</ele>
        <time>2019-02-19T08:44:22Z</time>
      </trkpt>
      <trkpt lat="45.79817" lon="2.97162">
        <ele>816</ele>
        <time>2019-02-19T08:44:30Z</time>
      </trkpt>
      <trkpt lat="45.79818" lon="2.9717">
        <ele>816</ele>
        <time>2019-02-19T08:44:36Z</time>
      </trkpt>
      <trkpt lat="45.79819" lon="2.97178">
        <ele>817</ele>
        <time>2019-02-19T08:44:41Z</time>
      </trkpt>
      <trkpt lat="45.79819" lon="2.97186">
        <ele>818</ele>
        <time>2019-02-19T08:44:49Z</time>
      </trkpt>
      <trkpt lat="45.79818" lon="2.97195">
        <ele>819</ele>
        <time>2019-02-19T08:44:55Z</time>
      </trkpt>
      <trkpt lat="45.79818" lon="2.97204">
        <ele>819</ele>
        <time>2019-02-19T08:45:00Z</time>
      </trkpt>
      <trkpt lat="45.79818" lon="2.97212">
        <ele>819</ele>
        <time>2019-02-19T08:45:06Z</time>
      </trkpt>
      <trkpt lat="45.79816" lon="2.97232">
        <ele>822</ele>
        <time>2019-02-19T08:45:20Z</time>
      </trkpt>
      <trkpt lat="45.79812" lon="2.97241">
        <ele>823</ele>
        <time>2019-02-19T08:45:29Z</time>
      </trkpt>
      <trkpt lat="45.79811" lon="2.97251">
        <ele>824</ele>
        <time>2019-02-19T08:45:38Z</time>
      </trkpt>
      <trkpt lat="45.79807" lon="2.97257">
        <ele>824</ele>
        <time>2019-02-19T08:45:43Z</time>
      </trkpt>
      <trkpt lat="45.79804" lon="2.97273">
        <ele>825</ele>
        <time>2019-02-19T08:45:54Z</time>
      </trkpt>
      <trkpt lat="45.79799" lon="2.97281">
        <ele>826</ele>
        <time>2019-02-19T08:46:01Z</time>
      </trkpt>
      <trkpt lat="45.79796" lon="2.97287">
        <ele>826</ele>
        <time>2019-02-19T08:46:06Z</time>
      </trkpt>
      <trkpt lat="45.79791" lon="2.97295">
        <ele>827</ele>
        <time>2019-02-19T08:46:13Z</time>
      </trkpt>
      <trkpt lat="45.79786" lon="2.97302">
        <ele>828</ele>
        <time>2019-02-19T08:46:22Z</time>
      </trkpt>
      <trkpt lat="45.79783" lon="2.97312">
        <ele>829</ele>
        <time>2019-02-19T08:46:30Z</time>
      </trkpt>
      <trkpt lat="45.79774" lon="2.97319">
        <ele>830</ele>
        <time>2019-02-19T08:46:41Z</time>
      </trkpt>
      <trkpt lat="45.79764" lon="2.97332">
        <ele>832</ele>
        <time>2019-02-19T08:46:55Z</time>
      </trkpt>
      <trkpt lat="45.79759" lon="2.97338">
        <ele>831</ele>
        <time>2019-02-19T08:46:59Z</time>
      </trkpt>
      <trkpt lat="45.79748" lon="2.97349">
        <ele>833</ele>
        <time>2019-02-19T08:47:11Z</time>
      </trkpt>
      <trkpt lat="45.79737" lon="2.97362">
        <ele>835</ele>
        <time>2019-02-19T08:47:25Z</time>
      </trkpt>
      <trkpt lat="45.79731" lon="2.97362">
        <ele>835</ele>
        <time>2019-02-19T08:47:29Z</time>
      </trkpt>
      <trkpt lat="45.79726" lon="2.97362">
        <ele>836</ele>
        <time>2019-02-19T08:47:35Z</time>
      </trkpt>
      <trkpt lat="45.79714" lon="2.97372">
        <ele>838</ele>
        <time>2019-02-19T08:47:48Z</time>
      </trkpt>
      <trkpt lat="45.79706" lon="2.97374">
        <ele>838</ele>
        <time>2019-02-19T08:47:58Z</time>
      </trkpt>
      <trkpt lat="45.79699" lon="2.97378">
        <ele>839</ele>
        <time>2019-02-19T08:48:06Z</time>
      </trkpt>
      <trkpt lat="45.79683" lon="2.97381">
        <ele>842</ele>
        <time>2019-02-19T08:48:24Z</time>
      </trkpt>
      <trkpt lat="45.79677" lon="2.97383">
        <ele>843</ele>
        <time>2019-02-19T08:48:30Z</time>
      </trkpt>
      <trkpt lat="45.79671" lon="2.97384">
        <ele>844</ele>
        <time>2019-02-19T08:48:35Z</time>
      </trkpt>
      <trkpt lat="45.79665" lon="2.97382">
        <ele>844</ele>
        <time>2019-02-19T08:48:40Z</time>
      </trkpt>
      <trkpt lat="45.79654" lon="2.97378">
        <ele>844</ele>
        <time>2019-02-19T08:48:49Z</time>
      </trkpt>
      <trkpt lat="45.79643" lon="2.97378">
        <ele>844</ele>
        <time>2019-02-19T08:48:57Z</time>
      </trkpt>
      <trkpt lat="45.79636" lon="2.9738">
        <ele>843</ele>
        <time>2019-02-19T08:49:06Z</time>
      </trkpt>
      <trkpt lat="45.79604" lon="2.97365">
        <ele>836</ele>
        <time>2019-02-19T08:49:39Z</time>
      </trkpt>
      <trkpt lat="45.79585" lon="2.97349">
        <ele>832</ele>
        <time>2019-02-19T08:50:00Z</time>
      </trkpt>
      <trkpt lat="45.79559" lon="2.97318">
        <ele>825</ele>
        <time>2019-02-19T08:50:33Z</time>
      </trkpt>
      <trkpt lat="45.79549" lon="2.97303">
        <ele>822</ele>
        <time>2019-02-19T08:50:47Z</time>
      </trkpt>
      <trkpt lat="45.79522" lon="2.97274">
        <ele>815</ele>
        <time>2019-02-19T08:51:18Z</time>
      </trkpt>
      <trkpt lat="45.79498" lon="2.97249">
        <ele>807</ele>
        <time>2019-02-19T08:51:51Z</time>
      </trkpt>
      <trkpt lat="45.79487" lon="2.97241">
        <ele>804</ele>
        <time>2019-02-19T08:52:02Z</time>
      </trkpt>
      <trkpt lat="45.79477" lon="2.97226">
        <ele>801</ele>
        <time>2019-02-19T08:52:20Z</time>
      </trkpt>
      <trkpt lat="45.79456" lon="2.97206">
        <ele>796</ele>
        <time>2019-02-19T08:52:41Z</time>
      </trkpt>
      <trkpt lat="45.79441" lon="2.97177">
        <ele>791</ele>
        <time>2019-02-19T08:53:03Z</time>
      </trkpt>
      <trkpt lat="45.79437" lon="2.9717">
        <ele>792</ele>
        <time>2019-02-19T08:53:07Z</time>
      </trkpt>
      <trkpt lat="45.79423" lon="2.97153">
        <ele>788</ele>
        <time>2019-02-19T08:53:22Z</time>
      </trkpt>
      <trkpt lat="45.79397" lon="2.9711">
        <ele>780</ele>
        <time>2019-02-19T08:54:00Z</time>
      </trkpt>
      <trkpt lat="45.79382" lon="2.97081">
        <ele>776</ele>
        <time>2019-02-19T08:54:33Z</time>
      </trkpt>
      <trkpt lat="45.79372" lon="2.97063">
        <ele>772</ele>
        <time>2019-02-19T08:54:49Z</time>
      </trkpt>
      <trkpt lat="45.79364" lon="2.97031">
        <ele>767</ele>
        <time>2019-02-19T08:55:10Z</time>
      </trkpt>
      <trkpt lat="45.79357" lon="2.97013">
        <ele>763</ele>
        <time>2019-02-19T08:55:28Z</time>
      </trkpt>
      <trkpt lat="45.79354" lon="2.97004">
        <ele>761</ele>
        <time>2019-02-19T08:55:36Z</time>
      </trkpt>
      <trkpt lat="45.7935" lon="2.96997">
        <ele>759</ele>
        <time>2019-02-19T08:55:44Z</time>
      </trkpt>
      <trkpt lat="45.79344" lon="2.96979">
        <ele>754</ele>
        <time>2019-02-19T08:56:00Z</time>
      </trkpt>
      <trkpt lat="45.79343" lon="2.96963">
        <ele>753</ele>
        <time>2019-02-19T08:56:09Z</time>
      </trkpt>
      <trkpt lat="45.79344" lon="2.96955">
        <ele>753</ele>
        <time>2019-02-19T08:56:15Z</time>
      </trkpt>
      <trkpt lat="45.79346" lon="2.96937">
        <ele>752</ele>
        <time>2019-02-19T08:56:29Z</time>
      </trkpt>
      <trkpt lat="45.79347" lon="2.96924">
        <ele>750</ele>
        <time>2019-02-19T08:56:38Z</time>
      </trkpt>
      <trkpt lat="45.7934" lon="2.96909">
        <ele>747</ele>
        <time>2019-02-19T08:56:51Z</time>
      </trkpt>
      <trkpt lat="45.79335" lon="2.96907">
        <ele>745</ele>
        <time>2019-02-19T08:56:56Z</time>
      </trkpt>
      <trkpt lat="45.7933" lon="2.96898">
        <ele>745</ele>
        <time>2019-02-19T08:57:03Z</time>
      </trkpt>
      <trkpt lat="45.79331" lon="2.96867">
        <ele>747</ele>
        <time>2019-02-19T08:59:16Z</time>
      </trkpt>
      <trkpt lat="45.79332" lon="2.96861">
        <ele>747</ele>
        <time>2019-02-19T08:59:20Z</time>
      </trkpt>
      <trkpt lat="45.79332" lon="2.96853">
        <ele>746</ele>
        <time>2019-02-19T08:59:25Z</time>
      </trkpt>
      <trkpt lat="45.79332" lon="2.96839">
        <ele>747</ele>
        <time>2019-02-19T08:59:32Z</time>
      </trkpt>
      <trkpt lat="45.79337" lon="2.96832">
        <ele>746</ele>
        <time>2019-02-19T08:59:37Z</time>
      </trkpt>
      <trkpt lat="45.79341" lon="2.96818">
        <ele>745</ele>
        <time>2019-02-19T08:59:46Z</time>
      </trkpt>
      <trkpt lat="45.79342" lon="2.96809">
        <ele>746</ele>
        <time>2019-02-19T08:59:51Z</time>
      </trkpt>
      <trkpt lat="45.79344" lon="2.96801">
        <ele>746</ele>
        <time>2019-02-19T08:59:55Z</time>
      </trkpt>
      <trkpt lat="45.79348" lon="2.9679">
        <ele>744</ele>
        <time>2019-02-19T09:00:00Z</time>
      </trkpt>
      <trkpt lat="45.7935" lon="2.96782">
        <ele>743</ele>
        <time>2019-02-19T09:00:05Z</time>
      </trkpt>
      <trkpt lat="45.79353" lon="2.96773">
        <ele>743</ele>
        <time>2019-02-19T09:00:10Z</time>
      </trkpt>
      <trkpt lat="45.79357" lon="2.96769">
        <ele>743</ele>
        <time>2019-02-19T09:00:14Z</time>
      </trkpt>
      <trkpt lat="45.7936" lon="2.96762">
        <ele>742</ele>
        <time>2019-02-19T09:00:17Z</time>
      </trkpt>
      <trkpt lat="45.79362" lon="2.96754">
        <ele>742</ele>
        <time>2019-02-19T09:00:21Z</time>
      </trkpt>
      <trkpt lat="45.79364" lon="2.96745">
        <ele>741</ele>
        <time>2019-02-19T09:00:27Z</time>
      </trkpt>
      <trkpt lat="45.79369" lon="2.9674">
        <ele>739</ele>
        <time>2019-02-19T09:00:32Z</time>
      </trkpt>
      <trkpt lat="45.79372" lon="2.96734">
        <ele>739</ele>
        <time>2019-02-19T09:00:36Z</time>
      </trkpt>
      <trkpt lat="45.79381" lon="2.96709">
        <ele>737</ele>
        <time>2019-02-19T09:00:47Z</time>
      </trkpt>
      <trkpt lat="45.79396" lon="2.96675">
        <ele>733</ele>
        <time>2019-02-19T09:01:06Z</time>
      </trkpt>
      <trkpt lat="45.79385" lon="2.9664">
        <ele>729</ele>
        <time>2019-02-19T09:01:33Z</time>
      </trkpt>
      <trkpt lat="45.79378" lon="2.96622">
        <ele>729</ele>
        <time>2019-02-19T09:01:46Z</time>
      </trkpt>
      <trkpt lat="45.79377" lon="2.96599">
        <ele>732</ele>
        <time>2019-02-19T09:02:00Z</time>
      </trkpt>
      <trkpt lat="45.79367" lon="2.96573">
        <ele>731</ele>
        <time>2019-02-19T09:02:21Z</time>
      </trkpt>
      <trkpt lat="45.79347" lon="2.9653">
        <ele>736</ele>
        <time>2019-02-19T09:03:01Z</time>
      </trkpt>
      <trkpt lat="45.79342" lon="2.9651">
        <ele>737</ele>
        <time>2019-02-19T09:03:15Z</time>
      </trkpt>
      <trkpt lat="45.79346" lon="2.9649">
        <ele>739</ele>
        <time>2019-02-19T09:03:31Z</time>
      </trkpt>
      <trkpt lat="45.79341" lon="2.96469">
        <ele>742</ele>
        <time>2019-02-19T09:04:00Z</time>
      </trkpt>
      <trkpt lat="45.79324" lon="2.96449">
        <ele>746</ele>
        <time>2019-02-19T09:04:27Z</time>
      </trkpt>
      <trkpt lat="45.79315" lon="2.96425">
        <ele>749</ele>
        <time>2019-02-19T09:04:59Z</time>
      </trkpt>
      <trkpt lat="45.79311" lon="2.96403">
        <ele>753</ele>
        <time>2019-02-19T09:05:29Z</time>
      </trkpt>
      <trkpt lat="45.79305" lon="2.96382">
        <ele>755</ele>
        <time>2019-02-19T09:05:42Z</time>
      </trkpt>
      <trkpt lat="45.79295" lon="2.96367">
        <ele>757</ele>
        <time>2019-02-19T09:05:57Z</time>
      </trkpt>
      <trkpt lat="45.79293" lon="2.96338">
        <ele>757</ele>
        <time>2019-02-19T09:06:22Z</time>
      </trkpt>
      <trkpt lat="45.79268" lon="2.96299">
        <ele>761</ele>
        <time>2019-02-19T09:07:00Z</time>
      </trkpt>
      <trkpt lat="45.79259" lon="2.96283">
        <ele>762</ele>
        <time>2019-02-19T09:07:14Z</time>
      </trkpt>
      <trkpt lat="45.79236" lon="2.96245">
        <ele>765</ele>
        <time>2019-02-19T09:07:49Z</time>
      </trkpt>
      <trkpt lat="45.79224" lon="2.962">
        <ele>769</ele>
        <time>2019-02-19T09:08:26Z</time>
      </trkpt>
      <trkpt lat="45.79217" lon="2.96149">
        <ele>771</ele>
        <time>2019-02-19T09:09:14Z</time>
      </trkpt>
      <trkpt lat="45.79203" lon="2.96098">
        <ele>774</ele>
        <time>2019-02-19T09:09:59Z</time>
      </trkpt>
      <trkpt lat="45.79203" lon="2.96076">
        <ele>774</ele>
        <time>2019-02-19T09:10:14Z</time>
      </trkpt>
      <trkpt lat="45.79205" lon="2.96055">
        <ele>776</ele>
        <time>2019-02-19T09:10:29Z</time>
      </trkpt>
      <trkpt lat="45.79203" lon="2.96031">
        <ele>777</ele>
        <time>2019-02-19T09:10:45Z</time>
      </trkpt>
      <trkpt lat="45.79207" lon="2.95997">
        <ele>779</ele>
        <time>2019-02-19T09:11:14Z</time>
      </trkpt>
      <trkpt lat="45.79219" lon="2.9598">
        <ele>783</ele>
        <time>2019-02-19T09:11:53Z</time>
      </trkpt>
      <trkpt lat="45.79234" lon="2.95975">
        <ele>788</ele>
        <time>2019-02-19T09:12:23Z</time>
      </trkpt>
      <trkpt lat="45.79253" lon="2.95964">
        <ele>793</ele>
        <time>2019-02-19T09:12:59Z</time>
      </trkpt>
      <trkpt lat="45.79283" lon="2.95943">
        <ele>800</ele>
        <time>2019-02-19T09:13:53Z</time>
      </trkpt>
      <trkpt lat="45.79297" lon="2.95931">
        <ele>805</ele>
        <time>2019-02-19T09:14:39Z</time>
      </trkpt>
      <trkpt lat="45.79319" lon="2.95901">
        <ele>812</ele>
        <time>2019-02-19T09:15:24Z</time>
      </trkpt>
      <trkpt lat="45.79334" lon="2.95881">
        <ele>816</ele>
        <time>2019-02-19T09:15:49Z</time>
      </trkpt>
      <trkpt lat="45.79338" lon="2.95875">
        <ele>816</ele>
        <time>2019-02-19T09:15:54Z</time>
      </trkpt>
      <trkpt lat="45.79342" lon="2.9587">
        <ele>817</ele>
        <time>2019-02-19T09:16:00Z</time>
      </trkpt>
      <trkpt lat="45.7935" lon="2.95866">
        <ele>818</ele>
        <time>2019-02-19T09:16:09Z</time>
      </trkpt>
      <trkpt lat="45.79354" lon="2.95859">
        <ele>819</ele>
        <time>2019-02-19T09:16:14Z</time>
      </trkpt>
      <trkpt lat="45.79361" lon="2.9585">
        <ele>819</ele>
        <time>2019-02-19T09:16:21Z</time>
      </trkpt>
      <trkpt lat="45.79384" lon="2.95831">
        <ele>825</ele>
        <time>2019-02-19T09:16:59Z</time>
      </trkpt>
      <trkpt lat="45.79398" lon="2.95826">
        <ele>831</ele>
        <time>2019-02-19T09:17:51Z</time>
      </trkpt>
      <trkpt lat="45.79385" lon="2.95854">
        <ele>833</ele>
        <time>2019-02-19T09:18:23Z</time>
      </trkpt>
      <trkpt lat="45.79392" lon="2.95873">
        <ele>839</ele>
        <time>2019-02-19T09:19:19Z</time>
      </trkpt>
      <trkpt lat="45.79396" lon="2.95915">
        <ele>850</ele>
        <time>2019-02-19T09:21:06Z</time>
      </trkpt>
      <trkpt lat="45.79397" lon="2.95939">
        <ele>855</ele>
        <time>2019-02-19T09:21:36Z</time>
      </trkpt>
      <trkpt lat="45.79401" lon="2.95963">
        <ele>861</ele>
        <time>2019-02-19T09:22:18Z</time>
      </trkpt>
      <trkpt lat="45.79393" lon="2.9599">
        <ele>864</ele>
        <time>2019-02-19T09:22:39Z</time>
      </trkpt>
      <trkpt lat="45.79401" lon="2.9601">
        <ele>865</ele>
        <time>2019-02-19T09:22:55Z</time>
      </trkpt>
      <trkpt lat="45.79413" lon="2.96027">
        <ele>867</ele>
        <time>2019-02-19T09:23:13Z</time>
      </trkpt>
      <trkpt lat="45.79429" lon="2.96014">
        <ele>871</ele>
        <time>2019-02-19T09:23:36Z</time>
      </trkpt>
      <trkpt lat="45.79438" lon="2.96009">
        <ele>873</ele>
        <time>2019-02-19T09:24:06Z</time>
      </trkpt>
      <trkpt lat="45.79441" lon="2.95999">
        <ele>874</ele>
        <time>2019-02-19T09:25:03Z</time>
      </trkpt>
      <trkpt lat="45.79433" lon="2.95977">
        <ele>876</ele>
        <time>2019-02-19T09:27:16Z</time>
      </trkpt>
      <trkpt lat="45.79432" lon="2.9597">
        <ele>876</ele>
        <time>2019-02-19T09:27:21Z</time>
      </trkpt>
      <trkpt lat="45.79433" lon="2.95961">
        <ele>876</ele>
        <time>2019-02-19T09:27:27Z</time>
      </trkpt>
      <trkpt lat="45.79434" lon="2.95953">
        <ele>876</ele>
        <time>2019-02-19T09:27:33Z</time>
      </trkpt>
      <trkpt lat="45.79438" lon="2.95946">
        <ele>876</ele>
        <time>2019-02-19T09:27:54Z</time>
      </trkpt>
      <trkpt lat="45.79441" lon="2.95939">
        <ele>876</ele>
        <time>2019-02-19T09:28:19Z</time>
      </trkpt>
      <trkpt lat="45.79425" lon="2.959">
        <ele>871</ele>
        <time>2019-02-19T09:28:46Z</time>
      </trkpt>
      <trkpt lat="45.79424" lon="2.95884">
        <ele>866</ele>
        <time>2019-02-19T09:29:05Z</time>
      </trkpt>
      <trkpt lat="45.79436" lon="2.95874">
        <ele>863</ele>
        <time>2019-02-19T09:29:34Z</time>
      </trkpt>
      <trkpt lat="45.79428" lon="2.9587">
        <ele>861</ele>
        <time>2019-02-19T09:29:41Z</time>
      </trkpt>
      <trkpt lat="45.79422" lon="2.95873">
        <ele>859</ele>
        <time>2019-02-19T09:29:49Z</time>
      </trkpt>
      <trkpt lat="45.79414" lon="2.95875">
        <ele>859</ele>
        <time>2019-02-19T09:30:08Z</time>
      </trkpt>
      <trkpt lat="45.79405" lon="2.95873">
        <ele>857</ele>
        <time>2019-02-19T09:30:19Z</time>
      </trkpt>
      <trkpt lat="45.79398" lon="2.95879">
        <ele>855</ele>
        <time>2019-02-19T09:30:27Z</time>
      </trkpt>
      <trkpt lat="45.79382" lon="2.95841">
        <ele>840</ele>
        <time>2019-02-19T09:31:13Z</time>
      </trkpt>
      <trkpt lat="45.79372" lon="2.95841">
        <ele>831</ele>
        <time>2019-02-19T09:32:03Z</time>
      </trkpt>
      <trkpt lat="45.79359" lon="2.95852">
        <ele>828</ele>
        <time>2019-02-19T09:32:17Z</time>
      </trkpt>
      <trkpt lat="45.79349" lon="2.95869">
        <ele>827</ele>
        <time>2019-02-19T09:32:40Z</time>
      </trkpt>
      <trkpt lat="45.79342" lon="2.95889">
        <ele>824</ele>
        <time>2019-02-19T09:32:52Z</time>
      </trkpt>
      <trkpt lat="45.79319" lon="2.95924">
        <ele>816</ele>
        <time>2019-02-19T09:33:44Z</time>
      </trkpt>
      <trkpt lat="45.79314" lon="2.95931">
        <ele>811</ele>
        <time>2019-02-19T09:33:49Z</time>
      </trkpt>
      <trkpt lat="45.79306" lon="2.95937">
        <ele>811</ele>
        <time>2019-02-19T09:33:58Z</time>
      </trkpt>
      <trkpt lat="45.79276" lon="2.95974">
        <ele>799</ele>
        <time>2019-02-19T09:34:33Z</time>
      </trkpt>
      <trkpt lat="45.7925" lon="2.95994">
        <ele>793</ele>
        <time>2019-02-19T09:35:00Z</time>
      </trkpt>
      <trkpt lat="45.79237" lon="2.96002">
        <ele>793</ele>
        <time>2019-02-19T09:35:12Z</time>
      </trkpt>
      <trkpt lat="45.79224" lon="2.96012">
        <ele>795</ele>
        <time>2019-02-19T09:35:25Z</time>
      </trkpt>
      <trkpt lat="45.79196" lon="2.96007">
        <ele>800</ele>
        <time>2019-02-19T09:36:04Z</time>
      </trkpt>
      <trkpt lat="45.79185" lon="2.95986">
        <ele>814</ele>
        <time>2019-02-19T09:37:41Z</time>
      </trkpt>
      <trkpt lat="45.7915" lon="2.95964">
        <ele>823</ele>
        <time>2019-02-19T09:38:36Z</time>
      </trkpt>
      <trkpt lat="45.79117" lon="2.95957">
        <ele>836</ele>
        <time>2019-02-19T09:40:09Z</time>
      </trkpt>
      <trkpt lat="45.79091" lon="2.95941">
        <ele>845</ele>
        <time>2019-02-19T09:41:24Z</time>
      </trkpt>
      <trkpt lat="45.79048" lon="2.95917">
        <ele>851</ele>
        <time>2019-02-19T09:42:26Z</time>
      </trkpt>
      <trkpt lat="45.79034" lon="2.9591">
        <ele>852</ele>
        <time>2019-02-19T09:42:38Z</time>
      </trkpt>
      <trkpt lat="45.79015" lon="2.95904">
        <ele>854</ele>
        <time>2019-02-19T09:42:56Z</time>
      </trkpt>
      <trkpt lat="45.79" lon="2.95914">
        <ele>855</ele>
        <time>2019-02-19T09:43:25Z</time>
      </trkpt>
      <trkpt lat="45.78997" lon="2.95944">
        <ele>860</ele>
        <time>2019-02-19T09:44:15Z</time>
      </trkpt>
      <trkpt lat="45.7899" lon="2.9599">
        <ele>871</ele>
        <time>2019-02-19T09:45:16Z</time>
      </trkpt>
      <trkpt lat="45.78986" lon="2.95999">
        <ele>873</ele>
        <time>2019-02-19T09:45:33Z</time>
      </trkpt>
      <trkpt lat="45.78983" lon="2.96006">
        <ele>874</ele>
        <time>2019-02-19T09:45:43Z</time>
      </trkpt>
      <trkpt lat="45.78981" lon="2.96019">
        <ele>878</ele>
        <time>2019-02-19T09:45:59Z</time>
      </trkpt>
      <trkpt lat="45.78976" lon="2.9603">
        <ele>879</ele>
        <time>2019-02-19T09:46:10Z</time>
      </trkpt>
      <trkpt lat="45.78973" lon="2.96053">
        <ele>882</ele>
        <time>2019-02-19T09:46:33Z</time>
      </trkpt>
      <trkpt lat="45.78971" lon="2.9606">
        <ele>883</ele>
        <time>2019-02-19T09:46:39Z</time>
      </trkpt>
      <trkpt lat="45.78966" lon="2.96069">
        <ele>884</ele>
        <time>2019-02-19T09:46:48Z</time>
      </trkpt>
      <trkpt lat="45.78965" lon="2.96086">
        <ele>885</ele>
        <time>2019-02-19T09:47:00Z</time>
      </trkpt>
      <trkpt lat="45.78963" lon="2.96094">
        <ele>885</ele>
        <time>2019-02-19T09:47:09Z</time>
      </trkpt>
      <trkpt lat="45.78963" lon="2.96103">
        <ele>885</ele>
        <time>2019-02-19T09:47:14Z</time>
      </trkpt>
      <trkpt lat="45.78963" lon="2.96115">
        <ele>885</ele>
        <time>2019-02-19T09:47:23Z</time>
      </trkpt>
      <trkpt lat="45.7897" lon="2.9613">
        <ele>886</ele>
        <time>2019-02-19T09:47:33Z</time>
      </trkpt>
      <trkpt lat="45.78975" lon="2.96136">
        <ele>886</ele>
        <time>2019-02-19T09:47:40Z</time>
      </trkpt>
      <trkpt lat="45.78983" lon="2.96133">
        <ele>887</ele>
        <time>2019-02-19T09:47:49Z</time>
      </trkpt>
      <trkpt lat="45.78989" lon="2.96134">
        <ele>887</ele>
        <time>2019-02-19T09:47:57Z</time>
      </trkpt>
      <trkpt lat="45.78994" lon="2.96132">
        <ele>887</ele>
        <time>2019-02-19T09:49:03Z</time>
      </trkpt>
      <trkpt lat="45.78991" lon="2.96119">
        <ele>888</ele>
        <time>2019-02-19T09:49:40Z</time>
      </trkpt>
      <trkpt lat="45.78987" lon="2.96103">
        <ele>888</ele>
        <time>2019-02-19T09:49:49Z</time>
      </trkpt>
      <trkpt lat="45.78982" lon="2.96085">
        <ele>887</ele>
        <time>2019-02-19T09:49:57Z</time>
      </trkpt>
      <trkpt lat="45.78981" lon="2.96076">
        <ele>887</ele>
        <time>2019-02-19T09:50:02Z</time>
      </trkpt>
      <trkpt lat="45.7898" lon="2.96067">
        <ele>886</ele>
        <time>2019-02-19T09:50:06Z</time>
      </trkpt>
      <trkpt lat="45.7898" lon="2.9605">
        <ele>883</ele>
        <time>2019-02-19T09:50:15Z</time>
      </trkpt>
      <trkpt lat="45.78976" lon="2.96044">
        <ele>884</ele>
        <time>2019-02-19T09:50:19Z</time>
      </trkpt>
      <trkpt lat="45.78973" lon="2.96037">
        <ele>884</ele>
        <time>2019-02-19T09:50:24Z</time>
      </trkpt>
      <trkpt lat="45.78973" lon="2.96028">
        <ele>883</ele>
        <time>2019-02-19T09:50:29Z</time>
      </trkpt>
      <trkpt lat="45.78977" lon="2.96007">
        <ele>879</ele>
        <time>2019-02-19T09:50:42Z</time>
      </trkpt>
      <trkpt lat="45.78979" lon="2.9599">
        <ele>876</ele>
        <time>2019-02-19T09:50:53Z</time>
      </trkpt>
      <trkpt lat="45.78983" lon="2.9598">
        <ele>874</ele>
        <time>2019-02-19T09:51:14Z</time>
      </trkpt>
      <trkpt lat="45.78987" lon="2.95974">
        <ele>873</ele>
        <time>2019-02-19T09:51:20Z</time>
      </trkpt>
      <trkpt lat="45.78991" lon="2.95963">
        <ele>870</ele>
        <time>2019-02-19T09:51:26Z</time>
      </trkpt>
      <trkpt lat="45.78992" lon="2.9595">
        <ele>867</ele>
        <time>2019-02-19T09:51:35Z</time>
      </trkpt>
      <trkpt lat="45.78994" lon="2.95942">
        <ele>866</ele>
        <time>2019-02-19T09:51:39Z</time>
      </trkpt>
      <trkpt lat="45.78995" lon="2.95933">
        <ele>864</ele>
        <time>2019-02-19T09:51:43Z</time>
      </trkpt>
      <trkpt lat="45.79" lon="2.95915">
        <ele>861</ele>
        <time>2019-02-19T09:51:51Z</time>
      </trkpt>
      <trkpt lat="45.79002" lon="2.95908">
        <ele>861</ele>
        <time>2019-02-19T09:51:55Z</time>
      </trkpt>
      <trkpt lat="45.79003" lon="2.95899">
        <ele>859</ele>
        <time>2019-02-19T09:51:59Z</time>
      </trkpt>
      <trkpt lat="45.79013" lon="2.95868">
        <ele>861</ele>
        <time>2019-02-19T09:52:24Z</time>
      </trkpt>
      <trkpt lat="45.79014" lon="2.95823">
        <ele>869</ele>
        <time>2019-02-19T09:53:24Z</time>
      </trkpt>
      <trkpt lat="45.79018" lon="2.95803">
        <ele>873</ele>
        <time>2019-02-19T09:54:00Z</time>
      </trkpt>
      <trkpt lat="45.79024" lon="2.95762">
        <ele>881</ele>
        <time>2019-02-19T09:55:01Z</time>
      </trkpt>
      <trkpt lat="45.79026" lon="2.95737">
        <ele>886</ele>
        <time>2019-02-19T09:55:37Z</time>
      </trkpt>
      <trkpt lat="45.79032" lon="2.95689">
        <ele>894</ele>
        <time>2019-02-19T09:56:26Z</time>
      </trkpt>
      <trkpt lat="45.79029" lon="2.95643">
        <ele>903</ele>
        <time>2019-02-19T09:57:20Z</time>
      </trkpt>
      <trkpt lat="45.79031" lon="2.95622">
        <ele>907</ele>
        <time>2019-02-19T09:57:49Z</time>
      </trkpt>
      <trkpt lat="45.79034" lon="2.95595">
        <ele>913</ele>
        <time>2019-02-19T09:58:25Z</time>
      </trkpt>
      <trkpt lat="45.79037" lon="2.95565">
        <ele>918</ele>
        <time>2019-02-19T09:59:01Z</time>
      </trkpt>
      <trkpt lat="45.79037" lon="2.95555">
        <ele>921</ele>
        <time>2019-02-19T09:59:13Z</time>
      </trkpt>
      <trkpt lat="45.79039" lon="2.95543">
        <ele>923</ele>
        <time>2019-02-19T09:59:28Z</time>
      </trkpt>
      <trkpt lat="45.79042" lon="2.95538">
        <ele>924</ele>
        <time>2019-02-19T09:59:37Z</time>
      </trkpt>
      <trkpt lat="45.79046" lon="2.95522">
        <ele>928</ele>
        <time>2019-02-19T09:59:50Z</time>
      </trkpt>
      <trkpt lat="45.79049" lon="2.95511">
        <ele>928</ele>
        <time>2019-02-19T10:00:03Z</time>
      </trkpt>
      <trkpt lat="45.79053" lon="2.95503">
        <ele>929</ele>
        <time>2019-02-19T10:00:29Z</time>
      </trkpt>
      <trkpt lat="45.7906" lon="2.9549">
        <ele>928</ele>
        <time>2019-02-19T10:00:42Z</time>
      </trkpt>
      <trkpt lat="45.79068" lon="2.95479">
        <ele>926</ele>
        <time>2019-02-19T10:02:08Z</time>
      </trkpt>
      <trkpt lat="45.79074" lon="2.95467">
        <ele>925</ele>
        <time>2019-02-19T10:02:42Z</time>
      </trkpt>
      <trkpt lat="45.79089" lon="2.95429">
        <ele>920</ele>
        <time>2019-02-19T10:03:12Z</time>
      </trkpt>
      <trkpt lat="45.79092" lon="2.95421">
        <ele>920</ele>
        <time>2019-02-19T10:03:16Z</time>
      </trkpt>
      <trkpt lat="45.79102" lon="2.95383">
        <ele>914</ele>
        <time>2019-02-19T10:03:38Z</time>
      </trkpt>
      <trkpt lat="45.7911" lon="2.95372">
        <ele>910</ele>
        <time>2019-02-19T10:03:48Z</time>
      </trkpt>
      <trkpt lat="45.79112" lon="2.95361">
        <ele>908</ele>
        <time>2019-02-19T10:03:57Z</time>
      </trkpt>
      <trkpt lat="45.79118" lon="2.95349">
        <ele>905</ele>
        <time>2019-02-19T10:04:17Z</time>
      </trkpt>
      <trkpt lat="45.79121" lon="2.95331">
        <ele>902</ele>
        <time>2019-02-19T10:04:28Z</time>
      </trkpt>
      <trkpt lat="45.79123" lon="2.95323">
        <ele>901</ele>
        <time>2019-02-19T10:04:33Z</time>
      </trkpt>
      <trkpt lat="45.79122" lon="2.95314">
        <ele>899</ele>
        <time>2019-02-19T10:04:38Z</time>
      </trkpt>
      <trkpt lat="45.79126" lon="2.95309">
        <ele>896</ele>
        <time>2019-02-19T10:04:47Z</time>
      </trkpt>
      <trkpt lat="45.79138" lon="2.95283">
        <ele>888</ele>
        <time>2019-02-19T10:05:16Z</time>
      </trkpt>
      <trkpt lat="45.79139" lon="2.95275">
        <ele>886</ele>
        <time>2019-02-19T10:05:21Z</time>
      </trkpt>
      <trkpt lat="45.79142" lon="2.95267">
        <ele>882</ele>
        <time>2019-02-19T10:05:35Z</time>
      </trkpt>
      <trkpt lat="45.79144" lon="2.95259">
        <ele>880</ele>
        <time>2019-02-19T10:06:05Z</time>
      </trkpt>
      <trkpt lat="45.79148" lon="2.9525">
        <ele>876</ele>
        <time>2019-02-19T10:06:35Z</time>
      </trkpt>
      <trkpt lat="45.79152" lon="2.95226">
        <ele>866</ele>
        <time>2019-02-19T10:07:08Z</time>
      </trkpt>
      <trkpt lat="45.79164" lon="2.95213">
        <ele>858</ele>
        <time>2019-02-19T10:08:04Z</time>
      </trkpt>
      <trkpt lat="45.79179" lon="2.95197">
        <ele>854</ele>
        <time>2019-02-19T10:08:32Z</time>
      </trkpt>
      <trkpt lat="45.79194" lon="2.95169">
        <ele>842</ele>
        <time>2019-02-19T10:09:05Z</time>
      </trkpt>
      <trkpt lat="45.79221" lon="2.95132">
        <ele>827</ele>
        <time>2019-02-19T10:09:58Z</time>
      </trkpt>
      <trkpt lat="45.79228" lon="2.95115">
        <ele>822</ele>
        <time>2019-02-19T10:10:12Z</time>
      </trkpt>
      <trkpt lat="45.79235" lon="2.95087">
        <ele>816</ele>
        <time>2019-02-19T10:10:36Z</time>
      </trkpt>
      <trkpt lat="45.79241" lon="2.9507">
        <ele>810</ele>
        <time>2019-02-19T10:11:09Z</time>
      </trkpt>
      <trkpt lat="45.79247" lon="2.95029">
        <ele>801</ele>
        <time>2019-02-19T10:11:43Z</time>
      </trkpt>
      <trkpt lat="45.79255" lon="2.95012">
        <ele>795</ele>
        <time>2019-02-19T10:12:03Z</time>
      </trkpt>
      <trkpt lat="45.79263" lon="2.9499">
        <ele>791</ele>
        <time>2019-02-19T10:13:27Z</time>
      </trkpt>
      <trkpt lat="45.79273" lon="2.94954">
        <ele>781</ele>
        <time>2019-02-19T10:13:58Z</time>
      </trkpt>
      <trkpt lat="45.79282" lon="2.94939">
        <ele>775</ele>
        <time>2019-02-19T10:14:13Z</time>
      </trkpt>
      <trkpt lat="45.79292" lon="2.94885">
        <ele>762</ele>
        <time>2019-02-19T10:15:06Z</time>
      </trkpt>
      <trkpt lat="45.79297" lon="2.94835">
        <ele>750</ele>
        <time>2019-02-19T10:15:45Z</time>
      </trkpt>
      <trkpt lat="45.79295" lon="2.94812">
        <ele>747</ele>
        <time>2019-02-19T10:16:10Z</time>
      </trkpt>
      <trkpt lat="45.79312" lon="2.94786">
        <ele>739</ele>
        <time>2019-02-19T10:16:55Z</time>
      </trkpt>
      <trkpt lat="45.79323" lon="2.94749">
        <ele>733</ele>
        <time>2019-02-19T10:17:28Z</time>
      </trkpt>
      <trkpt lat="45.79326" lon="2.94728">
        <ele>730</ele>
        <time>2019-02-19T10:17:40Z</time>
      </trkpt>
      <trkpt lat="45.79332" lon="2.94702">
        <ele>729</ele>
        <time>2019-02-19T10:18:12Z</time>
      </trkpt>
      <trkpt lat="45.79309" lon="2.94664">
        <ele>729</ele>
        <time>2019-02-19T10:18:43Z</time>
      </trkpt>
      <trkpt lat="45.79284" lon="2.94609">
        <ele>731</ele>
        <time>2019-02-19T10:19:20Z</time>
      </trkpt>
      <trkpt lat="45.79275" lon="2.94592">
        <ele>731</ele>
        <time>2019-02-19T10:19:35Z</time>
      </trkpt>
      <trkpt lat="45.79265" lon="2.9457">
        <ele>733</ele>
        <time>2019-02-19T10:22:46Z</time>
      </trkpt>
      <trkpt lat="45.79256" lon="2.94552">
        <ele>733</ele>
        <time>2019-02-19T10:22:58Z</time>
      </trkpt>
      <trkpt lat="45.79264" lon="2.94561">
        <ele>734</ele>
        <time>2019-02-19T10:24:18Z</time>
      </trkpt>
      <trkpt lat="45.79269" lon="2.94585">
        <ele>734</ele>
        <time>2019-02-19T10:24:32Z</time>
      </trkpt>
      <trkpt lat="45.79297" lon="2.94624">
        <ele>734</ele>
        <time>2019-02-19T10:25:14Z</time>
      </trkpt>
      <trkpt lat="45.79301" lon="2.94601">
        <ele>739</ele>
        <time>2019-02-19T10:26:20Z</time>
      </trkpt>
      <trkpt lat="45.79319" lon="2.94566">
        <ele>752</ele>
        <time>2019-02-19T10:27:57Z</time>
      </trkpt>
      <trkpt lat="45.79343" lon="2.94538">
        <ele>768</ele>
        <time>2019-02-19T10:29:42Z</time>
      </trkpt>
      <trkpt lat="45.79365" lon="2.94511">
        <ele>787</ele>
        <time>2019-02-19T10:31:42Z</time>
      </trkpt>
      <trkpt lat="45.79391" lon="2.94487">
        <ele>804</ele>
        <time>2019-02-19T10:33:42Z</time>
      </trkpt>
      <trkpt lat="45.79401" lon="2.94442">
        <ele>825</ele>
        <time>2019-02-19T10:36:15Z</time>
      </trkpt>
    </trkseg>
  </trk>
  <trk>
    <name><![CDATA[19 févr. 2019 à 08:30:42]]></name>
    <cmt><![CDATA[19 févr. 2019 à 08:30:42]]></cmt>
    <trkseg>
      <trkpt lat="45.7884" lon="2.99673">
        <ele>519</ele>
        <time>2019-02-19T07:30:42Z</time>
      </trkpt>
      <trkpt lat="45.7884" lon="2.99673">
        <ele>519</ele>
        <time>2019-02-19T07:30:43Z</time>
      </trkpt>
      <trkpt lat="45.78844" lon="2.99696">
        <ele>519</ele>
        <time>2019-02-19T07:30:55Z</time>
      </trkpt>
    </trkseg>
  </trk>
  <trk>
    <name><![CDATA[18 févr. 2019 à 13:06:13]]></name>
    <cmt><![CDATA[18 févr. 2019 à 13:06:13]]></cmt>
    <trkseg>
      <trkpt lat="45.54361" lon="2.81758">
        <ele>1300</ele>
        <time>2019-02-18T12:06:16Z</time>
      </trkpt>
      <trkpt lat="45.5434" lon="2.81786">
        <ele>1318</ele>
        <time>2019-02-18T12:06:32Z</time>
      </trkpt>
      <trkpt lat="45.5433" lon="2.81794">
        <ele>1302</ele>
        <time>2019-02-18T12:07:44Z</time>
      </trkpt>
      <trkpt lat="45.54309" lon="2.81799">
        <ele>1303</ele>
        <time>2019-02-18T12:08:02Z</time>
      </trkpt>
      <trkpt lat="45.54279" lon="2.81793">
        <ele>1306</ele>
        <time>2019-02-18T12:08:30Z</time>
      </trkpt>
      <trkpt lat="45.54262" lon="2.81784">
        <ele>1307</ele>
        <time>2019-02-18T12:08:52Z</time>
      </trkpt>
      <trkpt lat="45.54224" lon="2.81793">
        <ele>1312</ele>
        <time>2019-02-18T12:09:40Z</time>
      </trkpt>
      <trkpt lat="45.54198" lon="2.81805">
        <ele>1314</ele>
        <time>2019-02-18T12:10:12Z</time>
      </trkpt>
      <trkpt lat="45.54184" lon="2.8181">
        <ele>1315</ele>
        <time>2019-02-18T12:10:25Z</time>
      </trkpt>
      <trkpt lat="45.54172" lon="2.8182">
        <ele>1316</ele>
        <time>2019-02-18T12:10:38Z</time>
      </trkpt>
      <trkpt lat="45.54156" lon="2.81821">
        <ele>1316</ele>
        <time>2019-02-18T12:10:51Z</time>
      </trkpt>
      <trkpt lat="45.54143" lon="2.81813">
        <ele>1316</ele>
        <time>2019-02-18T12:11:01Z</time>
      </trkpt>
      <trkpt lat="45.54133" lon="2.81797">
        <ele>1316</ele>
        <time>2019-02-18T12:11:11Z</time>
      </trkpt>
      <trkpt lat="45.54129" lon="2.81775">
        <ele>1316</ele>
        <time>2019-02-18T12:11:23Z</time>
      </trkpt>
      <trkpt lat="45.54118" lon="2.81761">
        <ele>1317</ele>
        <time>2019-02-18T12:11:35Z</time>
      </trkpt>
      <trkpt lat="45.54073" lon="2.81769">
        <ele>1323</ele>
        <time>2019-02-18T12:12:26Z</time>
      </trkpt>
      <trkpt lat="45.54059" lon="2.81779">
        <ele>1324</ele>
        <time>2019-02-18T12:12:35Z</time>
      </trkpt>
      <trkpt lat="45.54051" lon="2.81795">
        <ele>1327</ele>
        <time>2019-02-18T12:12:53Z</time>
      </trkpt>
      <trkpt lat="45.54042" lon="2.81824">
        <ele>1322</ele>
        <time>2019-02-18T12:13:26Z</time>
      </trkpt>
      <trkpt lat="45.54036" lon="2.81842">
        <ele>1328</ele>
        <time>2019-02-18T12:14:02Z</time>
      </trkpt>
      <trkpt lat="45.54018" lon="2.81866">
        <ele>1335</ele>
        <time>2019-02-18T12:14:40Z</time>
      </trkpt>
      <trkpt lat="45.54006" lon="2.81884">
        <ele>1343</ele>
        <time>2019-02-18T12:15:36Z</time>
      </trkpt>
      <trkpt lat="45.53977" lon="2.81897">
        <ele>1349</ele>
        <time>2019-02-18T12:16:23Z</time>
      </trkpt>
      <trkpt lat="45.53975" lon="2.81938">
        <ele>1370</ele>
        <time>2019-02-18T12:18:47Z</time>
      </trkpt>
      <trkpt lat="45.54" lon="2.8198">
        <ele>1373</ele>
        <time>2019-02-18T12:19:31Z</time>
      </trkpt>
      <trkpt lat="45.53985" lon="2.82014">
        <ele>1380</ele>
        <time>2019-02-18T12:20:37Z</time>
      </trkpt>
      <trkpt lat="45.53955" lon="2.82046">
        <ele>1401</ele>
        <time>2019-02-18T12:22:59Z</time>
      </trkpt>
      <trkpt lat="45.53936" lon="2.8209">
        <ele>1419</ele>
        <time>2019-02-18T12:25:12Z</time>
      </trkpt>
      <trkpt lat="45.5392" lon="2.82123">
        <ele>1442</ele>
        <time>2019-02-18T12:27:15Z</time>
      </trkpt>
      <trkpt lat="45.53929" lon="2.8216">
        <ele>1458</ele>
        <time>2019-02-18T12:29:40Z</time>
      </trkpt>
      <trkpt lat="45.53934" lon="2.82182">
        <ele>1466</ele>
        <time>2019-02-18T12:30:40Z</time>
      </trkpt>
      <trkpt lat="45.53946" lon="2.82199">
        <ele>1469</ele>
        <time>2019-02-18T12:31:46Z</time>
      </trkpt>
      <trkpt lat="45.53951" lon="2.82222">
        <ele>1471</ele>
        <time>2019-02-18T12:32:10Z</time>
      </trkpt>
      <trkpt lat="45.5395" lon="2.82246">
        <ele>1473</ele>
        <time>2019-02-18T12:32:54Z</time>
      </trkpt>
      <trkpt lat="45.53949" lon="2.82292">
        <ele>1477</ele>
        <time>2019-02-18T12:33:35Z</time>
      </trkpt>
      <trkpt lat="45.5395" lon="2.82315">
        <ele>1480</ele>
        <time>2019-02-18T12:33:55Z</time>
      </trkpt>
      <trkpt lat="45.53944" lon="2.82343">
        <ele>1482</ele>
        <time>2019-02-18T12:34:14Z</time>
      </trkpt>
      <trkpt lat="45.5394" lon="2.82364">
        <ele>1482</ele>
        <time>2019-02-18T12:34:27Z</time>
      </trkpt>
      <trkpt lat="45.53927" lon="2.82374">
        <ele>1483</ele>
        <time>2019-02-18T12:34:40Z</time>
      </trkpt>
      <trkpt lat="45.53913" lon="2.82381">
        <ele>1485</ele>
        <time>2019-02-18T12:35:04Z</time>
      </trkpt>
      <trkpt lat="45.53897" lon="2.82373">
        <ele>1486</ele>
        <time>2019-02-18T12:35:21Z</time>
      </trkpt>
      <trkpt lat="45.53865" lon="2.82336">
        <ele>1491</ele>
        <time>2019-02-18T12:36:04Z</time>
      </trkpt>
      <trkpt lat="45.53854" lon="2.8232">
        <ele>1495</ele>
        <time>2019-02-18T12:36:34Z</time>
      </trkpt>
      <trkpt lat="45.53847" lon="2.82314">
        <ele>1497</ele>
        <time>2019-02-18T12:36:46Z</time>
      </trkpt>
      <trkpt lat="45.5384" lon="2.82308">
        <ele>1498</ele>
        <time>2019-02-18T12:36:58Z</time>
      </trkpt>
      <trkpt lat="45.53834" lon="2.82301">
        <ele>1502</ele>
        <time>2019-02-18T12:37:16Z</time>
      </trkpt>
      <trkpt lat="45.53828" lon="2.82289">
        <ele>1504</ele>
        <time>2019-02-18T12:37:30Z</time>
      </trkpt>
      <trkpt lat="45.53821" lon="2.82284">
        <ele>1508</ele>
        <time>2019-02-18T12:37:54Z</time>
      </trkpt>
      <trkpt lat="45.53818" lon="2.82274">
        <ele>1513</ele>
        <time>2019-02-18T12:38:24Z</time>
      </trkpt>
      <trkpt lat="45.53823" lon="2.82271">
        <ele>1513</ele>
        <time>2019-02-18T12:39:30Z</time>
      </trkpt>
      <trkpt lat="45.53812" lon="2.82285">
        <ele>1517</ele>
        <time>2019-02-18T12:40:36Z</time>
      </trkpt>
      <trkpt lat="45.53797" lon="2.82287">
        <ele>1520</ele>
        <time>2019-02-18T12:42:03Z</time>
      </trkpt>
      <trkpt lat="45.53781" lon="2.82291">
        <ele>1529</ele>
        <time>2019-02-18T12:45:21Z</time>
      </trkpt>
      <trkpt lat="45.53761" lon="2.82286">
        <ele>1532</ele>
        <time>2019-02-18T12:46:23Z</time>
      </trkpt>
      <trkpt lat="45.53748" lon="2.82298">
        <ele>1535</ele>
        <time>2019-02-18T12:47:41Z</time>
      </trkpt>
      <trkpt lat="45.53724" lon="2.82329">
        <ele>1545</ele>
        <time>2019-02-18T12:49:31Z</time>
      </trkpt>
      <trkpt lat="45.53682" lon="2.82348">
        <ele>1555</ele>
        <time>2019-02-18T12:51:05Z</time>
      </trkpt>
      <trkpt lat="45.53668" lon="2.8235">
        <ele>1555</ele>
        <time>2019-02-18T12:54:07Z</time>
      </trkpt>
      <trkpt lat="45.53667" lon="2.82373">
        <ele>1558</ele>
        <time>2019-02-18T12:55:33Z</time>
      </trkpt>
      <trkpt lat="45.53652" lon="2.82379">
        <ele>1559</ele>
        <time>2019-02-18T12:55:48Z</time>
      </trkpt>
      <trkpt lat="45.53639" lon="2.82391">
        <ele>1559</ele>
        <time>2019-02-18T12:55:58Z</time>
      </trkpt>
      <trkpt lat="45.53614" lon="2.82414">
        <ele>1564</ele>
        <time>2019-02-18T12:56:37Z</time>
      </trkpt>
      <trkpt lat="45.53587" lon="2.82426">
        <ele>1568</ele>
        <time>2019-02-18T12:57:10Z</time>
      </trkpt>
      <trkpt lat="45.53557" lon="2.82436">
        <ele>1572</ele>
        <time>2019-02-18T12:57:44Z</time>
      </trkpt>
      <trkpt lat="45.53544" lon="2.82443">
        <ele>1574</ele>
        <time>2019-02-18T12:58:02Z</time>
      </trkpt>
      <trkpt lat="45.53506" lon="2.82448">
        <ele>1582</ele>
        <time>2019-02-18T12:58:51Z</time>
      </trkpt>
      <trkpt lat="45.53498" lon="2.82446">
        <ele>1583</ele>
        <time>2019-02-18T12:58:59Z</time>
      </trkpt>
      <trkpt lat="45.53486" lon="2.82443">
        <ele>1583</ele>
        <time>2019-02-18T12:59:19Z</time>
      </trkpt>
      <trkpt lat="45.53479" lon="2.82444">
        <ele>1585</ele>
        <time>2019-02-18T12:59:25Z</time>
      </trkpt>
      <trkpt lat="45.53474" lon="2.82448">
        <ele>1587</ele>
        <time>2019-02-18T12:59:39Z</time>
      </trkpt>
      <trkpt lat="45.53467" lon="2.82446">
        <ele>1589</ele>
        <time>2019-02-18T12:59:51Z</time>
      </trkpt>
      <trkpt lat="45.53453" lon="2.82443">
        <ele>1596</ele>
        <time>2019-02-18T13:00:33Z</time>
      </trkpt>
      <trkpt lat="45.53447" lon="2.82447">
        <ele>1598</ele>
        <time>2019-02-18T13:00:45Z</time>
      </trkpt>
      <trkpt lat="45.53436" lon="2.82444">
        <ele>1602</ele>
        <time>2019-02-18T13:01:09Z</time>
      </trkpt>
      <trkpt lat="45.53429" lon="2.82445">
        <ele>1604</ele>
        <time>2019-02-18T13:01:27Z</time>
      </trkpt>
      <trkpt lat="45.53423" lon="2.82442">
        <ele>1605</ele>
        <time>2019-02-18T13:01:39Z</time>
      </trkpt>
      <trkpt lat="45.53417" lon="2.82439">
        <ele>1607</ele>
        <time>2019-02-18T13:01:57Z</time>
      </trkpt>
      <trkpt lat="45.53408" lon="2.82441">
        <ele>1609</ele>
        <time>2019-02-18T13:02:16Z</time>
      </trkpt>
      <trkpt lat="45.53388" lon="2.82445">
        <ele>1618</ele>
        <time>2019-02-18T13:03:01Z</time>
      </trkpt>
      <trkpt lat="45.53382" lon="2.82446">
        <ele>1620</ele>
        <time>2019-02-18T13:03:17Z</time>
      </trkpt>
      <trkpt lat="45.53378" lon="2.82451">
        <ele>1623</ele>
        <time>2019-02-18T13:03:32Z</time>
      </trkpt>
      <trkpt lat="45.53368" lon="2.82453">
        <ele>1627</ele>
        <time>2019-02-18T13:03:55Z</time>
      </trkpt>
      <trkpt lat="45.53362" lon="2.82459">
        <ele>1635</ele>
        <time>2019-02-18T13:04:36Z</time>
      </trkpt>
      <trkpt lat="45.53351" lon="2.82456">
        <ele>1637</ele>
        <time>2019-02-18T13:04:55Z</time>
      </trkpt>
      <trkpt lat="45.53345" lon="2.82458">
        <ele>1639</ele>
        <time>2019-02-18T13:05:07Z</time>
      </trkpt>
      <trkpt lat="45.5333" lon="2.82458">
        <ele>1645</ele>
        <time>2019-02-18T13:05:43Z</time>
      </trkpt>
      <trkpt lat="45.53323" lon="2.82456">
        <ele>1648</ele>
        <time>2019-02-18T13:05:55Z</time>
      </trkpt>
      <trkpt lat="45.53316" lon="2.82454">
        <ele>1649</ele>
        <time>2019-02-18T13:06:07Z</time>
      </trkpt>
      <trkpt lat="45.53311" lon="2.82456">
        <ele>1651</ele>
        <time>2019-02-18T13:06:15Z</time>
      </trkpt>
      <trkpt lat="45.53303" lon="2.82453">
        <ele>1653</ele>
        <time>2019-02-18T13:06:27Z</time>
      </trkpt>
      <trkpt lat="45.53288" lon="2.82445">
        <ele>1655</ele>
        <time>2019-02-18T13:06:50Z</time>
      </trkpt>
      <trkpt lat="45.53281" lon="2.82444">
        <ele>1655</ele>
        <time>2019-02-18T13:06:59Z</time>
      </trkpt>
      <trkpt lat="45.53273" lon="2.82441">
        <ele>1657</ele>
        <time>2019-02-18T13:07:15Z</time>
      </trkpt>
      <trkpt lat="45.53263" lon="2.82441">
        <ele>1660</ele>
        <time>2019-02-18T13:07:27Z</time>
      </trkpt>
      <trkpt lat="45.53249" lon="2.82436">
        <ele>1663</ele>
        <time>2019-02-18T13:07:51Z</time>
      </trkpt>
      <trkpt lat="45.53228" lon="2.82435">
        <ele>1666</ele>
        <time>2019-02-18T13:08:17Z</time>
      </trkpt>
      <trkpt lat="45.53221" lon="2.82432">
        <ele>1668</ele>
        <time>2019-02-18T13:08:29Z</time>
      </trkpt>
      <trkpt lat="45.53212" lon="2.82433">
        <ele>1670</ele>
        <time>2019-02-18T13:08:47Z</time>
      </trkpt>
      <trkpt lat="45.53208" lon="2.82425">
        <ele>1671</ele>
        <time>2019-02-18T13:08:59Z</time>
      </trkpt>
      <trkpt lat="45.53202" lon="2.82424">
        <ele>1672</ele>
        <time>2019-02-18T13:09:06Z</time>
      </trkpt>
      <trkpt lat="45.53197" lon="2.82426">
        <ele>1675</ele>
        <time>2019-02-18T13:09:20Z</time>
      </trkpt>
      <trkpt lat="45.53192" lon="2.8243">
        <ele>1678</ele>
        <time>2019-02-18T13:09:38Z</time>
      </trkpt>
      <trkpt lat="45.53185" lon="2.82433">
        <ele>1680</ele>
        <time>2019-02-18T13:09:50Z</time>
      </trkpt>
      <trkpt lat="45.5318" lon="2.82437">
        <ele>1684</ele>
        <time>2019-02-18T13:10:14Z</time>
      </trkpt>
      <trkpt lat="45.53168" lon="2.82445">
        <ele>1690</ele>
        <time>2019-02-18T13:10:45Z</time>
      </trkpt>
      <trkpt lat="45.53166" lon="2.82452">
        <ele>1695</ele>
        <time>2019-02-18T13:11:01Z</time>
      </trkpt>
      <trkpt lat="45.53158" lon="2.82458">
        <ele>1699</ele>
        <time>2019-02-18T13:11:19Z</time>
      </trkpt>
      <trkpt lat="45.53154" lon="2.8247">
        <ele>1702</ele>
        <time>2019-02-18T13:11:37Z</time>
      </trkpt>
      <trkpt lat="45.5315" lon="2.82478">
        <ele>1704</ele>
        <time>2019-02-18T13:11:49Z</time>
      </trkpt>
      <trkpt lat="45.53147" lon="2.82489">
        <ele>1706</ele>
        <time>2019-02-18T13:12:01Z</time>
      </trkpt>
      <trkpt lat="45.53141" lon="2.82506">
        <ele>1712</ele>
        <time>2019-02-18T13:12:37Z</time>
      </trkpt>
      <trkpt lat="45.53135" lon="2.82509">
        <ele>1712</ele>
        <time>2019-02-18T13:12:49Z</time>
      </trkpt>
      <trkpt lat="45.53129" lon="2.82503">
        <ele>1714</ele>
        <time>2019-02-18T13:13:13Z</time>
      </trkpt>
      <trkpt lat="45.53129" lon="2.82494">
        <ele>1715</ele>
        <time>2019-02-18T13:13:25Z</time>
      </trkpt>
      <trkpt lat="45.53126" lon="2.82483">
        <ele>1718</ele>
        <time>2019-02-18T13:14:13Z</time>
      </trkpt>
      <trkpt lat="45.53119" lon="2.8249">
        <ele>1724</ele>
        <time>2019-02-18T13:14:56Z</time>
      </trkpt>
      <trkpt lat="45.53115" lon="2.82478">
        <ele>1729</ele>
        <time>2019-02-18T13:15:45Z</time>
      </trkpt>
      <trkpt lat="45.53108" lon="2.82473">
        <ele>1732</ele>
        <time>2019-02-18T13:16:33Z</time>
      </trkpt>
      <trkpt lat="45.53106" lon="2.82466">
        <ele>1735</ele>
        <time>2019-02-18T13:16:45Z</time>
      </trkpt>
      <trkpt lat="45.53091" lon="2.82467">
        <ele>1735</ele>
        <time>2019-02-18T13:17:23Z</time>
      </trkpt>
      <trkpt lat="45.53075" lon="2.82456">
        <ele>1735</ele>
        <time>2019-02-18T13:17:42Z</time>
      </trkpt>
      <trkpt lat="45.53068" lon="2.82452">
        <ele>1734</ele>
        <time>2019-02-18T13:17:52Z</time>
      </trkpt>
      <trkpt lat="45.53055" lon="2.8243">
        <ele>1738</ele>
        <time>2019-02-18T13:18:13Z</time>
      </trkpt>
      <trkpt lat="45.53052" lon="2.82422">
        <ele>1738</ele>
        <time>2019-02-18T13:18:22Z</time>
      </trkpt>
      <trkpt lat="45.53047" lon="2.82413">
        <ele>1740</ele>
        <time>2019-02-18T13:18:29Z</time>
      </trkpt>
      <trkpt lat="45.53041" lon="2.82405">
        <ele>1741</ele>
        <time>2019-02-18T13:18:44Z</time>
      </trkpt>
      <trkpt lat="45.53034" lon="2.82392">
        <ele>1741</ele>
        <time>2019-02-18T13:18:56Z</time>
      </trkpt>
      <trkpt lat="45.53026" lon="2.82387">
        <ele>1741</ele>
        <time>2019-02-18T13:19:05Z</time>
      </trkpt>
      <trkpt lat="45.53023" lon="2.8238">
        <ele>1742</ele>
        <time>2019-02-18T13:19:09Z</time>
      </trkpt>
      <trkpt lat="45.53018" lon="2.82375">
        <ele>1743</ele>
        <time>2019-02-18T13:19:17Z</time>
      </trkpt>
      <trkpt lat="45.53015" lon="2.82369">
        <ele>1744</ele>
        <time>2019-02-18T13:19:22Z</time>
      </trkpt>
      <trkpt lat="45.53011" lon="2.82352">
        <ele>1745</ele>
        <time>2019-02-18T13:19:33Z</time>
      </trkpt>
      <trkpt lat="45.53007" lon="2.82348">
        <ele>1746</ele>
        <time>2019-02-18T13:19:41Z</time>
      </trkpt>
      <trkpt lat="45.52999" lon="2.82327">
        <ele>1751</ele>
        <time>2019-02-18T13:20:05Z</time>
      </trkpt>
      <trkpt lat="45.52996" lon="2.82321">
        <ele>1754</ele>
        <time>2019-02-18T13:20:23Z</time>
      </trkpt>
      <trkpt lat="45.52991" lon="2.82314">
        <ele>1757</ele>
        <time>2019-02-18T13:20:41Z</time>
      </trkpt>
      <trkpt lat="45.52981" lon="2.82295">
        <ele>1759</ele>
        <time>2019-02-18T13:21:09Z</time>
      </trkpt>
      <trkpt lat="45.52974" lon="2.82271">
        <ele>1765</ele>
        <time>2019-02-18T13:21:45Z</time>
      </trkpt>
      <trkpt lat="45.5297" lon="2.82261">
        <ele>1765</ele>
        <time>2019-02-18T13:21:55Z</time>
      </trkpt>
      <trkpt lat="45.52964" lon="2.82248">
        <ele>1767</ele>
        <time>2019-02-18T13:22:07Z</time>
      </trkpt>
      <trkpt lat="45.52958" lon="2.82243">
        <ele>1768</ele>
        <time>2019-02-18T13:22:13Z</time>
      </trkpt>
      <trkpt lat="45.52956" lon="2.82232">
        <ele>1768</ele>
        <time>2019-02-18T13:22:22Z</time>
      </trkpt>
      <trkpt lat="45.52951" lon="2.82223">
        <ele>1769</ele>
        <time>2019-02-18T13:22:50Z</time>
      </trkpt>
      <trkpt lat="45.52928" lon="2.8221">
        <ele>1749</ele>
        <time>2019-02-18T13:23:56Z</time>
      </trkpt>
      <trkpt lat="45.52916" lon="2.82195">
        <ele>1741</ele>
        <time>2019-02-18T13:24:24Z</time>
      </trkpt>
      <trkpt lat="45.52909" lon="2.82185">
        <ele>1733</ele>
        <time>2019-02-18T13:24:53Z</time>
      </trkpt>
      <trkpt lat="45.52905" lon="2.82179">
        <ele>1733</ele>
        <time>2019-02-18T13:24:59Z</time>
      </trkpt>
      <trkpt lat="45.52899" lon="2.82173">
        <ele>1730</ele>
        <time>2019-02-18T13:25:07Z</time>
      </trkpt>
      <trkpt lat="45.5288" lon="2.82162">
        <ele>1725</ele>
        <time>2019-02-18T13:25:23Z</time>
      </trkpt>
      <trkpt lat="45.52874" lon="2.82163">
        <ele>1724</ele>
        <time>2019-02-18T13:25:28Z</time>
      </trkpt>
      <trkpt lat="45.52867" lon="2.82158">
        <ele>1722</ele>
        <time>2019-02-18T13:25:35Z</time>
      </trkpt>
      <trkpt lat="45.52863" lon="2.82153">
        <ele>1722</ele>
        <time>2019-02-18T13:25:40Z</time>
      </trkpt>
      <trkpt lat="45.52855" lon="2.82151">
        <ele>1722</ele>
        <time>2019-02-18T13:25:53Z</time>
      </trkpt>
      <trkpt lat="45.52847" lon="2.82148">
        <ele>1723</ele>
        <time>2019-02-18T13:26:01Z</time>
      </trkpt>
      <trkpt lat="45.52836" lon="2.82141">
        <ele>1725</ele>
        <time>2019-02-18T13:26:15Z</time>
      </trkpt>
      <trkpt lat="45.52832" lon="2.82137">
        <ele>1725</ele>
        <time>2019-02-18T13:26:21Z</time>
      </trkpt>
      <trkpt lat="45.52826" lon="2.82133">
        <ele>1726</ele>
        <time>2019-02-18T13:26:27Z</time>
      </trkpt>
      <trkpt lat="45.52819" lon="2.82125">
        <ele>1729</ele>
        <time>2019-02-18T13:26:41Z</time>
      </trkpt>
      <trkpt lat="45.52813" lon="2.82113">
        <ele>1730</ele>
        <time>2019-02-18T13:26:53Z</time>
      </trkpt>
      <trkpt lat="45.52811" lon="2.82105">
        <ele>1730</ele>
        <time>2019-02-18T13:26:58Z</time>
      </trkpt>
      <trkpt lat="45.52808" lon="2.82099">
        <ele>1730</ele>
        <time>2019-02-18T13:27:04Z</time>
      </trkpt>
      <trkpt lat="45.52803" lon="2.82095">
        <ele>1731</ele>
        <time>2019-02-18T13:27:10Z</time>
      </trkpt>
      <trkpt lat="45.528" lon="2.82087">
        <ele>1732</ele>
        <time>2019-02-18T13:27:18Z</time>
      </trkpt>
      <trkpt lat="45.528" lon="2.82069">
        <ele>1735</ele>
        <time>2019-02-18T13:27:37Z</time>
      </trkpt>
      <trkpt lat="45.52796" lon="2.82056">
        <ele>1737</ele>
        <time>2019-02-18T13:27:50Z</time>
      </trkpt>
      <trkpt lat="45.52792" lon="2.82041">
        <ele>1737</ele>
        <time>2019-02-18T13:28:00Z</time>
      </trkpt>
      <trkpt lat="45.5279" lon="2.82033">
        <ele>1739</ele>
        <time>2019-02-18T13:28:05Z</time>
      </trkpt>
      <trkpt lat="45.52785" lon="2.82023">
        <ele>1740</ele>
        <time>2019-02-18T13:28:13Z</time>
      </trkpt>
      <trkpt lat="45.52783" lon="2.82016">
        <ele>1740</ele>
        <time>2019-02-18T13:28:19Z</time>
      </trkpt>
      <trkpt lat="45.52783" lon="2.82002">
        <ele>1742</ele>
        <time>2019-02-18T13:28:51Z</time>
      </trkpt>
      <trkpt lat="45.52779" lon="2.81989">
        <ele>1743</ele>
        <time>2019-02-18T13:29:02Z</time>
      </trkpt>
      <trkpt lat="45.52781" lon="2.81976">
        <ele>1745</ele>
        <time>2019-02-18T13:29:16Z</time>
      </trkpt>
      <trkpt lat="45.52777" lon="2.81954">
        <ele>1748</ele>
        <time>2019-02-18T13:29:36Z</time>
      </trkpt>
      <trkpt lat="45.52778" lon="2.81924">
        <ele>1752</ele>
        <time>2019-02-18T13:30:14Z</time>
      </trkpt>
      <trkpt lat="45.52776" lon="2.81914">
        <ele>1754</ele>
        <time>2019-02-18T13:30:26Z</time>
      </trkpt>
      <trkpt lat="45.52773" lon="2.81906">
        <ele>1755</ele>
        <time>2019-02-18T13:30:38Z</time>
      </trkpt>
      <trkpt lat="45.52775" lon="2.81895">
        <ele>1757</ele>
        <time>2019-02-18T13:30:50Z</time>
      </trkpt>
      <trkpt lat="45.52774" lon="2.81883">
        <ele>1759</ele>
        <time>2019-02-18T13:31:05Z</time>
      </trkpt>
      <trkpt lat="45.52777" lon="2.81874">
        <ele>1760</ele>
        <time>2019-02-18T13:31:16Z</time>
      </trkpt>
      <trkpt lat="45.52775" lon="2.81864">
        <ele>1761</ele>
        <time>2019-02-18T13:31:26Z</time>
      </trkpt>
      <trkpt lat="45.52772" lon="2.81858">
        <ele>1761</ele>
        <time>2019-02-18T13:31:32Z</time>
      </trkpt>
      <trkpt lat="45.52767" lon="2.81842">
        <ele>1764</ele>
        <time>2019-02-18T13:32:00Z</time>
      </trkpt>
      <trkpt lat="45.52768" lon="2.81811">
        <ele>1766</ele>
        <time>2019-02-18T13:32:36Z</time>
      </trkpt>
      <trkpt lat="45.52768" lon="2.81801">
        <ele>1768</ele>
        <time>2019-02-18T13:32:48Z</time>
      </trkpt>
      <trkpt lat="45.52765" lon="2.81782">
        <ele>1770</ele>
        <time>2019-02-18T13:33:08Z</time>
      </trkpt>
      <trkpt lat="45.52765" lon="2.81771">
        <ele>1771</ele>
        <time>2019-02-18T13:33:20Z</time>
      </trkpt>
      <trkpt lat="45.52761" lon="2.81759">
        <ele>1772</ele>
        <time>2019-02-18T13:33:32Z</time>
      </trkpt>
      <trkpt lat="45.52764" lon="2.8174">
        <ele>1773</ele>
        <time>2019-02-18T13:33:58Z</time>
      </trkpt>
      <trkpt lat="45.52765" lon="2.8173">
        <ele>1774</ele>
        <time>2019-02-18T13:34:06Z</time>
      </trkpt>
      <trkpt lat="45.52768" lon="2.81716">
        <ele>1775</ele>
        <time>2019-02-18T13:34:18Z</time>
      </trkpt>
      <trkpt lat="45.52771" lon="2.81704">
        <ele>1776</ele>
        <time>2019-02-18T13:34:29Z</time>
      </trkpt>
      <trkpt lat="45.52771" lon="2.81697">
        <ele>1776</ele>
        <time>2019-02-18T13:35:11Z</time>
      </trkpt>
      <trkpt lat="45.52769" lon="2.81689">
        <ele>1782</ele>
        <time>2019-02-18T13:37:05Z</time>
      </trkpt>
      <trkpt lat="45.52771" lon="2.81677">
        <ele>1786</ele>
        <time>2019-02-18T13:37:35Z</time>
      </trkpt>
      <trkpt lat="45.52769" lon="2.81667">
        <ele>1789</ele>
        <time>2019-02-18T13:37:59Z</time>
      </trkpt>
      <trkpt lat="45.52772" lon="2.81656">
        <ele>1796</ele>
        <time>2019-02-18T13:38:35Z</time>
      </trkpt>
      <trkpt lat="45.52775" lon="2.81646">
        <ele>1797</ele>
        <time>2019-02-18T13:38:43Z</time>
      </trkpt>
      <trkpt lat="45.52784" lon="2.81633">
        <ele>1799</ele>
        <time>2019-02-18T13:38:58Z</time>
      </trkpt>
      <trkpt lat="45.52783" lon="2.81619">
        <ele>1805</ele>
        <time>2019-02-18T13:39:40Z</time>
      </trkpt>
      <trkpt lat="45.52783" lon="2.81605">
        <ele>1808</ele>
        <time>2019-02-18T13:40:10Z</time>
      </trkpt>
      <trkpt lat="45.52784" lon="2.81593">
        <ele>1812</ele>
        <time>2019-02-18T13:40:39Z</time>
      </trkpt>
      <trkpt lat="45.52786" lon="2.81581">
        <ele>1816</ele>
        <time>2019-02-18T13:41:09Z</time>
      </trkpt>
      <trkpt lat="45.52787" lon="2.81571">
        <ele>1821</ele>
        <time>2019-02-18T13:42:03Z</time>
      </trkpt>
      <trkpt lat="45.52787" lon="2.8156">
        <ele>1826</ele>
        <time>2019-02-18T13:42:39Z</time>
      </trkpt>
      <trkpt lat="45.52791" lon="2.81548">
        <ele>1830</ele>
        <time>2019-02-18T13:43:21Z</time>
      </trkpt>
      <trkpt lat="45.52788" lon="2.81537">
        <ele>1833</ele>
        <time>2019-02-18T13:43:45Z</time>
      </trkpt>
      <trkpt lat="45.52784" lon="2.81525">
        <ele>1838</ele>
        <time>2019-02-18T13:44:39Z</time>
      </trkpt>
      <trkpt lat="45.52783" lon="2.81513">
        <ele>1843</ele>
        <time>2019-02-18T13:45:15Z</time>
      </trkpt>
      <trkpt lat="45.52785" lon="2.81503">
        <ele>1846</ele>
        <time>2019-02-18T13:45:44Z</time>
      </trkpt>
      <trkpt lat="45.52787" lon="2.81492">
        <ele>1854</ele>
        <time>2019-02-18T13:46:37Z</time>
      </trkpt>
      <trkpt lat="45.52789" lon="2.81474">
        <ele>1857</ele>
        <time>2019-02-18T13:47:07Z</time>
      </trkpt>
      <trkpt lat="45.52797" lon="2.81464">
        <ele>1860</ele>
        <time>2019-02-18T13:47:33Z</time>
      </trkpt>
      <trkpt lat="45.52798" lon="2.81446">
        <ele>1866</ele>
        <time>2019-02-18T13:48:07Z</time>
      </trkpt>
      <trkpt lat="45.52802" lon="2.81438">
        <ele>1869</ele>
        <time>2019-02-18T13:48:31Z</time>
      </trkpt>
      <trkpt lat="45.52805" lon="2.81413">
        <ele>1876</ele>
        <time>2019-02-18T13:49:08Z</time>
      </trkpt>
      <trkpt lat="45.52812" lon="2.81409">
        <ele>1876</ele>
        <time>2019-02-18T13:50:21Z</time>
      </trkpt>
      <trkpt lat="45.52818" lon="2.81399">
        <ele>1880</ele>
        <time>2019-02-18T13:51:09Z</time>
      </trkpt>
      <trkpt lat="45.52821" lon="2.81392">
        <ele>1880</ele>
        <time>2019-02-18T13:51:27Z</time>
      </trkpt>
      <trkpt lat="45.52828" lon="2.81393">
        <ele>1881</ele>
        <time>2019-02-18T13:51:57Z</time>
      </trkpt>
      <trkpt lat="45.52831" lon="2.81392">
        <ele>1881</ele>
        <time>2019-02-18T13:55:31Z</time>
      </trkpt>
      <trkpt lat="45.52833" lon="2.81385">
        <ele>1881</ele>
        <time>2019-02-18T13:55:59Z</time>
      </trkpt>
      <trkpt lat="45.52835" lon="2.81398">
        <ele>1878</ele>
        <time>2019-02-18T13:56:40Z</time>
      </trkpt>
      <trkpt lat="45.52829" lon="2.81394">
        <ele>1879</ele>
        <time>2019-02-18T13:57:17Z</time>
      </trkpt>
      <trkpt lat="45.52824" lon="2.81399">
        <ele>1879</ele>
        <time>2019-02-18T13:59:17Z</time>
      </trkpt>
      <trkpt lat="45.52818" lon="2.8139">
        <ele>1878</ele>
        <time>2019-02-18T13:59:35Z</time>
      </trkpt>
      <trkpt lat="45.52828" lon="2.81382">
        <ele>1874</ele>
        <time>2019-02-18T14:00:20Z</time>
      </trkpt>
      <trkpt lat="45.52843" lon="2.81374">
        <ele>1871</ele>
        <time>2019-02-18T14:00:35Z</time>
      </trkpt>
      <trkpt lat="45.5285" lon="2.81366">
        <ele>1869</ele>
        <time>2019-02-18T14:00:45Z</time>
      </trkpt>
      <trkpt lat="45.52864" lon="2.81338">
        <ele>1865</ele>
        <time>2019-02-18T14:01:05Z</time>
      </trkpt>
      <trkpt lat="45.52867" lon="2.81333">
        <ele>1865</ele>
        <time>2019-02-18T14:01:19Z</time>
      </trkpt>
      <trkpt lat="45.52869" lon="2.81327">
        <ele>1864</ele>
        <time>2019-02-18T14:04:37Z</time>
      </trkpt>
      <trkpt lat="45.52875" lon="2.81328">
        <ele>1862</ele>
        <time>2019-02-18T14:04:48Z</time>
      </trkpt>
      <trkpt lat="45.52881" lon="2.81325">
        <ele>1860</ele>
        <time>2019-02-18T14:05:00Z</time>
      </trkpt>
      <trkpt lat="45.52888" lon="2.81319">
        <ele>1859</ele>
        <time>2019-02-18T14:05:12Z</time>
      </trkpt>
      <trkpt lat="45.52895" lon="2.81315">
        <ele>1857</ele>
        <time>2019-02-18T14:05:30Z</time>
      </trkpt>
      <trkpt lat="45.52902" lon="2.81311">
        <ele>1852</ele>
        <time>2019-02-18T14:06:00Z</time>
      </trkpt>
      <trkpt lat="45.52902" lon="2.8131">
        <ele>1849</ele>
        <time>2019-02-18T14:07:28Z</time>
      </trkpt>
      <trkpt lat="45.52912" lon="2.81311">
        <ele>1846</ele>
        <time>2019-02-18T14:08:13Z</time>
      </trkpt>
      <trkpt lat="45.52918" lon="2.81309">
        <ele>1837</ele>
        <time>2019-02-18T14:09:46Z</time>
      </trkpt>
      <trkpt lat="45.52921" lon="2.81301">
        <ele>1836</ele>
        <time>2019-02-18T14:10:16Z</time>
      </trkpt>
      <trkpt lat="45.52926" lon="2.81298">
        <ele>1834</ele>
        <time>2019-02-18T14:11:28Z</time>
      </trkpt>
      <trkpt lat="45.52927" lon="2.8129">
        <ele>1833</ele>
        <time>2019-02-18T14:12:28Z</time>
      </trkpt>
      <trkpt lat="45.52929" lon="2.81283">
        <ele>1830</ele>
        <time>2019-02-18T14:14:51Z</time>
      </trkpt>
      <trkpt lat="45.52939" lon="2.81282">
        <ele>1830</ele>
        <time>2019-02-18T14:15:39Z</time>
      </trkpt>
      <trkpt lat="45.52938" lon="2.81274">
        <ele>1828</ele>
        <time>2019-02-18T14:15:57Z</time>
      </trkpt>
      <trkpt lat="45.52942" lon="2.81268">
        <ele>1825</ele>
        <time>2019-02-18T14:16:21Z</time>
      </trkpt>
      <trkpt lat="45.52943" lon="2.81257">
        <ele>1824</ele>
        <time>2019-02-18T14:16:32Z</time>
      </trkpt>
      <trkpt lat="45.52945" lon="2.81247">
        <ele>1823</ele>
        <time>2019-02-18T14:16:52Z</time>
      </trkpt>
      <trkpt lat="45.52938" lon="2.81239">
        <ele>1822</ele>
        <time>2019-02-18T14:17:22Z</time>
      </trkpt>
      <trkpt lat="45.52945" lon="2.81228">
        <ele>1819</ele>
        <time>2019-02-18T14:18:04Z</time>
      </trkpt>
      <trkpt lat="45.52952" lon="2.81236">
        <ele>1816</ele>
        <time>2019-02-18T14:18:22Z</time>
      </trkpt>
      <trkpt lat="45.52956" lon="2.81226">
        <ele>1813</ele>
        <time>2019-02-18T14:18:52Z</time>
      </trkpt>
      <trkpt lat="45.52978" lon="2.81201">
        <ele>1811</ele>
        <time>2019-02-18T14:19:15Z</time>
      </trkpt>
      <trkpt lat="45.52991" lon="2.81174">
        <ele>1812</ele>
        <time>2019-02-18T14:19:45Z</time>
      </trkpt>
      <trkpt lat="45.53" lon="2.81164">
        <ele>1813</ele>
        <time>2019-02-18T14:20:00Z</time>
      </trkpt>
      <trkpt lat="45.53034" lon="2.81155">
        <ele>1816</ele>
        <time>2019-02-18T14:20:32Z</time>
      </trkpt>
      <trkpt lat="45.53038" lon="2.8115">
        <ele>1816</ele>
        <time>2019-02-18T14:20:37Z</time>
      </trkpt>
      <trkpt lat="45.53045" lon="2.81144">
        <ele>1818</ele>
        <time>2019-02-18T14:20:51Z</time>
      </trkpt>
      <trkpt lat="45.5305" lon="2.81138">
        <ele>1819</ele>
        <time>2019-02-18T14:20:57Z</time>
      </trkpt>
      <trkpt lat="45.53055" lon="2.81123">
        <ele>1821</ele>
        <time>2019-02-18T14:21:34Z</time>
      </trkpt>
      <trkpt lat="45.53062" lon="2.81119">
        <ele>1824</ele>
        <time>2019-02-18T14:21:49Z</time>
      </trkpt>
      <trkpt lat="45.53066" lon="2.8111">
        <ele>1828</ele>
        <time>2019-02-18T14:22:13Z</time>
      </trkpt>
      <trkpt lat="45.53067" lon="2.81101">
        <ele>1828</ele>
        <time>2019-02-18T14:22:25Z</time>
      </trkpt>
      <trkpt lat="45.89655" lon="3.22464">
        <ele>246</ele>
        <time>2019-02-19T05:38:55Z</time>
      </trkpt>
      <trkpt lat="45.80625" lon="3.12663">
        <ele>334</ele>
        <time>2019-02-19T07:06:13Z</time>
      </trkpt>
      <trkpt lat="45.80563" lon="3.12492">
        <ele>345</ele>
        <time>2019-02-19T07:06:22Z</time>
      </trkpt>
      <trkpt lat="45.8055" lon="3.12458">
        <ele>346</ele>
        <time>2019-02-19T07:06:24Z</time>
      </trkpt>
      <trkpt lat="45.80542" lon="3.12427">
        <ele>344</ele>
        <time>2019-02-19T07:06:26Z</time>
      </trkpt>
      <trkpt lat="45.80548" lon="3.12392">
        <ele>342</ele>
        <time>2019-02-19T07:06:29Z</time>
      </trkpt>
      <trkpt lat="45.8054" lon="3.12365">
        <ele>337</ele>
        <time>2019-02-19T07:06:31Z</time>
      </trkpt>
      <trkpt lat="45.80534" lon="3.12355">
        <ele>337</ele>
        <time>2019-02-19T07:06:32Z</time>
      </trkpt>
      <trkpt lat="45.80529" lon="3.12346">
        <ele>336</ele>
        <time>2019-02-19T07:06:33Z</time>
      </trkpt>
      <trkpt lat="45.80518" lon="3.12324">
        <ele>337</ele>
        <time>2019-02-19T07:06:36Z</time>
      </trkpt>
      <trkpt lat="45.80493" lon="3.12254">
        <ele>331</ele>
        <time>2019-02-19T07:06:47Z</time>
      </trkpt>
      <trkpt lat="45.78862" lon="3.05195">
        <ele>511</ele>
        <time>2019-02-19T07:21:06Z</time>
      </trkpt>
      <trkpt lat="45.78857" lon="2.99674">
        <ele>519</ele>
        <time>2019-02-19T07:30:33Z</time>
      </trkpt>
      <trkpt lat="45.78846" lon="2.99673">
        <ele>519</ele>
        <time>2019-02-19T07:30:36Z</time>
      </trkpt>
      <trkpt lat="45.78844" lon="2.99696">
        <ele>519</ele>
        <time>2019-02-19T07:30:57Z</time>
      </trkpt>
      <trkpt lat="45.78842" lon="2.99672">
        <ele>519</ele>
        <time>2019-02-19T07:31:21Z</time>
      </trkpt>
      <trkpt lat="45.78856" lon="2.99674">
        <ele>520</ele>
        <time>2019-02-19T07:32:10Z</time>
      </trkpt>
      <trkpt lat="45.78852" lon="2.99684">
        <ele>520</ele>
        <time>2019-02-19T07:32:22Z</time>
      </trkpt>
      <trkpt lat="45.78841" lon="2.99675">
        <ele>520</ele>
        <time>2019-02-19T07:32:58Z</time>
      </trkpt>
      <trkpt lat="45.7885" lon="2.99675">
        <ele>520</ele>
        <time>2019-02-19T07:33:14Z</time>
      </trkpt>
      <trkpt lat="45.78855" lon="2.99677">
        <ele>522</ele>
        <time>2019-02-19T07:35:53Z</time>
      </trkpt>
      <trkpt lat="45.78858" lon="2.99677">
        <ele>523</ele>
        <time>2019-02-19T07:39:01Z</time>
      </trkpt>
      <trkpt lat="45.78859" lon="2.99667">
        <ele>524</ele>
        <time>2019-02-19T07:40:01Z</time>
      </trkpt>
      <trkpt lat="45.7885" lon="2.99635">
        <ele>526</ele>
        <time>2019-02-19T07:43:59Z</time>
      </trkpt>
      <trkpt lat="45.78842" lon="2.99618">
        <ele>526</ele>
        <time>2019-02-19T07:44:09Z</time>
      </trkpt>
      <trkpt lat="45.78842" lon="2.9958">
        <ele>527</ele>
        <time>2019-02-19T07:44:32Z</time>
      </trkpt>
      <trkpt lat="45.78847" lon="2.99547">
        <ele>529</ele>
        <time>2019-02-19T07:44:56Z</time>
      </trkpt>
      <trkpt lat="45.78847" lon="2.99536">
        <ele>530</ele>
        <time>2019-02-19T07:45:05Z</time>
      </trkpt>
      <trkpt lat="45.7885" lon="2.99498">
        <ele>531</ele>
        <time>2019-02-19T07:45:31Z</time>
      </trkpt>
      <trkpt lat="45.78848" lon="2.99478">
        <ele>533</ele>
        <time>2019-02-19T07:45:45Z</time>
      </trkpt>
      <trkpt lat="45.78851" lon="2.99452">
        <ele>534</ele>
        <time>2019-02-19T07:45:59Z</time>
      </trkpt>
      <trkpt lat="45.78849" lon="2.99444">
        <ele>534</ele>
        <time>2019-02-19T07:46:04Z</time>
      </trkpt>
      <trkpt lat="45.78851" lon="2.99423">
        <ele>535</ele>
        <time>2019-02-19T07:46:18Z</time>
      </trkpt>
      <trkpt lat="45.78848" lon="2.99408">
        <ele>535</ele>
        <time>2019-02-19T07:46:28Z</time>
      </trkpt>
      <trkpt lat="45.7885" lon="2.99388">
        <ele>536</ele>
        <time>2019-02-19T07:46:40Z</time>
      </trkpt>
      <trkpt lat="45.78846" lon="2.99373">
        <ele>537</ele>
        <time>2019-02-19T07:46:49Z</time>
      </trkpt>
      <trkpt lat="45.78847" lon="2.99356">
        <ele>538</ele>
        <time>2019-02-19T07:47:00Z</time>
      </trkpt>
      <trkpt lat="45.78844" lon="2.99323">
        <ele>539</ele>
        <time>2019-02-19T07:47:22Z</time>
      </trkpt>
      <trkpt lat="45.78847" lon="2.99316">
        <ele>539</ele>
        <time>2019-02-19T07:47:27Z</time>
      </trkpt>
      <trkpt lat="45.78851" lon="2.99293">
        <ele>541</ele>
        <time>2019-02-19T07:47:44Z</time>
      </trkpt>
      <trkpt lat="45.78851" lon="2.99279">
        <ele>541</ele>
        <time>2019-02-19T07:47:53Z</time>
      </trkpt>
      <trkpt lat="45.78853" lon="2.99269">
        <ele>542</ele>
        <time>2019-02-19T07:47:58Z</time>
      </trkpt>
      <trkpt lat="45.78853" lon="2.99244">
        <ele>543</ele>
        <time>2019-02-19T07:48:06Z</time>
      </trkpt>
      <trkpt lat="45.78859" lon="2.99218">
        <ele>544</ele>
        <time>2019-02-19T07:48:24Z</time>
      </trkpt>
      <trkpt lat="45.7888" lon="2.99164">
        <ele>547</ele>
        <time>2019-02-19T07:48:59Z</time>
      </trkpt>
      <trkpt lat="45.78888" lon="2.99146">
        <ele>547</ele>
        <time>2019-02-19T07:49:12Z</time>
      </trkpt>
      <trkpt lat="45.78898" lon="2.99082">
        <ele>551</ele>
        <time>2019-02-19T07:49:51Z</time>
      </trkpt>
      <trkpt lat="45.78886" lon="2.9907">
        <ele>551</ele>
        <time>2019-02-19T07:50:00Z</time>
      </trkpt>
      <trkpt lat="45.78842" lon="2.99051">
        <ele>553</ele>
        <time>2019-02-19T07:50:34Z</time>
      </trkpt>
      <trkpt lat="45.78833" lon="2.99034">
        <ele>554</ele>
        <time>2019-02-19T07:50:48Z</time>
      </trkpt>
      <trkpt lat="45.78826" lon="2.99017">
        <ele>555</ele>
        <time>2019-02-19T07:51:20Z</time>
      </trkpt>
      <trkpt lat="45.78817" lon="2.99001">
        <ele>556</ele>
        <time>2019-02-19T07:51:46Z</time>
      </trkpt>
      <trkpt lat="45.78809" lon="2.98981">
        <ele>557</ele>
        <time>2019-02-19T07:52:00Z</time>
      </trkpt>
      <trkpt lat="45.78804" lon="2.98962">
        <ele>558</ele>
        <time>2019-02-19T07:52:13Z</time>
      </trkpt>
      <trkpt lat="45.78802" lon="2.98941">
        <ele>559</ele>
        <time>2019-02-19T07:52:25Z</time>
      </trkpt>
      <trkpt lat="45.78792" lon="2.989">
        <ele>559</ele>
        <time>2019-02-19T07:52:42Z</time>
      </trkpt>
      <trkpt lat="45.78789" lon="2.98837">
        <ele>559</ele>
        <time>2019-02-19T07:53:10Z</time>
      </trkpt>
      <trkpt lat="45.78786" lon="2.98817">
        <ele>560</ele>
        <time>2019-02-19T07:53:23Z</time>
      </trkpt>
      <trkpt lat="45.788" lon="2.98771">
        <ele>561</ele>
        <time>2019-02-19T07:53:49Z</time>
      </trkpt>
      <trkpt lat="45.78804" lon="2.98708">
        <ele>562</ele>
        <time>2019-02-19T07:54:22Z</time>
      </trkpt>
      <trkpt lat="45.78802" lon="2.98681">
        <ele>563</ele>
        <time>2019-02-19T07:54:39Z</time>
      </trkpt>
      <trkpt lat="45.78809" lon="2.98645">
        <ele>563</ele>
        <time>2019-02-19T07:55:02Z</time>
      </trkpt>
      <trkpt lat="45.78816" lon="2.98571">
        <ele>561</ele>
        <time>2019-02-19T07:55:41Z</time>
      </trkpt>
      <trkpt lat="45.7883" lon="2.98535">
        <ele>562</ele>
        <time>2019-02-19T07:56:08Z</time>
      </trkpt>
      <trkpt lat="45.78852" lon="2.98506">
        <ele>562</ele>
        <time>2019-02-19T07:56:29Z</time>
      </trkpt>
      <trkpt lat="45.78862" lon="2.98488">
        <ele>563</ele>
        <time>2019-02-19T07:56:40Z</time>
      </trkpt>
      <trkpt lat="45.7887" lon="2.98471">
        <ele>563</ele>
        <time>2019-02-19T07:56:50Z</time>
      </trkpt>
      <trkpt lat="45.78867" lon="2.98443">
        <ele>564</ele>
        <time>2019-02-19T07:57:06Z</time>
      </trkpt>
      <trkpt lat="45.78868" lon="2.98434">
        <ele>563</ele>
        <time>2019-02-19T07:57:20Z</time>
      </trkpt>
      <trkpt lat="45.78871" lon="2.98419">
        <ele>563</ele>
        <time>2019-02-19T07:57:48Z</time>
      </trkpt>
      <trkpt lat="45.78882" lon="2.98397">
        <ele>564</ele>
        <time>2019-02-19T07:57:58Z</time>
      </trkpt>
      <trkpt lat="45.78887" lon="2.98391">
        <ele>564</ele>
        <time>2019-02-19T07:58:02Z</time>
      </trkpt>
      <trkpt lat="45.789" lon="2.98375">
        <ele>565</ele>
        <time>2019-02-19T07:58:16Z</time>
      </trkpt>
      <trkpt lat="45.78909" lon="2.98353">
        <ele>565</ele>
        <time>2019-02-19T07:58:29Z</time>
      </trkpt>
      <trkpt lat="45.78911" lon="2.98345">
        <ele>565</ele>
        <time>2019-02-19T07:58:34Z</time>
      </trkpt>
      <trkpt lat="45.78915" lon="2.98338">
        <ele>566</ele>
        <time>2019-02-19T07:58:39Z</time>
      </trkpt>
      <trkpt lat="45.7892" lon="2.9832">
        <ele>566</ele>
        <time>2019-02-19T07:58:49Z</time>
      </trkpt>
      <trkpt lat="45.78926" lon="2.98306">
        <ele>567</ele>
        <time>2019-02-19T07:58:58Z</time>
      </trkpt>
      <trkpt lat="45.78939" lon="2.98274">
        <ele>567</ele>
        <time>2019-02-19T07:59:19Z</time>
      </trkpt>
      <trkpt lat="45.78942" lon="2.98268">
        <ele>568</ele>
        <time>2019-02-19T07:59:25Z</time>
      </trkpt>
      <trkpt lat="45.78945" lon="2.98251">
        <ele>569</ele>
        <time>2019-02-19T07:59:40Z</time>
      </trkpt>
      <trkpt lat="45.7895" lon="2.98244">
        <ele>568</ele>
        <time>2019-02-19T07:59:44Z</time>
      </trkpt>
      <trkpt lat="45.78952" lon="2.98234">
        <ele>569</ele>
        <time>2019-02-19T07:59:50Z</time>
      </trkpt>
      <trkpt lat="45.78954" lon="2.98226">
        <ele>569</ele>
        <time>2019-02-19T07:59:55Z</time>
      </trkpt>
      <trkpt lat="45.78957" lon="2.98217">
        <ele>569</ele>
        <time>2019-02-19T07:59:59Z</time>
      </trkpt>
      <trkpt lat="45.7896" lon="2.9821">
        <ele>569</ele>
        <time>2019-02-19T08:00:03Z</time>
      </trkpt>
      <trkpt lat="45.78963" lon="2.98194">
        <ele>570</ele>
        <time>2019-02-19T08:00:13Z</time>
      </trkpt>
      <trkpt lat="45.78968" lon="2.98189">
        <ele>571</ele>
        <time>2019-02-19T08:00:21Z</time>
      </trkpt>
      <trkpt lat="45.78972" lon="2.98183">
        <ele>571</ele>
        <time>2019-02-19T08:00:25Z</time>
      </trkpt>
      <trkpt lat="45.78979" lon="2.98179">
        <ele>571</ele>
        <time>2019-02-19T08:00:32Z</time>
      </trkpt>
      <trkpt lat="45.78989" lon="2.98157">
        <ele>572</ele>
        <time>2019-02-19T08:00:46Z</time>
      </trkpt>
      <trkpt lat="45.78994" lon="2.98141">
        <ele>573</ele>
        <time>2019-02-19T08:00:56Z</time>
      </trkpt>
      <trkpt lat="45.78999" lon="2.98136">
        <ele>573</ele>
        <time>2019-02-19T08:01:01Z</time>
      </trkpt>
      <trkpt lat="45.79002" lon="2.98129">
        <ele>573</ele>
        <time>2019-02-19T08:01:06Z</time>
      </trkpt>
      <trkpt lat="45.79005" lon="2.98118">
        <ele>573</ele>
        <time>2019-02-19T08:01:12Z</time>
      </trkpt>
      <trkpt lat="45.79009" lon="2.98112">
        <ele>573</ele>
        <time>2019-02-19T08:01:16Z</time>
      </trkpt>
      <trkpt lat="45.79019" lon="2.9809">
        <ele>574</ele>
        <time>2019-02-19T08:01:35Z</time>
      </trkpt>
      <trkpt lat="45.79037" lon="2.9807">
        <ele>576</ele>
        <time>2019-02-19T08:01:55Z</time>
      </trkpt>
      <trkpt lat="45.79046" lon="2.98049">
        <ele>577</ele>
        <time>2019-02-19T08:02:09Z</time>
      </trkpt>
      <trkpt lat="45.79051" lon="2.98048">
        <ele>577</ele>
        <time>2019-02-19T08:02:15Z</time>
      </trkpt>
      <trkpt lat="45.79076" lon="2.98004">
        <ele>581</ele>
        <time>2019-02-19T08:02:49Z</time>
      </trkpt>
      <trkpt lat="45.79081" lon="2.98001">
        <ele>582</ele>
        <time>2019-02-19T08:02:55Z</time>
      </trkpt>
      <trkpt lat="45.79108" lon="2.97959">
        <ele>586</ele>
        <time>2019-02-19T08:03:30Z</time>
      </trkpt>
      <trkpt lat="45.7912" lon="2.97949">
        <ele>588</ele>
        <time>2019-02-19T08:03:42Z</time>
      </trkpt>
      <trkpt lat="45.79123" lon="2.9794">
        <ele>588</ele>
        <time>2019-02-19T08:03:47Z</time>
      </trkpt>
      <trkpt lat="45.79123" lon="2.97931">
        <ele>589</ele>
        <time>2019-02-19T08:03:51Z</time>
      </trkpt>
      <trkpt lat="45.79122" lon="2.97924">
        <ele>589</ele>
        <time>2019-02-19T08:03:56Z</time>
      </trkpt>
      <trkpt lat="45.79127" lon="2.97901">
        <ele>591</ele>
        <time>2019-02-19T08:04:12Z</time>
      </trkpt>
      <trkpt lat="45.7913" lon="2.97894">
        <ele>592</ele>
        <time>2019-02-19T08:04:17Z</time>
      </trkpt>
      <trkpt lat="45.79134" lon="2.97881">
        <ele>593</ele>
        <time>2019-02-19T08:04:28Z</time>
      </trkpt>
      <trkpt lat="45.7915" lon="2.97846">
        <ele>596</ele>
        <time>2019-02-19T08:04:59Z</time>
      </trkpt>
      <trkpt lat="45.79156" lon="2.97833">
        <ele>597</ele>
        <time>2019-02-19T08:05:09Z</time>
      </trkpt>
      <trkpt lat="45.7916" lon="2.97823">
        <ele>598</ele>
        <time>2019-02-19T08:05:17Z</time>
      </trkpt>
      <trkpt lat="45.79167" lon="2.97818">
        <ele>599</ele>
        <time>2019-02-19T08:05:27Z</time>
      </trkpt>
      <trkpt lat="45.79194" lon="2.97777">
        <ele>602</ele>
        <time>2019-02-19T08:05:59Z</time>
      </trkpt>
      <trkpt lat="45.79218" lon="2.97739">
        <ele>606</ele>
        <time>2019-02-19T08:06:31Z</time>
      </trkpt>
      <trkpt lat="45.79227" lon="2.97726">
        <ele>609</ele>
        <time>2019-02-19T08:07:18Z</time>
      </trkpt>
      <trkpt lat="45.79232" lon="2.9772">
        <ele>610</ele>
        <time>2019-02-19T08:07:24Z</time>
      </trkpt>
      <trkpt lat="45.79233" lon="2.97713">
        <ele>610</ele>
        <time>2019-02-19T08:07:29Z</time>
      </trkpt>
      <trkpt lat="45.79233" lon="2.97701">
        <ele>611</ele>
        <time>2019-02-19T08:07:37Z</time>
      </trkpt>
      <trkpt lat="45.79231" lon="2.97685">
        <ele>612</ele>
        <time>2019-02-19T08:07:48Z</time>
      </trkpt>
      <trkpt lat="45.79232" lon="2.97676">
        <ele>613</ele>
        <time>2019-02-19T08:07:54Z</time>
      </trkpt>
      <trkpt lat="45.79235" lon="2.97649">
        <ele>616</ele>
        <time>2019-02-19T08:08:13Z</time>
      </trkpt>
      <trkpt lat="45.79235" lon="2.97639">
        <ele>616</ele>
        <time>2019-02-19T08:08:17Z</time>
      </trkpt>
      <trkpt lat="45.79237" lon="2.97615">
        <ele>618</ele>
        <time>2019-02-19T08:08:30Z</time>
      </trkpt>
      <trkpt lat="45.79235" lon="2.97606">
        <ele>619</ele>
        <time>2019-02-19T08:08:37Z</time>
      </trkpt>
      <trkpt lat="45.79231" lon="2.976">
        <ele>619</ele>
        <time>2019-02-19T08:08:41Z</time>
      </trkpt>
      <trkpt lat="45.79231" lon="2.97587">
        <ele>620</ele>
        <time>2019-02-19T08:08:50Z</time>
      </trkpt>
      <trkpt lat="45.79228" lon="2.97572">
        <ele>621</ele>
        <time>2019-02-19T08:09:00Z</time>
      </trkpt>
      <trkpt lat="45.79231" lon="2.97563">
        <ele>622</ele>
        <time>2019-02-19T08:09:08Z</time>
      </trkpt>
      <trkpt lat="45.79231" lon="2.97555">
        <ele>623</ele>
        <time>2019-02-19T08:09:13Z</time>
      </trkpt>
      <trkpt lat="45.79227" lon="2.97521">
        <ele>626</ele>
        <time>2019-02-19T08:09:35Z</time>
      </trkpt>
      <trkpt lat="45.79231" lon="2.97505">
        <ele>627</ele>
        <time>2019-02-19T08:09:46Z</time>
      </trkpt>
      <trkpt lat="45.79231" lon="2.97497">
        <ele>628</ele>
        <time>2019-02-19T08:09:51Z</time>
      </trkpt>
      <trkpt lat="45.79235" lon="2.97491">
        <ele>629</ele>
        <time>2019-02-19T08:09:56Z</time>
      </trkpt>
      <trkpt lat="45.79231" lon="2.97483">
        <ele>630</ele>
        <time>2019-02-19T08:10:04Z</time>
      </trkpt>
      <trkpt lat="45.7923" lon="2.97445">
        <ele>635</ele>
        <time>2019-02-19T08:10:38Z</time>
      </trkpt>
      <trkpt lat="45.7923" lon="2.97422">
        <ele>637</ele>
        <time>2019-02-19T08:10:57Z</time>
      </trkpt>
      <trkpt lat="45.79238" lon="2.97402">
        <ele>640</ele>
        <time>2019-02-19T08:11:18Z</time>
      </trkpt>
      <trkpt lat="45.79238" lon="2.97389">
        <ele>642</ele>
        <time>2019-02-19T08:11:34Z</time>
      </trkpt>
      <trkpt lat="45.79241" lon="2.97378">
        <ele>645</ele>
        <time>2019-02-19T08:11:53Z</time>
      </trkpt>
      <trkpt lat="45.79242" lon="2.97364">
        <ele>647</ele>
        <time>2019-02-19T08:12:06Z</time>
      </trkpt>
      <trkpt lat="45.79246" lon="2.97345">
        <ele>651</ele>
        <time>2019-02-19T08:12:28Z</time>
      </trkpt>
      <trkpt lat="45.79246" lon="2.97332">
        <ele>652</ele>
        <time>2019-02-19T08:12:40Z</time>
      </trkpt>
      <trkpt lat="45.79248" lon="2.9732">
        <ele>654</ele>
        <time>2019-02-19T08:12:52Z</time>
      </trkpt>
      <trkpt lat="45.79254" lon="2.97302">
        <ele>658</ele>
        <time>2019-02-19T08:13:17Z</time>
      </trkpt>
      <trkpt lat="45.79256" lon="2.97278">
        <ele>661</ele>
        <time>2019-02-19T08:13:41Z</time>
      </trkpt>
      <trkpt lat="45.79257" lon="2.9727">
        <ele>663</ele>
        <time>2019-02-19T08:13:51Z</time>
      </trkpt>
      <trkpt lat="45.79256" lon="2.97247">
        <ele>666</ele>
        <time>2019-02-19T08:14:14Z</time>
      </trkpt>
      <trkpt lat="45.79252" lon="2.97238">
        <ele>667</ele>
        <time>2019-02-19T08:14:22Z</time>
      </trkpt>
      <trkpt lat="45.79256" lon="2.97224">
        <ele>669</ele>
        <time>2019-02-19T08:14:40Z</time>
      </trkpt>
      <trkpt lat="45.7926" lon="2.97214">
        <ele>671</ele>
        <time>2019-02-19T08:14:52Z</time>
      </trkpt>
      <trkpt lat="45.79262" lon="2.97202">
        <ele>672</ele>
        <time>2019-02-19T08:15:04Z</time>
      </trkpt>
      <trkpt lat="45.79265" lon="2.97191">
        <ele>675</ele>
        <time>2019-02-19T08:15:22Z</time>
      </trkpt>
      <trkpt lat="45.79266" lon="2.97179">
        <ele>676</ele>
        <time>2019-02-19T08:15:34Z</time>
      </trkpt>
      <trkpt lat="45.79266" lon="2.9717">
        <ele>677</ele>
        <time>2019-02-19T08:15:39Z</time>
      </trkpt>
      <trkpt lat="45.79261" lon="2.9716">
        <ele>679</ele>
        <time>2019-02-19T08:15:53Z</time>
      </trkpt>
      <trkpt lat="45.79261" lon="2.9715">
        <ele>680</ele>
        <time>2019-02-19T08:16:00Z</time>
      </trkpt>
      <trkpt lat="45.79262" lon="2.97142">
        <ele>682</ele>
        <time>2019-02-19T08:16:09Z</time>
      </trkpt>
      <trkpt lat="45.79265" lon="2.97134">
        <ele>682</ele>
        <time>2019-02-19T08:16:14Z</time>
      </trkpt>
      <trkpt lat="45.7927" lon="2.97126">
        <ele>684</ele>
        <time>2019-02-19T08:16:28Z</time>
      </trkpt>
      <trkpt lat="45.79274" lon="2.97119">
        <ele>686</ele>
        <time>2019-02-19T08:16:40Z</time>
      </trkpt>
      <trkpt lat="45.79278" lon="2.9711">
        <ele>688</ele>
        <time>2019-02-19T08:16:52Z</time>
      </trkpt>
      <trkpt lat="45.79283" lon="2.97093">
        <ele>691</ele>
        <time>2019-02-19T08:17:11Z</time>
      </trkpt>
      <trkpt lat="45.79286" lon="2.97086">
        <ele>692</ele>
        <time>2019-02-19T08:17:20Z</time>
      </trkpt>
      <trkpt lat="45.79286" lon="2.97074">
        <ele>694</ele>
        <time>2019-02-19T08:17:32Z</time>
      </trkpt>
      <trkpt lat="45.79291" lon="2.97053">
        <ele>698</ele>
        <time>2019-02-19T08:17:57Z</time>
      </trkpt>
      <trkpt lat="45.79293" lon="2.97041">
        <ele>700</ele>
        <time>2019-02-19T08:18:09Z</time>
      </trkpt>
      <trkpt lat="45.79295" lon="2.97033">
        <ele>701</ele>
        <time>2019-02-19T08:18:16Z</time>
      </trkpt>
      <trkpt lat="45.79298" lon="2.97026">
        <ele>703</ele>
        <time>2019-02-19T08:18:30Z</time>
      </trkpt>
      <trkpt lat="45.79293" lon="2.97013">
        <ele>704</ele>
        <time>2019-02-19T08:18:43Z</time>
      </trkpt>
      <trkpt lat="45.79295" lon="2.97">
        <ele>706</ele>
        <time>2019-02-19T08:18:57Z</time>
      </trkpt>
      <trkpt lat="45.79303" lon="2.96985">
        <ele>709</ele>
        <time>2019-02-19T08:19:12Z</time>
      </trkpt>
      <trkpt lat="45.7931" lon="2.96977">
        <ele>711</ele>
        <time>2019-02-19T08:19:26Z</time>
      </trkpt>
      <trkpt lat="45.79311" lon="2.96966">
        <ele>712</ele>
        <time>2019-02-19T08:19:37Z</time>
      </trkpt>
      <trkpt lat="45.79316" lon="2.96945">
        <ele>716</ele>
        <time>2019-02-19T08:20:03Z</time>
      </trkpt>
      <trkpt lat="45.79317" lon="2.96936">
        <ele>717</ele>
        <time>2019-02-19T08:20:11Z</time>
      </trkpt>
      <trkpt lat="45.79325" lon="2.96916">
        <ele>720</ele>
        <time>2019-02-19T08:20:35Z</time>
      </trkpt>
      <trkpt lat="45.79323" lon="2.96909">
        <ele>720</ele>
        <time>2019-02-19T08:20:40Z</time>
      </trkpt>
      <trkpt lat="45.79324" lon="2.96901">
        <ele>721</ele>
        <time>2019-02-19T08:20:46Z</time>
      </trkpt>
      <trkpt lat="45.7933" lon="2.96897">
        <ele>723</ele>
        <time>2019-02-19T08:20:58Z</time>
      </trkpt>
      <trkpt lat="45.79335" lon="2.96902">
        <ele>724</ele>
        <time>2019-02-19T08:21:26Z</time>
      </trkpt>
      <trkpt lat="45.79339" lon="2.96908">
        <ele>726</ele>
        <time>2019-02-19T08:21:57Z</time>
      </trkpt>
      <trkpt lat="45.79348" lon="2.96938">
        <ele>733</ele>
        <time>2019-02-19T08:22:38Z</time>
      </trkpt>
      <trkpt lat="45.79353" lon="2.96947">
        <ele>734</ele>
        <time>2019-02-19T08:22:49Z</time>
      </trkpt>
      <trkpt lat="45.79358" lon="2.96969">
        <ele>735</ele>
        <time>2019-02-19T08:23:06Z</time>
      </trkpt>
      <trkpt lat="45.7936" lon="2.96977">
        <ele>736</ele>
        <time>2019-02-19T08:23:13Z</time>
      </trkpt>
      <trkpt lat="45.79371" lon="2.96994">
        <ele>742</ele>
        <time>2019-02-19T08:23:39Z</time>
      </trkpt>
      <trkpt lat="45.79386" lon="2.97012">
        <ele>748</ele>
        <time>2019-02-19T08:24:10Z</time>
      </trkpt>
      <trkpt lat="45.79396" lon="2.97022">
        <ele>751</ele>
        <time>2019-02-19T08:24:28Z</time>
      </trkpt>
      <trkpt lat="45.79402" lon="2.9706">
        <ele>757</ele>
        <time>2019-02-19T08:25:07Z</time>
      </trkpt>
      <trkpt lat="45.79414" lon="2.97102">
        <ele>765</ele>
        <time>2019-02-19T08:25:52Z</time>
      </trkpt>
      <trkpt lat="45.7943" lon="2.97152">
        <ele>772</ele>
        <time>2019-02-19T08:26:40Z</time>
      </trkpt>
      <trkpt lat="45.79444" lon="2.97186">
        <ele>777</ele>
        <time>2019-02-19T08:27:12Z</time>
      </trkpt>
      <trkpt lat="45.79449" lon="2.97191">
        <ele>778</ele>
        <time>2019-02-19T08:27:17Z</time>
      </trkpt>
      <trkpt lat="45.79455" lon="2.97205">
        <ele>780</ele>
        <time>2019-02-19T08:27:30Z</time>
      </trkpt>
      <trkpt lat="45.79461" lon="2.97215">
        <ele>781</ele>
        <time>2019-02-19T08:27:41Z</time>
      </trkpt>
      <trkpt lat="45.79468" lon="2.97223">
        <ele>783</ele>
        <time>2019-02-19T08:27:53Z</time>
      </trkpt>
      <trkpt lat="45.79476" lon="2.97231">
        <ele>786</ele>
        <time>2019-02-19T08:28:08Z</time>
      </trkpt>
      <trkpt lat="45.79481" lon="2.97232">
        <ele>789</ele>
        <time>2019-02-19T08:29:22Z</time>
      </trkpt>
      <trkpt lat="45.79485" lon="2.9724">
        <ele>791</ele>
        <time>2019-02-19T08:29:36Z</time>
      </trkpt>
      <trkpt lat="45.79496" lon="2.97246">
        <ele>792</ele>
        <time>2019-02-19T08:29:50Z</time>
      </trkpt>
      <trkpt lat="45.79504" lon="2.97253">
        <ele>796</ele>
        <time>2019-02-19T08:30:05Z</time>
      </trkpt>
      <trkpt lat="45.7951" lon="2.97262">
        <ele>797</ele>
        <time>2019-02-19T08:30:17Z</time>
      </trkpt>
      <trkpt lat="45.79528" lon="2.97279">
        <ele>803</ele>
        <time>2019-02-19T08:30:49Z</time>
      </trkpt>
      <trkpt lat="45.79533" lon="2.97283">
        <ele>805</ele>
        <time>2019-02-19T08:30:58Z</time>
      </trkpt>
      <trkpt lat="45.79539" lon="2.97291">
        <ele>806</ele>
        <time>2019-02-19T08:31:11Z</time>
      </trkpt>
      <trkpt lat="45.79544" lon="2.97298">
        <ele>808</ele>
        <time>2019-02-19T08:31:21Z</time>
      </trkpt>
      <trkpt lat="45.79552" lon="2.97304">
        <ele>810</ele>
        <time>2019-02-19T08:31:33Z</time>
      </trkpt>
      <trkpt lat="45.79563" lon="2.97321">
        <ele>814</ele>
        <time>2019-02-19T08:31:54Z</time>
      </trkpt>
      <trkpt lat="45.79566" lon="2.97328">
        <ele>814</ele>
        <time>2019-02-19T08:31:58Z</time>
      </trkpt>
      <trkpt lat="45.79571" lon="2.97333">
        <ele>816</ele>
        <time>2019-02-19T08:32:07Z</time>
      </trkpt>
      <trkpt lat="45.79576" lon="2.9734">
        <ele>818</ele>
        <time>2019-02-19T08:32:19Z</time>
      </trkpt>
      <trkpt lat="45.79581" lon="2.97343">
        <ele>819</ele>
        <time>2019-02-19T08:32:24Z</time>
      </trkpt>
      <trkpt lat="45.79587" lon="2.97352">
        <ele>821</ele>
        <time>2019-02-19T08:32:36Z</time>
      </trkpt>
      <trkpt lat="45.79592" lon="2.97356">
        <ele>821</ele>
        <time>2019-02-19T08:32:42Z</time>
      </trkpt>
      <trkpt lat="45.79605" lon="2.97363">
        <ele>825</ele>
        <time>2019-02-19T08:33:02Z</time>
      </trkpt>
      <trkpt lat="45.79611" lon="2.97367">
        <ele>827</ele>
        <time>2019-02-19T08:33:10Z</time>
      </trkpt>
      <trkpt lat="45.79618" lon="2.97372">
        <ele>827</ele>
        <time>2019-02-19T08:33:22Z</time>
      </trkpt>
      <trkpt lat="45.79625" lon="2.97376">
        <ele>830</ele>
        <time>2019-02-19T08:33:34Z</time>
      </trkpt>
      <trkpt lat="45.79633" lon="2.97381">
        <ele>833</ele>
        <time>2019-02-19T08:33:46Z</time>
      </trkpt>
      <trkpt lat="45.7964" lon="2.97384">
        <ele>835</ele>
        <time>2019-02-19T08:33:58Z</time>
      </trkpt>
      <trkpt lat="45.79654" lon="2.97372">
        <ele>837</ele>
        <time>2019-02-19T08:34:17Z</time>
      </trkpt>
      <trkpt lat="45.79645" lon="2.97369">
        <ele>835</ele>
        <time>2019-02-19T08:34:58Z</time>
      </trkpt>
      <trkpt lat="45.79639" lon="2.97366">
        <ele>835</ele>
        <time>2019-02-19T08:35:03Z</time>
      </trkpt>
      <trkpt lat="45.79634" lon="2.9736">
        <ele>835</ele>
        <time>2019-02-19T08:35:07Z</time>
      </trkpt>
      <trkpt lat="45.7963" lon="2.97353">
        <ele>835</ele>
        <time>2019-02-19T08:35:12Z</time>
      </trkpt>
      <trkpt lat="45.7962" lon="2.97343">
        <ele>835</ele>
        <time>2019-02-19T08:35:47Z</time>
      </trkpt>
      <trkpt lat="45.79615" lon="2.97336">
        <ele>833</ele>
        <time>2019-02-19T08:35:51Z</time>
      </trkpt>
      <trkpt lat="45.79612" lon="2.97342">
        <ele>834</ele>
        <time>2019-02-19T08:36:03Z</time>
      </trkpt>
      <trkpt lat="45.79619" lon="2.97352">
        <ele>835</ele>
        <time>2019-02-19T08:36:11Z</time>
      </trkpt>
      <trkpt lat="45.79625" lon="2.97356">
        <ele>835</ele>
        <time>2019-02-19T08:36:16Z</time>
      </trkpt>
      <trkpt lat="45.79629" lon="2.97361">
        <ele>835</ele>
        <time>2019-02-19T08:36:20Z</time>
      </trkpt>
      <trkpt lat="45.79634" lon="2.97364">
        <ele>836</ele>
        <time>2019-02-19T08:36:25Z</time>
      </trkpt>
      <trkpt lat="45.7964" lon="2.97365">
        <ele>836</ele>
        <time>2019-02-19T08:36:29Z</time>
      </trkpt>
      <trkpt lat="45.79644" lon="2.9737">
        <ele>836</ele>
        <time>2019-02-19T08:36:33Z</time>
      </trkpt>
      <trkpt lat="45.7965" lon="2.97374">
        <ele>837</ele>
        <time>2019-02-19T08:36:39Z</time>
      </trkpt>
      <trkpt lat="45.79655" lon="2.97382">
        <ele>838</ele>
        <time>2019-02-19T08:36:47Z</time>
      </trkpt>
      <trkpt lat="45.79665" lon="2.97385">
        <ele>839</ele>
        <time>2019-02-19T08:36:57Z</time>
      </trkpt>
      <trkpt lat="45.79671" lon="2.97386">
        <ele>839</ele>
        <time>2019-02-19T08:37:02Z</time>
      </trkpt>
      <trkpt lat="45.79678" lon="2.97384">
        <ele>839</ele>
        <time>2019-02-19T08:37:07Z</time>
      </trkpt>
      <trkpt lat="45.79683" lon="2.97384">
        <ele>838</ele>
        <time>2019-02-19T08:37:11Z</time>
      </trkpt>
      <trkpt lat="45.797" lon="2.9738">
        <ele>836</ele>
        <time>2019-02-19T08:37:23Z</time>
      </trkpt>
      <trkpt lat="45.79715" lon="2.97371">
        <ele>834</ele>
        <time>2019-02-19T08:37:33Z</time>
      </trkpt>
      <trkpt lat="45.79727" lon="2.97369">
        <ele>833</ele>
        <time>2019-02-19T08:37:42Z</time>
      </trkpt>
      <trkpt lat="45.79732" lon="2.97367">
        <ele>833</ele>
        <time>2019-02-19T08:37:46Z</time>
      </trkpt>
      <trkpt lat="45.79739" lon="2.97364">
        <ele>832</ele>
        <time>2019-02-19T08:37:51Z</time>
      </trkpt>
      <trkpt lat="45.79754" lon="2.97353">
        <ele>829</ele>
        <time>2019-02-19T08:38:04Z</time>
      </trkpt>
      <trkpt lat="45.79759" lon="2.97346">
        <ele>829</ele>
        <time>2019-02-19T08:38:08Z</time>
      </trkpt>
      <trkpt lat="45.79761" lon="2.97339">
        <ele>829</ele>
        <time>2019-02-19T08:38:13Z</time>
      </trkpt>
      <trkpt lat="45.79771" lon="2.97331">
        <ele>828</ele>
        <time>2019-02-19T08:38:23Z</time>
      </trkpt>
      <trkpt lat="45.79775" lon="2.97323">
        <ele>828</ele>
        <time>2019-02-19T08:38:28Z</time>
      </trkpt>
      <trkpt lat="45.79783" lon="2.97312">
        <ele>826</ele>
        <time>2019-02-19T08:38:35Z</time>
      </trkpt>
      <trkpt lat="45.79787" lon="2.97306">
        <ele>826</ele>
        <time>2019-02-19T08:38:39Z</time>
      </trkpt>
      <trkpt lat="45.79796" lon="2.97284">
        <ele>824</ele>
        <time>2019-02-19T08:38:53Z</time>
      </trkpt>
      <trkpt lat="45.79799" lon="2.97276">
        <ele>823</ele>
        <time>2019-02-19T08:38:58Z</time>
      </trkpt>
      <trkpt lat="45.79806" lon="2.9725">
        <ele>822</ele>
        <time>2019-02-19T08:39:12Z</time>
      </trkpt>
      <trkpt lat="45.79808" lon="2.97241">
        <ele>821</ele>
        <time>2019-02-19T08:39:17Z</time>
      </trkpt>
      <trkpt lat="45.79809" lon="2.97233">
        <ele>821</ele>
        <time>2019-02-19T08:39:21Z</time>
      </trkpt>
      <trkpt lat="45.79811" lon="2.97225">
        <ele>819</ele>
        <time>2019-02-19T08:39:26Z</time>
      </trkpt>
      <trkpt lat="45.79813" lon="2.97217">
        <ele>819</ele>
        <time>2019-02-19T08:39:31Z</time>
      </trkpt>
      <trkpt lat="45.79811" lon="2.97157">
        <ele>815</ele>
        <time>2019-02-19T08:40:17Z</time>
      </trkpt>
      <trkpt lat="45.79811" lon="2.97147">
        <ele>815</ele>
        <time>2019-02-19T08:40:23Z</time>
      </trkpt>
      <trkpt lat="45.79808" lon="2.97131">
        <ele>813</ele>
        <time>2019-02-19T08:40:32Z</time>
      </trkpt>
      <trkpt lat="45.79808" lon="2.97122">
        <ele>813</ele>
        <time>2019-02-19T08:40:38Z</time>
      </trkpt>
      <trkpt lat="45.79803" lon="2.97108">
        <ele>813</ele>
        <time>2019-02-19T08:40:58Z</time>
      </trkpt>
      <trkpt lat="45.79799" lon="2.97103">
        <ele>813</ele>
        <time>2019-02-19T08:41:02Z</time>
      </trkpt>
      <trkpt lat="45.79795" lon="2.97075">
        <ele>814</ele>
        <time>2019-02-19T08:41:18Z</time>
      </trkpt>
      <trkpt lat="45.79791" lon="2.97069">
        <ele>814</ele>
        <time>2019-02-19T08:41:23Z</time>
      </trkpt>
      <trkpt lat="45.79787" lon="2.97064">
        <ele>814</ele>
        <time>2019-02-19T08:41:27Z</time>
      </trkpt>
      <trkpt lat="45.79783" lon="2.97057">
        <ele>814</ele>
        <time>2019-02-19T08:41:32Z</time>
      </trkpt>
      <trkpt lat="45.79783" lon="2.97049">
        <ele>814</ele>
        <time>2019-02-19T08:41:43Z</time>
      </trkpt>
      <trkpt lat="45.79779" lon="2.97031">
        <ele>816</ele>
        <time>2019-02-19T08:42:01Z</time>
      </trkpt>
      <trkpt lat="45.79777" lon="2.97014">
        <ele>816</ele>
        <time>2019-02-19T08:42:12Z</time>
      </trkpt>
      <trkpt lat="45.79776" lon="2.97019">
        <ele>816</ele>
        <time>2019-02-19T08:42:47Z</time>
      </trkpt>
      <trkpt lat="45.79778" lon="2.97026">
        <ele>816</ele>
        <time>2019-02-19T08:42:51Z</time>
      </trkpt>
      <trkpt lat="45.7978" lon="2.97033">
        <ele>816</ele>
        <time>2019-02-19T08:42:56Z</time>
      </trkpt>
      <trkpt lat="45.79779" lon="2.97041">
        <ele>816</ele>
        <time>2019-02-19T08:43:01Z</time>
      </trkpt>
      <trkpt lat="45.79781" lon="2.97053">
        <ele>815</ele>
        <time>2019-02-19T08:43:08Z</time>
      </trkpt>
      <trkpt lat="45.79785" lon="2.97059">
        <ele>815</ele>
        <time>2019-02-19T08:43:12Z</time>
      </trkpt>
      <trkpt lat="45.79789" lon="2.97066">
        <ele>815</ele>
        <time>2019-02-19T08:43:16Z</time>
      </trkpt>
      <trkpt lat="45.79799" lon="2.97097">
        <ele>814</ele>
        <time>2019-02-19T08:43:36Z</time>
      </trkpt>
      <trkpt lat="45.79802" lon="2.97106">
        <ele>815</ele>
        <time>2019-02-19T08:43:41Z</time>
      </trkpt>
      <trkpt lat="45.7981" lon="2.97123">
        <ele>814</ele>
        <time>2019-02-19T08:43:54Z</time>
      </trkpt>
      <trkpt lat="45.79813" lon="2.97153">
        <ele>815</ele>
        <time>2019-02-19T08:44:22Z</time>
      </trkpt>
      <trkpt lat="45.79817" lon="2.97162">
        <ele>816</ele>
        <time>2019-02-19T08:44:30Z</time>
      </trkpt>
      <trkpt lat="45.79818" lon="2.9717">
        <ele>816</ele>
        <time>2019-02-19T08:44:36Z</time>
      </trkpt>
      <trkpt lat="45.79819" lon="2.97178">
        <ele>817</ele>
        <time>2019-02-19T08:44:41Z</time>
      </trkpt>
      <trkpt lat="45.79819" lon="2.97186">
        <ele>818</ele>
        <time>2019-02-19T08:44:49Z</time>
      </trkpt>
      <trkpt lat="45.79818" lon="2.97195">
        <ele>819</ele>
        <time>2019-02-19T08:44:55Z</time>
      </trkpt>
      <trkpt lat="45.79818" lon="2.97204">
        <ele>819</ele>
        <time>2019-02-19T08:45:00Z</time>
      </trkpt>
      <trkpt lat="45.79818" lon="2.97212">
        <ele>819</ele>
        <time>2019-02-19T08:45:06Z</time>
      </trkpt>
      <trkpt lat="45.79816" lon="2.97232">
        <ele>822</ele>
        <time>2019-02-19T08:45:20Z</time>
      </trkpt>
      <trkpt lat="45.79812" lon="2.97241">
        <ele>823</ele>
        <time>2019-02-19T08:45:29Z</time>
      </trkpt>
      <trkpt lat="45.79811" lon="2.97251">
        <ele>824</ele>
        <time>2019-02-19T08:45:38Z</time>
      </trkpt>
      <trkpt lat="45.79807" lon="2.97257">
        <ele>824</ele>
        <time>2019-02-19T08:45:43Z</time>
      </trkpt>
      <trkpt lat="45.79804" lon="2.97273">
        <ele>825</ele>
        <time>2019-02-19T08:45:54Z</time>
      </trkpt>
      <trkpt lat="45.79799" lon="2.97281">
        <ele>826</ele>
        <time>2019-02-19T08:46:01Z</time>
      </trkpt>
      <trkpt lat="45.79796" lon="2.97287">
        <ele>826</ele>
        <time>2019-02-19T08:46:06Z</time>
      </trkpt>
      <trkpt lat="45.79791" lon="2.97295">
        <ele>827</ele>
        <time>2019-02-19T08:46:13Z</time>
      </trkpt>
      <trkpt lat="45.79786" lon="2.97302">
        <ele>828</ele>
        <time>2019-02-19T08:46:22Z</time>
      </trkpt>
      <trkpt lat="45.79783" lon="2.97312">
        <ele>829</ele>
        <time>2019-02-19T08:46:30Z</time>
      </trkpt>
      <trkpt lat="45.79774" lon="2.97319">
        <ele>830</ele>
        <time>2019-02-19T08:46:41Z</time>
      </trkpt>
      <trkpt lat="45.79764" lon="2.97332">
        <ele>832</ele>
        <time>2019-02-19T08:46:55Z</time>
      </trkpt>
      <trkpt lat="45.79759" lon="2.97338">
        <ele>831</ele>
        <time>2019-02-19T08:46:59Z</time>
      </trkpt>
      <trkpt lat="45.79748" lon="2.97349">
        <ele>833</ele>
        <time>2019-02-19T08:47:11Z</time>
      </trkpt>
      <trkpt lat="45.79737" lon="2.97362">
        <ele>835</ele>
        <time>2019-02-19T08:47:25Z</time>
      </trkpt>
      <trkpt lat="45.79731" lon="2.97362">
        <ele>835</ele>
        <time>2019-02-19T08:47:29Z</time>
      </trkpt>
      <trkpt lat="45.79726" lon="2.97362">
        <ele>836</ele>
        <time>2019-02-19T08:47:35Z</time>
      </trkpt>
      <trkpt lat="45.79714" lon="2.97372">
        <ele>838</ele>
        <time>2019-02-19T08:47:48Z</time>
      </trkpt>
      <trkpt lat="45.79706" lon="2.97374">
        <ele>838</ele>
        <time>2019-02-19T08:47:58Z</time>
      </trkpt>
      <trkpt lat="45.79699" lon="2.97378">
        <ele>839</ele>
        <time>2019-02-19T08:48:06Z</time>
      </trkpt>
      <trkpt lat="45.79683" lon="2.97381">
        <ele>842</ele>
        <time>2019-02-19T08:48:24Z</time>
      </trkpt>
      <trkpt lat="45.79677" lon="2.97383">
        <ele>843</ele>
        <time>2019-02-19T08:48:30Z</time>
      </trkpt>
      <trkpt lat="45.79671" lon="2.97384">
        <ele>844</ele>
        <time>2019-02-19T08:48:35Z</time>
      </trkpt>
      <trkpt lat="45.79665" lon="2.97382">
        <ele>844</ele>
        <time>2019-02-19T08:48:40Z</time>
      </trkpt>
      <trkpt lat="45.79654" lon="2.97378">
        <ele>844</ele>
        <time>2019-02-19T08:48:49Z</time>
      </trkpt>
      <trkpt lat="45.79643" lon="2.97378">
        <ele>844</ele>
        <time>2019-02-19T08:48:57Z</time>
      </trkpt>
      <trkpt lat="45.79636" lon="2.9738">
        <ele>843</ele>
        <time>2019-02-19T08:49:06Z</time>
      </trkpt>
      <trkpt lat="45.79604" lon="2.97365">
        <ele>836</ele>
        <time>2019-02-19T08:49:39Z</time>
      </trkpt>
      <trkpt lat="45.79585" lon="2.97349">
        <ele>832</ele>
        <time>2019-02-19T08:50:00Z</time>
      </trkpt>
      <trkpt lat="45.79559" lon="2.97318">
        <ele>825</ele>
        <time>2019-02-19T08:50:33Z</time>
      </trkpt>
      <trkpt lat="45.79549" lon="2.97303">
        <ele>822</ele>
        <time>2019-02-19T08:50:47Z</time>
      </trkpt>
      <trkpt lat="45.79522" lon="2.97274">
        <ele>815</ele>
        <time>2019-02-19T08:51:18Z</time>
      </trkpt>
      <trkpt lat="45.79498" lon="2.97249">
        <ele>807</ele>
        <time>2019-02-19T08:51:51Z</time>
      </trkpt>
      <trkpt lat="45.79487" lon="2.97241">
        <ele>804</ele>
        <time>2019-02-19T08:52:02Z</time>
      </trkpt>
      <trkpt lat="45.79477" lon="2.97226">
        <ele>801</ele>
        <time>2019-02-19T08:52:20Z</time>
      </trkpt>
      <trkpt lat="45.79456" lon="2.97206">
        <ele>796</ele>
        <time>2019-02-19T08:52:41Z</time>
      </trkpt>
      <trkpt lat="45.79441" lon="2.97177">
        <ele>791</ele>
        <time>2019-02-19T08:53:03Z</time>
      </trkpt>
      <trkpt lat="45.79437" lon="2.9717">
        <ele>792</ele>
        <time>2019-02-19T08:53:07Z</time>
      </trkpt>
      <trkpt lat="45.79423" lon="2.97153">
        <ele>788</ele>
        <time>2019-02-19T08:53:22Z</time>
      </trkpt>
      <trkpt lat="45.79397" lon="2.9711">
        <ele>780</ele>
        <time>2019-02-19T08:54:00Z</time>
      </trkpt>
      <trkpt lat="45.79382" lon="2.97081">
        <ele>776</ele>
        <time>2019-02-19T08:54:33Z</time>
      </trkpt>
      <trkpt lat="45.79372" lon="2.97063">
        <ele>772</ele>
        <time>2019-02-19T08:54:49Z</time>
      </trkpt>
      <trkpt lat="45.79364" lon="2.97031">
        <ele>767</ele>
        <time>2019-02-19T08:55:10Z</time>
      </trkpt>
      <trkpt lat="45.79357" lon="2.97013">
        <ele>763</ele>
        <time>2019-02-19T08:55:28Z</time>
      </trkpt>
      <trkpt lat="45.79354" lon="2.97004">
        <ele>761</ele>
        <time>2019-02-19T08:55:36Z</time>
      </trkpt>
      <trkpt lat="45.7935" lon="2.96997">
        <ele>759</ele>
        <time>2019-02-19T08:55:44Z</time>
      </trkpt>
      <trkpt lat="45.79344" lon="2.96979">
        <ele>754</ele>
        <time>2019-02-19T08:56:00Z</time>
      </trkpt>
      <trkpt lat="45.79343" lon="2.96963">
        <ele>753</ele>
        <time>2019-02-19T08:56:09Z</time>
      </trkpt>
      <trkpt lat="45.79344" lon="2.96955">
        <ele>753</ele>
        <time>2019-02-19T08:56:15Z</time>
      </trkpt>
      <trkpt lat="45.79346" lon="2.96937">
        <ele>752</ele>
        <time>2019-02-19T08:56:29Z</time>
      </trkpt>
      <trkpt lat="45.79347" lon="2.96924">
        <ele>750</ele>
        <time>2019-02-19T08:56:38Z</time>
      </trkpt>
      <trkpt lat="45.7934" lon="2.96909">
        <ele>747</ele>
        <time>2019-02-19T08:56:51Z</time>
      </trkpt>
      <trkpt lat="45.79335" lon="2.96907">
        <ele>745</ele>
        <time>2019-02-19T08:56:56Z</time>
      </trkpt>
      <trkpt lat="45.7933" lon="2.96898">
        <ele>745</ele>
        <time>2019-02-19T08:57:03Z</time>
      </trkpt>
      <trkpt lat="45.79331" lon="2.96867">
        <ele>747</ele>
        <time>2019-02-19T08:59:16Z</time>
      </trkpt>
      <trkpt lat="45.79332" lon="2.96861">
        <ele>747</ele>
        <time>2019-02-19T08:59:20Z</time>
      </trkpt>
      <trkpt lat="45.79332" lon="2.96853">
        <ele>746</ele>
        <time>2019-02-19T08:59:25Z</time>
      </trkpt>
      <trkpt lat="45.79332" lon="2.96839">
        <ele>747</ele>
        <time>2019-02-19T08:59:32Z</time>
      </trkpt>
      <trkpt lat="45.79337" lon="2.96832">
        <ele>746</ele>
        <time>2019-02-19T08:59:37Z</time>
      </trkpt>
      <trkpt lat="45.79341" lon="2.96818">
        <ele>745</ele>
        <time>2019-02-19T08:59:46Z</time>
      </trkpt>
      <trkpt lat="45.79342" lon="2.96809">
        <ele>746</ele>
        <time>2019-02-19T08:59:51Z</time>
      </trkpt>
      <trkpt lat="45.79344" lon="2.96801">
        <ele>746</ele>
        <time>2019-02-19T08:59:55Z</time>
      </trkpt>
      <trkpt lat="45.79348" lon="2.9679">
        <ele>744</ele>
        <time>2019-02-19T09:00:00Z</time>
      </trkpt>
      <trkpt lat="45.7935" lon="2.96782">
        <ele>743</ele>
        <time>2019-02-19T09:00:05Z</time>
      </trkpt>
      <trkpt lat="45.79353" lon="2.96773">
        <ele>743</ele>
        <time>2019-02-19T09:00:10Z</time>
      </trkpt>
      <trkpt lat="45.79357" lon="2.96769">
        <ele>743</ele>
        <time>2019-02-19T09:00:14Z</time>
      </trkpt>
      <trkpt lat="45.7936" lon="2.96762">
        <ele>742</ele>
        <time>2019-02-19T09:00:17Z</time>
      </trkpt>
      <trkpt lat="45.79362" lon="2.96754">
        <ele>742</ele>
        <time>2019-02-19T09:00:21Z</time>
      </trkpt>
      <trkpt lat="45.79364" lon="2.96745">
        <ele>741</ele>
        <time>2019-02-19T09:00:27Z</time>
      </trkpt>
      <trkpt lat="45.79369" lon="2.9674">
        <ele>739</ele>
        <time>2019-02-19T09:00:32Z</time>
      </trkpt>
      <trkpt lat="45.79372" lon="2.96734">
        <ele>739</ele>
        <time>2019-02-19T09:00:36Z</time>
      </trkpt>
      <trkpt lat="45.79381" lon="2.96709">
        <ele>737</ele>
        <time>2019-02-19T09:00:47Z</time>
      </trkpt>
      <trkpt lat="45.79396" lon="2.96675">
        <ele>733</ele>
        <time>2019-02-19T09:01:06Z</time>
      </trkpt>
      <trkpt lat="45.79385" lon="2.9664">
        <ele>729</ele>
        <time>2019-02-19T09:01:33Z</time>
      </trkpt>
      <trkpt lat="45.79378" lon="2.96622">
        <ele>729</ele>
        <time>2019-02-19T09:01:46Z</time>
      </trkpt>
      <trkpt lat="45.79377" lon="2.96599">
        <ele>732</ele>
        <time>2019-02-19T09:02:00Z</time>
      </trkpt>
      <trkpt lat="45.79367" lon="2.96573">
        <ele>731</ele>
        <time>2019-02-19T09:02:21Z</time>
      </trkpt>
      <trkpt lat="45.79347" lon="2.9653">
        <ele>736</ele>
        <time>2019-02-19T09:03:01Z</time>
      </trkpt>
      <trkpt lat="45.79342" lon="2.9651">
        <ele>737</ele>
        <time>2019-02-19T09:03:15Z</time>
      </trkpt>
      <trkpt lat="45.79346" lon="2.9649">
        <ele>739</ele>
        <time>2019-02-19T09:03:31Z</time>
      </trkpt>
      <trkpt lat="45.79341" lon="2.96469">
        <ele>742</ele>
        <time>2019-02-19T09:04:00Z</time>
      </trkpt>
      <trkpt lat="45.79324" lon="2.96449">
        <ele>746</ele>
        <time>2019-02-19T09:04:27Z</time>
      </trkpt>
      <trkpt lat="45.79315" lon="2.96425">
        <ele>749</ele>
        <time>2019-02-19T09:04:59Z</time>
      </trkpt>
      <trkpt lat="45.79311" lon="2.96403">
        <ele>753</ele>
        <time>2019-02-19T09:05:29Z</time>
      </trkpt>
      <trkpt lat="45.79305" lon="2.96382">
        <ele>755</ele>
        <time>2019-02-19T09:05:42Z</time>
      </trkpt>
      <trkpt lat="45.79295" lon="2.96367">
        <ele>757</ele>
        <time>2019-02-19T09:05:57Z</time>
      </trkpt>
      <trkpt lat="45.79293" lon="2.96338">
        <ele>757</ele>
        <time>2019-02-19T09:06:22Z</time>
      </trkpt>
      <trkpt lat="45.79268" lon="2.96299">
        <ele>761</ele>
        <time>2019-02-19T09:07:00Z</time>
      </trkpt>
      <trkpt lat="45.79259" lon="2.96283">
        <ele>762</ele>
        <time>2019-02-19T09:07:14Z</time>
      </trkpt>
      <trkpt lat="45.79236" lon="2.96245">
        <ele>765</ele>
        <time>2019-02-19T09:07:49Z</time>
      </trkpt>
      <trkpt lat="45.79224" lon="2.962">
        <ele>769</ele>
        <time>2019-02-19T09:08:26Z</time>
      </trkpt>
      <trkpt lat="45.79217" lon="2.96149">
        <ele>771</ele>
        <time>2019-02-19T09:09:14Z</time>
      </trkpt>
      <trkpt lat="45.79203" lon="2.96098">
        <ele>774</ele>
        <time>2019-02-19T09:09:59Z</time>
      </trkpt>
      <trkpt lat="45.79203" lon="2.96076">
        <ele>774</ele>
        <time>2019-02-19T09:10:14Z</time>
      </trkpt>
      <trkpt lat="45.79205" lon="2.96055">
        <ele>776</ele>
        <time>2019-02-19T09:10:29Z</time>
      </trkpt>
      <trkpt lat="45.79203" lon="2.96031">
        <ele>777</ele>
        <time>2019-02-19T09:10:45Z</time>
      </trkpt>
      <trkpt lat="45.79207" lon="2.95997">
        <ele>779</ele>
        <time>2019-02-19T09:11:14Z</time>
      </trkpt>
      <trkpt lat="45.79219" lon="2.9598">
        <ele>783</ele>
        <time>2019-02-19T09:11:53Z</time>
      </trkpt>
      <trkpt lat="45.79234" lon="2.95975">
        <ele>788</ele>
        <time>2019-02-19T09:12:23Z</time>
      </trkpt>
      <trkpt lat="45.79253" lon="2.95964">
        <ele>793</ele>
        <time>2019-02-19T09:12:59Z</time>
      </trkpt>
      <trkpt lat="45.79283" lon="2.95943">
        <ele>800</ele>
        <time>2019-02-19T09:13:53Z</time>
      </trkpt>
      <trkpt lat="45.79297" lon="2.95931">
        <ele>805</ele>
        <time>2019-02-19T09:14:39Z</time>
      </trkpt>
      <trkpt lat="45.79319" lon="2.95901">
        <ele>812</ele>
        <time>2019-02-19T09:15:24Z</time>
      </trkpt>
      <trkpt lat="45.79334" lon="2.95881">
        <ele>816</ele>
        <time>2019-02-19T09:15:49Z</time>
      </trkpt>
      <trkpt lat="45.79338" lon="2.95875">
        <ele>816</ele>
        <time>2019-02-19T09:15:54Z</time>
      </trkpt>
      <trkpt lat="45.79342" lon="2.9587">
        <ele>817</ele>
        <time>2019-02-19T09:16:00Z</time>
      </trkpt>
      <trkpt lat="45.7935" lon="2.95866">
        <ele>818</ele>
        <time>2019-02-19T09:16:09Z</time>
      </trkpt>
      <trkpt lat="45.79354" lon="2.95859">
        <ele>819</ele>
        <time>2019-02-19T09:16:14Z</time>
      </trkpt>
      <trkpt lat="45.79361" lon="2.9585">
        <ele>819</ele>
        <time>2019-02-19T09:16:21Z</time>
      </trkpt>
      <trkpt lat="45.79384" lon="2.95831">
        <ele>825</ele>
        <time>2019-02-19T09:16:59Z</time>
      </trkpt>
      <trkpt lat="45.79398" lon="2.95826">
        <ele>831</ele>
        <time>2019-02-19T09:17:51Z</time>
      </trkpt>
      <trkpt lat="45.79385" lon="2.95854">
        <ele>833</ele>
        <time>2019-02-19T09:18:23Z</time>
      </trkpt>
      <trkpt lat="45.79392" lon="2.95873">
        <ele>839</ele>
        <time>2019-02-19T09:19:19Z</time>
      </trkpt>
      <trkpt lat="45.79396" lon="2.95915">
        <ele>850</ele>
        <time>2019-02-19T09:21:06Z</time>
      </trkpt>
      <trkpt lat="45.79397" lon="2.95939">
        <ele>855</ele>
        <time>2019-02-19T09:21:36Z</time>
      </trkpt>
      <trkpt lat="45.79401" lon="2.95963">
        <ele>861</ele>
        <time>2019-02-19T09:22:18Z</time>
      </trkpt>
      <trkpt lat="45.79393" lon="2.9599">
        <ele>864</ele>
        <time>2019-02-19T09:22:39Z</time>
      </trkpt>
      <trkpt lat="45.79401" lon="2.9601">
        <ele>865</ele>
        <time>2019-02-19T09:22:55Z</time>
      </trkpt>
      <trkpt lat="45.79413" lon="2.96027">
        <ele>867</ele>
        <time>2019-02-19T09:23:13Z</time>
      </trkpt>
      <trkpt lat="45.79429" lon="2.96014">
        <ele>871</ele>
        <time>2019-02-19T09:23:36Z</time>
      </trkpt>
      <trkpt lat="45.79438" lon="2.96009">
        <ele>873</ele>
        <time>2019-02-19T09:24:06Z</time>
      </trkpt>
      <trkpt lat="45.79441" lon="2.95999">
        <ele>874</ele>
        <time>2019-02-19T09:25:03Z</time>
      </trkpt>
      <trkpt lat="45.79433" lon="2.95977">
        <ele>876</ele>
        <time>2019-02-19T09:27:16Z</time>
      </trkpt>
      <trkpt lat="45.79432" lon="2.9597">
        <ele>876</ele>
        <time>2019-02-19T09:27:21Z</time>
      </trkpt>
      <trkpt lat="45.79433" lon="2.95961">
        <ele>876</ele>
        <time>2019-02-19T09:27:27Z</time>
      </trkpt>
      <trkpt lat="45.79434" lon="2.95953">
        <ele>876</ele>
        <time>2019-02-19T09:27:33Z</time>
      </trkpt>
      <trkpt lat="45.79438" lon="2.95946">
        <ele>876</ele>
        <time>2019-02-19T09:27:54Z</time>
      </trkpt>
      <trkpt lat="45.79441" lon="2.95939">
        <ele>876</ele>
        <time>2019-02-19T09:28:19Z</time>
      </trkpt>
      <trkpt lat="45.79425" lon="2.959">
        <ele>871</ele>
        <time>2019-02-19T09:28:46Z</time>
      </trkpt>
      <trkpt lat="45.79424" lon="2.95884">
        <ele>866</ele>
        <time>2019-02-19T09:29:05Z</time>
      </trkpt>
      <trkpt lat="45.79436" lon="2.95874">
        <ele>863</ele>
        <time>2019-02-19T09:29:34Z</time>
      </trkpt>
      <trkpt lat="45.79428" lon="2.9587">
        <ele>861</ele>
        <time>2019-02-19T09:29:41Z</time>
      </trkpt>
      <trkpt lat="45.79422" lon="2.95873">
        <ele>859</ele>
        <time>2019-02-19T09:29:49Z</time>
      </trkpt>
      <trkpt lat="45.79414" lon="2.95875">
        <ele>859</ele>
        <time>2019-02-19T09:30:08Z</time>
      </trkpt>
      <trkpt lat="45.79405" lon="2.95873">
        <ele>857</ele>
        <time>2019-02-19T09:30:19Z</time>
      </trkpt>
      <trkpt lat="45.79398" lon="2.95879">
        <ele>855</ele>
        <time>2019-02-19T09:30:27Z</time>
      </trkpt>
      <trkpt lat="45.79382" lon="2.95841">
        <ele>840</ele>
        <time>2019-02-19T09:31:13Z</time>
      </trkpt>
      <trkpt lat="45.79372" lon="2.95841">
        <ele>831</ele>
        <time>2019-02-19T09:32:03Z</time>
      </trkpt>
      <trkpt lat="45.79359" lon="2.95852">
        <ele>828</ele>
        <time>2019-02-19T09:32:17Z</time>
      </trkpt>
      <trkpt lat="45.79349" lon="2.95869">
        <ele>827</ele>
        <time>2019-02-19T09:32:40Z</time>
      </trkpt>
      <trkpt lat="45.79342" lon="2.95889">
        <ele>824</ele>
        <time>2019-02-19T09:32:52Z</time>
      </trkpt>
      <trkpt lat="45.79319" lon="2.95924">
        <ele>816</ele>
        <time>2019-02-19T09:33:44Z</time>
      </trkpt>
      <trkpt lat="45.79314" lon="2.95931">
        <ele>811</ele>
        <time>2019-02-19T09:33:49Z</time>
      </trkpt>
      <trkpt lat="45.79306" lon="2.95937">
        <ele>811</ele>
        <time>2019-02-19T09:33:58Z</time>
      </trkpt>
      <trkpt lat="45.79276" lon="2.95974">
        <ele>799</ele>
        <time>2019-02-19T09:34:33Z</time>
      </trkpt>
      <trkpt lat="45.7925" lon="2.95994">
        <ele>793</ele>
        <time>2019-02-19T09:35:00Z</time>
      </trkpt>
      <trkpt lat="45.79237" lon="2.96002">
        <ele>793</ele>
        <time>2019-02-19T09:35:12Z</time>
      </trkpt>
      <trkpt lat="45.79224" lon="2.96012">
        <ele>795</ele>
        <time>2019-02-19T09:35:25Z</time>
      </trkpt>
      <trkpt lat="45.79196" lon="2.96007">
        <ele>800</ele>
        <time>2019-02-19T09:36:04Z</time>
      </trkpt>
      <trkpt lat="45.79185" lon="2.95986">
        <ele>814</ele>
        <time>2019-02-19T09:37:41Z</time>
      </trkpt>
      <trkpt lat="45.7915" lon="2.95964">
        <ele>823</ele>
        <time>2019-02-19T09:38:36Z</time>
      </trkpt>
      <trkpt lat="45.79117" lon="2.95957">
        <ele>836</ele>
        <time>2019-02-19T09:40:09Z</time>
      </trkpt>
      <trkpt lat="45.79091" lon="2.95941">
        <ele>845</ele>
        <time>2019-02-19T09:41:24Z</time>
      </trkpt>
      <trkpt lat="45.79048" lon="2.95917">
        <ele>851</ele>
        <time>2019-02-19T09:42:26Z</time>
      </trkpt>
      <trkpt lat="45.79034" lon="2.9591">
        <ele>852</ele>
        <time>2019-02-19T09:42:38Z</time>
      </trkpt>
      <trkpt lat="45.79015" lon="2.95904">
        <ele>854</ele>
        <time>2019-02-19T09:42:56Z</time>
      </trkpt>
      <trkpt lat="45.79" lon="2.95914">
        <ele>855</ele>
        <time>2019-02-19T09:43:25Z</time>
      </trkpt>
      <trkpt lat="45.78997" lon="2.95944">
        <ele>860</ele>
        <time>2019-02-19T09:44:15Z</time>
      </trkpt>
      <trkpt lat="45.7899" lon="2.9599">
        <ele>871</ele>
        <time>2019-02-19T09:45:16Z</time>
      </trkpt>
      <trkpt lat="45.78986" lon="2.95999">
        <ele>873</ele>
        <time>2019-02-19T09:45:33Z</time>
      </trkpt>
      <trkpt lat="45.78983" lon="2.96006">
        <ele>874</ele>
        <time>2019-02-19T09:45:43Z</time>
      </trkpt>
      <trkpt lat="45.78981" lon="2.96019">
        <ele>878</ele>
        <time>2019-02-19T09:45:59Z</time>
      </trkpt>
      <trkpt lat="45.78976" lon="2.9603">
        <ele>879</ele>
        <time>2019-02-19T09:46:10Z</time>
      </trkpt>
      <trkpt lat="45.78973" lon="2.96053">
        <ele>882</ele>
        <time>2019-02-19T09:46:33Z</time>
      </trkpt>
      <trkpt lat="45.78971" lon="2.9606">
        <ele>883</ele>
        <time>2019-02-19T09:46:39Z</time>
      </trkpt>
      <trkpt lat="45.78966" lon="2.96069">
        <ele>884</ele>
        <time>2019-02-19T09:46:48Z</time>
      </trkpt>
      <trkpt lat="45.78965" lon="2.96086">
        <ele>885</ele>
        <time>2019-02-19T09:47:00Z</time>
      </trkpt>
      <trkpt lat="45.78963" lon="2.96094">
        <ele>885</ele>
        <time>2019-02-19T09:47:09Z</time>
      </trkpt>
      <trkpt lat="45.78963" lon="2.96103">
        <ele>885</ele>
        <time>2019-02-19T09:47:14Z</time>
      </trkpt>
      <trkpt lat="45.78963" lon="2.96115">
        <ele>885</ele>
        <time>2019-02-19T09:47:23Z</time>
      </trkpt>
      <trkpt lat="45.7897" lon="2.9613">
        <ele>886</ele>
        <time>2019-02-19T09:47:33Z</time>
      </trkpt>
      <trkpt lat="45.78975" lon="2.96136">
        <ele>886</ele>
        <time>2019-02-19T09:47:40Z</time>
      </trkpt>
      <trkpt lat="45.78983" lon="2.96133">
        <ele>887</ele>
        <time>2019-02-19T09:47:49Z</time>
      </trkpt>
      <trkpt lat="45.78989" lon="2.96134">
        <ele>887</ele>
        <time>2019-02-19T09:47:57Z</time>
      </trkpt>
      <trkpt lat="45.78994" lon="2.96132">
        <ele>887</ele>
        <time>2019-02-19T09:49:03Z</time>
      </trkpt>
      <trkpt lat="45.78991" lon="2.96119">
        <ele>888</ele>
        <time>2019-02-19T09:49:40Z</time>
      </trkpt>
      <trkpt lat="45.78987" lon="2.96103">
        <ele>888</ele>
        <time>2019-02-19T09:49:49Z</time>
      </trkpt>
      <trkpt lat="45.78982" lon="2.96085">
        <ele>887</ele>
        <time>2019-02-19T09:49:57Z</time>
      </trkpt>
      <trkpt lat="45.78981" lon="2.96076">
        <ele>887</ele>
        <time>2019-02-19T09:50:02Z</time>
      </trkpt>
      <trkpt lat="45.7898" lon="2.96067">
        <ele>886</ele>
        <time>2019-02-19T09:50:06Z</time>
      </trkpt>
      <trkpt lat="45.7898" lon="2.9605">
        <ele>883</ele>
        <time>2019-02-19T09:50:15Z</time>
      </trkpt>
      <trkpt lat="45.78976" lon="2.96044">
        <ele>884</ele>
        <time>2019-02-19T09:50:19Z</time>
      </trkpt>
      <trkpt lat="45.78973" lon="2.96037">
        <ele>884</ele>
        <time>2019-02-19T09:50:24Z</time>
      </trkpt>
      <trkpt lat="45.78973" lon="2.96028">
        <ele>883</ele>
        <time>2019-02-19T09:50:29Z</time>
      </trkpt>
      <trkpt lat="45.78977" lon="2.96007">
        <ele>879</ele>
        <time>2019-02-19T09:50:42Z</time>
      </trkpt>
      <trkpt lat="45.78979" lon="2.9599">
        <ele>876</ele>
        <time>2019-02-19T09:50:53Z</time>
      </trkpt>
      <trkpt lat="45.78983" lon="2.9598">
        <ele>874</ele>
        <time>2019-02-19T09:51:14Z</time>
      </trkpt>
      <trkpt lat="45.78987" lon="2.95974">
        <ele>873</ele>
        <time>2019-02-19T09:51:20Z</time>
      </trkpt>
      <trkpt lat="45.78991" lon="2.95963">
        <ele>870</ele>
        <time>2019-02-19T09:51:26Z</time>
      </trkpt>
      <trkpt lat="45.78992" lon="2.9595">
        <ele>867</ele>
        <time>2019-02-19T09:51:35Z</time>
      </trkpt>
      <trkpt lat="45.78994" lon="2.95942">
        <ele>866</ele>
        <time>2019-02-19T09:51:39Z</time>
      </trkpt>
      <trkpt lat="45.78995" lon="2.95933">
        <ele>864</ele>
        <time>2019-02-19T09:51:43Z</time>
      </trkpt>
      <trkpt lat="45.79" lon="2.95915">
        <ele>861</ele>
        <time>2019-02-19T09:51:51Z</time>
      </trkpt>
      <trkpt lat="45.79002" lon="2.95908">
        <ele>861</ele>
        <time>2019-02-19T09:51:55Z</time>
      </trkpt>
      <trkpt lat="45.79003" lon="2.95899">
        <ele>859</ele>
        <time>2019-02-19T09:51:59Z</time>
      </trkpt>
      <trkpt lat="45.79013" lon="2.95868">
        <ele>861</ele>
        <time>2019-02-19T09:52:24Z</time>
      </trkpt>
      <trkpt lat="45.79014" lon="2.95823">
        <ele>869</ele>
        <time>2019-02-19T09:53:24Z</time>
      </trkpt>
      <trkpt lat="45.79018" lon="2.95803">
        <ele>873</ele>
        <time>2019-02-19T09:54:00Z</time>
      </trkpt>
      <trkpt lat="45.79024" lon="2.95762">
        <ele>881</ele>
        <time>2019-02-19T09:55:01Z</time>
      </trkpt>
      <trkpt lat="45.79026" lon="2.95737">
        <ele>886</ele>
        <time>2019-02-19T09:55:37Z</time>
      </trkpt>
      <trkpt lat="45.79032" lon="2.95689">
        <ele>894</ele>
        <time>2019-02-19T09:56:26Z</time>
      </trkpt>
      <trkpt lat="45.79029" lon="2.95643">
        <ele>903</ele>
        <time>2019-02-19T09:57:20Z</time>
      </trkpt>
      <trkpt lat="45.79031" lon="2.95622">
        <ele>907</ele>
        <time>2019-02-19T09:57:49Z</time>
      </trkpt>
      <trkpt lat="45.79034" lon="2.95595">
        <ele>913</ele>
        <time>2019-02-19T09:58:25Z</time>
      </trkpt>
      <trkpt lat="45.79037" lon="2.95565">
        <ele>918</ele>
        <time>2019-02-19T09:59:01Z</time>
      </trkpt>
      <trkpt lat="45.79037" lon="2.95555">
        <ele>921</ele>
        <time>2019-02-19T09:59:13Z</time>
      </trkpt>
      <trkpt lat="45.79039" lon="2.95543">
        <ele>923</ele>
        <time>2019-02-19T09:59:28Z</time>
      </trkpt>
      <trkpt lat="45.79042" lon="2.95538">
        <ele>924</ele>
        <time>2019-02-19T09:59:37Z</time>
      </trkpt>
      <trkpt lat="45.79046" lon="2.95522">
        <ele>928</ele>
        <time>2019-02-19T09:59:50Z</time>
      </trkpt>
      <trkpt lat="45.79049" lon="2.95511">
        <ele>928</ele>
        <time>2019-02-19T10:00:03Z</time>
      </trkpt>
      <trkpt lat="45.79053" lon="2.95503">
        <ele>929</ele>
        <time>2019-02-19T10:00:29Z</time>
      </trkpt>
      <trkpt lat="45.7906" lon="2.9549">
        <ele>928</ele>
        <time>2019-02-19T10:00:42Z</time>
      </trkpt>
      <trkpt lat="45.79068" lon="2.95479">
        <ele>926</ele>
        <time>2019-02-19T10:02:08Z</time>
      </trkpt>
      <trkpt lat="45.79074" lon="2.95467">
        <ele>925</ele>
        <time>2019-02-19T10:02:42Z</time>
      </trkpt>
      <trkpt lat="45.79089" lon="2.95429">
        <ele>920</ele>
        <time>2019-02-19T10:03:12Z</time>
      </trkpt>
      <trkpt lat="45.79092" lon="2.95421">
        <ele>920</ele>
        <time>2019-02-19T10:03:16Z</time>
      </trkpt>
      <trkpt lat="45.79102" lon="2.95383">
        <ele>914</ele>
        <time>2019-02-19T10:03:38Z</time>
      </trkpt>
      <trkpt lat="45.7911" lon="2.95372">
        <ele>910</ele>
        <time>2019-02-19T10:03:48Z</time>
      </trkpt>
      <trkpt lat="45.79112" lon="2.95361">
        <ele>908</ele>
        <time>2019-02-19T10:03:57Z</time>
      </trkpt>
      <trkpt lat="45.79118" lon="2.95349">
        <ele>905</ele>
        <time>2019-02-19T10:04:17Z</time>
      </trkpt>
      <trkpt lat="45.79121" lon="2.95331">
        <ele>902</ele>
        <time>2019-02-19T10:04:28Z</time>
      </trkpt>
      <trkpt lat="45.79123" lon="2.95323">
        <ele>901</ele>
        <time>2019-02-19T10:04:33Z</time>
      </trkpt>
      <trkpt lat="45.79122" lon="2.95314">
        <ele>899</ele>
        <time>2019-02-19T10:04:38Z</time>
      </trkpt>
      <trkpt lat="45.79126" lon="2.95309">
        <ele>896</ele>
        <time>2019-02-19T10:04:47Z</time>
      </trkpt>
      <trkpt lat="45.79138" lon="2.95283">
        <ele>888</ele>
        <time>2019-02-19T10:05:16Z</time>
      </trkpt>
      <trkpt lat="45.79139" lon="2.95275">
        <ele>886</ele>
        <time>2019-02-19T10:05:21Z</time>
      </trkpt>
      <trkpt lat="45.79142" lon="2.95267">
        <ele>882</ele>
        <time>2019-02-19T10:05:35Z</time>
      </trkpt>
      <trkpt lat="45.79144" lon="2.95259">
        <ele>880</ele>
        <time>2019-02-19T10:06:05Z</time>
      </trkpt>
      <trkpt lat="45.79148" lon="2.9525">
        <ele>876</ele>
        <time>2019-02-19T10:06:35Z</time>
      </trkpt>
      <trkpt lat="45.79152" lon="2.95226">
        <ele>866</ele>
        <time>2019-02-19T10:07:08Z</time>
      </trkpt>
      <trkpt lat="45.79164" lon="2.95213">
        <ele>858</ele>
        <time>2019-02-19T10:08:04Z</time>
      </trkpt>
      <trkpt lat="45.79179" lon="2.95197">
        <ele>854</ele>
        <time>2019-02-19T10:08:32Z</time>
      </trkpt>
      <trkpt lat="45.79194" lon="2.95169">
        <ele>842</ele>
        <time>2019-02-19T10:09:05Z</time>
      </trkpt>
      <trkpt lat="45.79221" lon="2.95132">
        <ele>827</ele>
        <time>2019-02-19T10:09:58Z</time>
      </trkpt>
      <trkpt lat="45.79228" lon="2.95115">
        <ele>822</ele>
        <time>2019-02-19T10:10:12Z</time>
      </trkpt>
      <trkpt lat="45.79235" lon="2.95087">
        <ele>816</ele>
        <time>2019-02-19T10:10:36Z</time>
      </trkpt>
      <trkpt lat="45.79241" lon="2.9507">
        <ele>810</ele>
        <time>2019-02-19T10:11:09Z</time>
      </trkpt>
      <trkpt lat="45.79247" lon="2.95029">
        <ele>801</ele>
        <time>2019-02-19T10:11:43Z</time>
      </trkpt>
      <trkpt lat="45.79255" lon="2.95012">
        <ele>795</ele>
        <time>2019-02-19T10:12:03Z</time>
      </trkpt>
      <trkpt lat="45.79263" lon="2.9499">
        <ele>791</ele>
        <time>2019-02-19T10:13:27Z</time>
      </trkpt>
      <trkpt lat="45.79273" lon="2.94954">
        <ele>781</ele>
        <time>2019-02-19T10:13:58Z</time>
      </trkpt>
      <trkpt lat="45.79282" lon="2.94939">
        <ele>775</ele>
        <time>2019-02-19T10:14:13Z</time>
      </trkpt>
      <trkpt lat="45.79292" lon="2.94885">
        <ele>762</ele>
        <time>2019-02-19T10:15:06Z</time>
      </trkpt>
      <trkpt lat="45.79297" lon="2.94835">
        <ele>750</ele>
        <time>2019-02-19T10:15:45Z</time>
      </trkpt>
      <trkpt lat="45.79295" lon="2.94812">
        <ele>747</ele>
        <time>2019-02-19T10:16:10Z</time>
      </trkpt>
      <trkpt lat="45.79312" lon="2.94786">
        <ele>739</ele>
        <time>2019-02-19T10:16:55Z</time>
      </trkpt>
      <trkpt lat="45.79323" lon="2.94749">
        <ele>733</ele>
        <time>2019-02-19T10:17:28Z</time>
      </trkpt>
      <trkpt lat="45.79326" lon="2.94728">
        <ele>730</ele>
        <time>2019-02-19T10:17:40Z</time>
      </trkpt>
      <trkpt lat="45.79332" lon="2.94702">
        <ele>729</ele>
        <time>2019-02-19T10:18:12Z</time>
      </trkpt>
      <trkpt lat="45.79309" lon="2.94664">
        <ele>729</ele>
        <time>2019-02-19T10:18:43Z</time>
      </trkpt>
      <trkpt lat="45.79284" lon="2.94609">
        <ele>731</ele>
        <time>2019-02-19T10:19:20Z</time>
      </trkpt>
      <trkpt lat="45.79275" lon="2.94592">
        <ele>731</ele>
        <time>2019-02-19T10:19:35Z</time>
      </trkpt>
      <trkpt lat="45.79265" lon="2.9457">
        <ele>733</ele>
        <time>2019-02-19T10:22:46Z</time>
      </trkpt>
      <trkpt lat="45.79256" lon="2.94552">
        <ele>733</ele>
        <time>2019-02-19T10:22:58Z</time>
      </trkpt>
      <trkpt lat="45.79264" lon="2.94561">
        <ele>734</ele>
        <time>2019-02-19T10:24:18Z</time>
      </trkpt>
      <trkpt lat="45.79269" lon="2.94585">
        <ele>734</ele>
        <time>2019-02-19T10:24:32Z</time>
      </trkpt>
      <trkpt lat="45.79297" lon="2.94624">
        <ele>734</ele>
        <time>2019-02-19T10:25:14Z</time>
      </trkpt>
      <trkpt lat="45.79301" lon="2.94601">
        <ele>739</ele>
        <time>2019-02-19T10:26:20Z</time>
      </trkpt>
      <trkpt lat="45.79319" lon="2.94566">
        <ele>752</ele>
        <time>2019-02-19T10:27:57Z</time>
      </trkpt>
      <trkpt lat="45.79343" lon="2.94538">
        <ele>768</ele>
        <time>2019-02-19T10:29:42Z</time>
      </trkpt>
      <trkpt lat="45.79365" lon="2.94511">
        <ele>787</ele>
        <time>2019-02-19T10:31:42Z</time>
      </trkpt>
      <trkpt lat="45.79391" lon="2.94487">
        <ele>804</ele>
        <time>2019-02-19T10:33:42Z</time>
      </trkpt>
      <trkpt lat="45.79401" lon="2.94442">
        <ele>825</ele>
        <time>2019-02-19T10:36:15Z</time>
      </trkpt>
      <trkpt lat="45.7966" lon="2.94271">
        <ele>1249.8</ele>
        <time>2019-02-19T10:57:11Z</time>
      </trkpt>
      <trkpt lat="45.79676" lon="2.93954">
        <ele>1205</ele>
        <time>2019-02-19T11:12:59Z</time>
      </trkpt>
      <trkpt lat="45.79486" lon="2.94016">
        <ele>1164</ele>
        <time>2019-02-19T11:17:38Z</time>
      </trkpt>
      <trkpt lat="45.79471" lon="2.94048">
        <ele>1164</ele>
        <time>2019-02-19T11:17:49Z</time>
      </trkpt>
      <trkpt lat="45.79472" lon="2.94032">
        <ele>1166</ele>
        <time>2019-02-19T11:19:35Z</time>
      </trkpt>
      <trkpt lat="45.796" lon="2.9381">
        <ele>1155</ele>
        <time>2019-02-19T11:23:38Z</time>
      </trkpt>
      <trkpt lat="45.79605" lon="2.93811">
        <ele>1155</ele>
        <time>2019-02-19T11:23:48Z</time>
      </trkpt>
      <trkpt lat="45.79651" lon="2.93825">
        <ele>1142</ele>
        <time>2019-02-19T11:25:10Z</time>
      </trkpt>
      <trkpt lat="45.79666" lon="2.93815">
        <ele>1140</ele>
        <time>2019-02-19T11:25:22Z</time>
      </trkpt>
      <trkpt lat="45.79679" lon="2.93808">
        <ele>1141</ele>
        <time>2019-02-19T11:25:33Z</time>
      </trkpt>
      <trkpt lat="45.79689" lon="2.93813">
        <ele>1141</ele>
        <time>2019-02-19T11:25:45Z</time>
      </trkpt>
      <trkpt lat="45.79694" lon="2.93812">
        <ele>1141</ele>
        <time>2019-02-19T11:25:51Z</time>
      </trkpt>
      <trkpt lat="45.77021" lon="2.96299">
        <ele>1410.4</ele>
        <time>2019-02-19T13:16:48Z</time>
      </trkpt>
      <trkpt lat="45.78578" lon="2.98046">
        <ele>882</ele>
        <time>2019-02-19T14:14:55Z</time>
      </trkpt>
      <trkpt lat="45.78573" lon="2.98068">
        <ele>997</ele>
        <time>2019-02-19T14:15:01Z</time>
      </trkpt>
      <trkpt lat="45.78582" lon="2.98086">
        <ele>984</ele>
        <time>2019-02-19T14:15:14Z</time>
      </trkpt>
    </trkseg>
  </trk>
  <trk>
    <name><![CDATA[18 févr. 2019 à 07:21:03]]></name>
    <cmt><![CDATA[18 févr. 2019 à 07:21:03]]></cmt>
    <trkseg>
      <trkpt lat="45.05196" lon="2.79358">
        <ele>1397</ele>
        <time>2019-02-18T06:21:03Z</time>
      </trkpt>
      <trkpt lat="45.05187" lon="2.79365">
        <ele>1396</ele>
        <time>2019-02-18T06:23:21Z</time>
      </trkpt>
      <trkpt lat="45.05194" lon="2.7938">
        <ele>1395</ele>
        <time>2019-02-18T06:23:59Z</time>
      </trkpt>
      <trkpt lat="45.05193" lon="2.79384">
        <ele>1394</ele>
        <time>2019-02-18T06:24:03Z</time>
      </trkpt>
      <trkpt lat="45.05199" lon="2.79388">
        <ele>1396</ele>
        <time>2019-02-18T06:24:16Z</time>
      </trkpt>
      <trkpt lat="45.05205" lon="2.79387">
        <ele>1396</ele>
        <time>2019-02-18T06:24:34Z</time>
      </trkpt>
      <trkpt lat="45.0521" lon="2.79381">
        <ele>1395</ele>
        <time>2019-02-18T06:24:46Z</time>
      </trkpt>
      <trkpt lat="45.05205" lon="2.79382">
        <ele>1392</ele>
        <time>2019-02-18T06:27:46Z</time>
      </trkpt>
      <trkpt lat="45.05203" lon="2.79374">
        <ele>1391</ele>
        <time>2019-02-18T06:28:18Z</time>
      </trkpt>
      <trkpt lat="45.05207" lon="2.79367">
        <ele>1391</ele>
        <time>2019-02-18T06:28:22Z</time>
      </trkpt>
      <trkpt lat="45.05212" lon="2.7934">
        <ele>1391</ele>
        <time>2019-02-18T06:28:34Z</time>
      </trkpt>
      <trkpt lat="45.05201" lon="2.79308">
        <ele>1392</ele>
        <time>2019-02-18T06:28:54Z</time>
      </trkpt>
      <trkpt lat="45.05189" lon="2.79292">
        <ele>1394</ele>
        <time>2019-02-18T06:29:08Z</time>
      </trkpt>
      <trkpt lat="45.05184" lon="2.79287">
        <ele>1395</ele>
        <time>2019-02-18T06:29:14Z</time>
      </trkpt>
      <trkpt lat="45.05179" lon="2.79284">
        <ele>1395</ele>
        <time>2019-02-18T06:29:18Z</time>
      </trkpt>
      <trkpt lat="45.05176" lon="2.79277">
        <ele>1395</ele>
        <time>2019-02-18T06:29:23Z</time>
      </trkpt>
      <trkpt lat="45.0517" lon="2.79277">
        <ele>1395</ele>
        <time>2019-02-18T06:29:27Z</time>
      </trkpt>
      <trkpt lat="45.05165" lon="2.79271">
        <ele>1396</ele>
        <time>2019-02-18T06:29:33Z</time>
      </trkpt>
      <trkpt lat="45.0516" lon="2.79266">
        <ele>1396</ele>
        <time>2019-02-18T06:29:37Z</time>
      </trkpt>
      <trkpt lat="45.05146" lon="2.79249">
        <ele>1398</ele>
        <time>2019-02-18T06:29:51Z</time>
      </trkpt>
      <trkpt lat="45.05136" lon="2.79245">
        <ele>1399</ele>
        <time>2019-02-18T06:30:01Z</time>
      </trkpt>
      <trkpt lat="45.05131" lon="2.79239">
        <ele>1399</ele>
        <time>2019-02-18T06:30:06Z</time>
      </trkpt>
      <trkpt lat="45.0513" lon="2.7923">
        <ele>1400</ele>
        <time>2019-02-18T06:30:11Z</time>
      </trkpt>
      <trkpt lat="45.05121" lon="2.79215">
        <ele>1402</ele>
        <time>2019-02-18T06:30:25Z</time>
      </trkpt>
      <trkpt lat="45.05116" lon="2.79212">
        <ele>1403</ele>
        <time>2019-02-18T06:30:30Z</time>
      </trkpt>
      <trkpt lat="45.05111" lon="2.79204">
        <ele>1404</ele>
        <time>2019-02-18T06:30:37Z</time>
      </trkpt>
      <trkpt lat="45.05109" lon="2.79196">
        <ele>1405</ele>
        <time>2019-02-18T06:30:43Z</time>
      </trkpt>
      <trkpt lat="45.05101" lon="2.79192">
        <ele>1407</ele>
        <time>2019-02-18T06:30:53Z</time>
      </trkpt>
      <trkpt lat="45.05095" lon="2.79184">
        <ele>1409</ele>
        <time>2019-02-18T06:31:03Z</time>
      </trkpt>
      <trkpt lat="45.05088" lon="2.79176">
        <ele>1412</ele>
        <time>2019-02-18T06:31:15Z</time>
      </trkpt>
      <trkpt lat="45.05071" lon="2.79154">
        <ele>1417</ele>
        <time>2019-02-18T06:31:42Z</time>
      </trkpt>
      <trkpt lat="45.05064" lon="2.7915">
        <ele>1419</ele>
        <time>2019-02-18T06:31:51Z</time>
      </trkpt>
      <trkpt lat="45.05064" lon="2.79139">
        <ele>1420</ele>
        <time>2019-02-18T06:31:59Z</time>
      </trkpt>
      <trkpt lat="45.05039" lon="2.79112">
        <ele>1426</ele>
        <time>2019-02-18T06:32:39Z</time>
      </trkpt>
      <trkpt lat="45.05024" lon="2.79099">
        <ele>1430</ele>
        <time>2019-02-18T06:33:06Z</time>
      </trkpt>
      <trkpt lat="45.05019" lon="2.79089">
        <ele>1433</ele>
        <time>2019-02-18T06:33:18Z</time>
      </trkpt>
      <trkpt lat="45.05009" lon="2.79084">
        <ele>1436</ele>
        <time>2019-02-18T06:33:36Z</time>
      </trkpt>
      <trkpt lat="45.04993" lon="2.79064">
        <ele>1441</ele>
        <time>2019-02-18T06:34:02Z</time>
      </trkpt>
      <trkpt lat="45.04985" lon="2.79041">
        <ele>1444</ele>
        <time>2019-02-18T06:34:22Z</time>
      </trkpt>
      <trkpt lat="45.04977" lon="2.79036">
        <ele>1445</ele>
        <time>2019-02-18T06:34:30Z</time>
      </trkpt>
      <trkpt lat="45.04971" lon="2.79037">
        <ele>1447</ele>
        <time>2019-02-18T06:34:40Z</time>
      </trkpt>
      <trkpt lat="45.04961" lon="2.79051">
        <ele>1450</ele>
        <time>2019-02-18T06:34:58Z</time>
      </trkpt>
      <trkpt lat="45.04949" lon="2.79059">
        <ele>1452</ele>
        <time>2019-02-18T06:35:13Z</time>
      </trkpt>
      <trkpt lat="45.0494" lon="2.79072">
        <ele>1455</ele>
        <time>2019-02-18T06:35:28Z</time>
      </trkpt>
      <trkpt lat="45.04929" lon="2.79084">
        <ele>1458</ele>
        <time>2019-02-18T06:35:43Z</time>
      </trkpt>
      <trkpt lat="45.04924" lon="2.79086">
        <ele>1458</ele>
        <time>2019-02-18T06:35:48Z</time>
      </trkpt>
      <trkpt lat="45.04916" lon="2.79085">
        <ele>1460</ele>
        <time>2019-02-18T06:35:59Z</time>
      </trkpt>
      <trkpt lat="45.04911" lon="2.79088">
        <ele>1462</ele>
        <time>2019-02-18T06:36:06Z</time>
      </trkpt>
      <trkpt lat="45.04897" lon="2.79098">
        <ele>1465</ele>
        <time>2019-02-18T06:36:25Z</time>
      </trkpt>
      <trkpt lat="45.0489" lon="2.79095">
        <ele>1468</ele>
        <time>2019-02-18T06:36:39Z</time>
      </trkpt>
      <trkpt lat="45.04884" lon="2.79099">
        <ele>1469</ele>
        <time>2019-02-18T06:36:49Z</time>
      </trkpt>
      <trkpt lat="45.04878" lon="2.79103">
        <ele>1472</ele>
        <time>2019-02-18T06:37:04Z</time>
      </trkpt>
      <trkpt lat="45.04872" lon="2.79106">
        <ele>1473</ele>
        <time>2019-02-18T06:37:19Z</time>
      </trkpt>
      <trkpt lat="45.04866" lon="2.79108">
        <ele>1476</ele>
        <time>2019-02-18T06:37:31Z</time>
      </trkpt>
      <trkpt lat="45.04858" lon="2.79102">
        <ele>1479</ele>
        <time>2019-02-18T06:37:49Z</time>
      </trkpt>
      <trkpt lat="45.04854" lon="2.79095">
        <ele>1480</ele>
        <time>2019-02-18T06:38:07Z</time>
      </trkpt>
      <trkpt lat="45.0485" lon="2.79061">
        <ele>1486</ele>
        <time>2019-02-18T06:38:50Z</time>
      </trkpt>
      <trkpt lat="45.04849" lon="2.79049">
        <ele>1489</ele>
        <time>2019-02-18T06:39:08Z</time>
      </trkpt>
      <trkpt lat="45.04849" lon="2.79038">
        <ele>1492</ele>
        <time>2019-02-18T06:39:26Z</time>
      </trkpt>
      <trkpt lat="45.04844" lon="2.79024">
        <ele>1495</ele>
        <time>2019-02-18T06:39:39Z</time>
      </trkpt>
      <trkpt lat="45.04846" lon="2.79015">
        <ele>1497</ele>
        <time>2019-02-18T06:39:52Z</time>
      </trkpt>
      <trkpt lat="45.04842" lon="2.78987">
        <ele>1501</ele>
        <time>2019-02-18T06:40:25Z</time>
      </trkpt>
      <trkpt lat="45.04839" lon="2.78979">
        <ele>1503</ele>
        <time>2019-02-18T06:40:37Z</time>
      </trkpt>
      <trkpt lat="45.04837" lon="2.78971">
        <ele>1505</ele>
        <time>2019-02-18T06:40:55Z</time>
      </trkpt>
      <trkpt lat="45.04828" lon="2.78963">
        <ele>1507</ele>
        <time>2019-02-18T06:41:14Z</time>
      </trkpt>
      <trkpt lat="45.04821" lon="2.7896">
        <ele>1508</ele>
        <time>2019-02-18T06:41:26Z</time>
      </trkpt>
      <trkpt lat="45.04814" lon="2.78955">
        <ele>1510</ele>
        <time>2019-02-18T06:41:38Z</time>
      </trkpt>
      <trkpt lat="45.04809" lon="2.78951">
        <ele>1510</ele>
        <time>2019-02-18T06:41:44Z</time>
      </trkpt>
      <trkpt lat="45.04803" lon="2.78945">
        <ele>1512</ele>
        <time>2019-02-18T06:41:53Z</time>
      </trkpt>
      <trkpt lat="45.04798" lon="2.78933">
        <ele>1514</ele>
        <time>2019-02-18T06:42:05Z</time>
      </trkpt>
      <trkpt lat="45.04791" lon="2.78925">
        <ele>1514</ele>
        <time>2019-02-18T06:42:17Z</time>
      </trkpt>
      <trkpt lat="45.04778" lon="2.78928">
        <ele>1515</ele>
        <time>2019-02-18T06:42:36Z</time>
      </trkpt>
      <trkpt lat="45.04772" lon="2.78928">
        <ele>1516</ele>
        <time>2019-02-18T06:42:45Z</time>
      </trkpt>
      <trkpt lat="45.04767" lon="2.78922">
        <ele>1517</ele>
        <time>2019-02-18T06:42:52Z</time>
      </trkpt>
      <trkpt lat="45.04761" lon="2.78922">
        <ele>1517</ele>
        <time>2019-02-18T06:42:58Z</time>
      </trkpt>
      <trkpt lat="45.04754" lon="2.78918">
        <ele>1517</ele>
        <time>2019-02-18T06:43:06Z</time>
      </trkpt>
      <trkpt lat="45.04749" lon="2.78916">
        <ele>1518</ele>
        <time>2019-02-18T06:43:14Z</time>
      </trkpt>
      <trkpt lat="45.04732" lon="2.7887">
        <ele>1521</ele>
        <time>2019-02-18T06:43:53Z</time>
      </trkpt>
      <trkpt lat="45.04728" lon="2.7886">
        <ele>1523</ele>
        <time>2019-02-18T06:44:03Z</time>
      </trkpt>
      <trkpt lat="45.04723" lon="2.7885">
        <ele>1523</ele>
        <time>2019-02-18T06:44:16Z</time>
      </trkpt>
      <trkpt lat="45.04712" lon="2.78843">
        <ele>1526</ele>
        <time>2019-02-18T06:44:37Z</time>
      </trkpt>
      <trkpt lat="45.04706" lon="2.78834">
        <ele>1527</ele>
        <time>2019-02-18T06:44:49Z</time>
      </trkpt>
      <trkpt lat="45.04692" lon="2.78819">
        <ele>1530</ele>
        <time>2019-02-18T06:45:10Z</time>
      </trkpt>
      <trkpt lat="45.04684" lon="2.78813">
        <ele>1531</ele>
        <time>2019-02-18T06:45:21Z</time>
      </trkpt>
      <trkpt lat="45.04674" lon="2.78803">
        <ele>1532</ele>
        <time>2019-02-18T06:45:36Z</time>
      </trkpt>
      <trkpt lat="45.04671" lon="2.78793">
        <ele>1534</ele>
        <time>2019-02-18T06:45:49Z</time>
      </trkpt>
      <trkpt lat="45.04669" lon="2.78785">
        <ele>1535</ele>
        <time>2019-02-18T06:45:55Z</time>
      </trkpt>
      <trkpt lat="45.04665" lon="2.78778">
        <ele>1535</ele>
        <time>2019-02-18T06:46:04Z</time>
      </trkpt>
      <trkpt lat="45.04658" lon="2.78764">
        <ele>1536</ele>
        <time>2019-02-18T06:46:17Z</time>
      </trkpt>
      <trkpt lat="45.04652" lon="2.78756">
        <ele>1536</ele>
        <time>2019-02-18T06:46:28Z</time>
      </trkpt>
      <trkpt lat="45.04645" lon="2.78752">
        <ele>1537</ele>
        <time>2019-02-18T06:46:39Z</time>
      </trkpt>
      <trkpt lat="45.04633" lon="2.78734">
        <ele>1540</ele>
        <time>2019-02-18T06:47:01Z</time>
      </trkpt>
      <trkpt lat="45.04628" lon="2.78731">
        <ele>1542</ele>
        <time>2019-02-18T06:47:15Z</time>
      </trkpt>
      <trkpt lat="45.04624" lon="2.78723">
        <ele>1542</ele>
        <time>2019-02-18T06:47:27Z</time>
      </trkpt>
      <trkpt lat="45.04616" lon="2.78716">
        <ele>1543</ele>
        <time>2019-02-18T06:47:39Z</time>
      </trkpt>
      <trkpt lat="45.04613" lon="2.78707">
        <ele>1544</ele>
        <time>2019-02-18T06:47:51Z</time>
      </trkpt>
      <trkpt lat="45.0461" lon="2.78696">
        <ele>1546</ele>
        <time>2019-02-18T06:48:03Z</time>
      </trkpt>
      <trkpt lat="45.04602" lon="2.78689">
        <ele>1546</ele>
        <time>2019-02-18T06:48:13Z</time>
      </trkpt>
      <trkpt lat="45.04593" lon="2.78684">
        <ele>1547</ele>
        <time>2019-02-18T06:48:28Z</time>
      </trkpt>
      <trkpt lat="45.04586" lon="2.78666">
        <ele>1552</ele>
        <time>2019-02-18T06:48:52Z</time>
      </trkpt>
      <trkpt lat="45.04587" lon="2.78644">
        <ele>1555</ele>
        <time>2019-02-18T06:49:16Z</time>
      </trkpt>
      <trkpt lat="45.04581" lon="2.78623">
        <ele>1557</ele>
        <time>2019-02-18T06:49:40Z</time>
      </trkpt>
      <trkpt lat="45.04578" lon="2.78614">
        <ele>1556</ele>
        <time>2019-02-18T06:49:48Z</time>
      </trkpt>
      <trkpt lat="45.04571" lon="2.78609">
        <ele>1558</ele>
        <time>2019-02-18T06:50:00Z</time>
      </trkpt>
      <trkpt lat="45.04568" lon="2.78597">
        <ele>1558</ele>
        <time>2019-02-18T06:50:13Z</time>
      </trkpt>
      <trkpt lat="45.04564" lon="2.78585">
        <ele>1559</ele>
        <time>2019-02-18T06:50:25Z</time>
      </trkpt>
      <trkpt lat="45.0455" lon="2.78564">
        <ele>1562</ele>
        <time>2019-02-18T06:50:51Z</time>
      </trkpt>
      <trkpt lat="45.04542" lon="2.78561">
        <ele>1562</ele>
        <time>2019-02-18T06:50:58Z</time>
      </trkpt>
      <trkpt lat="45.04537" lon="2.78554">
        <ele>1563</ele>
        <time>2019-02-18T06:51:04Z</time>
      </trkpt>
      <trkpt lat="45.04533" lon="2.78555">
        <ele>1564</ele>
        <time>2019-02-18T06:52:01Z</time>
      </trkpt>
      <trkpt lat="45.04529" lon="2.78545">
        <ele>1567</ele>
        <time>2019-02-18T06:52:14Z</time>
      </trkpt>
      <trkpt lat="45.04529" lon="2.78534">
        <ele>1569</ele>
        <time>2019-02-18T06:52:27Z</time>
      </trkpt>
      <trkpt lat="45.04531" lon="2.78521">
        <ele>1572</ele>
        <time>2019-02-18T06:52:42Z</time>
      </trkpt>
      <trkpt lat="45.04536" lon="2.7851">
        <ele>1574</ele>
        <time>2019-02-18T06:53:06Z</time>
      </trkpt>
      <trkpt lat="45.04535" lon="2.78503">
        <ele>1576</ele>
        <time>2019-02-18T06:53:18Z</time>
      </trkpt>
      <trkpt lat="45.04534" lon="2.78486">
        <ele>1578</ele>
        <time>2019-02-18T06:53:35Z</time>
      </trkpt>
      <trkpt lat="45.04533" lon="2.78477">
        <ele>1579</ele>
        <time>2019-02-18T06:53:46Z</time>
      </trkpt>
      <trkpt lat="45.04536" lon="2.78459">
        <ele>1583</ele>
        <time>2019-02-18T06:54:10Z</time>
      </trkpt>
      <trkpt lat="45.04541" lon="2.78453">
        <ele>1584</ele>
        <time>2019-02-18T06:54:22Z</time>
      </trkpt>
      <trkpt lat="45.04541" lon="2.78444">
        <ele>1586</ele>
        <time>2019-02-18T06:54:34Z</time>
      </trkpt>
      <trkpt lat="45.04547" lon="2.78439">
        <ele>1589</ele>
        <time>2019-02-18T06:54:47Z</time>
      </trkpt>
      <trkpt lat="45.04552" lon="2.78436">
        <ele>1592</ele>
        <time>2019-02-18T06:54:59Z</time>
      </trkpt>
      <trkpt lat="45.04557" lon="2.7843">
        <ele>1593</ele>
        <time>2019-02-18T06:55:11Z</time>
      </trkpt>
      <trkpt lat="45.04562" lon="2.78426">
        <ele>1595</ele>
        <time>2019-02-18T06:55:23Z</time>
      </trkpt>
      <trkpt lat="45.04563" lon="2.78417">
        <ele>1597</ele>
        <time>2019-02-18T06:55:35Z</time>
      </trkpt>
      <trkpt lat="45.04567" lon="2.78407">
        <ele>1599</ele>
        <time>2019-02-18T06:55:53Z</time>
      </trkpt>
      <trkpt lat="45.04565" lon="2.78387">
        <ele>1603</ele>
        <time>2019-02-18T06:56:16Z</time>
      </trkpt>
      <trkpt lat="45.04562" lon="2.78379">
        <ele>1605</ele>
        <time>2019-02-18T06:56:30Z</time>
      </trkpt>
      <trkpt lat="45.04565" lon="2.7837">
        <ele>1607</ele>
        <time>2019-02-18T06:56:42Z</time>
      </trkpt>
      <trkpt lat="45.04562" lon="2.78341">
        <ele>1611</ele>
        <time>2019-02-18T06:57:14Z</time>
      </trkpt>
      <trkpt lat="45.04561" lon="2.78331">
        <ele>1613</ele>
        <time>2019-02-18T06:57:26Z</time>
      </trkpt>
      <trkpt lat="45.04561" lon="2.78322">
        <ele>1614</ele>
        <time>2019-02-18T06:57:33Z</time>
      </trkpt>
      <trkpt lat="45.04556" lon="2.78313">
        <ele>1615</ele>
        <time>2019-02-18T06:57:46Z</time>
      </trkpt>
      <trkpt lat="45.04554" lon="2.78304">
        <ele>1616</ele>
        <time>2019-02-18T06:57:52Z</time>
      </trkpt>
      <trkpt lat="45.04554" lon="2.78294">
        <ele>1617</ele>
        <time>2019-02-18T06:58:04Z</time>
      </trkpt>
      <trkpt lat="45.04555" lon="2.78285">
        <ele>1619</ele>
        <time>2019-02-18T06:58:15Z</time>
      </trkpt>
      <trkpt lat="45.04555" lon="2.78274">
        <ele>1620</ele>
        <time>2019-02-18T06:58:25Z</time>
      </trkpt>
      <trkpt lat="45.04552" lon="2.78264">
        <ele>1621</ele>
        <time>2019-02-18T06:58:37Z</time>
      </trkpt>
      <trkpt lat="45.04549" lon="2.78244">
        <ele>1623</ele>
        <time>2019-02-18T06:59:00Z</time>
      </trkpt>
      <trkpt lat="45.04545" lon="2.78225">
        <ele>1626</ele>
        <time>2019-02-18T06:59:24Z</time>
      </trkpt>
      <trkpt lat="45.04545" lon="2.78214">
        <ele>1628</ele>
        <time>2019-02-18T06:59:35Z</time>
      </trkpt>
      <trkpt lat="45.04558" lon="2.78194">
        <ele>1632</ele>
        <time>2019-02-18T07:00:12Z</time>
      </trkpt>
      <trkpt lat="45.04559" lon="2.78189">
        <ele>1631</ele>
        <time>2019-02-18T07:00:16Z</time>
      </trkpt>
      <trkpt lat="45.04563" lon="2.78177">
        <ele>1633</ele>
        <time>2019-02-18T07:00:29Z</time>
      </trkpt>
      <trkpt lat="45.04568" lon="2.78165">
        <ele>1633</ele>
        <time>2019-02-18T07:00:41Z</time>
      </trkpt>
      <trkpt lat="45.0458" lon="2.78146">
        <ele>1636</ele>
        <time>2019-02-18T07:00:57Z</time>
      </trkpt>
      <trkpt lat="45.04597" lon="2.78132">
        <ele>1638</ele>
        <time>2019-02-18T07:01:15Z</time>
      </trkpt>
      <trkpt lat="45.04602" lon="2.78123">
        <ele>1638</ele>
        <time>2019-02-18T07:01:22Z</time>
      </trkpt>
      <trkpt lat="45.04618" lon="2.78107">
        <ele>1637</ele>
        <time>2019-02-18T07:01:39Z</time>
      </trkpt>
      <trkpt lat="45.04621" lon="2.781">
        <ele>1637</ele>
        <time>2019-02-18T07:01:43Z</time>
      </trkpt>
      <trkpt lat="45.04643" lon="2.78063">
        <ele>1638</ele>
        <time>2019-02-18T07:02:14Z</time>
      </trkpt>
      <trkpt lat="45.04646" lon="2.78057">
        <ele>1638</ele>
        <time>2019-02-18T07:02:18Z</time>
      </trkpt>
      <trkpt lat="45.04651" lon="2.78042">
        <ele>1638</ele>
        <time>2019-02-18T07:02:28Z</time>
      </trkpt>
      <trkpt lat="45.0466" lon="2.7803">
        <ele>1639</ele>
        <time>2019-02-18T07:02:39Z</time>
      </trkpt>
      <trkpt lat="45.04662" lon="2.78022">
        <ele>1639</ele>
        <time>2019-02-18T07:02:44Z</time>
      </trkpt>
      <trkpt lat="45.04664" lon="2.78014">
        <ele>1639</ele>
        <time>2019-02-18T07:02:49Z</time>
      </trkpt>
      <trkpt lat="45.04672" lon="2.78002">
        <ele>1639</ele>
        <time>2019-02-18T07:03:01Z</time>
      </trkpt>
      <trkpt lat="45.04685" lon="2.77985">
        <ele>1640</ele>
        <time>2019-02-18T07:03:15Z</time>
      </trkpt>
      <trkpt lat="45.04694" lon="2.77962">
        <ele>1639</ele>
        <time>2019-02-18T07:03:29Z</time>
      </trkpt>
      <trkpt lat="45.04698" lon="2.77957">
        <ele>1640</ele>
        <time>2019-02-18T07:03:35Z</time>
      </trkpt>
      <trkpt lat="45.04702" lon="2.77949">
        <ele>1640</ele>
        <time>2019-02-18T07:03:40Z</time>
      </trkpt>
      <trkpt lat="45.04706" lon="2.7794">
        <ele>1641</ele>
        <time>2019-02-18T07:03:48Z</time>
      </trkpt>
      <trkpt lat="45.04712" lon="2.77937">
        <ele>1641</ele>
        <time>2019-02-18T07:03:53Z</time>
      </trkpt>
      <trkpt lat="45.04721" lon="2.77927">
        <ele>1642</ele>
        <time>2019-02-18T07:04:04Z</time>
      </trkpt>
      <trkpt lat="45.04727" lon="2.77925">
        <ele>1643</ele>
        <time>2019-02-18T07:04:09Z</time>
      </trkpt>
      <trkpt lat="45.04745" lon="2.77923">
        <ele>1645</ele>
        <time>2019-02-18T07:04:22Z</time>
      </trkpt>
      <trkpt lat="45.04751" lon="2.7792">
        <ele>1644</ele>
        <time>2019-02-18T07:04:27Z</time>
      </trkpt>
      <trkpt lat="45.04755" lon="2.77915">
        <ele>1643</ele>
        <time>2019-02-18T07:04:31Z</time>
      </trkpt>
      <trkpt lat="45.04761" lon="2.77912">
        <ele>1644</ele>
        <time>2019-02-18T07:04:37Z</time>
      </trkpt>
      <trkpt lat="45.04778" lon="2.77896">
        <ele>1647</ele>
        <time>2019-02-18T07:04:57Z</time>
      </trkpt>
      <trkpt lat="45.0479" lon="2.7789">
        <ele>1647</ele>
        <time>2019-02-18T07:05:07Z</time>
      </trkpt>
      <trkpt lat="45.04796" lon="2.77887">
        <ele>1646</ele>
        <time>2019-02-18T07:05:13Z</time>
      </trkpt>
      <trkpt lat="45.04801" lon="2.77881">
        <ele>1647</ele>
        <time>2019-02-18T07:05:18Z</time>
      </trkpt>
      <trkpt lat="45.04805" lon="2.77875">
        <ele>1647</ele>
        <time>2019-02-18T07:05:22Z</time>
      </trkpt>
      <trkpt lat="45.04807" lon="2.77868">
        <ele>1644</ele>
        <time>2019-02-18T07:05:31Z</time>
      </trkpt>
      <trkpt lat="45.04813" lon="2.77866">
        <ele>1644</ele>
        <time>2019-02-18T07:05:35Z</time>
      </trkpt>
      <trkpt lat="45.04819" lon="2.77868">
        <ele>1644</ele>
        <time>2019-02-18T07:05:40Z</time>
      </trkpt>
      <trkpt lat="45.04836" lon="2.77876">
        <ele>1644</ele>
        <time>2019-02-18T07:05:53Z</time>
      </trkpt>
      <trkpt lat="45.04856" lon="2.77871">
        <ele>1646</ele>
        <time>2019-02-18T07:06:11Z</time>
      </trkpt>
      <trkpt lat="45.04874" lon="2.77865">
        <ele>1646</ele>
        <time>2019-02-18T07:06:26Z</time>
      </trkpt>
      <trkpt lat="45.04897" lon="2.77858">
        <ele>1642</ele>
        <time>2019-02-18T07:06:43Z</time>
      </trkpt>
      <trkpt lat="45.0493" lon="2.77836">
        <ele>1637</ele>
        <time>2019-02-18T07:07:08Z</time>
      </trkpt>
      <trkpt lat="45.0494" lon="2.77826">
        <ele>1635</ele>
        <time>2019-02-18T07:07:19Z</time>
      </trkpt>
      <trkpt lat="45.04955" lon="2.77813">
        <ele>1633</ele>
        <time>2019-02-18T07:07:32Z</time>
      </trkpt>
      <trkpt lat="45.04961" lon="2.77812">
        <ele>1633</ele>
        <time>2019-02-18T07:07:38Z</time>
      </trkpt>
      <trkpt lat="45.04967" lon="2.77805">
        <ele>1631</ele>
        <time>2019-02-18T07:07:44Z</time>
      </trkpt>
      <trkpt lat="45.0497" lon="2.77799">
        <ele>1631</ele>
        <time>2019-02-18T07:07:48Z</time>
      </trkpt>
      <trkpt lat="45.04976" lon="2.77794">
        <ele>1630</ele>
        <time>2019-02-18T07:07:53Z</time>
      </trkpt>
      <trkpt lat="45.05002" lon="2.77754">
        <ele>1619</ele>
        <time>2019-02-18T07:08:24Z</time>
      </trkpt>
      <trkpt lat="45.05019" lon="2.77741">
        <ele>1616</ele>
        <time>2019-02-18T07:08:38Z</time>
      </trkpt>
      <trkpt lat="45.05024" lon="2.77737">
        <ele>1616</ele>
        <time>2019-02-18T07:08:43Z</time>
      </trkpt>
      <trkpt lat="45.0503" lon="2.77734">
        <ele>1616</ele>
        <time>2019-02-18T07:08:48Z</time>
      </trkpt>
      <trkpt lat="45.05034" lon="2.77729">
        <ele>1615</ele>
        <time>2019-02-18T07:08:53Z</time>
      </trkpt>
      <trkpt lat="45.0504" lon="2.77727">
        <ele>1615</ele>
        <time>2019-02-18T07:08:57Z</time>
      </trkpt>
      <trkpt lat="45.05046" lon="2.77722">
        <ele>1614</ele>
        <time>2019-02-18T07:09:01Z</time>
      </trkpt>
      <trkpt lat="45.05057" lon="2.77714">
        <ele>1613</ele>
        <time>2019-02-18T07:09:12Z</time>
      </trkpt>
      <trkpt lat="45.05062" lon="2.77709">
        <ele>1613</ele>
        <time>2019-02-18T07:09:17Z</time>
      </trkpt>
      <trkpt lat="45.05071" lon="2.77698">
        <ele>1612</ele>
        <time>2019-02-18T07:09:27Z</time>
      </trkpt>
      <trkpt lat="45.05075" lon="2.77694">
        <ele>1612</ele>
        <time>2019-02-18T07:09:32Z</time>
      </trkpt>
      <trkpt lat="45.05078" lon="2.77686">
        <ele>1610</ele>
        <time>2019-02-18T07:09:37Z</time>
      </trkpt>
      <trkpt lat="45.05084" lon="2.77683">
        <ele>1610</ele>
        <time>2019-02-18T07:09:43Z</time>
      </trkpt>
      <trkpt lat="45.05091" lon="2.77681">
        <ele>1609</ele>
        <time>2019-02-18T07:09:52Z</time>
      </trkpt>
      <trkpt lat="45.05109" lon="2.77668">
        <ele>1601</ele>
        <time>2019-02-18T07:10:15Z</time>
      </trkpt>
      <trkpt lat="45.05118" lon="2.77663">
        <ele>1596</ele>
        <time>2019-02-18T07:10:27Z</time>
      </trkpt>
      <trkpt lat="45.05155" lon="2.77654">
        <ele>1590</ele>
        <time>2019-02-18T07:10:57Z</time>
      </trkpt>
      <trkpt lat="45.05161" lon="2.77655">
        <ele>1590</ele>
        <time>2019-02-18T07:11:01Z</time>
      </trkpt>
      <trkpt lat="45.05166" lon="2.77653">
        <ele>1590</ele>
        <time>2019-02-18T07:11:05Z</time>
      </trkpt>
      <trkpt lat="45.05172" lon="2.7765">
        <ele>1589</ele>
        <time>2019-02-18T07:11:11Z</time>
      </trkpt>
      <trkpt lat="45.05176" lon="2.77646">
        <ele>1589</ele>
        <time>2019-02-18T07:11:14Z</time>
      </trkpt>
      <trkpt lat="45.05195" lon="2.77641">
        <ele>1590</ele>
        <time>2019-02-18T07:11:30Z</time>
      </trkpt>
      <trkpt lat="45.05205" lon="2.77639">
        <ele>1590</ele>
        <time>2019-02-18T07:11:40Z</time>
      </trkpt>
      <trkpt lat="45.0521" lon="2.77636">
        <ele>1591</ele>
        <time>2019-02-18T07:11:48Z</time>
      </trkpt>
      <trkpt lat="45.05215" lon="2.77627">
        <ele>1595</ele>
        <time>2019-02-18T07:11:55Z</time>
      </trkpt>
      <trkpt lat="45.05217" lon="2.77619">
        <ele>1597</ele>
        <time>2019-02-18T07:12:02Z</time>
      </trkpt>
      <trkpt lat="45.0522" lon="2.77611">
        <ele>1596</ele>
        <time>2019-02-18T07:12:13Z</time>
      </trkpt>
      <trkpt lat="45.05224" lon="2.77607">
        <ele>1598</ele>
        <time>2019-02-18T07:12:20Z</time>
      </trkpt>
      <trkpt lat="45.05226" lon="2.77597">
        <ele>1600</ele>
        <time>2019-02-18T07:12:30Z</time>
      </trkpt>
      <trkpt lat="45.0523" lon="2.7759">
        <ele>1598</ele>
        <time>2019-02-18T07:12:40Z</time>
      </trkpt>
      <trkpt lat="45.05236" lon="2.77585">
        <ele>1598</ele>
        <time>2019-02-18T07:12:52Z</time>
      </trkpt>
      <trkpt lat="45.0524" lon="2.7758">
        <ele>1601</ele>
        <time>2019-02-18T07:13:04Z</time>
      </trkpt>
      <trkpt lat="45.05241" lon="2.77565">
        <ele>1604</ele>
        <time>2019-02-18T07:13:16Z</time>
      </trkpt>
      <trkpt lat="45.05241" lon="2.77556">
        <ele>1603</ele>
        <time>2019-02-18T07:13:23Z</time>
      </trkpt>
      <trkpt lat="45.05244" lon="2.77546">
        <ele>1605</ele>
        <time>2019-02-18T07:13:31Z</time>
      </trkpt>
      <trkpt lat="45.05247" lon="2.77532">
        <ele>1605</ele>
        <time>2019-02-18T07:13:46Z</time>
      </trkpt>
      <trkpt lat="45.05251" lon="2.77513">
        <ele>1607</ele>
        <time>2019-02-18T07:14:00Z</time>
      </trkpt>
      <trkpt lat="45.05253" lon="2.77505">
        <ele>1607</ele>
        <time>2019-02-18T07:14:04Z</time>
      </trkpt>
      <trkpt lat="45.05258" lon="2.775">
        <ele>1606</ele>
        <time>2019-02-18T07:14:10Z</time>
      </trkpt>
      <trkpt lat="45.05262" lon="2.77494">
        <ele>1606</ele>
        <time>2019-02-18T07:14:14Z</time>
      </trkpt>
      <trkpt lat="45.05266" lon="2.77488">
        <ele>1607</ele>
        <time>2019-02-18T07:14:19Z</time>
      </trkpt>
      <trkpt lat="45.0527" lon="2.77482">
        <ele>1606</ele>
        <time>2019-02-18T07:14:24Z</time>
      </trkpt>
      <trkpt lat="45.05272" lon="2.77475">
        <ele>1605</ele>
        <time>2019-02-18T07:14:30Z</time>
      </trkpt>
      <trkpt lat="45.05283" lon="2.77452">
        <ele>1607</ele>
        <time>2019-02-18T07:14:51Z</time>
      </trkpt>
      <trkpt lat="45.05292" lon="2.77443">
        <ele>1609</ele>
        <time>2019-02-18T07:15:02Z</time>
      </trkpt>
      <trkpt lat="45.05299" lon="2.77434">
        <ele>1610</ele>
        <time>2019-02-18T07:15:11Z</time>
      </trkpt>
      <trkpt lat="45.05304" lon="2.77432">
        <ele>1610</ele>
        <time>2019-02-18T07:15:17Z</time>
      </trkpt>
      <trkpt lat="45.05308" lon="2.77425">
        <ele>1611</ele>
        <time>2019-02-18T07:15:23Z</time>
      </trkpt>
      <trkpt lat="45.05313" lon="2.77422">
        <ele>1610</ele>
        <time>2019-02-18T07:15:28Z</time>
      </trkpt>
      <trkpt lat="45.05317" lon="2.77415">
        <ele>1610</ele>
        <time>2019-02-18T07:15:32Z</time>
      </trkpt>
      <trkpt lat="45.0532" lon="2.77407">
        <ele>1611</ele>
        <time>2019-02-18T07:15:38Z</time>
      </trkpt>
      <trkpt lat="45.05324" lon="2.774">
        <ele>1611</ele>
        <time>2019-02-18T07:15:42Z</time>
      </trkpt>
      <trkpt lat="45.05341" lon="2.77376">
        <ele>1614</ele>
        <time>2019-02-18T07:16:05Z</time>
      </trkpt>
      <trkpt lat="45.05345" lon="2.7737">
        <ele>1616</ele>
        <time>2019-02-18T07:16:13Z</time>
      </trkpt>
      <trkpt lat="45.05358" lon="2.77353">
        <ele>1621</ele>
        <time>2019-02-18T07:16:37Z</time>
      </trkpt>
      <trkpt lat="45.05375" lon="2.7733">
        <ele>1622</ele>
        <time>2019-02-18T07:17:01Z</time>
      </trkpt>
      <trkpt lat="45.05384" lon="2.77327">
        <ele>1624</ele>
        <time>2019-02-18T07:17:12Z</time>
      </trkpt>
      <trkpt lat="45.05385" lon="2.77316">
        <ele>1624</ele>
        <time>2019-02-18T07:17:22Z</time>
      </trkpt>
      <trkpt lat="45.05393" lon="2.77283">
        <ele>1622</ele>
        <time>2019-02-18T07:17:46Z</time>
      </trkpt>
      <trkpt lat="45.05396" lon="2.77274">
        <ele>1623</ele>
        <time>2019-02-18T07:17:53Z</time>
      </trkpt>
      <trkpt lat="45.054" lon="2.77266">
        <ele>1624</ele>
        <time>2019-02-18T07:18:01Z</time>
      </trkpt>
      <trkpt lat="45.05404" lon="2.77256">
        <ele>1626</ele>
        <time>2019-02-18T07:18:15Z</time>
      </trkpt>
      <trkpt lat="45.05404" lon="2.77245">
        <ele>1626</ele>
        <time>2019-02-18T07:18:27Z</time>
      </trkpt>
      <trkpt lat="45.05405" lon="2.77235">
        <ele>1628</ele>
        <time>2019-02-18T07:18:38Z</time>
      </trkpt>
      <trkpt lat="45.05409" lon="2.77229">
        <ele>1631</ele>
        <time>2019-02-18T07:18:50Z</time>
      </trkpt>
      <trkpt lat="45.05409" lon="2.77219">
        <ele>1631</ele>
        <time>2019-02-18T07:19:02Z</time>
      </trkpt>
      <trkpt lat="45.05408" lon="2.77214">
        <ele>1631</ele>
        <time>2019-02-18T07:19:08Z</time>
      </trkpt>
      <trkpt lat="45.05411" lon="2.77207">
        <ele>1634</ele>
        <time>2019-02-18T07:19:19Z</time>
      </trkpt>
      <trkpt lat="45.05415" lon="2.77203">
        <ele>1636</ele>
        <time>2019-02-18T07:19:31Z</time>
      </trkpt>
      <trkpt lat="45.0542" lon="2.77198">
        <ele>1636</ele>
        <time>2019-02-18T07:19:43Z</time>
      </trkpt>
      <trkpt lat="45.05422" lon="2.7719">
        <ele>1637</ele>
        <time>2019-02-18T07:19:55Z</time>
      </trkpt>
      <trkpt lat="45.05424" lon="2.77181">
        <ele>1638</ele>
        <time>2019-02-18T07:20:07Z</time>
      </trkpt>
      <trkpt lat="45.05431" lon="2.77163">
        <ele>1640</ele>
        <time>2019-02-18T07:20:31Z</time>
      </trkpt>
      <trkpt lat="45.05432" lon="2.77154">
        <ele>1642</ele>
        <time>2019-02-18T07:20:43Z</time>
      </trkpt>
      <trkpt lat="45.05433" lon="2.77147">
        <ele>1642</ele>
        <time>2019-02-18T07:20:55Z</time>
      </trkpt>
      <trkpt lat="45.05438" lon="2.77139">
        <ele>1644</ele>
        <time>2019-02-18T07:21:07Z</time>
      </trkpt>
      <trkpt lat="45.05444" lon="2.77122">
        <ele>1646</ele>
        <time>2019-02-18T07:21:31Z</time>
      </trkpt>
      <trkpt lat="45.05453" lon="2.77094">
        <ele>1652</ele>
        <time>2019-02-18T07:22:13Z</time>
      </trkpt>
      <trkpt lat="45.05456" lon="2.77086">
        <ele>1653</ele>
        <time>2019-02-18T07:22:25Z</time>
      </trkpt>
      <trkpt lat="45.05458" lon="2.77076">
        <ele>1655</ele>
        <time>2019-02-18T07:22:43Z</time>
      </trkpt>
      <trkpt lat="45.05457" lon="2.77068">
        <ele>1657</ele>
        <time>2019-02-18T07:22:55Z</time>
      </trkpt>
      <trkpt lat="45.05461" lon="2.7706">
        <ele>1659</ele>
        <time>2019-02-18T07:23:07Z</time>
      </trkpt>
      <trkpt lat="45.05466" lon="2.7704">
        <ele>1663</ele>
        <time>2019-02-18T07:23:32Z</time>
      </trkpt>
      <trkpt lat="45.0547" lon="2.7703">
        <ele>1665</ele>
        <time>2019-02-18T07:23:44Z</time>
      </trkpt>
      <trkpt lat="45.05472" lon="2.77021">
        <ele>1664</ele>
        <time>2019-02-18T07:23:56Z</time>
      </trkpt>
      <trkpt lat="45.05476" lon="2.77015">
        <ele>1666</ele>
        <time>2019-02-18T07:24:02Z</time>
      </trkpt>
      <trkpt lat="45.05478" lon="2.77007">
        <ele>1666</ele>
        <time>2019-02-18T07:24:10Z</time>
      </trkpt>
      <trkpt lat="45.05482" lon="2.76985">
        <ele>1668</ele>
        <time>2019-02-18T07:24:31Z</time>
      </trkpt>
      <trkpt lat="45.05484" lon="2.76973">
        <ele>1669</ele>
        <time>2019-02-18T07:24:42Z</time>
      </trkpt>
      <trkpt lat="45.05487" lon="2.76968">
        <ele>1670</ele>
        <time>2019-02-18T07:24:48Z</time>
      </trkpt>
      <trkpt lat="45.05495" lon="2.7695">
        <ele>1672</ele>
        <time>2019-02-18T07:25:08Z</time>
      </trkpt>
      <trkpt lat="45.05499" lon="2.76944">
        <ele>1675</ele>
        <time>2019-02-18T07:25:20Z</time>
      </trkpt>
      <trkpt lat="45.05501" lon="2.76934">
        <ele>1677</ele>
        <time>2019-02-18T07:25:32Z</time>
      </trkpt>
      <trkpt lat="45.05508" lon="2.76928">
        <ele>1678</ele>
        <time>2019-02-18T07:25:45Z</time>
      </trkpt>
      <trkpt lat="45.05508" lon="2.7692">
        <ele>1679</ele>
        <time>2019-02-18T07:25:55Z</time>
      </trkpt>
      <trkpt lat="45.05509" lon="2.76912">
        <ele>1678</ele>
        <time>2019-02-18T07:26:00Z</time>
      </trkpt>
      <trkpt lat="45.05513" lon="2.76898">
        <ele>1681</ele>
        <time>2019-02-18T07:26:15Z</time>
      </trkpt>
      <trkpt lat="45.05514" lon="2.76885">
        <ele>1683</ele>
        <time>2019-02-18T07:26:34Z</time>
      </trkpt>
      <trkpt lat="45.05517" lon="2.76871">
        <ele>1683</ele>
        <time>2019-02-18T07:26:46Z</time>
      </trkpt>
      <trkpt lat="45.05521" lon="2.7686">
        <ele>1684</ele>
        <time>2019-02-18T07:27:01Z</time>
      </trkpt>
      <trkpt lat="45.05539" lon="2.76851">
        <ele>1689</ele>
        <time>2019-02-18T07:27:24Z</time>
      </trkpt>
      <trkpt lat="45.05542" lon="2.76843">
        <ele>1690</ele>
        <time>2019-02-18T07:27:35Z</time>
      </trkpt>
      <trkpt lat="45.05552" lon="2.76817">
        <ele>1693</ele>
        <time>2019-02-18T07:28:10Z</time>
      </trkpt>
      <trkpt lat="45.05558" lon="2.76812">
        <ele>1695</ele>
        <time>2019-02-18T07:28:22Z</time>
      </trkpt>
      <trkpt lat="45.05564" lon="2.76805">
        <ele>1697</ele>
        <time>2019-02-18T07:28:35Z</time>
      </trkpt>
      <trkpt lat="45.05566" lon="2.76801">
        <ele>1697</ele>
        <time>2019-02-18T07:28:39Z</time>
      </trkpt>
      <trkpt lat="45.05568" lon="2.76781">
        <ele>1700</ele>
        <time>2019-02-18T07:29:04Z</time>
      </trkpt>
      <trkpt lat="45.05569" lon="2.7677">
        <ele>1704</ele>
        <time>2019-02-18T07:29:22Z</time>
      </trkpt>
      <trkpt lat="45.05574" lon="2.76762">
        <ele>1705</ele>
        <time>2019-02-18T07:29:34Z</time>
      </trkpt>
      <trkpt lat="45.05575" lon="2.76744">
        <ele>1708</ele>
        <time>2019-02-18T07:29:58Z</time>
      </trkpt>
      <trkpt lat="45.05581" lon="2.76729">
        <ele>1712</ele>
        <time>2019-02-18T07:30:22Z</time>
      </trkpt>
      <trkpt lat="45.05583" lon="2.76719">
        <ele>1712</ele>
        <time>2019-02-18T07:30:34Z</time>
      </trkpt>
      <trkpt lat="45.05585" lon="2.7671">
        <ele>1714</ele>
        <time>2019-02-18T07:30:46Z</time>
      </trkpt>
      <trkpt lat="45.05583" lon="2.76698">
        <ele>1715</ele>
        <time>2019-02-18T07:30:59Z</time>
      </trkpt>
      <trkpt lat="45.05583" lon="2.7669">
        <ele>1717</ele>
        <time>2019-02-18T07:31:11Z</time>
      </trkpt>
      <trkpt lat="45.05587" lon="2.76681">
        <ele>1719</ele>
        <time>2019-02-18T07:31:23Z</time>
      </trkpt>
      <trkpt lat="45.05589" lon="2.76672">
        <ele>1719</ele>
        <time>2019-02-18T07:31:35Z</time>
      </trkpt>
      <trkpt lat="45.05589" lon="2.76664">
        <ele>1721</ele>
        <time>2019-02-18T07:31:47Z</time>
      </trkpt>
      <trkpt lat="45.05586" lon="2.76657">
        <ele>1721</ele>
        <time>2019-02-18T07:31:53Z</time>
      </trkpt>
      <trkpt lat="45.05583" lon="2.76649">
        <ele>1723</ele>
        <time>2019-02-18T07:32:06Z</time>
      </trkpt>
      <trkpt lat="45.05583" lon="2.76639">
        <ele>1724</ele>
        <time>2019-02-18T07:32:18Z</time>
      </trkpt>
      <trkpt lat="45.05587" lon="2.76626">
        <ele>1727</ele>
        <time>2019-02-18T07:32:36Z</time>
      </trkpt>
      <trkpt lat="45.05585" lon="2.76616">
        <ele>1728</ele>
        <time>2019-02-18T07:32:48Z</time>
      </trkpt>
      <trkpt lat="45.05586" lon="2.76607">
        <ele>1729</ele>
        <time>2019-02-18T07:33:00Z</time>
      </trkpt>
      <trkpt lat="45.05589" lon="2.766">
        <ele>1730</ele>
        <time>2019-02-18T07:33:12Z</time>
      </trkpt>
      <trkpt lat="45.05591" lon="2.76591">
        <ele>1732</ele>
        <time>2019-02-18T07:33:24Z</time>
      </trkpt>
      <trkpt lat="45.05597" lon="2.76573">
        <ele>1736</ele>
        <time>2019-02-18T07:33:55Z</time>
      </trkpt>
      <trkpt lat="45.05598" lon="2.76565">
        <ele>1738</ele>
        <time>2019-02-18T07:34:18Z</time>
      </trkpt>
      <trkpt lat="45.056" lon="2.76557">
        <ele>1739</ele>
        <time>2019-02-18T07:34:30Z</time>
      </trkpt>
      <trkpt lat="45.05601" lon="2.7655">
        <ele>1741</ele>
        <time>2019-02-18T07:34:42Z</time>
      </trkpt>
      <trkpt lat="45.05603" lon="2.76541">
        <ele>1743</ele>
        <time>2019-02-18T07:34:54Z</time>
      </trkpt>
      <trkpt lat="45.05601" lon="2.76531">
        <ele>1748</ele>
        <time>2019-02-18T07:35:24Z</time>
      </trkpt>
      <trkpt lat="45.05608" lon="2.7652">
        <ele>1749</ele>
        <time>2019-02-18T07:35:35Z</time>
      </trkpt>
      <trkpt lat="45.0561" lon="2.76512">
        <ele>1750</ele>
        <time>2019-02-18T07:35:49Z</time>
      </trkpt>
      <trkpt lat="45.05607" lon="2.76502">
        <ele>1753</ele>
        <time>2019-02-18T07:36:01Z</time>
      </trkpt>
      <trkpt lat="45.05607" lon="2.76494">
        <ele>1754</ele>
        <time>2019-02-18T07:36:13Z</time>
      </trkpt>
      <trkpt lat="45.05616" lon="2.76476">
        <ele>1756</ele>
        <time>2019-02-18T07:36:32Z</time>
      </trkpt>
      <trkpt lat="45.05616" lon="2.76468">
        <ele>1756</ele>
        <time>2019-02-18T07:36:40Z</time>
      </trkpt>
      <trkpt lat="45.05614" lon="2.76458">
        <ele>1757</ele>
        <time>2019-02-18T07:36:52Z</time>
      </trkpt>
      <trkpt lat="45.05611" lon="2.7645">
        <ele>1759</ele>
        <time>2019-02-18T07:37:04Z</time>
      </trkpt>
      <trkpt lat="45.05611" lon="2.76442">
        <ele>1761</ele>
        <time>2019-02-18T07:37:46Z</time>
      </trkpt>
      <trkpt lat="45.05611" lon="2.76432">
        <ele>1763</ele>
        <time>2019-02-18T07:39:59Z</time>
      </trkpt>
      <trkpt lat="45.05614" lon="2.76422">
        <ele>1765</ele>
        <time>2019-02-18T07:40:11Z</time>
      </trkpt>
      <trkpt lat="45.05614" lon="2.76413">
        <ele>1767</ele>
        <time>2019-02-18T07:40:29Z</time>
      </trkpt>
      <trkpt lat="45.05619" lon="2.76404">
        <ele>1770</ele>
        <time>2019-02-18T07:40:47Z</time>
      </trkpt>
      <trkpt lat="45.05624" lon="2.76392">
        <ele>1771</ele>
        <time>2019-02-18T07:41:06Z</time>
      </trkpt>
      <trkpt lat="45.05627" lon="2.76385">
        <ele>1774</ele>
        <time>2019-02-18T07:41:24Z</time>
      </trkpt>
      <trkpt lat="45.05624" lon="2.76376">
        <ele>1774</ele>
        <time>2019-02-18T07:41:36Z</time>
      </trkpt>
      <trkpt lat="45.05629" lon="2.76366">
        <ele>1777</ele>
        <time>2019-02-18T07:41:54Z</time>
      </trkpt>
      <trkpt lat="45.05631" lon="2.76343">
        <ele>1780</ele>
        <time>2019-02-18T07:42:24Z</time>
      </trkpt>
      <trkpt lat="45.0563" lon="2.76332">
        <ele>1782</ele>
        <time>2019-02-18T07:42:42Z</time>
      </trkpt>
      <trkpt lat="45.05631" lon="2.76323">
        <ele>1783</ele>
        <time>2019-02-18T07:43:00Z</time>
      </trkpt>
      <trkpt lat="45.05631" lon="2.76315">
        <ele>1785</ele>
        <time>2019-02-18T07:43:18Z</time>
      </trkpt>
      <trkpt lat="45.05636" lon="2.76305">
        <ele>1787</ele>
        <time>2019-02-18T07:43:48Z</time>
      </trkpt>
      <trkpt lat="45.05639" lon="2.76283">
        <ele>1790</ele>
        <time>2019-02-18T07:44:12Z</time>
      </trkpt>
      <trkpt lat="45.05642" lon="2.76274">
        <ele>1791</ele>
        <time>2019-02-18T07:44:24Z</time>
      </trkpt>
      <trkpt lat="45.05641" lon="2.76265">
        <ele>1793</ele>
        <time>2019-02-18T07:44:36Z</time>
      </trkpt>
      <trkpt lat="45.05644" lon="2.76255">
        <ele>1795</ele>
        <time>2019-02-18T07:47:00Z</time>
      </trkpt>
      <trkpt lat="45.05645" lon="2.76248">
        <ele>1797</ele>
        <time>2019-02-18T07:47:12Z</time>
      </trkpt>
      <trkpt lat="45.05647" lon="2.76237">
        <ele>1798</ele>
        <time>2019-02-18T07:47:24Z</time>
      </trkpt>
      <trkpt lat="45.05647" lon="2.76228">
        <ele>1800</ele>
        <time>2019-02-18T07:47:36Z</time>
      </trkpt>
      <trkpt lat="45.05646" lon="2.76219">
        <ele>1803</ele>
        <time>2019-02-18T07:47:54Z</time>
      </trkpt>
      <trkpt lat="45.05652" lon="2.76215">
        <ele>1808</ele>
        <time>2019-02-18T07:48:18Z</time>
      </trkpt>
      <trkpt lat="45.05659" lon="2.76212">
        <ele>1810</ele>
        <time>2019-02-18T07:48:30Z</time>
      </trkpt>
      <trkpt lat="45.05664" lon="2.76206">
        <ele>1812</ele>
        <time>2019-02-18T07:48:42Z</time>
      </trkpt>
      <trkpt lat="45.05662" lon="2.76196">
        <ele>1814</ele>
        <time>2019-02-18T07:49:00Z</time>
      </trkpt>
      <trkpt lat="45.05665" lon="2.76184">
        <ele>1816</ele>
        <time>2019-02-18T07:49:14Z</time>
      </trkpt>
      <trkpt lat="45.05669" lon="2.76177">
        <ele>1818</ele>
        <time>2019-02-18T07:49:26Z</time>
      </trkpt>
      <trkpt lat="45.05676" lon="2.7617">
        <ele>1821</ele>
        <time>2019-02-18T07:49:45Z</time>
      </trkpt>
      <trkpt lat="45.05681" lon="2.76162">
        <ele>1824</ele>
        <time>2019-02-18T07:49:57Z</time>
      </trkpt>
      <trkpt lat="45.05687" lon="2.76152">
        <ele>1826</ele>
        <time>2019-02-18T07:50:10Z</time>
      </trkpt>
      <trkpt lat="45.05694" lon="2.76149">
        <ele>1827</ele>
        <time>2019-02-18T07:50:27Z</time>
      </trkpt>
      <trkpt lat="45.05704" lon="2.76147">
        <ele>1827</ele>
        <time>2019-02-18T07:50:39Z</time>
      </trkpt>
      <trkpt lat="45.05709" lon="2.76149">
        <ele>1827</ele>
        <time>2019-02-18T07:50:45Z</time>
      </trkpt>
      <trkpt lat="45.05717" lon="2.76153">
        <ele>1825</ele>
        <time>2019-02-18T07:50:58Z</time>
      </trkpt>
      <trkpt lat="45.05723" lon="2.76151">
        <ele>1824</ele>
        <time>2019-02-18T07:51:02Z</time>
      </trkpt>
      <trkpt lat="45.05729" lon="2.76153">
        <ele>1824</ele>
        <time>2019-02-18T07:51:06Z</time>
      </trkpt>
      <trkpt lat="45.05734" lon="2.76154">
        <ele>1823</ele>
        <time>2019-02-18T07:51:11Z</time>
      </trkpt>
      <trkpt lat="45.05739" lon="2.76153">
        <ele>1821</ele>
        <time>2019-02-18T07:51:16Z</time>
      </trkpt>
      <trkpt lat="45.05753" lon="2.76157">
        <ele>1819</ele>
        <time>2019-02-18T07:51:31Z</time>
      </trkpt>
      <trkpt lat="45.05758" lon="2.7616">
        <ele>1819</ele>
        <time>2019-02-18T07:51:37Z</time>
      </trkpt>
      <trkpt lat="45.05784" lon="2.76166">
        <ele>1822</ele>
        <time>2019-02-18T07:52:04Z</time>
      </trkpt>
      <trkpt lat="45.05792" lon="2.76163">
        <ele>1825</ele>
        <time>2019-02-18T07:52:16Z</time>
      </trkpt>
      <trkpt lat="45.05799" lon="2.76162">
        <ele>1829</ele>
        <time>2019-02-18T07:52:40Z</time>
      </trkpt>
      <trkpt lat="45.05808" lon="2.76159">
        <ele>1832</ele>
        <time>2019-02-18T07:52:58Z</time>
      </trkpt>
      <trkpt lat="45.05812" lon="2.76156">
        <ele>1835</ele>
        <time>2019-02-18T07:53:16Z</time>
      </trkpt>
      <trkpt lat="45.05819" lon="2.7615">
        <ele>1839</ele>
        <time>2019-02-18T07:53:40Z</time>
      </trkpt>
      <trkpt lat="45.05826" lon="2.76152">
        <ele>1847</ele>
        <time>2019-02-18T07:54:10Z</time>
      </trkpt>
      <trkpt lat="45.05836" lon="2.7615">
        <ele>1849</ele>
        <time>2019-02-18T07:54:36Z</time>
      </trkpt>
      <trkpt lat="45.05846" lon="2.76144">
        <ele>1850</ele>
        <time>2019-02-18T07:54:56Z</time>
      </trkpt>
      <trkpt lat="45.05852" lon="2.7614">
        <ele>1852</ele>
        <time>2019-02-18T07:55:08Z</time>
      </trkpt>
      <trkpt lat="45.05857" lon="2.76142">
        <ele>1852</ele>
        <time>2019-02-18T07:55:13Z</time>
      </trkpt>
      <trkpt lat="45.05867" lon="2.76142">
        <ele>1854</ele>
        <time>2019-02-18T07:55:29Z</time>
      </trkpt>
      <trkpt lat="45.05873" lon="2.76137">
        <ele>1855</ele>
        <time>2019-02-18T07:55:39Z</time>
      </trkpt>
      <trkpt lat="45.0588" lon="2.76134">
        <ele>1856</ele>
        <time>2019-02-18T07:55:46Z</time>
      </trkpt>
      <trkpt lat="45.05888" lon="2.76133">
        <ele>1857</ele>
        <time>2019-02-18T07:55:59Z</time>
      </trkpt>
    </trkseg>
  </trk>
  <trk>
    <name><![CDATA[16 févr. 2019 à 10:23:06]]></name>
    <cmt><![CDATA[16 févr. 2019 à 10:23:06]]></cmt>
    <trkseg>
      <trkpt lat="45.53884" lon="6.37307">
        <ele>1267</ele>
        <time>2019-02-16T09:23:06Z</time>
      </trkpt>
      <trkpt lat="45.53884" lon="6.37307">
        <ele>1267</ele>
        <time>2019-02-16T09:23:07Z</time>
      </trkpt>
      <trkpt lat="45.53908" lon="6.37316">
        <ele>1270</ele>
        <time>2019-02-16T09:23:34Z</time>
      </trkpt>
      <trkpt lat="45.53919" lon="6.37322">
        <ele>1273</ele>
        <time>2019-02-16T09:23:40Z</time>
      </trkpt>
      <trkpt lat="45.53925" lon="6.37327">
        <ele>1273</ele>
        <time>2019-02-16T09:23:45Z</time>
      </trkpt>
      <trkpt lat="45.53932" lon="6.37326">
        <ele>1274</ele>
        <time>2019-02-16T09:24:16Z</time>
      </trkpt>
      <trkpt lat="45.53937" lon="6.37325">
        <ele>1275</ele>
        <time>2019-02-16T09:24:19Z</time>
      </trkpt>
      <trkpt lat="45.53943" lon="6.37325">
        <ele>1276</ele>
        <time>2019-02-16T09:24:25Z</time>
      </trkpt>
      <trkpt lat="45.53953" lon="6.37313">
        <ele>1278</ele>
        <time>2019-02-16T09:24:40Z</time>
      </trkpt>
      <trkpt lat="45.53959" lon="6.3731">
        <ele>1279</ele>
        <time>2019-02-16T09:24:45Z</time>
      </trkpt>
      <trkpt lat="45.53965" lon="6.37311">
        <ele>1280</ele>
        <time>2019-02-16T09:24:56Z</time>
      </trkpt>
      <trkpt lat="45.53973" lon="6.37311">
        <ele>1282</ele>
        <time>2019-02-16T09:25:13Z</time>
      </trkpt>
      <trkpt lat="45.53986" lon="6.37312">
        <ele>1283</ele>
        <time>2019-02-16T09:25:29Z</time>
      </trkpt>
      <trkpt lat="45.53991" lon="6.37317">
        <ele>1285</ele>
        <time>2019-02-16T09:25:41Z</time>
      </trkpt>
      <trkpt lat="45.53995" lon="6.37327">
        <ele>1287</ele>
        <time>2019-02-16T09:25:54Z</time>
      </trkpt>
      <trkpt lat="45.54012" lon="6.37349">
        <ele>1290</ele>
        <time>2019-02-16T09:26:22Z</time>
      </trkpt>
      <trkpt lat="45.54018" lon="6.37361">
        <ele>1292</ele>
        <time>2019-02-16T09:26:32Z</time>
      </trkpt>
      <trkpt lat="45.54022" lon="6.37364">
        <ele>1292</ele>
        <time>2019-02-16T09:26:34Z</time>
      </trkpt>
      <trkpt lat="45.54026" lon="6.37366">
        <ele>1293</ele>
        <time>2019-02-16T09:26:45Z</time>
      </trkpt>
      <trkpt lat="45.54034" lon="6.37371">
        <ele>1294</ele>
        <time>2019-02-16T09:27:33Z</time>
      </trkpt>
      <trkpt lat="45.54044" lon="6.37375">
        <ele>1296</ele>
        <time>2019-02-16T09:27:43Z</time>
      </trkpt>
      <trkpt lat="45.54052" lon="6.37378">
        <ele>1298</ele>
        <time>2019-02-16T09:27:58Z</time>
      </trkpt>
      <trkpt lat="45.54061" lon="6.3738">
        <ele>1299</ele>
        <time>2019-02-16T09:28:06Z</time>
      </trkpt>
      <trkpt lat="45.54064" lon="6.37382">
        <ele>1300</ele>
        <time>2019-02-16T09:28:09Z</time>
      </trkpt>
      <trkpt lat="45.54069" lon="6.37383">
        <ele>1301</ele>
        <time>2019-02-16T09:28:13Z</time>
      </trkpt>
      <trkpt lat="45.54092" lon="6.37401">
        <ele>1305</ele>
        <time>2019-02-16T09:28:39Z</time>
      </trkpt>
      <trkpt lat="45.54097" lon="6.37398">
        <ele>1306</ele>
        <time>2019-02-16T09:28:45Z</time>
      </trkpt>
      <trkpt lat="45.54101" lon="6.37397">
        <ele>1307</ele>
        <time>2019-02-16T09:28:49Z</time>
      </trkpt>
      <trkpt lat="45.541" lon="6.37387">
        <ele>1309</ele>
        <time>2019-02-16T09:29:03Z</time>
      </trkpt>
      <trkpt lat="45.54096" lon="6.37379">
        <ele>1311</ele>
        <time>2019-02-16T09:29:16Z</time>
      </trkpt>
      <trkpt lat="45.54097" lon="6.3737">
        <ele>1312</ele>
        <time>2019-02-16T09:29:21Z</time>
      </trkpt>
      <trkpt lat="45.54102" lon="6.37363">
        <ele>1314</ele>
        <time>2019-02-16T09:29:33Z</time>
      </trkpt>
      <trkpt lat="45.54107" lon="6.37368">
        <ele>1317</ele>
        <time>2019-02-16T09:29:51Z</time>
      </trkpt>
      <trkpt lat="45.54131" lon="6.37394">
        <ele>1320</ele>
        <time>2019-02-16T09:30:16Z</time>
      </trkpt>
      <trkpt lat="45.54135" lon="6.37393">
        <ele>1321</ele>
        <time>2019-02-16T09:30:19Z</time>
      </trkpt>
      <trkpt lat="45.5414" lon="6.37395">
        <ele>1321</ele>
        <time>2019-02-16T09:30:23Z</time>
      </trkpt>
      <trkpt lat="45.54142" lon="6.37399">
        <ele>1322</ele>
        <time>2019-02-16T09:30:27Z</time>
      </trkpt>
      <trkpt lat="45.54146" lon="6.37406">
        <ele>1323</ele>
        <time>2019-02-16T09:30:35Z</time>
      </trkpt>
      <trkpt lat="45.54156" lon="6.37405">
        <ele>1324</ele>
        <time>2019-02-16T09:30:47Z</time>
      </trkpt>
      <trkpt lat="45.54151" lon="6.37394">
        <ele>1327</ele>
        <time>2019-02-16T09:31:05Z</time>
      </trkpt>
      <trkpt lat="45.54149" lon="6.37376">
        <ele>1328</ele>
        <time>2019-02-16T09:31:15Z</time>
      </trkpt>
      <trkpt lat="45.54153" lon="6.37364">
        <ele>1329</ele>
        <time>2019-02-16T09:31:23Z</time>
      </trkpt>
      <trkpt lat="45.54159" lon="6.37366">
        <ele>1331</ele>
        <time>2019-02-16T09:31:32Z</time>
      </trkpt>
      <trkpt lat="45.54166" lon="6.37362">
        <ele>1334</ele>
        <time>2019-02-16T09:31:49Z</time>
      </trkpt>
      <trkpt lat="45.54177" lon="6.3737">
        <ele>1336</ele>
        <time>2019-02-16T09:32:00Z</time>
      </trkpt>
      <trkpt lat="45.54185" lon="6.37377">
        <ele>1337</ele>
        <time>2019-02-16T09:32:07Z</time>
      </trkpt>
      <trkpt lat="45.54191" lon="6.37378">
        <ele>1337</ele>
        <time>2019-02-16T09:32:15Z</time>
      </trkpt>
      <trkpt lat="45.54199" lon="6.37386">
        <ele>1339</ele>
        <time>2019-02-16T09:32:27Z</time>
      </trkpt>
      <trkpt lat="45.54204" lon="6.37387">
        <ele>1340</ele>
        <time>2019-02-16T09:32:34Z</time>
      </trkpt>
      <trkpt lat="45.54221" lon="6.37396">
        <ele>1343</ele>
        <time>2019-02-16T09:32:53Z</time>
      </trkpt>
      <trkpt lat="45.54228" lon="6.37393">
        <ele>1345</ele>
        <time>2019-02-16T09:33:06Z</time>
      </trkpt>
      <trkpt lat="45.54235" lon="6.37393">
        <ele>1349</ele>
        <time>2019-02-16T09:33:24Z</time>
      </trkpt>
      <trkpt lat="45.54239" lon="6.374">
        <ele>1349</ele>
        <time>2019-02-16T09:33:29Z</time>
      </trkpt>
      <trkpt lat="45.54247" lon="6.37405">
        <ele>1351</ele>
        <time>2019-02-16T09:33:43Z</time>
      </trkpt>
      <trkpt lat="45.54253" lon="6.37403">
        <ele>1352</ele>
        <time>2019-02-16T09:33:49Z</time>
      </trkpt>
      <trkpt lat="45.54273" lon="6.37412">
        <ele>1355</ele>
        <time>2019-02-16T09:34:14Z</time>
      </trkpt>
      <trkpt lat="45.54278" lon="6.37412">
        <ele>1357</ele>
        <time>2019-02-16T09:34:19Z</time>
      </trkpt>
      <trkpt lat="45.54285" lon="6.37418">
        <ele>1357</ele>
        <time>2019-02-16T09:34:24Z</time>
      </trkpt>
      <trkpt lat="45.54289" lon="6.37422">
        <ele>1358</ele>
        <time>2019-02-16T09:34:41Z</time>
      </trkpt>
      <trkpt lat="45.54297" lon="6.3742">
        <ele>1358</ele>
        <time>2019-02-16T09:34:59Z</time>
      </trkpt>
      <trkpt lat="45.54307" lon="6.37423">
        <ele>1361</ele>
        <time>2019-02-16T09:36:23Z</time>
      </trkpt>
      <trkpt lat="45.54313" lon="6.37423">
        <ele>1363</ele>
        <time>2019-02-16T09:36:35Z</time>
      </trkpt>
      <trkpt lat="45.54327" lon="6.37434">
        <ele>1365</ele>
        <time>2019-02-16T09:36:55Z</time>
      </trkpt>
      <trkpt lat="45.54341" lon="6.37435">
        <ele>1368</ele>
        <time>2019-02-16T09:37:19Z</time>
      </trkpt>
      <trkpt lat="45.54353" lon="6.37427">
        <ele>1372</ele>
        <time>2019-02-16T09:37:41Z</time>
      </trkpt>
      <trkpt lat="45.54366" lon="6.37425">
        <ele>1377</ele>
        <time>2019-02-16T09:38:05Z</time>
      </trkpt>
      <trkpt lat="45.54382" lon="6.37422">
        <ele>1379</ele>
        <time>2019-02-16T09:38:25Z</time>
      </trkpt>
      <trkpt lat="45.54398" lon="6.37421">
        <ele>1380</ele>
        <time>2019-02-16T09:38:38Z</time>
      </trkpt>
      <trkpt lat="45.54407" lon="6.37418">
        <ele>1382</ele>
        <time>2019-02-16T09:38:53Z</time>
      </trkpt>
      <trkpt lat="45.54437" lon="6.37419">
        <ele>1389</ele>
        <time>2019-02-16T09:39:32Z</time>
      </trkpt>
      <trkpt lat="45.54446" lon="6.37421">
        <ele>1388</ele>
        <time>2019-02-16T09:39:43Z</time>
      </trkpt>
      <trkpt lat="45.54461" lon="6.37419">
        <ele>1389</ele>
        <time>2019-02-16T09:40:04Z</time>
      </trkpt>
      <trkpt lat="45.54467" lon="6.37419">
        <ele>1389</ele>
        <time>2019-02-16T09:40:09Z</time>
      </trkpt>
      <trkpt lat="45.54474" lon="6.37424">
        <ele>1389</ele>
        <time>2019-02-16T09:40:15Z</time>
      </trkpt>
      <trkpt lat="45.54482" lon="6.37425">
        <ele>1389</ele>
        <time>2019-02-16T09:40:24Z</time>
      </trkpt>
      <trkpt lat="45.54496" lon="6.3743">
        <ele>1388</ele>
        <time>2019-02-16T09:40:30Z</time>
      </trkpt>
      <trkpt lat="45.54503" lon="6.3743">
        <ele>1389</ele>
        <time>2019-02-16T09:40:37Z</time>
      </trkpt>
      <trkpt lat="45.54512" lon="6.37424">
        <ele>1389</ele>
        <time>2019-02-16T09:40:49Z</time>
      </trkpt>
      <trkpt lat="45.54516" lon="6.37427">
        <ele>1389</ele>
        <time>2019-02-16T09:40:51Z</time>
      </trkpt>
      <trkpt lat="45.54523" lon="6.37426">
        <ele>1389</ele>
        <time>2019-02-16T09:40:59Z</time>
      </trkpt>
      <trkpt lat="45.54532" lon="6.37426">
        <ele>1390</ele>
        <time>2019-02-16T09:41:06Z</time>
      </trkpt>
      <trkpt lat="45.54541" lon="6.37419">
        <ele>1390</ele>
        <time>2019-02-16T09:41:12Z</time>
      </trkpt>
      <trkpt lat="45.54545" lon="6.37415">
        <ele>1389</ele>
        <time>2019-02-16T09:41:14Z</time>
      </trkpt>
      <trkpt lat="45.54551" lon="6.37405">
        <ele>1388</ele>
        <time>2019-02-16T09:41:19Z</time>
      </trkpt>
      <trkpt lat="45.54555" lon="6.37402">
        <ele>1388</ele>
        <time>2019-02-16T09:41:23Z</time>
      </trkpt>
      <trkpt lat="45.54559" lon="6.37402">
        <ele>1388</ele>
        <time>2019-02-16T09:41:26Z</time>
      </trkpt>
      <trkpt lat="45.54563" lon="6.37399">
        <ele>1387</ele>
        <time>2019-02-16T09:41:29Z</time>
      </trkpt>
      <trkpt lat="45.54567" lon="6.37393">
        <ele>1387</ele>
        <time>2019-02-16T09:41:32Z</time>
      </trkpt>
      <trkpt lat="45.54569" lon="6.37388">
        <ele>1387</ele>
        <time>2019-02-16T09:41:35Z</time>
      </trkpt>
      <trkpt lat="45.54574" lon="6.37383">
        <ele>1386</ele>
        <time>2019-02-16T09:41:54Z</time>
      </trkpt>
      <trkpt lat="45.54579" lon="6.37378">
        <ele>1385</ele>
        <time>2019-02-16T09:42:18Z</time>
      </trkpt>
      <trkpt lat="45.54587" lon="6.37376">
        <ele>1384</ele>
        <time>2019-02-16T09:42:22Z</time>
      </trkpt>
      <trkpt lat="45.54596" lon="6.37381">
        <ele>1383</ele>
        <time>2019-02-16T09:42:48Z</time>
      </trkpt>
      <trkpt lat="45.54602" lon="6.37374">
        <ele>1382</ele>
        <time>2019-02-16T09:43:06Z</time>
      </trkpt>
      <trkpt lat="45.54607" lon="6.37375">
        <ele>1382</ele>
        <time>2019-02-16T09:43:18Z</time>
      </trkpt>
      <trkpt lat="45.54619" lon="6.37356">
        <ele>1382</ele>
        <time>2019-02-16T09:43:32Z</time>
      </trkpt>
      <trkpt lat="45.54624" lon="6.37351">
        <ele>1382</ele>
        <time>2019-02-16T09:43:38Z</time>
      </trkpt>
      <trkpt lat="45.54638" lon="6.37351">
        <ele>1381</ele>
        <time>2019-02-16T09:43:48Z</time>
      </trkpt>
      <trkpt lat="45.54639" lon="6.37341">
        <ele>1382</ele>
        <time>2019-02-16T09:43:56Z</time>
      </trkpt>
      <trkpt lat="45.54644" lon="6.37334">
        <ele>1382</ele>
        <time>2019-02-16T09:44:03Z</time>
      </trkpt>
      <trkpt lat="45.54651" lon="6.37332">
        <ele>1383</ele>
        <time>2019-02-16T09:44:13Z</time>
      </trkpt>
      <trkpt lat="45.54655" lon="6.37321">
        <ele>1384</ele>
        <time>2019-02-16T09:44:30Z</time>
      </trkpt>
      <trkpt lat="45.54662" lon="6.37315">
        <ele>1385</ele>
        <time>2019-02-16T09:44:41Z</time>
      </trkpt>
      <trkpt lat="45.5467" lon="6.37313">
        <ele>1386</ele>
        <time>2019-02-16T09:44:50Z</time>
      </trkpt>
      <trkpt lat="45.54675" lon="6.37308">
        <ele>1388</ele>
        <time>2019-02-16T09:45:08Z</time>
      </trkpt>
      <trkpt lat="45.54679" lon="6.37302">
        <ele>1390</ele>
        <time>2019-02-16T09:45:20Z</time>
      </trkpt>
      <trkpt lat="45.54681" lon="6.37302">
        <ele>1389</ele>
        <time>2019-02-16T09:46:14Z</time>
      </trkpt>
      <trkpt lat="45.54686" lon="6.37312">
        <ele>1393</ele>
        <time>2019-02-16T09:48:21Z</time>
      </trkpt>
      <trkpt lat="45.54681" lon="6.37313">
        <ele>1392</ele>
        <time>2019-02-16T09:48:59Z</time>
      </trkpt>
      <trkpt lat="45.54686" lon="6.3732">
        <ele>1392</ele>
        <time>2019-02-16T09:49:15Z</time>
      </trkpt>
      <trkpt lat="45.54684" lon="6.37327">
        <ele>1393</ele>
        <time>2019-02-16T09:49:29Z</time>
      </trkpt>
      <trkpt lat="45.54695" lon="6.37345">
        <ele>1398</ele>
        <time>2019-02-16T09:50:18Z</time>
      </trkpt>
      <trkpt lat="45.54708" lon="6.37358">
        <ele>1406</ele>
        <time>2019-02-16T09:51:21Z</time>
      </trkpt>
      <trkpt lat="45.54719" lon="6.37341">
        <ele>1411</ele>
        <time>2019-02-16T09:51:52Z</time>
      </trkpt>
      <trkpt lat="45.54734" lon="6.37344">
        <ele>1411</ele>
        <time>2019-02-16T09:53:00Z</time>
      </trkpt>
      <trkpt lat="45.54734" lon="6.37364">
        <ele>1416</ele>
        <time>2019-02-16T09:53:30Z</time>
      </trkpt>
      <trkpt lat="45.54751" lon="6.3736">
        <ele>1420</ele>
        <time>2019-02-16T09:53:55Z</time>
      </trkpt>
      <trkpt lat="45.54753" lon="6.37382">
        <ele>1425</ele>
        <time>2019-02-16T09:54:20Z</time>
      </trkpt>
      <trkpt lat="45.5475" lon="6.3739">
        <ele>1426</ele>
        <time>2019-02-16T09:54:31Z</time>
      </trkpt>
      <trkpt lat="45.54746" lon="6.37399">
        <ele>1428</ele>
        <time>2019-02-16T09:54:49Z</time>
      </trkpt>
      <trkpt lat="45.54747" lon="6.37405">
        <ele>1430</ele>
        <time>2019-02-16T09:55:01Z</time>
      </trkpt>
      <trkpt lat="45.54746" lon="6.3741">
        <ele>1431</ele>
        <time>2019-02-16T09:55:07Z</time>
      </trkpt>
      <trkpt lat="45.54747" lon="6.37416">
        <ele>1431</ele>
        <time>2019-02-16T09:55:10Z</time>
      </trkpt>
      <trkpt lat="45.5475" lon="6.37423">
        <ele>1433</ele>
        <time>2019-02-16T09:55:23Z</time>
      </trkpt>
      <trkpt lat="45.54753" lon="6.37429">
        <ele>1435</ele>
        <time>2019-02-16T09:55:35Z</time>
      </trkpt>
      <trkpt lat="45.54758" lon="6.37431">
        <ele>1441</ele>
        <time>2019-02-16T09:56:11Z</time>
      </trkpt>
      <trkpt lat="45.54764" lon="6.37427">
        <ele>1443</ele>
        <time>2019-02-16T09:56:23Z</time>
      </trkpt>
      <trkpt lat="45.54767" lon="6.37421">
        <ele>1444</ele>
        <time>2019-02-16T09:56:31Z</time>
      </trkpt>
      <trkpt lat="45.54771" lon="6.3742">
        <ele>1446</ele>
        <time>2019-02-16T09:56:43Z</time>
      </trkpt>
      <trkpt lat="45.54777" lon="6.37424">
        <ele>1448</ele>
        <time>2019-02-16T09:57:19Z</time>
      </trkpt>
      <trkpt lat="45.5478" lon="6.37435">
        <ele>1449</ele>
        <time>2019-02-16T09:57:30Z</time>
      </trkpt>
      <trkpt lat="45.54777" lon="6.37448">
        <ele>1452</ele>
        <time>2019-02-16T09:57:51Z</time>
      </trkpt>
      <trkpt lat="45.54779" lon="6.37457">
        <ele>1454</ele>
        <time>2019-02-16T09:58:03Z</time>
      </trkpt>
      <trkpt lat="45.54782" lon="6.37466">
        <ele>1455</ele>
        <time>2019-02-16T09:58:14Z</time>
      </trkpt>
      <trkpt lat="45.54777" lon="6.37471">
        <ele>1457</ele>
        <time>2019-02-16T09:58:27Z</time>
      </trkpt>
      <trkpt lat="45.5478" lon="6.37481">
        <ele>1459</ele>
        <time>2019-02-16T09:58:47Z</time>
      </trkpt>
      <trkpt lat="45.54784" lon="6.37477">
        <ele>1461</ele>
        <time>2019-02-16T09:59:03Z</time>
      </trkpt>
      <trkpt lat="45.54779" lon="6.37469">
        <ele>1462</ele>
        <time>2019-02-16T09:59:37Z</time>
      </trkpt>
      <trkpt lat="45.54781" lon="6.37493">
        <ele>1463</ele>
        <time>2019-02-16T10:04:42Z</time>
      </trkpt>
      <trkpt lat="45.5479" lon="6.37507">
        <ele>1466</ele>
        <time>2019-02-16T10:05:12Z</time>
      </trkpt>
      <trkpt lat="45.54796" lon="6.37511">
        <ele>1469</ele>
        <time>2019-02-16T10:05:48Z</time>
      </trkpt>
      <trkpt lat="45.54801" lon="6.37516">
        <ele>1472</ele>
        <time>2019-02-16T10:06:08Z</time>
      </trkpt>
      <trkpt lat="45.54796" lon="6.37525">
        <ele>1474</ele>
        <time>2019-02-16T10:06:23Z</time>
      </trkpt>
      <trkpt lat="45.54801" lon="6.37534">
        <ele>1475</ele>
        <time>2019-02-16T10:06:35Z</time>
      </trkpt>
      <trkpt lat="45.54807" lon="6.37536">
        <ele>1476</ele>
        <time>2019-02-16T10:06:39Z</time>
      </trkpt>
      <trkpt lat="45.54812" lon="6.37541">
        <ele>1477</ele>
        <time>2019-02-16T10:06:48Z</time>
      </trkpt>
      <trkpt lat="45.54809" lon="6.37552">
        <ele>1481</ele>
        <time>2019-02-16T10:07:12Z</time>
      </trkpt>
      <trkpt lat="45.54803" lon="6.37575">
        <ele>1483</ele>
        <time>2019-02-16T10:07:47Z</time>
      </trkpt>
      <trkpt lat="45.54798" lon="6.37578">
        <ele>1484</ele>
        <time>2019-02-16T10:07:52Z</time>
      </trkpt>
      <trkpt lat="45.54799" lon="6.37586">
        <ele>1485</ele>
        <time>2019-02-16T10:08:01Z</time>
      </trkpt>
      <trkpt lat="45.54796" lon="6.37592">
        <ele>1486</ele>
        <time>2019-02-16T10:08:13Z</time>
      </trkpt>
      <trkpt lat="45.54797" lon="6.37602">
        <ele>1489</ele>
        <time>2019-02-16T10:08:38Z</time>
      </trkpt>
      <trkpt lat="45.54791" lon="6.37628">
        <ele>1493</ele>
        <time>2019-02-16T10:09:11Z</time>
      </trkpt>
      <trkpt lat="45.54788" lon="6.37634">
        <ele>1494</ele>
        <time>2019-02-16T10:09:17Z</time>
      </trkpt>
      <trkpt lat="45.54785" lon="6.37643">
        <ele>1497</ele>
        <time>2019-02-16T10:09:43Z</time>
      </trkpt>
      <trkpt lat="45.54786" lon="6.37651">
        <ele>1498</ele>
        <time>2019-02-16T10:09:55Z</time>
      </trkpt>
      <trkpt lat="45.54787" lon="6.37667">
        <ele>1500</ele>
        <time>2019-02-16T10:10:04Z</time>
      </trkpt>
      <trkpt lat="45.5479" lon="6.37672">
        <ele>1501</ele>
        <time>2019-02-16T10:10:12Z</time>
      </trkpt>
      <trkpt lat="45.54795" lon="6.37678">
        <ele>1502</ele>
        <time>2019-02-16T10:10:24Z</time>
      </trkpt>
      <trkpt lat="45.54796" lon="6.37686">
        <ele>1503</ele>
        <time>2019-02-16T10:10:36Z</time>
      </trkpt>
      <trkpt lat="45.54801" lon="6.377">
        <ele>1506</ele>
        <time>2019-02-16T10:11:06Z</time>
      </trkpt>
      <trkpt lat="45.54807" lon="6.37702">
        <ele>1508</ele>
        <time>2019-02-16T10:11:18Z</time>
      </trkpt>
      <trkpt lat="45.54808" lon="6.37711">
        <ele>1511</ele>
        <time>2019-02-16T10:11:36Z</time>
      </trkpt>
      <trkpt lat="45.54815" lon="6.37717">
        <ele>1513</ele>
        <time>2019-02-16T10:11:54Z</time>
      </trkpt>
      <trkpt lat="45.54816" lon="6.37726">
        <ele>1515</ele>
        <time>2019-02-16T10:12:07Z</time>
      </trkpt>
      <trkpt lat="45.54819" lon="6.37734">
        <ele>1517</ele>
        <time>2019-02-16T10:12:25Z</time>
      </trkpt>
      <trkpt lat="45.54824" lon="6.37742">
        <ele>1519</ele>
        <time>2019-02-16T10:12:43Z</time>
      </trkpt>
      <trkpt lat="45.54831" lon="6.37746">
        <ele>1522</ele>
        <time>2019-02-16T10:13:03Z</time>
      </trkpt>
      <trkpt lat="45.54837" lon="6.37763">
        <ele>1526</ele>
        <time>2019-02-16T10:13:37Z</time>
      </trkpt>
      <trkpt lat="45.54841" lon="6.3777">
        <ele>1528</ele>
        <time>2019-02-16T10:13:55Z</time>
      </trkpt>
      <trkpt lat="45.54843" lon="6.37779">
        <ele>1530</ele>
        <time>2019-02-16T10:14:19Z</time>
      </trkpt>
      <trkpt lat="45.54842" lon="6.37788">
        <ele>1532</ele>
        <time>2019-02-16T10:14:32Z</time>
      </trkpt>
      <trkpt lat="45.54848" lon="6.37798">
        <ele>1532</ele>
        <time>2019-02-16T10:14:44Z</time>
      </trkpt>
      <trkpt lat="45.54852" lon="6.37805">
        <ele>1533</ele>
        <time>2019-02-16T10:14:53Z</time>
      </trkpt>
      <trkpt lat="45.54866" lon="6.37814">
        <ele>1536</ele>
        <time>2019-02-16T10:15:24Z</time>
      </trkpt>
      <trkpt lat="45.54872" lon="6.37817">
        <ele>1538</ele>
        <time>2019-02-16T10:15:37Z</time>
      </trkpt>
      <trkpt lat="45.54871" lon="6.37827">
        <ele>1538</ele>
        <time>2019-02-16T10:15:44Z</time>
      </trkpt>
      <trkpt lat="45.54876" lon="6.37836">
        <ele>1540</ele>
        <time>2019-02-16T10:16:21Z</time>
      </trkpt>
      <trkpt lat="45.54881" lon="6.37841">
        <ele>1541</ele>
        <time>2019-02-16T10:16:27Z</time>
      </trkpt>
      <trkpt lat="45.54886" lon="6.37848">
        <ele>1543</ele>
        <time>2019-02-16T10:16:53Z</time>
      </trkpt>
      <trkpt lat="45.5489" lon="6.37854">
        <ele>1544</ele>
        <time>2019-02-16T10:17:05Z</time>
      </trkpt>
      <trkpt lat="45.54892" lon="6.37862">
        <ele>1544</ele>
        <time>2019-02-16T10:17:11Z</time>
      </trkpt>
      <trkpt lat="45.54897" lon="6.3788">
        <ele>1545</ele>
        <time>2019-02-16T10:17:37Z</time>
      </trkpt>
      <trkpt lat="45.54899" lon="6.37894">
        <ele>1545</ele>
        <time>2019-02-16T10:17:52Z</time>
      </trkpt>
      <trkpt lat="45.54911" lon="6.37888">
        <ele>1547</ele>
        <time>2019-02-16T10:18:10Z</time>
      </trkpt>
      <trkpt lat="45.54915" lon="6.37894">
        <ele>1548</ele>
        <time>2019-02-16T10:18:18Z</time>
      </trkpt>
      <trkpt lat="45.54921" lon="6.37896">
        <ele>1549</ele>
        <time>2019-02-16T10:18:24Z</time>
      </trkpt>
      <trkpt lat="45.54926" lon="6.37904">
        <ele>1551</ele>
        <time>2019-02-16T10:18:43Z</time>
      </trkpt>
      <trkpt lat="45.54934" lon="6.37917">
        <ele>1552</ele>
        <time>2019-02-16T10:18:56Z</time>
      </trkpt>
      <trkpt lat="45.54935" lon="6.37929">
        <ele>1553</ele>
        <time>2019-02-16T10:19:10Z</time>
      </trkpt>
      <trkpt lat="45.54942" lon="6.37934">
        <ele>1555</ele>
        <time>2019-02-16T10:19:34Z</time>
      </trkpt>
      <trkpt lat="45.54947" lon="6.37938">
        <ele>1555</ele>
        <time>2019-02-16T10:19:40Z</time>
      </trkpt>
      <trkpt lat="45.54951" lon="6.37946">
        <ele>1556</ele>
        <time>2019-02-16T10:19:58Z</time>
      </trkpt>
      <trkpt lat="45.54958" lon="6.37945">
        <ele>1557</ele>
        <time>2019-02-16T10:20:07Z</time>
      </trkpt>
      <trkpt lat="45.54959" lon="6.37955">
        <ele>1558</ele>
        <time>2019-02-16T10:20:30Z</time>
      </trkpt>
      <trkpt lat="45.54969" lon="6.3796">
        <ele>1560</ele>
        <time>2019-02-16T10:20:43Z</time>
      </trkpt>
      <trkpt lat="45.54982" lon="6.37971">
        <ele>1562</ele>
        <time>2019-02-16T10:21:06Z</time>
      </trkpt>
      <trkpt lat="45.54992" lon="6.37971">
        <ele>1563</ele>
        <time>2019-02-16T10:21:24Z</time>
      </trkpt>
      <trkpt lat="45.54998" lon="6.37975">
        <ele>1566</ele>
        <time>2019-02-16T10:21:50Z</time>
      </trkpt>
      <trkpt lat="45.55004" lon="6.37978">
        <ele>1566</ele>
        <time>2019-02-16T10:22:08Z</time>
      </trkpt>
      <trkpt lat="45.55015" lon="6.37992">
        <ele>1570</ele>
        <time>2019-02-16T10:22:40Z</time>
      </trkpt>
      <trkpt lat="45.55032" lon="6.37994">
        <ele>1574</ele>
        <time>2019-02-16T10:23:16Z</time>
      </trkpt>
      <trkpt lat="45.55036" lon="6.37995">
        <ele>1576</ele>
        <time>2019-02-16T10:23:28Z</time>
      </trkpt>
      <trkpt lat="45.5505" lon="6.38002">
        <ele>1581</ele>
        <time>2019-02-16T10:24:05Z</time>
      </trkpt>
      <trkpt lat="45.55065" lon="6.37997">
        <ele>1584</ele>
        <time>2019-02-16T10:24:44Z</time>
      </trkpt>
      <trkpt lat="45.55071" lon="6.38002">
        <ele>1585</ele>
        <time>2019-02-16T10:24:49Z</time>
      </trkpt>
      <trkpt lat="45.55086" lon="6.38003">
        <ele>1591</ele>
        <time>2019-02-16T10:25:51Z</time>
      </trkpt>
      <trkpt lat="45.55093" lon="6.38001">
        <ele>1593</ele>
        <time>2019-02-16T10:26:03Z</time>
      </trkpt>
      <trkpt lat="45.55098" lon="6.38007">
        <ele>1595</ele>
        <time>2019-02-16T10:26:13Z</time>
      </trkpt>
      <trkpt lat="45.55101" lon="6.38009">
        <ele>1595</ele>
        <time>2019-02-16T10:26:17Z</time>
      </trkpt>
      <trkpt lat="45.55106" lon="6.38011">
        <ele>1597</ele>
        <time>2019-02-16T10:26:30Z</time>
      </trkpt>
      <trkpt lat="45.55112" lon="6.3801">
        <ele>1600</ele>
        <time>2019-02-16T10:26:54Z</time>
      </trkpt>
      <trkpt lat="45.55114" lon="6.38015">
        <ele>1601</ele>
        <time>2019-02-16T10:26:57Z</time>
      </trkpt>
      <trkpt lat="45.55119" lon="6.38015">
        <ele>1602</ele>
        <time>2019-02-16T10:27:13Z</time>
      </trkpt>
      <trkpt lat="45.55125" lon="6.38014">
        <ele>1604</ele>
        <time>2019-02-16T10:27:24Z</time>
      </trkpt>
      <trkpt lat="45.55128" lon="6.38012">
        <ele>1605</ele>
        <time>2019-02-16T10:27:35Z</time>
      </trkpt>
      <trkpt lat="45.5512" lon="6.37996">
        <ele>1608</ele>
        <time>2019-02-16T10:28:16Z</time>
      </trkpt>
      <trkpt lat="45.55125" lon="6.38">
        <ele>1611</ele>
        <time>2019-02-16T10:28:52Z</time>
      </trkpt>
      <trkpt lat="45.55131" lon="6.37998">
        <ele>1612</ele>
        <time>2019-02-16T10:29:10Z</time>
      </trkpt>
      <trkpt lat="45.55128" lon="6.37996">
        <ele>1615</ele>
        <time>2019-02-16T10:29:51Z</time>
      </trkpt>
      <trkpt lat="45.55125" lon="6.37987">
        <ele>1616</ele>
        <time>2019-02-16T10:30:01Z</time>
      </trkpt>
      <trkpt lat="45.55131" lon="6.3799">
        <ele>1617</ele>
        <time>2019-02-16T10:30:26Z</time>
      </trkpt>
      <trkpt lat="45.55135" lon="6.37984">
        <ele>1621</ele>
        <time>2019-02-16T10:31:03Z</time>
      </trkpt>
      <trkpt lat="45.55138" lon="6.37975">
        <ele>1623</ele>
        <time>2019-02-16T10:31:15Z</time>
      </trkpt>
      <trkpt lat="45.55141" lon="6.37969">
        <ele>1628</ele>
        <time>2019-02-16T10:33:02Z</time>
      </trkpt>
      <trkpt lat="45.55146" lon="6.37969">
        <ele>1628</ele>
        <time>2019-02-16T10:33:05Z</time>
      </trkpt>
      <trkpt lat="45.55149" lon="6.37966">
        <ele>1629</ele>
        <time>2019-02-16T10:33:15Z</time>
      </trkpt>
      <trkpt lat="45.55147" lon="6.37959">
        <ele>1631</ele>
        <time>2019-02-16T10:33:27Z</time>
      </trkpt>
      <trkpt lat="45.55147" lon="6.37952">
        <ele>1633</ele>
        <time>2019-02-16T10:33:39Z</time>
      </trkpt>
      <trkpt lat="45.55156" lon="6.37954">
        <ele>1634</ele>
        <time>2019-02-16T10:33:55Z</time>
      </trkpt>
      <trkpt lat="45.55166" lon="6.37953">
        <ele>1636</ele>
        <time>2019-02-16T10:34:17Z</time>
      </trkpt>
      <trkpt lat="45.55169" lon="6.37956">
        <ele>1637</ele>
        <time>2019-02-16T10:34:27Z</time>
      </trkpt>
      <trkpt lat="45.55173" lon="6.37956">
        <ele>1638</ele>
        <time>2019-02-16T10:34:37Z</time>
      </trkpt>
      <trkpt lat="45.55177" lon="6.37954">
        <ele>1640</ele>
        <time>2019-02-16T10:34:49Z</time>
      </trkpt>
      <trkpt lat="45.5518" lon="6.3795">
        <ele>1641</ele>
        <time>2019-02-16T10:35:01Z</time>
      </trkpt>
      <trkpt lat="45.5518" lon="6.37944">
        <ele>1642</ele>
        <time>2019-02-16T10:35:19Z</time>
      </trkpt>
      <trkpt lat="45.55175" lon="6.37934">
        <ele>1644</ele>
        <time>2019-02-16T10:35:37Z</time>
      </trkpt>
      <trkpt lat="45.55181" lon="6.37932">
        <ele>1646</ele>
        <time>2019-02-16T10:35:51Z</time>
      </trkpt>
      <trkpt lat="45.55188" lon="6.37932">
        <ele>1647</ele>
        <time>2019-02-16T10:36:04Z</time>
      </trkpt>
      <trkpt lat="45.55191" lon="6.37933">
        <ele>1648</ele>
        <time>2019-02-16T10:36:16Z</time>
      </trkpt>
      <trkpt lat="45.55196" lon="6.37935">
        <ele>1649</ele>
        <time>2019-02-16T10:36:28Z</time>
      </trkpt>
      <trkpt lat="45.55197" lon="6.37928">
        <ele>1650</ele>
        <time>2019-02-16T10:36:46Z</time>
      </trkpt>
      <trkpt lat="45.55195" lon="6.37923">
        <ele>1650</ele>
        <time>2019-02-16T10:36:50Z</time>
      </trkpt>
      <trkpt lat="45.55191" lon="6.3792">
        <ele>1651</ele>
        <time>2019-02-16T10:37:04Z</time>
      </trkpt>
      <trkpt lat="45.55191" lon="6.37917">
        <ele>1653</ele>
        <time>2019-02-16T10:37:40Z</time>
      </trkpt>
      <trkpt lat="45.55196" lon="6.37916">
        <ele>1654</ele>
        <time>2019-02-16T10:38:04Z</time>
      </trkpt>
      <trkpt lat="45.55202" lon="6.37916">
        <ele>1655</ele>
        <time>2019-02-16T10:38:14Z</time>
      </trkpt>
      <trkpt lat="45.55199" lon="6.3791">
        <ele>1656</ele>
        <time>2019-02-16T10:38:26Z</time>
      </trkpt>
      <trkpt lat="45.55191" lon="6.37905">
        <ele>1657</ele>
        <time>2019-02-16T10:38:40Z</time>
      </trkpt>
      <trkpt lat="45.55189" lon="6.37901">
        <ele>1658</ele>
        <time>2019-02-16T10:38:52Z</time>
      </trkpt>
      <trkpt lat="45.55185" lon="6.37903">
        <ele>1657</ele>
        <time>2019-02-16T10:39:23Z</time>
      </trkpt>
      <trkpt lat="45.55181" lon="6.37895">
        <ele>1658</ele>
        <time>2019-02-16T10:39:34Z</time>
      </trkpt>
      <trkpt lat="45.55186" lon="6.37894">
        <ele>1659</ele>
        <time>2019-02-16T10:39:44Z</time>
      </trkpt>
      <trkpt lat="45.55194" lon="6.37896">
        <ele>1660</ele>
        <time>2019-02-16T10:40:00Z</time>
      </trkpt>
      <trkpt lat="45.55199" lon="6.37897">
        <ele>1662</ele>
        <time>2019-02-16T10:40:19Z</time>
      </trkpt>
      <trkpt lat="45.55206" lon="6.37892">
        <ele>1663</ele>
        <time>2019-02-16T10:40:54Z</time>
      </trkpt>
      <trkpt lat="45.5521" lon="6.3789">
        <ele>1664</ele>
        <time>2019-02-16T10:41:02Z</time>
      </trkpt>
      <trkpt lat="45.55218" lon="6.37889">
        <ele>1666</ele>
        <time>2019-02-16T10:41:21Z</time>
      </trkpt>
      <trkpt lat="45.55223" lon="6.37886">
        <ele>1667</ele>
        <time>2019-02-16T10:41:32Z</time>
      </trkpt>
      <trkpt lat="45.5523" lon="6.3788">
        <ele>1670</ele>
        <time>2019-02-16T10:41:56Z</time>
      </trkpt>
      <trkpt lat="45.55235" lon="6.37872">
        <ele>1672</ele>
        <time>2019-02-16T10:42:19Z</time>
      </trkpt>
      <trkpt lat="45.5523" lon="6.37867">
        <ele>1673</ele>
        <time>2019-02-16T10:42:37Z</time>
      </trkpt>
      <trkpt lat="45.55226" lon="6.3786">
        <ele>1675</ele>
        <time>2019-02-16T10:42:46Z</time>
      </trkpt>
      <trkpt lat="45.55223" lon="6.37858">
        <ele>1676</ele>
        <time>2019-02-16T10:42:56Z</time>
      </trkpt>
      <trkpt lat="45.55222" lon="6.37851">
        <ele>1676</ele>
        <time>2019-02-16T10:43:00Z</time>
      </trkpt>
      <trkpt lat="45.55215" lon="6.37849">
        <ele>1677</ele>
        <time>2019-02-16T10:43:08Z</time>
      </trkpt>
      <trkpt lat="45.55208" lon="6.37845">
        <ele>1679</ele>
        <time>2019-02-16T10:43:27Z</time>
      </trkpt>
      <trkpt lat="45.55201" lon="6.37841">
        <ele>1681</ele>
        <time>2019-02-16T10:43:46Z</time>
      </trkpt>
      <trkpt lat="45.55195" lon="6.37834">
        <ele>1682</ele>
        <time>2019-02-16T10:44:02Z</time>
      </trkpt>
      <trkpt lat="45.55188" lon="6.37832">
        <ele>1684</ele>
        <time>2019-02-16T10:44:14Z</time>
      </trkpt>
      <trkpt lat="45.55185" lon="6.37829">
        <ele>1684</ele>
        <time>2019-02-16T10:44:20Z</time>
      </trkpt>
      <trkpt lat="45.5518" lon="6.37825">
        <ele>1686</ele>
        <time>2019-02-16T10:44:32Z</time>
      </trkpt>
      <trkpt lat="45.55176" lon="6.37825">
        <ele>1686</ele>
        <time>2019-02-16T10:44:37Z</time>
      </trkpt>
      <trkpt lat="45.55171" lon="6.37814">
        <ele>1688</ele>
        <time>2019-02-16T10:44:55Z</time>
      </trkpt>
      <trkpt lat="45.55168" lon="6.37809">
        <ele>1689</ele>
        <time>2019-02-16T10:45:07Z</time>
      </trkpt>
      <trkpt lat="45.55165" lon="6.37805">
        <ele>1691</ele>
        <time>2019-02-16T10:45:14Z</time>
      </trkpt>
      <trkpt lat="45.55162" lon="6.37801">
        <ele>1692</ele>
        <time>2019-02-16T10:45:26Z</time>
      </trkpt>
      <trkpt lat="45.55159" lon="6.37789">
        <ele>1694</ele>
        <time>2019-02-16T10:45:45Z</time>
      </trkpt>
      <trkpt lat="45.55159" lon="6.37783">
        <ele>1695</ele>
        <time>2019-02-16T10:45:53Z</time>
      </trkpt>
      <trkpt lat="45.55161" lon="6.37775">
        <ele>1696</ele>
        <time>2019-02-16T10:46:05Z</time>
      </trkpt>
      <trkpt lat="45.55157" lon="6.3776">
        <ele>1698</ele>
        <time>2019-02-16T10:46:36Z</time>
      </trkpt>
      <trkpt lat="45.55155" lon="6.37756">
        <ele>1698</ele>
        <time>2019-02-16T10:46:41Z</time>
      </trkpt>
      <trkpt lat="45.55151" lon="6.37753">
        <ele>1699</ele>
        <time>2019-02-16T10:46:45Z</time>
      </trkpt>
      <trkpt lat="45.5515" lon="6.37746">
        <ele>1700</ele>
        <time>2019-02-16T10:46:53Z</time>
      </trkpt>
      <trkpt lat="45.55149" lon="6.3774">
        <ele>1701</ele>
        <time>2019-02-16T10:47:05Z</time>
      </trkpt>
      <trkpt lat="45.55157" lon="6.37715">
        <ele>1705</ele>
        <time>2019-02-16T10:48:04Z</time>
      </trkpt>
      <trkpt lat="45.55158" lon="6.37709">
        <ele>1706</ele>
        <time>2019-02-16T10:48:18Z</time>
      </trkpt>
      <trkpt lat="45.55161" lon="6.37703">
        <ele>1708</ele>
        <time>2019-02-16T10:48:32Z</time>
      </trkpt>
      <trkpt lat="45.5516" lon="6.37698">
        <ele>1709</ele>
        <time>2019-02-16T10:48:40Z</time>
      </trkpt>
      <trkpt lat="45.55158" lon="6.3769">
        <ele>1710</ele>
        <time>2019-02-16T10:48:50Z</time>
      </trkpt>
      <trkpt lat="45.55156" lon="6.37668">
        <ele>1715</ele>
        <time>2019-02-16T10:49:30Z</time>
      </trkpt>
      <trkpt lat="45.55159" lon="6.37662">
        <ele>1716</ele>
        <time>2019-02-16T10:49:49Z</time>
      </trkpt>
      <trkpt lat="45.55169" lon="6.37663">
        <ele>1719</ele>
        <time>2019-02-16T10:50:06Z</time>
      </trkpt>
      <trkpt lat="45.55174" lon="6.3766">
        <ele>1721</ele>
        <time>2019-02-16T10:50:20Z</time>
      </trkpt>
      <trkpt lat="45.55178" lon="6.37658">
        <ele>1723</ele>
        <time>2019-02-16T10:50:38Z</time>
      </trkpt>
      <trkpt lat="45.55187" lon="6.37663">
        <ele>1725</ele>
        <time>2019-02-16T10:50:55Z</time>
      </trkpt>
      <trkpt lat="45.5519" lon="6.37657">
        <ele>1726</ele>
        <time>2019-02-16T10:51:03Z</time>
      </trkpt>
      <trkpt lat="45.55204" lon="6.37651">
        <ele>1732</ele>
        <time>2019-02-16T10:56:04Z</time>
      </trkpt>
      <trkpt lat="45.55208" lon="6.37649">
        <ele>1733</ele>
        <time>2019-02-16T10:56:17Z</time>
      </trkpt>
      <trkpt lat="45.55217" lon="6.37642">
        <ele>1736</ele>
        <time>2019-02-16T10:56:41Z</time>
      </trkpt>
      <trkpt lat="45.55226" lon="6.37637">
        <ele>1739</ele>
        <time>2019-02-16T10:57:05Z</time>
      </trkpt>
      <trkpt lat="45.55232" lon="6.37635">
        <ele>1740</ele>
        <time>2019-02-16T10:57:23Z</time>
      </trkpt>
      <trkpt lat="45.55234" lon="6.37631">
        <ele>1742</ele>
        <time>2019-02-16T10:57:35Z</time>
      </trkpt>
      <trkpt lat="45.55245" lon="6.37626">
        <ele>1745</ele>
        <time>2019-02-16T10:57:59Z</time>
      </trkpt>
      <trkpt lat="45.55249" lon="6.37625">
        <ele>1747</ele>
        <time>2019-02-16T10:58:11Z</time>
      </trkpt>
      <trkpt lat="45.55251" lon="6.37618">
        <ele>1748</ele>
        <time>2019-02-16T10:58:23Z</time>
      </trkpt>
      <trkpt lat="45.55254" lon="6.37614">
        <ele>1749</ele>
        <time>2019-02-16T10:58:35Z</time>
      </trkpt>
      <trkpt lat="45.55269" lon="6.37608">
        <ele>1754</ele>
        <time>2019-02-16T10:59:12Z</time>
      </trkpt>
      <trkpt lat="45.55274" lon="6.37604">
        <ele>1755</ele>
        <time>2019-02-16T10:59:24Z</time>
      </trkpt>
      <trkpt lat="45.55278" lon="6.37601">
        <ele>1756</ele>
        <time>2019-02-16T10:59:36Z</time>
      </trkpt>
      <trkpt lat="45.55282" lon="6.37597">
        <ele>1757</ele>
        <time>2019-02-16T10:59:47Z</time>
      </trkpt>
      <trkpt lat="45.55288" lon="6.3759">
        <ele>1759</ele>
        <time>2019-02-16T11:00:01Z</time>
      </trkpt>
      <trkpt lat="45.55292" lon="6.37584">
        <ele>1761</ele>
        <time>2019-02-16T11:00:19Z</time>
      </trkpt>
      <trkpt lat="45.55297" lon="6.37581">
        <ele>1762</ele>
        <time>2019-02-16T11:00:31Z</time>
      </trkpt>
      <trkpt lat="45.55299" lon="6.37571">
        <ele>1764</ele>
        <time>2019-02-16T11:00:49Z</time>
      </trkpt>
      <trkpt lat="45.55306" lon="6.37567">
        <ele>1766</ele>
        <time>2019-02-16T11:01:00Z</time>
      </trkpt>
      <trkpt lat="45.55312" lon="6.37563">
        <ele>1768</ele>
        <time>2019-02-16T11:01:20Z</time>
      </trkpt>
      <trkpt lat="45.55317" lon="6.37558">
        <ele>1770</ele>
        <time>2019-02-16T11:01:44Z</time>
      </trkpt>
      <trkpt lat="45.55321" lon="6.37555">
        <ele>1771</ele>
        <time>2019-02-16T11:01:51Z</time>
      </trkpt>
      <trkpt lat="45.55326" lon="6.37551">
        <ele>1772</ele>
        <time>2019-02-16T11:02:06Z</time>
      </trkpt>
      <trkpt lat="45.55333" lon="6.3755">
        <ele>1775</ele>
        <time>2019-02-16T11:02:24Z</time>
      </trkpt>
      <trkpt lat="45.55344" lon="6.37551">
        <ele>1778</ele>
        <time>2019-02-16T11:02:54Z</time>
      </trkpt>
      <trkpt lat="45.55352" lon="6.37549">
        <ele>1781</ele>
        <time>2019-02-16T11:03:20Z</time>
      </trkpt>
      <trkpt lat="45.55357" lon="6.37546">
        <ele>1783</ele>
        <time>2019-02-16T11:03:34Z</time>
      </trkpt>
      <trkpt lat="45.55356" lon="6.3754">
        <ele>1785</ele>
        <time>2019-02-16T11:03:46Z</time>
      </trkpt>
      <trkpt lat="45.55361" lon="6.37536">
        <ele>1787</ele>
        <time>2019-02-16T11:03:58Z</time>
      </trkpt>
      <trkpt lat="45.55365" lon="6.37538">
        <ele>1788</ele>
        <time>2019-02-16T11:04:04Z</time>
      </trkpt>
      <trkpt lat="45.55369" lon="6.37531">
        <ele>1790</ele>
        <time>2019-02-16T11:04:16Z</time>
      </trkpt>
      <trkpt lat="45.55375" lon="6.37529">
        <ele>1792</ele>
        <time>2019-02-16T11:04:28Z</time>
      </trkpt>
      <trkpt lat="45.55384" lon="6.37515">
        <ele>1796</ele>
        <time>2019-02-16T11:04:58Z</time>
      </trkpt>
      <trkpt lat="45.55384" lon="6.37502">
        <ele>1799</ele>
        <time>2019-02-16T11:05:18Z</time>
      </trkpt>
      <trkpt lat="45.55385" lon="6.37493">
        <ele>1800</ele>
        <time>2019-02-16T11:05:30Z</time>
      </trkpt>
      <trkpt lat="45.55503" lon="6.37273">
        <ele>1885.4</ele>
        <time>2019-02-16T11:19:08Z</time>
      </trkpt>
      <trkpt lat="45.5554" lon="6.37264">
        <ele>1742</ele>
        <time>2019-02-16T11:26:14Z</time>
      </trkpt>
      <trkpt lat="45.55569" lon="6.37222">
        <ele>1868</ele>
        <time>2019-02-16T11:26:20Z</time>
      </trkpt>
    </trkseg>
  </trk>
  <trk>
    <name><![CDATA[10 févr. 2019 à 15:06:08]]></name>
    <cmt><![CDATA[10 févr. 2019 à 15:06:08]]></cmt>
    <desc><![CDATA[{DC1}Heure de fin	: 
Durée totale	: 0h00:00
Moyenne globale	: -
Pente moyenne	: 8.03 %
Aire incluse	: 204.0794 ha
Détails par segments
distance  | durée    | vit.moy. | vit.max. | déniv. + | déniv -
   km     | hh:mn:ss |   km/h   |   km/h   |    m     |    m
    12.88 | 00:00:00 |      0.0 |      0.0 |        0 |        0{DC2}]]></desc>
    <trkseg>
      <trkpt lat="45.5509" lon="5.9394">
        <ele>368</ele>
      </trkpt>
      <trkpt lat="45.55093" lon="5.93932">
        <ele>369</ele>
      </trkpt>
      <trkpt lat="45.55087" lon="5.93913">
        <ele>369</ele>
      </trkpt>
      <trkpt lat="45.55048" lon="5.93904">
        <ele>371</ele>
      </trkpt>
      <trkpt lat="45.54987" lon="5.93908">
        <ele>373</ele>
      </trkpt>
      <trkpt lat="45.54988" lon="5.93944">
        <ele>374</ele>
      </trkpt>
      <trkpt lat="45.54944" lon="5.94075">
        <ele>372</ele>
      </trkpt>
      <trkpt lat="45.54931" lon="5.94084">
        <ele>371</ele>
      </trkpt>
      <trkpt lat="45.54922" lon="5.94102">
        <ele>369</ele>
      </trkpt>
      <trkpt lat="45.5492" lon="5.9412">
        <ele>367</ele>
      </trkpt>
      <trkpt lat="45.54913" lon="5.94138">
        <ele>366</ele>
      </trkpt>
      <trkpt lat="45.5491" lon="5.94193">
        <ele>366</ele>
      </trkpt>
      <trkpt lat="45.54912" lon="5.94211">
        <ele>366</ele>
      </trkpt>
      <trkpt lat="45.5492" lon="5.94248">
        <ele>366</ele>
      </trkpt>
      <trkpt lat="45.54906" lon="5.94257">
        <ele>367</ele>
      </trkpt>
      <trkpt lat="45.54893" lon="5.94255">
        <ele>369</ele>
      </trkpt>
      <trkpt lat="45.54868" lon="5.94238">
        <ele>370</ele>
      </trkpt>
      <trkpt lat="45.54855" lon="5.94233">
        <ele>372</ele>
      </trkpt>
      <trkpt lat="45.5483" lon="5.94224">
        <ele>374</ele>
      </trkpt>
      <trkpt lat="45.54827" lon="5.94275">
        <ele>377</ele>
      </trkpt>
      <trkpt lat="45.54821" lon="5.94293">
        <ele>379</ele>
      </trkpt>
      <trkpt lat="45.54844" lon="5.94348">
        <ele>382</ele>
      </trkpt>
      <trkpt lat="45.54845" lon="5.94442">
        <ele>389</ele>
      </trkpt>
      <trkpt lat="45.54842" lon="5.9446">
        <ele>393</ele>
      </trkpt>
      <trkpt lat="45.54817" lon="5.94484">
        <ele>398</ele>
      </trkpt>
      <trkpt lat="45.54813" lon="5.94464">
        <ele>402</ele>
      </trkpt>
      <trkpt lat="45.54812" lon="5.94446">
        <ele>405</ele>
      </trkpt>
      <trkpt lat="45.54787" lon="5.94428">
        <ele>409</ele>
      </trkpt>
      <trkpt lat="45.54773" lon="5.94428">
        <ele>412</ele>
      </trkpt>
      <trkpt lat="45.54766" lon="5.94446">
        <ele>415</ele>
      </trkpt>
      <trkpt lat="45.54751" lon="5.94463">
        <ele>418</ele>
      </trkpt>
      <trkpt lat="45.54716" lon="5.94422">
        <ele>424</ele>
      </trkpt>
      <trkpt lat="45.54691" lon="5.94413">
        <ele>429</ele>
      </trkpt>
      <trkpt lat="45.54678" lon="5.94401">
        <ele>433</ele>
      </trkpt>
      <trkpt lat="45.54671" lon="5.94383">
        <ele>437</ele>
      </trkpt>
      <trkpt lat="45.54671" lon="5.94365">
        <ele>440</ele>
      </trkpt>
      <trkpt lat="45.54665" lon="5.94346">
        <ele>442</ele>
      </trkpt>
      <trkpt lat="45.5464" lon="5.94313">
        <ele>446</ele>
      </trkpt>
      <trkpt lat="45.54627" lon="5.94302">
        <ele>449</ele>
      </trkpt>
      <trkpt lat="45.54588" lon="5.94302">
        <ele>455</ele>
      </trkpt>
      <trkpt lat="45.54574" lon="5.94298">
        <ele>459</ele>
      </trkpt>
      <trkpt lat="45.54561" lon="5.94287">
        <ele>464</ele>
      </trkpt>
      <trkpt lat="45.54509" lon="5.94283">
        <ele>470</ele>
      </trkpt>
      <trkpt lat="45.54483" lon="5.94261">
        <ele>477</ele>
      </trkpt>
      <trkpt lat="45.54477" lon="5.94242">
        <ele>483</ele>
      </trkpt>
      <trkpt lat="45.54472" lon="5.94205">
        <ele>489</ele>
      </trkpt>
      <trkpt lat="45.5446" lon="5.9418">
        <ele>494</ele>
      </trkpt>
      <trkpt lat="45.54439" lon="5.94171">
        <ele>499</ele>
      </trkpt>
      <trkpt lat="45.54413" lon="5.94148">
        <ele>505</ele>
      </trkpt>
      <trkpt lat="45.54401" lon="5.94142">
        <ele>509</ele>
      </trkpt>
      <trkpt lat="45.54374" lon="5.94142">
        <ele>514</ele>
      </trkpt>
      <trkpt lat="45.54348" lon="5.9413">
        <ele>519</ele>
      </trkpt>
      <trkpt lat="45.54283" lon="5.94055">
        <ele>526</ele>
      </trkpt>
      <trkpt lat="45.54231" lon="5.94026">
        <ele>535</ele>
      </trkpt>
      <trkpt lat="45.54218" lon="5.94011">
        <ele>541</ele>
      </trkpt>
      <trkpt lat="45.54205" lon="5.94006">
        <ele>546</ele>
      </trkpt>
      <trkpt lat="45.54192" lon="5.94006">
        <ele>550</ele>
      </trkpt>
      <trkpt lat="45.54183" lon="5.9397">
        <ele>553</ele>
      </trkpt>
      <trkpt lat="45.5417" lon="5.93955">
        <ele>556</ele>
      </trkpt>
      <trkpt lat="45.54144" lon="5.93944">
        <ele>560</ele>
      </trkpt>
      <trkpt lat="45.54132" lon="5.93942">
        <ele>564</ele>
      </trkpt>
      <trkpt lat="45.54078" lon="5.93907">
        <ele>571</ele>
      </trkpt>
      <trkpt lat="45.54053" lon="5.9389">
        <ele>578</ele>
      </trkpt>
      <trkpt lat="45.5404" lon="5.93853">
        <ele>584</ele>
      </trkpt>
      <trkpt lat="45.54026" lon="5.93837">
        <ele>589</ele>
      </trkpt>
      <trkpt lat="45.53974" lon="5.93806">
        <ele>597</ele>
      </trkpt>
      <trkpt lat="45.53897" lon="5.93709">
        <ele>605</ele>
      </trkpt>
      <trkpt lat="45.53884" lon="5.93705">
        <ele>609</ele>
      </trkpt>
      <trkpt lat="45.53819" lon="5.93651">
        <ele>611</ele>
      </trkpt>
      <trkpt lat="45.5378" lon="5.93605">
        <ele>613</ele>
      </trkpt>
      <trkpt lat="45.53767" lon="5.936">
        <ele>613</ele>
      </trkpt>
      <trkpt lat="45.53754" lon="5.93583">
        <ele>614</ele>
      </trkpt>
      <trkpt lat="45.53741" lon="5.93546">
        <ele>615</ele>
      </trkpt>
      <trkpt lat="45.53724" lon="5.93536">
        <ele>615</ele>
      </trkpt>
      <trkpt lat="45.53703" lon="5.93534">
        <ele>616</ele>
      </trkpt>
      <trkpt lat="45.53678" lon="5.93548">
        <ele>617</ele>
      </trkpt>
      <trkpt lat="45.53639" lon="5.93549">
        <ele>620</ele>
      </trkpt>
      <trkpt lat="45.53626" lon="5.93546">
        <ele>622</ele>
      </trkpt>
      <trkpt lat="45.53575" lon="5.9351">
        <ele>629</ele>
      </trkpt>
      <trkpt lat="45.53566" lon="5.93491">
        <ele>635</ele>
      </trkpt>
      <trkpt lat="45.53565" lon="5.93454">
        <ele>640</ele>
      </trkpt>
      <trkpt lat="45.5357" lon="5.93416">
        <ele>645</ele>
      </trkpt>
      <trkpt lat="45.5357" lon="5.9338">
        <ele>650</ele>
      </trkpt>
      <trkpt lat="45.53558" lon="5.93324">
        <ele>656</ele>
      </trkpt>
      <trkpt lat="45.53545" lon="5.93315">
        <ele>662</ele>
      </trkpt>
      <trkpt lat="45.53518" lon="5.93319">
        <ele>669</ele>
      </trkpt>
      <trkpt lat="45.53454" lon="5.93339">
        <ele>677</ele>
      </trkpt>
      <trkpt lat="45.53415" lon="5.93339">
        <ele>685</ele>
      </trkpt>
      <trkpt lat="45.53364" lon="5.93312">
        <ele>694</ele>
      </trkpt>
      <trkpt lat="45.53259" lon="5.93304">
        <ele>705</ele>
      </trkpt>
      <trkpt lat="45.53253" lon="5.93285">
        <ele>712</ele>
      </trkpt>
      <trkpt lat="45.53314" lon="5.93194">
        <ele>721</ele>
      </trkpt>
      <trkpt lat="45.53321" lon="5.93176">
        <ele>726</ele>
      </trkpt>
      <trkpt lat="45.53347" lon="5.93143">
        <ele>731</ele>
      </trkpt>
      <trkpt lat="45.53355" lon="5.93124">
        <ele>733</ele>
      </trkpt>
      <trkpt lat="45.53314" lon="5.93123">
        <ele>733</ele>
      </trkpt>
      <trkpt lat="45.5327" lon="5.93142">
        <ele>734</ele>
      </trkpt>
      <trkpt lat="45.53242" lon="5.93158">
        <ele>735</ele>
      </trkpt>
      <trkpt lat="45.53203" lon="5.93158">
        <ele>737</ele>
      </trkpt>
      <trkpt lat="45.53168" lon="5.9317">
        <ele>740</ele>
      </trkpt>
      <trkpt lat="45.53134" lon="5.93185">
        <ele>745</ele>
      </trkpt>
      <trkpt lat="45.53107" lon="5.9319">
        <ele>750</ele>
      </trkpt>
      <trkpt lat="45.53078" lon="5.93198">
        <ele>756</ele>
      </trkpt>
      <trkpt lat="45.52976" lon="5.93195">
        <ele>772</ele>
      </trkpt>
      <trkpt lat="45.52787" lon="5.93172">
        <ele>799</ele>
      </trkpt>
      <trkpt lat="45.52762" lon="5.93153">
        <ele>809</ele>
      </trkpt>
      <trkpt lat="45.52698" lon="5.93124">
        <ele>820</ele>
      </trkpt>
      <trkpt lat="45.52597" lon="5.93084">
        <ele>838</ele>
      </trkpt>
      <trkpt lat="45.52558" lon="5.93054">
        <ele>844</ele>
      </trkpt>
      <trkpt lat="45.52467" lon="5.92969">
        <ele>847</ele>
      </trkpt>
      <trkpt lat="45.52439" lon="5.92957">
        <ele>846</ele>
      </trkpt>
      <trkpt lat="45.52317" lon="5.92954">
        <ele>844</ele>
      </trkpt>
      <trkpt lat="45.52237" lon="5.92931">
        <ele>842</ele>
      </trkpt>
      <trkpt lat="45.52211" lon="5.92916">
        <ele>839</ele>
      </trkpt>
      <trkpt lat="45.52169" lon="5.92911">
        <ele>837</ele>
      </trkpt>
      <trkpt lat="45.52113" lon="5.92873">
        <ele>837</ele>
      </trkpt>
      <trkpt lat="45.52061" lon="5.92808">
        <ele>841</ele>
      </trkpt>
      <trkpt lat="45.52034" lon="5.92792">
        <ele>846</ele>
      </trkpt>
      <trkpt lat="45.51994" lon="5.92781">
        <ele>852</ele>
      </trkpt>
      <trkpt lat="45.51848" lon="5.92773">
        <ele>865</ele>
      </trkpt>
      <trkpt lat="45.51835" lon="5.92783">
        <ele>869</ele>
      </trkpt>
      <trkpt lat="45.51782" lon="5.92782">
        <ele>872</ele>
      </trkpt>
      <trkpt lat="45.51754" lon="5.92798">
        <ele>874</ele>
      </trkpt>
      <trkpt lat="45.51714" lon="5.92822">
        <ele>875</ele>
      </trkpt>
      <trkpt lat="45.51674" lon="5.92821">
        <ele>876</ele>
      </trkpt>
      <trkpt lat="45.51622" lon="5.92806">
        <ele>877</ele>
      </trkpt>
      <trkpt lat="45.51595" lon="5.92808">
        <ele>877</ele>
      </trkpt>
      <trkpt lat="45.51582" lon="5.92818">
        <ele>876</ele>
      </trkpt>
      <trkpt lat="45.51569" lon="5.9282">
        <ele>874</ele>
      </trkpt>
      <trkpt lat="45.51557" lon="5.92805">
        <ele>873</ele>
      </trkpt>
      <trkpt lat="45.51539" lon="5.92765">
        <ele>873</ele>
      </trkpt>
      <trkpt lat="45.51526" lon="5.92726">
        <ele>874</ele>
      </trkpt>
      <trkpt lat="45.51501" lon="5.92693">
        <ele>875</ele>
      </trkpt>
      <trkpt lat="45.51451" lon="5.92672">
        <ele>872</ele>
      </trkpt>
      <trkpt lat="45.51417" lon="5.92649">
        <ele>868</ele>
      </trkpt>
      <trkpt lat="45.51399" lon="5.92626">
        <ele>865</ele>
      </trkpt>
      <trkpt lat="45.51351" lon="5.92622">
        <ele>859</ele>
      </trkpt>
      <trkpt lat="45.51287" lon="5.92602">
        <ele>853</ele>
      </trkpt>
      <trkpt lat="45.51281" lon="5.92583">
        <ele>849</ele>
      </trkpt>
      <trkpt lat="45.51341" lon="5.92494">
        <ele>850</ele>
      </trkpt>
      <trkpt lat="45.51346" lon="5.92475">
        <ele>847</ele>
      </trkpt>
      <trkpt lat="45.51359" lon="5.92468">
        <ele>843</ele>
      </trkpt>
      <trkpt lat="45.51384" lon="5.9247">
        <ele>838</ele>
      </trkpt>
      <trkpt lat="45.51463" lon="5.92516">
        <ele>833</ele>
      </trkpt>
      <trkpt lat="45.51528" lon="5.92533">
        <ele>828</ele>
      </trkpt>
      <trkpt lat="45.51633" lon="5.92607">
        <ele>821</ele>
      </trkpt>
      <trkpt lat="45.51672" lon="5.92622">
        <ele>816</ele>
      </trkpt>
      <trkpt lat="45.51726" lon="5.92659">
        <ele>812</ele>
      </trkpt>
      <trkpt lat="45.51779" lon="5.92661">
        <ele>812</ele>
      </trkpt>
      <trkpt lat="45.51813" lon="5.92655">
        <ele>809</ele>
      </trkpt>
      <trkpt lat="45.51917" lon="5.92638">
        <ele>801</ele>
      </trkpt>
      <trkpt lat="45.51931" lon="5.92644">
        <ele>798</ele>
      </trkpt>
      <trkpt lat="45.51944" lon="5.92643">
        <ele>796</ele>
      </trkpt>
      <trkpt lat="45.51983" lon="5.92624">
        <ele>792</ele>
      </trkpt>
      <trkpt lat="45.52049" lon="5.92618">
        <ele>786</ele>
      </trkpt>
      <trkpt lat="45.52062" lon="5.92623">
        <ele>782</ele>
      </trkpt>
      <trkpt lat="45.52072" lon="5.92642">
        <ele>779</ele>
      </trkpt>
      <trkpt lat="45.52085" lon="5.92651">
        <ele>778</ele>
      </trkpt>
      <trkpt lat="45.52097" lon="5.92633">
        <ele>774</ele>
      </trkpt>
      <trkpt lat="45.52084" lon="5.9262">
        <ele>771</ele>
      </trkpt>
      <trkpt lat="45.52044" lon="5.92602">
        <ele>769</ele>
      </trkpt>
      <trkpt lat="45.51838" lon="5.92567">
        <ele>759</ele>
      </trkpt>
      <trkpt lat="45.51773" lon="5.92567">
        <ele>754</ele>
      </trkpt>
      <trkpt lat="45.5176" lon="5.92562">
        <ele>752</ele>
      </trkpt>
      <trkpt lat="45.51735" lon="5.92543">
        <ele>748</ele>
      </trkpt>
      <trkpt lat="45.51722" lon="5.92527">
        <ele>745</ele>
      </trkpt>
      <trkpt lat="45.51709" lon="5.92518">
        <ele>743</ele>
      </trkpt>
      <trkpt lat="45.51682" lon="5.92506">
        <ele>742</ele>
      </trkpt>
      <trkpt lat="45.51622" lon="5.9244">
        <ele>740</ele>
      </trkpt>
      <trkpt lat="45.51614" lon="5.9241">
        <ele>737</ele>
      </trkpt>
      <trkpt lat="45.51602" lon="5.92395">
        <ele>734</ele>
      </trkpt>
      <trkpt lat="45.51587" lon="5.92392">
        <ele>733</ele>
      </trkpt>
      <trkpt lat="45.51533" lon="5.92329">
        <ele>731</ele>
      </trkpt>
      <trkpt lat="45.51523" lon="5.92311">
        <ele>729</ele>
      </trkpt>
      <trkpt lat="45.51487" lon="5.92261">
        <ele>726</ele>
      </trkpt>
      <trkpt lat="45.51451" lon="5.92206">
        <ele>724</ele>
      </trkpt>
      <trkpt lat="45.51445" lon="5.92188">
        <ele>722</ele>
      </trkpt>
      <trkpt lat="45.5143" lon="5.92074">
        <ele>718</ele>
      </trkpt>
      <trkpt lat="45.51425" lon="5.92056">
        <ele>715</ele>
      </trkpt>
      <trkpt lat="45.51438" lon="5.92071">
        <ele>713</ele>
      </trkpt>
      <trkpt lat="45.51447" lon="5.9209">
        <ele>712</ele>
      </trkpt>
      <trkpt lat="45.51452" lon="5.92129">
        <ele>711</ele>
      </trkpt>
      <trkpt lat="45.51458" lon="5.92147">
        <ele>710</ele>
      </trkpt>
      <trkpt lat="45.51471" lon="5.92164">
        <ele>709</ele>
      </trkpt>
      <trkpt lat="45.51535" lon="5.9219">
        <ele>707</ele>
      </trkpt>
      <trkpt lat="45.51587" lon="5.92238">
        <ele>705</ele>
      </trkpt>
      <trkpt lat="45.51635" lon="5.9231">
        <ele>704</ele>
      </trkpt>
      <trkpt lat="45.51702" lon="5.92362">
        <ele>702</ele>
      </trkpt>
      <trkpt lat="45.51781" lon="5.92399">
        <ele>700</ele>
      </trkpt>
      <trkpt lat="45.51803" lon="5.92401">
        <ele>699</ele>
      </trkpt>
      <trkpt lat="45.51854" lon="5.92408">
        <ele>698</ele>
      </trkpt>
      <trkpt lat="45.5192" lon="5.92381">
        <ele>695</ele>
      </trkpt>
      <trkpt lat="45.5203" lon="5.92374">
        <ele>689</ele>
      </trkpt>
      <trkpt lat="45.5214" lon="5.92393">
        <ele>679</ele>
      </trkpt>
      <trkpt lat="45.52179" lon="5.92412">
        <ele>674</ele>
      </trkpt>
      <trkpt lat="45.52249" lon="5.92511">
        <ele>668</ele>
      </trkpt>
      <trkpt lat="45.5228" lon="5.92526">
        <ele>664</ele>
      </trkpt>
      <trkpt lat="45.52491" lon="5.92518">
        <ele>651</ele>
      </trkpt>
      <trkpt lat="45.52731" lon="5.92606">
        <ele>630</ele>
      </trkpt>
      <trkpt lat="45.52771" lon="5.92641">
        <ele>626</ele>
      </trkpt>
      <trkpt lat="45.5282" lon="5.92663">
        <ele>623</ele>
      </trkpt>
      <trkpt lat="45.52896" lon="5.92692">
        <ele>619</ele>
      </trkpt>
      <trkpt lat="45.52924" lon="5.92691">
        <ele>615</ele>
      </trkpt>
      <trkpt lat="45.52964" lon="5.92721">
        <ele>612</ele>
      </trkpt>
      <trkpt lat="45.53088" lon="5.9278">
        <ele>607</ele>
      </trkpt>
      <trkpt lat="45.5313" lon="5.92815">
        <ele>605</ele>
      </trkpt>
      <trkpt lat="45.53179" lon="5.92838">
        <ele>604</ele>
      </trkpt>
      <trkpt lat="45.53225" lon="5.92867">
        <ele>604</ele>
      </trkpt>
      <trkpt lat="45.53238" lon="5.92871">
        <ele>605</ele>
      </trkpt>
      <trkpt lat="45.53306" lon="5.92868">
        <ele>605</ele>
      </trkpt>
      <trkpt lat="45.53346" lon="5.92855">
        <ele>604</ele>
      </trkpt>
      <trkpt lat="45.53388" lon="5.92849">
        <ele>604</ele>
      </trkpt>
      <trkpt lat="45.53476" lon="5.92829">
        <ele>603</ele>
      </trkpt>
      <trkpt lat="45.53503" lon="5.92828">
        <ele>603</ele>
      </trkpt>
      <trkpt lat="45.53516" lon="5.92812">
        <ele>603</ele>
      </trkpt>
      <trkpt lat="45.53524" lon="5.92794">
        <ele>602</ele>
      </trkpt>
      <trkpt lat="45.53537" lon="5.92782">
        <ele>602</ele>
      </trkpt>
      <trkpt lat="45.5355" lon="5.92778">
        <ele>603</ele>
      </trkpt>
      <trkpt lat="45.53577" lon="5.9278">
        <ele>603</ele>
      </trkpt>
      <trkpt lat="45.53668" lon="5.92796">
        <ele>600</ele>
      </trkpt>
      <trkpt lat="45.53703" lon="5.92799">
        <ele>598</ele>
      </trkpt>
      <trkpt lat="45.53717" lon="5.9281">
        <ele>596</ele>
      </trkpt>
      <trkpt lat="45.5373" lon="5.92826">
        <ele>594</ele>
      </trkpt>
      <trkpt lat="45.53773" lon="5.92922">
        <ele>586</ele>
      </trkpt>
      <trkpt lat="45.53773" lon="5.9296">
        <ele>579</ele>
      </trkpt>
      <trkpt lat="45.53768" lon="5.9298">
        <ele>574</ele>
      </trkpt>
      <trkpt lat="45.53759" lon="5.92998">
        <ele>571</ele>
      </trkpt>
      <trkpt lat="45.53757" lon="5.93016">
        <ele>568</ele>
      </trkpt>
      <trkpt lat="45.5377" lon="5.93028">
        <ele>564</ele>
      </trkpt>
      <trkpt lat="45.53783" lon="5.93028">
        <ele>561</ele>
      </trkpt>
      <trkpt lat="45.53809" lon="5.93006">
        <ele>558</ele>
      </trkpt>
      <trkpt lat="45.53906" lon="5.92965">
        <ele>557</ele>
      </trkpt>
      <trkpt lat="45.54012" lon="5.92956">
        <ele>557</ele>
      </trkpt>
      <trkpt lat="45.54025" lon="5.92952">
        <ele>558</ele>
      </trkpt>
      <trkpt lat="45.54031" lon="5.92933">
        <ele>559</ele>
      </trkpt>
      <trkpt lat="45.54054" lon="5.92936">
        <ele>559</ele>
      </trkpt>
      <trkpt lat="45.54081" lon="5.92953">
        <ele>560</ele>
      </trkpt>
      <trkpt lat="45.54251" lon="5.93026">
        <ele>557</ele>
      </trkpt>
      <trkpt lat="45.54321" lon="5.9307">
        <ele>553</ele>
      </trkpt>
      <trkpt lat="45.5451" lon="5.93128">
        <ele>545</ele>
      </trkpt>
      <trkpt lat="45.54526" lon="5.93143">
        <ele>540</ele>
      </trkpt>
      <trkpt lat="45.5457" lon="5.93153">
        <ele>537</ele>
      </trkpt>
      <trkpt lat="45.54665" lon="5.93153">
        <ele>535</ele>
      </trkpt>
      <trkpt lat="45.54693" lon="5.93164">
        <ele>533</ele>
      </trkpt>
      <trkpt lat="45.54762" lon="5.93234">
        <ele>528</ele>
      </trkpt>
      <trkpt lat="45.54815" lon="5.9325">
        <ele>523</ele>
      </trkpt>
      <trkpt lat="45.54818" lon="5.93269">
        <ele>520</ele>
      </trkpt>
      <trkpt lat="45.54818" lon="5.93289">
        <ele>516</ele>
      </trkpt>
      <trkpt lat="45.54806" lon="5.93306">
        <ele>512</ele>
      </trkpt>
      <trkpt lat="45.54797" lon="5.93325">
        <ele>509</ele>
      </trkpt>
      <trkpt lat="45.54793" lon="5.93362">
        <ele>505</ele>
      </trkpt>
      <trkpt lat="45.54793" lon="5.934">
        <ele>500</ele>
      </trkpt>
      <trkpt lat="45.548" lon="5.93418">
        <ele>496</ele>
      </trkpt>
      <trkpt lat="45.54813" lon="5.93428">
        <ele>493</ele>
      </trkpt>
      <trkpt lat="45.54826" lon="5.93432">
        <ele>490</ele>
      </trkpt>
      <trkpt lat="45.54929" lon="5.93426">
        <ele>483</ele>
      </trkpt>
      <trkpt lat="45.5494" lon="5.93445">
        <ele>477</ele>
      </trkpt>
      <trkpt lat="45.54954" lon="5.93455">
        <ele>472</ele>
      </trkpt>
      <trkpt lat="45.54979" lon="5.93455">
        <ele>468</ele>
      </trkpt>
      <trkpt lat="45.55017" lon="5.93428">
        <ele>465</ele>
      </trkpt>
      <trkpt lat="45.5503" lon="5.93425">
        <ele>463</ele>
      </trkpt>
      <trkpt lat="45.55043" lon="5.93431">
        <ele>462</ele>
      </trkpt>
      <trkpt lat="45.55057" lon="5.93443">
        <ele>460</ele>
      </trkpt>
      <trkpt lat="45.55083" lon="5.93419">
        <ele>459</ele>
      </trkpt>
      <trkpt lat="45.5511" lon="5.93419">
        <ele>457</ele>
      </trkpt>
      <trkpt lat="45.55123" lon="5.93413">
        <ele>456</ele>
      </trkpt>
      <trkpt lat="45.55136" lon="5.93401">
        <ele>455</ele>
      </trkpt>
      <trkpt lat="45.55149" lon="5.934">
        <ele>454</ele>
      </trkpt>
      <trkpt lat="45.55162" lon="5.93417">
        <ele>452</ele>
      </trkpt>
      <trkpt lat="45.55168" lon="5.93436">
        <ele>451</ele>
      </trkpt>
      <trkpt lat="45.5518" lon="5.93444">
        <ele>449</ele>
      </trkpt>
      <trkpt lat="45.55245" lon="5.93447">
        <ele>445</ele>
      </trkpt>
      <trkpt lat="45.553" lon="5.935">
        <ele>437</ele>
      </trkpt>
      <trkpt lat="45.55313" lon="5.93506">
        <ele>432</ele>
      </trkpt>
      <trkpt lat="45.55325" lon="5.93525">
        <ele>428</ele>
      </trkpt>
      <trkpt lat="45.55329" lon="5.93543">
        <ele>424</ele>
      </trkpt>
      <trkpt lat="45.5533" lon="5.9358">
        <ele>421</ele>
      </trkpt>
      <trkpt lat="45.55278" lon="5.93589">
        <ele>417</ele>
      </trkpt>
      <trkpt lat="45.55223" lon="5.93633">
        <ele>412</ele>
      </trkpt>
      <trkpt lat="45.55203" lon="5.93664">
        <ele>408</ele>
      </trkpt>
      <trkpt lat="45.55203" lon="5.93702">
        <ele>403</ele>
      </trkpt>
      <trkpt lat="45.55211" lon="5.93721">
        <ele>400</ele>
      </trkpt>
      <trkpt lat="45.55217" lon="5.93791">
        <ele>377</ele>
      </trkpt>
    </trkseg>
  </trk>
  <trk>
    <name><![CDATA[10 févr. 2019 à 14:22:06]]></name>
    <cmt><![CDATA[10 févr. 2019 à 14:22:06]]></cmt>
    <desc><![CDATA[{DC1}Heure de fin	: 00:09:21
Durée totale	: -17690438h37:54
Moyenne globale	: -
Pente moyenne	: 5.62 %
Aire incluse	: 5.7967 ha
Détails par segments
distance  | durée    | vit.moy. | vit.max. | déniv. + | déniv -
   km     | hh:mn:ss |   km/h   |   km/h   |    m     |    m
     3.30 | 00:00:00 |      0.0 |      0.0 |        0 |        0{DC2}]]></desc>
    <trkseg>
      <trkpt lat="45.55169" lon="5.93089">
        <ele>415</ele>
      </trkpt>
      <trkpt lat="45.55335" lon="5.93549">
        <ele>408</ele>
      </trkpt>
      <trkpt lat="45.55329" lon="5.93541">
        <ele>408</ele>
      </trkpt>
      <trkpt lat="45.55324" lon="5.93517">
        <ele>409</ele>
      </trkpt>
      <trkpt lat="45.55318" lon="5.93503">
        <ele>410</ele>
      </trkpt>
      <trkpt lat="45.55297" lon="5.93331">
        <ele>413</ele>
      </trkpt>
      <trkpt lat="45.55297" lon="5.93268">
        <ele>414</ele>
      </trkpt>
      <trkpt lat="45.55294" lon="5.93252">
        <ele>415</ele>
      </trkpt>
      <trkpt lat="45.55242" lon="5.93154">
        <ele>415</ele>
      </trkpt>
      <trkpt lat="45.55195" lon="5.93092">
        <ele>413</ele>
      </trkpt>
      <trkpt lat="45.55177" lon="5.93081">
        <ele>412</ele>
      </trkpt>
      <trkpt lat="45.55071" lon="5.92946">
        <ele>412</ele>
      </trkpt>
      <trkpt lat="45.55065" lon="5.92935">
        <ele>412</ele>
      </trkpt>
      <trkpt lat="45.55063" lon="5.92921">
        <ele>412</ele>
      </trkpt>
      <trkpt lat="45.55024" lon="5.92904">
        <ele>413</ele>
      </trkpt>
      <trkpt lat="45.55039" lon="5.92864">
        <ele>415</ele>
      </trkpt>
      <trkpt lat="45.55048" lon="5.92851">
        <ele>416</ele>
      </trkpt>
      <trkpt lat="45.55081" lon="5.92836">
        <ele>418</ele>
      </trkpt>
      <trkpt lat="45.5517" lon="5.92763">
        <ele>423</ele>
      </trkpt>
      <trkpt lat="45.55212" lon="5.92754">
        <ele>428</ele>
      </trkpt>
      <trkpt lat="45.55226" lon="5.92743">
        <ele>431</ele>
      </trkpt>
      <trkpt lat="45.55229" lon="5.92726">
        <ele>433</ele>
      </trkpt>
      <trkpt lat="45.552" lon="5.92594">
        <ele>439</ele>
      </trkpt>
      <trkpt lat="45.55187" lon="5.92572">
        <ele>443</ele>
      </trkpt>
      <trkpt lat="45.55176" lon="5.92562">
        <ele>446</ele>
      </trkpt>
      <trkpt lat="45.55171" lon="5.92559">
        <ele>448</ele>
      </trkpt>
      <trkpt lat="45.5516" lon="5.92554">
        <ele>450</ele>
      </trkpt>
      <trkpt lat="45.55115" lon="5.92513">
        <ele>453</ele>
      </trkpt>
      <trkpt lat="45.55092" lon="5.92464">
        <ele>456</ele>
      </trkpt>
      <trkpt lat="45.55087" lon="5.92448">
        <ele>458</ele>
      </trkpt>
      <trkpt lat="45.55078" lon="5.92434">
        <ele>460</ele>
      </trkpt>
      <trkpt lat="45.55059" lon="5.92419">
        <ele>461</ele>
      </trkpt>
      <trkpt lat="45.55048" lon="5.92419">
        <ele>463</ele>
      </trkpt>
      <trkpt lat="45.55036" lon="5.92433">
        <ele>464</ele>
      </trkpt>
      <trkpt lat="45.55027" lon="5.92437">
        <ele>466</ele>
      </trkpt>
      <trkpt lat="45.55013" lon="5.92437">
        <ele>467</ele>
      </trkpt>
      <trkpt lat="45.54967" lon="5.92423">
        <ele>469</ele>
      </trkpt>
      <trkpt lat="45.54957" lon="5.92424">
        <ele>470</ele>
      </trkpt>
      <trkpt lat="45.54903" lon="5.92457">
        <ele>471</ele>
      </trkpt>
      <trkpt lat="45.54891" lon="5.92461">
        <ele>472</ele>
      </trkpt>
      <trkpt lat="45.54897" lon="5.9251">
        <ele>472</ele>
      </trkpt>
      <trkpt lat="45.54924" lon="5.92547">
        <ele>472</ele>
      </trkpt>
      <trkpt lat="45.54937" lon="5.92618">
        <ele>470</ele>
      </trkpt>
      <trkpt lat="45.54908" lon="5.92849">
        <ele>457</ele>
      </trkpt>
      <trkpt lat="45.54962" lon="5.92892">
        <ele>447</ele>
      </trkpt>
      <trkpt lat="45.55018" lon="5.92892">
        <ele>439</ele>
      </trkpt>
      <trkpt lat="45.55057" lon="5.92914">
        <ele>432</ele>
      </trkpt>
      <trkpt lat="45.55077" lon="5.92991">
        <ele>428</ele>
      </trkpt>
      <trkpt lat="45.55099" lon="5.9303">
        <ele>426</ele>
      </trkpt>
      <trkpt lat="45.55182" lon="5.93088">
        <ele>422</ele>
      </trkpt>
      <trkpt lat="45.55195" lon="5.93148">
        <ele>423</ele>
      </trkpt>
      <trkpt lat="45.5523" lon="5.93248">
        <ele>428</ele>
      </trkpt>
      <trkpt lat="45.553" lon="5.93366">
        <ele>426</ele>
      </trkpt>
      <trkpt lat="45.55306" lon="5.93403">
        <ele>425</ele>
      </trkpt>
      <trkpt lat="45.55306" lon="5.9348">
        <ele>422</ele>
      </trkpt>
      <trkpt lat="45.5532" lon="5.93549">
        <ele>419</ele>
      </trkpt>
      <trkpt lat="45.55236" lon="5.93662">
        <ele>408</ele>
      </trkpt>
      <trkpt lat="45.55213" lon="5.93699">
        <ele>403</ele>
      </trkpt>
      <trkpt lat="45.5518" lon="5.93905">
        <ele>366</ele>
      </trkpt>
    </trkseg>
  </trk>
  <trk>
    <name><![CDATA[10 févr. 2019 à 14:18:42]]></name>
    <cmt><![CDATA[10 févr. 2019 à 14:18:42]]></cmt>
    <trkseg>
      <trkpt lat="45.55248" lon="5.93806">
        <ele>371</ele>
        <time>2019-02-10T13:18:49Z</time>
      </trkpt>
      <trkpt lat="45.55248" lon="5.93807">
        <ele>372</ele>
        <time>2019-02-10T13:18:56Z</time>
      </trkpt>
    </trkseg>
  </trk>
  <trk>
    <name><![CDATA[10 févr. 2019 à 14:13:09]]></name>
    <cmt><![CDATA[10 févr. 2019 à 14:13:09]]></cmt>
    <trkseg>
      <trkpt lat="45.55248" lon="5.93803">
        <ele>372</ele>
        <time>2019-02-10T13:13:10Z</time>
      </trkpt>
      <trkpt lat="45.55248" lon="5.93803">
        <ele>372</ele>
        <time>2019-02-10T13:13:17Z</time>
      </trkpt>
    </trkseg>
  </trk>
  <trk>
    <name><![CDATA[10 févr. 2019 à 09:55:02]]></name>
    <cmt><![CDATA[10 févr. 2019 à 09:55:02]]></cmt>
    <desc><![CDATA[{DC1}Heure de fin	: 
Durée totale	: 0h00:00
Moyenne globale	: -
Pente moyenne	: 0.00 %
Aire incluse	: 113.6551 ha
Détails par segments
distance  | durée    | vit.moy. | vit.max. | déniv. + | déniv -
   km     | hh:mn:ss |   km/h   |   km/h   |    m     |    m
     5.33 | 00:00:00 |      0.0 |      0.0 |        0 |        0{DC2}]]></desc>
    <trkseg>
      <trkpt lat="45.5515" lon="5.93928">
        <ele>365.7</ele>
      </trkpt>
      <trkpt lat="45.55137" lon="5.93932">
        <ele>366.5</ele>
      </trkpt>
      <trkpt lat="45.55124" lon="5.93937">
        <ele>366.9</ele>
      </trkpt>
      <trkpt lat="45.55073" lon="5.93939">
        <ele>369</ele>
      </trkpt>
      <trkpt lat="45.55066" lon="5.93938">
        <ele>369.4</ele>
      </trkpt>
      <trkpt lat="45.55056" lon="5.93919">
        <ele>371.7</ele>
      </trkpt>
      <trkpt lat="45.55042" lon="5.93911">
        <ele>373.8</ele>
      </trkpt>
      <trkpt lat="45.55036" lon="5.9391">
        <ele>374.3</ele>
      </trkpt>
      <trkpt lat="45.55023" lon="5.93918">
        <ele>374.7</ele>
      </trkpt>
      <trkpt lat="45.54996" lon="5.93918">
        <ele>379.2</ele>
      </trkpt>
      <trkpt lat="45.5499" lon="5.93912">
        <ele>380.2</ele>
      </trkpt>
      <trkpt lat="45.54984" lon="5.93922">
        <ele>379.8</ele>
      </trkpt>
      <trkpt lat="45.54981" lon="5.93941">
        <ele>379.2</ele>
      </trkpt>
      <trkpt lat="45.54978" lon="5.93951">
        <ele>378.6</ele>
      </trkpt>
      <trkpt lat="45.54973" lon="5.93988">
        <ele>375.2</ele>
      </trkpt>
      <trkpt lat="45.5497" lon="5.93997">
        <ele>374.6</ele>
      </trkpt>
      <trkpt lat="45.54963" lon="5.94007">
        <ele>374.5</ele>
      </trkpt>
      <trkpt lat="45.54957" lon="5.94027">
        <ele>373.3</ele>
      </trkpt>
      <trkpt lat="45.54946" lon="5.94072">
        <ele>367.4</ele>
      </trkpt>
      <trkpt lat="45.54938" lon="5.94088">
        <ele>364</ele>
      </trkpt>
      <trkpt lat="45.54932" lon="5.9409">
        <ele>363.4</ele>
      </trkpt>
      <trkpt lat="45.54928" lon="5.94099">
        <ele>362.3</ele>
      </trkpt>
      <trkpt lat="45.54925" lon="5.94117">
        <ele>360.4</ele>
      </trkpt>
      <trkpt lat="45.54921" lon="5.94126">
        <ele>359.5</ele>
      </trkpt>
      <trkpt lat="45.54915" lon="5.94131">
        <ele>359</ele>
      </trkpt>
      <trkpt lat="45.5491" lon="5.9414">
        <ele>359</ele>
      </trkpt>
      <trkpt lat="45.54905" lon="5.94159">
        <ele>359.7</ele>
      </trkpt>
      <trkpt lat="45.54904" lon="5.94177">
        <ele>361.3</ele>
      </trkpt>
      <trkpt lat="45.54909" lon="5.94195">
        <ele>362.4</ele>
      </trkpt>
      <trkpt lat="45.54912" lon="5.94204">
        <ele>362.6</ele>
      </trkpt>
      <trkpt lat="45.54912" lon="5.94223">
        <ele>365.3</ele>
      </trkpt>
      <trkpt lat="45.54915" lon="5.94232">
        <ele>366.6</ele>
      </trkpt>
      <trkpt lat="45.54925" lon="5.9425">
        <ele>368.8</ele>
      </trkpt>
      <trkpt lat="45.54925" lon="5.9426">
        <ele>370.1</ele>
      </trkpt>
      <trkpt lat="45.54913" lon="5.9426">
        <ele>372.2</ele>
      </trkpt>
      <trkpt lat="45.54906" lon="5.94257">
        <ele>372.9</ele>
      </trkpt>
      <trkpt lat="45.549" lon="5.94252">
        <ele>373.2</ele>
      </trkpt>
      <trkpt lat="45.54887" lon="5.9425">
        <ele>375.4</ele>
      </trkpt>
      <trkpt lat="45.54874" lon="5.94252">
        <ele>377.5</ele>
      </trkpt>
      <trkpt lat="45.54867" lon="5.9425">
        <ele>378.2</ele>
      </trkpt>
      <trkpt lat="45.54854" lon="5.94238">
        <ele>378.9</ele>
      </trkpt>
      <trkpt lat="45.54835" lon="5.94222">
        <ele>380.8</ele>
      </trkpt>
      <trkpt lat="45.54828" lon="5.9423">
        <ele>382.7</ele>
      </trkpt>
      <trkpt lat="45.54817" lon="5.94268">
        <ele>388.2</ele>
      </trkpt>
      <trkpt lat="45.54817" lon="5.94277">
        <ele>388.8</ele>
      </trkpt>
      <trkpt lat="45.54834" lon="5.94323">
        <ele>393.4</ele>
      </trkpt>
      <trkpt lat="45.54841" lon="5.94357">
        <ele>397.5</ele>
      </trkpt>
      <trkpt lat="45.54843" lon="5.94422">
        <ele>406.1</ele>
      </trkpt>
      <trkpt lat="45.54844" lon="5.94431">
        <ele>407.3</ele>
      </trkpt>
      <trkpt lat="45.54844" lon="5.94449">
        <ele>410.1</ele>
      </trkpt>
      <trkpt lat="45.54842" lon="5.94459">
        <ele>411.1</ele>
      </trkpt>
      <trkpt lat="45.54835" lon="5.94468">
        <ele>412.7</ele>
      </trkpt>
      <trkpt lat="45.54815" lon="5.94476">
        <ele>417.1</ele>
      </trkpt>
      <trkpt lat="45.5481" lon="5.94467">
        <ele>419.3</ele>
      </trkpt>
      <trkpt lat="45.5481" lon="5.94447">
        <ele>420.5</ele>
      </trkpt>
      <trkpt lat="45.54807" lon="5.94438">
        <ele>420.6</ele>
      </trkpt>
      <trkpt lat="45.548" lon="5.9443">
        <ele>421.3</ele>
      </trkpt>
      <trkpt lat="45.54794" lon="5.94426">
        <ele>422.5</ele>
      </trkpt>
      <trkpt lat="45.54775" lon="5.94425">
        <ele>427.4</ele>
      </trkpt>
      <trkpt lat="45.54763" lon="5.94438">
        <ele>431.3</ele>
      </trkpt>
      <trkpt lat="45.54754" lon="5.94444">
        <ele>433.9</ele>
      </trkpt>
      <trkpt lat="45.54741" lon="5.94458">
        <ele>436.4</ele>
      </trkpt>
      <trkpt lat="45.54735" lon="5.94456">
        <ele>438.3</ele>
      </trkpt>
      <trkpt lat="45.54724" lon="5.94437">
        <ele>442.9</ele>
      </trkpt>
      <trkpt lat="45.54722" lon="5.94428">
        <ele>444.2</ele>
      </trkpt>
      <trkpt lat="45.54718" lon="5.94418">
        <ele>445.5</ele>
      </trkpt>
      <trkpt lat="45.54711" lon="5.94414">
        <ele>446.2</ele>
      </trkpt>
      <trkpt lat="45.54678" lon="5.94404">
        <ele>454</ele>
      </trkpt>
      <trkpt lat="45.54673" lon="5.94395">
        <ele>456.1</ele>
      </trkpt>
      <trkpt lat="45.5467" lon="5.94358">
        <ele>457.2</ele>
      </trkpt>
      <trkpt lat="45.54665" lon="5.94349">
        <ele>458.5</ele>
      </trkpt>
      <trkpt lat="45.54633" lon="5.94315">
        <ele>467.3</ele>
      </trkpt>
      <trkpt lat="45.54622" lon="5.94297">
        <ele>469.5</ele>
      </trkpt>
      <trkpt lat="45.5457" lon="5.94292">
        <ele>483.2</ele>
      </trkpt>
      <trkpt lat="45.54563" lon="5.94289">
        <ele>484.9</ele>
      </trkpt>
      <trkpt lat="45.54551" lon="5.94285">
        <ele>487.7</ele>
      </trkpt>
      <trkpt lat="45.54498" lon="5.94283">
        <ele>497.2</ele>
      </trkpt>
      <trkpt lat="45.54491" lon="5.94279">
        <ele>498.9</ele>
      </trkpt>
      <trkpt lat="45.5449" lon="5.9427">
        <ele>501</ele>
      </trkpt>
      <trkpt lat="45.54477" lon="5.94242">
        <ele>508.1</ele>
      </trkpt>
      <trkpt lat="45.5446" lon="5.94215">
        <ele>513.7</ele>
      </trkpt>
      <trkpt lat="45.54455" lon="5.94178">
        <ele>517</ele>
      </trkpt>
      <trkpt lat="45.54429" lon="5.94153">
        <ele>520</ele>
      </trkpt>
      <trkpt lat="45.54418" lon="5.94147">
        <ele>523.4</ele>
      </trkpt>
      <trkpt lat="45.54391" lon="5.94145">
        <ele>529.4</ele>
      </trkpt>
      <trkpt lat="45.54356" lon="5.94131">
        <ele>537.3</ele>
      </trkpt>
      <trkpt lat="45.5433" lon="5.94102">
        <ele>542.3</ele>
      </trkpt>
      <trkpt lat="45.54324" lon="5.94098">
        <ele>543.3</ele>
      </trkpt>
      <trkpt lat="45.54317" lon="5.94095">
        <ele>544.2</ele>
      </trkpt>
      <trkpt lat="45.5431" lon="5.94088">
        <ele>545.9</ele>
      </trkpt>
      <trkpt lat="45.54292" lon="5.94062">
        <ele>551.5</ele>
      </trkpt>
      <trkpt lat="45.54286" lon="5.94057">
        <ele>553.4</ele>
      </trkpt>
      <trkpt lat="45.54279" lon="5.94055">
        <ele>554.7</ele>
      </trkpt>
      <trkpt lat="45.5426" lon="5.94041">
        <ele>558.7</ele>
      </trkpt>
      <trkpt lat="45.5424" lon="5.94028">
        <ele>563.3</ele>
      </trkpt>
      <trkpt lat="45.54233" lon="5.94022">
        <ele>563.1</ele>
      </trkpt>
      <trkpt lat="45.54227" lon="5.94013">
        <ele>563.6</ele>
      </trkpt>
      <trkpt lat="45.5422" lon="5.94007">
        <ele>564.9</ele>
      </trkpt>
      <trkpt lat="45.542" lon="5.94005">
        <ele>567.1</ele>
      </trkpt>
      <trkpt lat="45.54194" lon="5.94006">
        <ele>567.5</ele>
      </trkpt>
      <trkpt lat="45.54188" lon="5.94004">
        <ele>568.6</ele>
      </trkpt>
      <trkpt lat="45.54185" lon="5.93995">
        <ele>570.8</ele>
      </trkpt>
      <trkpt lat="45.54181" lon="5.93976">
        <ele>574.8</ele>
      </trkpt>
      <trkpt lat="45.54177" lon="5.93966">
        <ele>574.8</ele>
      </trkpt>
      <trkpt lat="45.54171" lon="5.93957">
        <ele>575.4</ele>
      </trkpt>
      <trkpt lat="45.5416" lon="5.93952">
        <ele>579</ele>
      </trkpt>
      <trkpt lat="45.54152" lon="5.93951">
        <ele>581.5</ele>
      </trkpt>
      <trkpt lat="45.54124" lon="5.93938">
        <ele>588.3</ele>
      </trkpt>
      <trkpt lat="45.54104" lon="5.93923">
        <ele>594</ele>
      </trkpt>
      <trkpt lat="45.5409" lon="5.93918">
        <ele>598.7</ele>
      </trkpt>
      <trkpt lat="45.54076" lon="5.93907">
        <ele>603.9</ele>
      </trkpt>
      <trkpt lat="45.54063" lon="5.93889">
        <ele>610.1</ele>
      </trkpt>
      <trkpt lat="45.54057" lon="5.93885">
        <ele>611.6</ele>
      </trkpt>
      <trkpt lat="45.54051" lon="5.93875">
        <ele>612.7</ele>
      </trkpt>
      <trkpt lat="45.5404" lon="5.93853">
        <ele>613</ele>
      </trkpt>
      <trkpt lat="45.54005" lon="5.93845">
        <ele>621.6</ele>
      </trkpt>
      <trkpt lat="45.53998" lon="5.93841">
        <ele>623.4</ele>
      </trkpt>
      <trkpt lat="45.53993" lon="5.93831">
        <ele>625.2</ele>
      </trkpt>
      <trkpt lat="45.53991" lon="5.93822">
        <ele>626.3</ele>
      </trkpt>
      <trkpt lat="45.53984" lon="5.93804">
        <ele>628.2</ele>
      </trkpt>
      <trkpt lat="45.53945" lon="5.93761">
        <ele>633.4</ele>
      </trkpt>
      <trkpt lat="45.53938" lon="5.93757">
        <ele>633.6</ele>
      </trkpt>
      <trkpt lat="45.53931" lon="5.93749">
        <ele>633.4</ele>
      </trkpt>
      <trkpt lat="45.5392" lon="5.9373">
        <ele>631.9</ele>
      </trkpt>
      <trkpt lat="45.53907" lon="5.93721">
        <ele>633.5</ele>
      </trkpt>
      <trkpt lat="45.53855" lon="5.93696">
        <ele>628.5</ele>
      </trkpt>
      <trkpt lat="45.53835" lon="5.93669">
        <ele>621.4</ele>
      </trkpt>
      <trkpt lat="45.53815" lon="5.93654">
        <ele>619.8</ele>
      </trkpt>
      <trkpt lat="45.53776" lon="5.936">
        <ele>617.4</ele>
      </trkpt>
      <trkpt lat="45.53762" lon="5.93587">
        <ele>617.4</ele>
      </trkpt>
      <trkpt lat="45.53731" lon="5.93548">
        <ele>622.1</ele>
      </trkpt>
      <trkpt lat="45.53729" lon="5.93539">
        <ele>620.8</ele>
      </trkpt>
      <trkpt lat="45.53722" lon="5.93532">
        <ele>621.4</ele>
      </trkpt>
      <trkpt lat="45.53699" lon="5.93534">
        <ele>619.6</ele>
      </trkpt>
      <trkpt lat="45.53693" lon="5.93505">
        <ele>614.7</ele>
      </trkpt>
      <trkpt lat="45.53689" lon="5.93486">
        <ele>611.8</ele>
      </trkpt>
      <trkpt lat="45.5369" lon="5.93476">
        <ele>608.7</ele>
      </trkpt>
      <trkpt lat="45.53692" lon="5.93467">
        <ele>605</ele>
      </trkpt>
      <trkpt lat="45.53697" lon="5.93386">
        <ele>587.7</ele>
      </trkpt>
      <trkpt lat="45.53697" lon="5.93327">
        <ele>581.2</ele>
      </trkpt>
      <trkpt lat="45.53726" lon="5.9323">
        <ele>560.9</ele>
      </trkpt>
      <trkpt lat="45.53773" lon="5.93171">
        <ele>537.9</ele>
      </trkpt>
      <trkpt lat="45.53778" lon="5.93161">
        <ele>536.3</ele>
      </trkpt>
      <trkpt lat="45.53781" lon="5.93142">
        <ele>536</ele>
      </trkpt>
      <trkpt lat="45.53781" lon="5.93121">
        <ele>537.5</ele>
      </trkpt>
      <trkpt lat="45.53778" lon="5.93102">
        <ele>539.5</ele>
      </trkpt>
      <trkpt lat="45.5378" lon="5.93093">
        <ele>539.9</ele>
      </trkpt>
      <trkpt lat="45.53798" lon="5.93072">
        <ele>539</ele>
      </trkpt>
      <trkpt lat="45.53806" lon="5.93043">
        <ele>540.3</ele>
      </trkpt>
      <trkpt lat="45.53808" lon="5.93024">
        <ele>542.3</ele>
      </trkpt>
      <trkpt lat="45.5381" lon="5.93014">
        <ele>543.3</ele>
      </trkpt>
      <trkpt lat="45.53817" lon="5.93005">
        <ele>544</ele>
      </trkpt>
      <trkpt lat="45.53869" lon="5.92969">
        <ele>549.3</ele>
      </trkpt>
      <trkpt lat="45.54005" lon="5.92959">
        <ele>558.3</ele>
      </trkpt>
      <trkpt lat="45.54025" lon="5.92948">
        <ele>559.9</ele>
      </trkpt>
      <trkpt lat="45.54028" lon="5.92937">
        <ele>560.5</ele>
      </trkpt>
      <trkpt lat="45.54042" lon="5.92946">
        <ele>560</ele>
      </trkpt>
      <trkpt lat="45.54069" lon="5.92945">
        <ele>560.9</ele>
      </trkpt>
      <trkpt lat="45.54097" lon="5.92965">
        <ele>560.3</ele>
      </trkpt>
      <trkpt lat="45.54206" lon="5.93">
        <ele>559</ele>
      </trkpt>
      <trkpt lat="45.54239" lon="5.93031">
        <ele>555.7</ele>
      </trkpt>
      <trkpt lat="45.54261" lon="5.93042">
        <ele>552.2</ele>
      </trkpt>
      <trkpt lat="45.54274" lon="5.93057">
        <ele>549.6</ele>
      </trkpt>
      <trkpt lat="45.54289" lon="5.93065">
        <ele>547.7</ele>
      </trkpt>
      <trkpt lat="45.5433" lon="5.93076">
        <ele>545.6</ele>
      </trkpt>
      <trkpt lat="45.54337" lon="5.9308">
        <ele>545.6</ele>
      </trkpt>
      <trkpt lat="45.54457" lon="5.93112">
        <ele>538.7</ele>
      </trkpt>
      <trkpt lat="45.54501" lon="5.93131">
        <ele>532</ele>
      </trkpt>
      <trkpt lat="45.54516" lon="5.93134">
        <ele>531.2</ele>
      </trkpt>
      <trkpt lat="45.54526" lon="5.93141">
        <ele>529.5</ele>
      </trkpt>
      <trkpt lat="45.54582" lon="5.93145">
        <ele>529.3</ele>
      </trkpt>
      <trkpt lat="45.54618" lon="5.93157">
        <ele>528.3</ele>
      </trkpt>
      <trkpt lat="45.54684" lon="5.93159">
        <ele>529.3</ele>
      </trkpt>
      <trkpt lat="45.54734" lon="5.93196">
        <ele>523.1</ele>
      </trkpt>
      <trkpt lat="45.54747" lon="5.93214">
        <ele>519.7</ele>
      </trkpt>
      <trkpt lat="45.54749" lon="5.93223">
        <ele>517.8</ele>
      </trkpt>
      <trkpt lat="45.54749" lon="5.93233">
        <ele>515.6</ele>
      </trkpt>
      <trkpt lat="45.54815" lon="5.93256">
        <ele>509.3</ele>
      </trkpt>
      <trkpt lat="45.54822" lon="5.93263">
        <ele>507.3</ele>
      </trkpt>
      <trkpt lat="45.54822" lon="5.93273">
        <ele>505.1</ele>
      </trkpt>
      <trkpt lat="45.54818" lon="5.93282">
        <ele>502.8</ele>
      </trkpt>
      <trkpt lat="45.5479" lon="5.93307">
        <ele>496.7</ele>
      </trkpt>
      <trkpt lat="45.54785" lon="5.93317">
        <ele>494.1</ele>
      </trkpt>
      <trkpt lat="45.5478" lon="5.93336">
        <ele>489.6</ele>
      </trkpt>
      <trkpt lat="45.54779" lon="5.93365">
        <ele>485.5</ele>
      </trkpt>
      <trkpt lat="45.5479" lon="5.93422">
        <ele>476.1</ele>
      </trkpt>
      <trkpt lat="45.54794" lon="5.93431">
        <ele>474.5</ele>
      </trkpt>
      <trkpt lat="45.54813" lon="5.93453">
        <ele>468.8</ele>
      </trkpt>
      <trkpt lat="45.54826" lon="5.93457">
        <ele>466.3</ele>
      </trkpt>
      <trkpt lat="45.5484" lon="5.93456">
        <ele>464.6</ele>
      </trkpt>
      <trkpt lat="45.54918" lon="5.93425">
        <ele>463</ele>
      </trkpt>
      <trkpt lat="45.54933" lon="5.93425">
        <ele>462</ele>
      </trkpt>
      <trkpt lat="45.5494" lon="5.93428">
        <ele>460.7</ele>
      </trkpt>
      <trkpt lat="45.54943" lon="5.93446">
        <ele>454.9</ele>
      </trkpt>
      <trkpt lat="45.54949" lon="5.93463">
        <ele>449.7</ele>
      </trkpt>
      <trkpt lat="45.54956" lon="5.9347">
        <ele>447</ele>
      </trkpt>
      <trkpt lat="45.54962" lon="5.93469">
        <ele>446.5</ele>
      </trkpt>
      <trkpt lat="45.55023" lon="5.93429">
        <ele>456.3</ele>
      </trkpt>
      <trkpt lat="45.55044" lon="5.93427">
        <ele>456.4</ele>
      </trkpt>
      <trkpt lat="45.55051" lon="5.93429">
        <ele>455.7</ele>
      </trkpt>
      <trkpt lat="45.55064" lon="5.93435">
        <ele>452.8</ele>
      </trkpt>
      <trkpt lat="45.55067" lon="5.93425">
        <ele>454.9</ele>
      </trkpt>
      <trkpt lat="45.55067" lon="5.93416">
        <ele>457.1</ele>
      </trkpt>
      <trkpt lat="45.55074" lon="5.9341">
        <ele>456.9</ele>
      </trkpt>
      <trkpt lat="45.55108" lon="5.93406">
        <ele>451.8</ele>
      </trkpt>
      <trkpt lat="45.55129" lon="5.93398">
        <ele>450.7</ele>
      </trkpt>
      <trkpt lat="45.55136" lon="5.93398">
        <ele>450.2</ele>
      </trkpt>
      <trkpt lat="45.55143" lon="5.93406">
        <ele>448.9</ele>
      </trkpt>
      <trkpt lat="45.5516" lon="5.93435">
        <ele>443.8</ele>
      </trkpt>
      <trkpt lat="45.55182" lon="5.93446">
        <ele>440.1</ele>
      </trkpt>
      <trkpt lat="45.55199" lon="5.93448">
        <ele>437.4</ele>
      </trkpt>
      <trkpt lat="45.5522" lon="5.93445">
        <ele>433.5</ele>
      </trkpt>
      <trkpt lat="45.55226" lon="5.93442">
        <ele>432.6</ele>
      </trkpt>
      <trkpt lat="45.55239" lon="5.93441">
        <ele>430.3</ele>
      </trkpt>
      <trkpt lat="45.55274" lon="5.93479">
        <ele>420.9</ele>
      </trkpt>
      <trkpt lat="45.55313" lon="5.93502">
        <ele>414.3</ele>
      </trkpt>
      <trkpt lat="45.55319" lon="5.93509">
        <ele>412.9</ele>
      </trkpt>
      <trkpt lat="45.55324" lon="5.93518">
        <ele>411.5</ele>
      </trkpt>
      <trkpt lat="45.55326" lon="5.93528">
        <ele>410.3</ele>
      </trkpt>
      <trkpt lat="45.55327" lon="5.93556">
        <ele>406.8</ele>
      </trkpt>
      <trkpt lat="45.55325" lon="5.93565">
        <ele>405.6</ele>
      </trkpt>
      <trkpt lat="45.55319" lon="5.93572">
        <ele>405.1</ele>
      </trkpt>
      <trkpt lat="45.55297" lon="5.9358">
        <ele>405.6</ele>
      </trkpt>
      <trkpt lat="45.55271" lon="5.93581">
        <ele>407.7</ele>
      </trkpt>
      <trkpt lat="45.55251" lon="5.93602">
        <ele>402.7</ele>
      </trkpt>
      <trkpt lat="45.55206" lon="5.93665">
        <ele>390.9</ele>
      </trkpt>
      <trkpt lat="45.55202" lon="5.93711">
        <ele>386.7</ele>
      </trkpt>
      <trkpt lat="45.55209" lon="5.9374">
        <ele>383.8</ele>
      </trkpt>
      <trkpt lat="45.5521" lon="5.93771">
        <ele>380.5</ele>
      </trkpt>
      <trkpt lat="45.55203" lon="5.93827">
        <ele>373.8</ele>
      </trkpt>
      <trkpt lat="45.55182" lon="5.93903">
        <ele>365.8</ele>
      </trkpt>
      <trkpt lat="45.55163" lon="5.93918">
        <ele>365.3</ele>
      </trkpt>
      <trkpt lat="45.55153" lon="5.93923">
        <ele>365.8</ele>
      </trkpt>
      <trkpt lat="45.55157" lon="5.93921">
        <ele>365.7</ele>
      </trkpt>
      <trkpt lat="45.55217" lon="5.93733">
        <ele>372</ele>
        <time>2019-02-10T09:00:48Z</time>
      </trkpt>
      <trkpt lat="45.55247" lon="5.93799">
        <ele>373</ele>
        <time>2019-02-10T09:01:56Z</time>
      </trkpt>
      <trkpt lat="45.55215" lon="5.93766">
        <ele>379</ele>
        <time>2019-02-10T09:07:19Z</time>
      </trkpt>
      <trkpt lat="45.55215" lon="5.93766">
        <ele>379</ele>
        <time>2019-02-10T09:07:20Z</time>
      </trkpt>
      <trkpt lat="45.55248" lon="5.93801">
        <ele>372</ele>
        <time>2019-02-10T13:07:41Z</time>
      </trkpt>
    </trkseg>
  </trk>
  <trk>
    <name><![CDATA[10 févr. 2019 à 09:50:45]]></name>
    <cmt><![CDATA[10 févr. 2019 à 09:50:45]]></cmt>
    <desc><![CDATA[{DC1}Heure de fin	: 00:09:21
Durée totale	: -17690433h09:14
Moyenne globale	: -
Pente moyenne	: 0.00 %
Aire incluse	: 50.7119 ha
Détails par segments
distance  | durée    | vit.moy. | vit.max. | déniv. + | déniv -
   km     | hh:mn:ss |   km/h   |   km/h   |    m     |    m
     4.33 | 00:00:00 |      0.0 |      0.0 |        0 |        0{DC2}]]></desc>
    <trkseg>
      <trkpt lat="45.5503" lon="5.93918">
        <ele>373.6</ele>
      </trkpt>
      <trkpt lat="45.54773" lon="5.93796">
        <ele>408</ele>
      </trkpt>
      <trkpt lat="45.54758" lon="5.93682">
        <ele>422.7</ele>
      </trkpt>
      <trkpt lat="45.54642" lon="5.93639">
        <ele>427.9</ele>
      </trkpt>
      <trkpt lat="45.54214" lon="5.93494">
        <ele>464.4</ele>
      </trkpt>
      <trkpt lat="45.53962" lon="5.93348">
        <ele>498.1</ele>
      </trkpt>
      <trkpt lat="45.54056" lon="5.93236">
        <ele>508.1</ele>
      </trkpt>
      <trkpt lat="45.53793" lon="5.93084">
        <ele>538.7</ele>
      </trkpt>
      <trkpt lat="45.54008" lon="5.92948">
        <ele>559.1</ele>
      </trkpt>
      <trkpt lat="45.54393" lon="5.93097">
        <ele>545.4</ele>
      </trkpt>
      <trkpt lat="45.54676" lon="5.93172">
        <ele>527.1</ele>
      </trkpt>
      <trkpt lat="45.54737" lon="5.9323">
        <ele>516.4</ele>
      </trkpt>
      <trkpt lat="45.54809" lon="5.9326">
        <ele>508.5</ele>
      </trkpt>
      <trkpt lat="45.54772" lon="5.93328">
        <ele>491.3</ele>
      </trkpt>
      <trkpt lat="45.54784" lon="5.93429">
        <ele>474.8</ele>
      </trkpt>
      <trkpt lat="45.5482" lon="5.93459">
        <ele>466.3</ele>
      </trkpt>
      <trkpt lat="45.54914" lon="5.93438">
        <ele>460.6</ele>
      </trkpt>
      <trkpt lat="45.54821" lon="5.93539">
        <ele>446.4</ele>
      </trkpt>
      <trkpt lat="45.55039" lon="5.93423">
        <ele>457.9</ele>
      </trkpt>
      <trkpt lat="45.55179" lon="5.93418">
        <ele>444.4</ele>
      </trkpt>
      <trkpt lat="45.55293" lon="5.93487">
        <ele>417.5</ele>
      </trkpt>
      <trkpt lat="45.5532" lon="5.9356">
        <ele>407.1</ele>
      </trkpt>
      <trkpt lat="45.55269" lon="5.93594">
        <ele>404.2</ele>
      </trkpt>
      <trkpt lat="45.55212" lon="5.93712">
        <ele>386.5</ele>
      </trkpt>
      <trkpt lat="45.55191" lon="5.93893">
        <ele>366.7</ele>
      </trkpt>
    </trkseg>
  </trk>
  <trk>
    <name><![CDATA[10 févr. 2019 à 09:31:15]]></name>
    <cmt><![CDATA[10 févr. 2019 à 09:31:15]]></cmt>
    <trkseg>
  </trk>
  <trk>
    <name><![CDATA[10 févr. 2019 à 09:31:06]]></name>
    <cmt><![CDATA[10 févr. 2019 à 09:31:06]]></cmt>
    <trkseg>
  </trk>
  <rte>
    <name><![CDATA[4 avr. 2019 à 23:11:12]]></name>
    <cmt><![CDATA[4 avr. 2019 à 23:11:12]]></cmt>
    <desc><![CDATA[{DC1}Heure de fin	: 
Durée totale	: 0h00:00
Moyenne globale	: -
Pente moyenne	: 0.00 %
Aire incluse	: 7.4932 ha
Détails par segments
distance  | durée    | vit.moy. | vit.max. | déniv. + | déniv -
   km     | hh:mn:ss |   km/h   |   km/h   |    m     |    m
     0.81 | 00:00:00 |      0.0 |      0.0 |        0 |        0{DC2}]]></desc>
      <rtept lat="45.60077" lon="6.18221">
        <ele>1608.6</ele>
      </rtept>
      <rtept lat="45.59468" lon="6.1822">
        <ele>1760.9</ele>
      </rtept>
      <rtept lat="45.59468" lon="6.1822">
        <ele>1760.9</ele>
      </rtept>
    </rte>
  <rte>
    <name><![CDATA[10 févr. 2019 à 15:16:12]]></name>
    <cmt><![CDATA[10 févr. 2019 à 15:16:12]]></cmt>
    <desc><![CDATA[{DC1}Heure de fin	: 00:09:21
Durée totale	: -17690439h43:48
Moyenne globale	: -
Pente moyenne	: 7.00 %
Aire incluse	: 221.0936 ha
Détails par segments
distance  | durée    | vit.moy. | vit.max. | déniv. + | déniv -
   km     | hh:mn:ss |   km/h   |   km/h   |    m     |    m
     7.48 | 00:00:00 |      0.0 |      0.0 |        0 |        0{DC2}]]></desc>
      <rtept lat="45.55203" lon="5.93805">
        <ele>376</ele>
      </rtept>
      <rtept lat="45.55177" lon="5.93873">
        <ele>369</ele>
      </rtept>
      <rtept lat="45.55176" lon="5.93942">
        <ele>367</ele>
      </rtept>
      <rtept lat="45.55105" lon="5.93942">
        <ele>367</ele>
      </rtept>
      <rtept lat="45.54993" lon="5.93908">
        <ele>371</ele>
      </rtept>
      <rtept lat="45.54929" lon="5.94099">
        <ele>370</ele>
      </rtept>
      <rtept lat="45.54908" lon="5.94204">
        <ele>367</ele>
      </rtept>
      <rtept lat="45.54991" lon="5.94287">
        <ele>365</ele>
      </rtept>
      <rtept lat="45.5506" lon="5.94384">
        <ele>361</ele>
      </rtept>
      <rtept lat="45.55147" lon="5.94384">
        <ele>357</ele>
      </rtept>
      <rtept lat="45.55129" lon="5.94607">
        <ele>358</ele>
      </rtept>
      <rtept lat="45.55029" lon="5.94809">
        <ele>355</ele>
      </rtept>
      <rtept lat="45.54884" lon="5.94886">
        <ele>346</ele>
      </rtept>
      <rtept lat="45.5477" lon="5.94931">
        <ele>342</ele>
      </rtept>
      <rtept lat="45.5468" lon="5.95004">
        <ele>339</ele>
      </rtept>
      <rtept lat="45.54596" lon="5.95133">
        <ele>340</ele>
      </rtept>
      <rtept lat="45.54446" lon="5.95195">
        <ele>343</ele>
      </rtept>
      <rtept lat="45.543" lon="5.95262">
        <ele>344</ele>
      </rtept>
      <rtept lat="45.54156" lon="5.95212">
        <ele>337</ele>
      </rtept>
      <rtept lat="45.54041" lon="5.95204">
        <ele>338</ele>
      </rtept>
      <rtept lat="45.53917" lon="5.95141">
        <ele>343</ele>
      </rtept>
      <rtept lat="45.53844" lon="5.95135">
        <ele>347</ele>
      </rtept>
      <rtept lat="45.53765" lon="5.9503">
        <ele>349</ele>
      </rtept>
      <rtept lat="45.5381" lon="5.94993">
        <ele>352</ele>
      </rtept>
      <rtept lat="45.53781" lon="5.94901">
        <ele>358</ele>
      </rtept>
      <rtept lat="45.53711" lon="5.94845">
        <ele>365</ele>
      </rtept>
      <rtept lat="45.53702" lon="5.94764">
        <ele>369</ele>
      </rtept>
      <rtept lat="45.53817" lon="5.94807">
        <ele>376</ele>
      </rtept>
      <rtept lat="45.53865" lon="5.94633">
        <ele>389</ele>
      </rtept>
      <rtept lat="45.53778" lon="5.94491">
        <ele>408</ele>
      </rtept>
      <rtept lat="45.53757" lon="5.94371">
        <ele>425</ele>
      </rtept>
      <rtept lat="45.53775" lon="5.94279">
        <ele>434</ele>
      </rtept>
      <rtept lat="45.53726" lon="5.94227">
        <ele>442</ele>
      </rtept>
      <rtept lat="45.53572" lon="5.94146">
        <ele>468</ele>
      </rtept>
      <rtept lat="45.53664" lon="5.94039">
        <ele>483</ele>
      </rtept>
      <rtept lat="45.53532" lon="5.93983">
        <ele>505</ele>
      </rtept>
      <rtept lat="45.53416" lon="5.93985">
        <ele>516</ele>
      </rtept>
      <rtept lat="45.5355" lon="5.93869">
        <ele>532</ele>
      </rtept>
      <rtept lat="45.5359" lon="5.93845">
        <ele>537</ele>
      </rtept>
      <rtept lat="45.5355" lon="5.93802">
        <ele>544</ele>
      </rtept>
      <rtept lat="45.53724" lon="5.93554">
        <ele>587</ele>
      </rtept>
      <rtept lat="45.53691" lon="5.93339">
        <ele>592</ele>
      </rtept>
      <rtept lat="45.5376" lon="5.93178">
        <ele>575</ele>
      </rtept>
      <rtept lat="45.53843" lon="5.93069">
        <ele>555</ele>
      </rtept>
      <rtept lat="45.53939" lon="5.93157">
        <ele>541</ele>
      </rtept>
      <rtept lat="45.54068" lon="5.93234">
        <ele>522</ele>
      </rtept>
      <rtept lat="45.54219" lon="5.93247">
        <ele>514</ele>
      </rtept>
      <rtept lat="45.54355" lon="5.93232">
        <ele>512</ele>
      </rtept>
      <rtept lat="45.54489" lon="5.9326">
        <ele>508</ele>
      </rtept>
      <rtept lat="45.54636" lon="5.93249">
        <ele>510</ele>
      </rtept>
      <rtept lat="45.54758" lon="5.93249">
        <ele>510</ele>
      </rtept>
      <rtept lat="45.54818" lon="5.93298">
        <ele>507</ele>
      </rtept>
      <rtept lat="45.54796" lon="5.93418">
        <ele>496</ele>
      </rtept>
      <rtept lat="45.5491" lon="5.93433">
        <ele>483</ele>
      </rtept>
      <rtept lat="45.55126" lon="5.9341">
        <ele>463</ele>
      </rtept>
      <rtept lat="45.55256" lon="5.93453">
        <ele>444</ele>
      </rtept>
      <rtept lat="45.55329" lon="5.93558">
        <ele>430</ele>
      </rtept>
      <rtept lat="45.55222" lon="5.93642">
        <ele>415</ele>
      </rtept>
      <rtept lat="45.55195" lon="5.93811">
        <ele>375</ele>
      </rtept>
    </rte>
  <rte>
    <name><![CDATA[10 févr. 2019 à 15:15:48]]></name>
    <cmt><![CDATA[10 févr. 2019 à 15:15:48]]></cmt>
    <desc><![CDATA[{DC1}Heure de fin	: 00:09:21
Durée totale	: -17690439h44:12
Moyenne globale	: -
Pente moyenne	: nan %
Aire incluse	: 0.0000 ha
Détails par segments
distance  | durée    | vit.moy. | vit.max. | déniv. + | déniv -
   km     | hh:mn:ss |   km/h   |   km/h   |    m     |    m
     0.00 | 00:00:00 |      0.0 |      0.0 |        0 |        0{DC2}]]></desc>
      <rtept lat="45.5175" lon="5.93483">
        <ele>732.3</ele>
      </rtept>
    </rte>
  <rte>
    <name><![CDATA[10 févr. 2019 à 15:06:08]]></name>
    <cmt><![CDATA[10 févr. 2019 à 15:06:08]]></cmt>
    <desc><![CDATA[{DC1}Heure de fin	: 
Durée totale	: 0h00:00
Moyenne globale	: -
Pente moyenne	: 8.03 %
Aire incluse	: 204.0794 ha
Détails par segments
distance  | durée    | vit.moy. | vit.max. | déniv. + | déniv -
   km     | hh:mn:ss |   km/h   |   km/h   |    m     |    m
    12.88 | 00:00:00 |      0.0 |      0.0 |        0 |        0{DC2}]]></desc>
      <rtept lat="45.5509" lon="5.9394">
        <ele>368</ele>
      </rtept>
      <rtept lat="45.55217" lon="5.93791">
        <ele>377</ele>
      </rtept>
    </rte>
  <rte>
    <name><![CDATA[10 févr. 2019 à 14:22:06]]></name>
    <cmt><![CDATA[10 févr. 2019 à 14:22:06]]></cmt>
    <desc><![CDATA[{DC1}Heure de fin	: 00:09:21
Durée totale	: -17690438h37:54
Moyenne globale	: -
Pente moyenne	: 5.62 %
Aire incluse	: 5.7967 ha
Détails par segments
distance  | durée    | vit.moy. | vit.max. | déniv. + | déniv -
   km     | hh:mn:ss |   km/h   |   km/h   |    m     |    m
     3.30 | 00:00:00 |      0.0 |      0.0 |        0 |        0{DC2}]]></desc>
      <rtept lat="45.55169" lon="5.93089">
        <ele>415</ele>
      </rtept>
      <rtept lat="45.5518" lon="5.93905">
        <ele>366</ele>
      </rtept>
    </rte>
  <rte>
    <name><![CDATA[10 févr. 2019 à 09:50:45]]></name>
    <cmt><![CDATA[10 févr. 2019 à 09:50:45]]></cmt>
    <desc><![CDATA[{DC1}Heure de fin	: 00:09:21
Durée totale	: -17690433h09:14
Moyenne globale	: -
Pente moyenne	: 0.00 %
Aire incluse	: 50.7119 ha
Détails par segments
distance  | durée    | vit.moy. | vit.max. | déniv. + | déniv -
   km     | hh:mn:ss |   km/h   |   km/h   |    m     |    m
     4.33 | 00:00:00 |      0.0 |      0.0 |        0 |        0{DC2}]]></desc>
      <rtept lat="45.5503" lon="5.93918">
        <ele>373.6</ele>
      </rtept>
      <rtept lat="45.55191" lon="5.93893">
        <ele>366.7</ele>
      </rtept>
    </rte>
  <rte>
    <name><![CDATA[10 févr. 2019 à 09:07:08]]></name>
    <cmt><![CDATA[10 févr. 2019 à 09:07:08]]></cmt>
    <desc><![CDATA[{DC1}Heure de fin	: 00:09:21
Durée totale	: -17690433h52:52
Moyenne globale	: -
Pente moyenne	: nan %
Aire incluse	: 0.0000 ha
Détails par segments
distance  | durée    | vit.moy. | vit.max. | déniv. + | déniv -
   km     | hh:mn:ss |   km/h   |   km/h   |    m     |    m
     0.00 | 00:00:00 |      0.0 |      0.0 |        0 |        0{DC2}]]></desc>
      <rtept lat="45.55102" lon="5.93919">
        <ele>370.1</ele>
      </rtept>
    </rte>
  <rte>
    <name><![CDATA[10 févr. 2019 à 09:02:25]]></name>
    <cmt><![CDATA[10 févr. 2019 à 09:02:25]]></cmt>
    <desc><![CDATA[{DC1}Heure de fin	: 00:09:21
Durée totale	: -17690433h57:35
Moyenne globale	: -
Pente moyenne	: nan %
Aire incluse	: 0.0000 ha
Détails par segments
distance  | durée    | vit.moy. | vit.max. | déniv. + | déniv -
   km     | hh:mn:ss |   km/h   |   km/h   |    m     |    m
     0.00 | 00:00:00 |      0.0 |      0.0 |        0 |        0{DC2}]]></desc>
      <rtept lat="45.55207" lon="5.93813">
        <ele>375.2</ele>
      </rtept>
    </rte>
  <rte>
    <name><![CDATA[10 févr. 2019 à 09:00:27]]></name>
    <cmt><![CDATA[10 févr. 2019 à 09:00:27]]></cmt>
    <desc><![CDATA[{DC1}Heure de fin	: 00:09:21
Durée totale	: -17690433h59:32
Moyenne globale	: -
Pente moyenne	: nan %
Aire incluse	: 0.0000 ha
Détails par segments
distance  | durée    | vit.moy. | vit.max. | déniv. + | déniv -
   km     | hh:mn:ss |   km/h   |   km/h   |    m     |    m
     0.00 | 00:00:00 |      0.0 |      0.0 |        0 |        0{DC2}]]></desc>
      <rtept lat="45.55244" lon="5.93858">
        <ele>366.6</ele>
      </rtept>
    </rte>
</gpx>